<?xml version="1.0" encoding="UTF-8" standalone="no" ?>
<gpx xmlns="http://www.topografix.com/GPX/1/1" xmlns:xsi="http://www.w3.org/2001/XMLSchema-instance" xsi:schemaLocation="http://www.topografix.com/GPX/1/1 http://www.topografix.com/GPX/1/1/gpx.xsd" version="1.1" creator="VisuGPX - https://www.visugpx.com">
  <metadata>
    <name>Sortie Brignoles</name>
    <desc><![CDATA[Quelques descentes un peu raide]]></desc>
  </metadata>
  <trk>
    <name><![CDATA[Ride]]></name>
    <extensions>
      <line xmlns="http://www.topografix.com/GPX/gpx_style/0/2">
        <color>0000FF</color>
        <width>4</width>
      </line>
    </extensions>
    <trkseg>
      <trkpt lat="43.40337" lon="6.07273">
        <ele>222.9</ele>
        <time>2025-04-25T06:34:13.000Z</time>
        <extensions>
          <visugpx:TrkExtension xmlns:visugpx="https://www.visugpx.com/editgpx/">
            <visugpx:node>8</visugpx:node>
            </visugpx:TrkExtension>
        </extensions>
      </trkpt>
      <trkpt lat="43.40337" lon="6.07273">
        <ele>222.9</ele>
      </trkpt>
      <trkpt lat="43.40363" lon="6.07275">
        <ele>224.425587</ele>
        <time>2025-04-25T06:34:14.000Z</time>
      </trkpt>
      <trkpt lat="43.40366" lon="6.07282">
        <ele>224.446948</ele>
        <time>2025-04-25T06:34:15.000Z</time>
      </trkpt>
      <trkpt lat="43.40366" lon="6.07282">
        <ele>224.446948</ele>
        <time>2025-04-25T06:34:15.000Z</time>
      </trkpt>
      <trkpt lat="43.40369" lon="6.0729">
        <ele>224.469484</ele>
        <time>2025-04-25T06:34:16.000Z</time>
      </trkpt>
      <trkpt lat="43.40374" lon="6.073">
        <ele>224.497778</ele>
        <time>2025-04-25T06:34:17.000Z</time>
      </trkpt>
      <trkpt lat="43.40374" lon="6.073">
        <ele>224.497778</ele>
        <time>2025-04-25T06:34:17.000Z</time>
      </trkpt>
      <trkpt lat="43.40376" lon="6.07308">
        <ele>224.520051</ele>
        <time>2025-04-25T06:34:18.000Z</time>
      </trkpt>
      <trkpt lat="43.40378" lon="6.07316">
        <ele>224.542505</ele>
        <time>2025-04-25T06:34:19.000Z</time>
      </trkpt>
      <trkpt lat="43.40378" lon="6.07316">
        <ele>224.542505</ele>
        <time>2025-04-25T06:34:19.000Z</time>
      </trkpt>
      <trkpt lat="43.4038" lon="6.07325">
        <ele>224.56496</ele>
        <time>2025-04-25T06:34:20.000Z</time>
      </trkpt>
      <trkpt lat="43.40382" lon="6.07333">
        <ele>224.587291</ele>
        <time>2025-04-25T06:34:21.000Z</time>
      </trkpt>
      <trkpt lat="43.40383" lon="6.0734">
        <ele>224.605943</ele>
        <time>2025-04-25T06:34:22.000Z</time>
      </trkpt>
      <trkpt lat="43.40383" lon="6.0734">
        <ele>224.605943</ele>
        <time>2025-04-25T06:34:22.000Z</time>
      </trkpt>
      <trkpt lat="43.40384" lon="6.07348">
        <ele>224.624767</ele>
        <time>2025-04-25T06:34:23.000Z</time>
      </trkpt>
      <trkpt lat="43.40385" lon="6.07355">
        <ele>224.643173</ele>
        <time>2025-04-25T06:34:24.000Z</time>
      </trkpt>
      <trkpt lat="43.40385" lon="6.07355">
        <ele>224.643173</ele>
        <time>2025-04-25T06:34:24.000Z</time>
      </trkpt>
      <trkpt lat="43.40386" lon="6.07363">
        <ele>224.662987</ele>
        <time>2025-04-25T06:34:25.000Z</time>
      </trkpt>
      <trkpt lat="43.40386" lon="6.07363">
        <ele>224.662987</ele>
        <time>2025-04-25T06:34:25.000Z</time>
      </trkpt>
      <trkpt lat="43.40387" lon="6.0737">
        <ele>224.683049</ele>
        <time>2025-04-25T06:34:26.000Z</time>
      </trkpt>
      <trkpt lat="43.40388" lon="6.07379">
        <ele>224.703939</ele>
        <time>2025-04-25T06:34:27.000Z</time>
      </trkpt>
      <trkpt lat="43.40388" lon="6.07379">
        <ele>224.703939</ele>
        <time>2025-04-25T06:34:27.000Z</time>
      </trkpt>
      <trkpt lat="43.40389" lon="6.07387">
        <ele>224.724942</ele>
        <time>2025-04-25T06:34:28.000Z</time>
      </trkpt>
      <trkpt lat="43.40389" lon="6.07397">
        <ele>224.751237</ele>
        <time>2025-04-25T06:34:29.000Z</time>
      </trkpt>
      <trkpt lat="43.40389" lon="6.07397">
        <ele>224.751237</ele>
        <time>2025-04-25T06:34:29.000Z</time>
      </trkpt>
      <trkpt lat="43.40389" lon="6.07407">
        <ele>224.776234</ele>
        <time>2025-04-25T06:34:30.000Z</time>
      </trkpt>
      <trkpt lat="43.40389" lon="6.07418">
        <ele>224.802782</ele>
        <time>2025-04-25T06:34:31.000Z</time>
      </trkpt>
      <trkpt lat="43.40389" lon="6.07418">
        <ele>224.802782</ele>
        <time>2025-04-25T06:34:31.000Z</time>
      </trkpt>
      <trkpt lat="43.40388" lon="6.07427">
        <ele>224.826305</ele>
        <time>2025-04-25T06:34:32.000Z</time>
      </trkpt>
      <trkpt lat="43.40387" lon="6.07436">
        <ele>224.8497</ele>
        <time>2025-04-25T06:34:33.000Z</time>
      </trkpt>
      <trkpt lat="43.40387" lon="6.07436">
        <ele>224.8497</ele>
        <time>2025-04-25T06:34:33.000Z</time>
      </trkpt>
      <trkpt lat="43.40387" lon="6.07445">
        <ele>224.872303</ele>
        <time>2025-04-25T06:34:34.000Z</time>
      </trkpt>
      <trkpt lat="43.40385" lon="6.07454">
        <ele>224.894166</ele>
        <time>2025-04-25T06:34:35.000Z</time>
      </trkpt>
      <trkpt lat="43.40385" lon="6.07454">
        <ele>224.894166</ele>
        <time>2025-04-25T06:34:35.000Z</time>
      </trkpt>
      <trkpt lat="43.40384" lon="6.07462">
        <ele>224.915027</ele>
        <time>2025-04-25T06:34:36.000Z</time>
      </trkpt>
      <trkpt lat="43.40382" lon="6.0747">
        <ele>224.938096</ele>
        <time>2025-04-25T06:34:37.000Z</time>
      </trkpt>
      <trkpt lat="43.40382" lon="6.0747">
        <ele>224.938096</ele>
        <time>2025-04-25T06:34:37.000Z</time>
      </trkpt>
      <trkpt lat="43.40381" lon="6.07478">
        <ele>224.946195</ele>
        <time>2025-04-25T06:34:38.000Z</time>
      </trkpt>
      <trkpt lat="43.40379" lon="6.07487">
        <ele>224.954634</ele>
        <time>2025-04-25T06:34:39.000Z</time>
      </trkpt>
      <trkpt lat="43.40378" lon="6.07495">
        <ele>224.963216</ele>
        <time>2025-04-25T06:34:40.000Z</time>
      </trkpt>
      <trkpt lat="43.40378" lon="6.07495">
        <ele>224.963216</ele>
        <time>2025-04-25T06:34:40.000Z</time>
      </trkpt>
      <trkpt lat="43.40377" lon="6.07503">
        <ele>224.97105</ele>
        <time>2025-04-25T06:34:41.000Z</time>
      </trkpt>
      <trkpt lat="43.40375" lon="6.07511">
        <ele>224.979679</ele>
        <time>2025-04-25T06:34:42.000Z</time>
      </trkpt>
      <trkpt lat="43.40374" lon="6.0752">
        <ele>224.988379</ele>
        <time>2025-04-25T06:34:43.000Z</time>
      </trkpt>
      <trkpt lat="43.40374" lon="6.0752">
        <ele>224.988379</ele>
        <time>2025-04-25T06:34:43.000Z</time>
      </trkpt>
      <trkpt lat="43.40374" lon="6.07529">
        <ele>224.997388</ele>
        <time>2025-04-25T06:34:44.000Z</time>
      </trkpt>
      <trkpt lat="43.40373" lon="6.07537">
        <ele>225.005129</ele>
        <time>2025-04-25T06:34:45.000Z</time>
      </trkpt>
      <trkpt lat="43.40373" lon="6.07545">
        <ele>225.012707</ele>
        <time>2025-04-25T06:34:45.000Z</time>
      </trkpt>
      <trkpt lat="43.40373" lon="6.07552">
        <ele>225.019685</ele>
        <time>2025-04-25T06:34:47.000Z</time>
      </trkpt>
      <trkpt lat="43.40372" lon="6.0756">
        <ele>225.027958</ele>
        <time>2025-04-25T06:34:48.000Z</time>
      </trkpt>
      <trkpt lat="43.40372" lon="6.0757">
        <ele>225.037113</ele>
        <time>2025-04-25T06:34:49.000Z</time>
      </trkpt>
      <trkpt lat="43.40371" lon="6.07579">
        <ele>225.046661</ele>
        <time>2025-04-25T06:34:50.000Z</time>
      </trkpt>
      <trkpt lat="43.40371" lon="6.07588">
        <ele>225.055719</ele>
        <time>2025-04-25T06:34:51.000Z</time>
      </trkpt>
      <trkpt lat="43.40371" lon="6.07588">
        <ele>225.055719</ele>
        <time>2025-04-25T06:34:51.000Z</time>
      </trkpt>
      <trkpt lat="43.40371" lon="6.07598">
        <ele>225.064769</ele>
        <time>2025-04-25T06:34:52.000Z</time>
      </trkpt>
      <trkpt lat="43.4037" lon="6.07608">
        <ele>225.075047</ele>
        <time>2025-04-25T06:34:53.000Z</time>
      </trkpt>
      <trkpt lat="43.4037" lon="6.07608">
        <ele>225.075047</ele>
        <time>2025-04-25T06:34:53.000Z</time>
      </trkpt>
      <trkpt lat="43.40369" lon="6.07618">
        <ele>225.084911</ele>
        <time>2025-04-25T06:34:54.000Z</time>
      </trkpt>
      <trkpt lat="43.40369" lon="6.07618">
        <ele>225.084911</ele>
        <time>2025-04-25T06:34:54.000Z</time>
      </trkpt>
      <trkpt lat="43.40367" lon="6.07627">
        <ele>225.094081</ele>
        <time>2025-04-25T06:34:55.000Z</time>
      </trkpt>
      <trkpt lat="43.40365" lon="6.07636">
        <ele>225.103829</ele>
        <time>2025-04-25T06:34:56.000Z</time>
      </trkpt>
      <trkpt lat="43.40362" lon="6.07645">
        <ele>225.112852</ele>
        <time>2025-04-25T06:34:57.000Z</time>
      </trkpt>
      <trkpt lat="43.40362" lon="6.07645">
        <ele>225.112852</ele>
        <time>2025-04-25T06:34:57.000Z</time>
      </trkpt>
      <trkpt lat="43.40358" lon="6.07653">
        <ele>225.122712</ele>
        <time>2025-04-25T06:34:58.000Z</time>
      </trkpt>
      <trkpt lat="43.40354" lon="6.0766">
        <ele>225.131143</ele>
        <time>2025-04-25T06:34:59.000Z</time>
      </trkpt>
      <trkpt lat="43.4035" lon="6.07665">
        <ele>225.138818</ele>
        <time>2025-04-25T06:35:00.000Z</time>
      </trkpt>
      <trkpt lat="43.40345" lon="6.07672">
        <ele>225.148121</ele>
        <time>2025-04-25T06:35:01.000Z</time>
      </trkpt>
      <trkpt lat="43.4034" lon="6.07678">
        <ele>225.157466</ele>
        <time>2025-04-25T06:35:02.000Z</time>
      </trkpt>
      <trkpt lat="43.40335" lon="6.07684">
        <ele>225.165972</ele>
        <time>2025-04-25T06:35:03.000Z</time>
      </trkpt>
      <trkpt lat="43.4033" lon="6.07691">
        <ele>225.175619</ele>
        <time>2025-04-25T06:35:04.000Z</time>
      </trkpt>
      <trkpt lat="43.40325" lon="6.07698">
        <ele>225.229714</ele>
        <time>2025-04-25T06:35:05.000Z</time>
      </trkpt>
      <trkpt lat="43.40325" lon="6.07698">
        <ele>225.229714</ele>
        <time>2025-04-25T06:35:05.000Z</time>
      </trkpt>
      <trkpt lat="43.40321" lon="6.07707">
        <ele>225.358855</ele>
        <time>2025-04-25T06:35:06.000Z</time>
      </trkpt>
      <trkpt lat="43.40317" lon="6.07714">
        <ele>225.471176</ele>
        <time>2025-04-25T06:35:07.000Z</time>
      </trkpt>
      <trkpt lat="43.40315" lon="6.07723">
        <ele>225.584537</ele>
        <time>2025-04-25T06:35:08.000Z</time>
      </trkpt>
      <trkpt lat="43.40315" lon="6.07723">
        <ele>225.584537</ele>
        <time>2025-04-25T06:35:08.000Z</time>
      </trkpt>
      <trkpt lat="43.40312" lon="6.07731">
        <ele>225.694107</ele>
        <time>2025-04-25T06:35:09.000Z</time>
      </trkpt>
      <trkpt lat="43.40311" lon="6.07739">
        <ele>225.800723</ele>
        <time>2025-04-25T06:35:10.000Z</time>
      </trkpt>
      <trkpt lat="43.40311" lon="6.07739">
        <ele>225.800723</ele>
        <time>2025-04-25T06:35:10.000Z</time>
      </trkpt>
      <trkpt lat="43.40309" lon="6.07747">
        <ele>225.906563</ele>
        <time>2025-04-25T06:35:11.000Z</time>
      </trkpt>
      <trkpt lat="43.40307" lon="6.07756">
        <ele>226.01623</ele>
        <time>2025-04-25T06:35:12.000Z</time>
      </trkpt>
      <trkpt lat="43.40307" lon="6.07764">
        <ele>226.126582</ele>
        <time>2025-04-25T06:35:13.000Z</time>
      </trkpt>
      <trkpt lat="43.40307" lon="6.07764">
        <ele>226.126582</ele>
        <time>2025-04-25T06:35:13.000Z</time>
      </trkpt>
      <trkpt lat="43.40306" lon="6.07773">
        <ele>226.234661</ele>
        <time>2025-04-25T06:35:14.000Z</time>
      </trkpt>
      <trkpt lat="43.40305" lon="6.07781">
        <ele>226.332856</ele>
        <time>2025-04-25T06:35:15.000Z</time>
      </trkpt>
      <trkpt lat="43.40305" lon="6.07781">
        <ele>226.332856</ele>
        <time>2025-04-25T06:35:15.000Z</time>
      </trkpt>
      <trkpt lat="43.40304" lon="6.0779">
        <ele>226.451542</ele>
        <time>2025-04-25T06:35:15.000Z</time>
      </trkpt>
      <trkpt lat="43.40303" lon="6.07799">
        <ele>226.560857</ele>
        <time>2025-04-25T06:35:17.000Z</time>
      </trkpt>
      <trkpt lat="43.40303" lon="6.07799">
        <ele>226.560857</ele>
        <time>2025-04-25T06:35:17.000Z</time>
      </trkpt>
      <trkpt lat="43.40302" lon="6.07807">
        <ele>226.665016</ele>
        <time>2025-04-25T06:35:17.000Z</time>
      </trkpt>
      <trkpt lat="43.40301" lon="6.07816">
        <ele>226.774179</ele>
        <time>2025-04-25T06:35:19.000Z</time>
      </trkpt>
      <trkpt lat="43.40301" lon="6.07816">
        <ele>226.774179</ele>
        <time>2025-04-25T06:35:19.000Z</time>
      </trkpt>
      <trkpt lat="43.403" lon="6.07824">
        <ele>226.880814</ele>
        <time>2025-04-25T06:35:19.000Z</time>
      </trkpt>
      <trkpt lat="43.403" lon="6.07833">
        <ele>226.98642</ele>
        <time>2025-04-25T06:35:21.000Z</time>
      </trkpt>
      <trkpt lat="43.403" lon="6.07833">
        <ele>226.98642</ele>
        <time>2025-04-25T06:35:21.000Z</time>
      </trkpt>
      <trkpt lat="43.40299" lon="6.07841">
        <ele>227.095736</ele>
        <time>2025-04-25T06:35:22.000Z</time>
      </trkpt>
      <trkpt lat="43.40298" lon="6.0785">
        <ele>227.205816</ele>
        <time>2025-04-25T06:35:23.000Z</time>
      </trkpt>
      <trkpt lat="43.40298" lon="6.0785">
        <ele>227.205816</ele>
        <time>2025-04-25T06:35:23.000Z</time>
      </trkpt>
      <trkpt lat="43.40297" lon="6.07858">
        <ele>227.305246</ele>
        <time>2025-04-25T06:35:24.000Z</time>
      </trkpt>
      <trkpt lat="43.40295" lon="6.07867">
        <ele>227.416708</ele>
        <time>2025-04-25T06:35:25.000Z</time>
      </trkpt>
      <trkpt lat="43.40295" lon="6.07867">
        <ele>227.416708</ele>
        <time>2025-04-25T06:35:25.000Z</time>
      </trkpt>
      <trkpt lat="43.40294" lon="6.07875">
        <ele>227.52556</ele>
        <time>2025-04-25T06:35:26.000Z</time>
      </trkpt>
      <trkpt lat="43.40294" lon="6.07884">
        <ele>227.62993</ele>
        <time>2025-04-25T06:35:27.000Z</time>
      </trkpt>
      <trkpt lat="43.40294" lon="6.07884">
        <ele>227.62993</ele>
        <time>2025-04-25T06:35:27.000Z</time>
      </trkpt>
      <trkpt lat="43.40292" lon="6.07892">
        <ele>227.738783</ele>
        <time>2025-04-25T06:35:28.000Z</time>
      </trkpt>
      <trkpt lat="43.40291" lon="6.07901">
        <ele>227.847946</ele>
        <time>2025-04-25T06:35:29.000Z</time>
      </trkpt>
      <trkpt lat="43.40291" lon="6.07901">
        <ele>227.847946</ele>
        <time>2025-04-25T06:35:29.000Z</time>
      </trkpt>
      <trkpt lat="43.4029" lon="6.07909">
        <ele>227.948216</ele>
        <time>2025-04-25T06:35:30.000Z</time>
      </trkpt>
      <trkpt lat="43.4029" lon="6.07909">
        <ele>227.948216</ele>
        <time>2025-04-25T06:35:30.000Z</time>
      </trkpt>
      <trkpt lat="43.40289" lon="6.07917">
        <ele>228.058878</ele>
        <time>2025-04-25T06:35:31.000Z</time>
      </trkpt>
      <trkpt lat="43.40289" lon="6.07917">
        <ele>228.058878</ele>
        <time>2025-04-25T06:35:31.000Z</time>
      </trkpt>
      <trkpt lat="43.40287" lon="6.07925">
        <ele>228.164981</ele>
        <time>2025-04-25T06:35:32.000Z</time>
      </trkpt>
      <trkpt lat="43.40287" lon="6.07925">
        <ele>228.164981</ele>
        <time>2025-04-25T06:35:32.000Z</time>
      </trkpt>
      <trkpt lat="43.40285" lon="6.07933">
        <ele>228.263994</ele>
        <time>2025-04-25T06:35:33.000Z</time>
      </trkpt>
      <trkpt lat="43.40285" lon="6.07933">
        <ele>228.263994</ele>
        <time>2025-04-25T06:35:33.000Z</time>
      </trkpt>
      <trkpt lat="43.40282" lon="6.0794">
        <ele>228.466789</ele>
        <time>2025-04-25T06:35:34.000Z</time>
      </trkpt>
      <trkpt lat="43.40282" lon="6.0794">
        <ele>228.466789</ele>
        <time>2025-04-25T06:35:34.000Z</time>
      </trkpt>
      <trkpt lat="43.4028" lon="6.07948">
        <ele>228.679279</ele>
        <time>2025-04-25T06:35:35.000Z</time>
      </trkpt>
      <trkpt lat="43.4028" lon="6.07948">
        <ele>228.679279</ele>
        <time>2025-04-25T06:35:35.000Z</time>
      </trkpt>
      <trkpt lat="43.40277" lon="6.07956">
        <ele>228.909864</ele>
        <time>2025-04-25T06:35:36.000Z</time>
      </trkpt>
      <trkpt lat="43.40277" lon="6.07956">
        <ele>228.909864</ele>
        <time>2025-04-25T06:35:36.000Z</time>
      </trkpt>
      <trkpt lat="43.40274" lon="6.07963">
        <ele>229.118581</ele>
        <time>2025-04-25T06:35:37.000Z</time>
      </trkpt>
      <trkpt lat="43.40274" lon="6.07963">
        <ele>229.118581</ele>
        <time>2025-04-25T06:35:37.000Z</time>
      </trkpt>
      <trkpt lat="43.40271" lon="6.07969">
        <ele>229.305573</ele>
        <time>2025-04-25T06:35:38.000Z</time>
      </trkpt>
      <trkpt lat="43.40271" lon="6.07969">
        <ele>229.305573</ele>
        <time>2025-04-25T06:35:38.000Z</time>
      </trkpt>
      <trkpt lat="43.40268" lon="6.07974">
        <ele>229.47438</ele>
        <time>2025-04-25T06:35:39.000Z</time>
      </trkpt>
      <trkpt lat="43.40268" lon="6.07974">
        <ele>229.47438</ele>
        <time>2025-04-25T06:35:39.000Z</time>
      </trkpt>
      <trkpt lat="43.40264" lon="6.0798">
        <ele>229.693966</ele>
        <time>2025-04-25T06:35:40.000Z</time>
      </trkpt>
      <trkpt lat="43.40264" lon="6.0798">
        <ele>229.693966</ele>
        <time>2025-04-25T06:35:40.000Z</time>
      </trkpt>
      <trkpt lat="43.4026" lon="6.07987">
        <ele>229.918934</ele>
        <time>2025-04-25T06:35:41.000Z</time>
      </trkpt>
      <trkpt lat="43.4026" lon="6.07987">
        <ele>229.918934</ele>
        <time>2025-04-25T06:35:41.000Z</time>
      </trkpt>
      <trkpt lat="43.40255" lon="6.07994">
        <ele>230.174722</ele>
        <time>2025-04-25T06:35:42.000Z</time>
      </trkpt>
      <trkpt lat="43.40255" lon="6.07994">
        <ele>230.174722</ele>
        <time>2025-04-25T06:35:42.000Z</time>
      </trkpt>
      <trkpt lat="43.4025" lon="6.08">
        <ele>230.404104</ele>
        <time>2025-04-25T06:35:43.000Z</time>
      </trkpt>
      <trkpt lat="43.4025" lon="6.08">
        <ele>230.404104</ele>
        <time>2025-04-25T06:35:43.000Z</time>
      </trkpt>
      <trkpt lat="43.40245" lon="6.08007">
        <ele>230.641121</ele>
        <time>2025-04-25T06:35:44.000Z</time>
      </trkpt>
      <trkpt lat="43.40245" lon="6.08007">
        <ele>230.641121</ele>
        <time>2025-04-25T06:35:44.000Z</time>
      </trkpt>
      <trkpt lat="43.40241" lon="6.08013">
        <ele>230.866909</ele>
        <time>2025-04-25T06:35:45.000Z</time>
      </trkpt>
      <trkpt lat="43.40241" lon="6.08013">
        <ele>230.866909</ele>
        <time>2025-04-25T06:35:45.000Z</time>
      </trkpt>
      <trkpt lat="43.40236" lon="6.08018">
        <ele>231.068323</ele>
        <time>2025-04-25T06:35:46.000Z</time>
      </trkpt>
      <trkpt lat="43.40236" lon="6.08018">
        <ele>231.068323</ele>
        <time>2025-04-25T06:35:46.000Z</time>
      </trkpt>
      <trkpt lat="43.40232" lon="6.08023">
        <ele>231.266301</ele>
        <time>2025-04-25T06:35:47.000Z</time>
      </trkpt>
      <trkpt lat="43.40232" lon="6.08023">
        <ele>231.266301</ele>
        <time>2025-04-25T06:35:47.000Z</time>
      </trkpt>
      <trkpt lat="43.40228" lon="6.08028">
        <ele>231.448615</ele>
        <time>2025-04-25T06:35:48.000Z</time>
      </trkpt>
      <trkpt lat="43.40228" lon="6.08028">
        <ele>231.448615</ele>
        <time>2025-04-25T06:35:48.000Z</time>
      </trkpt>
      <trkpt lat="43.40225" lon="6.08032">
        <ele>231.617913</ele>
        <time>2025-04-25T06:35:49.000Z</time>
      </trkpt>
      <trkpt lat="43.40225" lon="6.08032">
        <ele>231.617913</ele>
        <time>2025-04-25T06:35:49.000Z</time>
      </trkpt>
      <trkpt lat="43.4022" lon="6.08038">
        <ele>231.828945</ele>
        <time>2025-04-25T06:35:50.000Z</time>
      </trkpt>
      <trkpt lat="43.4022" lon="6.08038">
        <ele>231.828945</ele>
        <time>2025-04-25T06:35:50.000Z</time>
      </trkpt>
      <trkpt lat="43.40216" lon="6.08043">
        <ele>232.030358</ele>
        <time>2025-04-25T06:35:51.000Z</time>
      </trkpt>
      <trkpt lat="43.40216" lon="6.08043">
        <ele>232.030358</ele>
        <time>2025-04-25T06:35:51.000Z</time>
      </trkpt>
      <trkpt lat="43.40211" lon="6.08049">
        <ele>232.264838</ele>
        <time>2025-04-25T06:35:52.000Z</time>
      </trkpt>
      <trkpt lat="43.40211" lon="6.08049">
        <ele>232.264838</ele>
        <time>2025-04-25T06:35:52.000Z</time>
      </trkpt>
      <trkpt lat="43.40207" lon="6.08055">
        <ele>232.471536</ele>
        <time>2025-04-25T06:35:53.000Z</time>
      </trkpt>
      <trkpt lat="43.40207" lon="6.08055">
        <ele>232.471536</ele>
        <time>2025-04-25T06:35:53.000Z</time>
      </trkpt>
      <trkpt lat="43.40203" lon="6.08061">
        <ele>232.675953</ele>
        <time>2025-04-25T06:35:54.000Z</time>
      </trkpt>
      <trkpt lat="43.402" lon="6.08067">
        <ele>232.877501</ele>
        <time>2025-04-25T06:35:55.000Z</time>
      </trkpt>
      <trkpt lat="43.402" lon="6.08067">
        <ele>232.877501</ele>
        <time>2025-04-25T06:35:55.000Z</time>
      </trkpt>
      <trkpt lat="43.40197" lon="6.08074">
        <ele>233.081499</ele>
        <time>2025-04-25T06:35:56.000Z</time>
      </trkpt>
      <trkpt lat="43.40197" lon="6.08074">
        <ele>233.081499</ele>
        <time>2025-04-25T06:35:56.000Z</time>
      </trkpt>
      <trkpt lat="43.40194" lon="6.08082">
        <ele>233.315049</ele>
        <time>2025-04-25T06:35:57.000Z</time>
      </trkpt>
      <trkpt lat="43.40192" lon="6.08089">
        <ele>233.509881</ele>
        <time>2025-04-25T06:35:58.000Z</time>
      </trkpt>
      <trkpt lat="43.40192" lon="6.08089">
        <ele>233.509881</ele>
        <time>2025-04-25T06:35:58.000Z</time>
      </trkpt>
      <trkpt lat="43.40191" lon="6.08097">
        <ele>233.71646</ele>
        <time>2025-04-25T06:35:59.000Z</time>
      </trkpt>
      <trkpt lat="43.40191" lon="6.08097">
        <ele>233.71646</ele>
        <time>2025-04-25T06:35:59.000Z</time>
      </trkpt>
      <trkpt lat="43.40191" lon="6.08105">
        <ele>233.914716</ele>
        <time>2025-04-25T06:36:00.000Z</time>
      </trkpt>
      <trkpt lat="43.40191" lon="6.08105">
        <ele>233.914716</ele>
        <time>2025-04-25T06:36:00.000Z</time>
      </trkpt>
      <trkpt lat="43.40191" lon="6.08113">
        <ele>234.115534</ele>
        <time>2025-04-25T06:36:01.000Z</time>
      </trkpt>
      <trkpt lat="43.40189" lon="6.08121">
        <ele>234.322751</ele>
        <time>2025-04-25T06:36:02.000Z</time>
      </trkpt>
      <trkpt lat="43.40189" lon="6.08121">
        <ele>234.322751</ele>
        <time>2025-04-25T06:36:02.000Z</time>
      </trkpt>
      <trkpt lat="43.40187" lon="6.08128">
        <ele>234.527098</ele>
        <time>2025-04-25T06:36:03.000Z</time>
      </trkpt>
      <trkpt lat="43.40187" lon="6.08128">
        <ele>234.527098</ele>
        <time>2025-04-25T06:36:03.000Z</time>
      </trkpt>
      <trkpt lat="43.40183" lon="6.08133">
        <ele>234.727184</ele>
        <time>2025-04-25T06:36:04.000Z</time>
      </trkpt>
      <trkpt lat="43.40183" lon="6.08133">
        <ele>234.727184</ele>
        <time>2025-04-25T06:36:04.000Z</time>
      </trkpt>
      <trkpt lat="43.40179" lon="6.08137">
        <ele>234.960635</ele>
        <time>2025-04-25T06:36:05.000Z</time>
      </trkpt>
      <trkpt lat="43.40179" lon="6.08137">
        <ele>234.960635</ele>
        <time>2025-04-25T06:36:05.000Z</time>
      </trkpt>
      <trkpt lat="43.40175" lon="6.08141">
        <ele>235.188599</ele>
        <time>2025-04-25T06:36:06.000Z</time>
      </trkpt>
      <trkpt lat="43.40175" lon="6.08141">
        <ele>235.188599</ele>
        <time>2025-04-25T06:36:06.000Z</time>
      </trkpt>
      <trkpt lat="43.40169" lon="6.08143">
        <ele>235.43861</ele>
        <time>2025-04-25T06:36:07.000Z</time>
      </trkpt>
      <trkpt lat="43.40169" lon="6.08143">
        <ele>235.43861</ele>
        <time>2025-04-25T06:36:07.000Z</time>
      </trkpt>
      <trkpt lat="43.40163" lon="6.08145">
        <ele>235.726307</ele>
        <time>2025-04-25T06:36:08.000Z</time>
      </trkpt>
      <trkpt lat="43.40163" lon="6.08145">
        <ele>235.726307</ele>
        <time>2025-04-25T06:36:08.000Z</time>
      </trkpt>
      <trkpt lat="43.40147" lon="6.08147">
        <ele>236.44366</ele>
        <time>2025-04-25T06:36:10.000Z</time>
      </trkpt>
      <trkpt lat="43.40147" lon="6.08147">
        <ele>236.44366</ele>
        <time>2025-04-25T06:36:10.000Z</time>
      </trkpt>
      <trkpt lat="43.40143" lon="6.08148">
        <ele>236.613229</ele>
        <time>2025-04-25T06:36:11.000Z</time>
      </trkpt>
      <trkpt lat="43.40143" lon="6.08148">
        <ele>236.613229</ele>
        <time>2025-04-25T06:36:11.000Z</time>
      </trkpt>
      <trkpt lat="43.40139" lon="6.08149">
        <ele>236.799988</ele>
        <time>2025-04-25T06:36:12.000Z</time>
      </trkpt>
      <trkpt lat="43.40139" lon="6.08149">
        <ele>236.799988</ele>
        <time>2025-04-25T06:36:12.000Z</time>
      </trkpt>
      <trkpt lat="43.40134" lon="6.08149">
        <ele>237.01823</ele>
        <time>2025-04-25T06:36:13.000Z</time>
      </trkpt>
      <trkpt lat="43.40134" lon="6.08149">
        <ele>237.01823</ele>
        <time>2025-04-25T06:36:13.000Z</time>
      </trkpt>
      <trkpt lat="43.40128" lon="6.0815">
        <ele>237.276383</ele>
        <time>2025-04-25T06:36:14.000Z</time>
      </trkpt>
      <trkpt lat="43.40128" lon="6.0815">
        <ele>237.276383</ele>
        <time>2025-04-25T06:36:14.000Z</time>
      </trkpt>
      <trkpt lat="43.40123" lon="6.08151">
        <ele>237.512574</ele>
        <time>2025-04-25T06:36:15.000Z</time>
      </trkpt>
      <trkpt lat="43.40123" lon="6.08151">
        <ele>237.512574</ele>
        <time>2025-04-25T06:36:15.000Z</time>
      </trkpt>
      <trkpt lat="43.40117" lon="6.08152">
        <ele>237.74918</ele>
        <time>2025-04-25T06:36:16.000Z</time>
      </trkpt>
      <trkpt lat="43.40117" lon="6.08152">
        <ele>237.74918</ele>
        <time>2025-04-25T06:36:16.000Z</time>
      </trkpt>
      <trkpt lat="43.40112" lon="6.08153">
        <ele>237.972208</ele>
        <time>2025-04-25T06:36:17.000Z</time>
      </trkpt>
      <trkpt lat="43.40112" lon="6.08153">
        <ele>237.972208</ele>
        <time>2025-04-25T06:36:17.000Z</time>
      </trkpt>
      <trkpt lat="43.40107" lon="6.08154">
        <ele>238.227245</ele>
        <time>2025-04-25T06:36:18.000Z</time>
      </trkpt>
      <trkpt lat="43.40107" lon="6.08154">
        <ele>238.227245</ele>
        <time>2025-04-25T06:36:18.000Z</time>
      </trkpt>
      <trkpt lat="43.40101" lon="6.08155">
        <ele>238.467827</ele>
        <time>2025-04-25T06:36:19.000Z</time>
      </trkpt>
      <trkpt lat="43.40101" lon="6.08155">
        <ele>238.467827</ele>
        <time>2025-04-25T06:36:19.000Z</time>
      </trkpt>
      <trkpt lat="43.40096" lon="6.08156">
        <ele>238.70489</ele>
        <time>2025-04-25T06:36:20.000Z</time>
      </trkpt>
      <trkpt lat="43.40096" lon="6.08156">
        <ele>238.70489</ele>
        <time>2025-04-25T06:36:20.000Z</time>
      </trkpt>
      <trkpt lat="43.40091" lon="6.08157">
        <ele>238.942455</ele>
        <time>2025-04-25T06:36:21.000Z</time>
      </trkpt>
      <trkpt lat="43.40091" lon="6.08157">
        <ele>238.942455</ele>
        <time>2025-04-25T06:36:21.000Z</time>
      </trkpt>
      <trkpt lat="43.40085" lon="6.08159">
        <ele>239.184384</ele>
        <time>2025-04-25T06:36:22.000Z</time>
      </trkpt>
      <trkpt lat="43.40085" lon="6.08159">
        <ele>239.184384</ele>
        <time>2025-04-25T06:36:22.000Z</time>
      </trkpt>
      <trkpt lat="43.40079" lon="6.0816">
        <ele>239.476434</ele>
        <time>2025-04-25T06:36:23.000Z</time>
      </trkpt>
      <trkpt lat="43.40079" lon="6.0816">
        <ele>239.476434</ele>
        <time>2025-04-25T06:36:23.000Z</time>
      </trkpt>
      <trkpt lat="43.40072" lon="6.08162">
        <ele>239.768484</ele>
        <time>2025-04-25T06:36:24.000Z</time>
      </trkpt>
      <trkpt lat="43.40072" lon="6.08162">
        <ele>239.768484</ele>
        <time>2025-04-25T06:36:24.000Z</time>
      </trkpt>
      <trkpt lat="43.40067" lon="6.08164">
        <ele>240.009929</ele>
        <time>2025-04-25T06:36:25.000Z</time>
      </trkpt>
      <trkpt lat="43.40067" lon="6.08164">
        <ele>240.009929</ele>
        <time>2025-04-25T06:36:25.000Z</time>
      </trkpt>
      <trkpt lat="43.40062" lon="6.08166">
        <ele>240.254772</ele>
        <time>2025-04-25T06:36:26.000Z</time>
      </trkpt>
      <trkpt lat="43.40062" lon="6.08166">
        <ele>240.254772</ele>
        <time>2025-04-25T06:36:26.000Z</time>
      </trkpt>
      <trkpt lat="43.40057" lon="6.08169">
        <ele>240.49475</ele>
        <time>2025-04-25T06:36:27.000Z</time>
      </trkpt>
      <trkpt lat="43.40057" lon="6.08169">
        <ele>240.49475</ele>
        <time>2025-04-25T06:36:27.000Z</time>
      </trkpt>
      <trkpt lat="43.40052" lon="6.08173">
        <ele>240.730163</ele>
        <time>2025-04-25T06:36:28.000Z</time>
      </trkpt>
      <trkpt lat="43.40052" lon="6.08173">
        <ele>240.730163</ele>
        <time>2025-04-25T06:36:28.000Z</time>
      </trkpt>
      <trkpt lat="43.40049" lon="6.08179">
        <ele>240.983531</ele>
        <time>2025-04-25T06:36:29.000Z</time>
      </trkpt>
      <trkpt lat="43.40049" lon="6.08179">
        <ele>240.983531</ele>
        <time>2025-04-25T06:36:29.000Z</time>
      </trkpt>
      <trkpt lat="43.40047" lon="6.08186">
        <ele>241.205759</ele>
        <time>2025-04-25T06:36:30.000Z</time>
      </trkpt>
      <trkpt lat="43.40047" lon="6.08186">
        <ele>241.205759</ele>
        <time>2025-04-25T06:36:30.000Z</time>
      </trkpt>
      <trkpt lat="43.40047" lon="6.08193">
        <ele>241.446774</ele>
        <time>2025-04-25T06:36:31.000Z</time>
      </trkpt>
      <trkpt lat="43.40047" lon="6.08193">
        <ele>241.446774</ele>
        <time>2025-04-25T06:36:31.000Z</time>
      </trkpt>
      <trkpt lat="43.40049" lon="6.082">
        <ele>241.687473</ele>
        <time>2025-04-25T06:36:32.000Z</time>
      </trkpt>
      <trkpt lat="43.40049" lon="6.082">
        <ele>241.687473</ele>
        <time>2025-04-25T06:36:32.000Z</time>
      </trkpt>
      <trkpt lat="43.40051" lon="6.08208">
        <ele>241.945755</ele>
        <time>2025-04-25T06:36:33.000Z</time>
      </trkpt>
      <trkpt lat="43.40051" lon="6.08208">
        <ele>241.945755</ele>
        <time>2025-04-25T06:36:33.000Z</time>
      </trkpt>
      <trkpt lat="43.40053" lon="6.08215">
        <ele>242.198505</ele>
        <time>2025-04-25T06:36:34.000Z</time>
      </trkpt>
      <trkpt lat="43.40053" lon="6.08215">
        <ele>242.198505</ele>
        <time>2025-04-25T06:36:34.000Z</time>
      </trkpt>
      <trkpt lat="43.40056" lon="6.08223">
        <ele>242.470366</ele>
        <time>2025-04-25T06:36:35.000Z</time>
      </trkpt>
      <trkpt lat="43.40056" lon="6.08223">
        <ele>242.470366</ele>
        <time>2025-04-25T06:36:35.000Z</time>
      </trkpt>
      <trkpt lat="43.40058" lon="6.0823">
        <ele>242.580103</ele>
        <time>2025-04-25T06:36:36.000Z</time>
      </trkpt>
      <trkpt lat="43.40058" lon="6.0823">
        <ele>242.580103</ele>
        <time>2025-04-25T06:36:36.000Z</time>
      </trkpt>
      <trkpt lat="43.4006" lon="6.08237">
        <ele>242.579136</ele>
        <time>2025-04-25T06:36:37.000Z</time>
      </trkpt>
      <trkpt lat="43.4006" lon="6.08237">
        <ele>242.579136</ele>
        <time>2025-04-25T06:36:37.000Z</time>
      </trkpt>
      <trkpt lat="43.40062" lon="6.08245">
        <ele>242.578035</ele>
        <time>2025-04-25T06:36:38.000Z</time>
      </trkpt>
      <trkpt lat="43.40062" lon="6.08245">
        <ele>242.578035</ele>
        <time>2025-04-25T06:36:38.000Z</time>
      </trkpt>
      <trkpt lat="43.40065" lon="6.08253">
        <ele>242.57698</ele>
        <time>2025-04-25T06:36:39.000Z</time>
      </trkpt>
      <trkpt lat="43.40065" lon="6.08253">
        <ele>242.57698</ele>
        <time>2025-04-25T06:36:39.000Z</time>
      </trkpt>
      <trkpt lat="43.40066" lon="6.0826">
        <ele>242.576032</ele>
        <time>2025-04-25T06:36:40.000Z</time>
      </trkpt>
      <trkpt lat="43.40066" lon="6.0826">
        <ele>242.576032</ele>
        <time>2025-04-25T06:36:40.000Z</time>
      </trkpt>
      <trkpt lat="43.40068" lon="6.08269">
        <ele>242.574944</ele>
        <time>2025-04-25T06:36:41.000Z</time>
      </trkpt>
      <trkpt lat="43.40068" lon="6.08269">
        <ele>242.574944</ele>
        <time>2025-04-25T06:36:41.000Z</time>
      </trkpt>
      <trkpt lat="43.40069" lon="6.08277">
        <ele>242.573885</ele>
        <time>2025-04-25T06:36:42.000Z</time>
      </trkpt>
      <trkpt lat="43.40069" lon="6.08277">
        <ele>242.573885</ele>
        <time>2025-04-25T06:36:42.000Z</time>
      </trkpt>
      <trkpt lat="43.40071" lon="6.08285">
        <ele>242.572789</ele>
        <time>2025-04-25T06:36:43.000Z</time>
      </trkpt>
      <trkpt lat="43.40071" lon="6.08285">
        <ele>242.572789</ele>
        <time>2025-04-25T06:36:43.000Z</time>
      </trkpt>
      <trkpt lat="43.40072" lon="6.08293">
        <ele>242.571755</ele>
        <time>2025-04-25T06:36:44.000Z</time>
      </trkpt>
      <trkpt lat="43.40072" lon="6.08299">
        <ele>242.570969</ele>
        <time>2025-04-25T06:36:45.000Z</time>
      </trkpt>
      <trkpt lat="43.40072" lon="6.08299">
        <ele>242.570969</ele>
        <time>2025-04-25T06:36:45.000Z</time>
      </trkpt>
      <trkpt lat="43.40072" lon="6.08304">
        <ele>242.570311</ele>
        <time>2025-04-25T06:36:46.000Z</time>
      </trkpt>
      <trkpt lat="43.40072" lon="6.08304">
        <ele>242.570311</ele>
        <time>2025-04-25T06:36:46.000Z</time>
      </trkpt>
      <trkpt lat="43.40072" lon="6.08309">
        <ele>242.569749</ele>
        <time>2025-04-25T06:36:47.000Z</time>
      </trkpt>
      <trkpt lat="43.40071" lon="6.08316">
        <ele>242.568859</ele>
        <time>2025-04-25T06:36:48.000Z</time>
      </trkpt>
      <trkpt lat="43.40071" lon="6.08316">
        <ele>242.568859</ele>
        <time>2025-04-25T06:36:48.000Z</time>
      </trkpt>
      <trkpt lat="43.40071" lon="6.08321">
        <ele>242.568213</ele>
        <time>2025-04-25T06:36:49.000Z</time>
      </trkpt>
      <trkpt lat="43.40071" lon="6.08324">
        <ele>242.567846</ele>
        <time>2025-04-25T06:36:50.000Z</time>
      </trkpt>
      <trkpt lat="43.40071" lon="6.08324">
        <ele>242.567846</ele>
        <time>2025-04-25T06:36:50.000Z</time>
      </trkpt>
      <trkpt lat="43.40072" lon="6.08327">
        <ele>242.567453</ele>
        <time>2025-04-25T06:36:51.000Z</time>
      </trkpt>
      <trkpt lat="43.40072" lon="6.08327">
        <ele>242.567453</ele>
        <time>2025-04-25T06:36:51.000Z</time>
      </trkpt>
      <trkpt lat="43.40073" lon="6.08329">
        <ele>242.567083</ele>
        <time>2025-04-25T06:36:52.000Z</time>
      </trkpt>
      <trkpt lat="43.40073" lon="6.08329">
        <ele>242.567083</ele>
        <time>2025-04-25T06:36:52.000Z</time>
      </trkpt>
      <trkpt lat="43.40076" lon="6.08332">
        <ele>242.566494</ele>
        <time>2025-04-25T06:36:53.000Z</time>
      </trkpt>
      <trkpt lat="43.40076" lon="6.08332">
        <ele>242.566494</ele>
        <time>2025-04-25T06:36:53.000Z</time>
      </trkpt>
      <trkpt lat="43.40078" lon="6.08333">
        <ele>242.565991</ele>
        <time>2025-04-25T06:36:54.000Z</time>
      </trkpt>
      <trkpt lat="43.40087" lon="6.08333">
        <ele>242.564474</ele>
        <time>2025-04-25T06:36:55.000Z</time>
      </trkpt>
      <trkpt lat="43.40087" lon="6.08333">
        <ele>242.564474</ele>
        <time>2025-04-25T06:36:55.000Z</time>
      </trkpt>
      <trkpt lat="43.40094" lon="6.08332">
        <ele>242.563261</ele>
        <time>2025-04-25T06:36:56.000Z</time>
      </trkpt>
      <trkpt lat="43.40101" lon="6.0833">
        <ele>242.561963</ele>
        <time>2025-04-25T06:36:57.000Z</time>
      </trkpt>
      <trkpt lat="43.40108" lon="6.08327">
        <ele>242.56078</ele>
        <time>2025-04-25T06:36:58.000Z</time>
      </trkpt>
      <trkpt lat="43.40108" lon="6.08327">
        <ele>242.56078</ele>
        <time>2025-04-25T06:36:58.000Z</time>
      </trkpt>
      <trkpt lat="43.40116" lon="6.08323">
        <ele>242.559287</ele>
        <time>2025-04-25T06:36:59.000Z</time>
      </trkpt>
      <trkpt lat="43.40124" lon="6.08317">
        <ele>242.557739</ele>
        <time>2025-04-25T06:37:00.000Z</time>
      </trkpt>
      <trkpt lat="43.40124" lon="6.08317">
        <ele>242.557739</ele>
        <time>2025-04-25T06:37:00.000Z</time>
      </trkpt>
      <trkpt lat="43.40131" lon="6.08312">
        <ele>242.556282</ele>
        <time>2025-04-25T06:37:01.000Z</time>
      </trkpt>
      <trkpt lat="43.40131" lon="6.08312">
        <ele>242.556282</ele>
        <time>2025-04-25T06:37:01.000Z</time>
      </trkpt>
      <trkpt lat="43.40139" lon="6.08305">
        <ele>242.554557</ele>
        <time>2025-04-25T06:37:02.000Z</time>
      </trkpt>
      <trkpt lat="43.40139" lon="6.08305">
        <ele>242.554557</ele>
        <time>2025-04-25T06:37:02.000Z</time>
      </trkpt>
      <trkpt lat="43.40149" lon="6.08296">
        <ele>242.552609</ele>
        <time>2025-04-25T06:37:03.000Z</time>
      </trkpt>
      <trkpt lat="43.40149" lon="6.08296">
        <ele>242.552609</ele>
        <time>2025-04-25T06:37:03.000Z</time>
      </trkpt>
      <trkpt lat="43.40155" lon="6.08291">
        <ele>242.551298</ele>
        <time>2025-04-25T06:37:04.000Z</time>
      </trkpt>
      <trkpt lat="43.40155" lon="6.08291">
        <ele>242.551298</ele>
        <time>2025-04-25T06:37:04.000Z</time>
      </trkpt>
      <trkpt lat="43.40162" lon="6.08285">
        <ele>242.549861</ele>
        <time>2025-04-25T06:37:05.000Z</time>
      </trkpt>
      <trkpt lat="43.40162" lon="6.08285">
        <ele>242.549861</ele>
        <time>2025-04-25T06:37:05.000Z</time>
      </trkpt>
      <trkpt lat="43.40167" lon="6.0828">
        <ele>242.506847</ele>
        <time>2025-04-25T06:37:06.000Z</time>
      </trkpt>
      <trkpt lat="43.40167" lon="6.0828">
        <ele>242.506847</ele>
        <time>2025-04-25T06:37:06.000Z</time>
      </trkpt>
      <trkpt lat="43.40171" lon="6.08276">
        <ele>242.414024</ele>
        <time>2025-04-25T06:37:07.000Z</time>
      </trkpt>
      <trkpt lat="43.40171" lon="6.08276">
        <ele>242.414024</ele>
        <time>2025-04-25T06:37:07.000Z</time>
      </trkpt>
      <trkpt lat="43.40175" lon="6.08271">
        <ele>242.327333</ele>
        <time>2025-04-25T06:37:08.000Z</time>
      </trkpt>
      <trkpt lat="43.40175" lon="6.08271">
        <ele>242.327333</ele>
        <time>2025-04-25T06:37:08.000Z</time>
      </trkpt>
      <trkpt lat="43.40178" lon="6.08268">
        <ele>242.254654</ele>
        <time>2025-04-25T06:37:09.000Z</time>
      </trkpt>
      <trkpt lat="43.40178" lon="6.08268">
        <ele>242.254654</ele>
        <time>2025-04-25T06:37:09.000Z</time>
      </trkpt>
      <trkpt lat="43.40182" lon="6.08266">
        <ele>242.183839</ele>
        <time>2025-04-25T06:37:10.000Z</time>
      </trkpt>
      <trkpt lat="43.40182" lon="6.08266">
        <ele>242.183839</ele>
        <time>2025-04-25T06:37:10.000Z</time>
      </trkpt>
      <trkpt lat="43.40182" lon="6.08266">
        <ele>242.176479</ele>
        <time>2025-04-25T06:37:11.000Z</time>
      </trkpt>
      <trkpt lat="43.40184" lon="6.08267">
        <ele>242.140327</ele>
        <time>2025-04-25T06:37:12.000Z</time>
      </trkpt>
      <trkpt lat="43.40185" lon="6.08271">
        <ele>242.087112</ele>
        <time>2025-04-25T06:37:13.000Z</time>
      </trkpt>
      <trkpt lat="43.40185" lon="6.08271">
        <ele>242.087112</ele>
        <time>2025-04-25T06:37:13.000Z</time>
      </trkpt>
      <trkpt lat="43.40186" lon="6.08275">
        <ele>242.035416</ele>
        <time>2025-04-25T06:37:14.000Z</time>
      </trkpt>
      <trkpt lat="43.40186" lon="6.08275">
        <ele>242.035416</ele>
        <time>2025-04-25T06:37:14.000Z</time>
      </trkpt>
      <trkpt lat="43.40186" lon="6.08275">
        <ele>242.035416</ele>
        <time>2025-04-25T06:37:15.000Z</time>
      </trkpt>
      <trkpt lat="43.40186" lon="6.08275">
        <ele>242.035416</ele>
        <time>2025-04-25T06:37:38.000Z</time>
      </trkpt>
      <trkpt lat="43.40186" lon="6.08275">
        <ele>242.035416</ele>
        <time>2025-04-25T06:38:28.000Z</time>
      </trkpt>
      <trkpt lat="43.40184" lon="6.08282">
        <ele>241.940348</ele>
        <time>2025-04-25T06:38:37.000Z</time>
      </trkpt>
      <trkpt lat="43.40184" lon="6.08283">
        <ele>241.926005</ele>
        <time>2025-04-25T06:38:39.000Z</time>
      </trkpt>
      <trkpt lat="43.40183" lon="6.08284">
        <ele>241.911243</ele>
        <time>2025-04-25T06:38:41.000Z</time>
      </trkpt>
      <trkpt lat="43.40183" lon="6.08285">
        <ele>241.893504</ele>
        <time>2025-04-25T06:38:41.000Z</time>
      </trkpt>
      <trkpt lat="43.40182" lon="6.08289">
        <ele>241.841376</ele>
        <time>2025-04-25T06:38:43.000Z</time>
      </trkpt>
      <trkpt lat="43.40181" lon="6.08297">
        <ele>241.748932</ele>
        <time>2025-04-25T06:38:43.000Z</time>
      </trkpt>
      <trkpt lat="43.40181" lon="6.08297">
        <ele>241.748932</ele>
        <time>2025-04-25T06:38:43.000Z</time>
      </trkpt>
      <trkpt lat="43.40181" lon="6.08299">
        <ele>241.713077</ele>
        <time>2025-04-25T06:38:45.000Z</time>
      </trkpt>
      <trkpt lat="43.40179" lon="6.08311">
        <ele>241.56088</ele>
        <time>2025-04-25T06:38:45.000Z</time>
      </trkpt>
      <trkpt lat="43.40179" lon="6.08311">
        <ele>241.56088</ele>
        <time>2025-04-25T06:38:45.000Z</time>
      </trkpt>
      <trkpt lat="43.40179" lon="6.08319">
        <ele>241.460229</ele>
        <time>2025-04-25T06:38:47.000Z</time>
      </trkpt>
      <trkpt lat="43.40179" lon="6.08319">
        <ele>241.460229</ele>
        <time>2025-04-25T06:38:47.000Z</time>
      </trkpt>
      <trkpt lat="43.40179" lon="6.08325">
        <ele>241.387026</ele>
        <time>2025-04-25T06:38:47.000Z</time>
      </trkpt>
      <trkpt lat="43.40179" lon="6.08325">
        <ele>241.387026</ele>
        <time>2025-04-25T06:38:47.000Z</time>
      </trkpt>
      <trkpt lat="43.40178" lon="6.08337">
        <ele>241.231093</ele>
        <time>2025-04-25T06:38:49.000Z</time>
      </trkpt>
      <trkpt lat="43.40177" lon="6.08346">
        <ele>241.121658</ele>
        <time>2025-04-25T06:38:50.000Z</time>
      </trkpt>
      <trkpt lat="43.40177" lon="6.08346">
        <ele>241.121658</ele>
        <time>2025-04-25T06:38:50.000Z</time>
      </trkpt>
      <trkpt lat="43.40177" lon="6.08354">
        <ele>241.017142</ele>
        <time>2025-04-25T06:38:51.000Z</time>
      </trkpt>
      <trkpt lat="43.40176" lon="6.08362">
        <ele>240.923906</ele>
        <time>2025-04-25T06:38:52.000Z</time>
      </trkpt>
      <trkpt lat="43.40176" lon="6.08362">
        <ele>240.923906</ele>
        <time>2025-04-25T06:38:52.000Z</time>
      </trkpt>
      <trkpt lat="43.40176" lon="6.0837">
        <ele>240.816883</ele>
        <time>2025-04-25T06:38:53.000Z</time>
      </trkpt>
      <trkpt lat="43.40176" lon="6.08377">
        <ele>240.727673</ele>
        <time>2025-04-25T06:38:53.000Z</time>
      </trkpt>
      <trkpt lat="43.40176" lon="6.08377">
        <ele>240.727673</ele>
        <time>2025-04-25T06:38:53.000Z</time>
      </trkpt>
      <trkpt lat="43.40176" lon="6.08385">
        <ele>240.635691</ele>
        <time>2025-04-25T06:38:55.000Z</time>
      </trkpt>
      <trkpt lat="43.40176" lon="6.08385">
        <ele>240.635691</ele>
        <time>2025-04-25T06:38:55.000Z</time>
      </trkpt>
      <trkpt lat="43.40176" lon="6.08387">
        <ele>240.610561</ele>
        <time>2025-04-25T06:38:56.000Z</time>
      </trkpt>
      <trkpt lat="43.40175" lon="6.084">
        <ele>240.445819</ele>
        <time>2025-04-25T06:38:57.000Z</time>
      </trkpt>
      <trkpt lat="43.40175" lon="6.084">
        <ele>240.445819</ele>
        <time>2025-04-25T06:38:57.000Z</time>
      </trkpt>
      <trkpt lat="43.40175" lon="6.08407">
        <ele>240.350327</ele>
        <time>2025-04-25T06:38:58.000Z</time>
      </trkpt>
      <trkpt lat="43.40175" lon="6.08407">
        <ele>240.350327</ele>
        <time>2025-04-25T06:38:58.000Z</time>
      </trkpt>
      <trkpt lat="43.40175" lon="6.08416">
        <ele>240.24604</ele>
        <time>2025-04-25T06:38:59.000Z</time>
      </trkpt>
      <trkpt lat="43.40175" lon="6.08423">
        <ele>240.155426</ele>
        <time>2025-04-25T06:39:00.000Z</time>
      </trkpt>
      <trkpt lat="43.40175" lon="6.0843">
        <ele>240.06219</ele>
        <time>2025-04-25T06:39:00.000Z</time>
      </trkpt>
      <trkpt lat="43.40174" lon="6.08438">
        <ele>239.966449</ele>
        <time>2025-04-25T06:39:02.000Z</time>
      </trkpt>
      <trkpt lat="43.40174" lon="6.08438">
        <ele>239.966449</ele>
        <time>2025-04-25T06:39:02.000Z</time>
      </trkpt>
      <trkpt lat="43.40173" lon="6.08445">
        <ele>239.876173</ele>
        <time>2025-04-25T06:39:02.000Z</time>
      </trkpt>
      <trkpt lat="43.40173" lon="6.08453">
        <ele>239.777424</ele>
        <time>2025-04-25T06:39:04.000Z</time>
      </trkpt>
      <trkpt lat="43.40172" lon="6.08461">
        <ele>239.673469</ele>
        <time>2025-04-25T06:39:05.000Z</time>
      </trkpt>
      <trkpt lat="43.40171" lon="6.08469">
        <ele>239.573472</ele>
        <time>2025-04-25T06:39:05.000Z</time>
      </trkpt>
      <trkpt lat="43.40171" lon="6.08469">
        <ele>239.573472</ele>
        <time>2025-04-25T06:39:05.000Z</time>
      </trkpt>
      <trkpt lat="43.40171" lon="6.08469">
        <ele>239.568446</ele>
        <time>2025-04-25T06:39:07.000Z</time>
      </trkpt>
      <trkpt lat="43.40169" lon="6.08485">
        <ele>239.475715</ele>
        <time>2025-04-25T06:39:08.000Z</time>
      </trkpt>
      <trkpt lat="43.40168" lon="6.08494">
        <ele>239.53305</ele>
        <time>2025-04-25T06:39:08.000Z</time>
      </trkpt>
      <trkpt lat="43.40168" lon="6.08502">
        <ele>239.58483</ele>
        <time>2025-04-25T06:39:09.000Z</time>
      </trkpt>
      <trkpt lat="43.40167" lon="6.0851">
        <ele>239.637026</ele>
        <time>2025-04-25T06:39:10.000Z</time>
      </trkpt>
      <trkpt lat="43.40167" lon="6.08519">
        <ele>239.689601</ele>
        <time>2025-04-25T06:39:11.000Z</time>
      </trkpt>
      <trkpt lat="43.40167" lon="6.08528">
        <ele>239.746085</ele>
        <time>2025-04-25T06:39:13.000Z</time>
      </trkpt>
      <trkpt lat="43.40168" lon="6.08536">
        <ele>239.800271</ele>
        <time>2025-04-25T06:39:14.000Z</time>
      </trkpt>
      <trkpt lat="43.40168" lon="6.08544">
        <ele>239.852679</ele>
        <time>2025-04-25T06:39:14.000Z</time>
      </trkpt>
      <trkpt lat="43.40169" lon="6.08553">
        <ele>239.908125</ele>
        <time>2025-04-25T06:39:16.000Z</time>
      </trkpt>
      <trkpt lat="43.40169" lon="6.08553">
        <ele>239.908125</ele>
        <time>2025-04-25T06:39:16.000Z</time>
      </trkpt>
      <trkpt lat="43.40169" lon="6.08558">
        <ele>239.939904</ele>
        <time>2025-04-25T06:39:17.000Z</time>
      </trkpt>
      <trkpt lat="43.40167" lon="6.0857">
        <ele>240.017292</ele>
        <time>2025-04-25T06:39:18.000Z</time>
      </trkpt>
      <trkpt lat="43.40167" lon="6.0857">
        <ele>240.017292</ele>
        <time>2025-04-25T06:39:18.000Z</time>
      </trkpt>
      <trkpt lat="43.40164" lon="6.08576">
        <ele>240.061998</ele>
        <time>2025-04-25T06:39:19.000Z</time>
      </trkpt>
      <trkpt lat="43.40161" lon="6.0858">
        <ele>240.097117</ele>
        <time>2025-04-25T06:39:19.000Z</time>
      </trkpt>
      <trkpt lat="43.40161" lon="6.0858">
        <ele>240.097117</ele>
        <time>2025-04-25T06:39:19.000Z</time>
      </trkpt>
      <trkpt lat="43.40155" lon="6.08585">
        <ele>240.156835</ele>
        <time>2025-04-25T06:39:21.000Z</time>
      </trkpt>
      <trkpt lat="43.40151" lon="6.08589">
        <ele>240.205561</ele>
        <time>2025-04-25T06:39:22.000Z</time>
      </trkpt>
      <trkpt lat="43.40146" lon="6.08593">
        <ele>240.255667</ele>
        <time>2025-04-25T06:39:23.000Z</time>
      </trkpt>
      <trkpt lat="43.40141" lon="6.08598">
        <ele>240.308814</ele>
        <time>2025-04-25T06:39:24.000Z</time>
      </trkpt>
      <trkpt lat="43.40135" lon="6.08603">
        <ele>240.365195</ele>
        <time>2025-04-25T06:39:25.000Z</time>
      </trkpt>
      <trkpt lat="43.40131" lon="6.08608">
        <ele>240.415907</ele>
        <time>2025-04-25T06:39:26.000Z</time>
      </trkpt>
      <trkpt lat="43.40125" lon="6.08613">
        <ele>240.473022</ele>
        <time>2025-04-25T06:39:27.000Z</time>
      </trkpt>
      <trkpt lat="43.4012" lon="6.08618">
        <ele>240.525456</ele>
        <time>2025-04-25T06:39:28.000Z</time>
      </trkpt>
      <trkpt lat="43.40115" lon="6.08622">
        <ele>240.577526</ele>
        <time>2025-04-25T06:39:29.000Z</time>
      </trkpt>
      <trkpt lat="43.4011" lon="6.08627">
        <ele>240.62996</ele>
        <time>2025-04-25T06:39:30.000Z</time>
      </trkpt>
      <trkpt lat="43.4011" lon="6.08627">
        <ele>240.62996</ele>
        <time>2025-04-25T06:39:30.000Z</time>
      </trkpt>
      <trkpt lat="43.40109" lon="6.08629">
        <ele>240.647934</ele>
        <time>2025-04-25T06:39:31.000Z</time>
      </trkpt>
      <trkpt lat="43.40102" lon="6.08639">
        <ele>240.736398</ele>
        <time>2025-04-25T06:39:32.000Z</time>
      </trkpt>
      <trkpt lat="43.40102" lon="6.08639">
        <ele>240.736398</ele>
        <time>2025-04-25T06:39:32.000Z</time>
      </trkpt>
      <trkpt lat="43.40101" lon="6.08645">
        <ele>240.775396</ele>
        <time>2025-04-25T06:39:33.000Z</time>
      </trkpt>
      <trkpt lat="43.401" lon="6.08647">
        <ele>240.789761</ele>
        <time>2025-04-25T06:39:34.000Z</time>
      </trkpt>
      <trkpt lat="43.401" lon="6.08647">
        <ele>240.789761</ele>
        <time>2025-04-25T06:39:34.000Z</time>
      </trkpt>
      <trkpt lat="43.401" lon="6.08661">
        <ele>240.878512</ele>
        <time>2025-04-25T06:39:35.000Z</time>
      </trkpt>
      <trkpt lat="43.401" lon="6.08661">
        <ele>240.878512</ele>
        <time>2025-04-25T06:39:35.000Z</time>
      </trkpt>
      <trkpt lat="43.401" lon="6.08668">
        <ele>240.921095</ele>
        <time>2025-04-25T06:39:36.000Z</time>
      </trkpt>
      <trkpt lat="43.40101" lon="6.08676">
        <ele>240.973915</ele>
        <time>2025-04-25T06:39:37.000Z</time>
      </trkpt>
      <trkpt lat="43.40101" lon="6.08676">
        <ele>240.973915</ele>
        <time>2025-04-25T06:39:37.000Z</time>
      </trkpt>
      <trkpt lat="43.40102" lon="6.08678">
        <ele>240.986446</ele>
        <time>2025-04-25T06:39:38.000Z</time>
      </trkpt>
      <trkpt lat="43.40102" lon="6.08678">
        <ele>240.986446</ele>
        <time>2025-04-25T06:39:38.000Z</time>
      </trkpt>
      <trkpt lat="43.40103" lon="6.08691">
        <ele>241.096777</ele>
        <time>2025-04-25T06:39:39.000Z</time>
      </trkpt>
      <trkpt lat="43.40103" lon="6.08691">
        <ele>241.096777</ele>
        <time>2025-04-25T06:39:39.000Z</time>
      </trkpt>
      <trkpt lat="43.40103" lon="6.08699">
        <ele>241.17065</ele>
        <time>2025-04-25T06:39:40.000Z</time>
      </trkpt>
      <trkpt lat="43.40103" lon="6.08699">
        <ele>241.17065</ele>
        <time>2025-04-25T06:39:40.000Z</time>
      </trkpt>
      <trkpt lat="43.40102" lon="6.08707">
        <ele>241.250522</ele>
        <time>2025-04-25T06:39:41.000Z</time>
      </trkpt>
      <trkpt lat="43.40102" lon="6.08707">
        <ele>241.250522</ele>
        <time>2025-04-25T06:39:41.000Z</time>
      </trkpt>
      <trkpt lat="43.40101" lon="6.08716">
        <ele>241.328568</ele>
        <time>2025-04-25T06:39:42.000Z</time>
      </trkpt>
      <trkpt lat="43.40101" lon="6.08716">
        <ele>241.328568</ele>
        <time>2025-04-25T06:39:42.000Z</time>
      </trkpt>
      <trkpt lat="43.401" lon="6.08724">
        <ele>241.405385</ele>
        <time>2025-04-25T06:39:43.000Z</time>
      </trkpt>
      <trkpt lat="43.401" lon="6.08724">
        <ele>241.405385</ele>
        <time>2025-04-25T06:39:43.000Z</time>
      </trkpt>
      <trkpt lat="43.40099" lon="6.08731">
        <ele>241.476775</ele>
        <time>2025-04-25T06:39:44.000Z</time>
      </trkpt>
      <trkpt lat="43.40099" lon="6.08731">
        <ele>241.476775</ele>
        <time>2025-04-25T06:39:44.000Z</time>
      </trkpt>
      <trkpt lat="43.40097" lon="6.0874">
        <ele>241.558556</ele>
        <time>2025-04-25T06:39:45.000Z</time>
      </trkpt>
      <trkpt lat="43.40097" lon="6.0874">
        <ele>241.558556</ele>
        <time>2025-04-25T06:39:45.000Z</time>
      </trkpt>
      <trkpt lat="43.40096" lon="6.08749">
        <ele>241.644012</ele>
        <time>2025-04-25T06:39:46.000Z</time>
      </trkpt>
      <trkpt lat="43.40096" lon="6.08749">
        <ele>241.644012</ele>
        <time>2025-04-25T06:39:46.000Z</time>
      </trkpt>
      <trkpt lat="43.40094" lon="6.08756">
        <ele>241.715674</ele>
        <time>2025-04-25T06:39:47.000Z</time>
      </trkpt>
      <trkpt lat="43.40094" lon="6.08756">
        <ele>241.715674</ele>
        <time>2025-04-25T06:39:47.000Z</time>
      </trkpt>
      <trkpt lat="43.40092" lon="6.08764">
        <ele>241.794077</ele>
        <time>2025-04-25T06:39:48.000Z</time>
      </trkpt>
      <trkpt lat="43.40089" lon="6.08772">
        <ele>241.873756</ele>
        <time>2025-04-25T06:39:49.000Z</time>
      </trkpt>
      <trkpt lat="43.40086" lon="6.08779">
        <ele>241.946213</ele>
        <time>2025-04-25T06:39:50.000Z</time>
      </trkpt>
      <trkpt lat="43.40086" lon="6.08779">
        <ele>241.946213</ele>
        <time>2025-04-25T06:39:50.000Z</time>
      </trkpt>
      <trkpt lat="43.40084" lon="6.08786">
        <ele>242.015312</ele>
        <time>2025-04-25T06:39:51.000Z</time>
      </trkpt>
      <trkpt lat="43.40082" lon="6.08793">
        <ele>242.086086</ele>
        <time>2025-04-25T06:39:52.000Z</time>
      </trkpt>
      <trkpt lat="43.4008" lon="6.088">
        <ele>242.155185</ele>
        <time>2025-04-25T06:39:53.000Z</time>
      </trkpt>
      <trkpt lat="43.40077" lon="6.08806">
        <ele>242.224961</ele>
        <time>2025-04-25T06:39:54.000Z</time>
      </trkpt>
      <trkpt lat="43.40077" lon="6.08806">
        <ele>242.224961</ele>
        <time>2025-04-25T06:39:54.000Z</time>
      </trkpt>
      <trkpt lat="43.40074" lon="6.08813">
        <ele>242.300625</ele>
        <time>2025-04-25T06:39:55.000Z</time>
      </trkpt>
      <trkpt lat="43.4007" lon="6.08822">
        <ele>242.389449</ele>
        <time>2025-04-25T06:39:56.000Z</time>
      </trkpt>
      <trkpt lat="43.40067" lon="6.08828">
        <ele>242.463243</ele>
        <time>2025-04-25T06:39:57.000Z</time>
      </trkpt>
      <trkpt lat="43.40064" lon="6.08835">
        <ele>242.541308</ele>
        <time>2025-04-25T06:39:58.000Z</time>
      </trkpt>
      <trkpt lat="43.4006" lon="6.08843">
        <ele>242.624022</ele>
        <time>2025-04-25T06:39:59.000Z</time>
      </trkpt>
      <trkpt lat="43.40057" lon="6.08851">
        <ele>242.704512</ele>
        <time>2025-04-25T06:40:00.000Z</time>
      </trkpt>
      <trkpt lat="43.40055" lon="6.08858">
        <ele>242.775286</ele>
        <time>2025-04-25T06:40:00.000Z</time>
      </trkpt>
      <trkpt lat="43.40053" lon="6.08866">
        <ele>242.852835</ele>
        <time>2025-04-25T06:40:02.000Z</time>
      </trkpt>
      <trkpt lat="43.40051" lon="6.08873">
        <ele>242.926007</ele>
        <time>2025-04-25T06:40:03.000Z</time>
      </trkpt>
      <trkpt lat="43.40049" lon="6.08881">
        <ele>243.00005</ele>
        <time>2025-04-25T06:40:04.000Z</time>
      </trkpt>
      <trkpt lat="43.40047" lon="6.08888">
        <ele>243.074197</ele>
        <time>2025-04-25T06:40:04.000Z</time>
      </trkpt>
      <trkpt lat="43.40045" lon="6.08896">
        <ele>243.149111</ele>
        <time>2025-04-25T06:40:06.000Z</time>
      </trkpt>
      <trkpt lat="43.40043" lon="6.08903">
        <ele>243.224107</ele>
        <time>2025-04-25T06:40:07.000Z</time>
      </trkpt>
      <trkpt lat="43.40041" lon="6.08911">
        <ele>243.299615</ele>
        <time>2025-04-25T06:40:08.000Z</time>
      </trkpt>
      <trkpt lat="43.4004" lon="6.08915">
        <ele>243.361242</ele>
        <time>2025-04-25T06:40:09.000Z</time>
      </trkpt>
      <trkpt lat="43.4004" lon="6.08915">
        <ele>243.361242</ele>
        <time>2025-04-25T06:40:09.000Z</time>
      </trkpt>
      <trkpt lat="43.40038" lon="6.08923">
        <ele>243.469242</ele>
        <time>2025-04-25T06:40:10.000Z</time>
      </trkpt>
      <trkpt lat="43.40038" lon="6.08926">
        <ele>243.522551</ele>
        <time>2025-04-25T06:40:11.000Z</time>
      </trkpt>
      <trkpt lat="43.40038" lon="6.08926">
        <ele>243.522551</ele>
        <time>2025-04-25T06:40:11.000Z</time>
      </trkpt>
      <trkpt lat="43.40038" lon="6.08929">
        <ele>243.560809</ele>
        <time>2025-04-25T06:40:12.000Z</time>
      </trkpt>
      <trkpt lat="43.40038" lon="6.0893">
        <ele>243.578858</ele>
        <time>2025-04-25T06:40:13.000Z</time>
      </trkpt>
      <trkpt lat="43.40037" lon="6.08932">
        <ele>243.607203</ele>
        <time>2025-04-25T06:40:14.000Z</time>
      </trkpt>
      <trkpt lat="43.40037" lon="6.08932">
        <ele>243.607203</ele>
        <time>2025-04-25T06:40:14.000Z</time>
      </trkpt>
      <trkpt lat="43.40036" lon="6.08935">
        <ele>243.648803</ele>
        <time>2025-04-25T06:40:15.000Z</time>
      </trkpt>
      <trkpt lat="43.40035" lon="6.08938">
        <ele>243.692549</ele>
        <time>2025-04-25T06:40:16.000Z</time>
      </trkpt>
      <trkpt lat="43.40034" lon="6.0894">
        <ele>243.732997</ele>
        <time>2025-04-25T06:40:17.000Z</time>
      </trkpt>
      <trkpt lat="43.40034" lon="6.0894">
        <ele>243.732997</ele>
        <time>2025-04-25T06:40:17.000Z</time>
      </trkpt>
      <trkpt lat="43.40031" lon="6.08945">
        <ele>243.820636</ele>
        <time>2025-04-25T06:40:20.000Z</time>
      </trkpt>
      <trkpt lat="43.40031" lon="6.08945">
        <ele>243.820636</ele>
        <time>2025-04-25T06:40:20.000Z</time>
      </trkpt>
      <trkpt lat="43.40031" lon="6.08946">
        <ele>243.835908</ele>
        <time>2025-04-25T06:40:21.000Z</time>
      </trkpt>
      <trkpt lat="43.4003" lon="6.08951">
        <ele>243.908347</ele>
        <time>2025-04-25T06:40:23.000Z</time>
      </trkpt>
      <trkpt lat="43.4003" lon="6.08954">
        <ele>243.938488</ele>
        <time>2025-04-25T06:40:24.000Z</time>
      </trkpt>
      <trkpt lat="43.40028" lon="6.08959">
        <ele>244.02304</ele>
        <time>2025-04-25T06:40:26.000Z</time>
      </trkpt>
      <trkpt lat="43.40028" lon="6.0896">
        <ele>244.037688</ele>
        <time>2025-04-25T06:40:27.000Z</time>
      </trkpt>
      <trkpt lat="43.40026" lon="6.08961">
        <ele>244.068956</ele>
        <time>2025-04-25T06:40:28.000Z</time>
      </trkpt>
      <trkpt lat="43.40025" lon="6.08962">
        <ele>244.099221</ele>
        <time>2025-04-25T06:40:29.000Z</time>
      </trkpt>
      <trkpt lat="43.40022" lon="6.08963">
        <ele>244.153028</ele>
        <time>2025-04-25T06:40:30.000Z</time>
      </trkpt>
      <trkpt lat="43.40019" lon="6.08964">
        <ele>244.207244</ele>
        <time>2025-04-25T06:40:31.000Z</time>
      </trkpt>
      <trkpt lat="43.40015" lon="6.08966">
        <ele>244.290899</ele>
        <time>2025-04-25T06:40:32.000Z</time>
      </trkpt>
      <trkpt lat="43.40015" lon="6.08966">
        <ele>244.290899</ele>
        <time>2025-04-25T06:40:32.000Z</time>
      </trkpt>
      <trkpt lat="43.4001" lon="6.08968">
        <ele>244.38308</ele>
        <time>2025-04-25T06:40:33.000Z</time>
      </trkpt>
      <trkpt lat="43.40006" lon="6.08969">
        <ele>244.472249</ele>
        <time>2025-04-25T06:40:34.000Z</time>
      </trkpt>
      <trkpt lat="43.40006" lon="6.08969">
        <ele>244.472249</ele>
        <time>2025-04-25T06:40:34.000Z</time>
      </trkpt>
      <trkpt lat="43.40001" lon="6.08971">
        <ele>244.578754</ele>
        <time>2025-04-25T06:40:35.000Z</time>
      </trkpt>
      <trkpt lat="43.39996" lon="6.08973">
        <ele>244.667228</ele>
        <time>2025-04-25T06:40:36.000Z</time>
      </trkpt>
      <trkpt lat="43.39996" lon="6.08973">
        <ele>244.667228</ele>
        <time>2025-04-25T06:40:36.000Z</time>
      </trkpt>
      <trkpt lat="43.39991" lon="6.08974">
        <ele>244.764728</ele>
        <time>2025-04-25T06:40:37.000Z</time>
      </trkpt>
      <trkpt lat="43.39986" lon="6.08975">
        <ele>244.861275</ele>
        <time>2025-04-25T06:40:38.000Z</time>
      </trkpt>
      <trkpt lat="43.39986" lon="6.08975">
        <ele>244.861275</ele>
        <time>2025-04-25T06:40:38.000Z</time>
      </trkpt>
      <trkpt lat="43.39981" lon="6.08976">
        <ele>244.955737</ele>
        <time>2025-04-25T06:40:39.000Z</time>
      </trkpt>
      <trkpt lat="43.39976" lon="6.08977">
        <ele>245.060047</ele>
        <time>2025-04-25T06:40:40.000Z</time>
      </trkpt>
      <trkpt lat="43.39976" lon="6.08977">
        <ele>245.060047</ele>
        <time>2025-04-25T06:40:40.000Z</time>
      </trkpt>
      <trkpt lat="43.3997" lon="6.08978">
        <ele>245.178219</ele>
        <time>2025-04-25T06:40:41.000Z</time>
      </trkpt>
      <trkpt lat="43.39964" lon="6.0898">
        <ele>245.296171</ele>
        <time>2025-04-25T06:40:42.000Z</time>
      </trkpt>
      <trkpt lat="43.39964" lon="6.0898">
        <ele>245.296171</ele>
        <time>2025-04-25T06:40:42.000Z</time>
      </trkpt>
      <trkpt lat="43.39957" lon="6.08981">
        <ele>245.413729</ele>
        <time>2025-04-25T06:40:43.000Z</time>
      </trkpt>
      <trkpt lat="43.39957" lon="6.08981">
        <ele>245.413729</ele>
        <time>2025-04-25T06:40:43.000Z</time>
      </trkpt>
      <trkpt lat="43.39952" lon="6.08982">
        <ele>245.523081</ele>
        <time>2025-04-25T06:40:44.000Z</time>
      </trkpt>
      <trkpt lat="43.39946" lon="6.08982">
        <ele>245.625124</ele>
        <time>2025-04-25T06:40:45.000Z</time>
      </trkpt>
      <trkpt lat="43.39946" lon="6.08982">
        <ele>245.625124</ele>
        <time>2025-04-25T06:40:45.000Z</time>
      </trkpt>
      <trkpt lat="43.39941" lon="6.08982">
        <ele>245.735963</ele>
        <time>2025-04-25T06:40:46.000Z</time>
      </trkpt>
      <trkpt lat="43.39941" lon="6.08982">
        <ele>245.735963</ele>
        <time>2025-04-25T06:40:46.000Z</time>
      </trkpt>
      <trkpt lat="43.39934" lon="6.08982">
        <ele>245.865901</ele>
        <time>2025-04-25T06:40:47.000Z</time>
      </trkpt>
      <trkpt lat="43.39934" lon="6.08982">
        <ele>245.865901</ele>
        <time>2025-04-25T06:40:47.000Z</time>
      </trkpt>
      <trkpt lat="43.3992" lon="6.08983">
        <ele>246.135461</ele>
        <time>2025-04-25T06:40:49.000Z</time>
      </trkpt>
      <trkpt lat="43.3992" lon="6.08983">
        <ele>246.135461</ele>
        <time>2025-04-25T06:40:49.000Z</time>
      </trkpt>
      <trkpt lat="43.39917" lon="6.08983">
        <ele>246.194698</ele>
        <time>2025-04-25T06:40:50.000Z</time>
      </trkpt>
      <trkpt lat="43.39917" lon="6.08983">
        <ele>246.194698</ele>
        <time>2025-04-25T06:40:50.000Z</time>
      </trkpt>
      <trkpt lat="43.39912" lon="6.08983">
        <ele>246.274966</ele>
        <time>2025-04-25T06:40:51.000Z</time>
      </trkpt>
      <trkpt lat="43.39912" lon="6.08983">
        <ele>246.274966</ele>
        <time>2025-04-25T06:40:51.000Z</time>
      </trkpt>
      <trkpt lat="43.39909" lon="6.08983">
        <ele>246.347698</ele>
        <time>2025-04-25T06:40:52.000Z</time>
      </trkpt>
      <trkpt lat="43.39909" lon="6.08983">
        <ele>246.347698</ele>
        <time>2025-04-25T06:40:52.000Z</time>
      </trkpt>
      <trkpt lat="43.39903" lon="6.08984">
        <ele>246.464928</ele>
        <time>2025-04-25T06:40:53.000Z</time>
      </trkpt>
      <trkpt lat="43.39903" lon="6.08984">
        <ele>246.464928</ele>
        <time>2025-04-25T06:40:53.000Z</time>
      </trkpt>
      <trkpt lat="43.39897" lon="6.08985">
        <ele>246.575114</ele>
        <time>2025-04-25T06:40:54.000Z</time>
      </trkpt>
      <trkpt lat="43.39897" lon="6.08985">
        <ele>246.575114</ele>
        <time>2025-04-25T06:40:54.000Z</time>
      </trkpt>
      <trkpt lat="43.39891" lon="6.08988">
        <ele>246.697138</ele>
        <time>2025-04-25T06:40:55.000Z</time>
      </trkpt>
      <trkpt lat="43.39891" lon="6.08988">
        <ele>246.697138</ele>
        <time>2025-04-25T06:40:55.000Z</time>
      </trkpt>
      <trkpt lat="43.39885" lon="6.0899">
        <ele>246.833576</ele>
        <time>2025-04-25T06:40:56.000Z</time>
      </trkpt>
      <trkpt lat="43.39885" lon="6.0899">
        <ele>246.833576</ele>
        <time>2025-04-25T06:40:56.000Z</time>
      </trkpt>
      <trkpt lat="43.39882" lon="6.08994">
        <ele>246.942139</ele>
        <time>2025-04-25T06:40:57.000Z</time>
      </trkpt>
      <trkpt lat="43.39882" lon="6.08994">
        <ele>246.942139</ele>
        <time>2025-04-25T06:40:57.000Z</time>
      </trkpt>
      <trkpt lat="43.39878" lon="6.08998">
        <ele>247.0656</ele>
        <time>2025-04-25T06:40:58.000Z</time>
      </trkpt>
      <trkpt lat="43.39878" lon="6.08998">
        <ele>247.0656</ele>
        <time>2025-04-25T06:40:58.000Z</time>
      </trkpt>
      <trkpt lat="43.39874" lon="6.09003">
        <ele>247.196233</ele>
        <time>2025-04-25T06:40:59.000Z</time>
      </trkpt>
      <trkpt lat="43.39874" lon="6.09003">
        <ele>247.196233</ele>
        <time>2025-04-25T06:40:59.000Z</time>
      </trkpt>
      <trkpt lat="43.3987" lon="6.09008">
        <ele>247.339447</ele>
        <time>2025-04-25T06:41:00.000Z</time>
      </trkpt>
      <trkpt lat="43.3987" lon="6.09008">
        <ele>247.339447</ele>
        <time>2025-04-25T06:41:00.000Z</time>
      </trkpt>
      <trkpt lat="43.39866" lon="6.09014">
        <ele>247.485924</ele>
        <time>2025-04-25T06:41:01.000Z</time>
      </trkpt>
      <trkpt lat="43.39866" lon="6.09014">
        <ele>247.485924</ele>
        <time>2025-04-25T06:41:01.000Z</time>
      </trkpt>
      <trkpt lat="43.39862" lon="6.09018">
        <ele>247.61847</ele>
        <time>2025-04-25T06:41:02.000Z</time>
      </trkpt>
      <trkpt lat="43.39862" lon="6.09018">
        <ele>247.61847</ele>
        <time>2025-04-25T06:41:02.000Z</time>
      </trkpt>
      <trkpt lat="43.39858" lon="6.09024">
        <ele>247.764169</ele>
        <time>2025-04-25T06:41:03.000Z</time>
      </trkpt>
      <trkpt lat="43.39858" lon="6.09024">
        <ele>247.764169</ele>
        <time>2025-04-25T06:41:03.000Z</time>
      </trkpt>
      <trkpt lat="43.39853" lon="6.09028">
        <ele>247.916883</ele>
        <time>2025-04-25T06:41:04.000Z</time>
      </trkpt>
      <trkpt lat="43.39853" lon="6.09028">
        <ele>247.916883</ele>
        <time>2025-04-25T06:41:04.000Z</time>
      </trkpt>
      <trkpt lat="43.39849" lon="6.09033">
        <ele>248.061187</ele>
        <time>2025-04-25T06:41:05.000Z</time>
      </trkpt>
      <trkpt lat="43.39849" lon="6.09033">
        <ele>248.061187</ele>
        <time>2025-04-25T06:41:05.000Z</time>
      </trkpt>
      <trkpt lat="43.39844" lon="6.09037">
        <ele>248.201316</ele>
        <time>2025-04-25T06:41:06.000Z</time>
      </trkpt>
      <trkpt lat="43.39844" lon="6.09037">
        <ele>248.201316</ele>
        <time>2025-04-25T06:41:06.000Z</time>
      </trkpt>
      <trkpt lat="43.3984" lon="6.09041">
        <ele>248.332977</ele>
        <time>2025-04-25T06:41:07.000Z</time>
      </trkpt>
      <trkpt lat="43.3984" lon="6.09041">
        <ele>248.332977</ele>
        <time>2025-04-25T06:41:07.000Z</time>
      </trkpt>
      <trkpt lat="43.39837" lon="6.09045">
        <ele>248.447346</ele>
        <time>2025-04-25T06:41:08.000Z</time>
      </trkpt>
      <trkpt lat="43.39837" lon="6.09045">
        <ele>248.447346</ele>
        <time>2025-04-25T06:41:08.000Z</time>
      </trkpt>
      <trkpt lat="43.39832" lon="6.0905">
        <ele>248.59056</ele>
        <time>2025-04-25T06:41:09.000Z</time>
      </trkpt>
      <trkpt lat="43.39832" lon="6.0905">
        <ele>248.59056</ele>
        <time>2025-04-25T06:41:09.000Z</time>
      </trkpt>
      <trkpt lat="43.39829" lon="6.09056">
        <ele>248.72614</ele>
        <time>2025-04-25T06:41:10.000Z</time>
      </trkpt>
      <trkpt lat="43.39829" lon="6.09056">
        <ele>248.72614</ele>
        <time>2025-04-25T06:41:10.000Z</time>
      </trkpt>
      <trkpt lat="43.39825" lon="6.09062">
        <ele>248.873477</ele>
        <time>2025-04-25T06:41:11.000Z</time>
      </trkpt>
      <trkpt lat="43.39825" lon="6.09062">
        <ele>248.873477</ele>
        <time>2025-04-25T06:41:11.000Z</time>
      </trkpt>
      <trkpt lat="43.39822" lon="6.09068">
        <ele>249.008791</ele>
        <time>2025-04-25T06:41:12.000Z</time>
      </trkpt>
      <trkpt lat="43.39822" lon="6.09068">
        <ele>249.008791</ele>
        <time>2025-04-25T06:41:12.000Z</time>
      </trkpt>
      <trkpt lat="43.3982" lon="6.09075">
        <ele>249.15113</ele>
        <time>2025-04-25T06:41:13.000Z</time>
      </trkpt>
      <trkpt lat="43.3982" lon="6.09075">
        <ele>249.15113</ele>
        <time>2025-04-25T06:41:13.000Z</time>
      </trkpt>
      <trkpt lat="43.39817" lon="6.09081">
        <ele>249.293468</ele>
        <time>2025-04-25T06:41:14.000Z</time>
      </trkpt>
      <trkpt lat="43.39817" lon="6.09081">
        <ele>249.293468</ele>
        <time>2025-04-25T06:41:14.000Z</time>
      </trkpt>
      <trkpt lat="43.39815" lon="6.09088">
        <ele>249.426687</ele>
        <time>2025-04-25T06:41:15.000Z</time>
      </trkpt>
      <trkpt lat="43.39813" lon="6.09095">
        <ele>249.574512</ele>
        <time>2025-04-25T06:41:16.000Z</time>
      </trkpt>
      <trkpt lat="43.39813" lon="6.09095">
        <ele>249.574512</ele>
        <time>2025-04-25T06:41:16.000Z</time>
      </trkpt>
      <trkpt lat="43.39811" lon="6.09103">
        <ele>249.718573</ele>
        <time>2025-04-25T06:41:17.000Z</time>
      </trkpt>
      <trkpt lat="43.39809" lon="6.09111">
        <ele>249.878476</ele>
        <time>2025-04-25T06:41:18.000Z</time>
      </trkpt>
      <trkpt lat="43.39809" lon="6.09111">
        <ele>249.878476</ele>
        <time>2025-04-25T06:41:18.000Z</time>
      </trkpt>
      <trkpt lat="43.39806" lon="6.09118">
        <ele>250.033147</ele>
        <time>2025-04-25T06:41:19.000Z</time>
      </trkpt>
      <trkpt lat="43.39805" lon="6.09126">
        <ele>250.17401</ele>
        <time>2025-04-25T06:41:20.000Z</time>
      </trkpt>
      <trkpt lat="43.39805" lon="6.09126">
        <ele>250.17401</ele>
        <time>2025-04-25T06:41:20.000Z</time>
      </trkpt>
      <trkpt lat="43.39805" lon="6.09134">
        <ele>250.323712</ele>
        <time>2025-04-25T06:41:21.000Z</time>
      </trkpt>
      <trkpt lat="43.39803" lon="6.09142">
        <ele>250.480937</ele>
        <time>2025-04-25T06:41:22.000Z</time>
      </trkpt>
      <trkpt lat="43.39803" lon="6.09149">
        <ele>250.603981</ele>
        <time>2025-04-25T06:41:23.000Z</time>
      </trkpt>
      <trkpt lat="43.39803" lon="6.09149">
        <ele>250.603981</ele>
        <time>2025-04-25T06:41:23.000Z</time>
      </trkpt>
      <trkpt lat="43.39802" lon="6.09158">
        <ele>250.781382</ele>
        <time>2025-04-25T06:41:24.000Z</time>
      </trkpt>
      <trkpt lat="43.39802" lon="6.09166">
        <ele>250.91739</ele>
        <time>2025-04-25T06:41:25.000Z</time>
      </trkpt>
      <trkpt lat="43.39801" lon="6.09175">
        <ele>251.08491</ele>
        <time>2025-04-25T06:41:26.000Z</time>
      </trkpt>
      <trkpt lat="43.39801" lon="6.09175">
        <ele>251.08491</ele>
        <time>2025-04-25T06:41:26.000Z</time>
      </trkpt>
      <trkpt lat="43.39801" lon="6.09182">
        <ele>251.217213</ele>
        <time>2025-04-25T06:41:27.000Z</time>
      </trkpt>
      <trkpt lat="43.39801" lon="6.09182">
        <ele>251.217213</ele>
        <time>2025-04-25T06:41:27.000Z</time>
      </trkpt>
      <trkpt lat="43.39801" lon="6.09191">
        <ele>251.316927</ele>
        <time>2025-04-25T06:41:28.000Z</time>
      </trkpt>
      <trkpt lat="43.39801" lon="6.09199">
        <ele>251.300743</ele>
        <time>2025-04-25T06:41:29.000Z</time>
      </trkpt>
      <trkpt lat="43.39801" lon="6.09199">
        <ele>251.300743</ele>
        <time>2025-04-25T06:41:29.000Z</time>
      </trkpt>
      <trkpt lat="43.39801" lon="6.09208">
        <ele>251.283756</ele>
        <time>2025-04-25T06:41:30.000Z</time>
      </trkpt>
      <trkpt lat="43.39801" lon="6.09208">
        <ele>251.283756</ele>
        <time>2025-04-25T06:41:30.000Z</time>
      </trkpt>
      <trkpt lat="43.398" lon="6.09216">
        <ele>251.26813</ele>
        <time>2025-04-25T06:41:31.000Z</time>
      </trkpt>
      <trkpt lat="43.398" lon="6.09221">
        <ele>251.258111</ele>
        <time>2025-04-25T06:41:32.000Z</time>
      </trkpt>
      <trkpt lat="43.398" lon="6.09221">
        <ele>251.258111</ele>
        <time>2025-04-25T06:41:32.000Z</time>
      </trkpt>
      <trkpt lat="43.398" lon="6.09229">
        <ele>251.242743</ele>
        <time>2025-04-25T06:41:33.000Z</time>
      </trkpt>
      <trkpt lat="43.398" lon="6.09229">
        <ele>251.242743</ele>
        <time>2025-04-25T06:41:33.000Z</time>
      </trkpt>
      <trkpt lat="43.39799" lon="6.09236">
        <ele>251.230175</ele>
        <time>2025-04-25T06:41:34.000Z</time>
      </trkpt>
      <trkpt lat="43.39798" lon="6.09243">
        <ele>251.216377</ele>
        <time>2025-04-25T06:41:35.000Z</time>
      </trkpt>
      <trkpt lat="43.39798" lon="6.09243">
        <ele>251.216377</ele>
        <time>2025-04-25T06:41:35.000Z</time>
      </trkpt>
      <trkpt lat="43.39796" lon="6.09252">
        <ele>251.19795</ele>
        <time>2025-04-25T06:41:36.000Z</time>
      </trkpt>
      <trkpt lat="43.39796" lon="6.09252">
        <ele>251.19795</ele>
        <time>2025-04-25T06:41:36.000Z</time>
      </trkpt>
      <trkpt lat="43.39795" lon="6.09257">
        <ele>251.18707</ele>
        <time>2025-04-25T06:41:37.000Z</time>
      </trkpt>
      <trkpt lat="43.39793" lon="6.09264">
        <ele>251.172639</ele>
        <time>2025-04-25T06:41:38.000Z</time>
      </trkpt>
      <trkpt lat="43.39793" lon="6.09264">
        <ele>251.172639</ele>
        <time>2025-04-25T06:41:38.000Z</time>
      </trkpt>
      <trkpt lat="43.39792" lon="6.0927">
        <ele>251.160904</ele>
        <time>2025-04-25T06:41:39.000Z</time>
      </trkpt>
      <trkpt lat="43.39791" lon="6.09277">
        <ele>251.147133</ele>
        <time>2025-04-25T06:41:40.000Z</time>
      </trkpt>
      <trkpt lat="43.39791" lon="6.09277">
        <ele>251.147133</ele>
        <time>2025-04-25T06:41:40.000Z</time>
      </trkpt>
      <trkpt lat="43.39789" lon="6.09285">
        <ele>251.131465</ele>
        <time>2025-04-25T06:41:41.000Z</time>
      </trkpt>
      <trkpt lat="43.39787" lon="6.09293">
        <ele>251.114351</ele>
        <time>2025-04-25T06:41:42.000Z</time>
      </trkpt>
      <trkpt lat="43.39787" lon="6.09293">
        <ele>251.114351</ele>
        <time>2025-04-25T06:41:42.000Z</time>
      </trkpt>
      <trkpt lat="43.39784" lon="6.09301">
        <ele>251.097236</ele>
        <time>2025-04-25T06:41:43.000Z</time>
      </trkpt>
      <trkpt lat="43.39782" lon="6.09308">
        <ele>251.083379</ele>
        <time>2025-04-25T06:41:44.000Z</time>
      </trkpt>
      <trkpt lat="43.39781" lon="6.09315">
        <ele>251.069957</ele>
        <time>2025-04-25T06:41:45.000Z</time>
      </trkpt>
      <trkpt lat="43.39781" lon="6.09315">
        <ele>251.069957</ele>
        <time>2025-04-25T06:41:45.000Z</time>
      </trkpt>
      <trkpt lat="43.39782" lon="6.0932">
        <ele>251.059499</ele>
        <time>2025-04-25T06:41:46.000Z</time>
      </trkpt>
      <trkpt lat="43.39782" lon="6.09325">
        <ele>251.051197</ele>
        <time>2025-04-25T06:41:47.000Z</time>
      </trkpt>
      <trkpt lat="43.39784" lon="6.09329">
        <ele>251.042061</ele>
        <time>2025-04-25T06:41:48.000Z</time>
      </trkpt>
      <trkpt lat="43.39784" lon="6.09329">
        <ele>251.042061</ele>
        <time>2025-04-25T06:41:48.000Z</time>
      </trkpt>
      <trkpt lat="43.39786" lon="6.09332">
        <ele>251.033643</ele>
        <time>2025-04-25T06:41:49.000Z</time>
      </trkpt>
      <trkpt lat="43.39786" lon="6.09332">
        <ele>251.033643</ele>
        <time>2025-04-25T06:41:49.000Z</time>
      </trkpt>
      <trkpt lat="43.39788" lon="6.09336">
        <ele>251.024265</ele>
        <time>2025-04-25T06:41:50.000Z</time>
      </trkpt>
      <trkpt lat="43.39788" lon="6.09336">
        <ele>251.024265</ele>
        <time>2025-04-25T06:41:50.000Z</time>
      </trkpt>
      <trkpt lat="43.39792" lon="6.09339">
        <ele>251.013754</ele>
        <time>2025-04-25T06:41:51.000Z</time>
      </trkpt>
      <trkpt lat="43.39792" lon="6.09339">
        <ele>251.013754</ele>
        <time>2025-04-25T06:41:51.000Z</time>
      </trkpt>
      <trkpt lat="43.39795" lon="6.09342">
        <ele>251.003326</ele>
        <time>2025-04-25T06:41:52.000Z</time>
      </trkpt>
      <trkpt lat="43.39795" lon="6.09342">
        <ele>251.003326</ele>
        <time>2025-04-25T06:41:52.000Z</time>
      </trkpt>
      <trkpt lat="43.39797" lon="6.09345">
        <ele>250.995183</ele>
        <time>2025-04-25T06:41:53.000Z</time>
      </trkpt>
      <trkpt lat="43.39797" lon="6.09345">
        <ele>250.995183</ele>
        <time>2025-04-25T06:41:53.000Z</time>
      </trkpt>
      <trkpt lat="43.39799" lon="6.09348">
        <ele>250.987291</ele>
        <time>2025-04-25T06:41:53.000Z</time>
      </trkpt>
      <trkpt lat="43.39799" lon="6.09348">
        <ele>250.987291</ele>
        <time>2025-04-25T06:41:53.000Z</time>
      </trkpt>
      <trkpt lat="43.39801" lon="6.09351">
        <ele>250.97991</ele>
        <time>2025-04-25T06:41:55.000Z</time>
      </trkpt>
      <trkpt lat="43.39801" lon="6.09351">
        <ele>250.97991</ele>
        <time>2025-04-25T06:41:55.000Z</time>
      </trkpt>
      <trkpt lat="43.39802" lon="6.09353">
        <ele>250.97506</ele>
        <time>2025-04-25T06:41:56.000Z</time>
      </trkpt>
      <trkpt lat="43.39802" lon="6.09353">
        <ele>250.97506</ele>
        <time>2025-04-25T06:41:56.000Z</time>
      </trkpt>
      <trkpt lat="43.39803" lon="6.09355">
        <ele>250.970608</ele>
        <time>2025-04-25T06:41:57.000Z</time>
      </trkpt>
      <trkpt lat="43.39804" lon="6.09357">
        <ele>250.965168</ele>
        <time>2025-04-25T06:41:58.000Z</time>
      </trkpt>
      <trkpt lat="43.39805" lon="6.09361">
        <ele>250.956803</ele>
        <time>2025-04-25T06:41:59.000Z</time>
      </trkpt>
      <trkpt lat="43.39805" lon="6.09367">
        <ele>250.945436</ele>
        <time>2025-04-25T06:41:59.000Z</time>
      </trkpt>
      <trkpt lat="43.39805" lon="6.09374">
        <ele>250.933491</ele>
        <time>2025-04-25T06:42:01.000Z</time>
      </trkpt>
      <trkpt lat="43.39805" lon="6.09378">
        <ele>250.924821</ele>
        <time>2025-04-25T06:42:02.000Z</time>
      </trkpt>
      <trkpt lat="43.39804" lon="6.09386">
        <ele>250.908602</ele>
        <time>2025-04-25T06:42:03.000Z</time>
      </trkpt>
      <trkpt lat="43.39804" lon="6.09386">
        <ele>250.908602</ele>
        <time>2025-04-25T06:42:03.000Z</time>
      </trkpt>
      <trkpt lat="43.39805" lon="6.09392">
        <ele>250.897953</ele>
        <time>2025-04-25T06:42:03.000Z</time>
      </trkpt>
      <trkpt lat="43.39805" lon="6.09398">
        <ele>250.886366</ele>
        <time>2025-04-25T06:42:05.000Z</time>
      </trkpt>
      <trkpt lat="43.39805" lon="6.09398">
        <ele>250.886366</ele>
        <time>2025-04-25T06:42:05.000Z</time>
      </trkpt>
      <trkpt lat="43.39806" lon="6.09404">
        <ele>250.875117</ele>
        <time>2025-04-25T06:42:05.000Z</time>
      </trkpt>
      <trkpt lat="43.39806" lon="6.09404">
        <ele>250.875117</ele>
        <time>2025-04-25T06:42:05.000Z</time>
      </trkpt>
      <trkpt lat="43.39808" lon="6.09409">
        <ele>250.864695</ele>
        <time>2025-04-25T06:42:07.000Z</time>
      </trkpt>
      <trkpt lat="43.39808" lon="6.09409">
        <ele>250.864695</ele>
        <time>2025-04-25T06:42:07.000Z</time>
      </trkpt>
      <trkpt lat="43.3981" lon="6.09414">
        <ele>250.852966</ele>
        <time>2025-04-25T06:42:07.000Z</time>
      </trkpt>
      <trkpt lat="43.3981" lon="6.09414">
        <ele>250.852966</ele>
        <time>2025-04-25T06:42:07.000Z</time>
      </trkpt>
      <trkpt lat="43.39813" lon="6.09419">
        <ele>251.083351</ele>
        <time>2025-04-25T06:42:09.000Z</time>
      </trkpt>
      <trkpt lat="43.39813" lon="6.09419">
        <ele>251.083351</ele>
        <time>2025-04-25T06:42:09.000Z</time>
      </trkpt>
      <trkpt lat="43.39816" lon="6.09424">
        <ele>251.576094</ele>
        <time>2025-04-25T06:42:10.000Z</time>
      </trkpt>
      <trkpt lat="43.39816" lon="6.09424">
        <ele>251.576094</ele>
        <time>2025-04-25T06:42:10.000Z</time>
      </trkpt>
      <trkpt lat="43.39819" lon="6.09429">
        <ele>252.130195</ele>
        <time>2025-04-25T06:42:11.000Z</time>
      </trkpt>
      <trkpt lat="43.39819" lon="6.09429">
        <ele>252.130195</ele>
        <time>2025-04-25T06:42:11.000Z</time>
      </trkpt>
      <trkpt lat="43.39821" lon="6.09434">
        <ele>252.541988</ele>
        <time>2025-04-25T06:42:12.000Z</time>
      </trkpt>
      <trkpt lat="43.39821" lon="6.09434">
        <ele>252.541988</ele>
        <time>2025-04-25T06:42:12.000Z</time>
      </trkpt>
      <trkpt lat="43.39822" lon="6.0944">
        <ele>253.037124</ele>
        <time>2025-04-25T06:42:13.000Z</time>
      </trkpt>
      <trkpt lat="43.39822" lon="6.0944">
        <ele>253.037124</ele>
        <time>2025-04-25T06:42:13.000Z</time>
      </trkpt>
      <trkpt lat="43.39824" lon="6.09445">
        <ele>253.479779</ele>
        <time>2025-04-25T06:42:14.000Z</time>
      </trkpt>
      <trkpt lat="43.39824" lon="6.09445">
        <ele>253.479779</ele>
        <time>2025-04-25T06:42:14.000Z</time>
      </trkpt>
      <trkpt lat="43.39826" lon="6.09451">
        <ele>253.996288</ele>
        <time>2025-04-25T06:42:15.000Z</time>
      </trkpt>
      <trkpt lat="43.39826" lon="6.09451">
        <ele>253.996288</ele>
        <time>2025-04-25T06:42:15.000Z</time>
      </trkpt>
      <trkpt lat="43.39828" lon="6.09456">
        <ele>254.463429</ele>
        <time>2025-04-25T06:42:16.000Z</time>
      </trkpt>
      <trkpt lat="43.39828" lon="6.09456">
        <ele>254.463429</ele>
        <time>2025-04-25T06:42:16.000Z</time>
      </trkpt>
      <trkpt lat="43.3983" lon="6.09462">
        <ele>254.935226</ele>
        <time>2025-04-25T06:42:17.000Z</time>
      </trkpt>
      <trkpt lat="43.3983" lon="6.09462">
        <ele>254.935226</ele>
        <time>2025-04-25T06:42:17.000Z</time>
      </trkpt>
      <trkpt lat="43.39831" lon="6.09466">
        <ele>255.297415</ele>
        <time>2025-04-25T06:42:18.000Z</time>
      </trkpt>
      <trkpt lat="43.39831" lon="6.09466">
        <ele>255.297415</ele>
        <time>2025-04-25T06:42:18.000Z</time>
      </trkpt>
      <trkpt lat="43.39833" lon="6.09472">
        <ele>255.791227</ele>
        <time>2025-04-25T06:42:19.000Z</time>
      </trkpt>
      <trkpt lat="43.39833" lon="6.09472">
        <ele>255.791227</ele>
        <time>2025-04-25T06:42:19.000Z</time>
      </trkpt>
      <trkpt lat="43.39833" lon="6.09478">
        <ele>256.264154</ele>
        <time>2025-04-25T06:42:20.000Z</time>
      </trkpt>
      <trkpt lat="43.39833" lon="6.09478">
        <ele>256.264154</ele>
        <time>2025-04-25T06:42:20.000Z</time>
      </trkpt>
      <trkpt lat="43.39834" lon="6.09483">
        <ele>256.670201</ele>
        <time>2025-04-25T06:42:21.000Z</time>
      </trkpt>
      <trkpt lat="43.39834" lon="6.09483">
        <ele>256.670201</ele>
        <time>2025-04-25T06:42:21.000Z</time>
      </trkpt>
      <trkpt lat="43.39835" lon="6.09489">
        <ele>257.091476</ele>
        <time>2025-04-25T06:42:22.000Z</time>
      </trkpt>
      <trkpt lat="43.39835" lon="6.09489">
        <ele>257.091476</ele>
        <time>2025-04-25T06:42:22.000Z</time>
      </trkpt>
      <trkpt lat="43.39835" lon="6.09494">
        <ele>257.513906</ele>
        <time>2025-04-25T06:42:23.000Z</time>
      </trkpt>
      <trkpt lat="43.39835" lon="6.09494">
        <ele>257.513906</ele>
        <time>2025-04-25T06:42:23.000Z</time>
      </trkpt>
      <trkpt lat="43.39836" lon="6.095">
        <ele>257.950904</ele>
        <time>2025-04-25T06:42:24.000Z</time>
      </trkpt>
      <trkpt lat="43.39836" lon="6.095">
        <ele>257.950904</ele>
        <time>2025-04-25T06:42:24.000Z</time>
      </trkpt>
      <trkpt lat="43.39836" lon="6.09505">
        <ele>258.410067</ele>
        <time>2025-04-25T06:42:25.000Z</time>
      </trkpt>
      <trkpt lat="43.39836" lon="6.09505">
        <ele>258.410067</ele>
        <time>2025-04-25T06:42:25.000Z</time>
      </trkpt>
      <trkpt lat="43.39835" lon="6.09512">
        <ele>258.898368</ele>
        <time>2025-04-25T06:42:26.000Z</time>
      </trkpt>
      <trkpt lat="43.39835" lon="6.09512">
        <ele>258.898368</ele>
        <time>2025-04-25T06:42:26.000Z</time>
      </trkpt>
      <trkpt lat="43.39834" lon="6.09517">
        <ele>259.300785</ele>
        <time>2025-04-25T06:42:27.000Z</time>
      </trkpt>
      <trkpt lat="43.39834" lon="6.09517">
        <ele>259.300785</ele>
        <time>2025-04-25T06:42:27.000Z</time>
      </trkpt>
      <trkpt lat="43.39833" lon="6.09523">
        <ele>259.812606</ele>
        <time>2025-04-25T06:42:28.000Z</time>
      </trkpt>
      <trkpt lat="43.39833" lon="6.09523">
        <ele>259.812606</ele>
        <time>2025-04-25T06:42:28.000Z</time>
      </trkpt>
      <trkpt lat="43.39833" lon="6.09528">
        <ele>260.240639</ele>
        <time>2025-04-25T06:42:29.000Z</time>
      </trkpt>
      <trkpt lat="43.39833" lon="6.09528">
        <ele>260.240639</ele>
        <time>2025-04-25T06:42:29.000Z</time>
      </trkpt>
      <trkpt lat="43.39834" lon="6.09534">
        <ele>260.654661</ele>
        <time>2025-04-25T06:42:30.000Z</time>
      </trkpt>
      <trkpt lat="43.39834" lon="6.09534">
        <ele>260.654661</ele>
        <time>2025-04-25T06:42:30.000Z</time>
      </trkpt>
      <trkpt lat="43.39835" lon="6.09539">
        <ele>261.144762</ele>
        <time>2025-04-25T06:42:31.000Z</time>
      </trkpt>
      <trkpt lat="43.39835" lon="6.09539">
        <ele>261.144762</ele>
        <time>2025-04-25T06:42:31.000Z</time>
      </trkpt>
      <trkpt lat="43.39838" lon="6.09544">
        <ele>261.560432</ele>
        <time>2025-04-25T06:42:32.000Z</time>
      </trkpt>
      <trkpt lat="43.39838" lon="6.09544">
        <ele>261.560432</ele>
        <time>2025-04-25T06:42:32.000Z</time>
      </trkpt>
      <trkpt lat="43.3984" lon="6.09549">
        <ele>262.051517</ele>
        <time>2025-04-25T06:42:33.000Z</time>
      </trkpt>
      <trkpt lat="43.3984" lon="6.09549">
        <ele>262.051517</ele>
        <time>2025-04-25T06:42:33.000Z</time>
      </trkpt>
      <trkpt lat="43.39843" lon="6.09553">
        <ele>262.460817</ele>
        <time>2025-04-25T06:42:34.000Z</time>
      </trkpt>
      <trkpt lat="43.39843" lon="6.09553">
        <ele>262.460817</ele>
        <time>2025-04-25T06:42:34.000Z</time>
      </trkpt>
      <trkpt lat="43.39845" lon="6.09558">
        <ele>262.934587</ele>
        <time>2025-04-25T06:42:35.000Z</time>
      </trkpt>
      <trkpt lat="43.39845" lon="6.09558">
        <ele>262.934587</ele>
        <time>2025-04-25T06:42:35.000Z</time>
      </trkpt>
      <trkpt lat="43.39847" lon="6.09562">
        <ele>263.306501</ele>
        <time>2025-04-25T06:42:36.000Z</time>
      </trkpt>
      <trkpt lat="43.39847" lon="6.09562">
        <ele>263.306501</ele>
        <time>2025-04-25T06:42:36.000Z</time>
      </trkpt>
      <trkpt lat="43.39849" lon="6.09567">
        <ele>263.7158</ele>
        <time>2025-04-25T06:42:37.000Z</time>
      </trkpt>
      <trkpt lat="43.39849" lon="6.09567">
        <ele>263.7158</ele>
        <time>2025-04-25T06:42:37.000Z</time>
      </trkpt>
      <trkpt lat="43.39851" lon="6.09571">
        <ele>264.094252</ele>
        <time>2025-04-25T06:42:38.000Z</time>
      </trkpt>
      <trkpt lat="43.39851" lon="6.09571">
        <ele>264.094252</ele>
        <time>2025-04-25T06:42:38.000Z</time>
      </trkpt>
      <trkpt lat="43.39853" lon="6.09575">
        <ele>264.485916</ele>
        <time>2025-04-25T06:42:39.000Z</time>
      </trkpt>
      <trkpt lat="43.39853" lon="6.09575">
        <ele>264.485916</ele>
        <time>2025-04-25T06:42:39.000Z</time>
      </trkpt>
      <trkpt lat="43.39855" lon="6.09579">
        <ele>264.851341</ele>
        <time>2025-04-25T06:42:40.000Z</time>
      </trkpt>
      <trkpt lat="43.39855" lon="6.09579">
        <ele>264.851341</ele>
        <time>2025-04-25T06:42:40.000Z</time>
      </trkpt>
      <trkpt lat="43.39857" lon="6.09582">
        <ele>265.18515</ele>
        <time>2025-04-25T06:42:41.000Z</time>
      </trkpt>
      <trkpt lat="43.39857" lon="6.09582">
        <ele>265.18515</ele>
        <time>2025-04-25T06:42:41.000Z</time>
      </trkpt>
      <trkpt lat="43.39859" lon="6.09586">
        <ele>265.544137</ele>
        <time>2025-04-25T06:42:42.000Z</time>
      </trkpt>
      <trkpt lat="43.39859" lon="6.09586">
        <ele>265.544137</ele>
        <time>2025-04-25T06:42:42.000Z</time>
      </trkpt>
      <trkpt lat="43.3986" lon="6.09589">
        <ele>265.833753</ele>
        <time>2025-04-25T06:42:43.000Z</time>
      </trkpt>
      <trkpt lat="43.3986" lon="6.09589">
        <ele>265.833753</ele>
        <time>2025-04-25T06:42:43.000Z</time>
      </trkpt>
      <trkpt lat="43.39862" lon="6.09592">
        <ele>266.160037</ele>
        <time>2025-04-25T06:42:44.000Z</time>
      </trkpt>
      <trkpt lat="43.39862" lon="6.09592">
        <ele>266.160037</ele>
        <time>2025-04-25T06:42:44.000Z</time>
      </trkpt>
      <trkpt lat="43.39864" lon="6.09594">
        <ele>266.444245</ele>
        <time>2025-04-25T06:42:45.000Z</time>
      </trkpt>
      <trkpt lat="43.39864" lon="6.09594">
        <ele>266.444245</ele>
        <time>2025-04-25T06:42:45.000Z</time>
      </trkpt>
      <trkpt lat="43.39866" lon="6.09597">
        <ele>266.696566</ele>
        <time>2025-04-25T06:42:46.000Z</time>
      </trkpt>
      <trkpt lat="43.39866" lon="6.09597">
        <ele>266.696566</ele>
        <time>2025-04-25T06:42:46.000Z</time>
      </trkpt>
      <trkpt lat="43.39868" lon="6.09599">
        <ele>266.972791</ele>
        <time>2025-04-25T06:42:47.000Z</time>
      </trkpt>
      <trkpt lat="43.39868" lon="6.09599">
        <ele>266.972791</ele>
        <time>2025-04-25T06:42:47.000Z</time>
      </trkpt>
      <trkpt lat="43.3987" lon="6.09602">
        <ele>267.25977</ele>
        <time>2025-04-25T06:42:48.000Z</time>
      </trkpt>
      <trkpt lat="43.3987" lon="6.09602">
        <ele>267.25977</ele>
        <time>2025-04-25T06:42:48.000Z</time>
      </trkpt>
      <trkpt lat="43.39871" lon="6.09605">
        <ele>267.569328</ele>
        <time>2025-04-25T06:42:49.000Z</time>
      </trkpt>
      <trkpt lat="43.39871" lon="6.09605">
        <ele>267.569328</ele>
        <time>2025-04-25T06:42:49.000Z</time>
      </trkpt>
      <trkpt lat="43.39872" lon="6.09609">
        <ele>267.906114</ele>
        <time>2025-04-25T06:42:50.000Z</time>
      </trkpt>
      <trkpt lat="43.39872" lon="6.09609">
        <ele>267.906114</ele>
        <time>2025-04-25T06:42:50.000Z</time>
      </trkpt>
      <trkpt lat="43.39874" lon="6.09614">
        <ele>268.305615</ele>
        <time>2025-04-25T06:42:51.000Z</time>
      </trkpt>
      <trkpt lat="43.39874" lon="6.09614">
        <ele>268.305615</ele>
        <time>2025-04-25T06:42:51.000Z</time>
      </trkpt>
      <trkpt lat="43.39875" lon="6.09619">
        <ele>268.71166</ele>
        <time>2025-04-25T06:42:52.000Z</time>
      </trkpt>
      <trkpt lat="43.39875" lon="6.09619">
        <ele>268.71166</ele>
        <time>2025-04-25T06:42:52.000Z</time>
      </trkpt>
      <trkpt lat="43.39875" lon="6.09624">
        <ele>269.108561</ele>
        <time>2025-04-25T06:42:53.000Z</time>
      </trkpt>
      <trkpt lat="43.39875" lon="6.09624">
        <ele>269.108561</ele>
        <time>2025-04-25T06:42:53.000Z</time>
      </trkpt>
      <trkpt lat="43.39875" lon="6.09629">
        <ele>269.522277</ele>
        <time>2025-04-25T06:42:54.000Z</time>
      </trkpt>
      <trkpt lat="43.39875" lon="6.09629">
        <ele>269.522277</ele>
        <time>2025-04-25T06:42:54.000Z</time>
      </trkpt>
      <trkpt lat="43.39875" lon="6.09634">
        <ele>269.89828</ele>
        <time>2025-04-25T06:42:55.000Z</time>
      </trkpt>
      <trkpt lat="43.39875" lon="6.09634">
        <ele>269.89828</ele>
        <time>2025-04-25T06:42:55.000Z</time>
      </trkpt>
      <trkpt lat="43.39876" lon="6.09639">
        <ele>270.153154</ele>
        <time>2025-04-25T06:42:56.000Z</time>
      </trkpt>
      <trkpt lat="43.39876" lon="6.09639">
        <ele>270.153154</ele>
        <time>2025-04-25T06:42:56.000Z</time>
      </trkpt>
      <trkpt lat="43.39877" lon="6.09644">
        <ele>270.228925</ele>
        <time>2025-04-25T06:42:57.000Z</time>
      </trkpt>
      <trkpt lat="43.39877" lon="6.09644">
        <ele>270.228925</ele>
        <time>2025-04-25T06:42:57.000Z</time>
      </trkpt>
      <trkpt lat="43.39879" lon="6.09648">
        <ele>270.307214</ele>
        <time>2025-04-25T06:42:58.000Z</time>
      </trkpt>
      <trkpt lat="43.39879" lon="6.09648">
        <ele>270.307214</ele>
        <time>2025-04-25T06:42:58.000Z</time>
      </trkpt>
      <trkpt lat="43.3988" lon="6.09652">
        <ele>270.388974</ele>
        <time>2025-04-25T06:42:59.000Z</time>
      </trkpt>
      <trkpt lat="43.3988" lon="6.09652">
        <ele>270.388974</ele>
        <time>2025-04-25T06:42:59.000Z</time>
      </trkpt>
      <trkpt lat="43.39882" lon="6.09655">
        <ele>270.458493</ele>
        <time>2025-04-25T06:43:00.000Z</time>
      </trkpt>
      <trkpt lat="43.39882" lon="6.09655">
        <ele>270.458493</ele>
        <time>2025-04-25T06:43:00.000Z</time>
      </trkpt>
      <trkpt lat="43.39884" lon="6.09659">
        <ele>270.536639</ele>
        <time>2025-04-25T06:43:01.000Z</time>
      </trkpt>
      <trkpt lat="43.39884" lon="6.09659">
        <ele>270.536639</ele>
        <time>2025-04-25T06:43:01.000Z</time>
      </trkpt>
      <trkpt lat="43.39886" lon="6.09662">
        <ele>270.608794</ele>
        <time>2025-04-25T06:43:02.000Z</time>
      </trkpt>
      <trkpt lat="43.39886" lon="6.09662">
        <ele>270.608794</ele>
        <time>2025-04-25T06:43:02.000Z</time>
      </trkpt>
      <trkpt lat="43.39888" lon="6.09666">
        <ele>270.685012</ele>
        <time>2025-04-25T06:43:03.000Z</time>
      </trkpt>
      <trkpt lat="43.39888" lon="6.09666">
        <ele>270.685012</ele>
        <time>2025-04-25T06:43:03.000Z</time>
      </trkpt>
      <trkpt lat="43.3989" lon="6.09669">
        <ele>270.749073</ele>
        <time>2025-04-25T06:43:04.000Z</time>
      </trkpt>
      <trkpt lat="43.3989" lon="6.09669">
        <ele>270.749073</ele>
        <time>2025-04-25T06:43:04.000Z</time>
      </trkpt>
      <trkpt lat="43.39891" lon="6.09673">
        <ele>270.822568</ele>
        <time>2025-04-25T06:43:05.000Z</time>
      </trkpt>
      <trkpt lat="43.39891" lon="6.09673">
        <ele>270.822568</ele>
        <time>2025-04-25T06:43:05.000Z</time>
      </trkpt>
      <trkpt lat="43.39893" lon="6.09677">
        <ele>270.906845</ele>
        <time>2025-04-25T06:43:06.000Z</time>
      </trkpt>
      <trkpt lat="43.39893" lon="6.09677">
        <ele>270.906845</ele>
        <time>2025-04-25T06:43:06.000Z</time>
      </trkpt>
      <trkpt lat="43.39893" lon="6.09681">
        <ele>270.976165</ele>
        <time>2025-04-25T06:43:07.000Z</time>
      </trkpt>
      <trkpt lat="43.39893" lon="6.09681">
        <ele>270.976165</ele>
        <time>2025-04-25T06:43:07.000Z</time>
      </trkpt>
      <trkpt lat="43.39894" lon="6.09686">
        <ele>271.055769</ele>
        <time>2025-04-25T06:43:08.000Z</time>
      </trkpt>
      <trkpt lat="43.39894" lon="6.09686">
        <ele>271.055769</ele>
        <time>2025-04-25T06:43:08.000Z</time>
      </trkpt>
      <trkpt lat="43.39895" lon="6.0969">
        <ele>271.127184</ele>
        <time>2025-04-25T06:43:09.000Z</time>
      </trkpt>
      <trkpt lat="43.39895" lon="6.0969">
        <ele>271.127184</ele>
        <time>2025-04-25T06:43:09.000Z</time>
      </trkpt>
      <trkpt lat="43.39895" lon="6.09694">
        <ele>271.191775</ele>
        <time>2025-04-25T06:43:10.000Z</time>
      </trkpt>
      <trkpt lat="43.39895" lon="6.09694">
        <ele>271.191775</ele>
        <time>2025-04-25T06:43:10.000Z</time>
      </trkpt>
      <trkpt lat="43.39896" lon="6.09697">
        <ele>271.251222</ele>
        <time>2025-04-25T06:43:11.000Z</time>
      </trkpt>
      <trkpt lat="43.39896" lon="6.09697">
        <ele>271.251222</ele>
        <time>2025-04-25T06:43:11.000Z</time>
      </trkpt>
      <trkpt lat="43.39898" lon="6.09707">
        <ele>271.429106</ele>
        <time>2025-04-25T06:43:13.000Z</time>
      </trkpt>
      <trkpt lat="43.39898" lon="6.09707">
        <ele>271.429106</ele>
        <time>2025-04-25T06:43:13.000Z</time>
      </trkpt>
      <trkpt lat="43.39899" lon="6.09711">
        <ele>271.499482</ele>
        <time>2025-04-25T06:43:14.000Z</time>
      </trkpt>
      <trkpt lat="43.39899" lon="6.09711">
        <ele>271.499482</ele>
        <time>2025-04-25T06:43:14.000Z</time>
      </trkpt>
      <trkpt lat="43.39901" lon="6.09716">
        <ele>271.586467</ele>
        <time>2025-04-25T06:43:15.000Z</time>
      </trkpt>
      <trkpt lat="43.39901" lon="6.09721">
        <ele>271.67874</ele>
        <time>2025-04-25T06:43:16.000Z</time>
      </trkpt>
      <trkpt lat="43.39902" lon="6.09727">
        <ele>271.769801</ele>
        <time>2025-04-25T06:43:17.000Z</time>
      </trkpt>
      <trkpt lat="43.39902" lon="6.09727">
        <ele>271.769801</ele>
        <time>2025-04-25T06:43:17.000Z</time>
      </trkpt>
      <trkpt lat="43.39903" lon="6.09733">
        <ele>271.872833</ele>
        <time>2025-04-25T06:43:18.000Z</time>
      </trkpt>
      <trkpt lat="43.39903" lon="6.09739">
        <ele>271.973797</ele>
        <time>2025-04-25T06:43:19.000Z</time>
      </trkpt>
      <trkpt lat="43.39904" lon="6.09745">
        <ele>272.089346</ele>
        <time>2025-04-25T06:43:20.000Z</time>
      </trkpt>
      <trkpt lat="43.39906" lon="6.09752">
        <ele>272.209823</ele>
        <time>2025-04-25T06:43:21.000Z</time>
      </trkpt>
      <trkpt lat="43.39906" lon="6.09759">
        <ele>272.320725</ele>
        <time>2025-04-25T06:43:22.000Z</time>
      </trkpt>
      <trkpt lat="43.39908" lon="6.09766">
        <ele>272.448271</ele>
        <time>2025-04-25T06:43:23.000Z</time>
      </trkpt>
      <trkpt lat="43.39908" lon="6.09774">
        <ele>272.577141</ele>
        <time>2025-04-25T06:43:24.000Z</time>
      </trkpt>
      <trkpt lat="43.39908" lon="6.09782">
        <ele>272.708354</ele>
        <time>2025-04-25T06:43:25.000Z</time>
      </trkpt>
      <trkpt lat="43.39908" lon="6.09782">
        <ele>272.708354</ele>
        <time>2025-04-25T06:43:25.000Z</time>
      </trkpt>
      <trkpt lat="43.39908" lon="6.09788">
        <ele>272.817228</ele>
        <time>2025-04-25T06:43:26.000Z</time>
      </trkpt>
      <trkpt lat="43.39908" lon="6.09795">
        <ele>272.941711</ele>
        <time>2025-04-25T06:43:27.000Z</time>
      </trkpt>
      <trkpt lat="43.39908" lon="6.09795">
        <ele>272.941711</ele>
        <time>2025-04-25T06:43:27.000Z</time>
      </trkpt>
      <trkpt lat="43.39907" lon="6.09803">
        <ele>273.068216</ele>
        <time>2025-04-25T06:43:28.000Z</time>
      </trkpt>
      <trkpt lat="43.39907" lon="6.0981">
        <ele>273.179628</ele>
        <time>2025-04-25T06:43:29.000Z</time>
      </trkpt>
      <trkpt lat="43.39907" lon="6.0981">
        <ele>273.179628</ele>
        <time>2025-04-25T06:43:29.000Z</time>
      </trkpt>
      <trkpt lat="43.39906" lon="6.09817">
        <ele>273.297746</ele>
        <time>2025-04-25T06:43:30.000Z</time>
      </trkpt>
      <trkpt lat="43.39906" lon="6.09817">
        <ele>273.297746</ele>
        <time>2025-04-25T06:43:30.000Z</time>
      </trkpt>
      <trkpt lat="43.39906" lon="6.09824">
        <ele>273.418865</ele>
        <time>2025-04-25T06:43:31.000Z</time>
      </trkpt>
      <trkpt lat="43.39906" lon="6.09824">
        <ele>273.418865</ele>
        <time>2025-04-25T06:43:31.000Z</time>
      </trkpt>
      <trkpt lat="43.39906" lon="6.0983">
        <ele>273.523162</ele>
        <time>2025-04-25T06:43:32.000Z</time>
      </trkpt>
      <trkpt lat="43.39906" lon="6.0983">
        <ele>273.523162</ele>
        <time>2025-04-25T06:43:32.000Z</time>
      </trkpt>
      <trkpt lat="43.39906" lon="6.09836">
        <ele>273.629141</ele>
        <time>2025-04-25T06:43:33.000Z</time>
      </trkpt>
      <trkpt lat="43.39906" lon="6.09836">
        <ele>273.629141</ele>
        <time>2025-04-25T06:43:33.000Z</time>
      </trkpt>
      <trkpt lat="43.39906" lon="6.09843">
        <ele>273.743531</ele>
        <time>2025-04-25T06:43:34.000Z</time>
      </trkpt>
      <trkpt lat="43.39906" lon="6.09843">
        <ele>273.743531</ele>
        <time>2025-04-25T06:43:34.000Z</time>
      </trkpt>
      <trkpt lat="43.39907" lon="6.0985">
        <ele>273.853266</ele>
        <time>2025-04-25T06:43:35.000Z</time>
      </trkpt>
      <trkpt lat="43.39907" lon="6.0985">
        <ele>273.853266</ele>
        <time>2025-04-25T06:43:35.000Z</time>
      </trkpt>
      <trkpt lat="43.39907" lon="6.09857">
        <ele>273.974385</ele>
        <time>2025-04-25T06:43:36.000Z</time>
      </trkpt>
      <trkpt lat="43.39907" lon="6.09857">
        <ele>273.974385</ele>
        <time>2025-04-25T06:43:36.000Z</time>
      </trkpt>
      <trkpt lat="43.39906" lon="6.09865">
        <ele>274.112637</ele>
        <time>2025-04-25T06:43:37.000Z</time>
      </trkpt>
      <trkpt lat="43.39906" lon="6.09865">
        <ele>274.112637</ele>
        <time>2025-04-25T06:43:37.000Z</time>
      </trkpt>
      <trkpt lat="43.39906" lon="6.09872">
        <ele>274.236827</ele>
        <time>2025-04-25T06:43:38.000Z</time>
      </trkpt>
      <trkpt lat="43.39906" lon="6.09872">
        <ele>274.236827</ele>
        <time>2025-04-25T06:43:38.000Z</time>
      </trkpt>
      <trkpt lat="43.39905" lon="6.09879">
        <ele>274.119496</ele>
        <time>2025-04-25T06:43:39.000Z</time>
      </trkpt>
      <trkpt lat="43.39905" lon="6.09879">
        <ele>274.119496</ele>
        <time>2025-04-25T06:43:39.000Z</time>
      </trkpt>
      <trkpt lat="43.39904" lon="6.09887">
        <ele>273.883807</ele>
        <time>2025-04-25T06:43:40.000Z</time>
      </trkpt>
      <trkpt lat="43.39904" lon="6.09887">
        <ele>273.883807</ele>
        <time>2025-04-25T06:43:40.000Z</time>
      </trkpt>
      <trkpt lat="43.39904" lon="6.09893">
        <ele>273.677906</ele>
        <time>2025-04-25T06:43:41.000Z</time>
      </trkpt>
      <trkpt lat="43.39904" lon="6.09893">
        <ele>273.677906</ele>
        <time>2025-04-25T06:43:41.000Z</time>
      </trkpt>
      <trkpt lat="43.39903" lon="6.099">
        <ele>273.437655</ele>
        <time>2025-04-25T06:43:42.000Z</time>
      </trkpt>
      <trkpt lat="43.39903" lon="6.099">
        <ele>273.437655</ele>
        <time>2025-04-25T06:43:42.000Z</time>
      </trkpt>
      <trkpt lat="43.39903" lon="6.09908">
        <ele>273.185912</ele>
        <time>2025-04-25T06:43:43.000Z</time>
      </trkpt>
      <trkpt lat="43.39903" lon="6.09908">
        <ele>273.185912</ele>
        <time>2025-04-25T06:43:43.000Z</time>
      </trkpt>
      <trkpt lat="43.39904" lon="6.09916">
        <ele>272.939274</ele>
        <time>2025-04-25T06:43:44.000Z</time>
      </trkpt>
      <trkpt lat="43.39904" lon="6.09916">
        <ele>272.939274</ele>
        <time>2025-04-25T06:43:44.000Z</time>
      </trkpt>
      <trkpt lat="43.39905" lon="6.09925">
        <ele>272.653752</ele>
        <time>2025-04-25T06:43:45.000Z</time>
      </trkpt>
      <trkpt lat="43.39905" lon="6.09925">
        <ele>272.653752</ele>
        <time>2025-04-25T06:43:45.000Z</time>
      </trkpt>
      <trkpt lat="43.39905" lon="6.09933">
        <ele>272.380097</ele>
        <time>2025-04-25T06:43:46.000Z</time>
      </trkpt>
      <trkpt lat="43.39905" lon="6.09933">
        <ele>272.380097</ele>
        <time>2025-04-25T06:43:46.000Z</time>
      </trkpt>
      <trkpt lat="43.39906" lon="6.09942">
        <ele>272.092622</ele>
        <time>2025-04-25T06:43:47.000Z</time>
      </trkpt>
      <trkpt lat="43.39906" lon="6.09942">
        <ele>272.092622</ele>
        <time>2025-04-25T06:43:47.000Z</time>
      </trkpt>
      <trkpt lat="43.39907" lon="6.09951">
        <ele>271.801197</ele>
        <time>2025-04-25T06:43:48.000Z</time>
      </trkpt>
      <trkpt lat="43.39907" lon="6.09951">
        <ele>271.801197</ele>
        <time>2025-04-25T06:43:48.000Z</time>
      </trkpt>
      <trkpt lat="43.39908" lon="6.09959">
        <ele>271.526405</ele>
        <time>2025-04-25T06:43:49.000Z</time>
      </trkpt>
      <trkpt lat="43.39908" lon="6.09959">
        <ele>271.526405</ele>
        <time>2025-04-25T06:43:49.000Z</time>
      </trkpt>
      <trkpt lat="43.39909" lon="6.09966">
        <ele>271.304244</ele>
        <time>2025-04-25T06:43:50.000Z</time>
      </trkpt>
      <trkpt lat="43.39909" lon="6.09966">
        <ele>271.304244</ele>
        <time>2025-04-25T06:43:50.000Z</time>
      </trkpt>
      <trkpt lat="43.3991" lon="6.09973">
        <ele>271.076757</ele>
        <time>2025-04-25T06:43:51.000Z</time>
      </trkpt>
      <trkpt lat="43.3991" lon="6.09973">
        <ele>271.076757</ele>
        <time>2025-04-25T06:43:51.000Z</time>
      </trkpt>
      <trkpt lat="43.39911" lon="6.09978">
        <ele>270.902005</ele>
        <time>2025-04-25T06:43:52.000Z</time>
      </trkpt>
      <trkpt lat="43.39911" lon="6.09978">
        <ele>270.902005</ele>
        <time>2025-04-25T06:43:52.000Z</time>
      </trkpt>
      <trkpt lat="43.39911" lon="6.09983">
        <ele>270.734593</ele>
        <time>2025-04-25T06:43:53.000Z</time>
      </trkpt>
      <trkpt lat="43.39911" lon="6.09983">
        <ele>270.734593</ele>
        <time>2025-04-25T06:43:53.000Z</time>
      </trkpt>
      <trkpt lat="43.3991" lon="6.09989">
        <ele>270.550229</ele>
        <time>2025-04-25T06:43:54.000Z</time>
      </trkpt>
      <trkpt lat="43.3991" lon="6.09989">
        <ele>270.550229</ele>
        <time>2025-04-25T06:43:54.000Z</time>
      </trkpt>
      <trkpt lat="43.39909" lon="6.09994">
        <ele>270.385117</ele>
        <time>2025-04-25T06:43:55.000Z</time>
      </trkpt>
      <trkpt lat="43.39909" lon="6.09994">
        <ele>270.385117</ele>
        <time>2025-04-25T06:43:55.000Z</time>
      </trkpt>
      <trkpt lat="43.39907" lon="6.09999">
        <ele>270.191868</ele>
        <time>2025-04-25T06:43:56.000Z</time>
      </trkpt>
      <trkpt lat="43.39907" lon="6.09999">
        <ele>270.191868</ele>
        <time>2025-04-25T06:43:56.000Z</time>
      </trkpt>
      <trkpt lat="43.39905" lon="6.10003">
        <ele>270.032584</ele>
        <time>2025-04-25T06:43:57.000Z</time>
      </trkpt>
      <trkpt lat="43.39905" lon="6.10003">
        <ele>270.032584</ele>
        <time>2025-04-25T06:43:57.000Z</time>
      </trkpt>
      <trkpt lat="43.39903" lon="6.10008">
        <ele>269.879018</ele>
        <time>2025-04-25T06:43:58.000Z</time>
      </trkpt>
      <trkpt lat="43.39903" lon="6.10008">
        <ele>269.879018</ele>
        <time>2025-04-25T06:43:58.000Z</time>
      </trkpt>
      <trkpt lat="43.39903" lon="6.10012">
        <ele>269.723607</ele>
        <time>2025-04-25T06:43:59.000Z</time>
      </trkpt>
      <trkpt lat="43.39903" lon="6.10012">
        <ele>269.723607</ele>
        <time>2025-04-25T06:43:59.000Z</time>
      </trkpt>
      <trkpt lat="43.39901" lon="6.10018">
        <ele>269.541806</ele>
        <time>2025-04-25T06:44:00.000Z</time>
      </trkpt>
      <trkpt lat="43.39901" lon="6.10022">
        <ele>269.387345</ele>
        <time>2025-04-25T06:44:01.000Z</time>
      </trkpt>
      <trkpt lat="43.39901" lon="6.10022">
        <ele>269.387345</ele>
        <time>2025-04-25T06:44:01.000Z</time>
      </trkpt>
      <trkpt lat="43.399" lon="6.10029">
        <ele>269.183745</ele>
        <time>2025-04-25T06:44:02.000Z</time>
      </trkpt>
      <trkpt lat="43.399" lon="6.10029">
        <ele>269.183745</ele>
        <time>2025-04-25T06:44:02.000Z</time>
      </trkpt>
      <trkpt lat="43.39899" lon="6.10036">
        <ele>268.96197</ele>
        <time>2025-04-25T06:44:03.000Z</time>
      </trkpt>
      <trkpt lat="43.39899" lon="6.10036">
        <ele>268.96197</ele>
        <time>2025-04-25T06:44:03.000Z</time>
      </trkpt>
      <trkpt lat="43.39899" lon="6.10042">
        <ele>268.759143</ele>
        <time>2025-04-25T06:44:04.000Z</time>
      </trkpt>
      <trkpt lat="43.39899" lon="6.10048">
        <ele>268.553097</ele>
        <time>2025-04-25T06:44:05.000Z</time>
      </trkpt>
      <trkpt lat="43.39899" lon="6.10048">
        <ele>268.553097</ele>
        <time>2025-04-25T06:44:05.000Z</time>
      </trkpt>
      <trkpt lat="43.39901" lon="6.10059">
        <ele>268.204534</ele>
        <time>2025-04-25T06:44:06.000Z</time>
      </trkpt>
      <trkpt lat="43.39901" lon="6.1006">
        <ele>268.16912</ele>
        <time>2025-04-25T06:44:07.000Z</time>
      </trkpt>
      <trkpt lat="43.39901" lon="6.1006">
        <ele>268.16912</ele>
        <time>2025-04-25T06:44:07.000Z</time>
      </trkpt>
      <trkpt lat="43.39903" lon="6.10074">
        <ele>267.690329</ele>
        <time>2025-04-25T06:44:08.000Z</time>
      </trkpt>
      <trkpt lat="43.39905" lon="6.10082">
        <ele>267.430563</ele>
        <time>2025-04-25T06:44:09.000Z</time>
      </trkpt>
      <trkpt lat="43.39905" lon="6.10082">
        <ele>267.430563</ele>
        <time>2025-04-25T06:44:09.000Z</time>
      </trkpt>
      <trkpt lat="43.39907" lon="6.10089">
        <ele>267.193002</ele>
        <time>2025-04-25T06:44:10.000Z</time>
      </trkpt>
      <trkpt lat="43.39907" lon="6.10089">
        <ele>267.193002</ele>
        <time>2025-04-25T06:44:10.000Z</time>
      </trkpt>
      <trkpt lat="43.39908" lon="6.10094">
        <ele>267.037092</ele>
        <time>2025-04-25T06:44:11.000Z</time>
      </trkpt>
      <trkpt lat="43.39908" lon="6.10094">
        <ele>267.037092</ele>
        <time>2025-04-25T06:44:11.000Z</time>
      </trkpt>
      <trkpt lat="43.3991" lon="6.10104">
        <ele>266.705534</ele>
        <time>2025-04-25T06:44:12.000Z</time>
      </trkpt>
      <trkpt lat="43.3991" lon="6.10104">
        <ele>266.705534</ele>
        <time>2025-04-25T06:44:12.000Z</time>
      </trkpt>
      <trkpt lat="43.3991" lon="6.10109">
        <ele>266.538121</ele>
        <time>2025-04-25T06:44:13.000Z</time>
      </trkpt>
      <trkpt lat="43.3991" lon="6.10109">
        <ele>266.538121</ele>
        <time>2025-04-25T06:44:13.000Z</time>
      </trkpt>
      <trkpt lat="43.3991" lon="6.10118">
        <ele>266.327672</ele>
        <time>2025-04-25T06:44:14.000Z</time>
      </trkpt>
      <trkpt lat="43.3991" lon="6.10118">
        <ele>266.327672</ele>
        <time>2025-04-25T06:44:14.000Z</time>
      </trkpt>
      <trkpt lat="43.3991" lon="6.10121">
        <ele>266.377487</ele>
        <time>2025-04-25T06:44:15.000Z</time>
      </trkpt>
      <trkpt lat="43.39909" lon="6.10131">
        <ele>266.509663</ele>
        <time>2025-04-25T06:44:16.000Z</time>
      </trkpt>
      <trkpt lat="43.39909" lon="6.10131">
        <ele>266.509663</ele>
        <time>2025-04-25T06:44:16.000Z</time>
      </trkpt>
      <trkpt lat="43.39908" lon="6.10138">
        <ele>266.60554</ele>
        <time>2025-04-25T06:44:17.000Z</time>
      </trkpt>
      <trkpt lat="43.39908" lon="6.10145">
        <ele>266.696049</ele>
        <time>2025-04-25T06:44:18.000Z</time>
      </trkpt>
      <trkpt lat="43.39908" lon="6.10147">
        <ele>266.720913</ele>
        <time>2025-04-25T06:44:19.000Z</time>
      </trkpt>
      <trkpt lat="43.39906" lon="6.10159">
        <ele>266.897104</ele>
        <time>2025-04-25T06:44:20.000Z</time>
      </trkpt>
      <trkpt lat="43.39905" lon="6.10167">
        <ele>267.000244</ele>
        <time>2025-04-25T06:44:21.000Z</time>
      </trkpt>
      <trkpt lat="43.39904" lon="6.10174">
        <ele>267.095197</ele>
        <time>2025-04-25T06:44:22.000Z</time>
      </trkpt>
      <trkpt lat="43.39903" lon="6.1018">
        <ele>267.185051</ele>
        <time>2025-04-25T06:44:23.000Z</time>
      </trkpt>
      <trkpt lat="43.39903" lon="6.1018">
        <ele>267.185051</ele>
        <time>2025-04-25T06:44:23.000Z</time>
      </trkpt>
      <trkpt lat="43.39902" lon="6.10187">
        <ele>267.272483</ele>
        <time>2025-04-25T06:44:24.000Z</time>
      </trkpt>
      <trkpt lat="43.39902" lon="6.10193">
        <ele>267.364035</ele>
        <time>2025-04-25T06:44:25.000Z</time>
      </trkpt>
      <trkpt lat="43.39902" lon="6.10193">
        <ele>267.364035</ele>
        <time>2025-04-25T06:44:25.000Z</time>
      </trkpt>
      <trkpt lat="43.39902" lon="6.10202">
        <ele>267.474683</ele>
        <time>2025-04-25T06:44:26.000Z</time>
      </trkpt>
      <trkpt lat="43.39902" lon="6.10202">
        <ele>267.474683</ele>
        <time>2025-04-25T06:44:26.000Z</time>
      </trkpt>
      <trkpt lat="43.39904" lon="6.10215">
        <ele>267.653514</ele>
        <time>2025-04-25T06:44:28.000Z</time>
      </trkpt>
      <trkpt lat="43.39904" lon="6.10215">
        <ele>267.653514</ele>
        <time>2025-04-25T06:44:28.000Z</time>
      </trkpt>
      <trkpt lat="43.39905" lon="6.10219">
        <ele>267.71067</ele>
        <time>2025-04-25T06:44:29.000Z</time>
      </trkpt>
      <trkpt lat="43.39905" lon="6.10219">
        <ele>267.71067</ele>
        <time>2025-04-25T06:44:29.000Z</time>
      </trkpt>
      <trkpt lat="43.39906" lon="6.10225">
        <ele>267.791157</ele>
        <time>2025-04-25T06:44:30.000Z</time>
      </trkpt>
      <trkpt lat="43.39906" lon="6.10225">
        <ele>267.791157</ele>
        <time>2025-04-25T06:44:30.000Z</time>
      </trkpt>
      <trkpt lat="43.39906" lon="6.1023">
        <ele>267.870936</ele>
        <time>2025-04-25T06:44:31.000Z</time>
      </trkpt>
      <trkpt lat="43.39906" lon="6.1023">
        <ele>267.870936</ele>
        <time>2025-04-25T06:44:31.000Z</time>
      </trkpt>
      <trkpt lat="43.39907" lon="6.10236">
        <ele>267.948035</ele>
        <time>2025-04-25T06:44:32.000Z</time>
      </trkpt>
      <trkpt lat="43.39907" lon="6.10236">
        <ele>267.948035</ele>
        <time>2025-04-25T06:44:32.000Z</time>
      </trkpt>
      <trkpt lat="43.39908" lon="6.10242">
        <ele>268.024873</ele>
        <time>2025-04-25T06:44:33.000Z</time>
      </trkpt>
      <trkpt lat="43.39908" lon="6.10242">
        <ele>268.024873</ele>
        <time>2025-04-25T06:44:33.000Z</time>
      </trkpt>
      <trkpt lat="43.39909" lon="6.10248">
        <ele>268.117954</ele>
        <time>2025-04-25T06:44:34.000Z</time>
      </trkpt>
      <trkpt lat="43.39909" lon="6.10248">
        <ele>268.117954</ele>
        <time>2025-04-25T06:44:34.000Z</time>
      </trkpt>
      <trkpt lat="43.39911" lon="6.10254">
        <ele>268.202111</ele>
        <time>2025-04-25T06:44:35.000Z</time>
      </trkpt>
      <trkpt lat="43.39911" lon="6.10254">
        <ele>268.202111</ele>
        <time>2025-04-25T06:44:35.000Z</time>
      </trkpt>
      <trkpt lat="43.39911" lon="6.1026">
        <ele>268.288595</ele>
        <time>2025-04-25T06:44:36.000Z</time>
      </trkpt>
      <trkpt lat="43.39911" lon="6.1026">
        <ele>268.288595</ele>
        <time>2025-04-25T06:44:36.000Z</time>
      </trkpt>
      <trkpt lat="43.39912" lon="6.10267">
        <ele>268.377762</ele>
        <time>2025-04-25T06:44:37.000Z</time>
      </trkpt>
      <trkpt lat="43.39912" lon="6.10267">
        <ele>268.377762</ele>
        <time>2025-04-25T06:44:37.000Z</time>
      </trkpt>
      <trkpt lat="43.39913" lon="6.10273">
        <ele>268.463688</ele>
        <time>2025-04-25T06:44:38.000Z</time>
      </trkpt>
      <trkpt lat="43.39913" lon="6.10273">
        <ele>268.463688</ele>
        <time>2025-04-25T06:44:38.000Z</time>
      </trkpt>
      <trkpt lat="43.39915" lon="6.1028">
        <ele>268.559267</ele>
        <time>2025-04-25T06:44:39.000Z</time>
      </trkpt>
      <trkpt lat="43.39915" lon="6.1028">
        <ele>268.559267</ele>
        <time>2025-04-25T06:44:39.000Z</time>
      </trkpt>
      <trkpt lat="43.39917" lon="6.10285">
        <ele>268.63643</ele>
        <time>2025-04-25T06:44:40.000Z</time>
      </trkpt>
      <trkpt lat="43.39917" lon="6.10285">
        <ele>268.63643</ele>
        <time>2025-04-25T06:44:40.000Z</time>
      </trkpt>
      <trkpt lat="43.39919" lon="6.10291">
        <ele>268.727763</ele>
        <time>2025-04-25T06:44:41.000Z</time>
      </trkpt>
      <trkpt lat="43.39919" lon="6.10291">
        <ele>268.727763</ele>
        <time>2025-04-25T06:44:41.000Z</time>
      </trkpt>
      <trkpt lat="43.39921" lon="6.10298">
        <ele>268.828369</ele>
        <time>2025-04-25T06:44:42.000Z</time>
      </trkpt>
      <trkpt lat="43.39921" lon="6.10298">
        <ele>268.828369</ele>
        <time>2025-04-25T06:44:42.000Z</time>
      </trkpt>
      <trkpt lat="43.39922" lon="6.10305">
        <ele>268.922758</ele>
        <time>2025-04-25T06:44:42.000Z</time>
      </trkpt>
      <trkpt lat="43.39922" lon="6.10305">
        <ele>268.922758</ele>
        <time>2025-04-25T06:44:42.000Z</time>
      </trkpt>
      <trkpt lat="43.39925" lon="6.10312">
        <ele>269.026191</ele>
        <time>2025-04-25T06:44:44.000Z</time>
      </trkpt>
      <trkpt lat="43.39926" lon="6.10316">
        <ele>269.091233</ele>
        <time>2025-04-25T06:44:45.000Z</time>
      </trkpt>
      <trkpt lat="43.39926" lon="6.10316">
        <ele>269.091233</ele>
        <time>2025-04-25T06:44:45.000Z</time>
      </trkpt>
      <trkpt lat="43.39928" lon="6.10324">
        <ele>269.203269</ele>
        <time>2025-04-25T06:44:46.000Z</time>
      </trkpt>
      <trkpt lat="43.39929" lon="6.10328">
        <ele>269.265917</ele>
        <time>2025-04-25T06:44:47.000Z</time>
      </trkpt>
      <trkpt lat="43.39929" lon="6.10328">
        <ele>269.265917</ele>
        <time>2025-04-25T06:44:47.000Z</time>
      </trkpt>
      <trkpt lat="43.3993" lon="6.10335">
        <ele>269.362339</ele>
        <time>2025-04-25T06:44:48.000Z</time>
      </trkpt>
      <trkpt lat="43.39932" lon="6.1034">
        <ele>269.435896</ele>
        <time>2025-04-25T06:44:49.000Z</time>
      </trkpt>
      <trkpt lat="43.39932" lon="6.1034">
        <ele>269.435896</ele>
        <time>2025-04-25T06:44:49.000Z</time>
      </trkpt>
      <trkpt lat="43.39933" lon="6.10346">
        <ele>269.518782</ele>
        <time>2025-04-25T06:44:50.000Z</time>
      </trkpt>
      <trkpt lat="43.39935" lon="6.10352">
        <ele>269.604708</ele>
        <time>2025-04-25T06:44:51.000Z</time>
      </trkpt>
      <trkpt lat="43.39935" lon="6.10358">
        <ele>269.59233</ele>
        <time>2025-04-25T06:44:52.000Z</time>
      </trkpt>
      <trkpt lat="43.39935" lon="6.10365">
        <ele>269.483433</ele>
        <time>2025-04-25T06:44:53.000Z</time>
      </trkpt>
      <trkpt lat="43.39934" lon="6.10372">
        <ele>269.375051</ele>
        <time>2025-04-25T06:44:54.000Z</time>
      </trkpt>
      <trkpt lat="43.39935" lon="6.10379">
        <ele>269.261306</ele>
        <time>2025-04-25T06:44:55.000Z</time>
      </trkpt>
      <trkpt lat="43.39935" lon="6.10386">
        <ele>269.14742</ele>
        <time>2025-04-25T06:44:56.000Z</time>
      </trkpt>
      <trkpt lat="43.39934" lon="6.10386">
        <ele>269.131192</ele>
        <time>2025-04-25T06:44:57.000Z</time>
      </trkpt>
      <trkpt lat="43.39934" lon="6.10403">
        <ele>268.857261</ele>
        <time>2025-04-25T06:44:58.000Z</time>
      </trkpt>
      <trkpt lat="43.39933" lon="6.10413">
        <ele>268.706119</ele>
        <time>2025-04-25T06:44:59.000Z</time>
      </trkpt>
      <trkpt lat="43.39934" lon="6.10414">
        <ele>268.691011</ele>
        <time>2025-04-25T06:45:00.000Z</time>
      </trkpt>
      <trkpt lat="43.39935" lon="6.10431">
        <ele>268.4286</ele>
        <time>2025-04-25T06:45:01.000Z</time>
      </trkpt>
      <trkpt lat="43.39936" lon="6.1044">
        <ele>268.284722</ele>
        <time>2025-04-25T06:45:02.000Z</time>
      </trkpt>
      <trkpt lat="43.39936" lon="6.1044">
        <ele>268.284722</ele>
        <time>2025-04-25T06:45:02.000Z</time>
      </trkpt>
      <trkpt lat="43.39937" lon="6.10449">
        <ele>268.147345</ele>
        <time>2025-04-25T06:45:03.000Z</time>
      </trkpt>
      <trkpt lat="43.39938" lon="6.10457">
        <ele>268.017219</ele>
        <time>2025-04-25T06:45:04.000Z</time>
      </trkpt>
      <trkpt lat="43.39938" lon="6.10457">
        <ele>268.017219</ele>
        <time>2025-04-25T06:45:04.000Z</time>
      </trkpt>
      <trkpt lat="43.39939" lon="6.10463">
        <ele>267.922106</ele>
        <time>2025-04-25T06:45:05.000Z</time>
      </trkpt>
      <trkpt lat="43.39939" lon="6.10463">
        <ele>267.922106</ele>
        <time>2025-04-25T06:45:05.000Z</time>
      </trkpt>
      <trkpt lat="43.39939" lon="6.10468">
        <ele>267.834989</ele>
        <time>2025-04-25T06:45:06.000Z</time>
      </trkpt>
      <trkpt lat="43.39939" lon="6.10468">
        <ele>267.834989</ele>
        <time>2025-04-25T06:45:06.000Z</time>
      </trkpt>
      <trkpt lat="43.39939" lon="6.10474">
        <ele>267.741649</ele>
        <time>2025-04-25T06:45:07.000Z</time>
      </trkpt>
      <trkpt lat="43.39939" lon="6.10474">
        <ele>267.741649</ele>
        <time>2025-04-25T06:45:07.000Z</time>
      </trkpt>
      <trkpt lat="43.39939" lon="6.10479">
        <ele>267.6732</ele>
        <time>2025-04-25T06:45:08.000Z</time>
      </trkpt>
      <trkpt lat="43.39939" lon="6.10479">
        <ele>267.6732</ele>
        <time>2025-04-25T06:45:08.000Z</time>
      </trkpt>
      <trkpt lat="43.39939" lon="6.10483">
        <ele>267.614085</ele>
        <time>2025-04-25T06:45:09.000Z</time>
      </trkpt>
      <trkpt lat="43.39939" lon="6.10483">
        <ele>267.614085</ele>
        <time>2025-04-25T06:45:09.000Z</time>
      </trkpt>
      <trkpt lat="43.39939" lon="6.10486">
        <ele>267.568971</ele>
        <time>2025-04-25T06:45:10.000Z</time>
      </trkpt>
      <trkpt lat="43.39939" lon="6.10486">
        <ele>267.568971</ele>
        <time>2025-04-25T06:45:10.000Z</time>
      </trkpt>
      <trkpt lat="43.39939" lon="6.10488">
        <ele>267.533691</ele>
        <time>2025-04-25T06:45:11.000Z</time>
      </trkpt>
      <trkpt lat="43.39939" lon="6.10488">
        <ele>267.533691</ele>
        <time>2025-04-25T06:45:11.000Z</time>
      </trkpt>
      <trkpt lat="43.3994" lon="6.1049">
        <ele>267.495385</ele>
        <time>2025-04-25T06:45:12.000Z</time>
      </trkpt>
      <trkpt lat="43.3994" lon="6.1049">
        <ele>267.495385</ele>
        <time>2025-04-25T06:45:12.000Z</time>
      </trkpt>
      <trkpt lat="43.3994" lon="6.10492">
        <ele>267.465827</ele>
        <time>2025-04-25T06:45:13.000Z</time>
      </trkpt>
      <trkpt lat="43.3994" lon="6.10496">
        <ele>267.41071</ele>
        <time>2025-04-25T06:45:14.000Z</time>
      </trkpt>
      <trkpt lat="43.3994" lon="6.10496">
        <ele>267.41071</ele>
        <time>2025-04-25T06:45:14.000Z</time>
      </trkpt>
      <trkpt lat="43.3994" lon="6.10501">
        <ele>267.323173</ele>
        <time>2025-04-25T06:45:15.000Z</time>
      </trkpt>
      <trkpt lat="43.39941" lon="6.10507">
        <ele>267.232716</ele>
        <time>2025-04-25T06:45:16.000Z</time>
      </trkpt>
      <trkpt lat="43.39941" lon="6.10513">
        <ele>267.131236</ele>
        <time>2025-04-25T06:45:17.000Z</time>
      </trkpt>
      <trkpt lat="43.39941" lon="6.1052">
        <ele>267.027006</ele>
        <time>2025-04-25T06:45:18.000Z</time>
      </trkpt>
      <trkpt lat="43.39941" lon="6.10527">
        <ele>266.925888</ele>
        <time>2025-04-25T06:45:19.000Z</time>
      </trkpt>
      <trkpt lat="43.39941" lon="6.10527">
        <ele>266.925888</ele>
        <time>2025-04-25T06:45:19.000Z</time>
      </trkpt>
      <trkpt lat="43.39941" lon="6.10534">
        <ele>266.815104</ele>
        <time>2025-04-25T06:45:20.000Z</time>
      </trkpt>
      <trkpt lat="43.39941" lon="6.10534">
        <ele>266.815104</ele>
        <time>2025-04-25T06:45:20.000Z</time>
      </trkpt>
      <trkpt lat="43.39942" lon="6.10541">
        <ele>266.708973</ele>
        <time>2025-04-25T06:45:21.000Z</time>
      </trkpt>
      <trkpt lat="43.39942" lon="6.10546">
        <ele>266.61679</ele>
        <time>2025-04-25T06:45:22.000Z</time>
      </trkpt>
      <trkpt lat="43.39943" lon="6.10555">
        <ele>266.480946</ele>
        <time>2025-04-25T06:45:23.000Z</time>
      </trkpt>
      <trkpt lat="43.39943" lon="6.10555">
        <ele>266.480946</ele>
        <time>2025-04-25T06:45:23.000Z</time>
      </trkpt>
      <trkpt lat="43.39944" lon="6.10563">
        <ele>266.36302</ele>
        <time>2025-04-25T06:45:24.000Z</time>
      </trkpt>
      <trkpt lat="43.39945" lon="6.10569">
        <ele>266.260798</ele>
        <time>2025-04-25T06:45:25.000Z</time>
      </trkpt>
      <trkpt lat="43.39945" lon="6.10569">
        <ele>266.260798</ele>
        <time>2025-04-25T06:45:25.000Z</time>
      </trkpt>
      <trkpt lat="43.39945" lon="6.10576">
        <ele>266.155013</ele>
        <time>2025-04-25T06:45:26.000Z</time>
      </trkpt>
      <trkpt lat="43.39945" lon="6.10576">
        <ele>266.155013</ele>
        <time>2025-04-25T06:45:26.000Z</time>
      </trkpt>
      <trkpt lat="43.39945" lon="6.10583">
        <ele>266.043005</ele>
        <time>2025-04-25T06:45:27.000Z</time>
      </trkpt>
      <trkpt lat="43.39945" lon="6.10583">
        <ele>266.043005</ele>
        <time>2025-04-25T06:45:27.000Z</time>
      </trkpt>
      <trkpt lat="43.39945" lon="6.10584">
        <ele>266.029004</ele>
        <time>2025-04-25T06:45:28.000Z</time>
      </trkpt>
      <trkpt lat="43.39944" lon="6.106">
        <ele>265.781506</ele>
        <time>2025-04-25T06:45:29.000Z</time>
      </trkpt>
      <trkpt lat="43.39944" lon="6.106">
        <ele>265.781506</ele>
        <time>2025-04-25T06:45:29.000Z</time>
      </trkpt>
      <trkpt lat="43.39944" lon="6.10608">
        <ele>265.7047</ele>
        <time>2025-04-25T06:45:30.000Z</time>
      </trkpt>
      <trkpt lat="43.39944" lon="6.10608">
        <ele>265.7047</ele>
        <time>2025-04-25T06:45:30.000Z</time>
      </trkpt>
      <trkpt lat="43.39944" lon="6.1062">
        <ele>265.582289</ele>
        <time>2025-04-25T06:45:31.000Z</time>
      </trkpt>
      <trkpt lat="43.39944" lon="6.1062">
        <ele>265.582289</ele>
        <time>2025-04-25T06:45:31.000Z</time>
      </trkpt>
      <trkpt lat="43.39943" lon="6.10629">
        <ele>265.485111</ele>
        <time>2025-04-25T06:45:32.000Z</time>
      </trkpt>
      <trkpt lat="43.39943" lon="6.10629">
        <ele>265.485111</ele>
        <time>2025-04-25T06:45:32.000Z</time>
      </trkpt>
      <trkpt lat="43.39944" lon="6.10639">
        <ele>265.387932</ele>
        <time>2025-04-25T06:45:33.000Z</time>
      </trkpt>
      <trkpt lat="43.39944" lon="6.10639">
        <ele>265.387932</ele>
        <time>2025-04-25T06:45:33.000Z</time>
      </trkpt>
      <trkpt lat="43.39944" lon="6.10648">
        <ele>265.300009</ele>
        <time>2025-04-25T06:45:34.000Z</time>
      </trkpt>
      <trkpt lat="43.39944" lon="6.10648">
        <ele>265.300009</ele>
        <time>2025-04-25T06:45:34.000Z</time>
      </trkpt>
      <trkpt lat="43.39944" lon="6.10655">
        <ele>265.229266</ele>
        <time>2025-04-25T06:45:36.000Z</time>
      </trkpt>
      <trkpt lat="43.39944" lon="6.10655">
        <ele>265.229266</ele>
        <time>2025-04-25T06:45:36.000Z</time>
      </trkpt>
      <trkpt lat="43.39943" lon="6.10661">
        <ele>265.160319</ele>
        <time>2025-04-25T06:45:36.000Z</time>
      </trkpt>
      <trkpt lat="43.39943" lon="6.10661">
        <ele>265.160319</ele>
        <time>2025-04-25T06:45:36.000Z</time>
      </trkpt>
      <trkpt lat="43.39943" lon="6.10667">
        <ele>265.104735</ele>
        <time>2025-04-25T06:45:37.000Z</time>
      </trkpt>
      <trkpt lat="43.39943" lon="6.10667">
        <ele>265.104735</ele>
        <time>2025-04-25T06:45:37.000Z</time>
      </trkpt>
      <trkpt lat="43.39944" lon="6.10672">
        <ele>265.049879</ele>
        <time>2025-04-25T06:45:38.000Z</time>
      </trkpt>
      <trkpt lat="43.39944" lon="6.10672">
        <ele>265.049879</ele>
        <time>2025-04-25T06:45:38.000Z</time>
      </trkpt>
      <trkpt lat="43.39945" lon="6.1068">
        <ele>264.97527</ele>
        <time>2025-04-25T06:45:39.000Z</time>
      </trkpt>
      <trkpt lat="43.39945" lon="6.10686">
        <ele>264.90743</ele>
        <time>2025-04-25T06:45:41.000Z</time>
      </trkpt>
      <trkpt lat="43.39945" lon="6.10686">
        <ele>264.90743</ele>
        <time>2025-04-25T06:45:41.000Z</time>
      </trkpt>
      <trkpt lat="43.39946" lon="6.10694">
        <ele>264.830822</ele>
        <time>2025-04-25T06:45:41.000Z</time>
      </trkpt>
      <trkpt lat="43.39946" lon="6.10694">
        <ele>264.830822</ele>
        <time>2025-04-25T06:45:41.000Z</time>
      </trkpt>
      <trkpt lat="43.39946" lon="6.10701">
        <ele>264.762883</ele>
        <time>2025-04-25T06:45:42.000Z</time>
      </trkpt>
      <trkpt lat="43.39946" lon="6.10708">
        <ele>264.689906</ele>
        <time>2025-04-25T06:45:43.000Z</time>
      </trkpt>
      <trkpt lat="43.39945" lon="6.10716">
        <ele>264.610882</ele>
        <time>2025-04-25T06:45:44.000Z</time>
      </trkpt>
      <trkpt lat="43.39945" lon="6.10716">
        <ele>264.610882</ele>
        <time>2025-04-25T06:45:44.000Z</time>
      </trkpt>
      <trkpt lat="43.39945" lon="6.10723">
        <ele>264.540139</ele>
        <time>2025-04-25T06:45:45.000Z</time>
      </trkpt>
      <trkpt lat="43.39945" lon="6.1073">
        <ele>264.467728</ele>
        <time>2025-04-25T06:45:46.000Z</time>
      </trkpt>
      <trkpt lat="43.39945" lon="6.1073">
        <ele>264.467728</ele>
        <time>2025-04-25T06:45:46.000Z</time>
      </trkpt>
      <trkpt lat="43.39944" lon="6.10735">
        <ele>264.410861</ele>
        <time>2025-04-25T06:45:47.000Z</time>
      </trkpt>
      <trkpt lat="43.39944" lon="6.10741">
        <ele>264.350975</ele>
        <time>2025-04-25T06:45:48.000Z</time>
      </trkpt>
      <trkpt lat="43.39943" lon="6.10746">
        <ele>264.302148</ele>
        <time>2025-04-25T06:45:49.000Z</time>
      </trkpt>
      <trkpt lat="43.39942" lon="6.10751">
        <ele>264.243722</ele>
        <time>2025-04-25T06:45:50.000Z</time>
      </trkpt>
      <trkpt lat="43.39942" lon="6.10751">
        <ele>264.243722</ele>
        <time>2025-04-25T06:45:50.000Z</time>
      </trkpt>
      <trkpt lat="43.39941" lon="6.10756">
        <ele>264.192422</ele>
        <time>2025-04-25T06:45:51.000Z</time>
      </trkpt>
      <trkpt lat="43.3994" lon="6.10761">
        <ele>264.141557</ele>
        <time>2025-04-25T06:45:52.000Z</time>
      </trkpt>
      <trkpt lat="43.39938" lon="6.10767">
        <ele>264.075516</ele>
        <time>2025-04-25T06:45:53.000Z</time>
      </trkpt>
      <trkpt lat="43.39937" lon="6.10774">
        <ele>264.009887</ele>
        <time>2025-04-25T06:45:54.000Z</time>
      </trkpt>
      <trkpt lat="43.39937" lon="6.10774">
        <ele>264.009887</ele>
        <time>2025-04-25T06:45:54.000Z</time>
      </trkpt>
      <trkpt lat="43.39937" lon="6.1078">
        <ele>263.941947</ele>
        <time>2025-04-25T06:45:55.000Z</time>
      </trkpt>
      <trkpt lat="43.39937" lon="6.10786">
        <ele>263.879289</ele>
        <time>2025-04-25T06:45:56.000Z</time>
      </trkpt>
      <trkpt lat="43.39937" lon="6.10794">
        <ele>263.805305</ele>
        <time>2025-04-25T06:45:57.000Z</time>
      </trkpt>
      <trkpt lat="43.39937" lon="6.10794">
        <ele>263.805305</ele>
        <time>2025-04-25T06:45:57.000Z</time>
      </trkpt>
      <trkpt lat="43.39938" lon="6.108">
        <ele>263.744649</ele>
        <time>2025-04-25T06:45:58.000Z</time>
      </trkpt>
      <trkpt lat="43.39939" lon="6.10806">
        <ele>263.675231</ele>
        <time>2025-04-25T06:45:59.000Z</time>
      </trkpt>
      <trkpt lat="43.3994" lon="6.10815">
        <ele>263.590696</ele>
        <time>2025-04-25T06:46:00.000Z</time>
      </trkpt>
      <trkpt lat="43.3994" lon="6.10813">
        <ele>263.579579</ele>
        <time>2025-04-25T06:46:01.000Z</time>
      </trkpt>
      <trkpt lat="43.39944" lon="6.10833">
        <ele>263.375544</ele>
        <time>2025-04-25T06:46:02.000Z</time>
      </trkpt>
      <trkpt lat="43.39947" lon="6.10844">
        <ele>263.329841</ele>
        <time>2025-04-25T06:46:04.000Z</time>
      </trkpt>
      <trkpt lat="43.3995" lon="6.10853">
        <ele>263.456658</ele>
        <time>2025-04-25T06:46:04.000Z</time>
      </trkpt>
      <trkpt lat="43.3995" lon="6.10853">
        <ele>263.456658</ele>
        <time>2025-04-25T06:46:04.000Z</time>
      </trkpt>
      <trkpt lat="43.39952" lon="6.10861">
        <ele>263.574694</ele>
        <time>2025-04-25T06:46:05.000Z</time>
      </trkpt>
      <trkpt lat="43.39954" lon="6.10869">
        <ele>263.695285</ele>
        <time>2025-04-25T06:46:06.000Z</time>
      </trkpt>
      <trkpt lat="43.39954" lon="6.10869">
        <ele>263.695285</ele>
        <time>2025-04-25T06:46:06.000Z</time>
      </trkpt>
      <trkpt lat="43.39956" lon="6.10877">
        <ele>263.818606</ele>
        <time>2025-04-25T06:46:07.000Z</time>
      </trkpt>
      <trkpt lat="43.39957" lon="6.10885">
        <ele>263.923709</ele>
        <time>2025-04-25T06:46:08.000Z</time>
      </trkpt>
      <trkpt lat="43.39957" lon="6.10893">
        <ele>264.033724</ele>
        <time>2025-04-25T06:46:09.000Z</time>
      </trkpt>
      <trkpt lat="43.39958" lon="6.10902">
        <ele>264.150584</ele>
        <time>2025-04-25T06:46:10.000Z</time>
      </trkpt>
      <trkpt lat="43.39958" lon="6.10909">
        <ele>264.249652</ele>
        <time>2025-04-25T06:46:11.000Z</time>
      </trkpt>
      <trkpt lat="43.39959" lon="6.10924">
        <ele>264.455868</ele>
        <time>2025-04-25T06:46:12.000Z</time>
      </trkpt>
      <trkpt lat="43.3996" lon="6.10932">
        <ele>264.565299</ele>
        <time>2025-04-25T06:46:14.000Z</time>
      </trkpt>
      <trkpt lat="43.3996" lon="6.10932">
        <ele>264.565299</ele>
        <time>2025-04-25T06:46:14.000Z</time>
      </trkpt>
      <trkpt lat="43.39961" lon="6.10945">
        <ele>264.754616</ele>
        <time>2025-04-25T06:46:15.000Z</time>
      </trkpt>
      <trkpt lat="43.39961" lon="6.10945">
        <ele>264.754616</ele>
        <time>2025-04-25T06:46:15.000Z</time>
      </trkpt>
      <trkpt lat="43.39962" lon="6.10952">
        <ele>264.852917</ele>
        <time>2025-04-25T06:46:17.000Z</time>
      </trkpt>
      <trkpt lat="43.39962" lon="6.10952">
        <ele>264.852917</ele>
        <time>2025-04-25T06:46:17.000Z</time>
      </trkpt>
      <trkpt lat="43.39962" lon="6.10959">
        <ele>264.939308</ele>
        <time>2025-04-25T06:46:18.000Z</time>
      </trkpt>
      <trkpt lat="43.39962" lon="6.10959">
        <ele>264.939308</ele>
        <time>2025-04-25T06:46:18.000Z</time>
      </trkpt>
      <trkpt lat="43.39963" lon="6.10966">
        <ele>265.037009</ele>
        <time>2025-04-25T06:46:19.000Z</time>
      </trkpt>
      <trkpt lat="43.39963" lon="6.10966">
        <ele>265.037009</ele>
        <time>2025-04-25T06:46:19.000Z</time>
      </trkpt>
      <trkpt lat="43.39964" lon="6.10973">
        <ele>265.142111</ele>
        <time>2025-04-25T06:46:20.000Z</time>
      </trkpt>
      <trkpt lat="43.39964" lon="6.10973">
        <ele>265.142111</ele>
        <time>2025-04-25T06:46:20.000Z</time>
      </trkpt>
      <trkpt lat="43.39964" lon="6.10981">
        <ele>265.251542</ele>
        <time>2025-04-25T06:46:21.000Z</time>
      </trkpt>
      <trkpt lat="43.39964" lon="6.10981">
        <ele>265.251542</ele>
        <time>2025-04-25T06:46:21.000Z</time>
      </trkpt>
      <trkpt lat="43.39965" lon="6.10989">
        <ele>265.352827</ele>
        <time>2025-04-25T06:46:22.000Z</time>
      </trkpt>
      <trkpt lat="43.39966" lon="6.10996">
        <ele>265.456568</ele>
        <time>2025-04-25T06:46:24.000Z</time>
      </trkpt>
      <trkpt lat="43.39966" lon="6.10996">
        <ele>265.456568</ele>
        <time>2025-04-25T06:46:24.000Z</time>
      </trkpt>
      <trkpt lat="43.39966" lon="6.1101">
        <ele>265.644676</ele>
        <time>2025-04-25T06:46:24.000Z</time>
      </trkpt>
      <trkpt lat="43.39966" lon="6.1101">
        <ele>265.644676</ele>
        <time>2025-04-25T06:46:24.000Z</time>
      </trkpt>
      <trkpt lat="43.39966" lon="6.11017">
        <ele>265.74648</ele>
        <time>2025-04-25T06:46:26.000Z</time>
      </trkpt>
      <trkpt lat="43.39966" lon="6.11023">
        <ele>265.830169</ele>
        <time>2025-04-25T06:46:27.000Z</time>
      </trkpt>
      <trkpt lat="43.39966" lon="6.11023">
        <ele>265.830169</ele>
        <time>2025-04-25T06:46:27.000Z</time>
      </trkpt>
      <trkpt lat="43.39966" lon="6.1103">
        <ele>265.922399</ele>
        <time>2025-04-25T06:46:29.000Z</time>
      </trkpt>
      <trkpt lat="43.39966" lon="6.1103">
        <ele>265.922399</ele>
        <time>2025-04-25T06:46:29.000Z</time>
      </trkpt>
      <trkpt lat="43.39966" lon="6.11036">
        <ele>266.004715</ele>
        <time>2025-04-25T06:46:30.000Z</time>
      </trkpt>
      <trkpt lat="43.39966" lon="6.11036">
        <ele>266.004715</ele>
        <time>2025-04-25T06:46:30.000Z</time>
      </trkpt>
      <trkpt lat="43.39967" lon="6.11042">
        <ele>266.092844</ele>
        <time>2025-04-25T06:46:30.000Z</time>
      </trkpt>
      <trkpt lat="43.39967" lon="6.11042">
        <ele>266.092844</ele>
        <time>2025-04-25T06:46:30.000Z</time>
      </trkpt>
      <trkpt lat="43.39967" lon="6.11055">
        <ele>266.264845</ele>
        <time>2025-04-25T06:46:32.000Z</time>
      </trkpt>
      <trkpt lat="43.39967" lon="6.11055">
        <ele>266.264845</ele>
        <time>2025-04-25T06:46:32.000Z</time>
      </trkpt>
      <trkpt lat="43.39967" lon="6.11067">
        <ele>266.426834</ele>
        <time>2025-04-25T06:46:34.000Z</time>
      </trkpt>
      <trkpt lat="43.39967" lon="6.11067">
        <ele>266.426834</ele>
        <time>2025-04-25T06:46:34.000Z</time>
      </trkpt>
      <trkpt lat="43.39966" lon="6.11073">
        <ele>266.511875</ele>
        <time>2025-04-25T06:46:34.000Z</time>
      </trkpt>
      <trkpt lat="43.39966" lon="6.11073">
        <ele>266.511875</ele>
        <time>2025-04-25T06:46:34.000Z</time>
      </trkpt>
      <trkpt lat="43.39966" lon="6.11079">
        <ele>266.604105</ele>
        <time>2025-04-25T06:46:36.000Z</time>
      </trkpt>
      <trkpt lat="43.39966" lon="6.11079">
        <ele>266.604105</ele>
        <time>2025-04-25T06:46:36.000Z</time>
      </trkpt>
      <trkpt lat="43.39965" lon="6.11086">
        <ele>266.687366</ele>
        <time>2025-04-25T06:46:36.000Z</time>
      </trkpt>
      <trkpt lat="43.39965" lon="6.11086">
        <ele>266.687366</ele>
        <time>2025-04-25T06:46:36.000Z</time>
      </trkpt>
      <trkpt lat="43.39965" lon="6.11092">
        <ele>266.7294</ele>
        <time>2025-04-25T06:46:37.000Z</time>
      </trkpt>
      <trkpt lat="43.39965" lon="6.11092">
        <ele>266.7294</ele>
        <time>2025-04-25T06:46:37.000Z</time>
      </trkpt>
      <trkpt lat="43.39965" lon="6.11099">
        <ele>266.779868</ele>
        <time>2025-04-25T06:46:39.000Z</time>
      </trkpt>
      <trkpt lat="43.39965" lon="6.11099">
        <ele>266.779868</ele>
        <time>2025-04-25T06:46:39.000Z</time>
      </trkpt>
      <trkpt lat="43.39965" lon="6.11105">
        <ele>266.8239</ele>
        <time>2025-04-25T06:46:40.000Z</time>
      </trkpt>
      <trkpt lat="43.39965" lon="6.11112">
        <ele>266.870727</ele>
        <time>2025-04-25T06:46:40.000Z</time>
      </trkpt>
      <trkpt lat="43.39964" lon="6.11119">
        <ele>266.919105</ele>
        <time>2025-04-25T06:46:41.000Z</time>
      </trkpt>
      <trkpt lat="43.39964" lon="6.11119">
        <ele>266.919105</ele>
        <time>2025-04-25T06:46:41.000Z</time>
      </trkpt>
      <trkpt lat="43.39964" lon="6.11125">
        <ele>266.964001</ele>
        <time>2025-04-25T06:46:43.000Z</time>
      </trkpt>
      <trkpt lat="43.39964" lon="6.11133">
        <ele>267.015864</ele>
        <time>2025-04-25T06:46:44.000Z</time>
      </trkpt>
      <trkpt lat="43.39963" lon="6.1114">
        <ele>267.063545</ele>
        <time>2025-04-25T06:46:45.000Z</time>
      </trkpt>
      <trkpt lat="43.39963" lon="6.11146">
        <ele>267.11177</ele>
        <time>2025-04-25T06:46:46.000Z</time>
      </trkpt>
      <trkpt lat="43.39962" lon="6.11153">
        <ele>267.155623</ele>
        <time>2025-04-25T06:46:47.000Z</time>
      </trkpt>
      <trkpt lat="43.39961" lon="6.11159">
        <ele>267.203174</ele>
        <time>2025-04-25T06:46:48.000Z</time>
      </trkpt>
      <trkpt lat="43.39961" lon="6.11159">
        <ele>267.203174</ele>
        <time>2025-04-25T06:46:48.000Z</time>
      </trkpt>
      <trkpt lat="43.39961" lon="6.11165">
        <ele>267.242199</ele>
        <time>2025-04-25T06:46:48.000Z</time>
      </trkpt>
      <trkpt lat="43.3996" lon="6.11173">
        <ele>267.300025</ele>
        <time>2025-04-25T06:46:51.000Z</time>
      </trkpt>
      <trkpt lat="43.39959" lon="6.11176">
        <ele>267.321342</ele>
        <time>2025-04-25T06:46:52.000Z</time>
      </trkpt>
      <trkpt lat="43.39959" lon="6.11176">
        <ele>267.321342</ele>
        <time>2025-04-25T06:46:52.000Z</time>
      </trkpt>
      <trkpt lat="43.39959" lon="6.11179">
        <ele>267.341611</ele>
        <time>2025-04-25T06:46:53.000Z</time>
      </trkpt>
      <trkpt lat="43.39959" lon="6.11182">
        <ele>267.363616</ele>
        <time>2025-04-25T06:46:54.000Z</time>
      </trkpt>
      <trkpt lat="43.39959" lon="6.11186">
        <ele>267.389636</ele>
        <time>2025-04-25T06:46:54.000Z</time>
      </trkpt>
      <trkpt lat="43.39958" lon="6.1119">
        <ele>267.421322</ele>
        <time>2025-04-25T06:46:56.000Z</time>
      </trkpt>
      <trkpt lat="43.39959" lon="6.11203">
        <ele>267.511407</ele>
        <time>2025-04-25T06:46:58.000Z</time>
      </trkpt>
      <trkpt lat="43.39959" lon="6.11203">
        <ele>267.511407</ele>
        <time>2025-04-25T06:46:58.000Z</time>
      </trkpt>
      <trkpt lat="43.39959" lon="6.11207">
        <ele>267.537266</ele>
        <time>2025-04-25T06:46:59.000Z</time>
      </trkpt>
      <trkpt lat="43.39959" lon="6.11226">
        <ele>267.67006</ele>
        <time>2025-04-25T06:47:01.000Z</time>
      </trkpt>
      <trkpt lat="43.39959" lon="6.11233">
        <ele>267.721081</ele>
        <time>2025-04-25T06:47:02.000Z</time>
      </trkpt>
      <trkpt lat="43.39959" lon="6.1124">
        <ele>267.769459</ele>
        <time>2025-04-25T06:47:03.000Z</time>
      </trkpt>
      <trkpt lat="43.39958" lon="6.11245">
        <ele>267.806421</ele>
        <time>2025-04-25T06:47:04.000Z</time>
      </trkpt>
      <trkpt lat="43.39957" lon="6.1125">
        <ele>267.840581</ele>
        <time>2025-04-25T06:47:05.000Z</time>
      </trkpt>
      <trkpt lat="43.39956" lon="6.11256">
        <ele>267.887907</ele>
        <time>2025-04-25T06:47:07.000Z</time>
      </trkpt>
      <trkpt lat="43.39955" lon="6.11264">
        <ele>267.939505</ele>
        <time>2025-04-25T06:47:09.000Z</time>
      </trkpt>
      <trkpt lat="43.39955" lon="6.11267">
        <ele>267.963967</ele>
        <time>2025-04-25T06:47:10.000Z</time>
      </trkpt>
      <trkpt lat="43.39955" lon="6.11272">
        <ele>267.996246</ele>
        <time>2025-04-25T06:47:11.000Z</time>
      </trkpt>
      <trkpt lat="43.39955" lon="6.11272">
        <ele>267.996246</ele>
        <time>2025-04-25T06:47:11.000Z</time>
      </trkpt>
      <trkpt lat="43.39955" lon="6.11277">
        <ele>268.034098</ele>
        <time>2025-04-25T06:47:12.000Z</time>
      </trkpt>
      <trkpt lat="43.39954" lon="6.11282">
        <ele>268.071747</ele>
        <time>2025-04-25T06:47:13.000Z</time>
      </trkpt>
      <trkpt lat="43.39954" lon="6.1129">
        <ele>268.123467</ele>
        <time>2025-04-25T06:47:14.000Z</time>
      </trkpt>
      <trkpt lat="43.39954" lon="6.11297">
        <ele>268.173683</ele>
        <time>2025-04-25T06:47:15.000Z</time>
      </trkpt>
      <trkpt lat="43.39953" lon="6.11304">
        <ele>268.224849</ele>
        <time>2025-04-25T06:47:17.000Z</time>
      </trkpt>
      <trkpt lat="43.39953" lon="6.11304">
        <ele>268.224849</ele>
        <time>2025-04-25T06:47:17.000Z</time>
      </trkpt>
      <trkpt lat="43.39953" lon="6.11316">
        <ele>268.307595</ele>
        <time>2025-04-25T06:47:18.000Z</time>
      </trkpt>
      <trkpt lat="43.39951" lon="6.11334">
        <ele>268.450297</ele>
        <time>2025-04-25T06:47:20.000Z</time>
      </trkpt>
      <trkpt lat="43.39951" lon="6.11334">
        <ele>268.450297</ele>
        <time>2025-04-25T06:47:20.000Z</time>
      </trkpt>
      <trkpt lat="43.39951" lon="6.11344">
        <ele>268.566172</ele>
        <time>2025-04-25T06:47:21.000Z</time>
      </trkpt>
      <trkpt lat="43.39951" lon="6.11344">
        <ele>268.566172</ele>
        <time>2025-04-25T06:47:21.000Z</time>
      </trkpt>
      <trkpt lat="43.39951" lon="6.11362">
        <ele>268.768646</ele>
        <time>2025-04-25T06:47:23.000Z</time>
      </trkpt>
      <trkpt lat="43.39951" lon="6.11362">
        <ele>268.768646</ele>
        <time>2025-04-25T06:47:23.000Z</time>
      </trkpt>
      <trkpt lat="43.39951" lon="6.11369">
        <ele>268.855421</ele>
        <time>2025-04-25T06:47:24.000Z</time>
      </trkpt>
      <trkpt lat="43.39951" lon="6.11369">
        <ele>268.855421</ele>
        <time>2025-04-25T06:47:24.000Z</time>
      </trkpt>
      <trkpt lat="43.39951" lon="6.1137">
        <ele>268.870462</ele>
        <time>2025-04-25T06:47:25.000Z</time>
      </trkpt>
      <trkpt lat="43.3995" lon="6.11393">
        <ele>269.126757</ele>
        <time>2025-04-25T06:47:27.000Z</time>
      </trkpt>
      <trkpt lat="43.3995" lon="6.11393">
        <ele>269.126757</ele>
        <time>2025-04-25T06:47:27.000Z</time>
      </trkpt>
      <trkpt lat="43.39949" lon="6.11401">
        <ele>269.228218</ele>
        <time>2025-04-25T06:47:28.000Z</time>
      </trkpt>
      <trkpt lat="43.39948" lon="6.11408">
        <ele>269.306534</ele>
        <time>2025-04-25T06:47:29.000Z</time>
      </trkpt>
      <trkpt lat="43.39948" lon="6.11408">
        <ele>269.306534</ele>
        <time>2025-04-25T06:47:29.000Z</time>
      </trkpt>
      <trkpt lat="43.39948" lon="6.11415">
        <ele>269.385093</ele>
        <time>2025-04-25T06:47:30.000Z</time>
      </trkpt>
      <trkpt lat="43.39948" lon="6.11415">
        <ele>269.385093</ele>
        <time>2025-04-25T06:47:30.000Z</time>
      </trkpt>
      <trkpt lat="43.39947" lon="6.11421">
        <ele>269.46251</ele>
        <time>2025-04-25T06:47:31.000Z</time>
      </trkpt>
      <trkpt lat="43.39946" lon="6.11428">
        <ele>269.543117</ele>
        <time>2025-04-25T06:47:32.000Z</time>
      </trkpt>
      <trkpt lat="43.39946" lon="6.11428">
        <ele>269.543117</ele>
        <time>2025-04-25T06:47:32.000Z</time>
      </trkpt>
      <trkpt lat="43.39945" lon="6.11435">
        <ele>269.621675</ele>
        <time>2025-04-25T06:47:33.000Z</time>
      </trkpt>
      <trkpt lat="43.39945" lon="6.11435">
        <ele>269.621675</ele>
        <time>2025-04-25T06:47:33.000Z</time>
      </trkpt>
      <trkpt lat="43.39945" lon="6.11441">
        <ele>269.697702</ele>
        <time>2025-04-25T06:47:34.000Z</time>
      </trkpt>
      <trkpt lat="43.39943" lon="6.11449">
        <ele>269.784297</ele>
        <time>2025-04-25T06:47:35.000Z</time>
      </trkpt>
      <trkpt lat="43.39943" lon="6.11449">
        <ele>269.784297</ele>
        <time>2025-04-25T06:47:35.000Z</time>
      </trkpt>
      <trkpt lat="43.39943" lon="6.11456">
        <ele>269.867426</ele>
        <time>2025-04-25T06:47:36.000Z</time>
      </trkpt>
      <trkpt lat="43.39942" lon="6.11462">
        <ele>269.945091</ele>
        <time>2025-04-25T06:47:37.000Z</time>
      </trkpt>
      <trkpt lat="43.39942" lon="6.11471">
        <ele>270.039965</ele>
        <time>2025-04-25T06:47:38.000Z</time>
      </trkpt>
      <trkpt lat="43.39942" lon="6.11471">
        <ele>270.039965</ele>
        <time>2025-04-25T06:47:38.000Z</time>
      </trkpt>
      <trkpt lat="43.39942" lon="6.11474">
        <ele>270.073518</ele>
        <time>2025-04-25T06:47:39.000Z</time>
      </trkpt>
      <trkpt lat="43.39942" lon="6.11485">
        <ele>270.202102</ele>
        <time>2025-04-25T06:47:40.000Z</time>
      </trkpt>
      <trkpt lat="43.39942" lon="6.11485">
        <ele>270.202102</ele>
        <time>2025-04-25T06:47:40.000Z</time>
      </trkpt>
      <trkpt lat="43.39941" lon="6.11491">
        <ele>270.272966</ele>
        <time>2025-04-25T06:47:41.000Z</time>
      </trkpt>
      <trkpt lat="43.3994" lon="6.11496">
        <ele>270.331199</ele>
        <time>2025-04-25T06:47:42.000Z</time>
      </trkpt>
      <trkpt lat="43.3994" lon="6.115">
        <ele>270.385924</ele>
        <time>2025-04-25T06:47:43.000Z</time>
      </trkpt>
      <trkpt lat="43.39939" lon="6.11504">
        <ele>270.431494</ele>
        <time>2025-04-25T06:47:44.000Z</time>
      </trkpt>
      <trkpt lat="43.39939" lon="6.11504">
        <ele>270.431494</ele>
        <time>2025-04-25T06:47:44.000Z</time>
      </trkpt>
      <trkpt lat="43.3994" lon="6.11508">
        <ele>270.474774</ele>
        <time>2025-04-25T06:47:45.000Z</time>
      </trkpt>
      <trkpt lat="43.3994" lon="6.11511">
        <ele>270.510641</ele>
        <time>2025-04-25T06:47:46.000Z</time>
      </trkpt>
      <trkpt lat="43.3994" lon="6.11514">
        <ele>270.545351</ele>
        <time>2025-04-25T06:47:46.000Z</time>
      </trkpt>
      <trkpt lat="43.3994" lon="6.11514">
        <ele>270.545351</ele>
        <time>2025-04-25T06:47:46.000Z</time>
      </trkpt>
      <trkpt lat="43.3994" lon="6.11518">
        <ele>270.596259</ele>
        <time>2025-04-25T06:47:47.000Z</time>
      </trkpt>
      <trkpt lat="43.3994" lon="6.11523">
        <ele>270.655609</ele>
        <time>2025-04-25T06:47:49.000Z</time>
      </trkpt>
      <trkpt lat="43.3994" lon="6.11528">
        <ele>270.714958</ele>
        <time>2025-04-25T06:47:49.000Z</time>
      </trkpt>
      <trkpt lat="43.3994" lon="6.11528">
        <ele>270.714958</ele>
        <time>2025-04-25T06:47:49.000Z</time>
      </trkpt>
      <trkpt lat="43.3994" lon="6.11534">
        <ele>270.775458</ele>
        <time>2025-04-25T06:47:50.000Z</time>
      </trkpt>
      <trkpt lat="43.39939" lon="6.11539">
        <ele>270.841491</ele>
        <time>2025-04-25T06:47:52.000Z</time>
      </trkpt>
      <trkpt lat="43.39939" lon="6.11539">
        <ele>270.841491</ele>
        <time>2025-04-25T06:47:52.000Z</time>
      </trkpt>
      <trkpt lat="43.39938" lon="6.11547">
        <ele>270.929264</ele>
        <time>2025-04-25T06:47:53.000Z</time>
      </trkpt>
      <trkpt lat="43.39938" lon="6.11547">
        <ele>270.929264</ele>
        <time>2025-04-25T06:47:53.000Z</time>
      </trkpt>
      <trkpt lat="43.39934" lon="6.11562">
        <ele>271.118532</ele>
        <time>2025-04-25T06:47:54.000Z</time>
      </trkpt>
      <trkpt lat="43.39934" lon="6.11562">
        <ele>271.118532</ele>
        <time>2025-04-25T06:47:54.000Z</time>
      </trkpt>
      <trkpt lat="43.39932" lon="6.11567">
        <ele>271.181119</ele>
        <time>2025-04-25T06:47:56.000Z</time>
      </trkpt>
      <trkpt lat="43.39932" lon="6.11567">
        <ele>271.181119</ele>
        <time>2025-04-25T06:47:56.000Z</time>
      </trkpt>
      <trkpt lat="43.3993" lon="6.11573">
        <ele>271.256446</ele>
        <time>2025-04-25T06:47:56.000Z</time>
      </trkpt>
      <trkpt lat="43.39929" lon="6.1158">
        <ele>271.476791</ele>
        <time>2025-04-25T06:47:57.000Z</time>
      </trkpt>
      <trkpt lat="43.39929" lon="6.1158">
        <ele>271.476791</ele>
        <time>2025-04-25T06:47:57.000Z</time>
      </trkpt>
      <trkpt lat="43.39928" lon="6.11587">
        <ele>271.776654</ele>
        <time>2025-04-25T06:47:59.000Z</time>
      </trkpt>
      <trkpt lat="43.39928" lon="6.11587">
        <ele>271.776654</ele>
        <time>2025-04-25T06:47:59.000Z</time>
      </trkpt>
      <trkpt lat="43.39927" lon="6.11595">
        <ele>272.08147</ele>
        <time>2025-04-25T06:48:00.000Z</time>
      </trkpt>
      <trkpt lat="43.39926" lon="6.11603">
        <ele>272.408641</ele>
        <time>2025-04-25T06:48:01.000Z</time>
      </trkpt>
      <trkpt lat="43.39926" lon="6.11603">
        <ele>272.408641</ele>
        <time>2025-04-25T06:48:01.000Z</time>
      </trkpt>
      <trkpt lat="43.39926" lon="6.11611">
        <ele>272.722797</ele>
        <time>2025-04-25T06:48:02.000Z</time>
      </trkpt>
      <trkpt lat="43.39926" lon="6.11611">
        <ele>272.722797</ele>
        <time>2025-04-25T06:48:02.000Z</time>
      </trkpt>
      <trkpt lat="43.39927" lon="6.11626">
        <ele>273.283081</ele>
        <time>2025-04-25T06:48:04.000Z</time>
      </trkpt>
      <trkpt lat="43.39927" lon="6.11626">
        <ele>273.283081</ele>
        <time>2025-04-25T06:48:04.000Z</time>
      </trkpt>
      <trkpt lat="43.39927" lon="6.1163">
        <ele>273.433993</ele>
        <time>2025-04-25T06:48:05.000Z</time>
      </trkpt>
      <trkpt lat="43.39927" lon="6.1163">
        <ele>273.433993</ele>
        <time>2025-04-25T06:48:05.000Z</time>
      </trkpt>
      <trkpt lat="43.39927" lon="6.11635">
        <ele>273.628639</ele>
        <time>2025-04-25T06:48:06.000Z</time>
      </trkpt>
      <trkpt lat="43.39926" lon="6.11641">
        <ele>273.884527</ele>
        <time>2025-04-25T06:48:07.000Z</time>
      </trkpt>
      <trkpt lat="43.39926" lon="6.11641">
        <ele>273.884527</ele>
        <time>2025-04-25T06:48:07.000Z</time>
      </trkpt>
      <trkpt lat="43.39926" lon="6.11648">
        <ele>274.133092</ele>
        <time>2025-04-25T06:48:08.000Z</time>
      </trkpt>
      <trkpt lat="43.39926" lon="6.11648">
        <ele>274.133092</ele>
        <time>2025-04-25T06:48:08.000Z</time>
      </trkpt>
      <trkpt lat="43.39926" lon="6.11653">
        <ele>274.349786</ele>
        <time>2025-04-25T06:48:09.000Z</time>
      </trkpt>
      <trkpt lat="43.39926" lon="6.11653">
        <ele>274.349786</ele>
        <time>2025-04-25T06:48:09.000Z</time>
      </trkpt>
      <trkpt lat="43.39925" lon="6.1166">
        <ele>274.616341</ele>
        <time>2025-04-25T06:48:10.000Z</time>
      </trkpt>
      <trkpt lat="43.39925" lon="6.1166">
        <ele>274.616341</ele>
        <time>2025-04-25T06:48:10.000Z</time>
      </trkpt>
      <trkpt lat="43.39925" lon="6.11666">
        <ele>274.83408</ele>
        <time>2025-04-25T06:48:11.000Z</time>
      </trkpt>
      <trkpt lat="43.39925" lon="6.11666">
        <ele>274.83408</ele>
        <time>2025-04-25T06:48:11.000Z</time>
      </trkpt>
      <trkpt lat="43.39924" lon="6.11672">
        <ele>275.067227</ele>
        <time>2025-04-25T06:48:12.000Z</time>
      </trkpt>
      <trkpt lat="43.39924" lon="6.11672">
        <ele>275.067227</ele>
        <time>2025-04-25T06:48:12.000Z</time>
      </trkpt>
      <trkpt lat="43.39923" lon="6.11678">
        <ele>275.29918</ele>
        <time>2025-04-25T06:48:13.000Z</time>
      </trkpt>
      <trkpt lat="43.39923" lon="6.11678">
        <ele>275.29918</ele>
        <time>2025-04-25T06:48:13.000Z</time>
      </trkpt>
      <trkpt lat="43.39922" lon="6.11683">
        <ele>275.512082</ele>
        <time>2025-04-25T06:48:14.000Z</time>
      </trkpt>
      <trkpt lat="43.39922" lon="6.11683">
        <ele>275.512082</ele>
        <time>2025-04-25T06:48:14.000Z</time>
      </trkpt>
      <trkpt lat="43.3992" lon="6.11688">
        <ele>275.744928</ele>
        <time>2025-04-25T06:48:15.000Z</time>
      </trkpt>
      <trkpt lat="43.3992" lon="6.11688">
        <ele>275.744928</ele>
        <time>2025-04-25T06:48:15.000Z</time>
      </trkpt>
      <trkpt lat="43.39919" lon="6.11694">
        <ele>275.96862</ele>
        <time>2025-04-25T06:48:16.000Z</time>
      </trkpt>
      <trkpt lat="43.39919" lon="6.11694">
        <ele>275.96862</ele>
        <time>2025-04-25T06:48:16.000Z</time>
      </trkpt>
      <trkpt lat="43.39918" lon="6.117">
        <ele>276.205699</ele>
        <time>2025-04-25T06:48:17.000Z</time>
      </trkpt>
      <trkpt lat="43.39918" lon="6.117">
        <ele>276.205699</ele>
        <time>2025-04-25T06:48:17.000Z</time>
      </trkpt>
      <trkpt lat="43.39917" lon="6.11706">
        <ele>276.45123</ele>
        <time>2025-04-25T06:48:18.000Z</time>
      </trkpt>
      <trkpt lat="43.39917" lon="6.11706">
        <ele>276.45123</ele>
        <time>2025-04-25T06:48:18.000Z</time>
      </trkpt>
      <trkpt lat="43.39915" lon="6.11712">
        <ele>276.700424</ele>
        <time>2025-04-25T06:48:19.000Z</time>
      </trkpt>
      <trkpt lat="43.39915" lon="6.11712">
        <ele>276.700424</ele>
        <time>2025-04-25T06:48:19.000Z</time>
      </trkpt>
      <trkpt lat="43.39913" lon="6.11719">
        <ele>276.983669</ele>
        <time>2025-04-25T06:48:20.000Z</time>
      </trkpt>
      <trkpt lat="43.39913" lon="6.11719">
        <ele>276.983669</ele>
        <time>2025-04-25T06:48:20.000Z</time>
      </trkpt>
      <trkpt lat="43.39911" lon="6.11725">
        <ele>277.25478</ele>
        <time>2025-04-25T06:48:21.000Z</time>
      </trkpt>
      <trkpt lat="43.39911" lon="6.11725">
        <ele>277.25478</ele>
        <time>2025-04-25T06:48:21.000Z</time>
      </trkpt>
      <trkpt lat="43.39909" lon="6.11731">
        <ele>277.493007</ele>
        <time>2025-04-25T06:48:22.000Z</time>
      </trkpt>
      <trkpt lat="43.39909" lon="6.11731">
        <ele>277.493007</ele>
        <time>2025-04-25T06:48:22.000Z</time>
      </trkpt>
      <trkpt lat="43.39909" lon="6.11737">
        <ele>277.729057</ele>
        <time>2025-04-25T06:48:23.000Z</time>
      </trkpt>
      <trkpt lat="43.39909" lon="6.11737">
        <ele>277.729057</ele>
        <time>2025-04-25T06:48:23.000Z</time>
      </trkpt>
      <trkpt lat="43.39908" lon="6.11743">
        <ele>277.961301</ele>
        <time>2025-04-25T06:48:24.000Z</time>
      </trkpt>
      <trkpt lat="43.39908" lon="6.11743">
        <ele>277.961301</ele>
        <time>2025-04-25T06:48:24.000Z</time>
      </trkpt>
      <trkpt lat="43.39908" lon="6.11749">
        <ele>278.217191</ele>
        <time>2025-04-25T06:48:25.000Z</time>
      </trkpt>
      <trkpt lat="43.39908" lon="6.11749">
        <ele>278.217191</ele>
        <time>2025-04-25T06:48:25.000Z</time>
      </trkpt>
      <trkpt lat="43.39907" lon="6.11757">
        <ele>278.496611</ele>
        <time>2025-04-25T06:48:26.000Z</time>
      </trkpt>
      <trkpt lat="43.39907" lon="6.11757">
        <ele>278.496611</ele>
        <time>2025-04-25T06:48:26.000Z</time>
      </trkpt>
      <trkpt lat="43.39906" lon="6.11762">
        <ele>278.725053</ele>
        <time>2025-04-25T06:48:27.000Z</time>
      </trkpt>
      <trkpt lat="43.39906" lon="6.11762">
        <ele>278.725053</ele>
        <time>2025-04-25T06:48:27.000Z</time>
      </trkpt>
      <trkpt lat="43.39906" lon="6.11768">
        <ele>278.957298</ele>
        <time>2025-04-25T06:48:28.000Z</time>
      </trkpt>
      <trkpt lat="43.39906" lon="6.11768">
        <ele>278.957298</ele>
        <time>2025-04-25T06:48:28.000Z</time>
      </trkpt>
      <trkpt lat="43.39905" lon="6.11774">
        <ele>279.186159</ele>
        <time>2025-04-25T06:48:29.000Z</time>
      </trkpt>
      <trkpt lat="43.39905" lon="6.11774">
        <ele>279.186159</ele>
        <time>2025-04-25T06:48:29.000Z</time>
      </trkpt>
      <trkpt lat="43.39904" lon="6.1178">
        <ele>279.429825</ele>
        <time>2025-04-25T06:48:30.000Z</time>
      </trkpt>
      <trkpt lat="43.39904" lon="6.1178">
        <ele>279.429825</ele>
        <time>2025-04-25T06:48:30.000Z</time>
      </trkpt>
      <trkpt lat="43.39904" lon="6.11786">
        <ele>279.665875</ele>
        <time>2025-04-25T06:48:31.000Z</time>
      </trkpt>
      <trkpt lat="43.39904" lon="6.11786">
        <ele>279.665875</ele>
        <time>2025-04-25T06:48:31.000Z</time>
      </trkpt>
      <trkpt lat="43.39903" lon="6.11791">
        <ele>279.851525</ele>
        <time>2025-04-25T06:48:32.000Z</time>
      </trkpt>
      <trkpt lat="43.39903" lon="6.11791">
        <ele>279.851525</ele>
        <time>2025-04-25T06:48:32.000Z</time>
      </trkpt>
      <trkpt lat="43.39902" lon="6.11796">
        <ele>280.051614</ele>
        <time>2025-04-25T06:48:33.000Z</time>
      </trkpt>
      <trkpt lat="43.39902" lon="6.11796">
        <ele>280.051614</ele>
        <time>2025-04-25T06:48:33.000Z</time>
      </trkpt>
      <trkpt lat="43.39901" lon="6.11801">
        <ele>280.264903</ele>
        <time>2025-04-25T06:48:34.000Z</time>
      </trkpt>
      <trkpt lat="43.39901" lon="6.11801">
        <ele>280.264903</ele>
        <time>2025-04-25T06:48:34.000Z</time>
      </trkpt>
      <trkpt lat="43.39899" lon="6.11807">
        <ele>280.492227</ele>
        <time>2025-04-25T06:48:35.000Z</time>
      </trkpt>
      <trkpt lat="43.39899" lon="6.11807">
        <ele>280.492227</ele>
        <time>2025-04-25T06:48:35.000Z</time>
      </trkpt>
      <trkpt lat="43.39898" lon="6.11812">
        <ele>280.721477</ele>
        <time>2025-04-25T06:48:36.000Z</time>
      </trkpt>
      <trkpt lat="43.39898" lon="6.11812">
        <ele>280.721477</ele>
        <time>2025-04-25T06:48:36.000Z</time>
      </trkpt>
      <trkpt lat="43.39896" lon="6.11819">
        <ele>281.168732</ele>
        <time>2025-04-25T06:48:37.000Z</time>
      </trkpt>
      <trkpt lat="43.39896" lon="6.11819">
        <ele>281.168732</ele>
        <time>2025-04-25T06:48:37.000Z</time>
      </trkpt>
      <trkpt lat="43.39895" lon="6.11824">
        <ele>281.759371</ele>
        <time>2025-04-25T06:48:38.000Z</time>
      </trkpt>
      <trkpt lat="43.39895" lon="6.11824">
        <ele>281.759371</ele>
        <time>2025-04-25T06:48:38.000Z</time>
      </trkpt>
      <trkpt lat="43.39893" lon="6.11829">
        <ele>282.31776</ele>
        <time>2025-04-25T06:48:38.000Z</time>
      </trkpt>
      <trkpt lat="43.39893" lon="6.11829">
        <ele>282.31776</ele>
        <time>2025-04-25T06:48:38.000Z</time>
      </trkpt>
      <trkpt lat="43.39891" lon="6.11833">
        <ele>282.790685</ele>
        <time>2025-04-25T06:48:40.000Z</time>
      </trkpt>
      <trkpt lat="43.39891" lon="6.11833">
        <ele>282.790685</ele>
        <time>2025-04-25T06:48:40.000Z</time>
      </trkpt>
      <trkpt lat="43.39888" lon="6.11836">
        <ele>283.27512</ele>
        <time>2025-04-25T06:48:41.000Z</time>
      </trkpt>
      <trkpt lat="43.39888" lon="6.11836">
        <ele>283.27512</ele>
        <time>2025-04-25T06:48:41.000Z</time>
      </trkpt>
      <trkpt lat="43.39885" lon="6.11836">
        <ele>283.644983</ele>
        <time>2025-04-25T06:48:42.000Z</time>
      </trkpt>
      <trkpt lat="43.39885" lon="6.11836">
        <ele>283.644983</ele>
        <time>2025-04-25T06:48:42.000Z</time>
      </trkpt>
      <trkpt lat="43.39881" lon="6.11836">
        <ele>284.162636</ele>
        <time>2025-04-25T06:48:43.000Z</time>
      </trkpt>
      <trkpt lat="43.39881" lon="6.11836">
        <ele>284.162636</ele>
        <time>2025-04-25T06:48:43.000Z</time>
      </trkpt>
      <trkpt lat="43.39878" lon="6.11835">
        <ele>284.630866</ele>
        <time>2025-04-25T06:48:44.000Z</time>
      </trkpt>
      <trkpt lat="43.39878" lon="6.11835">
        <ele>284.630866</ele>
        <time>2025-04-25T06:48:44.000Z</time>
      </trkpt>
      <trkpt lat="43.39874" lon="6.11834">
        <ele>285.219443</ele>
        <time>2025-04-25T06:48:45.000Z</time>
      </trkpt>
      <trkpt lat="43.39874" lon="6.11834">
        <ele>285.219443</ele>
        <time>2025-04-25T06:48:45.000Z</time>
      </trkpt>
      <trkpt lat="43.3987" lon="6.11832">
        <ele>285.712133</ele>
        <time>2025-04-25T06:48:46.000Z</time>
      </trkpt>
      <trkpt lat="43.3987" lon="6.11832">
        <ele>285.712133</ele>
        <time>2025-04-25T06:48:46.000Z</time>
      </trkpt>
      <trkpt lat="43.39867" lon="6.1183">
        <ele>286.232162</ele>
        <time>2025-04-25T06:48:47.000Z</time>
      </trkpt>
      <trkpt lat="43.39867" lon="6.1183">
        <ele>286.232162</ele>
        <time>2025-04-25T06:48:47.000Z</time>
      </trkpt>
      <trkpt lat="43.39863" lon="6.11827">
        <ele>286.823963</ele>
        <time>2025-04-25T06:48:48.000Z</time>
      </trkpt>
      <trkpt lat="43.39863" lon="6.11827">
        <ele>286.823963</ele>
        <time>2025-04-25T06:48:48.000Z</time>
      </trkpt>
      <trkpt lat="43.39859" lon="6.11825">
        <ele>287.323758</ele>
        <time>2025-04-25T06:48:49.000Z</time>
      </trkpt>
      <trkpt lat="43.39859" lon="6.11825">
        <ele>287.323758</ele>
        <time>2025-04-25T06:48:49.000Z</time>
      </trkpt>
      <trkpt lat="43.39856" lon="6.11824">
        <ele>287.864995</ele>
        <time>2025-04-25T06:48:50.000Z</time>
      </trkpt>
      <trkpt lat="43.39856" lon="6.11824">
        <ele>287.864995</ele>
        <time>2025-04-25T06:48:50.000Z</time>
      </trkpt>
      <trkpt lat="43.39852" lon="6.11823">
        <ele>288.391929</ele>
        <time>2025-04-25T06:48:51.000Z</time>
      </trkpt>
      <trkpt lat="43.39852" lon="6.11823">
        <ele>288.391929</ele>
        <time>2025-04-25T06:48:51.000Z</time>
      </trkpt>
      <trkpt lat="43.39848" lon="6.11822">
        <ele>288.965335</ele>
        <time>2025-04-25T06:48:52.000Z</time>
      </trkpt>
      <trkpt lat="43.39848" lon="6.11822">
        <ele>288.965335</ele>
        <time>2025-04-25T06:48:52.000Z</time>
      </trkpt>
      <trkpt lat="43.39843" lon="6.11822">
        <ele>289.537458</ele>
        <time>2025-04-25T06:48:53.000Z</time>
      </trkpt>
      <trkpt lat="43.39843" lon="6.11822">
        <ele>289.537458</ele>
        <time>2025-04-25T06:48:53.000Z</time>
      </trkpt>
      <trkpt lat="43.39839" lon="6.11822">
        <ele>290.163975</ele>
        <time>2025-04-25T06:48:54.000Z</time>
      </trkpt>
      <trkpt lat="43.39839" lon="6.11822">
        <ele>290.163975</ele>
        <time>2025-04-25T06:48:54.000Z</time>
      </trkpt>
      <trkpt lat="43.39835" lon="6.11823">
        <ele>290.632206</ele>
        <time>2025-04-25T06:48:55.000Z</time>
      </trkpt>
      <trkpt lat="43.39835" lon="6.11823">
        <ele>290.632206</ele>
        <time>2025-04-25T06:48:55.000Z</time>
      </trkpt>
      <trkpt lat="43.39832" lon="6.11824">
        <ele>291.169252</ele>
        <time>2025-04-25T06:48:56.000Z</time>
      </trkpt>
      <trkpt lat="43.39832" lon="6.11824">
        <ele>291.169252</ele>
        <time>2025-04-25T06:48:56.000Z</time>
      </trkpt>
      <trkpt lat="43.39829" lon="6.11824">
        <ele>291.476794</ele>
        <time>2025-04-25T06:48:57.000Z</time>
      </trkpt>
      <trkpt lat="43.39829" lon="6.11824">
        <ele>291.476794</ele>
        <time>2025-04-25T06:48:57.000Z</time>
      </trkpt>
      <trkpt lat="43.39825" lon="6.11825">
        <ele>292.055724</ele>
        <time>2025-04-25T06:48:58.000Z</time>
      </trkpt>
      <trkpt lat="43.39825" lon="6.11825">
        <ele>292.055724</ele>
        <time>2025-04-25T06:48:58.000Z</time>
      </trkpt>
      <trkpt lat="43.39822" lon="6.11826">
        <ele>292.480832</ele>
        <time>2025-04-25T06:48:59.000Z</time>
      </trkpt>
      <trkpt lat="43.39822" lon="6.11826">
        <ele>292.480832</ele>
        <time>2025-04-25T06:48:59.000Z</time>
      </trkpt>
      <trkpt lat="43.39819" lon="6.11827">
        <ele>292.897029</ele>
        <time>2025-04-25T06:49:00.000Z</time>
      </trkpt>
      <trkpt lat="43.39819" lon="6.11827">
        <ele>292.897029</ele>
        <time>2025-04-25T06:49:00.000Z</time>
      </trkpt>
      <trkpt lat="43.39817" lon="6.11827">
        <ele>293.173886</ele>
        <time>2025-04-25T06:49:01.000Z</time>
      </trkpt>
      <trkpt lat="43.39817" lon="6.11827">
        <ele>293.173886</ele>
        <time>2025-04-25T06:49:01.000Z</time>
      </trkpt>
      <trkpt lat="43.39814" lon="6.11828">
        <ele>293.590083</ele>
        <time>2025-04-25T06:49:02.000Z</time>
      </trkpt>
      <trkpt lat="43.39814" lon="6.11828">
        <ele>293.590083</ele>
        <time>2025-04-25T06:49:02.000Z</time>
      </trkpt>
      <trkpt lat="43.39812" lon="6.11829">
        <ele>293.90892</ele>
        <time>2025-04-25T06:49:03.000Z</time>
      </trkpt>
      <trkpt lat="43.39812" lon="6.11829">
        <ele>293.90892</ele>
        <time>2025-04-25T06:49:03.000Z</time>
      </trkpt>
      <trkpt lat="43.39809" lon="6.1183">
        <ele>294.237439</ele>
        <time>2025-04-25T06:49:04.000Z</time>
      </trkpt>
      <trkpt lat="43.39809" lon="6.1183">
        <ele>294.237439</ele>
        <time>2025-04-25T06:49:04.000Z</time>
      </trkpt>
      <trkpt lat="43.39806" lon="6.11831">
        <ele>294.718055</ele>
        <time>2025-04-25T06:49:05.000Z</time>
      </trkpt>
      <trkpt lat="43.39806" lon="6.11831">
        <ele>294.718055</ele>
        <time>2025-04-25T06:49:05.000Z</time>
      </trkpt>
      <trkpt lat="43.39803" lon="6.11832">
        <ele>295.104493</ele>
        <time>2025-04-25T06:49:06.000Z</time>
      </trkpt>
      <trkpt lat="43.39803" lon="6.11832">
        <ele>295.104493</ele>
        <time>2025-04-25T06:49:06.000Z</time>
      </trkpt>
      <trkpt lat="43.398" lon="6.11834">
        <ele>295.539221</ele>
        <time>2025-04-25T06:49:07.000Z</time>
      </trkpt>
      <trkpt lat="43.398" lon="6.11834">
        <ele>295.539221</ele>
        <time>2025-04-25T06:49:07.000Z</time>
      </trkpt>
      <trkpt lat="43.39797" lon="6.11835">
        <ele>295.98359</ele>
        <time>2025-04-25T06:49:08.000Z</time>
      </trkpt>
      <trkpt lat="43.39797" lon="6.11835">
        <ele>295.98359</ele>
        <time>2025-04-25T06:49:08.000Z</time>
      </trkpt>
      <trkpt lat="43.39794" lon="6.11836">
        <ele>296.411963</ele>
        <time>2025-04-25T06:49:09.000Z</time>
      </trkpt>
      <trkpt lat="43.39794" lon="6.11836">
        <ele>296.411963</ele>
        <time>2025-04-25T06:49:09.000Z</time>
      </trkpt>
      <trkpt lat="43.39792" lon="6.11836">
        <ele>296.725222</ele>
        <time>2025-04-25T06:49:10.000Z</time>
      </trkpt>
      <trkpt lat="43.39792" lon="6.11836">
        <ele>296.725222</ele>
        <time>2025-04-25T06:49:10.000Z</time>
      </trkpt>
      <trkpt lat="43.3979" lon="6.11835">
        <ele>296.968818</ele>
        <time>2025-04-25T06:49:11.000Z</time>
      </trkpt>
      <trkpt lat="43.3979" lon="6.11835">
        <ele>296.968818</ele>
        <time>2025-04-25T06:49:11.000Z</time>
      </trkpt>
      <trkpt lat="43.39789" lon="6.11833">
        <ele>297.258051</ele>
        <time>2025-04-25T06:49:12.000Z</time>
      </trkpt>
      <trkpt lat="43.39789" lon="6.11833">
        <ele>297.258051</ele>
        <time>2025-04-25T06:49:12.000Z</time>
      </trkpt>
      <trkpt lat="43.39789" lon="6.1183">
        <ele>297.569634</ele>
        <time>2025-04-25T06:49:13.000Z</time>
      </trkpt>
      <trkpt lat="43.39789" lon="6.1183">
        <ele>297.569634</ele>
        <time>2025-04-25T06:49:13.000Z</time>
      </trkpt>
      <trkpt lat="43.39789" lon="6.11826">
        <ele>297.886315</ele>
        <time>2025-04-25T06:49:13.000Z</time>
      </trkpt>
      <trkpt lat="43.39789" lon="6.11826">
        <ele>297.886315</ele>
        <time>2025-04-25T06:49:13.000Z</time>
      </trkpt>
      <trkpt lat="43.39789" lon="6.11823">
        <ele>298.24258</ele>
        <time>2025-04-25T06:49:15.000Z</time>
      </trkpt>
      <trkpt lat="43.39789" lon="6.11823">
        <ele>298.24258</ele>
        <time>2025-04-25T06:49:15.000Z</time>
      </trkpt>
      <trkpt lat="43.39789" lon="6.11819">
        <ele>298.63843</ele>
        <time>2025-04-25T06:49:15.000Z</time>
      </trkpt>
      <trkpt lat="43.39789" lon="6.11819">
        <ele>298.63843</ele>
        <time>2025-04-25T06:49:15.000Z</time>
      </trkpt>
      <trkpt lat="43.39789" lon="6.11815">
        <ele>299.014487</ele>
        <time>2025-04-25T06:49:17.000Z</time>
      </trkpt>
      <trkpt lat="43.39789" lon="6.11815">
        <ele>299.014487</ele>
        <time>2025-04-25T06:49:17.000Z</time>
      </trkpt>
      <trkpt lat="43.39789" lon="6.11815">
        <ele>299.014487</ele>
        <time>2025-04-25T06:49:17.000Z</time>
      </trkpt>
      <trkpt lat="43.39789" lon="6.11815">
        <ele>299.014487</ele>
        <time>2025-04-25T06:49:18.000Z</time>
      </trkpt>
      <trkpt lat="43.39789" lon="6.11815">
        <ele>299.014487</ele>
        <time>2025-04-25T06:49:20.000Z</time>
      </trkpt>
      <trkpt lat="43.39789" lon="6.11807">
        <ele>299.837681</ele>
        <time>2025-04-25T06:49:24.000Z</time>
      </trkpt>
      <trkpt lat="43.39789" lon="6.11807">
        <ele>299.837681</ele>
        <time>2025-04-25T06:49:24.000Z</time>
      </trkpt>
      <trkpt lat="43.39789" lon="6.11807">
        <ele>299.837681</ele>
        <time>2025-04-25T06:49:26.000Z</time>
      </trkpt>
      <trkpt lat="43.39789" lon="6.11807">
        <ele>299.837681</ele>
        <time>2025-04-25T06:49:27.000Z</time>
      </trkpt>
      <trkpt lat="43.39789" lon="6.11804">
        <ele>300.055399</ele>
        <time>2025-04-25T06:49:29.000Z</time>
      </trkpt>
      <trkpt lat="43.39789" lon="6.11804">
        <ele>300.055399</ele>
        <time>2025-04-25T06:49:29.000Z</time>
      </trkpt>
      <trkpt lat="43.39789" lon="6.11804">
        <ele>300.109878</ele>
        <time>2025-04-25T06:49:31.000Z</time>
      </trkpt>
      <trkpt lat="43.39789" lon="6.11804">
        <ele>300.109878</ele>
        <time>2025-04-25T06:49:31.000Z</time>
      </trkpt>
      <trkpt lat="43.39789" lon="6.11804">
        <ele>300.109878</ele>
        <time>2025-04-25T06:49:32.000Z</time>
      </trkpt>
      <trkpt lat="43.39789" lon="6.11804">
        <ele>300.109878</ele>
        <time>2025-04-25T06:49:33.000Z</time>
      </trkpt>
      <trkpt lat="43.39788" lon="6.11805">
        <ele>300.267657</ele>
        <time>2025-04-25T06:49:36.000Z</time>
      </trkpt>
      <trkpt lat="43.39788" lon="6.11805">
        <ele>300.267657</ele>
        <time>2025-04-25T06:49:36.000Z</time>
      </trkpt>
      <trkpt lat="43.39788" lon="6.11805">
        <ele>300.267657</ele>
        <time>2025-04-25T06:49:38.000Z</time>
      </trkpt>
      <trkpt lat="43.39786" lon="6.11805">
        <ele>300.491124</ele>
        <time>2025-04-25T06:49:39.000Z</time>
      </trkpt>
      <trkpt lat="43.39786" lon="6.11805">
        <ele>300.491124</ele>
        <time>2025-04-25T06:49:41.000Z</time>
      </trkpt>
      <trkpt lat="43.39786" lon="6.11805">
        <ele>300.491124</ele>
        <time>2025-04-25T06:49:42.000Z</time>
      </trkpt>
      <trkpt lat="43.39785" lon="6.11805">
        <ele>300.608973</ele>
        <time>2025-04-25T06:49:43.000Z</time>
      </trkpt>
      <trkpt lat="43.39785" lon="6.11805">
        <ele>300.608973</ele>
        <time>2025-04-25T06:49:44.000Z</time>
      </trkpt>
      <trkpt lat="43.39785" lon="6.11805">
        <ele>300.608973</ele>
        <time>2025-04-25T06:49:45.000Z</time>
      </trkpt>
      <trkpt lat="43.39785" lon="6.11803">
        <ele>300.852434</ele>
        <time>2025-04-25T06:49:46.000Z</time>
      </trkpt>
      <trkpt lat="43.39785" lon="6.11803">
        <ele>300.852434</ele>
        <time>2025-04-25T06:49:46.000Z</time>
      </trkpt>
      <trkpt lat="43.39785" lon="6.11803">
        <ele>300.852434</ele>
        <time>2025-04-25T06:49:48.000Z</time>
      </trkpt>
      <trkpt lat="43.39785" lon="6.11803">
        <ele>300.852434</ele>
        <time>2025-04-25T06:49:48.000Z</time>
      </trkpt>
      <trkpt lat="43.39781" lon="6.11798">
        <ele>301.515824</ele>
        <time>2025-04-25T06:49:50.000Z</time>
      </trkpt>
      <trkpt lat="43.39781" lon="6.11798">
        <ele>301.515824</ele>
        <time>2025-04-25T06:49:51.000Z</time>
      </trkpt>
      <trkpt lat="43.39781" lon="6.11798">
        <ele>301.515824</ele>
        <time>2025-04-25T06:49:52.000Z</time>
      </trkpt>
      <trkpt lat="43.39779" lon="6.11795">
        <ele>301.92479</ele>
        <time>2025-04-25T06:49:53.000Z</time>
      </trkpt>
      <trkpt lat="43.39779" lon="6.11795">
        <ele>301.92479</ele>
        <time>2025-04-25T06:49:54.000Z</time>
      </trkpt>
      <trkpt lat="43.39778" lon="6.11793">
        <ele>302.181474</ele>
        <time>2025-04-25T06:49:55.000Z</time>
      </trkpt>
      <trkpt lat="43.39778" lon="6.11793">
        <ele>302.181474</ele>
        <time>2025-04-25T06:49:55.000Z</time>
      </trkpt>
      <trkpt lat="43.39778" lon="6.11793">
        <ele>302.181474</ele>
        <time>2025-04-25T06:49:57.000Z</time>
      </trkpt>
      <trkpt lat="43.39778" lon="6.11793">
        <ele>302.181474</ele>
        <time>2025-04-25T06:50:00.000Z</time>
      </trkpt>
      <trkpt lat="43.39778" lon="6.11793">
        <ele>302.181474</ele>
        <time>2025-04-25T06:50:04.000Z</time>
      </trkpt>
      <trkpt lat="43.39777" lon="6.11789">
        <ele>302.56943</ele>
        <time>2025-04-25T06:50:05.000Z</time>
      </trkpt>
      <trkpt lat="43.39777" lon="6.11787">
        <ele>302.707977</ele>
        <time>2025-04-25T06:50:06.000Z</time>
      </trkpt>
      <trkpt lat="43.39777" lon="6.11787">
        <ele>302.707977</ele>
        <time>2025-04-25T06:50:06.000Z</time>
      </trkpt>
      <trkpt lat="43.39778" lon="6.11785">
        <ele>302.951656</ele>
        <time>2025-04-25T06:50:07.000Z</time>
      </trkpt>
      <trkpt lat="43.39778" lon="6.11785">
        <ele>302.951656</ele>
        <time>2025-04-25T06:50:07.000Z</time>
      </trkpt>
      <trkpt lat="43.39778" lon="6.11782">
        <ele>303.238648</ele>
        <time>2025-04-25T06:50:08.000Z</time>
      </trkpt>
      <trkpt lat="43.39778" lon="6.11782">
        <ele>303.238648</ele>
        <time>2025-04-25T06:50:08.000Z</time>
      </trkpt>
      <trkpt lat="43.39777" lon="6.11779">
        <ele>303.540493</ele>
        <time>2025-04-25T06:50:09.000Z</time>
      </trkpt>
      <trkpt lat="43.39777" lon="6.11779">
        <ele>303.540493</ele>
        <time>2025-04-25T06:50:09.000Z</time>
      </trkpt>
      <trkpt lat="43.39777" lon="6.11776">
        <ele>303.819916</ele>
        <time>2025-04-25T06:50:10.000Z</time>
      </trkpt>
      <trkpt lat="43.39777" lon="6.11776">
        <ele>303.819916</ele>
        <time>2025-04-25T06:50:10.000Z</time>
      </trkpt>
      <trkpt lat="43.39776" lon="6.11773">
        <ele>304.154817</ele>
        <time>2025-04-25T06:50:11.000Z</time>
      </trkpt>
      <trkpt lat="43.39774" lon="6.1177">
        <ele>304.548457</ele>
        <time>2025-04-25T06:50:12.000Z</time>
      </trkpt>
      <trkpt lat="43.39774" lon="6.1177">
        <ele>304.548457</ele>
        <time>2025-04-25T06:50:12.000Z</time>
      </trkpt>
      <trkpt lat="43.39773" lon="6.11768">
        <ele>304.796692</ele>
        <time>2025-04-25T06:50:13.000Z</time>
      </trkpt>
      <trkpt lat="43.39772" lon="6.11765">
        <ele>305.144297</ele>
        <time>2025-04-25T06:50:14.000Z</time>
      </trkpt>
      <trkpt lat="43.39772" lon="6.11765">
        <ele>305.144297</ele>
        <time>2025-04-25T06:50:14.000Z</time>
      </trkpt>
      <trkpt lat="43.39771" lon="6.11762">
        <ele>305.419091</ele>
        <time>2025-04-25T06:50:14.000Z</time>
      </trkpt>
      <trkpt lat="43.39771" lon="6.11762">
        <ele>305.419091</ele>
        <time>2025-04-25T06:50:14.000Z</time>
      </trkpt>
      <trkpt lat="43.3977" lon="6.11759">
        <ele>305.577266</ele>
        <time>2025-04-25T06:50:16.000Z</time>
      </trkpt>
      <trkpt lat="43.3977" lon="6.11759">
        <ele>305.577266</ele>
        <time>2025-04-25T06:50:16.000Z</time>
      </trkpt>
      <trkpt lat="43.39769" lon="6.11755">
        <ele>305.75765</ele>
        <time>2025-04-25T06:50:17.000Z</time>
      </trkpt>
      <trkpt lat="43.39769" lon="6.11755">
        <ele>305.75765</ele>
        <time>2025-04-25T06:50:17.000Z</time>
      </trkpt>
      <trkpt lat="43.39768" lon="6.11751">
        <ele>305.938034</ele>
        <time>2025-04-25T06:50:18.000Z</time>
      </trkpt>
      <trkpt lat="43.39768" lon="6.11751">
        <ele>305.938034</ele>
        <time>2025-04-25T06:50:18.000Z</time>
      </trkpt>
      <trkpt lat="43.39766" lon="6.11748">
        <ele>306.092179</ele>
        <time>2025-04-25T06:50:19.000Z</time>
      </trkpt>
      <trkpt lat="43.39766" lon="6.11748">
        <ele>306.092179</ele>
        <time>2025-04-25T06:50:19.000Z</time>
      </trkpt>
      <trkpt lat="43.39764" lon="6.11745">
        <ele>306.283055</ele>
        <time>2025-04-25T06:50:20.000Z</time>
      </trkpt>
      <trkpt lat="43.39764" lon="6.11745">
        <ele>306.283055</ele>
        <time>2025-04-25T06:50:20.000Z</time>
      </trkpt>
      <trkpt lat="43.39763" lon="6.11743">
        <ele>306.429276</ele>
        <time>2025-04-25T06:50:21.000Z</time>
      </trkpt>
      <trkpt lat="43.39763" lon="6.11743">
        <ele>306.429276</ele>
        <time>2025-04-25T06:50:21.000Z</time>
      </trkpt>
      <trkpt lat="43.39761" lon="6.1174">
        <ele>306.613091</ele>
        <time>2025-04-25T06:50:21.000Z</time>
      </trkpt>
      <trkpt lat="43.39761" lon="6.1174">
        <ele>306.613091</ele>
        <time>2025-04-25T06:50:21.000Z</time>
      </trkpt>
      <trkpt lat="43.39759" lon="6.11737">
        <ele>306.76697</ele>
        <time>2025-04-25T06:50:23.000Z</time>
      </trkpt>
      <trkpt lat="43.39759" lon="6.11737">
        <ele>306.76697</ele>
        <time>2025-04-25T06:50:23.000Z</time>
      </trkpt>
      <trkpt lat="43.39757" lon="6.11734">
        <ele>306.970449</ele>
        <time>2025-04-25T06:50:24.000Z</time>
      </trkpt>
      <trkpt lat="43.39757" lon="6.11734">
        <ele>306.970449</ele>
        <time>2025-04-25T06:50:24.000Z</time>
      </trkpt>
      <trkpt lat="43.39755" lon="6.1173">
        <ele>307.19118</ele>
        <time>2025-04-25T06:50:24.000Z</time>
      </trkpt>
      <trkpt lat="43.39755" lon="6.1173">
        <ele>307.19118</ele>
        <time>2025-04-25T06:50:24.000Z</time>
      </trkpt>
      <trkpt lat="43.39753" lon="6.11726">
        <ele>307.407906</ele>
        <time>2025-04-25T06:50:26.000Z</time>
      </trkpt>
      <trkpt lat="43.39753" lon="6.11726">
        <ele>307.407906</ele>
        <time>2025-04-25T06:50:26.000Z</time>
      </trkpt>
      <trkpt lat="43.39751" lon="6.11722">
        <ele>307.635957</ele>
        <time>2025-04-25T06:50:26.000Z</time>
      </trkpt>
      <trkpt lat="43.39751" lon="6.11722">
        <ele>307.635957</ele>
        <time>2025-04-25T06:50:26.000Z</time>
      </trkpt>
      <trkpt lat="43.3975" lon="6.11719">
        <ele>307.830876</ele>
        <time>2025-04-25T06:50:28.000Z</time>
      </trkpt>
      <trkpt lat="43.3975" lon="6.11719">
        <ele>307.830876</ele>
        <time>2025-04-25T06:50:28.000Z</time>
      </trkpt>
      <trkpt lat="43.39748" lon="6.11715">
        <ele>308.0146</ele>
        <time>2025-04-25T06:50:29.000Z</time>
      </trkpt>
      <trkpt lat="43.39748" lon="6.11715">
        <ele>308.0146</ele>
        <time>2025-04-25T06:50:29.000Z</time>
      </trkpt>
      <trkpt lat="43.39747" lon="6.11712">
        <ele>308.190736</ele>
        <time>2025-04-25T06:50:30.000Z</time>
      </trkpt>
      <trkpt lat="43.39747" lon="6.11712">
        <ele>308.190736</ele>
        <time>2025-04-25T06:50:30.000Z</time>
      </trkpt>
      <trkpt lat="43.39746" lon="6.11709">
        <ele>308.347044</ele>
        <time>2025-04-25T06:50:31.000Z</time>
      </trkpt>
      <trkpt lat="43.39746" lon="6.11709">
        <ele>308.347044</ele>
        <time>2025-04-25T06:50:31.000Z</time>
      </trkpt>
      <trkpt lat="43.39745" lon="6.11706">
        <ele>308.469006</ele>
        <time>2025-04-25T06:50:31.000Z</time>
      </trkpt>
      <trkpt lat="43.39745" lon="6.11706">
        <ele>308.469006</ele>
        <time>2025-04-25T06:50:31.000Z</time>
      </trkpt>
      <trkpt lat="43.39745" lon="6.11703">
        <ele>308.614542</ele>
        <time>2025-04-25T06:50:33.000Z</time>
      </trkpt>
      <trkpt lat="43.39745" lon="6.11703">
        <ele>308.614542</ele>
        <time>2025-04-25T06:50:33.000Z</time>
      </trkpt>
      <trkpt lat="43.39743" lon="6.117">
        <ele>308.768688</ele>
        <time>2025-04-25T06:50:34.000Z</time>
      </trkpt>
      <trkpt lat="43.39743" lon="6.117">
        <ele>308.768688</ele>
        <time>2025-04-25T06:50:34.000Z</time>
      </trkpt>
      <trkpt lat="43.39743" lon="6.117">
        <ele>308.768688</ele>
        <time>2025-04-25T06:50:35.000Z</time>
      </trkpt>
      <trkpt lat="43.39742" lon="6.11696">
        <ele>309.025224</ele>
        <time>2025-04-25T06:50:35.000Z</time>
      </trkpt>
      <trkpt lat="43.39742" lon="6.11696">
        <ele>309.025224</ele>
        <time>2025-04-25T06:50:35.000Z</time>
      </trkpt>
      <trkpt lat="43.3974" lon="6.11692">
        <ele>309.205015</ele>
        <time>2025-04-25T06:50:38.000Z</time>
      </trkpt>
      <trkpt lat="43.3974" lon="6.11692">
        <ele>309.205015</ele>
        <time>2025-04-25T06:50:38.000Z</time>
      </trkpt>
      <trkpt lat="43.39747" lon="6.11681">
        <ele>318.02813</ele>
        <time>2025-04-25T06:52:27.000Z</time>
      </trkpt>
      <trkpt lat="43.39747" lon="6.11681">
        <ele>318.02813</ele>
        <time>2025-04-25T06:52:27.000Z</time>
      </trkpt>
      <trkpt lat="43.39751" lon="6.11678">
        <ele>318.144298</ele>
        <time>2025-04-25T06:52:28.000Z</time>
      </trkpt>
      <trkpt lat="43.39751" lon="6.11678">
        <ele>318.144298</ele>
        <time>2025-04-25T06:52:28.000Z</time>
      </trkpt>
      <trkpt lat="43.39755" lon="6.11676">
        <ele>318.233702</ele>
        <time>2025-04-25T06:52:29.000Z</time>
      </trkpt>
      <trkpt lat="43.39755" lon="6.11676">
        <ele>318.233702</ele>
        <time>2025-04-25T06:52:29.000Z</time>
      </trkpt>
      <trkpt lat="43.39758" lon="6.11673">
        <ele>318.344915</ele>
        <time>2025-04-25T06:52:30.000Z</time>
      </trkpt>
      <trkpt lat="43.39758" lon="6.11673">
        <ele>318.344915</ele>
        <time>2025-04-25T06:52:30.000Z</time>
      </trkpt>
      <trkpt lat="43.39762" lon="6.1167">
        <ele>318.451607</ele>
        <time>2025-04-25T06:52:31.000Z</time>
      </trkpt>
      <trkpt lat="43.39764" lon="6.11666">
        <ele>318.535954</ele>
        <time>2025-04-25T06:52:32.000Z</time>
      </trkpt>
      <trkpt lat="43.39764" lon="6.11666">
        <ele>318.535954</ele>
        <time>2025-04-25T06:52:32.000Z</time>
      </trkpt>
      <trkpt lat="43.39766" lon="6.11662">
        <ele>318.640478</ele>
        <time>2025-04-25T06:52:33.000Z</time>
      </trkpt>
      <trkpt lat="43.39767" lon="6.11656">
        <ele>318.736719</ele>
        <time>2025-04-25T06:52:34.000Z</time>
      </trkpt>
      <trkpt lat="43.39767" lon="6.11656">
        <ele>318.736719</ele>
        <time>2025-04-25T06:52:34.000Z</time>
      </trkpt>
      <trkpt lat="43.39768" lon="6.11651">
        <ele>318.838677</ele>
        <time>2025-04-25T06:52:35.000Z</time>
      </trkpt>
      <trkpt lat="43.39768" lon="6.11651">
        <ele>318.838677</ele>
        <time>2025-04-25T06:52:35.000Z</time>
      </trkpt>
      <trkpt lat="43.39767" lon="6.11644">
        <ele>318.960842</ele>
        <time>2025-04-25T06:52:36.000Z</time>
      </trkpt>
      <trkpt lat="43.39767" lon="6.11644">
        <ele>318.960842</ele>
        <time>2025-04-25T06:52:36.000Z</time>
      </trkpt>
      <trkpt lat="43.39767" lon="6.11642">
        <ele>319.006956</ele>
        <time>2025-04-25T06:52:37.000Z</time>
      </trkpt>
      <trkpt lat="43.39767" lon="6.11642">
        <ele>319.006956</ele>
        <time>2025-04-25T06:52:37.000Z</time>
      </trkpt>
      <trkpt lat="43.39766" lon="6.11631">
        <ele>319.213957</ele>
        <time>2025-04-25T06:52:38.000Z</time>
      </trkpt>
      <trkpt lat="43.39766" lon="6.11631">
        <ele>319.213957</ele>
        <time>2025-04-25T06:52:38.000Z</time>
      </trkpt>
      <trkpt lat="43.39766" lon="6.11628">
        <ele>319.261177</ele>
        <time>2025-04-25T06:52:39.000Z</time>
      </trkpt>
      <trkpt lat="43.39766" lon="6.11628">
        <ele>319.261177</ele>
        <time>2025-04-25T06:52:39.000Z</time>
      </trkpt>
      <trkpt lat="43.39765" lon="6.11616">
        <ele>319.464638</ele>
        <time>2025-04-25T06:52:40.000Z</time>
      </trkpt>
      <trkpt lat="43.39765" lon="6.11616">
        <ele>319.464638</ele>
        <time>2025-04-25T06:52:40.000Z</time>
      </trkpt>
      <trkpt lat="43.39764" lon="6.11609">
        <ele>319.526316</ele>
        <time>2025-04-25T06:52:41.000Z</time>
      </trkpt>
      <trkpt lat="43.39764" lon="6.11609">
        <ele>319.526316</ele>
        <time>2025-04-25T06:52:41.000Z</time>
      </trkpt>
      <trkpt lat="43.39764" lon="6.116">
        <ele>319.610287</ele>
        <time>2025-04-25T06:52:42.000Z</time>
      </trkpt>
      <trkpt lat="43.39764" lon="6.116">
        <ele>319.610287</ele>
        <time>2025-04-25T06:52:42.000Z</time>
      </trkpt>
      <trkpt lat="43.39764" lon="6.11585">
        <ele>319.748212</ele>
        <time>2025-04-25T06:52:44.000Z</time>
      </trkpt>
      <trkpt lat="43.39764" lon="6.11585">
        <ele>319.748212</ele>
        <time>2025-04-25T06:52:44.000Z</time>
      </trkpt>
      <trkpt lat="43.39765" lon="6.11581">
        <ele>319.789507</ele>
        <time>2025-04-25T06:52:45.000Z</time>
      </trkpt>
      <trkpt lat="43.39765" lon="6.11581">
        <ele>319.789507</ele>
        <time>2025-04-25T06:52:45.000Z</time>
      </trkpt>
      <trkpt lat="43.39765" lon="6.11576">
        <ele>319.840984</ele>
        <time>2025-04-25T06:52:46.000Z</time>
      </trkpt>
      <trkpt lat="43.39765" lon="6.11576">
        <ele>319.840984</ele>
        <time>2025-04-25T06:52:46.000Z</time>
      </trkpt>
      <trkpt lat="43.39766" lon="6.1157">
        <ele>319.888634</ele>
        <time>2025-04-25T06:52:47.000Z</time>
      </trkpt>
      <trkpt lat="43.39766" lon="6.1157">
        <ele>319.888634</ele>
        <time>2025-04-25T06:52:47.000Z</time>
      </trkpt>
      <trkpt lat="43.39766" lon="6.11562">
        <ele>319.969378</ele>
        <time>2025-04-25T06:52:48.000Z</time>
      </trkpt>
      <trkpt lat="43.39766" lon="6.11562">
        <ele>319.969378</ele>
        <time>2025-04-25T06:52:48.000Z</time>
      </trkpt>
      <trkpt lat="43.39767" lon="6.11556">
        <ele>320.026416</ele>
        <time>2025-04-25T06:52:49.000Z</time>
      </trkpt>
      <trkpt lat="43.39767" lon="6.11556">
        <ele>320.026416</ele>
        <time>2025-04-25T06:52:49.000Z</time>
      </trkpt>
      <trkpt lat="43.39767" lon="6.11549">
        <ele>320.086238</ele>
        <time>2025-04-25T06:52:50.000Z</time>
      </trkpt>
      <trkpt lat="43.39767" lon="6.11549">
        <ele>320.086238</ele>
        <time>2025-04-25T06:52:50.000Z</time>
      </trkpt>
      <trkpt lat="43.39768" lon="6.11543">
        <ele>320.14375</ele>
        <time>2025-04-25T06:52:51.000Z</time>
      </trkpt>
      <trkpt lat="43.39768" lon="6.11543">
        <ele>320.14375</ele>
        <time>2025-04-25T06:52:51.000Z</time>
      </trkpt>
      <trkpt lat="43.39768" lon="6.11536">
        <ele>320.210998</ele>
        <time>2025-04-25T06:52:52.000Z</time>
      </trkpt>
      <trkpt lat="43.39768" lon="6.11536">
        <ele>320.210998</ele>
        <time>2025-04-25T06:52:52.000Z</time>
      </trkpt>
      <trkpt lat="43.39769" lon="6.11529">
        <ele>320.278829</ele>
        <time>2025-04-25T06:52:53.000Z</time>
      </trkpt>
      <trkpt lat="43.3977" lon="6.11522">
        <ele>320.345556</ele>
        <time>2025-04-25T06:52:54.000Z</time>
      </trkpt>
      <trkpt lat="43.39771" lon="6.11515">
        <ele>320.409707</ele>
        <time>2025-04-25T06:52:55.000Z</time>
      </trkpt>
      <trkpt lat="43.39771" lon="6.11515">
        <ele>320.409707</ele>
        <time>2025-04-25T06:52:55.000Z</time>
      </trkpt>
      <trkpt lat="43.39771" lon="6.11507">
        <ele>320.487173</ele>
        <time>2025-04-25T06:52:56.000Z</time>
      </trkpt>
      <trkpt lat="43.39771" lon="6.11499">
        <ele>320.561851</ele>
        <time>2025-04-25T06:52:57.000Z</time>
      </trkpt>
      <trkpt lat="43.39772" lon="6.11491">
        <ele>320.631885</ele>
        <time>2025-04-25T06:52:58.000Z</time>
      </trkpt>
      <trkpt lat="43.39772" lon="6.11491">
        <ele>320.631885</ele>
        <time>2025-04-25T06:52:58.000Z</time>
      </trkpt>
      <trkpt lat="43.39772" lon="6.11484">
        <ele>320.695328</ele>
        <time>2025-04-25T06:52:59.000Z</time>
      </trkpt>
      <trkpt lat="43.39772" lon="6.11478">
        <ele>320.75144</ele>
        <time>2025-04-25T06:53:00.000Z</time>
      </trkpt>
      <trkpt lat="43.39773" lon="6.1147">
        <ele>320.833552</ele>
        <time>2025-04-25T06:53:01.000Z</time>
      </trkpt>
      <trkpt lat="43.39773" lon="6.1147">
        <ele>320.833552</ele>
        <time>2025-04-25T06:53:01.000Z</time>
      </trkpt>
      <trkpt lat="43.39773" lon="6.11463">
        <ele>320.89523</ele>
        <time>2025-04-25T06:53:02.000Z</time>
      </trkpt>
      <trkpt lat="43.39773" lon="6.11463">
        <ele>320.89523</ele>
        <time>2025-04-25T06:53:02.000Z</time>
      </trkpt>
      <trkpt lat="43.39774" lon="6.11457">
        <ele>320.949487</ele>
        <time>2025-04-25T06:53:03.000Z</time>
      </trkpt>
      <trkpt lat="43.39774" lon="6.11448">
        <ele>321.034706</ele>
        <time>2025-04-25T06:53:04.000Z</time>
      </trkpt>
      <trkpt lat="43.39775" lon="6.11441">
        <ele>321.09702</ele>
        <time>2025-04-25T06:53:05.000Z</time>
      </trkpt>
      <trkpt lat="43.39776" lon="6.11434">
        <ele>321.165592</ele>
        <time>2025-04-25T06:53:06.000Z</time>
      </trkpt>
      <trkpt lat="43.39776" lon="6.11434">
        <ele>321.165592</ele>
        <time>2025-04-25T06:53:06.000Z</time>
      </trkpt>
      <trkpt lat="43.39777" lon="6.11428">
        <ele>321.224235</ele>
        <time>2025-04-25T06:53:07.000Z</time>
      </trkpt>
      <trkpt lat="43.39778" lon="6.11421">
        <ele>321.294845</ele>
        <time>2025-04-25T06:53:08.000Z</time>
      </trkpt>
      <trkpt lat="43.39779" lon="6.11418">
        <ele>321.318929</ele>
        <time>2025-04-25T06:53:08.000Z</time>
      </trkpt>
      <trkpt lat="43.39781" lon="6.11407">
        <ele>321.431477</ele>
        <time>2025-04-25T06:53:10.000Z</time>
      </trkpt>
      <trkpt lat="43.39783" lon="6.114">
        <ele>321.495862</ele>
        <time>2025-04-25T06:53:11.000Z</time>
      </trkpt>
      <trkpt lat="43.39784" lon="6.11396">
        <ele>321.533955</ele>
        <time>2025-04-25T06:53:12.000Z</time>
      </trkpt>
      <trkpt lat="43.39788" lon="6.11386">
        <ele>321.639005</ele>
        <time>2025-04-25T06:53:13.000Z</time>
      </trkpt>
      <trkpt lat="43.3979" lon="6.1138">
        <ele>321.701359</ele>
        <time>2025-04-25T06:53:14.000Z</time>
      </trkpt>
      <trkpt lat="43.39792" lon="6.11374">
        <ele>321.763289</ele>
        <time>2025-04-25T06:53:15.000Z</time>
      </trkpt>
      <trkpt lat="43.39794" lon="6.11368">
        <ele>321.805536</ele>
        <time>2025-04-25T06:53:16.000Z</time>
      </trkpt>
      <trkpt lat="43.39795" lon="6.11361">
        <ele>321.856024</ele>
        <time>2025-04-25T06:53:17.000Z</time>
      </trkpt>
      <trkpt lat="43.39795" lon="6.11354">
        <ele>321.900105</ele>
        <time>2025-04-25T06:53:18.000Z</time>
      </trkpt>
      <trkpt lat="43.39795" lon="6.11354">
        <ele>321.900105</ele>
        <time>2025-04-25T06:53:18.000Z</time>
      </trkpt>
      <trkpt lat="43.39795" lon="6.11349">
        <ele>321.933043</ele>
        <time>2025-04-25T06:53:19.000Z</time>
      </trkpt>
      <trkpt lat="43.39795" lon="6.11349">
        <ele>321.933043</ele>
        <time>2025-04-25T06:53:19.000Z</time>
      </trkpt>
      <trkpt lat="43.39795" lon="6.11344">
        <ele>321.970291</ele>
        <time>2025-04-25T06:53:20.000Z</time>
      </trkpt>
      <trkpt lat="43.39795" lon="6.11344">
        <ele>321.970291</ele>
        <time>2025-04-25T06:53:20.000Z</time>
      </trkpt>
      <trkpt lat="43.39794" lon="6.1134">
        <ele>321.998525</ele>
        <time>2025-04-25T06:53:21.000Z</time>
      </trkpt>
      <trkpt lat="43.39794" lon="6.1134">
        <ele>321.998525</ele>
        <time>2025-04-25T06:53:21.000Z</time>
      </trkpt>
      <trkpt lat="43.39794" lon="6.11334">
        <ele>322.039012</ele>
        <time>2025-04-25T06:53:23.000Z</time>
      </trkpt>
      <trkpt lat="43.39794" lon="6.11334">
        <ele>322.039012</ele>
        <time>2025-04-25T06:53:23.000Z</time>
      </trkpt>
      <trkpt lat="43.39795" lon="6.11331">
        <ele>322.058684</ele>
        <time>2025-04-25T06:53:24.000Z</time>
      </trkpt>
      <trkpt lat="43.39796" lon="6.11328">
        <ele>322.086489</ele>
        <time>2025-04-25T06:53:25.000Z</time>
      </trkpt>
      <trkpt lat="43.39798" lon="6.11323">
        <ele>322.124882</ele>
        <time>2025-04-25T06:53:26.000Z</time>
      </trkpt>
      <trkpt lat="43.39798" lon="6.11317">
        <ele>322.163495</ele>
        <time>2025-04-25T06:53:27.000Z</time>
      </trkpt>
      <trkpt lat="43.39798" lon="6.11311">
        <ele>322.204669</ele>
        <time>2025-04-25T06:53:28.000Z</time>
      </trkpt>
      <trkpt lat="43.39798" lon="6.11304">
        <ele>322.252168</ele>
        <time>2025-04-25T06:53:29.000Z</time>
      </trkpt>
      <trkpt lat="43.39797" lon="6.11298">
        <ele>322.292148</ele>
        <time>2025-04-25T06:53:30.000Z</time>
      </trkpt>
      <trkpt lat="43.39797" lon="6.11292">
        <ele>322.337596</ele>
        <time>2025-04-25T06:53:31.000Z</time>
      </trkpt>
      <trkpt lat="43.39797" lon="6.11292">
        <ele>322.337596</ele>
        <time>2025-04-25T06:53:31.000Z</time>
      </trkpt>
      <trkpt lat="43.39796" lon="6.11284">
        <ele>322.390166</ele>
        <time>2025-04-25T06:53:32.000Z</time>
      </trkpt>
      <trkpt lat="43.39795" lon="6.11277">
        <ele>322.438114</ele>
        <time>2025-04-25T06:53:33.000Z</time>
      </trkpt>
      <trkpt lat="43.39795" lon="6.11269">
        <ele>322.49625</ele>
        <time>2025-04-25T06:53:34.000Z</time>
      </trkpt>
      <trkpt lat="43.39794" lon="6.11262">
        <ele>322.544058</ele>
        <time>2025-04-25T06:53:35.000Z</time>
      </trkpt>
      <trkpt lat="43.39793" lon="6.11255">
        <ele>322.59475</ele>
        <time>2025-04-25T06:53:36.000Z</time>
      </trkpt>
      <trkpt lat="43.39792" lon="6.11248">
        <ele>322.64052</ele>
        <time>2025-04-25T06:53:37.000Z</time>
      </trkpt>
      <trkpt lat="43.39792" lon="6.11248">
        <ele>322.64052</ele>
        <time>2025-04-25T06:53:37.000Z</time>
      </trkpt>
      <trkpt lat="43.39791" lon="6.11242">
        <ele>322.684549</ele>
        <time>2025-04-25T06:53:37.000Z</time>
      </trkpt>
      <trkpt lat="43.3979" lon="6.11236">
        <ele>322.729012</ele>
        <time>2025-04-25T06:53:39.000Z</time>
      </trkpt>
      <trkpt lat="43.3979" lon="6.11236">
        <ele>322.729012</ele>
        <time>2025-04-25T06:53:39.000Z</time>
      </trkpt>
      <trkpt lat="43.39788" lon="6.11229">
        <ele>322.777122</ele>
        <time>2025-04-25T06:53:40.000Z</time>
      </trkpt>
      <trkpt lat="43.39788" lon="6.11229">
        <ele>322.777122</ele>
        <time>2025-04-25T06:53:40.000Z</time>
      </trkpt>
      <trkpt lat="43.39787" lon="6.11222">
        <ele>322.822479</ele>
        <time>2025-04-25T06:53:41.000Z</time>
      </trkpt>
      <trkpt lat="43.39787" lon="6.11222">
        <ele>322.822479</ele>
        <time>2025-04-25T06:53:41.000Z</time>
      </trkpt>
      <trkpt lat="43.39786" lon="6.11215">
        <ele>322.872967</ele>
        <time>2025-04-25T06:53:42.000Z</time>
      </trkpt>
      <trkpt lat="43.39786" lon="6.11215">
        <ele>322.872967</ele>
        <time>2025-04-25T06:53:42.000Z</time>
      </trkpt>
      <trkpt lat="43.39785" lon="6.11209">
        <ele>322.916854</ele>
        <time>2025-04-25T06:53:43.000Z</time>
      </trkpt>
      <trkpt lat="43.39785" lon="6.11209">
        <ele>322.916854</ele>
        <time>2025-04-25T06:53:43.000Z</time>
      </trkpt>
      <trkpt lat="43.39784" lon="6.11203">
        <ele>322.961418</ele>
        <time>2025-04-25T06:53:43.000Z</time>
      </trkpt>
      <trkpt lat="43.39784" lon="6.11203">
        <ele>322.961418</ele>
        <time>2025-04-25T06:53:43.000Z</time>
      </trkpt>
      <trkpt lat="43.39784" lon="6.11195">
        <ele>323.011592</ele>
        <time>2025-04-25T06:53:44.000Z</time>
      </trkpt>
      <trkpt lat="43.39784" lon="6.11195">
        <ele>323.011592</ele>
        <time>2025-04-25T06:53:44.000Z</time>
      </trkpt>
      <trkpt lat="43.39784" lon="6.11189">
        <ele>323.052178</ele>
        <time>2025-04-25T06:53:46.000Z</time>
      </trkpt>
      <trkpt lat="43.39784" lon="6.11189">
        <ele>323.052178</ele>
        <time>2025-04-25T06:53:46.000Z</time>
      </trkpt>
      <trkpt lat="43.39784" lon="6.11183">
        <ele>323.097469</ele>
        <time>2025-04-25T06:53:47.000Z</time>
      </trkpt>
      <trkpt lat="43.39784" lon="6.11183">
        <ele>323.097469</ele>
        <time>2025-04-25T06:53:47.000Z</time>
      </trkpt>
      <trkpt lat="43.39785" lon="6.11177">
        <ele>323.14068</ele>
        <time>2025-04-25T06:53:47.000Z</time>
      </trkpt>
      <trkpt lat="43.39785" lon="6.11169">
        <ele>323.190917</ele>
        <time>2025-04-25T06:53:49.000Z</time>
      </trkpt>
      <trkpt lat="43.39785" lon="6.11169">
        <ele>323.190917</ele>
        <time>2025-04-25T06:53:49.000Z</time>
      </trkpt>
      <trkpt lat="43.39786" lon="6.11162">
        <ele>323.242522</ele>
        <time>2025-04-25T06:53:50.000Z</time>
      </trkpt>
      <trkpt lat="43.39786" lon="6.11162">
        <ele>323.242522</ele>
        <time>2025-04-25T06:53:50.000Z</time>
      </trkpt>
      <trkpt lat="43.39786" lon="6.11155">
        <ele>323.289185</ele>
        <time>2025-04-25T06:53:51.000Z</time>
      </trkpt>
      <trkpt lat="43.39786" lon="6.11148">
        <ele>323.335848</ele>
        <time>2025-04-25T06:53:52.000Z</time>
      </trkpt>
      <trkpt lat="43.39786" lon="6.11148">
        <ele>323.335848</ele>
        <time>2025-04-25T06:53:52.000Z</time>
      </trkpt>
      <trkpt lat="43.39786" lon="6.11142">
        <ele>323.377708</ele>
        <time>2025-04-25T06:53:52.000Z</time>
      </trkpt>
      <trkpt lat="43.39786" lon="6.11136">
        <ele>323.417509</ele>
        <time>2025-04-25T06:53:54.000Z</time>
      </trkpt>
      <trkpt lat="43.39786" lon="6.11132">
        <ele>323.450477</ele>
        <time>2025-04-25T06:53:55.000Z</time>
      </trkpt>
      <trkpt lat="43.39787" lon="6.11126">
        <ele>323.537795</ele>
        <time>2025-04-25T06:53:56.000Z</time>
      </trkpt>
      <trkpt lat="43.39787" lon="6.11126">
        <ele>323.537795</ele>
        <time>2025-04-25T06:53:56.000Z</time>
      </trkpt>
      <trkpt lat="43.39787" lon="6.1112">
        <ele>323.609688</ele>
        <time>2025-04-25T06:53:57.000Z</time>
      </trkpt>
      <trkpt lat="43.39788" lon="6.11114">
        <ele>323.694769</ele>
        <time>2025-04-25T06:53:58.000Z</time>
      </trkpt>
      <trkpt lat="43.39788" lon="6.11107">
        <ele>323.781168</ele>
        <time>2025-04-25T06:53:59.000Z</time>
      </trkpt>
      <trkpt lat="43.39788" lon="6.11103">
        <ele>323.839702</ele>
        <time>2025-04-25T06:54:00.000Z</time>
      </trkpt>
      <trkpt lat="43.39789" lon="6.11094">
        <ele>323.95848</ele>
        <time>2025-04-25T06:54:01.000Z</time>
      </trkpt>
      <trkpt lat="43.39789" lon="6.11088">
        <ele>324.039273</ele>
        <time>2025-04-25T06:54:02.000Z</time>
      </trkpt>
      <trkpt lat="43.39789" lon="6.11081">
        <ele>324.125673</ele>
        <time>2025-04-25T06:54:03.000Z</time>
      </trkpt>
      <trkpt lat="43.39788" lon="6.11076">
        <ele>324.201229</ele>
        <time>2025-04-25T06:54:04.000Z</time>
      </trkpt>
      <trkpt lat="43.39788" lon="6.11076">
        <ele>324.201229</ele>
        <time>2025-04-25T06:54:04.000Z</time>
      </trkpt>
      <trkpt lat="43.39786" lon="6.11067">
        <ele>324.317527</ele>
        <time>2025-04-25T06:54:05.000Z</time>
      </trkpt>
      <trkpt lat="43.39785" lon="6.11062">
        <ele>324.395641</ele>
        <time>2025-04-25T06:54:06.000Z</time>
      </trkpt>
      <trkpt lat="43.39784" lon="6.11055">
        <ele>324.486879</ele>
        <time>2025-04-25T06:54:06.000Z</time>
      </trkpt>
      <trkpt lat="43.39784" lon="6.11055">
        <ele>324.486879</ele>
        <time>2025-04-25T06:54:06.000Z</time>
      </trkpt>
      <trkpt lat="43.39784" lon="6.11049">
        <ele>324.568674</ele>
        <time>2025-04-25T06:54:08.000Z</time>
      </trkpt>
      <trkpt lat="43.39782" lon="6.11042">
        <ele>324.658785</ele>
        <time>2025-04-25T06:54:09.000Z</time>
      </trkpt>
      <trkpt lat="43.39782" lon="6.11042">
        <ele>324.658785</ele>
        <time>2025-04-25T06:54:09.000Z</time>
      </trkpt>
      <trkpt lat="43.39781" lon="6.11036">
        <ele>324.741576</ele>
        <time>2025-04-25T06:54:10.000Z</time>
      </trkpt>
      <trkpt lat="43.39781" lon="6.11036">
        <ele>324.741576</ele>
        <time>2025-04-25T06:54:10.000Z</time>
      </trkpt>
      <trkpt lat="43.39779" lon="6.1103">
        <ele>324.825617</ele>
        <time>2025-04-25T06:54:11.000Z</time>
      </trkpt>
      <trkpt lat="43.39779" lon="6.1103">
        <ele>324.825617</ele>
        <time>2025-04-25T06:54:11.000Z</time>
      </trkpt>
      <trkpt lat="43.39778" lon="6.11024">
        <ele>324.907159</ele>
        <time>2025-04-25T06:54:12.000Z</time>
      </trkpt>
      <trkpt lat="43.39778" lon="6.11024">
        <ele>324.907159</ele>
        <time>2025-04-25T06:54:12.000Z</time>
      </trkpt>
      <trkpt lat="43.39776" lon="6.11019">
        <ele>324.982755</ele>
        <time>2025-04-25T06:54:13.000Z</time>
      </trkpt>
      <trkpt lat="43.39774" lon="6.11013">
        <ele>325.075334</ele>
        <time>2025-04-25T06:54:14.000Z</time>
      </trkpt>
      <trkpt lat="43.39774" lon="6.11013">
        <ele>325.075334</ele>
        <time>2025-04-25T06:54:14.000Z</time>
      </trkpt>
      <trkpt lat="43.39772" lon="6.11007">
        <ele>325.156268</ele>
        <time>2025-04-25T06:54:15.000Z</time>
      </trkpt>
      <trkpt lat="43.39771" lon="6.11002">
        <ele>325.234382</ele>
        <time>2025-04-25T06:54:15.000Z</time>
      </trkpt>
      <trkpt lat="43.39769" lon="6.10995">
        <ele>325.327179</ele>
        <time>2025-04-25T06:54:17.000Z</time>
      </trkpt>
      <trkpt lat="43.39768" lon="6.10989">
        <ele>325.413441</ele>
        <time>2025-04-25T06:54:17.000Z</time>
      </trkpt>
      <trkpt lat="43.39768" lon="6.10989">
        <ele>325.413441</ele>
        <time>2025-04-25T06:54:17.000Z</time>
      </trkpt>
      <trkpt lat="43.39767" lon="6.10985">
        <ele>325.472574</ele>
        <time>2025-04-25T06:54:19.000Z</time>
      </trkpt>
      <trkpt lat="43.39765" lon="6.10978">
        <ele>325.567966</ele>
        <time>2025-04-25T06:54:20.000Z</time>
      </trkpt>
      <trkpt lat="43.39764" lon="6.10973">
        <ele>325.642761</ele>
        <time>2025-04-25T06:54:20.000Z</time>
      </trkpt>
      <trkpt lat="43.39764" lon="6.10973">
        <ele>325.642761</ele>
        <time>2025-04-25T06:54:20.000Z</time>
      </trkpt>
      <trkpt lat="43.39762" lon="6.10967">
        <ele>325.716863</ele>
        <time>2025-04-25T06:54:22.000Z</time>
      </trkpt>
      <trkpt lat="43.39761" lon="6.10962">
        <ele>325.798405</ele>
        <time>2025-04-25T06:54:23.000Z</time>
      </trkpt>
      <trkpt lat="43.39761" lon="6.10962">
        <ele>325.798405</ele>
        <time>2025-04-25T06:54:23.000Z</time>
      </trkpt>
      <trkpt lat="43.3976" lon="6.10957">
        <ele>325.866216</ele>
        <time>2025-04-25T06:54:24.000Z</time>
      </trkpt>
      <trkpt lat="43.39759" lon="6.10952">
        <ele>325.931525</ele>
        <time>2025-04-25T06:54:25.000Z</time>
      </trkpt>
      <trkpt lat="43.39759" lon="6.10952">
        <ele>325.931525</ele>
        <time>2025-04-25T06:54:25.000Z</time>
      </trkpt>
      <trkpt lat="43.39759" lon="6.10947">
        <ele>326.000615</ele>
        <time>2025-04-25T06:54:25.000Z</time>
      </trkpt>
      <trkpt lat="43.39759" lon="6.10947">
        <ele>326.000615</ele>
        <time>2025-04-25T06:54:25.000Z</time>
      </trkpt>
      <trkpt lat="43.39759" lon="6.10941">
        <ele>326.068164</ele>
        <time>2025-04-25T06:54:27.000Z</time>
      </trkpt>
      <trkpt lat="43.39759" lon="6.10935">
        <ele>326.147968</ele>
        <time>2025-04-25T06:54:28.000Z</time>
      </trkpt>
      <trkpt lat="43.39758" lon="6.1093">
        <ele>326.215779</ele>
        <time>2025-04-25T06:54:29.000Z</time>
      </trkpt>
      <trkpt lat="43.39757" lon="6.10925">
        <ele>326.289735</ele>
        <time>2025-04-25T06:54:30.000Z</time>
      </trkpt>
      <trkpt lat="43.39756" lon="6.10918">
        <ele>326.386207</ele>
        <time>2025-04-25T06:54:31.000Z</time>
      </trkpt>
      <trkpt lat="43.39756" lon="6.10918">
        <ele>326.386207</ele>
        <time>2025-04-25T06:54:31.000Z</time>
      </trkpt>
      <trkpt lat="43.39754" lon="6.10903">
        <ele>326.587961</ele>
        <time>2025-04-25T06:54:33.000Z</time>
      </trkpt>
      <trkpt lat="43.39753" lon="6.10898">
        <ele>326.650846</ele>
        <time>2025-04-25T06:54:33.000Z</time>
      </trkpt>
      <trkpt lat="43.39751" lon="6.10893">
        <ele>326.722843</ele>
        <time>2025-04-25T06:54:35.000Z</time>
      </trkpt>
      <trkpt lat="43.39751" lon="6.10893">
        <ele>326.722843</ele>
        <time>2025-04-25T06:54:35.000Z</time>
      </trkpt>
      <trkpt lat="43.3975" lon="6.10887">
        <ele>326.742619</ele>
        <time>2025-04-25T06:54:36.000Z</time>
      </trkpt>
      <trkpt lat="43.3975" lon="6.10887">
        <ele>326.742619</ele>
        <time>2025-04-25T06:54:36.000Z</time>
      </trkpt>
      <trkpt lat="43.39748" lon="6.1088">
        <ele>326.765544</ele>
        <time>2025-04-25T06:54:36.000Z</time>
      </trkpt>
      <trkpt lat="43.39748" lon="6.1088">
        <ele>326.765544</ele>
        <time>2025-04-25T06:54:36.000Z</time>
      </trkpt>
      <trkpt lat="43.39746" lon="6.10869">
        <ele>326.802974</ele>
        <time>2025-04-25T06:54:39.000Z</time>
      </trkpt>
      <trkpt lat="43.39746" lon="6.10869">
        <ele>326.802974</ele>
        <time>2025-04-25T06:54:39.000Z</time>
      </trkpt>
      <trkpt lat="43.39745" lon="6.10865">
        <ele>326.8147</ele>
        <time>2025-04-25T06:54:39.000Z</time>
      </trkpt>
      <trkpt lat="43.39745" lon="6.10865">
        <ele>326.8147</ele>
        <time>2025-04-25T06:54:39.000Z</time>
      </trkpt>
      <trkpt lat="43.39744" lon="6.1086">
        <ele>326.829889</ele>
        <time>2025-04-25T06:54:41.000Z</time>
      </trkpt>
      <trkpt lat="43.39744" lon="6.1086">
        <ele>326.829889</ele>
        <time>2025-04-25T06:54:41.000Z</time>
      </trkpt>
      <trkpt lat="43.39744" lon="6.10855">
        <ele>326.846343</ele>
        <time>2025-04-25T06:54:41.000Z</time>
      </trkpt>
      <trkpt lat="43.39744" lon="6.10855">
        <ele>326.846343</ele>
        <time>2025-04-25T06:54:41.000Z</time>
      </trkpt>
      <trkpt lat="43.39743" lon="6.1085">
        <ele>326.862797</ele>
        <time>2025-04-25T06:54:42.000Z</time>
      </trkpt>
      <trkpt lat="43.39743" lon="6.1085">
        <ele>326.862797</ele>
        <time>2025-04-25T06:54:42.000Z</time>
      </trkpt>
      <trkpt lat="43.39743" lon="6.10844">
        <ele>326.88019</ele>
        <time>2025-04-25T06:54:44.000Z</time>
      </trkpt>
      <trkpt lat="43.39743" lon="6.10844">
        <ele>326.88019</ele>
        <time>2025-04-25T06:54:44.000Z</time>
      </trkpt>
      <trkpt lat="43.39742" lon="6.10839">
        <ele>326.89714</ele>
        <time>2025-04-25T06:54:45.000Z</time>
      </trkpt>
      <trkpt lat="43.39742" lon="6.10839">
        <ele>326.89714</ele>
        <time>2025-04-25T06:54:45.000Z</time>
      </trkpt>
      <trkpt lat="43.39742" lon="6.10833">
        <ele>326.915472</ele>
        <time>2025-04-25T06:54:46.000Z</time>
      </trkpt>
      <trkpt lat="43.39742" lon="6.10833">
        <ele>326.915472</ele>
        <time>2025-04-25T06:54:46.000Z</time>
      </trkpt>
      <trkpt lat="43.39742" lon="6.10828">
        <ele>326.933093</ele>
        <time>2025-04-25T06:54:47.000Z</time>
      </trkpt>
      <trkpt lat="43.39741" lon="6.10822">
        <ele>326.95074</ele>
        <time>2025-04-25T06:54:48.000Z</time>
      </trkpt>
      <trkpt lat="43.39741" lon="6.10822">
        <ele>326.95074</ele>
        <time>2025-04-25T06:54:48.000Z</time>
      </trkpt>
      <trkpt lat="43.3974" lon="6.10816">
        <ele>326.971795</ele>
        <time>2025-04-25T06:54:49.000Z</time>
      </trkpt>
      <trkpt lat="43.39739" lon="6.10809">
        <ele>326.992288</ele>
        <time>2025-04-25T06:54:50.000Z</time>
      </trkpt>
      <trkpt lat="43.39738" lon="6.10803">
        <ele>327.01172</ele>
        <time>2025-04-25T06:54:51.000Z</time>
      </trkpt>
      <trkpt lat="43.39737" lon="6.10796">
        <ele>327.033706</ele>
        <time>2025-04-25T06:54:51.000Z</time>
      </trkpt>
      <trkpt lat="43.39737" lon="6.1079">
        <ele>327.055629</ele>
        <time>2025-04-25T06:54:53.000Z</time>
      </trkpt>
      <trkpt lat="43.39735" lon="6.10783">
        <ele>327.075818</ele>
        <time>2025-04-25T06:54:54.000Z</time>
      </trkpt>
      <trkpt lat="43.39735" lon="6.10777">
        <ele>327.097117</ele>
        <time>2025-04-25T06:54:54.000Z</time>
      </trkpt>
      <trkpt lat="43.39734" lon="6.1077">
        <ele>327.116931</ele>
        <time>2025-04-25T06:54:55.000Z</time>
      </trkpt>
      <trkpt lat="43.39734" lon="6.10764">
        <ele>327.138084</ele>
        <time>2025-04-25T06:54:57.000Z</time>
      </trkpt>
      <trkpt lat="43.39733" lon="6.10757">
        <ele>327.158297</ele>
        <time>2025-04-25T06:54:58.000Z</time>
      </trkpt>
      <trkpt lat="43.39733" lon="6.10757">
        <ele>327.158297</ele>
        <time>2025-04-25T06:54:58.000Z</time>
      </trkpt>
      <trkpt lat="43.39733" lon="6.1075">
        <ele>327.181646</ele>
        <time>2025-04-25T06:54:59.000Z</time>
      </trkpt>
      <trkpt lat="43.39732" lon="6.10742">
        <ele>327.206339</ele>
        <time>2025-04-25T06:55:00.000Z</time>
      </trkpt>
      <trkpt lat="43.3973" lon="6.10735">
        <ele>327.23112</ele>
        <time>2025-04-25T06:55:00.000Z</time>
      </trkpt>
      <trkpt lat="43.39728" lon="6.10726">
        <ele>327.258778</ele>
        <time>2025-04-25T06:55:02.000Z</time>
      </trkpt>
      <trkpt lat="43.39728" lon="6.10726">
        <ele>327.258778</ele>
        <time>2025-04-25T06:55:02.000Z</time>
      </trkpt>
      <trkpt lat="43.39725" lon="6.10718">
        <ele>327.287393</ele>
        <time>2025-04-25T06:55:03.000Z</time>
      </trkpt>
      <trkpt lat="43.39725" lon="6.10718">
        <ele>327.287393</ele>
        <time>2025-04-25T06:55:03.000Z</time>
      </trkpt>
      <trkpt lat="43.39723" lon="6.1071">
        <ele>327.31388</ele>
        <time>2025-04-25T06:55:04.000Z</time>
      </trkpt>
      <trkpt lat="43.39721" lon="6.10703">
        <ele>327.339766</ele>
        <time>2025-04-25T06:55:05.000Z</time>
      </trkpt>
      <trkpt lat="43.39719" lon="6.10695">
        <ele>327.364243</ele>
        <time>2025-04-25T06:55:05.000Z</time>
      </trkpt>
      <trkpt lat="43.39718" lon="6.10689">
        <ele>327.383219</ele>
        <time>2025-04-25T06:55:07.000Z</time>
      </trkpt>
      <trkpt lat="43.39717" lon="6.10685">
        <ele>327.398159</ele>
        <time>2025-04-25T06:55:07.000Z</time>
      </trkpt>
      <trkpt lat="43.39717" lon="6.10679">
        <ele>327.416178</ele>
        <time>2025-04-25T06:55:09.000Z</time>
      </trkpt>
      <trkpt lat="43.39717" lon="6.10674">
        <ele>327.430967</ele>
        <time>2025-04-25T06:55:10.000Z</time>
      </trkpt>
      <trkpt lat="43.39717" lon="6.10669">
        <ele>327.448588</ele>
        <time>2025-04-25T06:55:11.000Z</time>
      </trkpt>
      <trkpt lat="43.39717" lon="6.10669">
        <ele>327.448588</ele>
        <time>2025-04-25T06:55:11.000Z</time>
      </trkpt>
      <trkpt lat="43.39716" lon="6.10663">
        <ele>327.468174</ele>
        <time>2025-04-25T06:55:12.000Z</time>
      </trkpt>
      <trkpt lat="43.39716" lon="6.10663">
        <ele>327.468174</ele>
        <time>2025-04-25T06:55:12.000Z</time>
      </trkpt>
      <trkpt lat="43.39716" lon="6.10656">
        <ele>327.48885</ele>
        <time>2025-04-25T06:55:13.000Z</time>
      </trkpt>
      <trkpt lat="43.39716" lon="6.10656">
        <ele>327.48885</ele>
        <time>2025-04-25T06:55:13.000Z</time>
      </trkpt>
      <trkpt lat="43.39714" lon="6.1065">
        <ele>327.430418</ele>
        <time>2025-04-25T06:55:14.000Z</time>
      </trkpt>
      <trkpt lat="43.39714" lon="6.1065">
        <ele>327.430418</ele>
        <time>2025-04-25T06:55:14.000Z</time>
      </trkpt>
      <trkpt lat="43.39712" lon="6.10642">
        <ele>327.267931</ele>
        <time>2025-04-25T06:55:15.000Z</time>
      </trkpt>
      <trkpt lat="43.39712" lon="6.10642">
        <ele>327.267931</ele>
        <time>2025-04-25T06:55:15.000Z</time>
      </trkpt>
      <trkpt lat="43.39711" lon="6.10636">
        <ele>327.13012</ele>
        <time>2025-04-25T06:55:16.000Z</time>
      </trkpt>
      <trkpt lat="43.39711" lon="6.10636">
        <ele>327.13012</ele>
        <time>2025-04-25T06:55:16.000Z</time>
      </trkpt>
      <trkpt lat="43.39709" lon="6.10629">
        <ele>326.975498</ele>
        <time>2025-04-25T06:55:16.000Z</time>
      </trkpt>
      <trkpt lat="43.39709" lon="6.10629">
        <ele>326.975498</ele>
        <time>2025-04-25T06:55:16.000Z</time>
      </trkpt>
      <trkpt lat="43.39707" lon="6.10622">
        <ele>326.824788</ele>
        <time>2025-04-25T06:55:18.000Z</time>
      </trkpt>
      <trkpt lat="43.39707" lon="6.10622">
        <ele>326.824788</ele>
        <time>2025-04-25T06:55:18.000Z</time>
      </trkpt>
      <trkpt lat="43.39705" lon="6.10615">
        <ele>326.663805</ele>
        <time>2025-04-25T06:55:19.000Z</time>
      </trkpt>
      <trkpt lat="43.39705" lon="6.10615">
        <ele>326.663805</ele>
        <time>2025-04-25T06:55:19.000Z</time>
      </trkpt>
      <trkpt lat="43.39703" lon="6.10609">
        <ele>326.518896</ele>
        <time>2025-04-25T06:55:20.000Z</time>
      </trkpt>
      <trkpt lat="43.39703" lon="6.10609">
        <ele>326.518896</ele>
        <time>2025-04-25T06:55:20.000Z</time>
      </trkpt>
      <trkpt lat="43.39702" lon="6.10603">
        <ele>326.386933</ele>
        <time>2025-04-25T06:55:21.000Z</time>
      </trkpt>
      <trkpt lat="43.39702" lon="6.10603">
        <ele>326.386933</ele>
        <time>2025-04-25T06:55:21.000Z</time>
      </trkpt>
      <trkpt lat="43.39701" lon="6.10596">
        <ele>326.242997</ele>
        <time>2025-04-25T06:55:22.000Z</time>
      </trkpt>
      <trkpt lat="43.39701" lon="6.10596">
        <ele>326.242997</ele>
        <time>2025-04-25T06:55:22.000Z</time>
      </trkpt>
      <trkpt lat="43.39701" lon="6.1059">
        <ele>326.110982</ele>
        <time>2025-04-25T06:55:23.000Z</time>
      </trkpt>
      <trkpt lat="43.39701" lon="6.1059">
        <ele>326.110982</ele>
        <time>2025-04-25T06:55:23.000Z</time>
      </trkpt>
      <trkpt lat="43.39701" lon="6.10583">
        <ele>325.976871</ele>
        <time>2025-04-25T06:55:23.000Z</time>
      </trkpt>
      <trkpt lat="43.39701" lon="6.10576">
        <ele>325.825997</ele>
        <time>2025-04-25T06:55:25.000Z</time>
      </trkpt>
      <trkpt lat="43.39701" lon="6.10576">
        <ele>325.825997</ele>
        <time>2025-04-25T06:55:25.000Z</time>
      </trkpt>
      <trkpt lat="43.397" lon="6.1057">
        <ele>325.694295</ele>
        <time>2025-04-25T06:55:26.000Z</time>
      </trkpt>
      <trkpt lat="43.39698" lon="6.10565">
        <ele>325.57789</ele>
        <time>2025-04-25T06:55:27.000Z</time>
      </trkpt>
      <trkpt lat="43.39698" lon="6.10565">
        <ele>325.57789</ele>
        <time>2025-04-25T06:55:27.000Z</time>
      </trkpt>
      <trkpt lat="43.39696" lon="6.1056">
        <ele>325.455924</ele>
        <time>2025-04-25T06:55:28.000Z</time>
      </trkpt>
      <trkpt lat="43.39694" lon="6.10555">
        <ele>325.346864</ele>
        <time>2025-04-25T06:55:29.000Z</time>
      </trkpt>
      <trkpt lat="43.39694" lon="6.10555">
        <ele>325.346864</ele>
        <time>2025-04-25T06:55:29.000Z</time>
      </trkpt>
      <trkpt lat="43.39692" lon="6.10551">
        <ele>325.248471</ele>
        <time>2025-04-25T06:55:30.000Z</time>
      </trkpt>
      <trkpt lat="43.39691" lon="6.10547">
        <ele>325.13898</ele>
        <time>2025-04-25T06:55:31.000Z</time>
      </trkpt>
      <trkpt lat="43.39691" lon="6.10547">
        <ele>325.13898</ele>
        <time>2025-04-25T06:55:31.000Z</time>
      </trkpt>
      <trkpt lat="43.3969" lon="6.10542">
        <ele>325.029649</ele>
        <time>2025-04-25T06:55:32.000Z</time>
      </trkpt>
      <trkpt lat="43.3969" lon="6.10542">
        <ele>325.029649</ele>
        <time>2025-04-25T06:55:32.000Z</time>
      </trkpt>
      <trkpt lat="43.3969" lon="6.10536">
        <ele>324.908111</ele>
        <time>2025-04-25T06:55:33.000Z</time>
      </trkpt>
      <trkpt lat="43.3969" lon="6.10536">
        <ele>324.908111</ele>
        <time>2025-04-25T06:55:33.000Z</time>
      </trkpt>
      <trkpt lat="43.3969" lon="6.1053">
        <ele>324.790198</ele>
        <time>2025-04-25T06:55:34.000Z</time>
      </trkpt>
      <trkpt lat="43.3969" lon="6.1053">
        <ele>324.790198</ele>
        <time>2025-04-25T06:55:34.000Z</time>
      </trkpt>
      <trkpt lat="43.39689" lon="6.10524">
        <ele>324.6579</ele>
        <time>2025-04-25T06:55:35.000Z</time>
      </trkpt>
      <trkpt lat="43.39689" lon="6.10524">
        <ele>324.6579</ele>
        <time>2025-04-25T06:55:35.000Z</time>
      </trkpt>
      <trkpt lat="43.39689" lon="6.10518">
        <ele>324.542649</ele>
        <time>2025-04-25T06:55:36.000Z</time>
      </trkpt>
      <trkpt lat="43.39689" lon="6.10518">
        <ele>324.542649</ele>
        <time>2025-04-25T06:55:36.000Z</time>
      </trkpt>
      <trkpt lat="43.39689" lon="6.10513">
        <ele>324.425302</ele>
        <time>2025-04-25T06:55:37.000Z</time>
      </trkpt>
      <trkpt lat="43.39689" lon="6.10513">
        <ele>324.425302</ele>
        <time>2025-04-25T06:55:37.000Z</time>
      </trkpt>
      <trkpt lat="43.39689" lon="6.10508">
        <ele>324.32891</ele>
        <time>2025-04-25T06:55:38.000Z</time>
      </trkpt>
      <trkpt lat="43.39689" lon="6.10508">
        <ele>324.32891</ele>
        <time>2025-04-25T06:55:38.000Z</time>
      </trkpt>
      <trkpt lat="43.39689" lon="6.10503">
        <ele>324.215167</ele>
        <time>2025-04-25T06:55:39.000Z</time>
      </trkpt>
      <trkpt lat="43.39689" lon="6.10503">
        <ele>324.215167</ele>
        <time>2025-04-25T06:55:39.000Z</time>
      </trkpt>
      <trkpt lat="43.39689" lon="6.10498">
        <ele>324.106202</ele>
        <time>2025-04-25T06:55:40.000Z</time>
      </trkpt>
      <trkpt lat="43.39689" lon="6.10498">
        <ele>324.106202</ele>
        <time>2025-04-25T06:55:40.000Z</time>
      </trkpt>
      <trkpt lat="43.39689" lon="6.10492">
        <ele>323.998712</ele>
        <time>2025-04-25T06:55:41.000Z</time>
      </trkpt>
      <trkpt lat="43.39689" lon="6.10492">
        <ele>323.998712</ele>
        <time>2025-04-25T06:55:41.000Z</time>
      </trkpt>
      <trkpt lat="43.39688" lon="6.10488">
        <ele>323.903668</ele>
        <time>2025-04-25T06:55:42.000Z</time>
      </trkpt>
      <trkpt lat="43.39688" lon="6.10488">
        <ele>323.903668</ele>
        <time>2025-04-25T06:55:42.000Z</time>
      </trkpt>
      <trkpt lat="43.39687" lon="6.10483">
        <ele>323.802714</ele>
        <time>2025-04-25T06:55:43.000Z</time>
      </trkpt>
      <trkpt lat="43.39687" lon="6.10483">
        <ele>323.802714</ele>
        <time>2025-04-25T06:55:43.000Z</time>
      </trkpt>
      <trkpt lat="43.39687" lon="6.10479">
        <ele>323.712608</ele>
        <time>2025-04-25T06:55:44.000Z</time>
      </trkpt>
      <trkpt lat="43.39687" lon="6.10479">
        <ele>323.712608</ele>
        <time>2025-04-25T06:55:44.000Z</time>
      </trkpt>
      <trkpt lat="43.39688" lon="6.10474">
        <ele>323.607964</ele>
        <time>2025-04-25T06:55:45.000Z</time>
      </trkpt>
      <trkpt lat="43.3969" lon="6.10469">
        <ele>323.50231</ele>
        <time>2025-04-25T06:55:46.000Z</time>
      </trkpt>
      <trkpt lat="43.39691" lon="6.10464">
        <ele>323.383978</ele>
        <time>2025-04-25T06:55:47.000Z</time>
      </trkpt>
      <trkpt lat="43.39691" lon="6.10464">
        <ele>323.383978</ele>
        <time>2025-04-25T06:55:47.000Z</time>
      </trkpt>
      <trkpt lat="43.39693" lon="6.10459">
        <ele>323.260137</ele>
        <time>2025-04-25T06:55:48.000Z</time>
      </trkpt>
      <trkpt lat="43.39693" lon="6.10459">
        <ele>323.260137</ele>
        <time>2025-04-25T06:55:48.000Z</time>
      </trkpt>
      <trkpt lat="43.39695" lon="6.10454">
        <ele>323.140039</ele>
        <time>2025-04-25T06:55:49.000Z</time>
      </trkpt>
      <trkpt lat="43.39697" lon="6.10448">
        <ele>323.000965</ele>
        <time>2025-04-25T06:55:50.000Z</time>
      </trkpt>
      <trkpt lat="43.39697" lon="6.10448">
        <ele>323.000965</ele>
        <time>2025-04-25T06:55:50.000Z</time>
      </trkpt>
      <trkpt lat="43.39698" lon="6.10441">
        <ele>322.861114</ele>
        <time>2025-04-25T06:55:51.000Z</time>
      </trkpt>
      <trkpt lat="43.39698" lon="6.10441">
        <ele>322.861114</ele>
        <time>2025-04-25T06:55:51.000Z</time>
      </trkpt>
      <trkpt lat="43.39699" lon="6.10435">
        <ele>322.716515</ele>
        <time>2025-04-25T06:55:52.000Z</time>
      </trkpt>
      <trkpt lat="43.39699" lon="6.10435">
        <ele>322.716515</ele>
        <time>2025-04-25T06:55:52.000Z</time>
      </trkpt>
      <trkpt lat="43.397" lon="6.10427">
        <ele>322.558063</ele>
        <time>2025-04-25T06:55:53.000Z</time>
      </trkpt>
      <trkpt lat="43.397" lon="6.10427">
        <ele>322.558063</ele>
        <time>2025-04-25T06:55:53.000Z</time>
      </trkpt>
      <trkpt lat="43.397" lon="6.1042">
        <ele>322.408838</ele>
        <time>2025-04-25T06:55:54.000Z</time>
      </trkpt>
      <trkpt lat="43.397" lon="6.1042">
        <ele>322.408838</ele>
        <time>2025-04-25T06:55:54.000Z</time>
      </trkpt>
      <trkpt lat="43.397" lon="6.10414">
        <ele>322.011921</ele>
        <time>2025-04-25T06:55:55.000Z</time>
      </trkpt>
      <trkpt lat="43.397" lon="6.10414">
        <ele>322.011921</ele>
        <time>2025-04-25T06:55:55.000Z</time>
      </trkpt>
      <trkpt lat="43.397" lon="6.10407">
        <ele>320.981032</ele>
        <time>2025-04-25T06:55:56.000Z</time>
      </trkpt>
      <trkpt lat="43.397" lon="6.10407">
        <ele>320.981032</ele>
        <time>2025-04-25T06:55:56.000Z</time>
      </trkpt>
      <trkpt lat="43.397" lon="6.10402">
        <ele>320.116416</ele>
        <time>2025-04-25T06:55:57.000Z</time>
      </trkpt>
      <trkpt lat="43.397" lon="6.10402">
        <ele>320.116416</ele>
        <time>2025-04-25T06:55:57.000Z</time>
      </trkpt>
      <trkpt lat="43.39701" lon="6.10399">
        <ele>319.560134</ele>
        <time>2025-04-25T06:55:58.000Z</time>
      </trkpt>
      <trkpt lat="43.39701" lon="6.10399">
        <ele>319.560134</ele>
        <time>2025-04-25T06:55:58.000Z</time>
      </trkpt>
      <trkpt lat="43.39701" lon="6.10396">
        <ele>319.061317</ele>
        <time>2025-04-25T06:55:59.000Z</time>
      </trkpt>
      <trkpt lat="43.39701" lon="6.10396">
        <ele>319.061317</ele>
        <time>2025-04-25T06:55:59.000Z</time>
      </trkpt>
      <trkpt lat="43.397" lon="6.10393">
        <ele>318.554171</ele>
        <time>2025-04-25T06:56:00.000Z</time>
      </trkpt>
      <trkpt lat="43.397" lon="6.10393">
        <ele>318.554171</ele>
        <time>2025-04-25T06:56:00.000Z</time>
      </trkpt>
      <trkpt lat="43.397" lon="6.1039">
        <ele>318.112279</ele>
        <time>2025-04-25T06:56:01.000Z</time>
      </trkpt>
      <trkpt lat="43.397" lon="6.1039">
        <ele>318.112279</ele>
        <time>2025-04-25T06:56:01.000Z</time>
      </trkpt>
      <trkpt lat="43.39699" lon="6.10388">
        <ele>317.640468</ele>
        <time>2025-04-25T06:56:02.000Z</time>
      </trkpt>
      <trkpt lat="43.39699" lon="6.10388">
        <ele>317.640468</ele>
        <time>2025-04-25T06:56:02.000Z</time>
      </trkpt>
      <trkpt lat="43.39697" lon="6.10386">
        <ele>317.093091</ele>
        <time>2025-04-25T06:56:03.000Z</time>
      </trkpt>
      <trkpt lat="43.39697" lon="6.10386">
        <ele>317.093091</ele>
        <time>2025-04-25T06:56:03.000Z</time>
      </trkpt>
      <trkpt lat="43.39694" lon="6.10384">
        <ele>316.391433</ele>
        <time>2025-04-25T06:56:04.000Z</time>
      </trkpt>
      <trkpt lat="43.39694" lon="6.10384">
        <ele>316.391433</ele>
        <time>2025-04-25T06:56:04.000Z</time>
      </trkpt>
      <trkpt lat="43.39694" lon="6.10384">
        <ele>316.391433</ele>
        <time>2025-04-25T06:56:05.000Z</time>
      </trkpt>
      <trkpt lat="43.39689" lon="6.10381">
        <ele>315.011989</ele>
        <time>2025-04-25T06:56:06.000Z</time>
      </trkpt>
      <trkpt lat="43.39689" lon="6.10381">
        <ele>315.011989</ele>
        <time>2025-04-25T06:56:06.000Z</time>
      </trkpt>
      <trkpt lat="43.39688" lon="6.1038">
        <ele>314.715846</ele>
        <time>2025-04-25T06:56:07.000Z</time>
      </trkpt>
      <trkpt lat="43.39687" lon="6.10378">
        <ele>314.376385</ele>
        <time>2025-04-25T06:56:08.000Z</time>
      </trkpt>
      <trkpt lat="43.39687" lon="6.10378">
        <ele>314.376385</ele>
        <time>2025-04-25T06:56:08.000Z</time>
      </trkpt>
      <trkpt lat="43.39687" lon="6.10375">
        <ele>313.803695</ele>
        <time>2025-04-25T06:56:09.000Z</time>
      </trkpt>
      <trkpt lat="43.39687" lon="6.10375">
        <ele>313.803695</ele>
        <time>2025-04-25T06:56:09.000Z</time>
      </trkpt>
      <trkpt lat="43.39687" lon="6.10371">
        <ele>313.165263</ele>
        <time>2025-04-25T06:56:10.000Z</time>
      </trkpt>
      <trkpt lat="43.39687" lon="6.10371">
        <ele>313.165263</ele>
        <time>2025-04-25T06:56:10.000Z</time>
      </trkpt>
      <trkpt lat="43.39688" lon="6.10367">
        <ele>312.513438</ele>
        <time>2025-04-25T06:56:11.000Z</time>
      </trkpt>
      <trkpt lat="43.39688" lon="6.10367">
        <ele>312.513438</ele>
        <time>2025-04-25T06:56:11.000Z</time>
      </trkpt>
      <trkpt lat="43.39689" lon="6.10363">
        <ele>311.809229</ele>
        <time>2025-04-25T06:56:12.000Z</time>
      </trkpt>
      <trkpt lat="43.39689" lon="6.10363">
        <ele>311.809229</ele>
        <time>2025-04-25T06:56:12.000Z</time>
      </trkpt>
      <trkpt lat="43.3969" lon="6.10359">
        <ele>311.129098</ele>
        <time>2025-04-25T06:56:13.000Z</time>
      </trkpt>
      <trkpt lat="43.3969" lon="6.10359">
        <ele>311.129098</ele>
        <time>2025-04-25T06:56:13.000Z</time>
      </trkpt>
      <trkpt lat="43.39691" lon="6.10356">
        <ele>310.503148</ele>
        <time>2025-04-25T06:56:14.000Z</time>
      </trkpt>
      <trkpt lat="43.39691" lon="6.10356">
        <ele>310.503148</ele>
        <time>2025-04-25T06:56:14.000Z</time>
      </trkpt>
      <trkpt lat="43.39691" lon="6.10356">
        <ele>310.503148</ele>
        <time>2025-04-25T06:56:15.000Z</time>
      </trkpt>
      <trkpt lat="43.3969" lon="6.10348">
        <ele>309.258683</ele>
        <time>2025-04-25T06:56:16.000Z</time>
      </trkpt>
      <trkpt lat="43.3969" lon="6.10348">
        <ele>309.258683</ele>
        <time>2025-04-25T06:56:16.000Z</time>
      </trkpt>
      <trkpt lat="43.39688" lon="6.10347">
        <ele>308.884232</ele>
        <time>2025-04-25T06:56:17.000Z</time>
      </trkpt>
      <trkpt lat="43.39685" lon="6.10346">
        <ele>308.169325</ele>
        <time>2025-04-25T06:56:18.000Z</time>
      </trkpt>
      <trkpt lat="43.39685" lon="6.10346">
        <ele>308.169325</ele>
        <time>2025-04-25T06:56:18.000Z</time>
      </trkpt>
      <trkpt lat="43.39682" lon="6.10345">
        <ele>307.440717</ele>
        <time>2025-04-25T06:56:19.000Z</time>
      </trkpt>
      <trkpt lat="43.39682" lon="6.10345">
        <ele>307.440717</ele>
        <time>2025-04-25T06:56:19.000Z</time>
      </trkpt>
      <trkpt lat="43.39679" lon="6.10344">
        <ele>306.651396</ele>
        <time>2025-04-25T06:56:20.000Z</time>
      </trkpt>
      <trkpt lat="43.39679" lon="6.10344">
        <ele>306.651396</ele>
        <time>2025-04-25T06:56:20.000Z</time>
      </trkpt>
      <trkpt lat="43.39675" lon="6.10343">
        <ele>305.751212</ele>
        <time>2025-04-25T06:56:21.000Z</time>
      </trkpt>
      <trkpt lat="43.39675" lon="6.10343">
        <ele>305.751212</ele>
        <time>2025-04-25T06:56:21.000Z</time>
      </trkpt>
      <trkpt lat="43.39671" lon="6.10341">
        <ele>304.856388</ele>
        <time>2025-04-25T06:56:22.000Z</time>
      </trkpt>
      <trkpt lat="43.39671" lon="6.10341">
        <ele>304.856388</ele>
        <time>2025-04-25T06:56:22.000Z</time>
      </trkpt>
      <trkpt lat="43.39669" lon="6.10338">
        <ele>304.185716</ele>
        <time>2025-04-25T06:56:23.000Z</time>
      </trkpt>
      <trkpt lat="43.39669" lon="6.10338">
        <ele>304.185716</ele>
        <time>2025-04-25T06:56:23.000Z</time>
      </trkpt>
      <trkpt lat="43.39668" lon="6.10336">
        <ele>303.646631</ele>
        <time>2025-04-25T06:56:24.000Z</time>
      </trkpt>
      <trkpt lat="43.39668" lon="6.10336">
        <ele>303.646631</ele>
        <time>2025-04-25T06:56:24.000Z</time>
      </trkpt>
      <trkpt lat="43.39666" lon="6.10333">
        <ele>303.078435</ele>
        <time>2025-04-25T06:56:25.000Z</time>
      </trkpt>
      <trkpt lat="43.39666" lon="6.10333">
        <ele>303.078435</ele>
        <time>2025-04-25T06:56:25.000Z</time>
      </trkpt>
      <trkpt lat="43.39666" lon="6.10333">
        <ele>303.078435</ele>
        <time>2025-04-25T06:56:26.000Z</time>
      </trkpt>
      <trkpt lat="43.39661" lon="6.10331">
        <ele>301.843176</ele>
        <time>2025-04-25T06:56:27.000Z</time>
      </trkpt>
      <trkpt lat="43.39661" lon="6.10331">
        <ele>301.843176</ele>
        <time>2025-04-25T06:56:27.000Z</time>
      </trkpt>
      <trkpt lat="43.39661" lon="6.10331">
        <ele>301.843176</ele>
        <time>2025-04-25T06:56:28.000Z</time>
      </trkpt>
      <trkpt lat="43.39657" lon="6.1033">
        <ele>300.972182</ele>
        <time>2025-04-25T06:56:29.000Z</time>
      </trkpt>
      <trkpt lat="43.39657" lon="6.1033">
        <ele>300.972182</ele>
        <time>2025-04-25T06:56:29.000Z</time>
      </trkpt>
      <trkpt lat="43.39657" lon="6.1033">
        <ele>300.972182</ele>
        <time>2025-04-25T06:56:30.000Z</time>
      </trkpt>
      <trkpt lat="43.39653" lon="6.10329">
        <ele>300.168972</ele>
        <time>2025-04-25T06:56:31.000Z</time>
      </trkpt>
      <trkpt lat="43.39653" lon="6.10329">
        <ele>300.168972</ele>
        <time>2025-04-25T06:56:31.000Z</time>
      </trkpt>
      <trkpt lat="43.39653" lon="6.10328">
        <ele>299.932525</ele>
        <time>2025-04-25T06:56:32.000Z</time>
      </trkpt>
      <trkpt lat="43.3965" lon="6.10325">
        <ele>299.074057</ele>
        <time>2025-04-25T06:56:34.000Z</time>
      </trkpt>
      <trkpt lat="43.3965" lon="6.10325">
        <ele>299.074057</ele>
        <time>2025-04-25T06:56:34.000Z</time>
      </trkpt>
      <trkpt lat="43.3965" lon="6.10325">
        <ele>299.074057</ele>
        <time>2025-04-25T06:56:35.000Z</time>
      </trkpt>
      <trkpt lat="43.3965" lon="6.10325">
        <ele>299.074057</ele>
        <time>2025-04-25T06:56:36.000Z</time>
      </trkpt>
      <trkpt lat="43.3965" lon="6.10325">
        <ele>299.074057</ele>
        <time>2025-04-25T06:56:37.000Z</time>
      </trkpt>
      <trkpt lat="43.3965" lon="6.10325">
        <ele>299.074057</ele>
        <time>2025-04-25T06:56:39.000Z</time>
      </trkpt>
      <trkpt lat="43.39638" lon="6.10319">
        <ele>296.195424</ele>
        <time>2025-04-25T06:56:39.000Z</time>
      </trkpt>
      <trkpt lat="43.39638" lon="6.10319">
        <ele>296.195424</ele>
        <time>2025-04-25T06:56:39.000Z</time>
      </trkpt>
      <trkpt lat="43.39638" lon="6.10319">
        <ele>296.195424</ele>
        <time>2025-04-25T06:56:41.000Z</time>
      </trkpt>
      <trkpt lat="43.39636" lon="6.10318">
        <ele>295.729932</ele>
        <time>2025-04-25T06:56:42.000Z</time>
      </trkpt>
      <trkpt lat="43.39636" lon="6.10318">
        <ele>295.729932</ele>
        <time>2025-04-25T06:56:42.000Z</time>
      </trkpt>
      <trkpt lat="43.39636" lon="6.10318">
        <ele>295.729932</ele>
        <time>2025-04-25T06:56:43.000Z</time>
      </trkpt>
      <trkpt lat="43.39633" lon="6.10318">
        <ele>295.111189</ele>
        <time>2025-04-25T06:56:44.000Z</time>
      </trkpt>
      <trkpt lat="43.39633" lon="6.10318">
        <ele>295.111189</ele>
        <time>2025-04-25T06:56:44.000Z</time>
      </trkpt>
      <trkpt lat="43.39633" lon="6.10318">
        <ele>295.111189</ele>
        <time>2025-04-25T06:56:45.000Z</time>
      </trkpt>
      <trkpt lat="43.3963" lon="6.10317">
        <ele>294.38258</ele>
        <time>2025-04-25T06:56:46.000Z</time>
      </trkpt>
      <trkpt lat="43.3963" lon="6.10317">
        <ele>294.38258</ele>
        <time>2025-04-25T06:56:46.000Z</time>
      </trkpt>
      <trkpt lat="43.39629" lon="6.10317">
        <ele>294.032947</ele>
        <time>2025-04-25T06:56:46.000Z</time>
      </trkpt>
      <trkpt lat="43.39624" lon="6.10315">
        <ele>292.947217</ele>
        <time>2025-04-25T06:56:49.000Z</time>
      </trkpt>
      <trkpt lat="43.39624" lon="6.10315">
        <ele>292.947217</ele>
        <time>2025-04-25T06:56:49.000Z</time>
      </trkpt>
      <trkpt lat="43.39624" lon="6.10315">
        <ele>292.947217</ele>
        <time>2025-04-25T06:56:50.000Z</time>
      </trkpt>
      <trkpt lat="43.3962" lon="6.10313">
        <ele>291.949977</ele>
        <time>2025-04-25T06:56:51.000Z</time>
      </trkpt>
      <trkpt lat="43.3962" lon="6.10313">
        <ele>291.949977</ele>
        <time>2025-04-25T06:56:51.000Z</time>
      </trkpt>
      <trkpt lat="43.39618" lon="6.10313">
        <ele>291.60512</ele>
        <time>2025-04-25T06:56:52.000Z</time>
      </trkpt>
      <trkpt lat="43.39616" lon="6.10313">
        <ele>291.167486</ele>
        <time>2025-04-25T06:56:53.000Z</time>
      </trkpt>
      <trkpt lat="43.39612" lon="6.10312">
        <ele>290.189139</ele>
        <time>2025-04-25T06:57:05.000Z</time>
      </trkpt>
      <trkpt lat="43.3961" lon="6.10311">
        <ele>289.560422</ele>
        <time>2025-04-25T06:57:06.000Z</time>
      </trkpt>
      <trkpt lat="43.39608" lon="6.10312">
        <ele>289.202968</ele>
        <time>2025-04-25T06:57:08.000Z</time>
      </trkpt>
      <trkpt lat="43.39607" lon="6.10312">
        <ele>289.016906</ele>
        <time>2025-04-25T06:57:08.000Z</time>
      </trkpt>
      <trkpt lat="43.39605" lon="6.10312">
        <ele>288.579271</ele>
        <time>2025-04-25T06:57:09.000Z</time>
      </trkpt>
      <trkpt lat="43.39603" lon="6.10312">
        <ele>288.050597</ele>
        <time>2025-04-25T06:57:10.000Z</time>
      </trkpt>
      <trkpt lat="43.39597" lon="6.10311">
        <ele>286.743603</ele>
        <time>2025-04-25T06:57:12.000Z</time>
      </trkpt>
      <trkpt lat="43.39597" lon="6.10311">
        <ele>286.743603</ele>
        <time>2025-04-25T06:57:12.000Z</time>
      </trkpt>
      <trkpt lat="43.39596" lon="6.10311">
        <ele>286.396748</ele>
        <time>2025-04-25T06:57:14.000Z</time>
      </trkpt>
      <trkpt lat="43.39596" lon="6.10311">
        <ele>286.396748</ele>
        <time>2025-04-25T06:57:14.000Z</time>
      </trkpt>
      <trkpt lat="43.39596" lon="6.10311">
        <ele>286.396748</ele>
        <time>2025-04-25T06:57:14.000Z</time>
      </trkpt>
      <trkpt lat="43.39592" lon="6.10309">
        <ele>285.432932</ele>
        <time>2025-04-25T06:57:15.000Z</time>
      </trkpt>
      <trkpt lat="43.39592" lon="6.10309">
        <ele>285.432932</ele>
        <time>2025-04-25T06:57:15.000Z</time>
      </trkpt>
      <trkpt lat="43.39591" lon="6.10308">
        <ele>285.075478</ele>
        <time>2025-04-25T06:57:16.000Z</time>
      </trkpt>
      <trkpt lat="43.39591" lon="6.10308">
        <ele>285.075478</ele>
        <time>2025-04-25T06:57:16.000Z</time>
      </trkpt>
      <trkpt lat="43.39589" lon="6.10307">
        <ele>284.770357</ele>
        <time>2025-04-25T06:57:18.000Z</time>
      </trkpt>
      <trkpt lat="43.39588" lon="6.10306">
        <ele>284.459206</ele>
        <time>2025-04-25T06:57:18.000Z</time>
      </trkpt>
      <trkpt lat="43.39587" lon="6.10304">
        <ele>283.905265</ele>
        <time>2025-04-25T06:57:19.000Z</time>
      </trkpt>
      <trkpt lat="43.39587" lon="6.10304">
        <ele>283.905265</ele>
        <time>2025-04-25T06:57:19.000Z</time>
      </trkpt>
      <trkpt lat="43.39585" lon="6.10301">
        <ele>283.353253</ele>
        <time>2025-04-25T06:57:21.000Z</time>
      </trkpt>
      <trkpt lat="43.39585" lon="6.10301">
        <ele>283.353253</ele>
        <time>2025-04-25T06:57:21.000Z</time>
      </trkpt>
      <trkpt lat="43.39584" lon="6.10299">
        <ele>282.922803</ele>
        <time>2025-04-25T06:57:21.000Z</time>
      </trkpt>
      <trkpt lat="43.39584" lon="6.10299">
        <ele>282.922803</ele>
        <time>2025-04-25T06:57:21.000Z</time>
      </trkpt>
      <trkpt lat="43.39583" lon="6.10297">
        <ele>282.451995</ele>
        <time>2025-04-25T06:57:23.000Z</time>
      </trkpt>
      <trkpt lat="43.39583" lon="6.10297">
        <ele>282.451995</ele>
        <time>2025-04-25T06:57:23.000Z</time>
      </trkpt>
      <trkpt lat="43.39582" lon="6.10295">
        <ele>282.082876</ele>
        <time>2025-04-25T06:57:23.000Z</time>
      </trkpt>
      <trkpt lat="43.39582" lon="6.10295">
        <ele>282.082876</ele>
        <time>2025-04-25T06:57:23.000Z</time>
      </trkpt>
      <trkpt lat="43.39581" lon="6.10292">
        <ele>281.638656</ele>
        <time>2025-04-25T06:57:24.000Z</time>
      </trkpt>
      <trkpt lat="43.39581" lon="6.10292">
        <ele>281.638656</ele>
        <time>2025-04-25T06:57:24.000Z</time>
      </trkpt>
      <trkpt lat="43.3958" lon="6.1029">
        <ele>281.177618</ele>
        <time>2025-04-25T06:57:25.000Z</time>
      </trkpt>
      <trkpt lat="43.3958" lon="6.1029">
        <ele>281.177618</ele>
        <time>2025-04-25T06:57:25.000Z</time>
      </trkpt>
      <trkpt lat="43.3958" lon="6.1029">
        <ele>281.177618</ele>
        <time>2025-04-25T06:57:26.000Z</time>
      </trkpt>
      <trkpt lat="43.39578" lon="6.10284">
        <ele>280.811325</ele>
        <time>2025-04-25T06:57:27.000Z</time>
      </trkpt>
      <trkpt lat="43.39578" lon="6.10284">
        <ele>280.811325</ele>
        <time>2025-04-25T06:57:27.000Z</time>
      </trkpt>
      <trkpt lat="43.39578" lon="6.10282">
        <ele>280.727439</ele>
        <time>2025-04-25T06:57:29.000Z</time>
      </trkpt>
      <trkpt lat="43.39578" lon="6.10282">
        <ele>280.727439</ele>
        <time>2025-04-25T06:57:29.000Z</time>
      </trkpt>
      <trkpt lat="43.39577" lon="6.10279">
        <ele>280.581099</ele>
        <time>2025-04-25T06:57:30.000Z</time>
      </trkpt>
      <trkpt lat="43.39577" lon="6.10279">
        <ele>280.581099</ele>
        <time>2025-04-25T06:57:30.000Z</time>
      </trkpt>
      <trkpt lat="43.39577" lon="6.10275">
        <ele>280.397665</ele>
        <time>2025-04-25T06:57:30.000Z</time>
      </trkpt>
      <trkpt lat="43.39577" lon="6.10275">
        <ele>280.397665</ele>
        <time>2025-04-25T06:57:30.000Z</time>
      </trkpt>
      <trkpt lat="43.39577" lon="6.1027">
        <ele>280.134909</ele>
        <time>2025-04-25T06:57:32.000Z</time>
      </trkpt>
      <trkpt lat="43.39577" lon="6.1027">
        <ele>280.134909</ele>
        <time>2025-04-25T06:57:32.000Z</time>
      </trkpt>
      <trkpt lat="43.39578" lon="6.10264">
        <ele>279.841136</ele>
        <time>2025-04-25T06:57:33.000Z</time>
      </trkpt>
      <trkpt lat="43.39578" lon="6.10264">
        <ele>279.841136</ele>
        <time>2025-04-25T06:57:33.000Z</time>
      </trkpt>
      <trkpt lat="43.39578" lon="6.10258">
        <ele>279.532551</ele>
        <time>2025-04-25T06:57:33.000Z</time>
      </trkpt>
      <trkpt lat="43.39578" lon="6.10258">
        <ele>279.532551</ele>
        <time>2025-04-25T06:57:33.000Z</time>
      </trkpt>
      <trkpt lat="43.39578" lon="6.10253">
        <ele>279.268999</ele>
        <time>2025-04-25T06:57:35.000Z</time>
      </trkpt>
      <trkpt lat="43.39578" lon="6.10253">
        <ele>279.268999</ele>
        <time>2025-04-25T06:57:35.000Z</time>
      </trkpt>
      <trkpt lat="43.39578" lon="6.10247">
        <ele>279.006814</ele>
        <time>2025-04-25T06:57:35.000Z</time>
      </trkpt>
      <trkpt lat="43.39578" lon="6.10247">
        <ele>279.006814</ele>
        <time>2025-04-25T06:57:35.000Z</time>
      </trkpt>
      <trkpt lat="43.39576" lon="6.10243">
        <ele>278.761364</ele>
        <time>2025-04-25T06:57:37.000Z</time>
      </trkpt>
      <trkpt lat="43.39576" lon="6.10243">
        <ele>278.761364</ele>
        <time>2025-04-25T06:57:37.000Z</time>
      </trkpt>
      <trkpt lat="43.39574" lon="6.1024">
        <ele>278.582014</ele>
        <time>2025-04-25T06:57:37.000Z</time>
      </trkpt>
      <trkpt lat="43.39574" lon="6.1024">
        <ele>278.582014</ele>
        <time>2025-04-25T06:57:37.000Z</time>
      </trkpt>
      <trkpt lat="43.39571" lon="6.10238">
        <ele>278.365362</ele>
        <time>2025-04-25T06:57:38.000Z</time>
      </trkpt>
      <trkpt lat="43.39571" lon="6.10238">
        <ele>278.365362</ele>
        <time>2025-04-25T06:57:38.000Z</time>
      </trkpt>
      <trkpt lat="43.39568" lon="6.10236">
        <ele>278.137679</ele>
        <time>2025-04-25T06:57:40.000Z</time>
      </trkpt>
      <trkpt lat="43.39568" lon="6.10236">
        <ele>278.137679</ele>
        <time>2025-04-25T06:57:40.000Z</time>
      </trkpt>
      <trkpt lat="43.39566" lon="6.10236">
        <ele>277.974533</ele>
        <time>2025-04-25T06:57:41.000Z</time>
      </trkpt>
      <trkpt lat="43.39566" lon="6.10236">
        <ele>277.974533</ele>
        <time>2025-04-25T06:57:41.000Z</time>
      </trkpt>
      <trkpt lat="43.39564" lon="6.10236">
        <ele>277.824103</ele>
        <time>2025-04-25T06:57:42.000Z</time>
      </trkpt>
      <trkpt lat="43.39564" lon="6.10236">
        <ele>277.824103</ele>
        <time>2025-04-25T06:57:42.000Z</time>
      </trkpt>
      <trkpt lat="43.39561" lon="6.10237">
        <ele>277.621522</ele>
        <time>2025-04-25T06:57:43.000Z</time>
      </trkpt>
      <trkpt lat="43.39561" lon="6.10237">
        <ele>277.621522</ele>
        <time>2025-04-25T06:57:43.000Z</time>
      </trkpt>
      <trkpt lat="43.39558" lon="6.10242">
        <ele>277.299421</ele>
        <time>2025-04-25T06:57:45.000Z</time>
      </trkpt>
      <trkpt lat="43.39558" lon="6.10242">
        <ele>277.299421</ele>
        <time>2025-04-25T06:57:45.000Z</time>
      </trkpt>
      <trkpt lat="43.39557" lon="6.10244">
        <ele>277.215168</ele>
        <time>2025-04-25T06:57:46.000Z</time>
      </trkpt>
      <trkpt lat="43.39557" lon="6.10244">
        <ele>277.215168</ele>
        <time>2025-04-25T06:57:46.000Z</time>
      </trkpt>
      <trkpt lat="43.39557" lon="6.10246">
        <ele>277.110561</ele>
        <time>2025-04-25T06:57:46.000Z</time>
      </trkpt>
      <trkpt lat="43.39557" lon="6.10246">
        <ele>277.110561</ele>
        <time>2025-04-25T06:57:46.000Z</time>
      </trkpt>
      <trkpt lat="43.39556" lon="6.10248">
        <ele>276.97058</ele>
        <time>2025-04-25T06:57:48.000Z</time>
      </trkpt>
      <trkpt lat="43.39556" lon="6.10248">
        <ele>276.97058</ele>
        <time>2025-04-25T06:57:48.000Z</time>
      </trkpt>
      <trkpt lat="43.39554" lon="6.10251">
        <ele>276.798117</ele>
        <time>2025-04-25T06:57:49.000Z</time>
      </trkpt>
      <trkpt lat="43.39552" lon="6.10254">
        <ele>276.597057</ele>
        <time>2025-04-25T06:57:50.000Z</time>
      </trkpt>
      <trkpt lat="43.39552" lon="6.10254">
        <ele>276.597057</ele>
        <time>2025-04-25T06:57:50.000Z</time>
      </trkpt>
      <trkpt lat="43.3955" lon="6.10258">
        <ele>276.368372</ele>
        <time>2025-04-25T06:57:51.000Z</time>
      </trkpt>
      <trkpt lat="43.39548" lon="6.10262">
        <ele>276.126972</ele>
        <time>2025-04-25T06:57:52.000Z</time>
      </trkpt>
      <trkpt lat="43.39548" lon="6.10262">
        <ele>276.126972</ele>
        <time>2025-04-25T06:57:52.000Z</time>
      </trkpt>
      <trkpt lat="43.39545" lon="6.10265">
        <ele>275.887063</ele>
        <time>2025-04-25T06:57:52.000Z</time>
      </trkpt>
      <trkpt lat="43.39542" lon="6.10268">
        <ele>275.603197</ele>
        <time>2025-04-25T06:57:54.000Z</time>
      </trkpt>
      <trkpt lat="43.39539" lon="6.10271">
        <ele>275.32216</ele>
        <time>2025-04-25T06:57:55.000Z</time>
      </trkpt>
      <trkpt lat="43.39535" lon="6.10274">
        <ele>275.038178</ele>
        <time>2025-04-25T06:57:55.000Z</time>
      </trkpt>
      <trkpt lat="43.39532" lon="6.10278">
        <ele>274.748484</ele>
        <time>2025-04-25T06:57:57.000Z</time>
      </trkpt>
      <trkpt lat="43.39528" lon="6.10281">
        <ele>274.436507</ele>
        <time>2025-04-25T06:57:58.000Z</time>
      </trkpt>
      <trkpt lat="43.39525" lon="6.10285">
        <ele>274.152641</ele>
        <time>2025-04-25T06:57:58.000Z</time>
      </trkpt>
      <trkpt lat="43.39521" lon="6.10287">
        <ele>273.854777</ele>
        <time>2025-04-25T06:58:00.000Z</time>
      </trkpt>
      <trkpt lat="43.39517" lon="6.1029">
        <ele>273.594065</ele>
        <time>2025-04-25T06:58:01.000Z</time>
      </trkpt>
      <trkpt lat="43.39513" lon="6.10292">
        <ele>273.310829</ele>
        <time>2025-04-25T06:58:02.000Z</time>
      </trkpt>
      <trkpt lat="43.3951" lon="6.10294">
        <ele>273.031437</ele>
        <time>2025-04-25T06:58:02.000Z</time>
      </trkpt>
      <trkpt lat="43.39506" lon="6.10296">
        <ele>272.75724</ele>
        <time>2025-04-25T06:58:04.000Z</time>
      </trkpt>
      <trkpt lat="43.39502" lon="6.10298">
        <ele>272.452353</ele>
        <time>2025-04-25T06:58:05.000Z</time>
      </trkpt>
      <trkpt lat="43.39497" lon="6.10301">
        <ele>272.13607</ele>
        <time>2025-04-25T06:58:05.000Z</time>
      </trkpt>
      <trkpt lat="43.39494" lon="6.10304">
        <ele>271.837169</ele>
        <time>2025-04-25T06:58:07.000Z</time>
      </trkpt>
      <trkpt lat="43.39491" lon="6.10307">
        <ele>271.581421</ele>
        <time>2025-04-25T06:58:08.000Z</time>
      </trkpt>
      <trkpt lat="43.39487" lon="6.1031">
        <ele>271.274848</ele>
        <time>2025-04-25T06:58:09.000Z</time>
      </trkpt>
      <trkpt lat="43.39483" lon="6.10314">
        <ele>270.979107</ele>
        <time>2025-04-25T06:58:10.000Z</time>
      </trkpt>
      <trkpt lat="43.39479" lon="6.10317">
        <ele>270.661437</ele>
        <time>2025-04-25T06:58:11.000Z</time>
      </trkpt>
      <trkpt lat="43.39479" lon="6.10317">
        <ele>270.661437</ele>
        <time>2025-04-25T06:58:11.000Z</time>
      </trkpt>
      <trkpt lat="43.39476" lon="6.10321">
        <ele>270.335022</ele>
        <time>2025-04-25T06:58:12.000Z</time>
      </trkpt>
      <trkpt lat="43.39472" lon="6.10325">
        <ele>270.03618</ele>
        <time>2025-04-25T06:58:13.000Z</time>
      </trkpt>
      <trkpt lat="43.39469" lon="6.10328">
        <ele>269.746485</ele>
        <time>2025-04-25T06:58:14.000Z</time>
      </trkpt>
      <trkpt lat="43.39469" lon="6.10328">
        <ele>269.746485</ele>
        <time>2025-04-25T06:58:14.000Z</time>
      </trkpt>
      <trkpt lat="43.39466" lon="6.10332">
        <ele>269.500106</ele>
        <time>2025-04-25T06:58:15.000Z</time>
      </trkpt>
      <trkpt lat="43.39463" lon="6.10335">
        <ele>269.216859</ele>
        <time>2025-04-25T06:58:16.000Z</time>
      </trkpt>
      <trkpt lat="43.3946" lon="6.1034">
        <ele>268.921319</ele>
        <time>2025-04-25T06:58:17.000Z</time>
      </trkpt>
      <trkpt lat="43.3946" lon="6.1034">
        <ele>268.921319</ele>
        <time>2025-04-25T06:58:17.000Z</time>
      </trkpt>
      <trkpt lat="43.39457" lon="6.10344">
        <ele>269.006305</ele>
        <time>2025-04-25T06:58:18.000Z</time>
      </trkpt>
      <trkpt lat="43.39457" lon="6.10344">
        <ele>269.006305</ele>
        <time>2025-04-25T06:58:18.000Z</time>
      </trkpt>
      <trkpt lat="43.39454" lon="6.10349">
        <ele>269.143223</ele>
        <time>2025-04-25T06:58:19.000Z</time>
      </trkpt>
      <trkpt lat="43.39454" lon="6.10349">
        <ele>269.143223</ele>
        <time>2025-04-25T06:58:19.000Z</time>
      </trkpt>
      <trkpt lat="43.39452" lon="6.10354">
        <ele>269.274007</ele>
        <time>2025-04-25T06:58:20.000Z</time>
      </trkpt>
      <trkpt lat="43.39452" lon="6.10354">
        <ele>269.274007</ele>
        <time>2025-04-25T06:58:20.000Z</time>
      </trkpt>
      <trkpt lat="43.39449" lon="6.1036">
        <ele>269.420183</ele>
        <time>2025-04-25T06:58:21.000Z</time>
      </trkpt>
      <trkpt lat="43.39449" lon="6.1036">
        <ele>269.420183</ele>
        <time>2025-04-25T06:58:21.000Z</time>
      </trkpt>
      <trkpt lat="43.39447" lon="6.10366">
        <ele>269.574259</ele>
        <time>2025-04-25T06:58:22.000Z</time>
      </trkpt>
      <trkpt lat="43.39447" lon="6.10366">
        <ele>269.574259</ele>
        <time>2025-04-25T06:58:22.000Z</time>
      </trkpt>
      <trkpt lat="43.39445" lon="6.10372">
        <ele>269.73233</ele>
        <time>2025-04-25T06:58:23.000Z</time>
      </trkpt>
      <trkpt lat="43.39445" lon="6.10372">
        <ele>269.73233</ele>
        <time>2025-04-25T06:58:23.000Z</time>
      </trkpt>
      <trkpt lat="43.39442" lon="6.10376">
        <ele>269.85024</ele>
        <time>2025-04-25T06:58:24.000Z</time>
      </trkpt>
      <trkpt lat="43.39442" lon="6.10376">
        <ele>269.85024</ele>
        <time>2025-04-25T06:58:24.000Z</time>
      </trkpt>
      <trkpt lat="43.39439" lon="6.10381">
        <ele>269.995616</ele>
        <time>2025-04-25T06:58:25.000Z</time>
      </trkpt>
      <trkpt lat="43.39439" lon="6.10381">
        <ele>269.995616</ele>
        <time>2025-04-25T06:58:25.000Z</time>
      </trkpt>
      <trkpt lat="43.39436" lon="6.10386">
        <ele>270.142725</ele>
        <time>2025-04-25T06:58:26.000Z</time>
      </trkpt>
      <trkpt lat="43.39433" lon="6.10389">
        <ele>270.278898</ele>
        <time>2025-04-25T06:58:27.000Z</time>
      </trkpt>
      <trkpt lat="43.39433" lon="6.10389">
        <ele>270.278898</ele>
        <time>2025-04-25T06:58:27.000Z</time>
      </trkpt>
      <trkpt lat="43.39429" lon="6.10394">
        <ele>270.432428</ele>
        <time>2025-04-25T06:58:28.000Z</time>
      </trkpt>
      <trkpt lat="43.39429" lon="6.10394">
        <ele>270.432428</ele>
        <time>2025-04-25T06:58:28.000Z</time>
      </trkpt>
      <trkpt lat="43.39426" lon="6.10398">
        <ele>270.563542</ele>
        <time>2025-04-25T06:58:29.000Z</time>
      </trkpt>
      <trkpt lat="43.39426" lon="6.10398">
        <ele>270.563542</ele>
        <time>2025-04-25T06:58:29.000Z</time>
      </trkpt>
      <trkpt lat="43.39423" lon="6.10403">
        <ele>270.700461</ele>
        <time>2025-04-25T06:58:30.000Z</time>
      </trkpt>
      <trkpt lat="43.3942" lon="6.10407">
        <ele>270.827874</ele>
        <time>2025-04-25T06:58:31.000Z</time>
      </trkpt>
      <trkpt lat="43.3942" lon="6.10407">
        <ele>270.827874</ele>
        <time>2025-04-25T06:58:31.000Z</time>
      </trkpt>
      <trkpt lat="43.39417" lon="6.10412">
        <ele>270.966452</ele>
        <time>2025-04-25T06:58:32.000Z</time>
      </trkpt>
      <trkpt lat="43.39415" lon="6.10414">
        <ele>271.060018</ele>
        <time>2025-04-25T06:58:33.000Z</time>
      </trkpt>
      <trkpt lat="43.39411" lon="6.10414">
        <ele>271.164946</ele>
        <time>2025-04-25T06:58:34.000Z</time>
      </trkpt>
      <trkpt lat="43.39405" lon="6.10412">
        <ele>271.369088</ele>
        <time>2025-04-25T06:58:36.000Z</time>
      </trkpt>
      <trkpt lat="43.39405" lon="6.10412">
        <ele>271.369088</ele>
        <time>2025-04-25T06:58:36.000Z</time>
      </trkpt>
      <trkpt lat="43.39403" lon="6.10411">
        <ele>271.437816</ele>
        <time>2025-04-25T06:58:37.000Z</time>
      </trkpt>
      <trkpt lat="43.39403" lon="6.10411">
        <ele>271.437816</ele>
        <time>2025-04-25T06:58:37.000Z</time>
      </trkpt>
      <trkpt lat="43.394" lon="6.10409">
        <ele>271.542521</ele>
        <time>2025-04-25T06:58:38.000Z</time>
      </trkpt>
      <trkpt lat="43.39396" lon="6.10406">
        <ele>271.686513</ele>
        <time>2025-04-25T06:58:39.000Z</time>
      </trkpt>
      <trkpt lat="43.39392" lon="6.10403">
        <ele>271.819507</ele>
        <time>2025-04-25T06:58:40.000Z</time>
      </trkpt>
      <trkpt lat="43.39392" lon="6.10403">
        <ele>271.819507</ele>
        <time>2025-04-25T06:58:40.000Z</time>
      </trkpt>
      <trkpt lat="43.39388" lon="6.104">
        <ele>271.951458</ele>
        <time>2025-04-25T06:58:41.000Z</time>
      </trkpt>
      <trkpt lat="43.39385" lon="6.10398">
        <ele>272.070397</ele>
        <time>2025-04-25T06:58:42.000Z</time>
      </trkpt>
      <trkpt lat="43.39381" lon="6.10396">
        <ele>272.190067</ele>
        <time>2025-04-25T06:58:43.000Z</time>
      </trkpt>
      <trkpt lat="43.39381" lon="6.10396">
        <ele>272.190067</ele>
        <time>2025-04-25T06:58:43.000Z</time>
      </trkpt>
      <trkpt lat="43.39378" lon="6.10394">
        <ele>272.298945</ele>
        <time>2025-04-25T06:58:44.000Z</time>
      </trkpt>
      <trkpt lat="43.39372" lon="6.10397">
        <ele>272.471812</ele>
        <time>2025-04-25T06:58:46.000Z</time>
      </trkpt>
      <trkpt lat="43.39372" lon="6.10397">
        <ele>272.471812</ele>
        <time>2025-04-25T06:58:46.000Z</time>
      </trkpt>
      <trkpt lat="43.39371" lon="6.104">
        <ele>272.557062</ele>
        <time>2025-04-25T06:58:47.000Z</time>
      </trkpt>
      <trkpt lat="43.3937" lon="6.10404">
        <ele>272.647129</ele>
        <time>2025-04-25T06:58:48.000Z</time>
      </trkpt>
      <trkpt lat="43.3937" lon="6.10404">
        <ele>272.647129</ele>
        <time>2025-04-25T06:58:48.000Z</time>
      </trkpt>
      <trkpt lat="43.39369" lon="6.10408">
        <ele>272.75882</ele>
        <time>2025-04-25T06:58:49.000Z</time>
      </trkpt>
      <trkpt lat="43.39369" lon="6.10408">
        <ele>272.75882</ele>
        <time>2025-04-25T06:58:49.000Z</time>
      </trkpt>
      <trkpt lat="43.39367" lon="6.10413">
        <ele>272.883341</ele>
        <time>2025-04-25T06:58:50.000Z</time>
      </trkpt>
      <trkpt lat="43.39364" lon="6.10417">
        <ele>273.006152</ele>
        <time>2025-04-25T06:58:51.000Z</time>
      </trkpt>
      <trkpt lat="43.39364" lon="6.10417">
        <ele>273.006152</ele>
        <time>2025-04-25T06:58:51.000Z</time>
      </trkpt>
      <trkpt lat="43.39361" lon="6.10419">
        <ele>273.109965</ele>
        <time>2025-04-25T06:58:52.000Z</time>
      </trkpt>
      <trkpt lat="43.39361" lon="6.10419">
        <ele>273.109965</ele>
        <time>2025-04-25T06:58:52.000Z</time>
      </trkpt>
      <trkpt lat="43.39357" lon="6.1042">
        <ele>273.217729</ele>
        <time>2025-04-25T06:58:53.000Z</time>
      </trkpt>
      <trkpt lat="43.39353" lon="6.10419">
        <ele>273.362186</ele>
        <time>2025-04-25T06:58:54.000Z</time>
      </trkpt>
      <trkpt lat="43.39353" lon="6.10419">
        <ele>273.362186</ele>
        <time>2025-04-25T06:58:54.000Z</time>
      </trkpt>
      <trkpt lat="43.39349" lon="6.10418">
        <ele>273.493699</ele>
        <time>2025-04-25T06:58:55.000Z</time>
      </trkpt>
      <trkpt lat="43.39349" lon="6.10418">
        <ele>273.493699</ele>
        <time>2025-04-25T06:58:55.000Z</time>
      </trkpt>
      <trkpt lat="43.39344" lon="6.10419">
        <ele>273.640657</ele>
        <time>2025-04-25T06:58:56.000Z</time>
      </trkpt>
      <trkpt lat="43.39344" lon="6.10419">
        <ele>273.640657</ele>
        <time>2025-04-25T06:58:56.000Z</time>
      </trkpt>
      <trkpt lat="43.3934" lon="6.10422">
        <ele>273.787706</ele>
        <time>2025-04-25T06:58:57.000Z</time>
      </trkpt>
      <trkpt lat="43.3934" lon="6.10422">
        <ele>273.787706</ele>
        <time>2025-04-25T06:58:57.000Z</time>
      </trkpt>
      <trkpt lat="43.39336" lon="6.10427">
        <ele>273.938085</ele>
        <time>2025-04-25T06:58:58.000Z</time>
      </trkpt>
      <trkpt lat="43.39336" lon="6.10427">
        <ele>273.938085</ele>
        <time>2025-04-25T06:58:58.000Z</time>
      </trkpt>
      <trkpt lat="43.39332" lon="6.10431">
        <ele>274.091311</ele>
        <time>2025-04-25T06:58:59.000Z</time>
      </trkpt>
      <trkpt lat="43.39332" lon="6.10431">
        <ele>274.091311</ele>
        <time>2025-04-25T06:58:59.000Z</time>
      </trkpt>
      <trkpt lat="43.39328" lon="6.10436">
        <ele>274.2612</ele>
        <time>2025-04-25T06:59:00.000Z</time>
      </trkpt>
      <trkpt lat="43.39328" lon="6.10436">
        <ele>274.2612</ele>
        <time>2025-04-25T06:59:00.000Z</time>
      </trkpt>
      <trkpt lat="43.39325" lon="6.10441">
        <ele>274.411488</ele>
        <time>2025-04-25T06:59:01.000Z</time>
      </trkpt>
      <trkpt lat="43.39321" lon="6.10445">
        <ele>274.564648</ele>
        <time>2025-04-25T06:59:02.000Z</time>
      </trkpt>
      <trkpt lat="43.39321" lon="6.10445">
        <ele>274.564648</ele>
        <time>2025-04-25T06:59:02.000Z</time>
      </trkpt>
      <trkpt lat="43.39318" lon="6.1045">
        <ele>274.710798</ele>
        <time>2025-04-25T06:59:03.000Z</time>
      </trkpt>
      <trkpt lat="43.39318" lon="6.1045">
        <ele>274.710798</ele>
        <time>2025-04-25T06:59:03.000Z</time>
      </trkpt>
      <trkpt lat="43.39315" lon="6.10455">
        <ele>274.879849</ele>
        <time>2025-04-25T06:59:04.000Z</time>
      </trkpt>
      <trkpt lat="43.39315" lon="6.10455">
        <ele>274.879849</ele>
        <time>2025-04-25T06:59:04.000Z</time>
      </trkpt>
      <trkpt lat="43.39312" lon="6.10459">
        <ele>275.005231</ele>
        <time>2025-04-25T06:59:05.000Z</time>
      </trkpt>
      <trkpt lat="43.39312" lon="6.10459">
        <ele>275.005231</ele>
        <time>2025-04-25T06:59:05.000Z</time>
      </trkpt>
      <trkpt lat="43.39309" lon="6.10464">
        <ele>275.157015</ele>
        <time>2025-04-25T06:59:06.000Z</time>
      </trkpt>
      <trkpt lat="43.39309" lon="6.10464">
        <ele>275.157015</ele>
        <time>2025-04-25T06:59:06.000Z</time>
      </trkpt>
      <trkpt lat="43.39306" lon="6.10469">
        <ele>275.304929</ele>
        <time>2025-04-25T06:59:07.000Z</time>
      </trkpt>
      <trkpt lat="43.39306" lon="6.10469">
        <ele>275.304929</ele>
        <time>2025-04-25T06:59:07.000Z</time>
      </trkpt>
      <trkpt lat="43.39303" lon="6.10474">
        <ele>275.444902</ele>
        <time>2025-04-25T06:59:08.000Z</time>
      </trkpt>
      <trkpt lat="43.39303" lon="6.10474">
        <ele>275.444902</ele>
        <time>2025-04-25T06:59:08.000Z</time>
      </trkpt>
      <trkpt lat="43.393" lon="6.10478">
        <ele>275.582493</ele>
        <time>2025-04-25T06:59:09.000Z</time>
      </trkpt>
      <trkpt lat="43.393" lon="6.10478">
        <ele>275.582493</ele>
        <time>2025-04-25T06:59:09.000Z</time>
      </trkpt>
      <trkpt lat="43.39298" lon="6.10482">
        <ele>275.718831</ele>
        <time>2025-04-25T06:59:10.000Z</time>
      </trkpt>
      <trkpt lat="43.39298" lon="6.10482">
        <ele>275.718831</ele>
        <time>2025-04-25T06:59:10.000Z</time>
      </trkpt>
      <trkpt lat="43.39294" lon="6.10487">
        <ele>275.870616</ele>
        <time>2025-04-25T06:59:11.000Z</time>
      </trkpt>
      <trkpt lat="43.39294" lon="6.10487">
        <ele>275.870616</ele>
        <time>2025-04-25T06:59:11.000Z</time>
      </trkpt>
      <trkpt lat="43.39292" lon="6.10493">
        <ele>276.021955</ele>
        <time>2025-04-25T06:59:12.000Z</time>
      </trkpt>
      <trkpt lat="43.39292" lon="6.10493">
        <ele>276.021955</ele>
        <time>2025-04-25T06:59:12.000Z</time>
      </trkpt>
      <trkpt lat="43.3929" lon="6.10498">
        <ele>276.160025</ele>
        <time>2025-04-25T06:59:13.000Z</time>
      </trkpt>
      <trkpt lat="43.3929" lon="6.10498">
        <ele>276.160025</ele>
        <time>2025-04-25T06:59:13.000Z</time>
      </trkpt>
      <trkpt lat="43.39288" lon="6.10503">
        <ele>276.306258</ele>
        <time>2025-04-25T06:59:14.000Z</time>
      </trkpt>
      <trkpt lat="43.39288" lon="6.10503">
        <ele>276.306258</ele>
        <time>2025-04-25T06:59:14.000Z</time>
      </trkpt>
      <trkpt lat="43.39286" lon="6.10509">
        <ele>276.454895</ele>
        <time>2025-04-25T06:59:15.000Z</time>
      </trkpt>
      <trkpt lat="43.39286" lon="6.10509">
        <ele>276.454895</ele>
        <time>2025-04-25T06:59:15.000Z</time>
      </trkpt>
      <trkpt lat="43.39283" lon="6.10515">
        <ele>276.61338</ele>
        <time>2025-04-25T06:59:16.000Z</time>
      </trkpt>
      <trkpt lat="43.39283" lon="6.10515">
        <ele>276.61338</ele>
        <time>2025-04-25T06:59:16.000Z</time>
      </trkpt>
      <trkpt lat="43.39281" lon="6.10521">
        <ele>276.77039</ele>
        <time>2025-04-25T06:59:17.000Z</time>
      </trkpt>
      <trkpt lat="43.39281" lon="6.10521">
        <ele>276.77039</ele>
        <time>2025-04-25T06:59:17.000Z</time>
      </trkpt>
      <trkpt lat="43.39278" lon="6.10527">
        <ele>276.944413</ele>
        <time>2025-04-25T06:59:18.000Z</time>
      </trkpt>
      <trkpt lat="43.39278" lon="6.10527">
        <ele>276.944413</ele>
        <time>2025-04-25T06:59:18.000Z</time>
      </trkpt>
      <trkpt lat="43.39275" lon="6.10533">
        <ele>277.10913</ele>
        <time>2025-04-25T06:59:19.000Z</time>
      </trkpt>
      <trkpt lat="43.39275" lon="6.10533">
        <ele>277.10913</ele>
        <time>2025-04-25T06:59:19.000Z</time>
      </trkpt>
      <trkpt lat="43.39274" lon="6.10539">
        <ele>277.25352</ele>
        <time>2025-04-25T06:59:20.000Z</time>
      </trkpt>
      <trkpt lat="43.39274" lon="6.10539">
        <ele>277.25352</ele>
        <time>2025-04-25T06:59:20.000Z</time>
      </trkpt>
      <trkpt lat="43.39272" lon="6.10545">
        <ele>277.405032</ele>
        <time>2025-04-25T06:59:21.000Z</time>
      </trkpt>
      <trkpt lat="43.39272" lon="6.10545">
        <ele>277.405032</ele>
        <time>2025-04-25T06:59:21.000Z</time>
      </trkpt>
      <trkpt lat="43.3927" lon="6.1055">
        <ele>277.545264</ele>
        <time>2025-04-25T06:59:22.000Z</time>
      </trkpt>
      <trkpt lat="43.3927" lon="6.1055">
        <ele>277.545264</ele>
        <time>2025-04-25T06:59:22.000Z</time>
      </trkpt>
      <trkpt lat="43.39266" lon="6.10555">
        <ele>277.703549</ele>
        <time>2025-04-25T06:59:23.000Z</time>
      </trkpt>
      <trkpt lat="43.39266" lon="6.10555">
        <ele>277.703549</ele>
        <time>2025-04-25T06:59:23.000Z</time>
      </trkpt>
      <trkpt lat="43.39264" lon="6.10561">
        <ele>277.857917</ele>
        <time>2025-04-25T06:59:24.000Z</time>
      </trkpt>
      <trkpt lat="43.39264" lon="6.10561">
        <ele>277.857917</ele>
        <time>2025-04-25T06:59:24.000Z</time>
      </trkpt>
      <trkpt lat="43.39261" lon="6.10567">
        <ele>278.039793</ele>
        <time>2025-04-25T06:59:25.000Z</time>
      </trkpt>
      <trkpt lat="43.39261" lon="6.10567">
        <ele>278.039793</ele>
        <time>2025-04-25T06:59:25.000Z</time>
      </trkpt>
      <trkpt lat="43.39257" lon="6.10574">
        <ele>278.238534</ele>
        <time>2025-04-25T06:59:26.000Z</time>
      </trkpt>
      <trkpt lat="43.39254" lon="6.1058">
        <ele>278.412559</ele>
        <time>2025-04-25T06:59:27.000Z</time>
      </trkpt>
      <trkpt lat="43.39254" lon="6.1058">
        <ele>278.412559</ele>
        <time>2025-04-25T06:59:27.000Z</time>
      </trkpt>
      <trkpt lat="43.39251" lon="6.10586">
        <ele>278.586465</ele>
        <time>2025-04-25T06:59:28.000Z</time>
      </trkpt>
      <trkpt lat="43.39251" lon="6.10586">
        <ele>278.586465</ele>
        <time>2025-04-25T06:59:28.000Z</time>
      </trkpt>
      <trkpt lat="43.39247" lon="6.10591">
        <ele>278.752302</ele>
        <time>2025-04-25T06:59:29.000Z</time>
      </trkpt>
      <trkpt lat="43.39244" lon="6.10595">
        <ele>278.888815</ele>
        <time>2025-04-25T06:59:30.000Z</time>
      </trkpt>
      <trkpt lat="43.39244" lon="6.10595">
        <ele>278.888815</ele>
        <time>2025-04-25T06:59:30.000Z</time>
      </trkpt>
      <trkpt lat="43.3924" lon="6.10598">
        <ele>279.039892</ele>
        <time>2025-04-25T06:59:31.000Z</time>
      </trkpt>
      <trkpt lat="43.3924" lon="6.10598">
        <ele>279.039892</ele>
        <time>2025-04-25T06:59:31.000Z</time>
      </trkpt>
      <trkpt lat="43.39235" lon="6.10601">
        <ele>279.210028</ele>
        <time>2025-04-25T06:59:32.000Z</time>
      </trkpt>
      <trkpt lat="43.39232" lon="6.10605">
        <ele>279.352335</ele>
        <time>2025-04-25T06:59:33.000Z</time>
      </trkpt>
      <trkpt lat="43.39227" lon="6.1061">
        <ele>279.533975</ele>
        <time>2025-04-25T06:59:34.000Z</time>
      </trkpt>
      <trkpt lat="43.39224" lon="6.10615">
        <ele>279.69058</ele>
        <time>2025-04-25T06:59:35.000Z</time>
      </trkpt>
      <trkpt lat="43.3922" lon="6.10619">
        <ele>279.853478</ele>
        <time>2025-04-25T06:59:36.000Z</time>
      </trkpt>
      <trkpt lat="43.39215" lon="6.10624">
        <ele>280.036296</ele>
        <time>2025-04-25T06:59:37.000Z</time>
      </trkpt>
      <trkpt lat="43.39211" lon="6.10627">
        <ele>280.210004</ele>
        <time>2025-04-25T06:59:38.000Z</time>
      </trkpt>
      <trkpt lat="43.39206" lon="6.10631">
        <ele>280.318426</ele>
        <time>2025-04-25T06:59:39.000Z</time>
      </trkpt>
      <trkpt lat="43.39202" lon="6.10634">
        <ele>280.409543</ele>
        <time>2025-04-25T06:59:40.000Z</time>
      </trkpt>
      <trkpt lat="43.39197" lon="6.10637">
        <ele>280.516927</ele>
        <time>2025-04-25T06:59:41.000Z</time>
      </trkpt>
      <trkpt lat="43.39197" lon="6.10637">
        <ele>280.516927</ele>
        <time>2025-04-25T06:59:41.000Z</time>
      </trkpt>
      <trkpt lat="43.39193" lon="6.10641">
        <ele>280.613974</ele>
        <time>2025-04-25T06:59:42.000Z</time>
      </trkpt>
      <trkpt lat="43.39189" lon="6.10647">
        <ele>280.730419</ele>
        <time>2025-04-25T06:59:43.000Z</time>
      </trkpt>
      <trkpt lat="43.39185" lon="6.10652">
        <ele>280.839504</ele>
        <time>2025-04-25T06:59:43.000Z</time>
      </trkpt>
      <trkpt lat="43.39182" lon="6.10659">
        <ele>280.946081</ele>
        <time>2025-04-25T06:59:45.000Z</time>
      </trkpt>
      <trkpt lat="43.3918" lon="6.10664">
        <ele>281.046968</ele>
        <time>2025-04-25T06:59:46.000Z</time>
      </trkpt>
      <trkpt lat="43.39177" lon="6.1067">
        <ele>281.133817</ele>
        <time>2025-04-25T06:59:47.000Z</time>
      </trkpt>
      <trkpt lat="43.39175" lon="6.10675">
        <ele>281.230694</ele>
        <time>2025-04-25T06:59:48.000Z</time>
      </trkpt>
      <trkpt lat="43.39173" lon="6.10681">
        <ele>281.31362</ele>
        <time>2025-04-25T06:59:49.000Z</time>
      </trkpt>
      <trkpt lat="43.39172" lon="6.10686">
        <ele>281.394572</ele>
        <time>2025-04-25T06:59:50.000Z</time>
      </trkpt>
      <trkpt lat="43.39171" lon="6.10692">
        <ele>281.481414</ele>
        <time>2025-04-25T06:59:51.000Z</time>
      </trkpt>
      <trkpt lat="43.3917" lon="6.10698">
        <ele>281.57506</ele>
        <time>2025-04-25T06:59:52.000Z</time>
      </trkpt>
      <trkpt lat="43.39169" lon="6.10705">
        <ele>281.685386</ele>
        <time>2025-04-25T06:59:53.000Z</time>
      </trkpt>
      <trkpt lat="43.39169" lon="6.10705">
        <ele>281.685386</ele>
        <time>2025-04-25T06:59:53.000Z</time>
      </trkpt>
      <trkpt lat="43.39167" lon="6.10714">
        <ele>281.80992</ele>
        <time>2025-04-25T06:59:54.000Z</time>
      </trkpt>
      <trkpt lat="43.39164" lon="6.1072">
        <ele>281.918946</ele>
        <time>2025-04-25T06:59:55.000Z</time>
      </trkpt>
      <trkpt lat="43.39162" lon="6.10727">
        <ele>282.031067</ele>
        <time>2025-04-25T06:59:56.000Z</time>
      </trkpt>
      <trkpt lat="43.39162" lon="6.10727">
        <ele>282.031067</ele>
        <time>2025-04-25T06:59:56.000Z</time>
      </trkpt>
      <trkpt lat="43.39159" lon="6.10733">
        <ele>282.134083</ele>
        <time>2025-04-25T06:59:57.000Z</time>
      </trkpt>
      <trkpt lat="43.39156" lon="6.10738">
        <ele>282.227904</ele>
        <time>2025-04-25T06:59:58.000Z</time>
      </trkpt>
      <trkpt lat="43.39156" lon="6.10738">
        <ele>282.227904</ele>
        <time>2025-04-25T06:59:58.000Z</time>
      </trkpt>
      <trkpt lat="43.39152" lon="6.10743">
        <ele>282.325277</ele>
        <time>2025-04-25T06:59:59.000Z</time>
      </trkpt>
      <trkpt lat="43.39152" lon="6.10743">
        <ele>282.325277</ele>
        <time>2025-04-25T06:59:59.000Z</time>
      </trkpt>
      <trkpt lat="43.39148" lon="6.10747">
        <ele>282.431529</ele>
        <time>2025-04-25T07:00:00.000Z</time>
      </trkpt>
      <trkpt lat="43.39148" lon="6.10747">
        <ele>282.431529</ele>
        <time>2025-04-25T07:00:00.000Z</time>
      </trkpt>
      <trkpt lat="43.39144" lon="6.10751">
        <ele>282.52783</ele>
        <time>2025-04-25T07:00:01.000Z</time>
      </trkpt>
      <trkpt lat="43.39144" lon="6.10751">
        <ele>282.52783</ele>
        <time>2025-04-25T07:00:01.000Z</time>
      </trkpt>
      <trkpt lat="43.3914" lon="6.10753">
        <ele>282.615418</ele>
        <time>2025-04-25T07:00:02.000Z</time>
      </trkpt>
      <trkpt lat="43.39136" lon="6.10756">
        <ele>282.707723</ele>
        <time>2025-04-25T07:00:03.000Z</time>
      </trkpt>
      <trkpt lat="43.39136" lon="6.10756">
        <ele>282.707723</ele>
        <time>2025-04-25T07:00:03.000Z</time>
      </trkpt>
      <trkpt lat="43.39132" lon="6.10759">
        <ele>282.79884</ele>
        <time>2025-04-25T07:00:04.000Z</time>
      </trkpt>
      <trkpt lat="43.39132" lon="6.10759">
        <ele>282.79884</ele>
        <time>2025-04-25T07:00:04.000Z</time>
      </trkpt>
      <trkpt lat="43.39127" lon="6.10761">
        <ele>282.897176</ele>
        <time>2025-04-25T07:00:05.000Z</time>
      </trkpt>
      <trkpt lat="43.39127" lon="6.10761">
        <ele>282.897176</ele>
        <time>2025-04-25T07:00:05.000Z</time>
      </trkpt>
      <trkpt lat="43.39123" lon="6.10764">
        <ele>282.98948</ele>
        <time>2025-04-25T07:00:06.000Z</time>
      </trkpt>
      <trkpt lat="43.39123" lon="6.10764">
        <ele>282.98948</ele>
        <time>2025-04-25T07:00:06.000Z</time>
      </trkpt>
      <trkpt lat="43.39118" lon="6.10767">
        <ele>283.099279</ele>
        <time>2025-04-25T07:00:07.000Z</time>
      </trkpt>
      <trkpt lat="43.39118" lon="6.10767">
        <ele>283.099279</ele>
        <time>2025-04-25T07:00:07.000Z</time>
      </trkpt>
      <trkpt lat="43.39114" lon="6.1077">
        <ele>283.185107</ele>
        <time>2025-04-25T07:00:08.000Z</time>
      </trkpt>
      <trkpt lat="43.39114" lon="6.1077">
        <ele>283.185107</ele>
        <time>2025-04-25T07:00:08.000Z</time>
      </trkpt>
      <trkpt lat="43.3911" lon="6.10773">
        <ele>283.280006</ele>
        <time>2025-04-25T07:00:09.000Z</time>
      </trkpt>
      <trkpt lat="43.3911" lon="6.10773">
        <ele>283.280006</ele>
        <time>2025-04-25T07:00:09.000Z</time>
      </trkpt>
      <trkpt lat="43.39106" lon="6.10776">
        <ele>283.375597</ele>
        <time>2025-04-25T07:00:10.000Z</time>
      </trkpt>
      <trkpt lat="43.39106" lon="6.10776">
        <ele>283.375597</ele>
        <time>2025-04-25T07:00:10.000Z</time>
      </trkpt>
      <trkpt lat="43.39101" lon="6.10781">
        <ele>283.485518</ele>
        <time>2025-04-25T07:00:11.000Z</time>
      </trkpt>
      <trkpt lat="43.39101" lon="6.10781">
        <ele>283.485518</ele>
        <time>2025-04-25T07:00:11.000Z</time>
      </trkpt>
      <trkpt lat="43.39097" lon="6.10785">
        <ele>283.585342</ele>
        <time>2025-04-25T07:00:12.000Z</time>
      </trkpt>
      <trkpt lat="43.39097" lon="6.10785">
        <ele>283.585342</ele>
        <time>2025-04-25T07:00:12.000Z</time>
      </trkpt>
      <trkpt lat="43.39093" lon="6.1079">
        <ele>283.691033</ele>
        <time>2025-04-25T07:00:13.000Z</time>
      </trkpt>
      <trkpt lat="43.39089" lon="6.10795">
        <ele>283.80442</ele>
        <time>2025-04-25T07:00:14.000Z</time>
      </trkpt>
      <trkpt lat="43.39089" lon="6.10795">
        <ele>283.80442</ele>
        <time>2025-04-25T07:00:14.000Z</time>
      </trkpt>
      <trkpt lat="43.39085" lon="6.10799">
        <ele>283.901872</ele>
        <time>2025-04-25T07:00:15.000Z</time>
      </trkpt>
      <trkpt lat="43.39085" lon="6.10799">
        <ele>283.901872</ele>
        <time>2025-04-25T07:00:15.000Z</time>
      </trkpt>
      <trkpt lat="43.3908" lon="6.10804">
        <ele>284.003788</ele>
        <time>2025-04-25T07:00:16.000Z</time>
      </trkpt>
      <trkpt lat="43.39075" lon="6.10808">
        <ele>284.1167</ele>
        <time>2025-04-25T07:00:17.000Z</time>
      </trkpt>
      <trkpt lat="43.3907" lon="6.10811">
        <ele>284.219076</ele>
        <time>2025-04-25T07:00:17.000Z</time>
      </trkpt>
      <trkpt lat="43.3907" lon="6.10811">
        <ele>284.219076</ele>
        <time>2025-04-25T07:00:17.000Z</time>
      </trkpt>
      <trkpt lat="43.39065" lon="6.10814">
        <ele>284.318088</ele>
        <time>2025-04-25T07:00:19.000Z</time>
      </trkpt>
      <trkpt lat="43.39059" lon="6.10817">
        <ele>284.42895</ele>
        <time>2025-04-25T07:00:19.000Z</time>
      </trkpt>
      <trkpt lat="43.39054" lon="6.10819">
        <ele>284.532921</ele>
        <time>2025-04-25T07:00:21.000Z</time>
      </trkpt>
      <trkpt lat="43.39054" lon="6.10819">
        <ele>284.532921</ele>
        <time>2025-04-25T07:00:21.000Z</time>
      </trkpt>
      <trkpt lat="43.39048" lon="6.10821">
        <ele>284.63593</ele>
        <time>2025-04-25T07:00:21.000Z</time>
      </trkpt>
      <trkpt lat="43.39043" lon="6.10824">
        <ele>284.745592</ele>
        <time>2025-04-25T07:00:23.000Z</time>
      </trkpt>
      <trkpt lat="43.39043" lon="6.10824">
        <ele>284.745592</ele>
        <time>2025-04-25T07:00:23.000Z</time>
      </trkpt>
      <trkpt lat="43.39038" lon="6.10825">
        <ele>284.834259</ele>
        <time>2025-04-25T07:00:23.000Z</time>
      </trkpt>
      <trkpt lat="43.39033" lon="6.10827">
        <ele>284.930389</ele>
        <time>2025-04-25T07:00:25.000Z</time>
      </trkpt>
      <trkpt lat="43.39029" lon="6.1083">
        <ele>285.018113</ele>
        <time>2025-04-25T07:00:25.000Z</time>
      </trkpt>
      <trkpt lat="43.39029" lon="6.1083">
        <ele>285.018113</ele>
        <time>2025-04-25T07:00:25.000Z</time>
      </trkpt>
      <trkpt lat="43.39024" lon="6.10832">
        <ele>285.115026</ele>
        <time>2025-04-25T07:00:27.000Z</time>
      </trkpt>
      <trkpt lat="43.39019" lon="6.10834">
        <ele>285.212789</ele>
        <time>2025-04-25T07:00:28.000Z</time>
      </trkpt>
      <trkpt lat="43.39019" lon="6.10834">
        <ele>285.212789</ele>
        <time>2025-04-25T07:00:28.000Z</time>
      </trkpt>
      <trkpt lat="43.39013" lon="6.10837">
        <ele>285.323651</ele>
        <time>2025-04-25T07:00:29.000Z</time>
      </trkpt>
      <trkpt lat="43.39013" lon="6.10837">
        <ele>285.323651</ele>
        <time>2025-04-25T07:00:29.000Z</time>
      </trkpt>
      <trkpt lat="43.39008" lon="6.10839">
        <ele>285.424435</ele>
        <time>2025-04-25T07:00:30.000Z</time>
      </trkpt>
      <trkpt lat="43.39002" lon="6.10839">
        <ele>285.532191</ele>
        <time>2025-04-25T07:00:30.000Z</time>
      </trkpt>
      <trkpt lat="43.39002" lon="6.10839">
        <ele>285.532191</ele>
        <time>2025-04-25T07:00:30.000Z</time>
      </trkpt>
      <trkpt lat="43.38997" lon="6.1084">
        <ele>285.615442</ele>
        <time>2025-04-25T07:00:32.000Z</time>
      </trkpt>
      <trkpt lat="43.38997" lon="6.1084">
        <ele>285.615442</ele>
        <time>2025-04-25T07:00:32.000Z</time>
      </trkpt>
      <trkpt lat="43.38992" lon="6.1084">
        <ele>285.707761</ele>
        <time>2025-04-25T07:00:33.000Z</time>
      </trkpt>
      <trkpt lat="43.38987" lon="6.10839">
        <ele>285.806714</ele>
        <time>2025-04-25T07:00:33.000Z</time>
      </trkpt>
      <trkpt lat="43.38987" lon="6.10839">
        <ele>285.806714</ele>
        <time>2025-04-25T07:00:33.000Z</time>
      </trkpt>
      <trkpt lat="43.38981" lon="6.10837">
        <ele>285.92862</ele>
        <time>2025-04-25T07:00:35.000Z</time>
      </trkpt>
      <trkpt lat="43.38975" lon="6.10836">
        <ele>286.030325</ele>
        <time>2025-04-25T07:00:36.000Z</time>
      </trkpt>
      <trkpt lat="43.38968" lon="6.10834">
        <ele>286.157686</ele>
        <time>2025-04-25T07:00:37.000Z</time>
      </trkpt>
      <trkpt lat="43.38968" lon="6.10834">
        <ele>286.157686</ele>
        <time>2025-04-25T07:00:37.000Z</time>
      </trkpt>
      <trkpt lat="43.38961" lon="6.10832">
        <ele>286.303442</ele>
        <time>2025-04-25T07:00:38.000Z</time>
      </trkpt>
      <trkpt lat="43.38953" lon="6.10828">
        <ele>286.4514</ele>
        <time>2025-04-25T07:00:39.000Z</time>
      </trkpt>
      <trkpt lat="43.38953" lon="6.10828">
        <ele>286.4514</ele>
        <time>2025-04-25T07:00:39.000Z</time>
      </trkpt>
      <trkpt lat="43.38947" lon="6.10825">
        <ele>286.565566</ele>
        <time>2025-04-25T07:00:40.000Z</time>
      </trkpt>
      <trkpt lat="43.38941" lon="6.10821">
        <ele>286.689185</ele>
        <time>2025-04-25T07:00:41.000Z</time>
      </trkpt>
      <trkpt lat="43.38936" lon="6.10816">
        <ele>286.811179</ele>
        <time>2025-04-25T07:00:42.000Z</time>
      </trkpt>
      <trkpt lat="43.3893" lon="6.10811">
        <ele>286.936824</ele>
        <time>2025-04-25T07:00:43.000Z</time>
      </trkpt>
      <trkpt lat="43.3893" lon="6.10811">
        <ele>286.936824</ele>
        <time>2025-04-25T07:00:43.000Z</time>
      </trkpt>
      <trkpt lat="43.38926" lon="6.10805">
        <ele>287.040601</ele>
        <time>2025-04-25T07:00:44.000Z</time>
      </trkpt>
      <trkpt lat="43.38924" lon="6.10799">
        <ele>287.139684</ele>
        <time>2025-04-25T07:00:45.000Z</time>
      </trkpt>
      <trkpt lat="43.38924" lon="6.10799">
        <ele>287.139684</ele>
        <time>2025-04-25T07:00:45.000Z</time>
      </trkpt>
      <trkpt lat="43.38923" lon="6.10793">
        <ele>287.253703</ele>
        <time>2025-04-25T07:00:46.000Z</time>
      </trkpt>
      <trkpt lat="43.38921" lon="6.10785">
        <ele>287.38397</ele>
        <time>2025-04-25T07:00:47.000Z</time>
      </trkpt>
      <trkpt lat="43.38921" lon="6.10785">
        <ele>287.38397</ele>
        <time>2025-04-25T07:00:47.000Z</time>
      </trkpt>
      <trkpt lat="43.38919" lon="6.10778">
        <ele>287.524286</ele>
        <time>2025-04-25T07:00:48.000Z</time>
      </trkpt>
      <trkpt lat="43.38915" lon="6.10772">
        <ele>287.6604</ele>
        <time>2025-04-25T07:00:49.000Z</time>
      </trkpt>
      <trkpt lat="43.38911" lon="6.10767">
        <ele>287.80166</ele>
        <time>2025-04-25T07:00:50.000Z</time>
      </trkpt>
      <trkpt lat="43.38911" lon="6.10767">
        <ele>287.80166</ele>
        <time>2025-04-25T07:00:50.000Z</time>
      </trkpt>
      <trkpt lat="43.38907" lon="6.10762">
        <ele>287.939171</ele>
        <time>2025-04-25T07:00:51.000Z</time>
      </trkpt>
      <trkpt lat="43.38902" lon="6.1076">
        <ele>288.058416</ele>
        <time>2025-04-25T07:00:52.000Z</time>
      </trkpt>
      <trkpt lat="43.38897" lon="6.10758">
        <ele>288.175952</ele>
        <time>2025-04-25T07:00:53.000Z</time>
      </trkpt>
      <trkpt lat="43.38892" lon="6.10756">
        <ele>288.318053</ele>
        <time>2025-04-25T07:00:54.000Z</time>
      </trkpt>
      <trkpt lat="43.38892" lon="6.10756">
        <ele>288.318053</ele>
        <time>2025-04-25T07:00:54.000Z</time>
      </trkpt>
      <trkpt lat="43.38886" lon="6.10755">
        <ele>288.449541</ele>
        <time>2025-04-25T07:00:55.000Z</time>
      </trkpt>
      <trkpt lat="43.38881" lon="6.10754">
        <ele>288.582813</ele>
        <time>2025-04-25T07:00:56.000Z</time>
      </trkpt>
      <trkpt lat="43.38876" lon="6.10753">
        <ele>288.712537</ele>
        <time>2025-04-25T07:00:57.000Z</time>
      </trkpt>
      <trkpt lat="43.38876" lon="6.10753">
        <ele>288.712537</ele>
        <time>2025-04-25T07:00:57.000Z</time>
      </trkpt>
      <trkpt lat="43.3887" lon="6.10753">
        <ele>288.851695</ele>
        <time>2025-04-25T07:00:58.000Z</time>
      </trkpt>
      <trkpt lat="43.38865" lon="6.10752">
        <ele>288.973529</ele>
        <time>2025-04-25T07:00:59.000Z</time>
      </trkpt>
      <trkpt lat="43.38865" lon="6.10752">
        <ele>288.973529</ele>
        <time>2025-04-25T07:00:59.000Z</time>
      </trkpt>
      <trkpt lat="43.38859" lon="6.10753">
        <ele>289.122161</ele>
        <time>2025-04-25T07:00:59.000Z</time>
      </trkpt>
      <trkpt lat="43.38854" lon="6.10753">
        <ele>289.243996</ele>
        <time>2025-04-25T07:01:01.000Z</time>
      </trkpt>
      <trkpt lat="43.38849" lon="6.10753">
        <ele>289.353863</ele>
        <time>2025-04-25T07:01:02.000Z</time>
      </trkpt>
      <trkpt lat="43.38849" lon="6.10753">
        <ele>289.353863</ele>
        <time>2025-04-25T07:01:02.000Z</time>
      </trkpt>
      <trkpt lat="43.38844" lon="6.10753">
        <ele>289.485537</ele>
        <time>2025-04-25T07:01:03.000Z</time>
      </trkpt>
      <trkpt lat="43.38844" lon="6.10753">
        <ele>289.485537</ele>
        <time>2025-04-25T07:01:03.000Z</time>
      </trkpt>
      <trkpt lat="43.38839" lon="6.10754">
        <ele>289.604975</ele>
        <time>2025-04-25T07:01:04.000Z</time>
      </trkpt>
      <trkpt lat="43.38833" lon="6.10754">
        <ele>289.746287</ele>
        <time>2025-04-25T07:01:05.000Z</time>
      </trkpt>
      <trkpt lat="43.38833" lon="6.10754">
        <ele>289.746287</ele>
        <time>2025-04-25T07:01:05.000Z</time>
      </trkpt>
      <trkpt lat="43.38827" lon="6.10754">
        <ele>289.89492</ele>
        <time>2025-04-25T07:01:05.000Z</time>
      </trkpt>
      <trkpt lat="43.38822" lon="6.10754">
        <ele>290.02416</ele>
        <time>2025-04-25T07:01:07.000Z</time>
      </trkpt>
      <trkpt lat="43.38822" lon="6.10754">
        <ele>290.02416</ele>
        <time>2025-04-25T07:01:07.000Z</time>
      </trkpt>
      <trkpt lat="43.38816" lon="6.10755">
        <ele>290.173161</ele>
        <time>2025-04-25T07:01:08.000Z</time>
      </trkpt>
      <trkpt lat="43.3881" lon="6.10755">
        <ele>290.302728</ele>
        <time>2025-04-25T07:01:08.000Z</time>
      </trkpt>
      <trkpt lat="43.3881" lon="6.10755">
        <ele>290.302728</ele>
        <time>2025-04-25T07:01:08.000Z</time>
      </trkpt>
      <trkpt lat="43.38805" lon="6.10756">
        <ele>290.444936</ele>
        <time>2025-04-25T07:01:10.000Z</time>
      </trkpt>
      <trkpt lat="43.38805" lon="6.10756">
        <ele>290.444936</ele>
        <time>2025-04-25T07:01:10.000Z</time>
      </trkpt>
      <trkpt lat="43.38799" lon="6.10757">
        <ele>290.584094</ele>
        <time>2025-04-25T07:01:11.000Z</time>
      </trkpt>
      <trkpt lat="43.38799" lon="6.10757">
        <ele>290.584094</ele>
        <time>2025-04-25T07:01:11.000Z</time>
      </trkpt>
      <trkpt lat="43.38793" lon="6.10756">
        <ele>290.722982</ele>
        <time>2025-04-25T07:01:12.000Z</time>
      </trkpt>
      <trkpt lat="43.38788" lon="6.10756">
        <ele>290.844803</ele>
        <time>2025-04-25T07:01:13.000Z</time>
      </trkpt>
      <trkpt lat="43.38788" lon="6.10756">
        <ele>290.844803</ele>
        <time>2025-04-25T07:01:13.000Z</time>
      </trkpt>
      <trkpt lat="43.38784" lon="6.10756">
        <ele>290.956879</ele>
        <time>2025-04-25T07:01:14.000Z</time>
      </trkpt>
      <trkpt lat="43.38784" lon="6.10756">
        <ele>290.956879</ele>
        <time>2025-04-25T07:01:14.000Z</time>
      </trkpt>
      <trkpt lat="43.3878" lon="6.10757">
        <ele>291.04953</ele>
        <time>2025-04-25T07:01:15.000Z</time>
      </trkpt>
      <trkpt lat="43.3878" lon="6.10757">
        <ele>291.04953</ele>
        <time>2025-04-25T07:01:15.000Z</time>
      </trkpt>
      <trkpt lat="43.38776" lon="6.10757">
        <ele>291.133291</ele>
        <time>2025-04-25T07:01:16.000Z</time>
      </trkpt>
      <trkpt lat="43.38776" lon="6.10757">
        <ele>291.133291</ele>
        <time>2025-04-25T07:01:16.000Z</time>
      </trkpt>
      <trkpt lat="43.38774" lon="6.10758">
        <ele>291.201416</ele>
        <time>2025-04-25T07:01:17.000Z</time>
      </trkpt>
      <trkpt lat="43.38771" lon="6.1076">
        <ele>291.272328</ele>
        <time>2025-04-25T07:01:18.000Z</time>
      </trkpt>
      <trkpt lat="43.38771" lon="6.1076">
        <ele>291.272328</ele>
        <time>2025-04-25T07:01:18.000Z</time>
      </trkpt>
      <trkpt lat="43.38769" lon="6.10762">
        <ele>291.334341</ele>
        <time>2025-04-25T07:01:19.000Z</time>
      </trkpt>
      <trkpt lat="43.38769" lon="6.10762">
        <ele>291.334341</ele>
        <time>2025-04-25T07:01:19.000Z</time>
      </trkpt>
      <trkpt lat="43.38766" lon="6.10763">
        <ele>291.40464</ele>
        <time>2025-04-25T07:01:20.000Z</time>
      </trkpt>
      <trkpt lat="43.38766" lon="6.10763">
        <ele>291.40464</ele>
        <time>2025-04-25T07:01:20.000Z</time>
      </trkpt>
      <trkpt lat="43.38763" lon="6.10764">
        <ele>291.480686</ele>
        <time>2025-04-25T07:01:21.000Z</time>
      </trkpt>
      <trkpt lat="43.38763" lon="6.10764">
        <ele>291.480686</ele>
        <time>2025-04-25T07:01:21.000Z</time>
      </trkpt>
      <trkpt lat="43.3876" lon="6.10764">
        <ele>291.559082</ele>
        <time>2025-04-25T07:01:21.000Z</time>
      </trkpt>
      <trkpt lat="43.3876" lon="6.10764">
        <ele>291.559082</ele>
        <time>2025-04-25T07:01:21.000Z</time>
      </trkpt>
      <trkpt lat="43.38757" lon="6.10765">
        <ele>291.651022</ele>
        <time>2025-04-25T07:01:23.000Z</time>
      </trkpt>
      <trkpt lat="43.38757" lon="6.10765">
        <ele>291.651022</ele>
        <time>2025-04-25T07:01:23.000Z</time>
      </trkpt>
      <trkpt lat="43.38752" lon="6.10766">
        <ele>291.774174</ele>
        <time>2025-04-25T07:01:24.000Z</time>
      </trkpt>
      <trkpt lat="43.38752" lon="6.10766">
        <ele>291.774174</ele>
        <time>2025-04-25T07:01:24.000Z</time>
      </trkpt>
      <trkpt lat="43.38749" lon="6.10768">
        <ele>291.871954</ele>
        <time>2025-04-25T07:01:25.000Z</time>
      </trkpt>
      <trkpt lat="43.38749" lon="6.10768">
        <ele>291.871954</ele>
        <time>2025-04-25T07:01:25.000Z</time>
      </trkpt>
      <trkpt lat="43.38744" lon="6.10771">
        <ele>292.002741</ele>
        <time>2025-04-25T07:01:26.000Z</time>
      </trkpt>
      <trkpt lat="43.38744" lon="6.10771">
        <ele>292.002741</ele>
        <time>2025-04-25T07:01:26.000Z</time>
      </trkpt>
      <trkpt lat="43.3874" lon="6.10773">
        <ele>292.12158</ele>
        <time>2025-04-25T07:01:27.000Z</time>
      </trkpt>
      <trkpt lat="43.3874" lon="6.10773">
        <ele>292.12158</ele>
        <time>2025-04-25T07:01:27.000Z</time>
      </trkpt>
      <trkpt lat="43.38737" lon="6.10775">
        <ele>292.214714</ele>
        <time>2025-04-25T07:01:28.000Z</time>
      </trkpt>
      <trkpt lat="43.38737" lon="6.10775">
        <ele>292.214714</ele>
        <time>2025-04-25T07:01:28.000Z</time>
      </trkpt>
      <trkpt lat="43.38735" lon="6.10777">
        <ele>292.280379</ele>
        <time>2025-04-25T07:01:29.000Z</time>
      </trkpt>
      <trkpt lat="43.38735" lon="6.10777">
        <ele>292.280379</ele>
        <time>2025-04-25T07:01:29.000Z</time>
      </trkpt>
      <trkpt lat="43.38733" lon="6.1078">
        <ele>292.359791</ele>
        <time>2025-04-25T07:01:29.000Z</time>
      </trkpt>
      <trkpt lat="43.38733" lon="6.1078">
        <ele>292.359791</ele>
        <time>2025-04-25T07:01:29.000Z</time>
      </trkpt>
      <trkpt lat="43.38731" lon="6.10785">
        <ele>292.451453</ele>
        <time>2025-04-25T07:01:31.000Z</time>
      </trkpt>
      <trkpt lat="43.3873" lon="6.10789">
        <ele>292.544852</ele>
        <time>2025-04-25T07:01:32.000Z</time>
      </trkpt>
      <trkpt lat="43.3873" lon="6.10789">
        <ele>292.544852</ele>
        <time>2025-04-25T07:01:32.000Z</time>
      </trkpt>
      <trkpt lat="43.38728" lon="6.10793">
        <ele>292.632598</ele>
        <time>2025-04-25T07:01:33.000Z</time>
      </trkpt>
      <trkpt lat="43.38726" lon="6.10797">
        <ele>292.731507</ele>
        <time>2025-04-25T07:01:34.000Z</time>
      </trkpt>
      <trkpt lat="43.38726" lon="6.10797">
        <ele>292.731507</ele>
        <time>2025-04-25T07:01:34.000Z</time>
      </trkpt>
      <trkpt lat="43.38723" lon="6.108">
        <ele>292.825739</ele>
        <time>2025-04-25T07:01:34.000Z</time>
      </trkpt>
      <trkpt lat="43.38723" lon="6.108">
        <ele>292.825739</ele>
        <time>2025-04-25T07:01:34.000Z</time>
      </trkpt>
      <trkpt lat="43.3872" lon="6.10802">
        <ele>292.906826</ele>
        <time>2025-04-25T07:01:36.000Z</time>
      </trkpt>
      <trkpt lat="43.3872" lon="6.10802">
        <ele>292.906826</ele>
        <time>2025-04-25T07:01:36.000Z</time>
      </trkpt>
      <trkpt lat="43.38717" lon="6.10804">
        <ele>293.00618</ele>
        <time>2025-04-25T07:01:37.000Z</time>
      </trkpt>
      <trkpt lat="43.38717" lon="6.10804">
        <ele>293.00618</ele>
        <time>2025-04-25T07:01:37.000Z</time>
      </trkpt>
      <trkpt lat="43.38713" lon="6.10807">
        <ele>293.121087</ele>
        <time>2025-04-25T07:01:37.000Z</time>
      </trkpt>
      <trkpt lat="43.38713" lon="6.10807">
        <ele>293.121087</ele>
        <time>2025-04-25T07:01:37.000Z</time>
      </trkpt>
      <trkpt lat="43.38709" lon="6.10811">
        <ele>293.247605</ele>
        <time>2025-04-25T07:01:39.000Z</time>
      </trkpt>
      <trkpt lat="43.38709" lon="6.10811">
        <ele>293.247605</ele>
        <time>2025-04-25T07:01:39.000Z</time>
      </trkpt>
      <trkpt lat="43.38705" lon="6.10816">
        <ele>293.388563</ele>
        <time>2025-04-25T07:01:40.000Z</time>
      </trkpt>
      <trkpt lat="43.38705" lon="6.10816">
        <ele>293.388563</ele>
        <time>2025-04-25T07:01:40.000Z</time>
      </trkpt>
      <trkpt lat="43.38702" lon="6.10821">
        <ele>293.516156</ele>
        <time>2025-04-25T07:01:41.000Z</time>
      </trkpt>
      <trkpt lat="43.387" lon="6.10827">
        <ele>293.642121</ele>
        <time>2025-04-25T07:01:41.000Z</time>
      </trkpt>
      <trkpt lat="43.387" lon="6.10827">
        <ele>293.642121</ele>
        <time>2025-04-25T07:01:41.000Z</time>
      </trkpt>
      <trkpt lat="43.38697" lon="6.10834">
        <ele>293.789785</ele>
        <time>2025-04-25T07:01:43.000Z</time>
      </trkpt>
      <trkpt lat="43.38697" lon="6.10834">
        <ele>293.789785</ele>
        <time>2025-04-25T07:01:43.000Z</time>
      </trkpt>
      <trkpt lat="43.38695" lon="6.1084">
        <ele>293.93045</ele>
        <time>2025-04-25T07:01:44.000Z</time>
      </trkpt>
      <trkpt lat="43.38693" lon="6.10846">
        <ele>294.052714</ele>
        <time>2025-04-25T07:01:45.000Z</time>
      </trkpt>
      <trkpt lat="43.38693" lon="6.10846">
        <ele>294.052714</ele>
        <time>2025-04-25T07:01:45.000Z</time>
      </trkpt>
      <trkpt lat="43.38691" lon="6.10853">
        <ele>294.190073</ele>
        <time>2025-04-25T07:01:45.000Z</time>
      </trkpt>
      <trkpt lat="43.38689" lon="6.1086">
        <ele>294.342712</ele>
        <time>2025-04-25T07:01:47.000Z</time>
      </trkpt>
      <trkpt lat="43.38688" lon="6.10868">
        <ele>294.508113</ele>
        <time>2025-04-25T07:01:48.000Z</time>
      </trkpt>
      <trkpt lat="43.38686" lon="6.10876">
        <ele>294.657037</ele>
        <time>2025-04-25T07:01:49.000Z</time>
      </trkpt>
      <trkpt lat="43.38685" lon="6.10884">
        <ele>294.815131</ele>
        <time>2025-04-25T07:01:50.000Z</time>
      </trkpt>
      <trkpt lat="43.38682" lon="6.10891">
        <ele>294.966277</ele>
        <time>2025-04-25T07:01:51.000Z</time>
      </trkpt>
      <trkpt lat="43.3868" lon="6.10898">
        <ele>295.113911</ele>
        <time>2025-04-25T07:01:51.000Z</time>
      </trkpt>
      <trkpt lat="43.38678" lon="6.10905">
        <ele>295.253918</ele>
        <time>2025-04-25T07:01:53.000Z</time>
      </trkpt>
      <trkpt lat="43.38677" lon="6.10912">
        <ele>295.397859</ele>
        <time>2025-04-25T07:01:54.000Z</time>
      </trkpt>
      <trkpt lat="43.38675" lon="6.10919">
        <ele>295.542407</ele>
        <time>2025-04-25T07:01:54.000Z</time>
      </trkpt>
      <trkpt lat="43.38673" lon="6.10926">
        <ele>295.686348</ele>
        <time>2025-04-25T07:01:56.000Z</time>
      </trkpt>
      <trkpt lat="43.38673" lon="6.10926">
        <ele>295.686348</ele>
        <time>2025-04-25T07:01:56.000Z</time>
      </trkpt>
      <trkpt lat="43.38672" lon="6.10934">
        <ele>295.843265</ele>
        <time>2025-04-25T07:01:57.000Z</time>
      </trkpt>
      <trkpt lat="43.3867" lon="6.10941">
        <ele>295.979611</ele>
        <time>2025-04-25T07:01:58.000Z</time>
      </trkpt>
      <trkpt lat="43.38669" lon="6.10948">
        <ele>296.122885</ele>
        <time>2025-04-25T07:01:59.000Z</time>
      </trkpt>
      <trkpt lat="43.38668" lon="6.10957">
        <ele>296.256079</ele>
        <time>2025-04-25T07:01:59.000Z</time>
      </trkpt>
      <trkpt lat="43.38667" lon="6.10964">
        <ele>296.260504</ele>
        <time>2025-04-25T07:02:01.000Z</time>
      </trkpt>
      <trkpt lat="43.38666" lon="6.10972">
        <ele>296.26521</ele>
        <time>2025-04-25T07:02:02.000Z</time>
      </trkpt>
      <trkpt lat="43.38666" lon="6.10972">
        <ele>296.26521</ele>
        <time>2025-04-25T07:02:02.000Z</time>
      </trkpt>
      <trkpt lat="43.38665" lon="6.1098">
        <ele>296.269516</ele>
        <time>2025-04-25T07:02:03.000Z</time>
      </trkpt>
      <trkpt lat="43.38664" lon="6.10987">
        <ele>296.273808</ele>
        <time>2025-04-25T07:02:04.000Z</time>
      </trkpt>
      <trkpt lat="43.38663" lon="6.10993">
        <ele>296.277716</ele>
        <time>2025-04-25T07:02:04.000Z</time>
      </trkpt>
      <trkpt lat="43.3866" lon="6.10998">
        <ele>296.281066</ele>
        <time>2025-04-25T07:02:06.000Z</time>
      </trkpt>
      <trkpt lat="43.38657" lon="6.11">
        <ele>296.28386</ele>
        <time>2025-04-25T07:02:07.000Z</time>
      </trkpt>
      <trkpt lat="43.38654" lon="6.11001">
        <ele>296.286795</ele>
        <time>2025-04-25T07:02:08.000Z</time>
      </trkpt>
      <trkpt lat="43.38654" lon="6.11001">
        <ele>296.286795</ele>
        <time>2025-04-25T07:02:08.000Z</time>
      </trkpt>
      <trkpt lat="43.38651" lon="6.11001">
        <ele>296.289592</ele>
        <time>2025-04-25T07:02:09.000Z</time>
      </trkpt>
      <trkpt lat="43.38649" lon="6.11">
        <ele>296.291155</ele>
        <time>2025-04-25T07:02:10.000Z</time>
      </trkpt>
      <trkpt lat="43.38649" lon="6.11">
        <ele>296.291155</ele>
        <time>2025-04-25T07:02:10.000Z</time>
      </trkpt>
      <trkpt lat="43.38646" lon="6.11001">
        <ele>296.29343</ele>
        <time>2025-04-25T07:02:11.000Z</time>
      </trkpt>
      <trkpt lat="43.38646" lon="6.11001">
        <ele>296.29343</ele>
        <time>2025-04-25T07:02:11.000Z</time>
      </trkpt>
      <trkpt lat="43.38643" lon="6.11003">
        <ele>296.29607</ele>
        <time>2025-04-25T07:02:12.000Z</time>
      </trkpt>
      <trkpt lat="43.38643" lon="6.11003">
        <ele>296.29607</ele>
        <time>2025-04-25T07:02:12.000Z</time>
      </trkpt>
      <trkpt lat="43.3864" lon="6.11004">
        <ele>296.298361</ele>
        <time>2025-04-25T07:02:12.000Z</time>
      </trkpt>
      <trkpt lat="43.3864" lon="6.11004">
        <ele>296.298361</ele>
        <time>2025-04-25T07:02:12.000Z</time>
      </trkpt>
      <trkpt lat="43.38637" lon="6.11004">
        <ele>296.301137</ele>
        <time>2025-04-25T07:02:14.000Z</time>
      </trkpt>
      <trkpt lat="43.38637" lon="6.11004">
        <ele>296.301137</ele>
        <time>2025-04-25T07:02:14.000Z</time>
      </trkpt>
      <trkpt lat="43.38634" lon="6.11003">
        <ele>296.303578</ele>
        <time>2025-04-25T07:02:15.000Z</time>
      </trkpt>
      <trkpt lat="43.38634" lon="6.11003">
        <ele>296.303578</ele>
        <time>2025-04-25T07:02:15.000Z</time>
      </trkpt>
      <trkpt lat="43.3863" lon="6.10999">
        <ele>296.307298</ele>
        <time>2025-04-25T07:02:16.000Z</time>
      </trkpt>
      <trkpt lat="43.3863" lon="6.10999">
        <ele>296.307298</ele>
        <time>2025-04-25T07:02:16.000Z</time>
      </trkpt>
      <trkpt lat="43.38625" lon="6.10995">
        <ele>296.312003</ele>
        <time>2025-04-25T07:02:17.000Z</time>
      </trkpt>
      <trkpt lat="43.38625" lon="6.10995">
        <ele>296.312003</ele>
        <time>2025-04-25T07:02:17.000Z</time>
      </trkpt>
      <trkpt lat="43.38621" lon="6.10991">
        <ele>296.316268</ele>
        <time>2025-04-25T07:02:18.000Z</time>
      </trkpt>
      <trkpt lat="43.38621" lon="6.10991">
        <ele>296.316268</ele>
        <time>2025-04-25T07:02:18.000Z</time>
      </trkpt>
      <trkpt lat="43.38614" lon="6.10987">
        <ele>296.322383</ele>
        <time>2025-04-25T07:02:19.000Z</time>
      </trkpt>
      <trkpt lat="43.38614" lon="6.10987">
        <ele>296.322383</ele>
        <time>2025-04-25T07:02:19.000Z</time>
      </trkpt>
      <trkpt lat="43.38601" lon="6.10985">
        <ele>296.333401</ele>
        <time>2025-04-25T07:02:21.000Z</time>
      </trkpt>
      <trkpt lat="43.38601" lon="6.10985">
        <ele>296.333401</ele>
        <time>2025-04-25T07:02:21.000Z</time>
      </trkpt>
      <trkpt lat="43.38596" lon="6.10985">
        <ele>296.337062</ele>
        <time>2025-04-25T07:02:22.000Z</time>
      </trkpt>
      <trkpt lat="43.3859" lon="6.10985">
        <ele>296.342028</ele>
        <time>2025-04-25T07:02:23.000Z</time>
      </trkpt>
      <trkpt lat="43.38583" lon="6.10985">
        <ele>296.347972</ele>
        <time>2025-04-25T07:02:24.000Z</time>
      </trkpt>
      <trkpt lat="43.38576" lon="6.10986">
        <ele>296.353268</ele>
        <time>2025-04-25T07:02:25.000Z</time>
      </trkpt>
      <trkpt lat="43.38576" lon="6.10986">
        <ele>296.353268</ele>
        <time>2025-04-25T07:02:25.000Z</time>
      </trkpt>
      <trkpt lat="43.38569" lon="6.10986">
        <ele>296.359128</ele>
        <time>2025-04-25T07:02:26.000Z</time>
      </trkpt>
      <trkpt lat="43.38562" lon="6.10986">
        <ele>296.365075</ele>
        <time>2025-04-25T07:02:27.000Z</time>
      </trkpt>
      <trkpt lat="43.38562" lon="6.10986">
        <ele>296.365075</ele>
        <time>2025-04-25T07:02:27.000Z</time>
      </trkpt>
      <trkpt lat="43.38556" lon="6.10984">
        <ele>296.370138</ele>
        <time>2025-04-25T07:02:28.000Z</time>
      </trkpt>
      <trkpt lat="43.38556" lon="6.10984">
        <ele>296.370138</ele>
        <time>2025-04-25T07:02:28.000Z</time>
      </trkpt>
      <trkpt lat="43.38552" lon="6.10983">
        <ele>296.37331</ele>
        <time>2025-04-25T07:02:29.000Z</time>
      </trkpt>
      <trkpt lat="43.38552" lon="6.10983">
        <ele>296.37331</ele>
        <time>2025-04-25T07:02:29.000Z</time>
      </trkpt>
      <trkpt lat="43.38552" lon="6.10983">
        <ele>296.373665</ele>
        <time>2025-04-25T07:02:30.000Z</time>
      </trkpt>
      <trkpt lat="43.38538" lon="6.10977">
        <ele>296.385726</ele>
        <time>2025-04-25T07:02:31.000Z</time>
      </trkpt>
      <trkpt lat="43.38538" lon="6.10977">
        <ele>296.385726</ele>
        <time>2025-04-25T07:02:31.000Z</time>
      </trkpt>
      <trkpt lat="43.38528" lon="6.10974">
        <ele>296.393461</ele>
        <time>2025-04-25T07:02:32.000Z</time>
      </trkpt>
      <trkpt lat="43.38528" lon="6.10974">
        <ele>296.393461</ele>
        <time>2025-04-25T07:02:32.000Z</time>
      </trkpt>
      <trkpt lat="43.3852" lon="6.10971">
        <ele>296.400386</ele>
        <time>2025-04-25T07:02:33.000Z</time>
      </trkpt>
      <trkpt lat="43.3852" lon="6.10971">
        <ele>296.400386</ele>
        <time>2025-04-25T07:02:33.000Z</time>
      </trkpt>
      <trkpt lat="43.38511" lon="6.10968">
        <ele>296.023768</ele>
        <time>2025-04-25T07:02:34.000Z</time>
      </trkpt>
      <trkpt lat="43.38511" lon="6.10968">
        <ele>296.023768</ele>
        <time>2025-04-25T07:02:34.000Z</time>
      </trkpt>
      <trkpt lat="43.38501" lon="6.10966">
        <ele>295.517545</ele>
        <time>2025-04-25T07:02:35.000Z</time>
      </trkpt>
      <trkpt lat="43.38501" lon="6.10966">
        <ele>295.517545</ele>
        <time>2025-04-25T07:02:35.000Z</time>
      </trkpt>
      <trkpt lat="43.38491" lon="6.10964">
        <ele>295.069249</ele>
        <time>2025-04-25T07:02:36.000Z</time>
      </trkpt>
      <trkpt lat="43.38491" lon="6.10964">
        <ele>295.069249</ele>
        <time>2025-04-25T07:02:36.000Z</time>
      </trkpt>
      <trkpt lat="43.38485" lon="6.10962">
        <ele>294.763092</ele>
        <time>2025-04-25T07:02:37.000Z</time>
      </trkpt>
      <trkpt lat="43.38485" lon="6.10962">
        <ele>294.763092</ele>
        <time>2025-04-25T07:02:37.000Z</time>
      </trkpt>
      <trkpt lat="43.38479" lon="6.10961">
        <ele>294.489634</ele>
        <time>2025-04-25T07:02:38.000Z</time>
      </trkpt>
      <trkpt lat="43.38479" lon="6.10961">
        <ele>294.489634</ele>
        <time>2025-04-25T07:02:38.000Z</time>
      </trkpt>
      <trkpt lat="43.38474" lon="6.1096">
        <ele>294.279547</ele>
        <time>2025-04-25T07:02:39.000Z</time>
      </trkpt>
      <trkpt lat="43.38474" lon="6.1096">
        <ele>294.279547</ele>
        <time>2025-04-25T07:02:39.000Z</time>
      </trkpt>
      <trkpt lat="43.3847" lon="6.1096">
        <ele>294.083371</ele>
        <time>2025-04-25T07:02:40.000Z</time>
      </trkpt>
      <trkpt lat="43.3847" lon="6.1096">
        <ele>294.083371</ele>
        <time>2025-04-25T07:02:40.000Z</time>
      </trkpt>
      <trkpt lat="43.38465" lon="6.10959">
        <ele>293.831267</ele>
        <time>2025-04-25T07:02:41.000Z</time>
      </trkpt>
      <trkpt lat="43.38465" lon="6.10959">
        <ele>293.831267</ele>
        <time>2025-04-25T07:02:41.000Z</time>
      </trkpt>
      <trkpt lat="43.38458" lon="6.10958">
        <ele>293.532219</ele>
        <time>2025-04-25T07:02:42.000Z</time>
      </trkpt>
      <trkpt lat="43.38458" lon="6.10958">
        <ele>293.532219</ele>
        <time>2025-04-25T07:02:42.000Z</time>
      </trkpt>
      <trkpt lat="43.38452" lon="6.10958">
        <ele>293.228537</ele>
        <time>2025-04-25T07:02:43.000Z</time>
      </trkpt>
      <trkpt lat="43.38452" lon="6.10958">
        <ele>293.228537</ele>
        <time>2025-04-25T07:02:43.000Z</time>
      </trkpt>
      <trkpt lat="43.38445" lon="6.10957">
        <ele>292.905672</ele>
        <time>2025-04-25T07:02:44.000Z</time>
      </trkpt>
      <trkpt lat="43.38445" lon="6.10957">
        <ele>292.905672</ele>
        <time>2025-04-25T07:02:44.000Z</time>
      </trkpt>
      <trkpt lat="43.38438" lon="6.10955">
        <ele>292.600487</ele>
        <time>2025-04-25T07:02:45.000Z</time>
      </trkpt>
      <trkpt lat="43.38438" lon="6.10955">
        <ele>292.600487</ele>
        <time>2025-04-25T07:02:45.000Z</time>
      </trkpt>
      <trkpt lat="43.38431" lon="6.10954">
        <ele>292.261097</ele>
        <time>2025-04-25T07:02:46.000Z</time>
      </trkpt>
      <trkpt lat="43.38431" lon="6.10954">
        <ele>292.261097</ele>
        <time>2025-04-25T07:02:46.000Z</time>
      </trkpt>
      <trkpt lat="43.38424" lon="6.10952">
        <ele>291.899207</ele>
        <time>2025-04-25T07:02:47.000Z</time>
      </trkpt>
      <trkpt lat="43.38424" lon="6.10952">
        <ele>291.899207</ele>
        <time>2025-04-25T07:02:47.000Z</time>
      </trkpt>
      <trkpt lat="43.38416" lon="6.10951">
        <ele>291.522517</ele>
        <time>2025-04-25T07:02:48.000Z</time>
      </trkpt>
      <trkpt lat="43.38416" lon="6.10951">
        <ele>291.522517</ele>
        <time>2025-04-25T07:02:48.000Z</time>
      </trkpt>
      <trkpt lat="43.38409" lon="6.10949">
        <ele>291.215241</ele>
        <time>2025-04-25T07:02:49.000Z</time>
      </trkpt>
      <trkpt lat="43.38409" lon="6.10949">
        <ele>291.215241</ele>
        <time>2025-04-25T07:02:49.000Z</time>
      </trkpt>
      <trkpt lat="43.38403" lon="6.10947">
        <ele>290.943834</ele>
        <time>2025-04-25T07:02:50.000Z</time>
      </trkpt>
      <trkpt lat="43.38403" lon="6.10947">
        <ele>290.943834</ele>
        <time>2025-04-25T07:02:50.000Z</time>
      </trkpt>
      <trkpt lat="43.38398" lon="6.10946">
        <ele>290.6755</ele>
        <time>2025-04-25T07:02:51.000Z</time>
      </trkpt>
      <trkpt lat="43.38398" lon="6.10946">
        <ele>290.6755</ele>
        <time>2025-04-25T07:02:51.000Z</time>
      </trkpt>
      <trkpt lat="43.38393" lon="6.10945">
        <ele>290.439315</ele>
        <time>2025-04-25T07:02:52.000Z</time>
      </trkpt>
      <trkpt lat="43.38393" lon="6.10945">
        <ele>290.439315</ele>
        <time>2025-04-25T07:02:52.000Z</time>
      </trkpt>
      <trkpt lat="43.38387" lon="6.10943">
        <ele>290.168604</ele>
        <time>2025-04-25T07:02:53.000Z</time>
      </trkpt>
      <trkpt lat="43.38387" lon="6.10943">
        <ele>290.168604</ele>
        <time>2025-04-25T07:02:53.000Z</time>
      </trkpt>
      <trkpt lat="43.3838" lon="6.10942">
        <ele>289.860065</ele>
        <time>2025-04-25T07:02:54.000Z</time>
      </trkpt>
      <trkpt lat="43.3838" lon="6.10942">
        <ele>289.860065</ele>
        <time>2025-04-25T07:02:54.000Z</time>
      </trkpt>
      <trkpt lat="43.38374" lon="6.1094">
        <ele>289.552788</ele>
        <time>2025-04-25T07:02:55.000Z</time>
      </trkpt>
      <trkpt lat="43.38374" lon="6.1094">
        <ele>289.552788</ele>
        <time>2025-04-25T07:02:55.000Z</time>
      </trkpt>
      <trkpt lat="43.38368" lon="6.10939">
        <ele>289.265005</ele>
        <time>2025-04-25T07:02:56.000Z</time>
      </trkpt>
      <trkpt lat="43.38368" lon="6.10939">
        <ele>289.265005</ele>
        <time>2025-04-25T07:02:56.000Z</time>
      </trkpt>
      <trkpt lat="43.38363" lon="6.10937">
        <ele>289.051034</ele>
        <time>2025-04-25T07:02:57.000Z</time>
      </trkpt>
      <trkpt lat="43.38363" lon="6.10937">
        <ele>289.051034</ele>
        <time>2025-04-25T07:02:57.000Z</time>
      </trkpt>
      <trkpt lat="43.38358" lon="6.10936">
        <ele>288.815406</ele>
        <time>2025-04-25T07:02:58.000Z</time>
      </trkpt>
      <trkpt lat="43.38358" lon="6.10936">
        <ele>288.815406</ele>
        <time>2025-04-25T07:02:58.000Z</time>
      </trkpt>
      <trkpt lat="43.38353" lon="6.10935">
        <ele>288.57922</ele>
        <time>2025-04-25T07:02:59.000Z</time>
      </trkpt>
      <trkpt lat="43.38353" lon="6.10935">
        <ele>288.57922</ele>
        <time>2025-04-25T07:02:59.000Z</time>
      </trkpt>
      <trkpt lat="43.38349" lon="6.10934">
        <ele>288.386016</ele>
        <time>2025-04-25T07:03:00.000Z</time>
      </trkpt>
      <trkpt lat="43.38344" lon="6.10933">
        <ele>288.148574</ele>
        <time>2025-04-25T07:03:01.000Z</time>
      </trkpt>
      <trkpt lat="43.38344" lon="6.10933">
        <ele>288.148574</ele>
        <time>2025-04-25T07:03:01.000Z</time>
      </trkpt>
      <trkpt lat="43.38342" lon="6.10932">
        <ele>288.05786</ele>
        <time>2025-04-25T07:03:02.000Z</time>
      </trkpt>
      <trkpt lat="43.38342" lon="6.10932">
        <ele>288.05786</ele>
        <time>2025-04-25T07:03:02.000Z</time>
      </trkpt>
      <trkpt lat="43.38337" lon="6.10931">
        <ele>287.990132</ele>
        <time>2025-04-25T07:03:03.000Z</time>
      </trkpt>
      <trkpt lat="43.38333" lon="6.1093">
        <ele>287.95075</ele>
        <time>2025-04-25T07:03:04.000Z</time>
      </trkpt>
      <trkpt lat="43.38333" lon="6.1093">
        <ele>287.95075</ele>
        <time>2025-04-25T07:03:04.000Z</time>
      </trkpt>
      <trkpt lat="43.38327" lon="6.10928">
        <ele>287.897098</ele>
        <time>2025-04-25T07:03:05.000Z</time>
      </trkpt>
      <trkpt lat="43.38321" lon="6.10926">
        <ele>287.836167</ele>
        <time>2025-04-25T07:03:06.000Z</time>
      </trkpt>
      <trkpt lat="43.38321" lon="6.10926">
        <ele>287.836167</ele>
        <time>2025-04-25T07:03:06.000Z</time>
      </trkpt>
      <trkpt lat="43.383" lon="6.10918">
        <ele>287.641567</ele>
        <time>2025-04-25T07:03:08.000Z</time>
      </trkpt>
      <trkpt lat="43.383" lon="6.10918">
        <ele>287.641567</ele>
        <time>2025-04-25T07:03:08.000Z</time>
      </trkpt>
      <trkpt lat="43.38295" lon="6.10917">
        <ele>287.595646</ele>
        <time>2025-04-25T07:03:09.000Z</time>
      </trkpt>
      <trkpt lat="43.3829" lon="6.10915">
        <ele>287.548193</ele>
        <time>2025-04-25T07:03:10.000Z</time>
      </trkpt>
      <trkpt lat="43.38283" lon="6.10913">
        <ele>287.480575</ele>
        <time>2025-04-25T07:03:11.000Z</time>
      </trkpt>
      <trkpt lat="43.38283" lon="6.10913">
        <ele>287.480575</ele>
        <time>2025-04-25T07:03:11.000Z</time>
      </trkpt>
      <trkpt lat="43.38275" lon="6.1091">
        <ele>287.404486</ele>
        <time>2025-04-25T07:03:12.000Z</time>
      </trkpt>
      <trkpt lat="43.38267" lon="6.10908">
        <ele>287.329288</ele>
        <time>2025-04-25T07:03:13.000Z</time>
      </trkpt>
      <trkpt lat="43.38261" lon="6.10906">
        <ele>287.272352</ele>
        <time>2025-04-25T07:03:14.000Z</time>
      </trkpt>
      <trkpt lat="43.38261" lon="6.10906">
        <ele>287.272352</ele>
        <time>2025-04-25T07:03:14.000Z</time>
      </trkpt>
      <trkpt lat="43.38255" lon="6.10904">
        <ele>287.211116</ele>
        <time>2025-04-25T07:03:15.000Z</time>
      </trkpt>
      <trkpt lat="43.38255" lon="6.10904">
        <ele>287.211116</ele>
        <time>2025-04-25T07:03:15.000Z</time>
      </trkpt>
      <trkpt lat="43.38248" lon="6.10902">
        <ele>287.151078</ele>
        <time>2025-04-25T07:03:16.000Z</time>
      </trkpt>
      <trkpt lat="43.38248" lon="6.10902">
        <ele>287.151078</ele>
        <time>2025-04-25T07:03:16.000Z</time>
      </trkpt>
      <trkpt lat="43.38242" lon="6.109">
        <ele>287.096536</ele>
        <time>2025-04-25T07:03:17.000Z</time>
      </trkpt>
      <trkpt lat="43.38236" lon="6.10898">
        <ele>287.036907</ele>
        <time>2025-04-25T07:03:18.000Z</time>
      </trkpt>
      <trkpt lat="43.38229" lon="6.10896">
        <ele>286.976501</ele>
        <time>2025-04-25T07:03:19.000Z</time>
      </trkpt>
      <trkpt lat="43.38229" lon="6.10896">
        <ele>286.976501</ele>
        <time>2025-04-25T07:03:19.000Z</time>
      </trkpt>
      <trkpt lat="43.38224" lon="6.10895">
        <ele>286.922109</ele>
        <time>2025-04-25T07:03:20.000Z</time>
      </trkpt>
      <trkpt lat="43.38218" lon="6.10893">
        <ele>286.868891</ele>
        <time>2025-04-25T07:03:21.000Z</time>
      </trkpt>
      <trkpt lat="43.38212" lon="6.10891">
        <ele>286.815239</ele>
        <time>2025-04-25T07:03:22.000Z</time>
      </trkpt>
      <trkpt lat="43.38207" lon="6.1089">
        <ele>286.762021</ele>
        <time>2025-04-25T07:03:23.000Z</time>
      </trkpt>
      <trkpt lat="43.38202" lon="6.10888">
        <ele>286.722326</ele>
        <time>2025-04-25T07:03:24.000Z</time>
      </trkpt>
      <trkpt lat="43.38202" lon="6.10888">
        <ele>286.722326</ele>
        <time>2025-04-25T07:03:24.000Z</time>
      </trkpt>
      <trkpt lat="43.38199" lon="6.10886">
        <ele>286.690417</ele>
        <time>2025-04-25T07:03:25.000Z</time>
      </trkpt>
      <trkpt lat="43.38196" lon="6.10883">
        <ele>286.654832</ele>
        <time>2025-04-25T07:03:26.000Z</time>
      </trkpt>
      <trkpt lat="43.38194" lon="6.10883">
        <ele>286.64111</ele>
        <time>2025-04-25T07:03:27.000Z</time>
      </trkpt>
      <trkpt lat="43.38191" lon="6.10882">
        <ele>286.608267</ele>
        <time>2025-04-25T07:03:28.000Z</time>
      </trkpt>
      <trkpt lat="43.38191" lon="6.10882">
        <ele>286.608267</ele>
        <time>2025-04-25T07:03:28.000Z</time>
      </trkpt>
      <trkpt lat="43.38187" lon="6.10881">
        <ele>286.576461</ele>
        <time>2025-04-25T07:03:29.000Z</time>
      </trkpt>
      <trkpt lat="43.38187" lon="6.10881">
        <ele>286.576461</ele>
        <time>2025-04-25T07:03:29.000Z</time>
      </trkpt>
      <trkpt lat="43.38184" lon="6.10881">
        <ele>286.541597</ele>
        <time>2025-04-25T07:03:30.000Z</time>
      </trkpt>
      <trkpt lat="43.38168" lon="6.10881">
        <ele>286.398885</ele>
        <time>2025-04-25T07:03:32.000Z</time>
      </trkpt>
      <trkpt lat="43.38165" lon="6.10881">
        <ele>286.38941</ele>
        <time>2025-04-25T07:03:33.000Z</time>
      </trkpt>
      <trkpt lat="43.38165" lon="6.10881">
        <ele>286.38941</ele>
        <time>2025-04-25T07:03:33.000Z</time>
      </trkpt>
      <trkpt lat="43.3816" lon="6.10881">
        <ele>286.400196</ele>
        <time>2025-04-25T07:03:34.000Z</time>
      </trkpt>
      <trkpt lat="43.38154" lon="6.1088">
        <ele>286.413358</ele>
        <time>2025-04-25T07:03:35.000Z</time>
      </trkpt>
      <trkpt lat="43.38154" lon="6.1088">
        <ele>286.413358</ele>
        <time>2025-04-25T07:03:35.000Z</time>
      </trkpt>
      <trkpt lat="43.38147" lon="6.1088">
        <ele>286.428889</ele>
        <time>2025-04-25T07:03:36.000Z</time>
      </trkpt>
      <trkpt lat="43.38141" lon="6.1088">
        <ele>286.441186</ele>
        <time>2025-04-25T07:03:37.000Z</time>
      </trkpt>
      <trkpt lat="43.38137" lon="6.1088">
        <ele>286.450245</ele>
        <time>2025-04-25T07:03:38.000Z</time>
      </trkpt>
      <trkpt lat="43.38133" lon="6.1088">
        <ele>286.458444</ele>
        <time>2025-04-25T07:03:39.000Z</time>
      </trkpt>
      <trkpt lat="43.3813" lon="6.1088">
        <ele>286.465131</ele>
        <time>2025-04-25T07:03:40.000Z</time>
      </trkpt>
      <trkpt lat="43.38128" lon="6.1088">
        <ele>286.470102</ele>
        <time>2025-04-25T07:03:41.000Z</time>
      </trkpt>
      <trkpt lat="43.38125" lon="6.1088">
        <ele>286.475928</ele>
        <time>2025-04-25T07:03:42.000Z</time>
      </trkpt>
      <trkpt lat="43.38122" lon="6.1088">
        <ele>286.482407</ele>
        <time>2025-04-25T07:03:43.000Z</time>
      </trkpt>
      <trkpt lat="43.38118" lon="6.10879">
        <ele>286.491473</ele>
        <time>2025-04-25T07:03:44.000Z</time>
      </trkpt>
      <trkpt lat="43.38118" lon="6.10879">
        <ele>286.491473</ele>
        <time>2025-04-25T07:03:44.000Z</time>
      </trkpt>
      <trkpt lat="43.38113" lon="6.10879">
        <ele>286.501426</ele>
        <time>2025-04-25T07:03:45.000Z</time>
      </trkpt>
      <trkpt lat="43.38113" lon="6.10879">
        <ele>286.501426</ele>
        <time>2025-04-25T07:03:45.000Z</time>
      </trkpt>
      <trkpt lat="43.38106" lon="6.10879">
        <ele>286.516102</ele>
        <time>2025-04-25T07:03:46.000Z</time>
      </trkpt>
      <trkpt lat="43.38095" lon="6.10883">
        <ele>286.541768</ele>
        <time>2025-04-25T07:03:48.000Z</time>
      </trkpt>
      <trkpt lat="43.38095" lon="6.10883">
        <ele>286.541768</ele>
        <time>2025-04-25T07:03:48.000Z</time>
      </trkpt>
      <trkpt lat="43.38092" lon="6.10886">
        <ele>286.550355</ele>
        <time>2025-04-25T07:03:49.000Z</time>
      </trkpt>
      <trkpt lat="43.38089" lon="6.10892">
        <ele>286.559898</ele>
        <time>2025-04-25T07:03:50.000Z</time>
      </trkpt>
      <trkpt lat="43.38088" lon="6.10897">
        <ele>286.56832</ele>
        <time>2025-04-25T07:03:51.000Z</time>
      </trkpt>
      <trkpt lat="43.38088" lon="6.10897">
        <ele>286.56832</ele>
        <time>2025-04-25T07:03:51.000Z</time>
      </trkpt>
      <trkpt lat="43.38086" lon="6.10901">
        <ele>286.576615</ele>
        <time>2025-04-25T07:03:52.000Z</time>
      </trkpt>
      <trkpt lat="43.38083" lon="6.10904">
        <ele>286.58414</ele>
        <time>2025-04-25T07:03:53.000Z</time>
      </trkpt>
      <trkpt lat="43.38081" lon="6.10907">
        <ele>286.591074</ele>
        <time>2025-04-25T07:03:54.000Z</time>
      </trkpt>
      <trkpt lat="43.38081" lon="6.10907">
        <ele>286.591074</ele>
        <time>2025-04-25T07:03:54.000Z</time>
      </trkpt>
      <trkpt lat="43.38077" lon="6.10908">
        <ele>286.599392</ele>
        <time>2025-04-25T07:03:55.000Z</time>
      </trkpt>
      <trkpt lat="43.38073" lon="6.10907">
        <ele>286.607602</ele>
        <time>2025-04-25T07:03:56.000Z</time>
      </trkpt>
      <trkpt lat="43.38073" lon="6.10907">
        <ele>286.607602</ele>
        <time>2025-04-25T07:03:56.000Z</time>
      </trkpt>
      <trkpt lat="43.38068" lon="6.10906">
        <ele>286.619456</ele>
        <time>2025-04-25T07:03:57.000Z</time>
      </trkpt>
      <trkpt lat="43.38062" lon="6.10904">
        <ele>286.632071</ele>
        <time>2025-04-25T07:03:58.000Z</time>
      </trkpt>
      <trkpt lat="43.38056" lon="6.10902">
        <ele>286.64476</ele>
        <time>2025-04-25T07:03:59.000Z</time>
      </trkpt>
      <trkpt lat="43.38056" lon="6.10902">
        <ele>286.64476</ele>
        <time>2025-04-25T07:03:59.000Z</time>
      </trkpt>
      <trkpt lat="43.38051" lon="6.109">
        <ele>286.656783</ele>
        <time>2025-04-25T07:04:00.000Z</time>
      </trkpt>
      <trkpt lat="43.38046" lon="6.10898">
        <ele>286.668819</ele>
        <time>2025-04-25T07:04:01.000Z</time>
      </trkpt>
      <trkpt lat="43.38041" lon="6.10895">
        <ele>286.680242</ele>
        <time>2025-04-25T07:04:02.000Z</time>
      </trkpt>
      <trkpt lat="43.38036" lon="6.10893">
        <ele>286.691628</ele>
        <time>2025-04-25T07:04:03.000Z</time>
      </trkpt>
      <trkpt lat="43.3803" lon="6.10889">
        <ele>286.705885</ele>
        <time>2025-04-25T07:04:04.000Z</time>
      </trkpt>
      <trkpt lat="43.38025" lon="6.10886">
        <ele>286.716934</ele>
        <time>2025-04-25T07:04:05.000Z</time>
      </trkpt>
      <trkpt lat="43.3802" lon="6.10884">
        <ele>286.728831</ele>
        <time>2025-04-25T07:04:06.000Z</time>
      </trkpt>
      <trkpt lat="43.38014" lon="6.10883">
        <ele>286.74144</ele>
        <time>2025-04-25T07:04:07.000Z</time>
      </trkpt>
      <trkpt lat="43.38009" lon="6.10883">
        <ele>286.752877</ele>
        <time>2025-04-25T07:04:08.000Z</time>
      </trkpt>
      <trkpt lat="43.38003" lon="6.10883">
        <ele>286.765177</ele>
        <time>2025-04-25T07:04:09.000Z</time>
      </trkpt>
      <trkpt lat="43.38003" lon="6.10883">
        <ele>286.765177</ele>
        <time>2025-04-25T07:04:09.000Z</time>
      </trkpt>
      <trkpt lat="43.37997" lon="6.10883">
        <ele>286.693074</ele>
        <time>2025-04-25T07:04:10.000Z</time>
      </trkpt>
      <trkpt lat="43.37997" lon="6.10883">
        <ele>286.693074</ele>
        <time>2025-04-25T07:04:10.000Z</time>
      </trkpt>
      <trkpt lat="43.3799" lon="6.10881">
        <ele>286.424871</ele>
        <time>2025-04-25T07:04:11.000Z</time>
      </trkpt>
      <trkpt lat="43.3799" lon="6.10881">
        <ele>286.424871</ele>
        <time>2025-04-25T07:04:11.000Z</time>
      </trkpt>
      <trkpt lat="43.37984" lon="6.10879">
        <ele>286.177496</ele>
        <time>2025-04-25T07:04:12.000Z</time>
      </trkpt>
      <trkpt lat="43.37984" lon="6.10879">
        <ele>286.177496</ele>
        <time>2025-04-25T07:04:12.000Z</time>
      </trkpt>
      <trkpt lat="43.37977" lon="6.10875">
        <ele>285.879875</ele>
        <time>2025-04-25T07:04:13.000Z</time>
      </trkpt>
      <trkpt lat="43.37977" lon="6.10875">
        <ele>285.879875</ele>
        <time>2025-04-25T07:04:13.000Z</time>
      </trkpt>
      <trkpt lat="43.37969" lon="6.10869">
        <ele>285.547335</ele>
        <time>2025-04-25T07:04:14.000Z</time>
      </trkpt>
      <trkpt lat="43.37969" lon="6.10869">
        <ele>285.547335</ele>
        <time>2025-04-25T07:04:14.000Z</time>
      </trkpt>
      <trkpt lat="43.37962" lon="6.10863">
        <ele>285.239338</ele>
        <time>2025-04-25T07:04:15.000Z</time>
      </trkpt>
      <trkpt lat="43.37962" lon="6.10863">
        <ele>285.239338</ele>
        <time>2025-04-25T07:04:15.000Z</time>
      </trkpt>
      <trkpt lat="43.37956" lon="6.10855">
        <ele>284.924219</ele>
        <time>2025-04-25T07:04:16.000Z</time>
      </trkpt>
      <trkpt lat="43.37956" lon="6.10855">
        <ele>284.924219</ele>
        <time>2025-04-25T07:04:16.000Z</time>
      </trkpt>
      <trkpt lat="43.37951" lon="6.10848">
        <ele>284.637926</ele>
        <time>2025-04-25T07:04:17.000Z</time>
      </trkpt>
      <trkpt lat="43.37951" lon="6.10848">
        <ele>284.637926</ele>
        <time>2025-04-25T07:04:17.000Z</time>
      </trkpt>
      <trkpt lat="43.37945" lon="6.10841">
        <ele>284.348499</ele>
        <time>2025-04-25T07:04:18.000Z</time>
      </trkpt>
      <trkpt lat="43.37945" lon="6.10841">
        <ele>284.348499</ele>
        <time>2025-04-25T07:04:18.000Z</time>
      </trkpt>
      <trkpt lat="43.37942" lon="6.10836">
        <ele>284.158975</ele>
        <time>2025-04-25T07:04:19.000Z</time>
      </trkpt>
      <trkpt lat="43.37942" lon="6.10836">
        <ele>284.158975</ele>
        <time>2025-04-25T07:04:19.000Z</time>
      </trkpt>
      <trkpt lat="43.37939" lon="6.1083">
        <ele>283.958379</ele>
        <time>2025-04-25T07:04:20.000Z</time>
      </trkpt>
      <trkpt lat="43.37939" lon="6.1083">
        <ele>283.958379</ele>
        <time>2025-04-25T07:04:20.000Z</time>
      </trkpt>
      <trkpt lat="43.37935" lon="6.10822">
        <ele>283.696815</ele>
        <time>2025-04-25T07:04:21.000Z</time>
      </trkpt>
      <trkpt lat="43.37935" lon="6.10822">
        <ele>283.696815</ele>
        <time>2025-04-25T07:04:21.000Z</time>
      </trkpt>
      <trkpt lat="43.3793" lon="6.10813">
        <ele>283.363022</ele>
        <time>2025-04-25T07:04:22.000Z</time>
      </trkpt>
      <trkpt lat="43.3793" lon="6.10813">
        <ele>283.363022</ele>
        <time>2025-04-25T07:04:22.000Z</time>
      </trkpt>
      <trkpt lat="43.37925" lon="6.10805">
        <ele>283.092589</ele>
        <time>2025-04-25T07:04:23.000Z</time>
      </trkpt>
      <trkpt lat="43.37925" lon="6.10805">
        <ele>283.092589</ele>
        <time>2025-04-25T07:04:23.000Z</time>
      </trkpt>
      <trkpt lat="43.37922" lon="6.10797">
        <ele>282.830991</ele>
        <time>2025-04-25T07:04:24.000Z</time>
      </trkpt>
      <trkpt lat="43.37922" lon="6.10797">
        <ele>282.830991</ele>
        <time>2025-04-25T07:04:24.000Z</time>
      </trkpt>
      <trkpt lat="43.37919" lon="6.10789">
        <ele>282.571505</ele>
        <time>2025-04-25T07:04:25.000Z</time>
      </trkpt>
      <trkpt lat="43.37919" lon="6.10789">
        <ele>282.571505</ele>
        <time>2025-04-25T07:04:25.000Z</time>
      </trkpt>
      <trkpt lat="43.37917" lon="6.10781">
        <ele>282.337005</ele>
        <time>2025-04-25T07:04:26.000Z</time>
      </trkpt>
      <trkpt lat="43.37917" lon="6.10781">
        <ele>282.337005</ele>
        <time>2025-04-25T07:04:26.000Z</time>
      </trkpt>
      <trkpt lat="43.37914" lon="6.10776">
        <ele>282.174505</ele>
        <time>2025-04-25T07:04:27.000Z</time>
      </trkpt>
      <trkpt lat="43.37914" lon="6.10776">
        <ele>282.174505</ele>
        <time>2025-04-25T07:04:27.000Z</time>
      </trkpt>
      <trkpt lat="43.37912" lon="6.10775">
        <ele>282.079197</ele>
        <time>2025-04-25T07:04:28.000Z</time>
      </trkpt>
      <trkpt lat="43.37912" lon="6.10775">
        <ele>282.079197</ele>
        <time>2025-04-25T07:04:28.000Z</time>
      </trkpt>
      <trkpt lat="43.3791" lon="6.10774">
        <ele>281.988266</ele>
        <time>2025-04-25T07:04:29.000Z</time>
      </trkpt>
      <trkpt lat="43.3791" lon="6.10774">
        <ele>281.988266</ele>
        <time>2025-04-25T07:04:29.000Z</time>
      </trkpt>
      <trkpt lat="43.37907" lon="6.10773">
        <ele>281.899014</ele>
        <time>2025-04-25T07:04:30.000Z</time>
      </trkpt>
      <trkpt lat="43.37907" lon="6.10773">
        <ele>281.899014</ele>
        <time>2025-04-25T07:04:30.000Z</time>
      </trkpt>
      <trkpt lat="43.37904" lon="6.10774">
        <ele>281.783992</ele>
        <time>2025-04-25T07:04:31.000Z</time>
      </trkpt>
      <trkpt lat="43.37904" lon="6.10774">
        <ele>281.783992</ele>
        <time>2025-04-25T07:04:31.000Z</time>
      </trkpt>
      <trkpt lat="43.379" lon="6.10774">
        <ele>281.623008</ele>
        <time>2025-04-25T07:04:32.000Z</time>
      </trkpt>
      <trkpt lat="43.379" lon="6.10774">
        <ele>281.623008</ele>
        <time>2025-04-25T07:04:32.000Z</time>
      </trkpt>
      <trkpt lat="43.37895" lon="6.10774">
        <ele>281.416029</ele>
        <time>2025-04-25T07:04:33.000Z</time>
      </trkpt>
      <trkpt lat="43.37895" lon="6.10774">
        <ele>281.416029</ele>
        <time>2025-04-25T07:04:33.000Z</time>
      </trkpt>
      <trkpt lat="43.37889" lon="6.10774">
        <ele>281.197267</ele>
        <time>2025-04-25T07:04:34.000Z</time>
      </trkpt>
      <trkpt lat="43.37889" lon="6.10774">
        <ele>281.197267</ele>
        <time>2025-04-25T07:04:34.000Z</time>
      </trkpt>
      <trkpt lat="43.37883" lon="6.10775">
        <ele>280.97792</ele>
        <time>2025-04-25T07:04:35.000Z</time>
      </trkpt>
      <trkpt lat="43.37877" lon="6.10775">
        <ele>280.728716</ele>
        <time>2025-04-25T07:04:36.000Z</time>
      </trkpt>
      <trkpt lat="43.37877" lon="6.10775">
        <ele>280.728716</ele>
        <time>2025-04-25T07:04:36.000Z</time>
      </trkpt>
      <trkpt lat="43.3787" lon="6.10774">
        <ele>280.479014</ele>
        <time>2025-04-25T07:04:37.000Z</time>
      </trkpt>
      <trkpt lat="43.3787" lon="6.10774">
        <ele>280.479014</ele>
        <time>2025-04-25T07:04:37.000Z</time>
      </trkpt>
      <trkpt lat="43.37864" lon="6.10773">
        <ele>280.243863</ele>
        <time>2025-04-25T07:04:38.000Z</time>
      </trkpt>
      <trkpt lat="43.37864" lon="6.10773">
        <ele>280.243863</ele>
        <time>2025-04-25T07:04:38.000Z</time>
      </trkpt>
      <trkpt lat="43.37858" lon="6.10772">
        <ele>279.993463</ele>
        <time>2025-04-25T07:04:39.000Z</time>
      </trkpt>
      <trkpt lat="43.37858" lon="6.10772">
        <ele>279.993463</ele>
        <time>2025-04-25T07:04:39.000Z</time>
      </trkpt>
      <trkpt lat="43.37851" lon="6.10772">
        <ele>279.928286</ele>
        <time>2025-04-25T07:04:40.000Z</time>
      </trkpt>
      <trkpt lat="43.37844" lon="6.10771">
        <ele>280.0071</ele>
        <time>2025-04-25T07:04:41.000Z</time>
      </trkpt>
      <trkpt lat="43.37844" lon="6.10771">
        <ele>280.0071</ele>
        <time>2025-04-25T07:04:41.000Z</time>
      </trkpt>
      <trkpt lat="43.37837" lon="6.10771">
        <ele>280.089228</ele>
        <time>2025-04-25T07:04:42.000Z</time>
      </trkpt>
      <trkpt lat="43.37828" lon="6.10771">
        <ele>280.181621</ele>
        <time>2025-04-25T07:04:43.000Z</time>
      </trkpt>
      <trkpt lat="43.37822" lon="6.10771">
        <ele>280.259297</ele>
        <time>2025-04-25T07:04:44.000Z</time>
      </trkpt>
      <trkpt lat="43.37822" lon="6.10771">
        <ele>280.259297</ele>
        <time>2025-04-25T07:04:44.000Z</time>
      </trkpt>
      <trkpt lat="43.37815" lon="6.10769">
        <ele>280.334219</ele>
        <time>2025-04-25T07:04:45.000Z</time>
      </trkpt>
      <trkpt lat="43.37808" lon="6.10767">
        <ele>280.415608</ele>
        <time>2025-04-25T07:04:46.000Z</time>
      </trkpt>
      <trkpt lat="43.37802" lon="6.10764">
        <ele>280.4895</ele>
        <time>2025-04-25T07:04:47.000Z</time>
      </trkpt>
      <trkpt lat="43.37796" lon="6.1076">
        <ele>280.564266</ele>
        <time>2025-04-25T07:04:48.000Z</time>
      </trkpt>
      <trkpt lat="43.3779" lon="6.10757">
        <ele>280.644825</ele>
        <time>2025-04-25T07:04:49.000Z</time>
      </trkpt>
      <trkpt lat="43.37784" lon="6.10753">
        <ele>280.710845</ele>
        <time>2025-04-25T07:04:50.000Z</time>
      </trkpt>
      <trkpt lat="43.37784" lon="6.10753">
        <ele>280.710845</ele>
        <time>2025-04-25T07:04:50.000Z</time>
      </trkpt>
      <trkpt lat="43.37778" lon="6.10749">
        <ele>280.792757</ele>
        <time>2025-04-25T07:04:51.000Z</time>
      </trkpt>
      <trkpt lat="43.37773" lon="6.10744">
        <ele>280.862302</ele>
        <time>2025-04-25T07:04:52.000Z</time>
      </trkpt>
      <trkpt lat="43.37768" lon="6.10739">
        <ele>280.929335</ele>
        <time>2025-04-25T07:04:53.000Z</time>
      </trkpt>
      <trkpt lat="43.37768" lon="6.10739">
        <ele>280.929335</ele>
        <time>2025-04-25T07:04:53.000Z</time>
      </trkpt>
      <trkpt lat="43.37764" lon="6.10733">
        <ele>280.994692</ele>
        <time>2025-04-25T07:04:54.000Z</time>
      </trkpt>
      <trkpt lat="43.37764" lon="6.10733">
        <ele>280.994692</ele>
        <time>2025-04-25T07:04:54.000Z</time>
      </trkpt>
      <trkpt lat="43.37762" lon="6.10727">
        <ele>281.054615</ele>
        <time>2025-04-25T07:04:55.000Z</time>
      </trkpt>
      <trkpt lat="43.37762" lon="6.10727">
        <ele>281.054615</ele>
        <time>2025-04-25T07:04:55.000Z</time>
      </trkpt>
      <trkpt lat="43.3776" lon="6.1072">
        <ele>281.11751</ele>
        <time>2025-04-25T07:04:56.000Z</time>
      </trkpt>
      <trkpt lat="43.3776" lon="6.1072">
        <ele>281.11751</ele>
        <time>2025-04-25T07:04:56.000Z</time>
      </trkpt>
      <trkpt lat="43.37758" lon="6.10712">
        <ele>281.188076</ele>
        <time>2025-04-25T07:04:57.000Z</time>
      </trkpt>
      <trkpt lat="43.37758" lon="6.10712">
        <ele>281.188076</ele>
        <time>2025-04-25T07:04:57.000Z</time>
      </trkpt>
      <trkpt lat="43.37757" lon="6.10704">
        <ele>281.254473</ele>
        <time>2025-04-25T07:04:58.000Z</time>
      </trkpt>
      <trkpt lat="43.37757" lon="6.10704">
        <ele>281.254473</ele>
        <time>2025-04-25T07:04:58.000Z</time>
      </trkpt>
      <trkpt lat="43.37755" lon="6.10695">
        <ele>281.334262</ele>
        <time>2025-04-25T07:04:59.000Z</time>
      </trkpt>
      <trkpt lat="43.37755" lon="6.10695">
        <ele>281.334262</ele>
        <time>2025-04-25T07:04:59.000Z</time>
      </trkpt>
      <trkpt lat="43.37754" lon="6.10686">
        <ele>281.404367</ele>
        <time>2025-04-25T07:05:00.000Z</time>
      </trkpt>
      <trkpt lat="43.37754" lon="6.10686">
        <ele>281.404367</ele>
        <time>2025-04-25T07:05:00.000Z</time>
      </trkpt>
      <trkpt lat="43.37753" lon="6.10681">
        <ele>281.446814</ele>
        <time>2025-04-25T07:05:01.000Z</time>
      </trkpt>
      <trkpt lat="43.37753" lon="6.10681">
        <ele>281.446814</ele>
        <time>2025-04-25T07:05:01.000Z</time>
      </trkpt>
      <trkpt lat="43.37752" lon="6.10671">
        <ele>281.532306</ele>
        <time>2025-04-25T07:05:02.000Z</time>
      </trkpt>
      <trkpt lat="43.37752" lon="6.10671">
        <ele>281.532306</ele>
        <time>2025-04-25T07:05:02.000Z</time>
      </trkpt>
      <trkpt lat="43.37751" lon="6.10664">
        <ele>281.589417</ele>
        <time>2025-04-25T07:05:03.000Z</time>
      </trkpt>
      <trkpt lat="43.37751" lon="6.10664">
        <ele>281.589417</ele>
        <time>2025-04-25T07:05:03.000Z</time>
      </trkpt>
      <trkpt lat="43.3775" lon="6.10657">
        <ele>281.655547</ele>
        <time>2025-04-25T07:05:04.000Z</time>
      </trkpt>
      <trkpt lat="43.3775" lon="6.10657">
        <ele>281.655547</ele>
        <time>2025-04-25T07:05:04.000Z</time>
      </trkpt>
      <trkpt lat="43.3775" lon="6.1065">
        <ele>281.710026</ele>
        <time>2025-04-25T07:05:05.000Z</time>
      </trkpt>
      <trkpt lat="43.3775" lon="6.1065">
        <ele>281.710026</ele>
        <time>2025-04-25T07:05:05.000Z</time>
      </trkpt>
      <trkpt lat="43.37749" lon="6.10643">
        <ele>281.771233</ele>
        <time>2025-04-25T07:05:06.000Z</time>
      </trkpt>
      <trkpt lat="43.37749" lon="6.10643">
        <ele>281.771233</ele>
        <time>2025-04-25T07:05:06.000Z</time>
      </trkpt>
      <trkpt lat="43.37748" lon="6.10635">
        <ele>281.840366</ele>
        <time>2025-04-25T07:05:07.000Z</time>
      </trkpt>
      <trkpt lat="43.37748" lon="6.10635">
        <ele>281.840366</ele>
        <time>2025-04-25T07:05:07.000Z</time>
      </trkpt>
      <trkpt lat="43.37747" lon="6.10628">
        <ele>281.896659</ele>
        <time>2025-04-25T07:05:08.000Z</time>
      </trkpt>
      <trkpt lat="43.37747" lon="6.10628">
        <ele>281.896659</ele>
        <time>2025-04-25T07:05:08.000Z</time>
      </trkpt>
      <trkpt lat="43.37746" lon="6.10621">
        <ele>281.962203</ele>
        <time>2025-04-25T07:05:09.000Z</time>
      </trkpt>
      <trkpt lat="43.37746" lon="6.10621">
        <ele>281.962203</ele>
        <time>2025-04-25T07:05:09.000Z</time>
      </trkpt>
      <trkpt lat="43.37745" lon="6.10614">
        <ele>282.051293</ele>
        <time>2025-04-25T07:05:10.000Z</time>
      </trkpt>
      <trkpt lat="43.37745" lon="6.10614">
        <ele>282.051293</ele>
        <time>2025-04-25T07:05:10.000Z</time>
      </trkpt>
      <trkpt lat="43.37744" lon="6.10608">
        <ele>282.132689</ele>
        <time>2025-04-25T07:05:11.000Z</time>
      </trkpt>
      <trkpt lat="43.37743" lon="6.10601">
        <ele>282.220464</ele>
        <time>2025-04-25T07:05:12.000Z</time>
      </trkpt>
      <trkpt lat="43.37743" lon="6.10601">
        <ele>282.220464</ele>
        <time>2025-04-25T07:05:12.000Z</time>
      </trkpt>
      <trkpt lat="43.37742" lon="6.10593">
        <ele>282.314364</ele>
        <time>2025-04-25T07:05:13.000Z</time>
      </trkpt>
      <trkpt lat="43.37742" lon="6.10585">
        <ele>282.419098</ele>
        <time>2025-04-25T07:05:14.000Z</time>
      </trkpt>
      <trkpt lat="43.37742" lon="6.10585">
        <ele>282.419098</ele>
        <time>2025-04-25T07:05:14.000Z</time>
      </trkpt>
      <trkpt lat="43.37741" lon="6.10579">
        <ele>282.498319</ele>
        <time>2025-04-25T07:05:15.000Z</time>
      </trkpt>
      <trkpt lat="43.37741" lon="6.10579">
        <ele>282.498319</ele>
        <time>2025-04-25T07:05:15.000Z</time>
      </trkpt>
      <trkpt lat="43.3774" lon="6.10572">
        <ele>282.586532</ele>
        <time>2025-04-25T07:05:16.000Z</time>
      </trkpt>
      <trkpt lat="43.3774" lon="6.10564">
        <ele>282.681428</ele>
        <time>2025-04-25T07:05:17.000Z</time>
      </trkpt>
      <trkpt lat="43.3774" lon="6.10564">
        <ele>282.681428</ele>
        <time>2025-04-25T07:05:17.000Z</time>
      </trkpt>
      <trkpt lat="43.3774" lon="6.10559">
        <ele>282.74708</ele>
        <time>2025-04-25T07:05:18.000Z</time>
      </trkpt>
      <trkpt lat="43.37739" lon="6.10553">
        <ele>282.819248</ele>
        <time>2025-04-25T07:05:19.000Z</time>
      </trkpt>
      <trkpt lat="43.37739" lon="6.10553">
        <ele>282.819248</ele>
        <time>2025-04-25T07:05:19.000Z</time>
      </trkpt>
      <trkpt lat="43.37739" lon="6.10546">
        <ele>282.908436</ele>
        <time>2025-04-25T07:05:20.000Z</time>
      </trkpt>
      <trkpt lat="43.37739" lon="6.10546">
        <ele>282.908436</ele>
        <time>2025-04-25T07:05:20.000Z</time>
      </trkpt>
      <trkpt lat="43.37739" lon="6.10536">
        <ele>283.026115</ele>
        <time>2025-04-25T07:05:21.000Z</time>
      </trkpt>
      <trkpt lat="43.3774" lon="6.10527">
        <ele>283.136571</ele>
        <time>2025-04-25T07:05:22.000Z</time>
      </trkpt>
      <trkpt lat="43.3774" lon="6.10527">
        <ele>283.136571</ele>
        <time>2025-04-25T07:05:22.000Z</time>
      </trkpt>
      <trkpt lat="43.3774" lon="6.10511">
        <ele>283.339722</ele>
        <time>2025-04-25T07:05:23.000Z</time>
      </trkpt>
      <trkpt lat="43.3774" lon="6.10511">
        <ele>283.339722</ele>
        <time>2025-04-25T07:05:23.000Z</time>
      </trkpt>
      <trkpt lat="43.3774" lon="6.10498">
        <ele>283.502075</ele>
        <time>2025-04-25T07:05:24.000Z</time>
      </trkpt>
      <trkpt lat="43.3774" lon="6.10489">
        <ele>283.60749</ele>
        <time>2025-04-25T07:05:25.000Z</time>
      </trkpt>
      <trkpt lat="43.3774" lon="6.10489">
        <ele>283.60749</ele>
        <time>2025-04-25T07:05:25.000Z</time>
      </trkpt>
      <trkpt lat="43.3774" lon="6.1048">
        <ele>283.722691</ele>
        <time>2025-04-25T07:05:26.000Z</time>
      </trkpt>
      <trkpt lat="43.3774" lon="6.1048">
        <ele>283.722691</ele>
        <time>2025-04-25T07:05:26.000Z</time>
      </trkpt>
      <trkpt lat="43.3774" lon="6.1047">
        <ele>283.841608</ele>
        <time>2025-04-25T07:05:27.000Z</time>
      </trkpt>
      <trkpt lat="43.3774" lon="6.1046">
        <ele>283.964348</ele>
        <time>2025-04-25T07:05:28.000Z</time>
      </trkpt>
      <trkpt lat="43.3774" lon="6.1046">
        <ele>283.964348</ele>
        <time>2025-04-25T07:05:28.000Z</time>
      </trkpt>
      <trkpt lat="43.37741" lon="6.10451">
        <ele>284.079123</ele>
        <time>2025-04-25T07:05:29.000Z</time>
      </trkpt>
      <trkpt lat="43.37741" lon="6.10451">
        <ele>284.079123</ele>
        <time>2025-04-25T07:05:29.000Z</time>
      </trkpt>
      <trkpt lat="43.37741" lon="6.10442">
        <ele>284.18958</ele>
        <time>2025-04-25T07:05:30.000Z</time>
      </trkpt>
      <trkpt lat="43.37742" lon="6.10433">
        <ele>284.302509</ele>
        <time>2025-04-25T07:05:31.000Z</time>
      </trkpt>
      <trkpt lat="43.37742" lon="6.10433">
        <ele>284.302509</ele>
        <time>2025-04-25T07:05:31.000Z</time>
      </trkpt>
      <trkpt lat="43.37742" lon="6.10427">
        <ele>284.38208</ele>
        <time>2025-04-25T07:05:32.000Z</time>
      </trkpt>
      <trkpt lat="43.37742" lon="6.10415">
        <ele>284.530814</ele>
        <time>2025-04-25T07:05:33.000Z</time>
      </trkpt>
      <trkpt lat="43.37742" lon="6.10415">
        <ele>284.530814</ele>
        <time>2025-04-25T07:05:33.000Z</time>
      </trkpt>
      <trkpt lat="43.37742" lon="6.10406">
        <ele>284.643538</ele>
        <time>2025-04-25T07:05:34.000Z</time>
      </trkpt>
      <trkpt lat="43.37742" lon="6.10398">
        <ele>284.742767</ele>
        <time>2025-04-25T07:05:35.000Z</time>
      </trkpt>
      <trkpt lat="43.37742" lon="6.10398">
        <ele>284.742767</ele>
        <time>2025-04-25T07:05:35.000Z</time>
      </trkpt>
      <trkpt lat="43.37742" lon="6.1039">
        <ele>284.837156</ele>
        <time>2025-04-25T07:05:36.000Z</time>
      </trkpt>
      <trkpt lat="43.37741" lon="6.10382">
        <ele>284.937724</ele>
        <time>2025-04-25T07:05:37.000Z</time>
      </trkpt>
      <trkpt lat="43.37741" lon="6.10374">
        <ele>285.008992</ele>
        <time>2025-04-25T07:05:38.000Z</time>
      </trkpt>
      <trkpt lat="43.37741" lon="6.10374">
        <ele>285.008992</ele>
        <time>2025-04-25T07:05:38.000Z</time>
      </trkpt>
      <trkpt lat="43.37741" lon="6.10366">
        <ele>285.0401</ele>
        <time>2025-04-25T07:05:39.000Z</time>
      </trkpt>
      <trkpt lat="43.3774" lon="6.10358">
        <ele>285.071992</ele>
        <time>2025-04-25T07:05:40.000Z</time>
      </trkpt>
      <trkpt lat="43.3774" lon="6.10349">
        <ele>285.10656</ele>
        <time>2025-04-25T07:05:41.000Z</time>
      </trkpt>
      <trkpt lat="43.3774" lon="6.10349">
        <ele>285.10656</ele>
        <time>2025-04-25T07:05:41.000Z</time>
      </trkpt>
      <trkpt lat="43.3774" lon="6.1034">
        <ele>285.142765</ele>
        <time>2025-04-25T07:05:42.000Z</time>
      </trkpt>
      <trkpt lat="43.3774" lon="6.10331">
        <ele>285.178905</ele>
        <time>2025-04-25T07:05:43.000Z</time>
      </trkpt>
      <trkpt lat="43.3774" lon="6.10331">
        <ele>285.178905</ele>
        <time>2025-04-25T07:05:43.000Z</time>
      </trkpt>
      <trkpt lat="43.3774" lon="6.10322">
        <ele>285.213511</ele>
        <time>2025-04-25T07:05:44.000Z</time>
      </trkpt>
      <trkpt lat="43.3774" lon="6.10322">
        <ele>285.213511</ele>
        <time>2025-04-25T07:05:44.000Z</time>
      </trkpt>
      <trkpt lat="43.37739" lon="6.10313">
        <ele>285.249715</ele>
        <time>2025-04-25T07:05:45.000Z</time>
      </trkpt>
      <trkpt lat="43.37739" lon="6.10313">
        <ele>285.249715</ele>
        <time>2025-04-25T07:05:45.000Z</time>
      </trkpt>
      <trkpt lat="43.37738" lon="6.10305">
        <ele>285.279493</ele>
        <time>2025-04-25T07:05:46.000Z</time>
      </trkpt>
      <trkpt lat="43.37738" lon="6.10305">
        <ele>285.279493</ele>
        <time>2025-04-25T07:05:46.000Z</time>
      </trkpt>
      <trkpt lat="43.37737" lon="6.10298">
        <ele>285.309671</ele>
        <time>2025-04-25T07:05:47.000Z</time>
      </trkpt>
      <trkpt lat="43.37737" lon="6.10298">
        <ele>285.309671</ele>
        <time>2025-04-25T07:05:47.000Z</time>
      </trkpt>
      <trkpt lat="43.37735" lon="6.10291">
        <ele>285.338716</ele>
        <time>2025-04-25T07:05:48.000Z</time>
      </trkpt>
      <trkpt lat="43.37735" lon="6.10291">
        <ele>285.338716</ele>
        <time>2025-04-25T07:05:48.000Z</time>
      </trkpt>
      <trkpt lat="43.37735" lon="6.10286">
        <ele>285.359647</ele>
        <time>2025-04-25T07:05:49.000Z</time>
      </trkpt>
      <trkpt lat="43.37735" lon="6.1028">
        <ele>285.382924</ele>
        <time>2025-04-25T07:05:50.000Z</time>
      </trkpt>
      <trkpt lat="43.37735" lon="6.1028">
        <ele>285.382924</ele>
        <time>2025-04-25T07:05:50.000Z</time>
      </trkpt>
      <trkpt lat="43.37735" lon="6.10275">
        <ele>285.402958</ele>
        <time>2025-04-25T07:05:51.000Z</time>
      </trkpt>
      <trkpt lat="43.37735" lon="6.10271">
        <ele>285.418671</ele>
        <time>2025-04-25T07:05:52.000Z</time>
      </trkpt>
      <trkpt lat="43.37734" lon="6.10267">
        <ele>285.434143</ele>
        <time>2025-04-25T07:05:53.000Z</time>
      </trkpt>
      <trkpt lat="43.37734" lon="6.10262">
        <ele>285.451952</ele>
        <time>2025-04-25T07:05:54.000Z</time>
      </trkpt>
      <trkpt lat="43.37734" lon="6.10262">
        <ele>285.451952</ele>
        <time>2025-04-25T07:05:54.000Z</time>
      </trkpt>
      <trkpt lat="43.37734" lon="6.10257">
        <ele>285.47401</ele>
        <time>2025-04-25T07:05:55.000Z</time>
      </trkpt>
      <trkpt lat="43.37733" lon="6.10251">
        <ele>285.495332</ele>
        <time>2025-04-25T07:05:56.000Z</time>
      </trkpt>
      <trkpt lat="43.37733" lon="6.10246">
        <ele>285.517045</ele>
        <time>2025-04-25T07:05:57.000Z</time>
      </trkpt>
      <trkpt lat="43.37733" lon="6.10246">
        <ele>285.517045</ele>
        <time>2025-04-25T07:05:57.000Z</time>
      </trkpt>
      <trkpt lat="43.37732" lon="6.10239">
        <ele>285.542497</ele>
        <time>2025-04-25T07:05:58.000Z</time>
      </trkpt>
      <trkpt lat="43.37732" lon="6.10239">
        <ele>285.542497</ele>
        <time>2025-04-25T07:05:58.000Z</time>
      </trkpt>
      <trkpt lat="43.37731" lon="6.10234">
        <ele>285.563377</ele>
        <time>2025-04-25T07:05:59.000Z</time>
      </trkpt>
      <trkpt lat="43.3773" lon="6.10229">
        <ele>285.583527</ele>
        <time>2025-04-25T07:06:00.000Z</time>
      </trkpt>
      <trkpt lat="43.3773" lon="6.10229">
        <ele>285.583527</ele>
        <time>2025-04-25T07:06:00.000Z</time>
      </trkpt>
      <trkpt lat="43.3773" lon="6.10223">
        <ele>285.609152</ele>
        <time>2025-04-25T07:06:01.000Z</time>
      </trkpt>
      <trkpt lat="43.3773" lon="6.10223">
        <ele>285.609152</ele>
        <time>2025-04-25T07:06:01.000Z</time>
      </trkpt>
      <trkpt lat="43.37729" lon="6.10217">
        <ele>285.632635</ele>
        <time>2025-04-25T07:06:02.000Z</time>
      </trkpt>
      <trkpt lat="43.37729" lon="6.10217">
        <ele>285.632635</ele>
        <time>2025-04-25T07:06:02.000Z</time>
      </trkpt>
      <trkpt lat="43.37729" lon="6.10212">
        <ele>285.650833</ele>
        <time>2025-04-25T07:06:03.000Z</time>
      </trkpt>
      <trkpt lat="43.37729" lon="6.10212">
        <ele>285.650833</ele>
        <time>2025-04-25T07:06:03.000Z</time>
      </trkpt>
      <trkpt lat="43.37727" lon="6.10204">
        <ele>285.684749</ele>
        <time>2025-04-25T07:06:04.000Z</time>
      </trkpt>
      <trkpt lat="43.37727" lon="6.10204">
        <ele>285.684749</ele>
        <time>2025-04-25T07:06:04.000Z</time>
      </trkpt>
      <trkpt lat="43.37727" lon="6.102">
        <ele>285.699832</ele>
        <time>2025-04-25T07:06:05.000Z</time>
      </trkpt>
      <trkpt lat="43.37726" lon="6.10191">
        <ele>285.735389</ele>
        <time>2025-04-25T07:06:06.000Z</time>
      </trkpt>
      <trkpt lat="43.37726" lon="6.10191">
        <ele>285.735389</ele>
        <time>2025-04-25T07:06:06.000Z</time>
      </trkpt>
      <trkpt lat="43.37725" lon="6.10184">
        <ele>285.762755</ele>
        <time>2025-04-25T07:06:07.000Z</time>
      </trkpt>
      <trkpt lat="43.37725" lon="6.10184">
        <ele>285.762755</ele>
        <time>2025-04-25T07:06:07.000Z</time>
      </trkpt>
      <trkpt lat="43.37724" lon="6.10177">
        <ele>285.792155</ele>
        <time>2025-04-25T07:06:08.000Z</time>
      </trkpt>
      <trkpt lat="43.37724" lon="6.10177">
        <ele>285.792155</ele>
        <time>2025-04-25T07:06:08.000Z</time>
      </trkpt>
      <trkpt lat="43.37723" lon="6.1017">
        <ele>285.818356</ele>
        <time>2025-04-25T07:06:09.000Z</time>
      </trkpt>
      <trkpt lat="43.37722" lon="6.10163">
        <ele>285.847374</ele>
        <time>2025-04-25T07:06:10.000Z</time>
      </trkpt>
      <trkpt lat="43.37722" lon="6.10163">
        <ele>285.847374</ele>
        <time>2025-04-25T07:06:10.000Z</time>
      </trkpt>
      <trkpt lat="43.37721" lon="6.10155">
        <ele>285.880129</ele>
        <time>2025-04-25T07:06:11.000Z</time>
      </trkpt>
      <trkpt lat="43.37721" lon="6.10155">
        <ele>285.880129</ele>
        <time>2025-04-25T07:06:11.000Z</time>
      </trkpt>
      <trkpt lat="43.37719" lon="6.10147">
        <ele>285.910686</ele>
        <time>2025-04-25T07:06:12.000Z</time>
      </trkpt>
      <trkpt lat="43.37718" lon="6.1014">
        <ele>285.940854</ele>
        <time>2025-04-25T07:06:13.000Z</time>
      </trkpt>
      <trkpt lat="43.37717" lon="6.10133">
        <ele>285.972895</ele>
        <time>2025-04-25T07:06:14.000Z</time>
      </trkpt>
      <trkpt lat="43.37716" lon="6.10124">
        <ele>286.11409</ele>
        <time>2025-04-25T07:06:15.000Z</time>
      </trkpt>
      <trkpt lat="43.37716" lon="6.10117">
        <ele>286.228097</ele>
        <time>2025-04-25T07:06:16.000Z</time>
      </trkpt>
      <trkpt lat="43.37716" lon="6.10109">
        <ele>286.356355</ele>
        <time>2025-04-25T07:06:17.000Z</time>
      </trkpt>
      <trkpt lat="43.37717" lon="6.101">
        <ele>286.48893</ele>
        <time>2025-04-25T07:06:18.000Z</time>
      </trkpt>
      <trkpt lat="43.37718" lon="6.10092">
        <ele>286.621237</ele>
        <time>2025-04-25T07:06:19.000Z</time>
      </trkpt>
      <trkpt lat="43.37718" lon="6.10084">
        <ele>286.74979</ele>
        <time>2025-04-25T07:06:20.000Z</time>
      </trkpt>
      <trkpt lat="43.37718" lon="6.10076">
        <ele>286.875185</ele>
        <time>2025-04-25T07:06:21.000Z</time>
      </trkpt>
      <trkpt lat="43.37718" lon="6.10068">
        <ele>286.997109</ele>
        <time>2025-04-25T07:06:22.000Z</time>
      </trkpt>
      <trkpt lat="43.37718" lon="6.10068">
        <ele>286.997109</ele>
        <time>2025-04-25T07:06:22.000Z</time>
      </trkpt>
      <trkpt lat="43.37718" lon="6.10064">
        <ele>287.060446</ele>
        <time>2025-04-25T07:06:23.000Z</time>
      </trkpt>
      <trkpt lat="43.37717" lon="6.10052">
        <ele>287.249076</ele>
        <time>2025-04-25T07:06:24.000Z</time>
      </trkpt>
      <trkpt lat="43.37717" lon="6.10052">
        <ele>287.249076</ele>
        <time>2025-04-25T07:06:24.000Z</time>
      </trkpt>
      <trkpt lat="43.37717" lon="6.10045">
        <ele>287.371175</ele>
        <time>2025-04-25T07:06:25.000Z</time>
      </trkpt>
      <trkpt lat="43.37717" lon="6.1004">
        <ele>287.437679</ele>
        <time>2025-04-25T07:06:26.000Z</time>
      </trkpt>
      <trkpt lat="43.37717" lon="6.1004">
        <ele>287.437679</ele>
        <time>2025-04-25T07:06:26.000Z</time>
      </trkpt>
      <trkpt lat="43.37716" lon="6.1003">
        <ele>287.610676</ele>
        <time>2025-04-25T07:06:27.000Z</time>
      </trkpt>
      <trkpt lat="43.37716" lon="6.1003">
        <ele>287.610676</ele>
        <time>2025-04-25T07:06:27.000Z</time>
      </trkpt>
      <trkpt lat="43.37716" lon="6.10028">
        <ele>287.642345</ele>
        <time>2025-04-25T07:06:28.000Z</time>
      </trkpt>
      <trkpt lat="43.37714" lon="6.10016">
        <ele>287.836813</ele>
        <time>2025-04-25T07:06:29.000Z</time>
      </trkpt>
      <trkpt lat="43.37714" lon="6.10016">
        <ele>287.836813</ele>
        <time>2025-04-25T07:06:29.000Z</time>
      </trkpt>
      <trkpt lat="43.37714" lon="6.10009">
        <ele>287.941682</ele>
        <time>2025-04-25T07:06:30.000Z</time>
      </trkpt>
      <trkpt lat="43.37714" lon="6.10006">
        <ele>287.989185</ele>
        <time>2025-04-25T07:06:31.000Z</time>
      </trkpt>
      <trkpt lat="43.37713" lon="6.09995">
        <ele>288.171488</ele>
        <time>2025-04-25T07:06:32.000Z</time>
      </trkpt>
      <trkpt lat="43.37713" lon="6.09988">
        <ele>288.277779</ele>
        <time>2025-04-25T07:06:33.000Z</time>
      </trkpt>
      <trkpt lat="43.37713" lon="6.09988">
        <ele>288.277779</ele>
        <time>2025-04-25T07:06:33.000Z</time>
      </trkpt>
      <trkpt lat="43.37713" lon="6.0998">
        <ele>288.395277</ele>
        <time>2025-04-25T07:06:34.000Z</time>
      </trkpt>
      <trkpt lat="43.37713" lon="6.09973">
        <ele>288.512451</ele>
        <time>2025-04-25T07:06:35.000Z</time>
      </trkpt>
      <trkpt lat="43.37713" lon="6.09973">
        <ele>288.512451</ele>
        <time>2025-04-25T07:06:35.000Z</time>
      </trkpt>
      <trkpt lat="43.37713" lon="6.09966">
        <ele>288.628042</ele>
        <time>2025-04-25T07:06:36.000Z</time>
      </trkpt>
      <trkpt lat="43.37713" lon="6.09966">
        <ele>288.628042</ele>
        <time>2025-04-25T07:06:36.000Z</time>
      </trkpt>
      <trkpt lat="43.37713" lon="6.09962">
        <ele>288.691651</ele>
        <time>2025-04-25T07:06:37.000Z</time>
      </trkpt>
      <trkpt lat="43.37716" lon="6.09949">
        <ele>288.895823</ele>
        <time>2025-04-25T07:06:38.000Z</time>
      </trkpt>
      <trkpt lat="43.37716" lon="6.09949">
        <ele>288.895823</ele>
        <time>2025-04-25T07:06:38.000Z</time>
      </trkpt>
      <trkpt lat="43.37716" lon="6.09942">
        <ele>289.018987</ele>
        <time>2025-04-25T07:06:39.000Z</time>
      </trkpt>
      <trkpt lat="43.37716" lon="6.09942">
        <ele>289.018987</ele>
        <time>2025-04-25T07:06:39.000Z</time>
      </trkpt>
      <trkpt lat="43.37717" lon="6.09935">
        <ele>289.129625</ele>
        <time>2025-04-25T07:06:40.000Z</time>
      </trkpt>
      <trkpt lat="43.37717" lon="6.09935">
        <ele>289.129625</ele>
        <time>2025-04-25T07:06:40.000Z</time>
      </trkpt>
      <trkpt lat="43.37718" lon="6.09927">
        <ele>289.246217</ele>
        <time>2025-04-25T07:06:41.000Z</time>
      </trkpt>
      <trkpt lat="43.37718" lon="6.09922">
        <ele>289.334889</ele>
        <time>2025-04-25T07:06:42.000Z</time>
      </trkpt>
      <trkpt lat="43.37718" lon="6.09922">
        <ele>289.334889</ele>
        <time>2025-04-25T07:06:42.000Z</time>
      </trkpt>
      <trkpt lat="43.37717" lon="6.09916">
        <ele>289.420837</ele>
        <time>2025-04-25T07:06:43.000Z</time>
      </trkpt>
      <trkpt lat="43.37717" lon="6.09916">
        <ele>289.420837</ele>
        <time>2025-04-25T07:06:43.000Z</time>
      </trkpt>
      <trkpt lat="43.37717" lon="6.09913">
        <ele>289.478317</ele>
        <time>2025-04-25T07:06:44.000Z</time>
      </trkpt>
      <trkpt lat="43.37717" lon="6.09913">
        <ele>289.478317</ele>
        <time>2025-04-25T07:06:44.000Z</time>
      </trkpt>
      <trkpt lat="43.37715" lon="6.09909">
        <ele>289.545133</ele>
        <time>2025-04-25T07:06:45.000Z</time>
      </trkpt>
      <trkpt lat="43.37715" lon="6.09909">
        <ele>289.545133</ele>
        <time>2025-04-25T07:06:45.000Z</time>
      </trkpt>
      <trkpt lat="43.37714" lon="6.09908">
        <ele>289.582933</ele>
        <time>2025-04-25T07:06:46.000Z</time>
      </trkpt>
      <trkpt lat="43.37714" lon="6.09908">
        <ele>289.582933</ele>
        <time>2025-04-25T07:06:46.000Z</time>
      </trkpt>
      <trkpt lat="43.37713" lon="6.09908">
        <ele>289.607719</ele>
        <time>2025-04-25T07:06:47.000Z</time>
      </trkpt>
      <trkpt lat="43.37713" lon="6.09908">
        <ele>289.607719</ele>
        <time>2025-04-25T07:06:47.000Z</time>
      </trkpt>
      <trkpt lat="43.3771" lon="6.09909">
        <ele>289.669063</ele>
        <time>2025-04-25T07:06:48.000Z</time>
      </trkpt>
      <trkpt lat="43.3771" lon="6.09909">
        <ele>289.669063</ele>
        <time>2025-04-25T07:06:48.000Z</time>
      </trkpt>
      <trkpt lat="43.37709" lon="6.09912">
        <ele>289.718179</ele>
        <time>2025-04-25T07:06:49.000Z</time>
      </trkpt>
      <trkpt lat="43.37709" lon="6.09912">
        <ele>289.718179</ele>
        <time>2025-04-25T07:06:49.000Z</time>
      </trkpt>
      <trkpt lat="43.37708" lon="6.09916">
        <ele>289.785898</ele>
        <time>2025-04-25T07:06:50.000Z</time>
      </trkpt>
      <trkpt lat="43.37708" lon="6.09916">
        <ele>289.785898</ele>
        <time>2025-04-25T07:06:50.000Z</time>
      </trkpt>
      <trkpt lat="43.37706" lon="6.0992">
        <ele>289.861561</ele>
        <time>2025-04-25T07:06:51.000Z</time>
      </trkpt>
      <trkpt lat="43.37706" lon="6.0992">
        <ele>289.861561</ele>
        <time>2025-04-25T07:06:51.000Z</time>
      </trkpt>
      <trkpt lat="43.37704" lon="6.09924">
        <ele>290.063977</ele>
        <time>2025-04-25T07:06:52.000Z</time>
      </trkpt>
      <trkpt lat="43.37704" lon="6.09924">
        <ele>290.063977</ele>
        <time>2025-04-25T07:06:52.000Z</time>
      </trkpt>
      <trkpt lat="43.37702" lon="6.09927">
        <ele>290.317988</ele>
        <time>2025-04-25T07:06:53.000Z</time>
      </trkpt>
      <trkpt lat="43.37702" lon="6.09927">
        <ele>290.317988</ele>
        <time>2025-04-25T07:06:53.000Z</time>
      </trkpt>
      <trkpt lat="43.377" lon="6.0993">
        <ele>290.573097</ele>
        <time>2025-04-25T07:06:54.000Z</time>
      </trkpt>
      <trkpt lat="43.377" lon="6.0993">
        <ele>290.573097</ele>
        <time>2025-04-25T07:06:54.000Z</time>
      </trkpt>
      <trkpt lat="43.37697" lon="6.09934">
        <ele>290.881937</ele>
        <time>2025-04-25T07:06:55.000Z</time>
      </trkpt>
      <trkpt lat="43.37697" lon="6.09934">
        <ele>290.881937</ele>
        <time>2025-04-25T07:06:55.000Z</time>
      </trkpt>
      <trkpt lat="43.37694" lon="6.09938">
        <ele>291.207551</ele>
        <time>2025-04-25T07:06:56.000Z</time>
      </trkpt>
      <trkpt lat="43.37694" lon="6.09938">
        <ele>291.207551</ele>
        <time>2025-04-25T07:06:56.000Z</time>
      </trkpt>
      <trkpt lat="43.37692" lon="6.09942">
        <ele>291.496309</ele>
        <time>2025-04-25T07:06:57.000Z</time>
      </trkpt>
      <trkpt lat="43.37692" lon="6.09942">
        <ele>291.496309</ele>
        <time>2025-04-25T07:06:57.000Z</time>
      </trkpt>
      <trkpt lat="43.37688" lon="6.09945">
        <ele>291.805528</ele>
        <time>2025-04-25T07:06:58.000Z</time>
      </trkpt>
      <trkpt lat="43.37688" lon="6.09945">
        <ele>291.805528</ele>
        <time>2025-04-25T07:06:58.000Z</time>
      </trkpt>
      <trkpt lat="43.37685" lon="6.09948">
        <ele>292.130514</ele>
        <time>2025-04-25T07:06:59.000Z</time>
      </trkpt>
      <trkpt lat="43.37685" lon="6.09948">
        <ele>292.130514</ele>
        <time>2025-04-25T07:06:59.000Z</time>
      </trkpt>
      <trkpt lat="43.37682" lon="6.0995">
        <ele>292.401452</ele>
        <time>2025-04-25T07:07:00.000Z</time>
      </trkpt>
      <trkpt lat="43.37682" lon="6.0995">
        <ele>292.401452</ele>
        <time>2025-04-25T07:07:00.000Z</time>
      </trkpt>
      <trkpt lat="43.37679" lon="6.09952">
        <ele>292.671567</ele>
        <time>2025-04-25T07:07:01.000Z</time>
      </trkpt>
      <trkpt lat="43.37679" lon="6.09952">
        <ele>292.671567</ele>
        <time>2025-04-25T07:07:01.000Z</time>
      </trkpt>
      <trkpt lat="43.37675" lon="6.09954">
        <ele>292.992538</ele>
        <time>2025-04-25T07:07:02.000Z</time>
      </trkpt>
      <trkpt lat="43.37675" lon="6.09954">
        <ele>292.992538</ele>
        <time>2025-04-25T07:07:02.000Z</time>
      </trkpt>
      <trkpt lat="43.37671" lon="6.09956">
        <ele>293.315603</ele>
        <time>2025-04-25T07:07:03.000Z</time>
      </trkpt>
      <trkpt lat="43.37671" lon="6.09956">
        <ele>293.315603</ele>
        <time>2025-04-25T07:07:03.000Z</time>
      </trkpt>
      <trkpt lat="43.37668" lon="6.09958">
        <ele>293.576806</ele>
        <time>2025-04-25T07:07:04.000Z</time>
      </trkpt>
      <trkpt lat="43.37668" lon="6.09958">
        <ele>293.576806</ele>
        <time>2025-04-25T07:07:04.000Z</time>
      </trkpt>
      <trkpt lat="43.37665" lon="6.0996">
        <ele>293.860291</ele>
        <time>2025-04-25T07:07:05.000Z</time>
      </trkpt>
      <trkpt lat="43.37665" lon="6.0996">
        <ele>293.860291</ele>
        <time>2025-04-25T07:07:05.000Z</time>
      </trkpt>
      <trkpt lat="43.37661" lon="6.09961">
        <ele>294.199913</ele>
        <time>2025-04-25T07:07:06.000Z</time>
      </trkpt>
      <trkpt lat="43.37661" lon="6.09961">
        <ele>294.199913</ele>
        <time>2025-04-25T07:07:06.000Z</time>
      </trkpt>
      <trkpt lat="43.37657" lon="6.09962">
        <ele>294.508826</ele>
        <time>2025-04-25T07:07:07.000Z</time>
      </trkpt>
      <trkpt lat="43.37657" lon="6.09962">
        <ele>294.508826</ele>
        <time>2025-04-25T07:07:07.000Z</time>
      </trkpt>
      <trkpt lat="43.37653" lon="6.09963">
        <ele>294.790834</ele>
        <time>2025-04-25T07:07:08.000Z</time>
      </trkpt>
      <trkpt lat="43.37653" lon="6.09963">
        <ele>294.790834</ele>
        <time>2025-04-25T07:07:08.000Z</time>
      </trkpt>
      <trkpt lat="43.3765" lon="6.09964">
        <ele>295.062956</ele>
        <time>2025-04-25T07:07:09.000Z</time>
      </trkpt>
      <trkpt lat="43.3765" lon="6.09964">
        <ele>295.062956</ele>
        <time>2025-04-25T07:07:09.000Z</time>
      </trkpt>
      <trkpt lat="43.37647" lon="6.09965">
        <ele>295.335078</ele>
        <time>2025-04-25T07:07:10.000Z</time>
      </trkpt>
      <trkpt lat="43.37647" lon="6.09965">
        <ele>295.335078</ele>
        <time>2025-04-25T07:07:10.000Z</time>
      </trkpt>
      <trkpt lat="43.37643" lon="6.09966">
        <ele>295.609366</ele>
        <time>2025-04-25T07:07:11.000Z</time>
      </trkpt>
      <trkpt lat="43.37643" lon="6.09966">
        <ele>295.609366</ele>
        <time>2025-04-25T07:07:11.000Z</time>
      </trkpt>
      <trkpt lat="43.37639" lon="6.09967">
        <ele>295.925941</ele>
        <time>2025-04-25T07:07:12.000Z</time>
      </trkpt>
      <trkpt lat="43.37639" lon="6.09967">
        <ele>295.925941</ele>
        <time>2025-04-25T07:07:12.000Z</time>
      </trkpt>
      <trkpt lat="43.37635" lon="6.09968">
        <ele>296.26435</ele>
        <time>2025-04-25T07:07:13.000Z</time>
      </trkpt>
      <trkpt lat="43.37635" lon="6.09968">
        <ele>296.26435</ele>
        <time>2025-04-25T07:07:13.000Z</time>
      </trkpt>
      <trkpt lat="43.37631" lon="6.09969">
        <ele>296.570698</ele>
        <time>2025-04-25T07:07:14.000Z</time>
      </trkpt>
      <trkpt lat="43.37631" lon="6.09969">
        <ele>296.570698</ele>
        <time>2025-04-25T07:07:14.000Z</time>
      </trkpt>
      <trkpt lat="43.37627" lon="6.09971">
        <ele>296.878278</ele>
        <time>2025-04-25T07:07:15.000Z</time>
      </trkpt>
      <trkpt lat="43.37627" lon="6.09971">
        <ele>296.878278</ele>
        <time>2025-04-25T07:07:15.000Z</time>
      </trkpt>
      <trkpt lat="43.37624" lon="6.09972">
        <ele>297.156671</ele>
        <time>2025-04-25T07:07:16.000Z</time>
      </trkpt>
      <trkpt lat="43.37624" lon="6.09972">
        <ele>297.156671</ele>
        <time>2025-04-25T07:07:16.000Z</time>
      </trkpt>
      <trkpt lat="43.37621" lon="6.09973">
        <ele>297.441233</ele>
        <time>2025-04-25T07:07:17.000Z</time>
      </trkpt>
      <trkpt lat="43.37621" lon="6.09973">
        <ele>297.441233</ele>
        <time>2025-04-25T07:07:17.000Z</time>
      </trkpt>
      <trkpt lat="43.37617" lon="6.09975">
        <ele>297.721216</ele>
        <time>2025-04-25T07:07:18.000Z</time>
      </trkpt>
      <trkpt lat="43.37617" lon="6.09975">
        <ele>297.721216</ele>
        <time>2025-04-25T07:07:18.000Z</time>
      </trkpt>
      <trkpt lat="43.37614" lon="6.09976">
        <ele>297.973033</ele>
        <time>2025-04-25T07:07:19.000Z</time>
      </trkpt>
      <trkpt lat="43.37614" lon="6.09976">
        <ele>297.973033</ele>
        <time>2025-04-25T07:07:19.000Z</time>
      </trkpt>
      <trkpt lat="43.37611" lon="6.09977">
        <ele>298.259035</ele>
        <time>2025-04-25T07:07:20.000Z</time>
      </trkpt>
      <trkpt lat="43.37611" lon="6.09977">
        <ele>298.259035</ele>
        <time>2025-04-25T07:07:20.000Z</time>
      </trkpt>
      <trkpt lat="43.37607" lon="6.09978">
        <ele>298.565383</ele>
        <time>2025-04-25T07:07:22.000Z</time>
      </trkpt>
      <trkpt lat="43.37607" lon="6.09978">
        <ele>298.565383</ele>
        <time>2025-04-25T07:07:22.000Z</time>
      </trkpt>
      <trkpt lat="43.37603" lon="6.09979">
        <ele>298.837505</ele>
        <time>2025-04-25T07:07:22.000Z</time>
      </trkpt>
      <trkpt lat="43.37603" lon="6.09979">
        <ele>298.837505</ele>
        <time>2025-04-25T07:07:22.000Z</time>
      </trkpt>
      <trkpt lat="43.37598" lon="6.0998">
        <ele>299.290133</ele>
        <time>2025-04-25T07:07:23.000Z</time>
      </trkpt>
      <trkpt lat="43.37598" lon="6.0998">
        <ele>299.290133</ele>
        <time>2025-04-25T07:07:23.000Z</time>
      </trkpt>
      <trkpt lat="43.37592" lon="6.09981">
        <ele>299.749991</ele>
        <time>2025-04-25T07:07:24.000Z</time>
      </trkpt>
      <trkpt lat="43.37592" lon="6.09981">
        <ele>299.749991</ele>
        <time>2025-04-25T07:07:24.000Z</time>
      </trkpt>
      <trkpt lat="43.37586" lon="6.09982">
        <ele>300.233404</ele>
        <time>2025-04-25T07:07:25.000Z</time>
      </trkpt>
      <trkpt lat="43.37586" lon="6.09982">
        <ele>300.233404</ele>
        <time>2025-04-25T07:07:25.000Z</time>
      </trkpt>
      <trkpt lat="43.37581" lon="6.09983">
        <ele>300.656255</ele>
        <time>2025-04-25T07:07:26.000Z</time>
      </trkpt>
      <trkpt lat="43.37581" lon="6.09983">
        <ele>300.656255</ele>
        <time>2025-04-25T07:07:26.000Z</time>
      </trkpt>
      <trkpt lat="43.37576" lon="6.09984">
        <ele>301.026728</ele>
        <time>2025-04-25T07:07:27.000Z</time>
      </trkpt>
      <trkpt lat="43.37576" lon="6.09984">
        <ele>301.026728</ele>
        <time>2025-04-25T07:07:27.000Z</time>
      </trkpt>
      <trkpt lat="43.37571" lon="6.09986">
        <ele>301.399679</ele>
        <time>2025-04-25T07:07:28.000Z</time>
      </trkpt>
      <trkpt lat="43.37571" lon="6.09986">
        <ele>301.399679</ele>
        <time>2025-04-25T07:07:28.000Z</time>
      </trkpt>
      <trkpt lat="43.37567" lon="6.09987">
        <ele>301.735944</ele>
        <time>2025-04-25T07:07:29.000Z</time>
      </trkpt>
      <trkpt lat="43.37567" lon="6.09987">
        <ele>301.735944</ele>
        <time>2025-04-25T07:07:29.000Z</time>
      </trkpt>
      <trkpt lat="43.37563" lon="6.09988">
        <ele>302.095552</ele>
        <time>2025-04-25T07:07:30.000Z</time>
      </trkpt>
      <trkpt lat="43.37563" lon="6.09988">
        <ele>302.095552</ele>
        <time>2025-04-25T07:07:30.000Z</time>
      </trkpt>
      <trkpt lat="43.37558" lon="6.09988">
        <ele>302.430053</ele>
        <time>2025-04-25T07:07:31.000Z</time>
      </trkpt>
      <trkpt lat="43.37558" lon="6.09988">
        <ele>302.430053</ele>
        <time>2025-04-25T07:07:31.000Z</time>
      </trkpt>
      <trkpt lat="43.37555" lon="6.09989">
        <ele>302.731805</ele>
        <time>2025-04-25T07:07:32.000Z</time>
      </trkpt>
      <trkpt lat="43.37555" lon="6.09989">
        <ele>302.731805</ele>
        <time>2025-04-25T07:07:32.000Z</time>
      </trkpt>
      <trkpt lat="43.3755" lon="6.0999">
        <ele>303.069095</ele>
        <time>2025-04-25T07:07:33.000Z</time>
      </trkpt>
      <trkpt lat="43.3755" lon="6.0999">
        <ele>303.069095</ele>
        <time>2025-04-25T07:07:33.000Z</time>
      </trkpt>
      <trkpt lat="43.37546" lon="6.09991">
        <ele>303.408717</ele>
        <time>2025-04-25T07:07:34.000Z</time>
      </trkpt>
      <trkpt lat="43.37546" lon="6.09991">
        <ele>303.408717</ele>
        <time>2025-04-25T07:07:34.000Z</time>
      </trkpt>
      <trkpt lat="43.37542" lon="6.09993">
        <ele>303.786007</ele>
        <time>2025-04-25T07:07:35.000Z</time>
      </trkpt>
      <trkpt lat="43.37542" lon="6.09993">
        <ele>303.786007</ele>
        <time>2025-04-25T07:07:35.000Z</time>
      </trkpt>
      <trkpt lat="43.37538" lon="6.09995">
        <ele>304.085073</ele>
        <time>2025-04-25T07:07:36.000Z</time>
      </trkpt>
      <trkpt lat="43.37538" lon="6.09995">
        <ele>304.085073</ele>
        <time>2025-04-25T07:07:36.000Z</time>
      </trkpt>
      <trkpt lat="43.37534" lon="6.09997">
        <ele>304.20486</ele>
        <time>2025-04-25T07:07:37.000Z</time>
      </trkpt>
      <trkpt lat="43.37534" lon="6.09997">
        <ele>304.20486</ele>
        <time>2025-04-25T07:07:37.000Z</time>
      </trkpt>
      <trkpt lat="43.3753" lon="6.09998">
        <ele>304.329555</ele>
        <time>2025-04-25T07:07:38.000Z</time>
      </trkpt>
      <trkpt lat="43.3753" lon="6.09998">
        <ele>304.329555</ele>
        <time>2025-04-25T07:07:38.000Z</time>
      </trkpt>
      <trkpt lat="43.37525" lon="6.1">
        <ele>304.467719</ele>
        <time>2025-04-25T07:07:39.000Z</time>
      </trkpt>
      <trkpt lat="43.37525" lon="6.1">
        <ele>304.467719</ele>
        <time>2025-04-25T07:07:39.000Z</time>
      </trkpt>
      <trkpt lat="43.37521" lon="6.10001">
        <ele>304.593078</ele>
        <time>2025-04-25T07:07:40.000Z</time>
      </trkpt>
      <trkpt lat="43.37521" lon="6.10001">
        <ele>304.593078</ele>
        <time>2025-04-25T07:07:40.000Z</time>
      </trkpt>
      <trkpt lat="43.37517" lon="6.10002">
        <ele>304.704238</ele>
        <time>2025-04-25T07:07:41.000Z</time>
      </trkpt>
      <trkpt lat="43.37517" lon="6.10002">
        <ele>304.704238</ele>
        <time>2025-04-25T07:07:41.000Z</time>
      </trkpt>
      <trkpt lat="43.37513" lon="6.10002">
        <ele>304.838605</ele>
        <time>2025-04-25T07:07:42.000Z</time>
      </trkpt>
      <trkpt lat="43.37513" lon="6.10002">
        <ele>304.838605</ele>
        <time>2025-04-25T07:07:42.000Z</time>
      </trkpt>
      <trkpt lat="43.37508" lon="6.10003">
        <ele>304.984341</ele>
        <time>2025-04-25T07:07:43.000Z</time>
      </trkpt>
      <trkpt lat="43.37508" lon="6.10003">
        <ele>304.984341</ele>
        <time>2025-04-25T07:07:43.000Z</time>
      </trkpt>
      <trkpt lat="43.37503" lon="6.10003">
        <ele>305.106717</ele>
        <time>2025-04-25T07:07:44.000Z</time>
      </trkpt>
      <trkpt lat="43.37503" lon="6.10003">
        <ele>305.106717</ele>
        <time>2025-04-25T07:07:44.000Z</time>
      </trkpt>
      <trkpt lat="43.37499" lon="6.10003">
        <ele>305.237772</ele>
        <time>2025-04-25T07:07:45.000Z</time>
      </trkpt>
      <trkpt lat="43.37499" lon="6.10003">
        <ele>305.237772</ele>
        <time>2025-04-25T07:07:45.000Z</time>
      </trkpt>
      <trkpt lat="43.37494" lon="6.10002">
        <ele>305.371989</ele>
        <time>2025-04-25T07:07:46.000Z</time>
      </trkpt>
      <trkpt lat="43.37494" lon="6.10002">
        <ele>305.371989</ele>
        <time>2025-04-25T07:07:46.000Z</time>
      </trkpt>
      <trkpt lat="43.3749" lon="6.10001">
        <ele>305.507601</ele>
        <time>2025-04-25T07:07:47.000Z</time>
      </trkpt>
      <trkpt lat="43.3749" lon="6.10001">
        <ele>305.507601</ele>
        <time>2025-04-25T07:07:47.000Z</time>
      </trkpt>
      <trkpt lat="43.37485" lon="6.1">
        <ele>305.644348</ele>
        <time>2025-04-25T07:07:48.000Z</time>
      </trkpt>
      <trkpt lat="43.37485" lon="6.1">
        <ele>305.644348</ele>
        <time>2025-04-25T07:07:48.000Z</time>
      </trkpt>
      <trkpt lat="43.37481" lon="6.09999">
        <ele>305.770704</ele>
        <time>2025-04-25T07:07:49.000Z</time>
      </trkpt>
      <trkpt lat="43.37481" lon="6.09999">
        <ele>305.770704</ele>
        <time>2025-04-25T07:07:49.000Z</time>
      </trkpt>
      <trkpt lat="43.37477" lon="6.09997">
        <ele>305.887733</ele>
        <time>2025-04-25T07:07:50.000Z</time>
      </trkpt>
      <trkpt lat="43.37477" lon="6.09997">
        <ele>305.887733</ele>
        <time>2025-04-25T07:07:50.000Z</time>
      </trkpt>
      <trkpt lat="43.37473" lon="6.09995">
        <ele>306.007787</ele>
        <time>2025-04-25T07:07:51.000Z</time>
      </trkpt>
      <trkpt lat="43.37473" lon="6.09995">
        <ele>306.007787</ele>
        <time>2025-04-25T07:07:51.000Z</time>
      </trkpt>
      <trkpt lat="43.3747" lon="6.09993">
        <ele>306.104964</ele>
        <time>2025-04-25T07:07:52.000Z</time>
      </trkpt>
      <trkpt lat="43.37467" lon="6.09991">
        <ele>306.211049</ele>
        <time>2025-04-25T07:07:53.000Z</time>
      </trkpt>
      <trkpt lat="43.37467" lon="6.09991">
        <ele>306.211049</ele>
        <time>2025-04-25T07:07:53.000Z</time>
      </trkpt>
      <trkpt lat="43.37464" lon="6.0999">
        <ele>306.29507</ele>
        <time>2025-04-25T07:07:54.000Z</time>
      </trkpt>
      <trkpt lat="43.37464" lon="6.0999">
        <ele>306.29507</ele>
        <time>2025-04-25T07:07:54.000Z</time>
      </trkpt>
      <trkpt lat="43.3746" lon="6.09988">
        <ele>306.415124</ele>
        <time>2025-04-25T07:07:55.000Z</time>
      </trkpt>
      <trkpt lat="43.37457" lon="6.09986">
        <ele>306.532859</ele>
        <time>2025-04-25T07:07:56.000Z</time>
      </trkpt>
      <trkpt lat="43.37457" lon="6.09986">
        <ele>306.532859</ele>
        <time>2025-04-25T07:07:56.000Z</time>
      </trkpt>
      <trkpt lat="43.37452" lon="6.09983">
        <ele>306.666118</ele>
        <time>2025-04-25T07:07:57.000Z</time>
      </trkpt>
      <trkpt lat="43.37448" lon="6.09981">
        <ele>306.80864</ele>
        <time>2025-04-25T07:07:59.000Z</time>
      </trkpt>
      <trkpt lat="43.37443" lon="6.09979">
        <ele>306.945105</ele>
        <time>2025-04-25T07:07:59.000Z</time>
      </trkpt>
      <trkpt lat="43.37443" lon="6.09979">
        <ele>306.945105</ele>
        <time>2025-04-25T07:07:59.000Z</time>
      </trkpt>
      <trkpt lat="43.37439" lon="6.09978">
        <ele>307.068301</ele>
        <time>2025-04-25T07:08:00.000Z</time>
      </trkpt>
      <trkpt lat="43.37435" lon="6.09978">
        <ele>307.190622</ele>
        <time>2025-04-25T07:08:01.000Z</time>
      </trkpt>
      <trkpt lat="43.37435" lon="6.09978">
        <ele>307.190622</ele>
        <time>2025-04-25T07:08:01.000Z</time>
      </trkpt>
      <trkpt lat="43.3743" lon="6.09979">
        <ele>307.324839</ele>
        <time>2025-04-25T07:08:02.000Z</time>
      </trkpt>
      <trkpt lat="43.37426" lon="6.09979">
        <ele>307.447799</ele>
        <time>2025-04-25T07:08:03.000Z</time>
      </trkpt>
      <trkpt lat="43.37426" lon="6.09979">
        <ele>307.447799</ele>
        <time>2025-04-25T07:08:03.000Z</time>
      </trkpt>
      <trkpt lat="43.37421" lon="6.0998">
        <ele>307.583096</ele>
        <time>2025-04-25T07:08:04.000Z</time>
      </trkpt>
      <trkpt lat="43.37417" lon="6.09982">
        <ele>307.730249</ele>
        <time>2025-04-25T07:08:05.000Z</time>
      </trkpt>
      <trkpt lat="43.37411" lon="6.09984">
        <ele>307.893657</ele>
        <time>2025-04-25T07:08:06.000Z</time>
      </trkpt>
      <trkpt lat="43.37407" lon="6.09987">
        <ele>308.039289</ele>
        <time>2025-04-25T07:08:07.000Z</time>
      </trkpt>
      <trkpt lat="43.37402" lon="6.0999">
        <ele>308.183991</ele>
        <time>2025-04-25T07:08:08.000Z</time>
      </trkpt>
      <trkpt lat="43.37398" lon="6.09992">
        <ele>308.318987</ele>
        <time>2025-04-25T07:08:09.000Z</time>
      </trkpt>
      <trkpt lat="43.37394" lon="6.09995">
        <ele>308.454893</ele>
        <time>2025-04-25T07:08:10.000Z</time>
      </trkpt>
      <trkpt lat="43.37394" lon="6.09995">
        <ele>308.454893</ele>
        <time>2025-04-25T07:08:10.000Z</time>
      </trkpt>
      <trkpt lat="43.37388" lon="6.09999">
        <ele>308.628716</ele>
        <time>2025-04-25T07:08:11.000Z</time>
      </trkpt>
      <trkpt lat="43.37383" lon="6.10002">
        <ele>308.788524</ele>
        <time>2025-04-25T07:08:13.000Z</time>
      </trkpt>
      <trkpt lat="43.37379" lon="6.10005">
        <ele>308.929367</ele>
        <time>2025-04-25T07:08:13.000Z</time>
      </trkpt>
      <trkpt lat="43.37379" lon="6.10005">
        <ele>308.929367</ele>
        <time>2025-04-25T07:08:13.000Z</time>
      </trkpt>
      <trkpt lat="43.37375" lon="6.10009">
        <ele>309.085611</ele>
        <time>2025-04-25T07:08:14.000Z</time>
      </trkpt>
      <trkpt lat="43.37371" lon="6.10012">
        <ele>309.213191</ele>
        <time>2025-04-25T07:08:16.000Z</time>
      </trkpt>
      <trkpt lat="43.37367" lon="6.10015">
        <ele>309.302724</ele>
        <time>2025-04-25T07:08:16.000Z</time>
      </trkpt>
      <trkpt lat="43.37367" lon="6.10015">
        <ele>309.302724</ele>
        <time>2025-04-25T07:08:16.000Z</time>
      </trkpt>
      <trkpt lat="43.37363" lon="6.10017">
        <ele>309.240399</ele>
        <time>2025-04-25T07:08:17.000Z</time>
      </trkpt>
      <trkpt lat="43.3736" lon="6.10019">
        <ele>309.187266</ele>
        <time>2025-04-25T07:08:19.000Z</time>
      </trkpt>
      <trkpt lat="43.37356" lon="6.1002">
        <ele>309.134133</ele>
        <time>2025-04-25T07:08:19.000Z</time>
      </trkpt>
      <trkpt lat="43.37356" lon="6.1002">
        <ele>309.134133</ele>
        <time>2025-04-25T07:08:19.000Z</time>
      </trkpt>
      <trkpt lat="43.37352" lon="6.10022">
        <ele>309.069972</ele>
        <time>2025-04-25T07:08:20.000Z</time>
      </trkpt>
      <trkpt lat="43.37347" lon="6.10023">
        <ele>309.000311</ele>
        <time>2025-04-25T07:08:21.000Z</time>
      </trkpt>
      <trkpt lat="43.37344" lon="6.10025">
        <ele>308.941551</ele>
        <time>2025-04-25T07:08:23.000Z</time>
      </trkpt>
      <trkpt lat="43.37339" lon="6.10026">
        <ele>308.877112</ele>
        <time>2025-04-25T07:08:23.000Z</time>
      </trkpt>
      <trkpt lat="43.37335" lon="6.10028">
        <ele>308.807451</ele>
        <time>2025-04-25T07:08:24.000Z</time>
      </trkpt>
      <trkpt lat="43.3733" lon="6.10029">
        <ele>308.73875</ele>
        <time>2025-04-25T07:08:25.000Z</time>
      </trkpt>
      <trkpt lat="43.37326" lon="6.10029">
        <ele>308.677784</ele>
        <time>2025-04-25T07:08:26.000Z</time>
      </trkpt>
      <trkpt lat="43.37326" lon="6.10029">
        <ele>308.677784</ele>
        <time>2025-04-25T07:08:26.000Z</time>
      </trkpt>
      <trkpt lat="43.37322" lon="6.10028">
        <ele>308.617609</ele>
        <time>2025-04-25T07:08:27.000Z</time>
      </trkpt>
      <trkpt lat="43.37319" lon="6.10021">
        <ele>308.533031</ele>
        <time>2025-04-25T07:08:28.000Z</time>
      </trkpt>
      <trkpt lat="43.37319" lon="6.10021">
        <ele>308.533031</ele>
        <time>2025-04-25T07:08:28.000Z</time>
      </trkpt>
      <trkpt lat="43.3732" lon="6.10017">
        <ele>308.487503</ele>
        <time>2025-04-25T07:08:30.000Z</time>
      </trkpt>
      <trkpt lat="43.37322" lon="6.10013">
        <ele>308.436792</ele>
        <time>2025-04-25T07:08:32.000Z</time>
      </trkpt>
      <trkpt lat="43.37325" lon="6.1001">
        <ele>308.381313</ele>
        <time>2025-04-25T07:08:32.000Z</time>
      </trkpt>
      <trkpt lat="43.37329" lon="6.10007">
        <ele>308.308706</ele>
        <time>2025-04-25T07:08:33.000Z</time>
      </trkpt>
      <trkpt lat="43.37336" lon="6.1">
        <ele>308.188611</ele>
        <time>2025-04-25T07:08:35.000Z</time>
      </trkpt>
      <trkpt lat="43.37336" lon="6.1">
        <ele>308.188611</ele>
        <time>2025-04-25T07:08:35.000Z</time>
      </trkpt>
      <trkpt lat="43.37342" lon="6.09991">
        <ele>308.050717</ele>
        <time>2025-04-25T07:08:37.000Z</time>
      </trkpt>
      <trkpt lat="43.37346" lon="6.09983">
        <ele>307.956625</ele>
        <time>2025-04-25T07:08:39.000Z</time>
      </trkpt>
      <trkpt lat="43.37347" lon="6.09975">
        <ele>307.866168</ele>
        <time>2025-04-25T07:08:39.000Z</time>
      </trkpt>
      <trkpt lat="43.37347" lon="6.09975">
        <ele>307.866168</ele>
        <time>2025-04-25T07:08:39.000Z</time>
      </trkpt>
      <trkpt lat="43.37349" lon="6.09968">
        <ele>307.781528</ele>
        <time>2025-04-25T07:08:41.000Z</time>
      </trkpt>
      <trkpt lat="43.37349" lon="6.09949">
        <ele>307.585915</ele>
        <time>2025-04-25T07:08:42.000Z</time>
      </trkpt>
      <trkpt lat="43.37349" lon="6.09949">
        <ele>307.585915</ele>
        <time>2025-04-25T07:08:42.000Z</time>
      </trkpt>
      <trkpt lat="43.37347" lon="6.0994">
        <ele>307.487569</ele>
        <time>2025-04-25T07:08:43.000Z</time>
      </trkpt>
      <trkpt lat="43.37347" lon="6.0994">
        <ele>307.487569</ele>
        <time>2025-04-25T07:08:43.000Z</time>
      </trkpt>
      <trkpt lat="43.37346" lon="6.09922">
        <ele>307.291013</ele>
        <time>2025-04-25T07:08:45.000Z</time>
      </trkpt>
      <trkpt lat="43.37346" lon="6.09922">
        <ele>307.291013</ele>
        <time>2025-04-25T07:08:45.000Z</time>
      </trkpt>
      <trkpt lat="43.37345" lon="6.09911">
        <ele>307.17049</ele>
        <time>2025-04-25T07:08:46.000Z</time>
      </trkpt>
      <trkpt lat="43.37345" lon="6.09911">
        <ele>307.17049</ele>
        <time>2025-04-25T07:08:46.000Z</time>
      </trkpt>
      <trkpt lat="43.37347" lon="6.09891">
        <ele>306.950112</ele>
        <time>2025-04-25T07:08:48.000Z</time>
      </trkpt>
      <trkpt lat="43.37347" lon="6.09891">
        <ele>306.950112</ele>
        <time>2025-04-25T07:08:48.000Z</time>
      </trkpt>
      <trkpt lat="43.37347" lon="6.09881">
        <ele>306.846256</ele>
        <time>2025-04-25T07:08:48.000Z</time>
      </trkpt>
      <trkpt lat="43.37347" lon="6.09881">
        <ele>306.846256</ele>
        <time>2025-04-25T07:08:48.000Z</time>
      </trkpt>
      <trkpt lat="43.37351" lon="6.09863">
        <ele>306.623428</ele>
        <time>2025-04-25T07:08:51.000Z</time>
      </trkpt>
      <trkpt lat="43.37351" lon="6.09863">
        <ele>306.623428</ele>
        <time>2025-04-25T07:08:51.000Z</time>
      </trkpt>
      <trkpt lat="43.37353" lon="6.09855">
        <ele>306.336996</ele>
        <time>2025-04-25T07:08:52.000Z</time>
      </trkpt>
      <trkpt lat="43.37353" lon="6.09855">
        <ele>306.336996</ele>
        <time>2025-04-25T07:08:52.000Z</time>
      </trkpt>
      <trkpt lat="43.37356" lon="6.09847">
        <ele>306.054606</ele>
        <time>2025-04-25T07:08:53.000Z</time>
      </trkpt>
      <trkpt lat="43.37356" lon="6.09847">
        <ele>306.054606</ele>
        <time>2025-04-25T07:08:53.000Z</time>
      </trkpt>
      <trkpt lat="43.3736" lon="6.09838">
        <ele>305.700431</ele>
        <time>2025-04-25T07:08:54.000Z</time>
      </trkpt>
      <trkpt lat="43.3736" lon="6.09838">
        <ele>305.700431</ele>
        <time>2025-04-25T07:08:54.000Z</time>
      </trkpt>
      <trkpt lat="43.37364" lon="6.09829">
        <ele>305.375937</ele>
        <time>2025-04-25T07:08:55.000Z</time>
      </trkpt>
      <trkpt lat="43.37364" lon="6.09829">
        <ele>305.375937</ele>
        <time>2025-04-25T07:08:55.000Z</time>
      </trkpt>
      <trkpt lat="43.37368" lon="6.09822">
        <ele>305.074775</ele>
        <time>2025-04-25T07:08:56.000Z</time>
      </trkpt>
      <trkpt lat="43.37368" lon="6.09822">
        <ele>305.074775</ele>
        <time>2025-04-25T07:08:56.000Z</time>
      </trkpt>
      <trkpt lat="43.37373" lon="6.09815">
        <ele>304.747953</ele>
        <time>2025-04-25T07:08:57.000Z</time>
      </trkpt>
      <trkpt lat="43.37373" lon="6.09815">
        <ele>304.747953</ele>
        <time>2025-04-25T07:08:57.000Z</time>
      </trkpt>
      <trkpt lat="43.37377" lon="6.0981">
        <ele>304.511701</ele>
        <time>2025-04-25T07:08:58.000Z</time>
      </trkpt>
      <trkpt lat="43.37377" lon="6.0981">
        <ele>304.511701</ele>
        <time>2025-04-25T07:08:58.000Z</time>
      </trkpt>
      <trkpt lat="43.37381" lon="6.09806">
        <ele>304.304522</ele>
        <time>2025-04-25T07:08:59.000Z</time>
      </trkpt>
      <trkpt lat="43.37381" lon="6.09806">
        <ele>304.304522</ele>
        <time>2025-04-25T07:08:59.000Z</time>
      </trkpt>
      <trkpt lat="43.37386" lon="6.09801">
        <ele>304.036829</ele>
        <time>2025-04-25T07:08:59.000Z</time>
      </trkpt>
      <trkpt lat="43.37386" lon="6.09801">
        <ele>304.036829</ele>
        <time>2025-04-25T07:08:59.000Z</time>
      </trkpt>
      <trkpt lat="43.37391" lon="6.09797">
        <ele>303.794653</ele>
        <time>2025-04-25T07:09:01.000Z</time>
      </trkpt>
      <trkpt lat="43.37391" lon="6.09797">
        <ele>303.794653</ele>
        <time>2025-04-25T07:09:01.000Z</time>
      </trkpt>
      <trkpt lat="43.37397" lon="6.09793">
        <ele>303.497975</ele>
        <time>2025-04-25T07:09:02.000Z</time>
      </trkpt>
      <trkpt lat="43.37397" lon="6.09793">
        <ele>303.497975</ele>
        <time>2025-04-25T07:09:02.000Z</time>
      </trkpt>
      <trkpt lat="43.37405" lon="6.09789">
        <ele>303.115749</ele>
        <time>2025-04-25T07:09:03.000Z</time>
      </trkpt>
      <trkpt lat="43.37405" lon="6.09789">
        <ele>303.115749</ele>
        <time>2025-04-25T07:09:03.000Z</time>
      </trkpt>
      <trkpt lat="43.37414" lon="6.09785">
        <ele>302.685382</ele>
        <time>2025-04-25T07:09:04.000Z</time>
      </trkpt>
      <trkpt lat="43.37414" lon="6.09785">
        <ele>302.685382</ele>
        <time>2025-04-25T07:09:04.000Z</time>
      </trkpt>
      <trkpt lat="43.37423" lon="6.09781">
        <ele>302.264</ele>
        <time>2025-04-25T07:09:05.000Z</time>
      </trkpt>
      <trkpt lat="43.37423" lon="6.09781">
        <ele>302.264</ele>
        <time>2025-04-25T07:09:05.000Z</time>
      </trkpt>
      <trkpt lat="43.37431" lon="6.09777">
        <ele>301.86842</ele>
        <time>2025-04-25T07:09:06.000Z</time>
      </trkpt>
      <trkpt lat="43.37431" lon="6.09777">
        <ele>301.86842</ele>
        <time>2025-04-25T07:09:06.000Z</time>
      </trkpt>
      <trkpt lat="43.37442" lon="6.09771">
        <ele>301.362765</ele>
        <time>2025-04-25T07:09:07.000Z</time>
      </trkpt>
      <trkpt lat="43.37442" lon="6.09771">
        <ele>301.362765</ele>
        <time>2025-04-25T07:09:07.000Z</time>
      </trkpt>
      <trkpt lat="43.3745" lon="6.09764">
        <ele>300.922327</ele>
        <time>2025-04-25T07:09:08.000Z</time>
      </trkpt>
      <trkpt lat="43.3745" lon="6.09764">
        <ele>300.922327</ele>
        <time>2025-04-25T07:09:08.000Z</time>
      </trkpt>
      <trkpt lat="43.37457" lon="6.09756">
        <ele>300.518795</ele>
        <time>2025-04-25T07:09:09.000Z</time>
      </trkpt>
      <trkpt lat="43.37457" lon="6.09756">
        <ele>300.518795</ele>
        <time>2025-04-25T07:09:09.000Z</time>
      </trkpt>
      <trkpt lat="43.37463" lon="6.09747">
        <ele>300.111179</ele>
        <time>2025-04-25T07:09:10.000Z</time>
      </trkpt>
      <trkpt lat="43.37463" lon="6.09747">
        <ele>300.111179</ele>
        <time>2025-04-25T07:09:10.000Z</time>
      </trkpt>
      <trkpt lat="43.37469" lon="6.09733">
        <ele>299.608951</ele>
        <time>2025-04-25T07:09:11.000Z</time>
      </trkpt>
      <trkpt lat="43.37469" lon="6.09733">
        <ele>299.608951</ele>
        <time>2025-04-25T07:09:11.000Z</time>
      </trkpt>
      <trkpt lat="43.37473" lon="6.09723">
        <ele>299.221268</ele>
        <time>2025-04-25T07:09:12.000Z</time>
      </trkpt>
      <trkpt lat="43.37473" lon="6.09723">
        <ele>299.221268</ele>
        <time>2025-04-25T07:09:12.000Z</time>
      </trkpt>
      <trkpt lat="43.37476" lon="6.09714">
        <ele>298.921205</ele>
        <time>2025-04-25T07:09:13.000Z</time>
      </trkpt>
      <trkpt lat="43.37476" lon="6.09714">
        <ele>298.921205</ele>
        <time>2025-04-25T07:09:13.000Z</time>
      </trkpt>
      <trkpt lat="43.37479" lon="6.09703">
        <ele>298.712287</ele>
        <time>2025-04-25T07:09:14.000Z</time>
      </trkpt>
      <trkpt lat="43.37479" lon="6.09703">
        <ele>298.712287</ele>
        <time>2025-04-25T07:09:14.000Z</time>
      </trkpt>
      <trkpt lat="43.37479" lon="6.09695">
        <ele>298.84202</ele>
        <time>2025-04-25T07:09:15.000Z</time>
      </trkpt>
      <trkpt lat="43.37479" lon="6.09695">
        <ele>298.84202</ele>
        <time>2025-04-25T07:09:15.000Z</time>
      </trkpt>
      <trkpt lat="43.37478" lon="6.09685">
        <ele>299.009544</ele>
        <time>2025-04-25T07:09:17.000Z</time>
      </trkpt>
      <trkpt lat="43.37478" lon="6.09685">
        <ele>299.009544</ele>
        <time>2025-04-25T07:09:17.000Z</time>
      </trkpt>
      <trkpt lat="43.37477" lon="6.09682">
        <ele>299.082277</ele>
        <time>2025-04-25T07:09:18.000Z</time>
      </trkpt>
      <trkpt lat="43.37477" lon="6.09682">
        <ele>299.082277</ele>
        <time>2025-04-25T07:09:18.000Z</time>
      </trkpt>
      <trkpt lat="43.37474" lon="6.09677">
        <ele>299.178074</ele>
        <time>2025-04-25T07:09:18.000Z</time>
      </trkpt>
      <trkpt lat="43.37474" lon="6.09677">
        <ele>299.178074</ele>
        <time>2025-04-25T07:09:18.000Z</time>
      </trkpt>
      <trkpt lat="43.37471" lon="6.09672">
        <ele>299.281952</ele>
        <time>2025-04-25T07:09:20.000Z</time>
      </trkpt>
      <trkpt lat="43.37471" lon="6.09672">
        <ele>299.281952</ele>
        <time>2025-04-25T07:09:20.000Z</time>
      </trkpt>
      <trkpt lat="43.37469" lon="6.09668">
        <ele>299.374887</ele>
        <time>2025-04-25T07:09:21.000Z</time>
      </trkpt>
      <trkpt lat="43.37469" lon="6.09668">
        <ele>299.374887</ele>
        <time>2025-04-25T07:09:21.000Z</time>
      </trkpt>
      <trkpt lat="43.37466" lon="6.09661">
        <ele>299.505789</ele>
        <time>2025-04-25T07:09:22.000Z</time>
      </trkpt>
      <trkpt lat="43.37462" lon="6.09648">
        <ele>299.756696</ele>
        <time>2025-04-25T07:09:24.000Z</time>
      </trkpt>
      <trkpt lat="43.37462" lon="6.09648">
        <ele>299.756696</ele>
        <time>2025-04-25T07:09:24.000Z</time>
      </trkpt>
      <trkpt lat="43.3746" lon="6.09641">
        <ele>299.880663</ele>
        <time>2025-04-25T07:09:25.000Z</time>
      </trkpt>
      <trkpt lat="43.37459" lon="6.09633">
        <ele>300.015338</ele>
        <time>2025-04-25T07:09:26.000Z</time>
      </trkpt>
      <trkpt lat="43.37458" lon="6.09625">
        <ele>300.144597</ele>
        <time>2025-04-25T07:09:27.000Z</time>
      </trkpt>
      <trkpt lat="43.37456" lon="6.09618">
        <ele>300.278268</ele>
        <time>2025-04-25T07:09:28.000Z</time>
      </trkpt>
      <trkpt lat="43.37454" lon="6.09611">
        <ele>300.409589</ele>
        <time>2025-04-25T07:09:28.000Z</time>
      </trkpt>
      <trkpt lat="43.37452" lon="6.09604">
        <ele>300.524801</ele>
        <time>2025-04-25T07:09:30.000Z</time>
      </trkpt>
      <trkpt lat="43.3745" lon="6.09597">
        <ele>300.659215</ele>
        <time>2025-04-25T07:09:31.000Z</time>
      </trkpt>
      <trkpt lat="43.3745" lon="6.09597">
        <ele>300.659215</ele>
        <time>2025-04-25T07:09:31.000Z</time>
      </trkpt>
      <trkpt lat="43.37446" lon="6.09582">
        <ele>300.921204</ele>
        <time>2025-04-25T07:09:33.000Z</time>
      </trkpt>
      <trkpt lat="43.37446" lon="6.09582">
        <ele>300.921204</ele>
        <time>2025-04-25T07:09:33.000Z</time>
      </trkpt>
      <trkpt lat="43.37444" lon="6.09576">
        <ele>301.041131</ele>
        <time>2025-04-25T07:09:34.000Z</time>
      </trkpt>
      <trkpt lat="43.37444" lon="6.09576">
        <ele>301.041131</ele>
        <time>2025-04-25T07:09:34.000Z</time>
      </trkpt>
      <trkpt lat="43.37443" lon="6.09569">
        <ele>301.160471</ele>
        <time>2025-04-25T07:09:34.000Z</time>
      </trkpt>
      <trkpt lat="43.37443" lon="6.09569">
        <ele>301.160471</ele>
        <time>2025-04-25T07:09:34.000Z</time>
      </trkpt>
      <trkpt lat="43.37441" lon="6.09555">
        <ele>301.400276</ele>
        <time>2025-04-25T07:09:37.000Z</time>
      </trkpt>
      <trkpt lat="43.37441" lon="6.09555">
        <ele>301.400276</ele>
        <time>2025-04-25T07:09:37.000Z</time>
      </trkpt>
      <trkpt lat="43.37439" lon="6.09549">
        <ele>301.513574</ele>
        <time>2025-04-25T07:09:37.000Z</time>
      </trkpt>
      <trkpt lat="43.37439" lon="6.09549">
        <ele>301.513574</ele>
        <time>2025-04-25T07:09:37.000Z</time>
      </trkpt>
      <trkpt lat="43.37438" lon="6.0954">
        <ele>301.654445</ele>
        <time>2025-04-25T07:09:38.000Z</time>
      </trkpt>
      <trkpt lat="43.37438" lon="6.0954">
        <ele>301.654445</ele>
        <time>2025-04-25T07:09:38.000Z</time>
      </trkpt>
      <trkpt lat="43.37437" lon="6.09534">
        <ele>301.770487</ele>
        <time>2025-04-25T07:09:40.000Z</time>
      </trkpt>
      <trkpt lat="43.37437" lon="6.09534">
        <ele>301.770487</ele>
        <time>2025-04-25T07:09:40.000Z</time>
      </trkpt>
      <trkpt lat="43.37436" lon="6.09527">
        <ele>301.880196</ele>
        <time>2025-04-25T07:09:40.000Z</time>
      </trkpt>
      <trkpt lat="43.37436" lon="6.09527">
        <ele>301.880196</ele>
        <time>2025-04-25T07:09:40.000Z</time>
      </trkpt>
      <trkpt lat="43.37435" lon="6.0952">
        <ele>302.005108</ele>
        <time>2025-04-25T07:09:42.000Z</time>
      </trkpt>
      <trkpt lat="43.37435" lon="6.0952">
        <ele>302.005108</ele>
        <time>2025-04-25T07:09:42.000Z</time>
      </trkpt>
      <trkpt lat="43.37433" lon="6.09514">
        <ele>302.121045</ele>
        <time>2025-04-25T07:09:43.000Z</time>
      </trkpt>
      <trkpt lat="43.37433" lon="6.09514">
        <ele>302.121045</ele>
        <time>2025-04-25T07:09:43.000Z</time>
      </trkpt>
      <trkpt lat="43.37432" lon="6.09506">
        <ele>302.246994</ele>
        <time>2025-04-25T07:09:44.000Z</time>
      </trkpt>
      <trkpt lat="43.37432" lon="6.09506">
        <ele>302.246994</ele>
        <time>2025-04-25T07:09:44.000Z</time>
      </trkpt>
      <trkpt lat="43.37431" lon="6.09499">
        <ele>302.367985</ele>
        <time>2025-04-25T07:09:45.000Z</time>
      </trkpt>
      <trkpt lat="43.37431" lon="6.09499">
        <ele>302.367985</ele>
        <time>2025-04-25T07:09:45.000Z</time>
      </trkpt>
      <trkpt lat="43.3743" lon="6.09492">
        <ele>302.492706</ele>
        <time>2025-04-25T07:09:45.000Z</time>
      </trkpt>
      <trkpt lat="43.3743" lon="6.09492">
        <ele>302.492706</ele>
        <time>2025-04-25T07:09:45.000Z</time>
      </trkpt>
      <trkpt lat="43.37429" lon="6.09484">
        <ele>302.630806</ele>
        <time>2025-04-25T07:09:47.000Z</time>
      </trkpt>
      <trkpt lat="43.37429" lon="6.09484">
        <ele>302.630806</ele>
        <time>2025-04-25T07:09:47.000Z</time>
      </trkpt>
      <trkpt lat="43.37429" lon="6.09476">
        <ele>302.764593</ele>
        <time>2025-04-25T07:09:48.000Z</time>
      </trkpt>
      <trkpt lat="43.37429" lon="6.09476">
        <ele>302.764593</ele>
        <time>2025-04-25T07:09:48.000Z</time>
      </trkpt>
      <trkpt lat="43.37428" lon="6.09461">
        <ele>303.104818</ele>
        <time>2025-04-25T07:09:50.000Z</time>
      </trkpt>
      <trkpt lat="43.37428" lon="6.09461">
        <ele>303.104818</ele>
        <time>2025-04-25T07:09:50.000Z</time>
      </trkpt>
      <trkpt lat="43.37426" lon="6.09453">
        <ele>303.314137</ele>
        <time>2025-04-25T07:09:50.000Z</time>
      </trkpt>
      <trkpt lat="43.37426" lon="6.09453">
        <ele>303.314137</ele>
        <time>2025-04-25T07:09:50.000Z</time>
      </trkpt>
      <trkpt lat="43.37425" lon="6.09446">
        <ele>303.493062</ele>
        <time>2025-04-25T07:09:52.000Z</time>
      </trkpt>
      <trkpt lat="43.37425" lon="6.09446">
        <ele>303.493062</ele>
        <time>2025-04-25T07:09:52.000Z</time>
      </trkpt>
      <trkpt lat="43.37423" lon="6.09438">
        <ele>303.676152</ele>
        <time>2025-04-25T07:09:53.000Z</time>
      </trkpt>
      <trkpt lat="43.37423" lon="6.09438">
        <ele>303.676152</ele>
        <time>2025-04-25T07:09:53.000Z</time>
      </trkpt>
      <trkpt lat="43.37421" lon="6.09432">
        <ele>303.851418</ele>
        <time>2025-04-25T07:09:53.000Z</time>
      </trkpt>
      <trkpt lat="43.37421" lon="6.09432">
        <ele>303.851418</ele>
        <time>2025-04-25T07:09:53.000Z</time>
      </trkpt>
      <trkpt lat="43.3742" lon="6.09423">
        <ele>304.05604</ele>
        <time>2025-04-25T07:09:55.000Z</time>
      </trkpt>
      <trkpt lat="43.3742" lon="6.09423">
        <ele>304.05604</ele>
        <time>2025-04-25T07:09:55.000Z</time>
      </trkpt>
      <trkpt lat="43.37418" lon="6.09416">
        <ele>304.24594</ele>
        <time>2025-04-25T07:09:55.000Z</time>
      </trkpt>
      <trkpt lat="43.37418" lon="6.09416">
        <ele>304.24594</ele>
        <time>2025-04-25T07:09:55.000Z</time>
      </trkpt>
      <trkpt lat="43.37418" lon="6.09408">
        <ele>304.438961</ele>
        <time>2025-04-25T07:09:57.000Z</time>
      </trkpt>
      <trkpt lat="43.37418" lon="6.09408">
        <ele>304.438961</ele>
        <time>2025-04-25T07:09:57.000Z</time>
      </trkpt>
      <trkpt lat="43.37417" lon="6.094">
        <ele>304.625771</ele>
        <time>2025-04-25T07:09:57.000Z</time>
      </trkpt>
      <trkpt lat="43.37417" lon="6.094">
        <ele>304.625771</ele>
        <time>2025-04-25T07:09:57.000Z</time>
      </trkpt>
      <trkpt lat="43.37417" lon="6.09392">
        <ele>304.81596</ele>
        <time>2025-04-25T07:09:58.000Z</time>
      </trkpt>
      <trkpt lat="43.37417" lon="6.09392">
        <ele>304.81596</ele>
        <time>2025-04-25T07:09:58.000Z</time>
      </trkpt>
      <trkpt lat="43.37415" lon="6.09385">
        <ele>304.990003</ele>
        <time>2025-04-25T07:09:59.000Z</time>
      </trkpt>
      <trkpt lat="43.37414" lon="6.09378">
        <ele>305.161969</ele>
        <time>2025-04-25T07:10:00.000Z</time>
      </trkpt>
      <trkpt lat="43.37412" lon="6.09373">
        <ele>305.306394</ele>
        <time>2025-04-25T07:10:02.000Z</time>
      </trkpt>
      <trkpt lat="43.37412" lon="6.09373">
        <ele>305.306394</ele>
        <time>2025-04-25T07:10:02.000Z</time>
      </trkpt>
      <trkpt lat="43.37411" lon="6.09367">
        <ele>305.449754</ele>
        <time>2025-04-25T07:10:04.000Z</time>
      </trkpt>
      <trkpt lat="43.37408" lon="6.09354">
        <ele>305.78538</ele>
        <time>2025-04-25T07:10:05.000Z</time>
      </trkpt>
      <trkpt lat="43.37408" lon="6.09354">
        <ele>305.78538</ele>
        <time>2025-04-25T07:10:05.000Z</time>
      </trkpt>
      <trkpt lat="43.37407" lon="6.09346">
        <ele>305.974531</ele>
        <time>2025-04-25T07:10:06.000Z</time>
      </trkpt>
      <trkpt lat="43.37407" lon="6.09346">
        <ele>305.974531</ele>
        <time>2025-04-25T07:10:06.000Z</time>
      </trkpt>
      <trkpt lat="43.37405" lon="6.0934">
        <ele>306.148814</ele>
        <time>2025-04-25T07:10:07.000Z</time>
      </trkpt>
      <trkpt lat="43.37404" lon="6.09332">
        <ele>306.334723</ele>
        <time>2025-04-25T07:10:07.000Z</time>
      </trkpt>
      <trkpt lat="43.37404" lon="6.09332">
        <ele>306.334723</ele>
        <time>2025-04-25T07:10:07.000Z</time>
      </trkpt>
      <trkpt lat="43.37402" lon="6.09325">
        <ele>306.520631</ele>
        <time>2025-04-25T07:10:09.000Z</time>
      </trkpt>
      <trkpt lat="43.37402" lon="6.09325">
        <ele>306.520631</ele>
        <time>2025-04-25T07:10:09.000Z</time>
      </trkpt>
      <trkpt lat="43.374" lon="6.09317">
        <ele>306.705143</ele>
        <time>2025-04-25T07:10:10.000Z</time>
      </trkpt>
      <trkpt lat="43.374" lon="6.09317">
        <ele>306.705143</ele>
        <time>2025-04-25T07:10:10.000Z</time>
      </trkpt>
      <trkpt lat="43.37399" lon="6.0931">
        <ele>306.891052</ele>
        <time>2025-04-25T07:10:10.000Z</time>
      </trkpt>
      <trkpt lat="43.37397" lon="6.09302">
        <ele>307.099325</ele>
        <time>2025-04-25T07:10:12.000Z</time>
      </trkpt>
      <trkpt lat="43.37396" lon="6.09295">
        <ele>307.272635</ele>
        <time>2025-04-25T07:10:13.000Z</time>
      </trkpt>
      <trkpt lat="43.37395" lon="6.09288">
        <ele>307.441971</ele>
        <time>2025-04-25T07:10:14.000Z</time>
      </trkpt>
      <trkpt lat="43.37395" lon="6.09288">
        <ele>307.441971</ele>
        <time>2025-04-25T07:10:14.000Z</time>
      </trkpt>
      <trkpt lat="43.37393" lon="6.09281">
        <ele>307.62555</ele>
        <time>2025-04-25T07:10:15.000Z</time>
      </trkpt>
      <trkpt lat="43.37392" lon="6.09275">
        <ele>307.771482</ele>
        <time>2025-04-25T07:10:15.000Z</time>
      </trkpt>
      <trkpt lat="43.3739" lon="6.09269">
        <ele>307.929859</ele>
        <time>2025-04-25T07:10:17.000Z</time>
      </trkpt>
      <trkpt lat="43.3739" lon="6.09269">
        <ele>307.929859</ele>
        <time>2025-04-25T07:10:17.000Z</time>
      </trkpt>
      <trkpt lat="43.37389" lon="6.09262">
        <ele>308.101826</ele>
        <time>2025-04-25T07:10:18.000Z</time>
      </trkpt>
      <trkpt lat="43.37388" lon="6.09256">
        <ele>308.263329</ele>
        <time>2025-04-25T07:10:18.000Z</time>
      </trkpt>
      <trkpt lat="43.37388" lon="6.09256">
        <ele>308.263329</ele>
        <time>2025-04-25T07:10:18.000Z</time>
      </trkpt>
      <trkpt lat="43.37387" lon="6.09249">
        <ele>308.430027</ele>
        <time>2025-04-25T07:10:20.000Z</time>
      </trkpt>
      <trkpt lat="43.37386" lon="6.09242">
        <ele>308.607185</ele>
        <time>2025-04-25T07:10:21.000Z</time>
      </trkpt>
      <trkpt lat="43.37386" lon="6.09242">
        <ele>308.607185</ele>
        <time>2025-04-25T07:10:21.000Z</time>
      </trkpt>
      <trkpt lat="43.37386" lon="6.09234">
        <ele>308.793521</ele>
        <time>2025-04-25T07:10:21.000Z</time>
      </trkpt>
      <trkpt lat="43.37387" lon="6.09227">
        <ele>308.95353</ele>
        <time>2025-04-25T07:10:23.000Z</time>
      </trkpt>
      <trkpt lat="43.37387" lon="6.09227">
        <ele>308.95353</ele>
        <time>2025-04-25T07:10:23.000Z</time>
      </trkpt>
      <trkpt lat="43.37387" lon="6.0922">
        <ele>309.10231</ele>
        <time>2025-04-25T07:10:23.000Z</time>
      </trkpt>
      <trkpt lat="43.37386" lon="6.09214">
        <ele>309.24936</ele>
        <time>2025-04-25T07:10:24.000Z</time>
      </trkpt>
      <trkpt lat="43.37385" lon="6.09205">
        <ele>309.459538</ele>
        <time>2025-04-25T07:10:26.000Z</time>
      </trkpt>
      <trkpt lat="43.37385" lon="6.09205">
        <ele>309.459538</ele>
        <time>2025-04-25T07:10:26.000Z</time>
      </trkpt>
      <trkpt lat="43.37383" lon="6.09196">
        <ele>309.664318</ele>
        <time>2025-04-25T07:10:26.000Z</time>
      </trkpt>
      <trkpt lat="43.37382" lon="6.09187">
        <ele>309.864432</ele>
        <time>2025-04-25T07:10:27.000Z</time>
      </trkpt>
      <trkpt lat="43.3738" lon="6.09179">
        <ele>310.055044</ele>
        <time>2025-04-25T07:10:29.000Z</time>
      </trkpt>
      <trkpt lat="43.37378" lon="6.09171">
        <ele>310.253177</ele>
        <time>2025-04-25T07:10:30.000Z</time>
      </trkpt>
      <trkpt lat="43.37376" lon="6.09162">
        <ele>310.455522</ele>
        <time>2025-04-25T07:10:31.000Z</time>
      </trkpt>
      <trkpt lat="43.37373" lon="6.09155">
        <ele>310.632727</ele>
        <time>2025-04-25T07:10:32.000Z</time>
      </trkpt>
      <trkpt lat="43.3737" lon="6.09148">
        <ele>310.831746</ele>
        <time>2025-04-25T07:10:33.000Z</time>
      </trkpt>
      <trkpt lat="43.37366" lon="6.09141">
        <ele>311.021545</ele>
        <time>2025-04-25T07:10:34.000Z</time>
      </trkpt>
      <trkpt lat="43.37362" lon="6.09137">
        <ele>311.171312</ele>
        <time>2025-04-25T07:10:34.000Z</time>
      </trkpt>
      <trkpt lat="43.37362" lon="6.09137">
        <ele>311.171312</ele>
        <time>2025-04-25T07:10:34.000Z</time>
      </trkpt>
      <trkpt lat="43.37358" lon="6.09133">
        <ele>311.328457</ele>
        <time>2025-04-25T07:10:36.000Z</time>
      </trkpt>
      <trkpt lat="43.37353" lon="6.0913">
        <ele>311.488315</ele>
        <time>2025-04-25T07:10:36.000Z</time>
      </trkpt>
      <trkpt lat="43.37353" lon="6.0913">
        <ele>311.488315</ele>
        <time>2025-04-25T07:10:36.000Z</time>
      </trkpt>
      <trkpt lat="43.37349" lon="6.09128">
        <ele>311.63882</ele>
        <time>2025-04-25T07:10:37.000Z</time>
      </trkpt>
      <trkpt lat="43.37345" lon="6.09125">
        <ele>311.774219</ele>
        <time>2025-04-25T07:10:38.000Z</time>
      </trkpt>
      <trkpt lat="43.37345" lon="6.09125">
        <ele>311.774219</ele>
        <time>2025-04-25T07:10:38.000Z</time>
      </trkpt>
      <trkpt lat="43.37341" lon="6.09121">
        <ele>311.907275</ele>
        <time>2025-04-25T07:10:40.000Z</time>
      </trkpt>
      <trkpt lat="43.37341" lon="6.09121">
        <ele>311.907275</ele>
        <time>2025-04-25T07:10:40.000Z</time>
      </trkpt>
      <trkpt lat="43.37338" lon="6.09116">
        <ele>312.071756</ele>
        <time>2025-04-25T07:10:41.000Z</time>
      </trkpt>
      <trkpt lat="43.37338" lon="6.09116">
        <ele>312.071756</ele>
        <time>2025-04-25T07:10:41.000Z</time>
      </trkpt>
      <trkpt lat="43.37336" lon="6.09111">
        <ele>312.202954</ele>
        <time>2025-04-25T07:10:41.000Z</time>
      </trkpt>
      <trkpt lat="43.37334" lon="6.09105">
        <ele>312.334409</ele>
        <time>2025-04-25T07:10:43.000Z</time>
      </trkpt>
      <trkpt lat="43.37334" lon="6.09105">
        <ele>312.334409</ele>
        <time>2025-04-25T07:10:43.000Z</time>
      </trkpt>
      <trkpt lat="43.37333" lon="6.091">
        <ele>312.468946</ele>
        <time>2025-04-25T07:10:44.000Z</time>
      </trkpt>
      <trkpt lat="43.37333" lon="6.091">
        <ele>312.468946</ele>
        <time>2025-04-25T07:10:44.000Z</time>
      </trkpt>
      <trkpt lat="43.37331" lon="6.09094">
        <ele>312.610305</ele>
        <time>2025-04-25T07:10:45.000Z</time>
      </trkpt>
      <trkpt lat="43.37331" lon="6.09094">
        <ele>312.610305</ele>
        <time>2025-04-25T07:10:45.000Z</time>
      </trkpt>
      <trkpt lat="43.3733" lon="6.09087">
        <ele>312.772656</ele>
        <time>2025-04-25T07:10:46.000Z</time>
      </trkpt>
      <trkpt lat="43.3733" lon="6.09087">
        <ele>312.772656</ele>
        <time>2025-04-25T07:10:46.000Z</time>
      </trkpt>
      <trkpt lat="43.37328" lon="6.09081">
        <ele>312.926414</ele>
        <time>2025-04-25T07:10:47.000Z</time>
      </trkpt>
      <trkpt lat="43.37328" lon="6.09081">
        <ele>312.926414</ele>
        <time>2025-04-25T07:10:47.000Z</time>
      </trkpt>
      <trkpt lat="43.37326" lon="6.09074">
        <ele>313.092745</ele>
        <time>2025-04-25T07:10:48.000Z</time>
      </trkpt>
      <trkpt lat="43.37326" lon="6.09074">
        <ele>313.092745</ele>
        <time>2025-04-25T07:10:48.000Z</time>
      </trkpt>
      <trkpt lat="43.37324" lon="6.09068">
        <ele>313.238933</ele>
        <time>2025-04-25T07:10:49.000Z</time>
      </trkpt>
      <trkpt lat="43.37324" lon="6.09068">
        <ele>313.238933</ele>
        <time>2025-04-25T07:10:49.000Z</time>
      </trkpt>
      <trkpt lat="43.37323" lon="6.09062">
        <ele>313.386236</ele>
        <time>2025-04-25T07:10:50.000Z</time>
      </trkpt>
      <trkpt lat="43.37323" lon="6.09062">
        <ele>313.386236</ele>
        <time>2025-04-25T07:10:50.000Z</time>
      </trkpt>
      <trkpt lat="43.37321" lon="6.09057">
        <ele>313.50747</ele>
        <time>2025-04-25T07:10:50.000Z</time>
      </trkpt>
      <trkpt lat="43.37321" lon="6.09057">
        <ele>313.50747</ele>
        <time>2025-04-25T07:10:50.000Z</time>
      </trkpt>
      <trkpt lat="43.37318" lon="6.09052">
        <ele>313.651889</ele>
        <time>2025-04-25T07:10:52.000Z</time>
      </trkpt>
      <trkpt lat="43.37318" lon="6.09052">
        <ele>313.651889</ele>
        <time>2025-04-25T07:10:52.000Z</time>
      </trkpt>
      <trkpt lat="43.37314" lon="6.09047">
        <ele>313.802004</ele>
        <time>2025-04-25T07:10:53.000Z</time>
      </trkpt>
      <trkpt lat="43.37314" lon="6.09047">
        <ele>313.802004</ele>
        <time>2025-04-25T07:10:53.000Z</time>
      </trkpt>
      <trkpt lat="43.37311" lon="6.09043">
        <ele>313.936362</ele>
        <time>2025-04-25T07:10:54.000Z</time>
      </trkpt>
      <trkpt lat="43.37311" lon="6.09043">
        <ele>313.936362</ele>
        <time>2025-04-25T07:10:54.000Z</time>
      </trkpt>
      <trkpt lat="43.37308" lon="6.09038">
        <ele>314.086477</ele>
        <time>2025-04-25T07:10:55.000Z</time>
      </trkpt>
      <trkpt lat="43.37308" lon="6.09038">
        <ele>314.086477</ele>
        <time>2025-04-25T07:10:55.000Z</time>
      </trkpt>
      <trkpt lat="43.37304" lon="6.09033">
        <ele>314.244145</ele>
        <time>2025-04-25T07:10:56.000Z</time>
      </trkpt>
      <trkpt lat="43.37304" lon="6.09033">
        <ele>314.244145</ele>
        <time>2025-04-25T07:10:56.000Z</time>
      </trkpt>
      <trkpt lat="43.37302" lon="6.09028">
        <ele>314.382754</ele>
        <time>2025-04-25T07:10:57.000Z</time>
      </trkpt>
      <trkpt lat="43.37302" lon="6.09028">
        <ele>314.382754</ele>
        <time>2025-04-25T07:10:57.000Z</time>
      </trkpt>
      <trkpt lat="43.37299" lon="6.09023">
        <ele>314.433391</ele>
        <time>2025-04-25T07:10:58.000Z</time>
      </trkpt>
      <trkpt lat="43.37299" lon="6.09023">
        <ele>314.433391</ele>
        <time>2025-04-25T07:10:58.000Z</time>
      </trkpt>
      <trkpt lat="43.37297" lon="6.09018">
        <ele>314.473715</ele>
        <time>2025-04-25T07:10:59.000Z</time>
      </trkpt>
      <trkpt lat="43.37297" lon="6.09018">
        <ele>314.473715</ele>
        <time>2025-04-25T07:10:59.000Z</time>
      </trkpt>
      <trkpt lat="43.37295" lon="6.09013">
        <ele>314.508912</ele>
        <time>2025-04-25T07:10:59.000Z</time>
      </trkpt>
      <trkpt lat="43.37295" lon="6.09013">
        <ele>314.508912</ele>
        <time>2025-04-25T07:10:59.000Z</time>
      </trkpt>
      <trkpt lat="43.37294" lon="6.09008">
        <ele>314.540454</ele>
        <time>2025-04-25T07:11:01.000Z</time>
      </trkpt>
      <trkpt lat="43.37294" lon="6.09008">
        <ele>314.540454</ele>
        <time>2025-04-25T07:11:01.000Z</time>
      </trkpt>
      <trkpt lat="43.37295" lon="6.09004">
        <ele>314.569023</ele>
        <time>2025-04-25T07:11:01.000Z</time>
      </trkpt>
      <trkpt lat="43.37295" lon="6.09004">
        <ele>314.569023</ele>
        <time>2025-04-25T07:11:01.000Z</time>
      </trkpt>
      <trkpt lat="43.37296" lon="6.09">
        <ele>314.596318</ele>
        <time>2025-04-25T07:11:03.000Z</time>
      </trkpt>
      <trkpt lat="43.37296" lon="6.09">
        <ele>314.596318</ele>
        <time>2025-04-25T07:11:03.000Z</time>
      </trkpt>
      <trkpt lat="43.37299" lon="6.08997">
        <ele>314.62354</ele>
        <time>2025-04-25T07:11:04.000Z</time>
      </trkpt>
      <trkpt lat="43.37299" lon="6.08997">
        <ele>314.62354</ele>
        <time>2025-04-25T07:11:04.000Z</time>
      </trkpt>
      <trkpt lat="43.37303" lon="6.08995">
        <ele>314.662933</ele>
        <time>2025-04-25T07:11:05.000Z</time>
      </trkpt>
      <trkpt lat="43.37303" lon="6.08995">
        <ele>314.662933</ele>
        <time>2025-04-25T07:11:05.000Z</time>
      </trkpt>
      <trkpt lat="43.37307" lon="6.08994">
        <ele>314.700713</ele>
        <time>2025-04-25T07:11:06.000Z</time>
      </trkpt>
      <trkpt lat="43.37307" lon="6.08994">
        <ele>314.700713</ele>
        <time>2025-04-25T07:11:06.000Z</time>
      </trkpt>
      <trkpt lat="43.37312" lon="6.08994">
        <ele>314.744187</ele>
        <time>2025-04-25T07:11:07.000Z</time>
      </trkpt>
      <trkpt lat="43.37312" lon="6.08994">
        <ele>314.744187</ele>
        <time>2025-04-25T07:11:07.000Z</time>
      </trkpt>
      <trkpt lat="43.37318" lon="6.08994">
        <ele>314.795611</ele>
        <time>2025-04-25T07:11:08.000Z</time>
      </trkpt>
      <trkpt lat="43.37318" lon="6.08994">
        <ele>314.795611</ele>
        <time>2025-04-25T07:11:08.000Z</time>
      </trkpt>
      <trkpt lat="43.37323" lon="6.08994">
        <ele>314.842627</ele>
        <time>2025-04-25T07:11:09.000Z</time>
      </trkpt>
      <trkpt lat="43.37323" lon="6.08994">
        <ele>314.842627</ele>
        <time>2025-04-25T07:11:09.000Z</time>
      </trkpt>
      <trkpt lat="43.37328" lon="6.08994">
        <ele>314.883419</ele>
        <time>2025-04-25T07:11:10.000Z</time>
      </trkpt>
      <trkpt lat="43.37332" lon="6.08994">
        <ele>314.920645</ele>
        <time>2025-04-25T07:11:11.000Z</time>
      </trkpt>
      <trkpt lat="43.37332" lon="6.08994">
        <ele>314.920645</ele>
        <time>2025-04-25T07:11:11.000Z</time>
      </trkpt>
      <trkpt lat="43.37337" lon="6.08994">
        <ele>314.964195</ele>
        <time>2025-04-25T07:11:12.000Z</time>
      </trkpt>
      <trkpt lat="43.37341" lon="6.08993">
        <ele>315.001561</ele>
        <time>2025-04-25T07:11:13.000Z</time>
      </trkpt>
      <trkpt lat="43.37345" lon="6.08992">
        <ele>315.03906</ele>
        <time>2025-04-25T07:11:14.000Z</time>
      </trkpt>
      <trkpt lat="43.37349" lon="6.08992">
        <ele>315.076558</ele>
        <time>2025-04-25T07:11:15.000Z</time>
      </trkpt>
      <trkpt lat="43.37353" lon="6.08991">
        <ele>315.108005</ele>
        <time>2025-04-25T07:11:16.000Z</time>
      </trkpt>
      <trkpt lat="43.37356" lon="6.08989">
        <ele>315.139855</ele>
        <time>2025-04-25T07:11:17.000Z</time>
      </trkpt>
      <trkpt lat="43.37356" lon="6.08989">
        <ele>315.139855</ele>
        <time>2025-04-25T07:11:17.000Z</time>
      </trkpt>
      <trkpt lat="43.37358" lon="6.08988">
        <ele>315.155569</ele>
        <time>2025-04-25T07:11:18.000Z</time>
      </trkpt>
      <trkpt lat="43.37359" lon="6.08986">
        <ele>315.170844</ele>
        <time>2025-04-25T07:11:19.000Z</time>
      </trkpt>
      <trkpt lat="43.37359" lon="6.08986">
        <ele>315.170844</ele>
        <time>2025-04-25T07:11:19.000Z</time>
      </trkpt>
      <trkpt lat="43.37357" lon="6.08984">
        <ele>315.185215</ele>
        <time>2025-04-25T07:11:20.000Z</time>
      </trkpt>
      <trkpt lat="43.37355" lon="6.08984">
        <ele>315.208484</ele>
        <time>2025-04-25T07:11:21.000Z</time>
      </trkpt>
      <trkpt lat="43.37355" lon="6.08984">
        <ele>315.208484</ele>
        <time>2025-04-25T07:11:21.000Z</time>
      </trkpt>
      <trkpt lat="43.37351" lon="6.08984">
        <ele>315.243057</ele>
        <time>2025-04-25T07:11:22.000Z</time>
      </trkpt>
      <trkpt lat="43.37351" lon="6.08984">
        <ele>315.243057</ele>
        <time>2025-04-25T07:11:22.000Z</time>
      </trkpt>
      <trkpt lat="43.37346" lon="6.08985">
        <ele>315.283129</ele>
        <time>2025-04-25T07:11:23.000Z</time>
      </trkpt>
      <trkpt lat="43.37341" lon="6.08985">
        <ele>315.327745</ele>
        <time>2025-04-25T07:11:24.000Z</time>
      </trkpt>
      <trkpt lat="43.37341" lon="6.08985">
        <ele>315.327745</ele>
        <time>2025-04-25T07:11:24.000Z</time>
      </trkpt>
      <trkpt lat="43.37335" lon="6.08986">
        <ele>315.382122</ele>
        <time>2025-04-25T07:11:25.000Z</time>
      </trkpt>
      <trkpt lat="43.3733" lon="6.08987">
        <ele>315.426556</ele>
        <time>2025-04-25T07:11:26.000Z</time>
      </trkpt>
      <trkpt lat="43.37325" lon="6.08987">
        <ele>315.477143</ele>
        <time>2025-04-25T07:11:27.000Z</time>
      </trkpt>
      <trkpt lat="43.37319" lon="6.08987">
        <ele>315.52412</ele>
        <time>2025-04-25T07:11:28.000Z</time>
      </trkpt>
      <trkpt lat="43.37319" lon="6.08987">
        <ele>315.52412</ele>
        <time>2025-04-25T07:11:28.000Z</time>
      </trkpt>
      <trkpt lat="43.37312" lon="6.08987">
        <ele>315.585291</ele>
        <time>2025-04-25T07:11:29.000Z</time>
      </trkpt>
      <trkpt lat="43.37312" lon="6.08987">
        <ele>315.585291</ele>
        <time>2025-04-25T07:11:29.000Z</time>
      </trkpt>
      <trkpt lat="43.37307" lon="6.08987">
        <ele>315.635878</ele>
        <time>2025-04-25T07:11:29.000Z</time>
      </trkpt>
      <trkpt lat="43.37301" lon="6.08986">
        <ele>315.682964</ele>
        <time>2025-04-25T07:11:31.000Z</time>
      </trkpt>
      <trkpt lat="43.37296" lon="6.08986">
        <ele>315.734388</ele>
        <time>2025-04-25T07:11:32.000Z</time>
      </trkpt>
      <trkpt lat="43.37296" lon="6.08986">
        <ele>315.734388</ele>
        <time>2025-04-25T07:11:32.000Z</time>
      </trkpt>
      <trkpt lat="43.37291" lon="6.08986">
        <ele>315.774321</ele>
        <time>2025-04-25T07:11:33.000Z</time>
      </trkpt>
      <trkpt lat="43.37286" lon="6.08985">
        <ele>315.822188</ele>
        <time>2025-04-25T07:11:34.000Z</time>
      </trkpt>
      <trkpt lat="43.37286" lon="6.08985">
        <ele>315.822188</ele>
        <time>2025-04-25T07:11:34.000Z</time>
      </trkpt>
      <trkpt lat="43.37275" lon="6.08985">
        <ele>315.917081</ele>
        <time>2025-04-25T07:11:36.000Z</time>
      </trkpt>
      <trkpt lat="43.37275" lon="6.08985">
        <ele>315.917081</ele>
        <time>2025-04-25T07:11:36.000Z</time>
      </trkpt>
      <trkpt lat="43.3727" lon="6.08985">
        <ele>315.960531</ele>
        <time>2025-04-25T07:11:37.000Z</time>
      </trkpt>
      <trkpt lat="43.37265" lon="6.08984">
        <ele>315.984489</ele>
        <time>2025-04-25T07:11:37.000Z</time>
      </trkpt>
      <trkpt lat="43.37265" lon="6.08984">
        <ele>315.984489</ele>
        <time>2025-04-25T07:11:37.000Z</time>
      </trkpt>
      <trkpt lat="43.37259" lon="6.08984">
        <ele>315.964559</ele>
        <time>2025-04-25T07:11:38.000Z</time>
      </trkpt>
      <trkpt lat="43.37254" lon="6.08984">
        <ele>315.948552</ele>
        <time>2025-04-25T07:11:39.000Z</time>
      </trkpt>
      <trkpt lat="43.37248" lon="6.08984">
        <ele>315.929622</ele>
        <time>2025-04-25T07:11:41.000Z</time>
      </trkpt>
      <trkpt lat="43.37243" lon="6.08984">
        <ele>315.912323</ele>
        <time>2025-04-25T07:11:42.000Z</time>
      </trkpt>
      <trkpt lat="43.37237" lon="6.08983">
        <ele>315.89502</ele>
        <time>2025-04-25T07:11:43.000Z</time>
      </trkpt>
      <trkpt lat="43.37232" lon="6.08983">
        <ele>315.877397</ele>
        <time>2025-04-25T07:11:44.000Z</time>
      </trkpt>
      <trkpt lat="43.37232" lon="6.08983">
        <ele>315.877397</ele>
        <time>2025-04-25T07:11:44.000Z</time>
      </trkpt>
      <trkpt lat="43.37226" lon="6.08983">
        <ele>315.857488</ele>
        <time>2025-04-25T07:11:45.000Z</time>
      </trkpt>
      <trkpt lat="43.3722" lon="6.08983">
        <ele>315.838872</ele>
        <time>2025-04-25T07:11:45.000Z</time>
      </trkpt>
      <trkpt lat="43.37214" lon="6.08982">
        <ele>315.818929</ele>
        <time>2025-04-25T07:11:47.000Z</time>
      </trkpt>
      <trkpt lat="43.37208" lon="6.08982">
        <ele>315.79902</ele>
        <time>2025-04-25T07:11:48.000Z</time>
      </trkpt>
      <trkpt lat="43.37202" lon="6.08983">
        <ele>315.779089</ele>
        <time>2025-04-25T07:11:48.000Z</time>
      </trkpt>
      <trkpt lat="43.37195" lon="6.08983">
        <ele>315.756526</ele>
        <time>2025-04-25T07:11:49.000Z</time>
      </trkpt>
      <trkpt lat="43.37195" lon="6.08983">
        <ele>315.756526</ele>
        <time>2025-04-25T07:11:49.000Z</time>
      </trkpt>
      <trkpt lat="43.37188" lon="6.08984">
        <ele>315.73528</ele>
        <time>2025-04-25T07:11:51.000Z</time>
      </trkpt>
      <trkpt lat="43.37182" lon="6.08984">
        <ele>315.715337</ele>
        <time>2025-04-25T07:11:52.000Z</time>
      </trkpt>
      <trkpt lat="43.37178" lon="6.08985">
        <ele>315.700633</ele>
        <time>2025-04-25T07:11:53.000Z</time>
      </trkpt>
      <trkpt lat="43.37178" lon="6.08985">
        <ele>315.700633</ele>
        <time>2025-04-25T07:11:53.000Z</time>
      </trkpt>
      <trkpt lat="43.37174" lon="6.08985">
        <ele>315.686908</ele>
        <time>2025-04-25T07:11:54.000Z</time>
      </trkpt>
      <trkpt lat="43.37168" lon="6.08985">
        <ele>315.667966</ele>
        <time>2025-04-25T07:11:55.000Z</time>
      </trkpt>
      <trkpt lat="43.37162" lon="6.08986">
        <ele>315.649326</ele>
        <time>2025-04-25T07:11:56.000Z</time>
      </trkpt>
      <trkpt lat="43.37156" lon="6.08986">
        <ele>315.63071</ele>
        <time>2025-04-25T07:11:57.000Z</time>
      </trkpt>
      <trkpt lat="43.3715" lon="6.08986">
        <ele>315.609485</ele>
        <time>2025-04-25T07:11:58.000Z</time>
      </trkpt>
      <trkpt lat="43.37143" lon="6.08987">
        <ele>315.58826</ele>
        <time>2025-04-25T07:11:59.000Z</time>
      </trkpt>
      <trkpt lat="43.37137" lon="6.08987">
        <ele>315.56834</ele>
        <time>2025-04-25T07:12:00.000Z</time>
      </trkpt>
      <trkpt lat="43.3713" lon="6.08988">
        <ele>315.546102</ele>
        <time>2025-04-25T07:12:01.000Z</time>
      </trkpt>
      <trkpt lat="43.3713" lon="6.08988">
        <ele>315.546102</ele>
        <time>2025-04-25T07:12:01.000Z</time>
      </trkpt>
      <trkpt lat="43.37124" lon="6.08988">
        <ele>315.524841</ele>
        <time>2025-04-25T07:12:02.000Z</time>
      </trkpt>
      <trkpt lat="43.37117" lon="6.08989">
        <ele>315.503543</ele>
        <time>2025-04-25T07:12:03.000Z</time>
      </trkpt>
      <trkpt lat="43.37111" lon="6.0899">
        <ele>315.483521</ele>
        <time>2025-04-25T07:12:04.000Z</time>
      </trkpt>
      <trkpt lat="43.37104" lon="6.08991">
        <ele>315.460878</ele>
        <time>2025-04-25T07:12:05.000Z</time>
      </trkpt>
      <trkpt lat="43.37104" lon="6.08991">
        <ele>315.460878</ele>
        <time>2025-04-25T07:12:05.000Z</time>
      </trkpt>
      <trkpt lat="43.37098" lon="6.08992">
        <ele>315.44083</ele>
        <time>2025-04-25T07:12:06.000Z</time>
      </trkpt>
      <trkpt lat="43.37092" lon="6.08993">
        <ele>315.420781</ele>
        <time>2025-04-25T07:12:07.000Z</time>
      </trkpt>
      <trkpt lat="43.37088" lon="6.08993">
        <ele>315.407001</ele>
        <time>2025-04-25T07:12:08.000Z</time>
      </trkpt>
      <trkpt lat="43.37083" lon="6.08995">
        <ele>315.359153</ele>
        <time>2025-04-25T07:12:09.000Z</time>
      </trkpt>
      <trkpt lat="43.37077" lon="6.08996">
        <ele>315.299738</ele>
        <time>2025-04-25T07:12:10.000Z</time>
      </trkpt>
      <trkpt lat="43.37071" lon="6.08997">
        <ele>315.234092</ele>
        <time>2025-04-25T07:12:11.000Z</time>
      </trkpt>
      <trkpt lat="43.37065" lon="6.08999">
        <ele>315.174441</ele>
        <time>2025-04-25T07:12:12.000Z</time>
      </trkpt>
      <trkpt lat="43.37057" lon="6.09">
        <ele>315.096192</ele>
        <time>2025-04-25T07:12:13.000Z</time>
      </trkpt>
      <trkpt lat="43.37051" lon="6.09002">
        <ele>315.033286</ele>
        <time>2025-04-25T07:12:13.000Z</time>
      </trkpt>
      <trkpt lat="43.37045" lon="6.09004">
        <ele>314.974204</ele>
        <time>2025-04-25T07:12:15.000Z</time>
      </trkpt>
      <trkpt lat="43.37045" lon="6.09004">
        <ele>314.974204</ele>
        <time>2025-04-25T07:12:15.000Z</time>
      </trkpt>
      <trkpt lat="43.37039" lon="6.09006">
        <ele>314.911006</ele>
        <time>2025-04-25T07:12:16.000Z</time>
      </trkpt>
      <trkpt lat="43.37033" lon="6.09007">
        <ele>314.847808</ele>
        <time>2025-04-25T07:12:17.000Z</time>
      </trkpt>
      <trkpt lat="43.37026" lon="6.0901">
        <ele>314.776058</ele>
        <time>2025-04-25T07:12:18.000Z</time>
      </trkpt>
      <trkpt lat="43.3702" lon="6.09012">
        <ele>314.712535</ele>
        <time>2025-04-25T07:12:19.000Z</time>
      </trkpt>
      <trkpt lat="43.37016" lon="6.09013">
        <ele>314.664964</ele>
        <time>2025-04-25T07:12:20.000Z</time>
      </trkpt>
      <trkpt lat="43.37009" lon="6.09015">
        <ele>314.593849</ele>
        <time>2025-04-25T07:12:21.000Z</time>
      </trkpt>
      <trkpt lat="43.37009" lon="6.09015">
        <ele>314.593849</ele>
        <time>2025-04-25T07:12:21.000Z</time>
      </trkpt>
      <trkpt lat="43.37003" lon="6.09018">
        <ele>314.529777</ele>
        <time>2025-04-25T07:12:22.000Z</time>
      </trkpt>
      <trkpt lat="43.36996" lon="6.0902">
        <ele>314.457681</ele>
        <time>2025-04-25T07:12:23.000Z</time>
      </trkpt>
      <trkpt lat="43.36989" lon="6.09023">
        <ele>314.38521</ele>
        <time>2025-04-25T07:12:24.000Z</time>
      </trkpt>
      <trkpt lat="43.36983" lon="6.09025">
        <ele>314.324825</ele>
        <time>2025-04-25T07:12:25.000Z</time>
      </trkpt>
      <trkpt lat="43.36983" lon="6.09025">
        <ele>314.324825</ele>
        <time>2025-04-25T07:12:25.000Z</time>
      </trkpt>
      <trkpt lat="43.36976" lon="6.09028">
        <ele>314.244312</ele>
        <time>2025-04-25T07:12:26.000Z</time>
      </trkpt>
      <trkpt lat="43.36969" lon="6.09031">
        <ele>314.175942</ele>
        <time>2025-04-25T07:12:27.000Z</time>
      </trkpt>
      <trkpt lat="43.36963" lon="6.09033">
        <ele>314.11511</ele>
        <time>2025-04-25T07:12:28.000Z</time>
      </trkpt>
      <trkpt lat="43.36963" lon="6.09033">
        <ele>314.11511</ele>
        <time>2025-04-25T07:12:28.000Z</time>
      </trkpt>
      <trkpt lat="43.36957" lon="6.09036">
        <ele>314.050839</ele>
        <time>2025-04-25T07:12:29.000Z</time>
      </trkpt>
      <trkpt lat="43.36957" lon="6.09036">
        <ele>314.050839</ele>
        <time>2025-04-25T07:12:29.000Z</time>
      </trkpt>
      <trkpt lat="43.36951" lon="6.09038">
        <ele>313.985927</ele>
        <time>2025-04-25T07:12:30.000Z</time>
      </trkpt>
      <trkpt lat="43.36947" lon="6.09041">
        <ele>313.940401</ele>
        <time>2025-04-25T07:12:31.000Z</time>
      </trkpt>
      <trkpt lat="43.36947" lon="6.09041">
        <ele>313.940401</ele>
        <time>2025-04-25T07:12:31.000Z</time>
      </trkpt>
      <trkpt lat="43.36943" lon="6.09044">
        <ele>313.894075</ele>
        <time>2025-04-25T07:12:32.000Z</time>
      </trkpt>
      <trkpt lat="43.36943" lon="6.09044">
        <ele>313.894075</ele>
        <time>2025-04-25T07:12:32.000Z</time>
      </trkpt>
      <trkpt lat="43.3694" lon="6.09048">
        <ele>313.856494</ele>
        <time>2025-04-25T07:12:33.000Z</time>
      </trkpt>
      <trkpt lat="43.3694" lon="6.09048">
        <ele>313.856494</ele>
        <time>2025-04-25T07:12:33.000Z</time>
      </trkpt>
      <trkpt lat="43.36939" lon="6.0905">
        <ele>313.830881</ele>
        <time>2025-04-25T07:12:34.000Z</time>
      </trkpt>
      <trkpt lat="43.36939" lon="6.0905">
        <ele>313.830881</ele>
        <time>2025-04-25T07:12:34.000Z</time>
      </trkpt>
      <trkpt lat="43.36939" lon="6.09054">
        <ele>313.806971</ele>
        <time>2025-04-25T07:12:35.000Z</time>
      </trkpt>
      <trkpt lat="43.36939" lon="6.09054">
        <ele>313.806971</ele>
        <time>2025-04-25T07:12:35.000Z</time>
      </trkpt>
      <trkpt lat="43.36939" lon="6.09057">
        <ele>313.777968</ele>
        <time>2025-04-25T07:12:36.000Z</time>
      </trkpt>
      <trkpt lat="43.36939" lon="6.09057">
        <ele>313.777968</ele>
        <time>2025-04-25T07:12:36.000Z</time>
      </trkpt>
      <trkpt lat="43.3694" lon="6.0906">
        <ele>313.752355</ele>
        <time>2025-04-25T07:12:37.000Z</time>
      </trkpt>
      <trkpt lat="43.36942" lon="6.09063">
        <ele>313.723055</ele>
        <time>2025-04-25T07:12:38.000Z</time>
      </trkpt>
      <trkpt lat="43.36942" lon="6.09063">
        <ele>313.723055</ele>
        <time>2025-04-25T07:12:38.000Z</time>
      </trkpt>
      <trkpt lat="43.36946" lon="6.09066">
        <ele>313.677921</ele>
        <time>2025-04-25T07:12:39.000Z</time>
      </trkpt>
      <trkpt lat="43.3695" lon="6.09069">
        <ele>313.636437</ele>
        <time>2025-04-25T07:12:39.000Z</time>
      </trkpt>
      <trkpt lat="43.36954" lon="6.0907">
        <ele>313.596771</ele>
        <time>2025-04-25T07:12:41.000Z</time>
      </trkpt>
      <trkpt lat="43.36954" lon="6.0907">
        <ele>313.596771</ele>
        <time>2025-04-25T07:12:41.000Z</time>
      </trkpt>
      <trkpt lat="43.36958" lon="6.09071">
        <ele>313.554341</ele>
        <time>2025-04-25T07:12:42.000Z</time>
      </trkpt>
      <trkpt lat="43.36962" lon="6.09074">
        <ele>313.499068</ele>
        <time>2025-04-25T07:12:43.000Z</time>
      </trkpt>
      <trkpt lat="43.36966" lon="6.09077">
        <ele>313.449697</ele>
        <time>2025-04-25T07:12:44.000Z</time>
      </trkpt>
      <trkpt lat="43.36969" lon="6.09081">
        <ele>313.39616</ele>
        <time>2025-04-25T07:12:45.000Z</time>
      </trkpt>
      <trkpt lat="43.36973" lon="6.09088">
        <ele>313.332418</ele>
        <time>2025-04-25T07:12:46.000Z</time>
      </trkpt>
      <trkpt lat="43.36976" lon="6.09093">
        <ele>313.278504</ele>
        <time>2025-04-25T07:12:47.000Z</time>
      </trkpt>
      <trkpt lat="43.36978" lon="6.09099">
        <ele>313.22459</ele>
        <time>2025-04-25T07:12:48.000Z</time>
      </trkpt>
      <trkpt lat="43.36978" lon="6.09099">
        <ele>313.22459</ele>
        <time>2025-04-25T07:12:48.000Z</time>
      </trkpt>
      <trkpt lat="43.36981" lon="6.09104">
        <ele>313.171294</ele>
        <time>2025-04-25T07:12:49.000Z</time>
      </trkpt>
      <trkpt lat="43.36984" lon="6.09109">
        <ele>313.12199</ele>
        <time>2025-04-25T07:12:50.000Z</time>
      </trkpt>
      <trkpt lat="43.36986" lon="6.09113">
        <ele>313.074607</ele>
        <time>2025-04-25T07:12:51.000Z</time>
      </trkpt>
      <trkpt lat="43.36988" lon="6.09119">
        <ele>313.021461</ele>
        <time>2025-04-25T07:12:52.000Z</time>
      </trkpt>
      <trkpt lat="43.36988" lon="6.09119">
        <ele>313.021461</ele>
        <time>2025-04-25T07:12:52.000Z</time>
      </trkpt>
      <trkpt lat="43.3699" lon="6.09124">
        <ele>312.97559</ele>
        <time>2025-04-25T07:12:53.000Z</time>
      </trkpt>
      <trkpt lat="43.36992" lon="6.0913">
        <ele>312.930142</ele>
        <time>2025-04-25T07:12:53.000Z</time>
      </trkpt>
      <trkpt lat="43.36993" lon="6.09134">
        <ele>312.890803</ele>
        <time>2025-04-25T07:12:55.000Z</time>
      </trkpt>
      <trkpt lat="43.36993" lon="6.09139">
        <ele>312.850006</ele>
        <time>2025-04-25T07:12:56.000Z</time>
      </trkpt>
      <trkpt lat="43.36993" lon="6.09144">
        <ele>312.812371</ele>
        <time>2025-04-25T07:12:57.000Z</time>
      </trkpt>
      <trkpt lat="43.36993" lon="6.09144">
        <ele>312.812371</ele>
        <time>2025-04-25T07:12:57.000Z</time>
      </trkpt>
      <trkpt lat="43.36993" lon="6.09149">
        <ele>312.7707</ele>
        <time>2025-04-25T07:12:58.000Z</time>
      </trkpt>
      <trkpt lat="43.36993" lon="6.09154">
        <ele>312.731706</ele>
        <time>2025-04-25T07:12:59.000Z</time>
      </trkpt>
      <trkpt lat="43.36993" lon="6.09161">
        <ele>312.672404</ele>
        <time>2025-04-25T07:13:00.000Z</time>
      </trkpt>
      <trkpt lat="43.36993" lon="6.09168">
        <ele>312.616444</ele>
        <time>2025-04-25T07:13:01.000Z</time>
      </trkpt>
      <trkpt lat="43.36996" lon="6.09173">
        <ele>312.567688</ele>
        <time>2025-04-25T07:13:02.000Z</time>
      </trkpt>
      <trkpt lat="43.36998" lon="6.09179">
        <ele>312.508961</ele>
        <time>2025-04-25T07:13:03.000Z</time>
      </trkpt>
      <trkpt lat="43.36999" lon="6.09187">
        <ele>312.446806</ele>
        <time>2025-04-25T07:13:04.000Z</time>
      </trkpt>
      <trkpt lat="43.36999" lon="6.09187">
        <ele>312.446806</ele>
        <time>2025-04-25T07:13:04.000Z</time>
      </trkpt>
      <trkpt lat="43.37" lon="6.09195">
        <ele>312.383618</ele>
        <time>2025-04-25T07:13:05.000Z</time>
      </trkpt>
      <trkpt lat="43.37001" lon="6.09203">
        <ele>312.313351</ele>
        <time>2025-04-25T07:13:06.000Z</time>
      </trkpt>
      <trkpt lat="43.37003" lon="6.09211">
        <ele>312.248583</ele>
        <time>2025-04-25T07:13:07.000Z</time>
      </trkpt>
      <trkpt lat="43.37004" lon="6.09218">
        <ele>312.186428</ele>
        <time>2025-04-25T07:13:07.000Z</time>
      </trkpt>
      <trkpt lat="43.37005" lon="6.09226">
        <ele>312.12268</ele>
        <time>2025-04-25T07:13:08.000Z</time>
      </trkpt>
      <trkpt lat="43.37005" lon="6.09233">
        <ele>312.065002</ele>
        <time>2025-04-25T07:13:10.000Z</time>
      </trkpt>
      <trkpt lat="43.37005" lon="6.0924">
        <ele>312.008771</ele>
        <time>2025-04-25T07:13:10.000Z</time>
      </trkpt>
      <trkpt lat="43.37006" lon="6.09247">
        <ele>311.95173</ele>
        <time>2025-04-25T07:13:12.000Z</time>
      </trkpt>
      <trkpt lat="43.37007" lon="6.09254">
        <ele>311.892514</ele>
        <time>2025-04-25T07:13:13.000Z</time>
      </trkpt>
      <trkpt lat="43.37007" lon="6.09262">
        <ele>311.831495</ele>
        <time>2025-04-25T07:13:14.000Z</time>
      </trkpt>
      <trkpt lat="43.37007" lon="6.09262">
        <ele>311.831495</ele>
        <time>2025-04-25T07:13:14.000Z</time>
      </trkpt>
      <trkpt lat="43.37007" lon="6.09267">
        <ele>311.784377</ele>
        <time>2025-04-25T07:13:15.000Z</time>
      </trkpt>
      <trkpt lat="43.37008" lon="6.09273">
        <ele>311.735431</ele>
        <time>2025-04-25T07:13:16.000Z</time>
      </trkpt>
      <trkpt lat="43.37008" lon="6.09273">
        <ele>311.735431</ele>
        <time>2025-04-25T07:13:16.000Z</time>
      </trkpt>
      <trkpt lat="43.37008" lon="6.0928">
        <ele>311.684867</ele>
        <time>2025-04-25T07:13:17.000Z</time>
      </trkpt>
      <trkpt lat="43.37008" lon="6.09287">
        <ele>311.623776</ele>
        <time>2025-04-25T07:13:17.000Z</time>
      </trkpt>
      <trkpt lat="43.37008" lon="6.09296">
        <ele>311.539572</ele>
        <time>2025-04-25T07:13:18.000Z</time>
      </trkpt>
      <trkpt lat="43.37008" lon="6.09296">
        <ele>311.539572</ele>
        <time>2025-04-25T07:13:18.000Z</time>
      </trkpt>
      <trkpt lat="43.37008" lon="6.09303">
        <ele>311.421533</ele>
        <time>2025-04-25T07:13:20.000Z</time>
      </trkpt>
      <trkpt lat="43.37008" lon="6.09312">
        <ele>311.288238</ele>
        <time>2025-04-25T07:13:21.000Z</time>
      </trkpt>
      <trkpt lat="43.37008" lon="6.09312">
        <ele>311.288238</ele>
        <time>2025-04-25T07:13:21.000Z</time>
      </trkpt>
      <trkpt lat="43.37007" lon="6.09321">
        <ele>311.142232</ele>
        <time>2025-04-25T07:13:22.000Z</time>
      </trkpt>
      <trkpt lat="43.37006" lon="6.0933">
        <ele>311.005885</ele>
        <time>2025-04-25T07:13:23.000Z</time>
      </trkpt>
      <trkpt lat="43.37006" lon="6.09339">
        <ele>310.880501</ele>
        <time>2025-04-25T07:13:24.000Z</time>
      </trkpt>
      <trkpt lat="43.37006" lon="6.09339">
        <ele>310.880501</ele>
        <time>2025-04-25T07:13:24.000Z</time>
      </trkpt>
      <trkpt lat="43.37006" lon="6.09348">
        <ele>310.736768</ele>
        <time>2025-04-25T07:13:25.000Z</time>
      </trkpt>
      <trkpt lat="43.37007" lon="6.09357">
        <ele>310.601947</ele>
        <time>2025-04-25T07:13:26.000Z</time>
      </trkpt>
      <trkpt lat="43.37007" lon="6.09357">
        <ele>310.601947</ele>
        <time>2025-04-25T07:13:26.000Z</time>
      </trkpt>
      <trkpt lat="43.37008" lon="6.09365">
        <ele>310.468201</ele>
        <time>2025-04-25T07:13:27.000Z</time>
      </trkpt>
      <trkpt lat="43.3701" lon="6.09374">
        <ele>310.332968</ele>
        <time>2025-04-25T07:13:28.000Z</time>
      </trkpt>
      <trkpt lat="43.3701" lon="6.09374">
        <ele>310.332968</ele>
        <time>2025-04-25T07:13:28.000Z</time>
      </trkpt>
      <trkpt lat="43.37011" lon="6.09382">
        <ele>310.200708</ele>
        <time>2025-04-25T07:13:29.000Z</time>
      </trkpt>
      <trkpt lat="43.37011" lon="6.09382">
        <ele>310.200708</ele>
        <time>2025-04-25T07:13:29.000Z</time>
      </trkpt>
      <trkpt lat="43.37013" lon="6.09391">
        <ele>310.069809</ele>
        <time>2025-04-25T07:13:29.000Z</time>
      </trkpt>
      <trkpt lat="43.37013" lon="6.09391">
        <ele>310.069809</ele>
        <time>2025-04-25T07:13:29.000Z</time>
      </trkpt>
      <trkpt lat="43.37014" lon="6.09398">
        <ele>309.954316</ele>
        <time>2025-04-25T07:13:31.000Z</time>
      </trkpt>
      <trkpt lat="43.37014" lon="6.09398">
        <ele>309.954316</ele>
        <time>2025-04-25T07:13:31.000Z</time>
      </trkpt>
      <trkpt lat="43.37016" lon="6.09408">
        <ele>309.800706</ele>
        <time>2025-04-25T07:13:32.000Z</time>
      </trkpt>
      <trkpt lat="43.37016" lon="6.09408">
        <ele>309.800706</ele>
        <time>2025-04-25T07:13:32.000Z</time>
      </trkpt>
      <trkpt lat="43.37016" lon="6.09417">
        <ele>309.6651</ele>
        <time>2025-04-25T07:13:32.000Z</time>
      </trkpt>
      <trkpt lat="43.37016" lon="6.09417">
        <ele>309.6651</ele>
        <time>2025-04-25T07:13:32.000Z</time>
      </trkpt>
      <trkpt lat="43.37017" lon="6.09433">
        <ele>309.411135</ele>
        <time>2025-04-25T07:13:35.000Z</time>
      </trkpt>
      <trkpt lat="43.37017" lon="6.09433">
        <ele>309.411135</ele>
        <time>2025-04-25T07:13:35.000Z</time>
      </trkpt>
      <trkpt lat="43.37016" lon="6.09439">
        <ele>309.328138</ele>
        <time>2025-04-25T07:13:35.000Z</time>
      </trkpt>
      <trkpt lat="43.37017" lon="6.09445">
        <ele>309.222297</ele>
        <time>2025-04-25T07:13:37.000Z</time>
      </trkpt>
      <trkpt lat="43.37017" lon="6.09445">
        <ele>309.222297</ele>
        <time>2025-04-25T07:13:37.000Z</time>
      </trkpt>
      <trkpt lat="43.37017" lon="6.09452">
        <ele>309.12031</ele>
        <time>2025-04-25T07:13:38.000Z</time>
      </trkpt>
      <trkpt lat="43.37017" lon="6.09452">
        <ele>309.12031</ele>
        <time>2025-04-25T07:13:38.000Z</time>
      </trkpt>
      <trkpt lat="43.37019" lon="6.09459">
        <ele>309.005188</ele>
        <time>2025-04-25T07:13:38.000Z</time>
      </trkpt>
      <trkpt lat="43.37019" lon="6.09459">
        <ele>309.005188</ele>
        <time>2025-04-25T07:13:38.000Z</time>
      </trkpt>
      <trkpt lat="43.37021" lon="6.09465">
        <ele>308.903713</ele>
        <time>2025-04-25T07:13:40.000Z</time>
      </trkpt>
      <trkpt lat="43.37023" lon="6.09472">
        <ele>308.800831</ele>
        <time>2025-04-25T07:13:40.000Z</time>
      </trkpt>
      <trkpt lat="43.37023" lon="6.09472">
        <ele>308.800831</ele>
        <time>2025-04-25T07:13:40.000Z</time>
      </trkpt>
      <trkpt lat="43.37024" lon="6.09478">
        <ele>308.707913</ele>
        <time>2025-04-25T07:13:42.000Z</time>
      </trkpt>
      <trkpt lat="43.37024" lon="6.09478">
        <ele>308.707913</ele>
        <time>2025-04-25T07:13:42.000Z</time>
      </trkpt>
      <trkpt lat="43.37024" lon="6.09484">
        <ele>308.604092</ele>
        <time>2025-04-25T07:13:43.000Z</time>
      </trkpt>
      <trkpt lat="43.37024" lon="6.09484">
        <ele>308.604092</ele>
        <time>2025-04-25T07:13:43.000Z</time>
      </trkpt>
      <trkpt lat="43.37025" lon="6.09491">
        <ele>308.499776</ele>
        <time>2025-04-25T07:13:43.000Z</time>
      </trkpt>
      <trkpt lat="43.37025" lon="6.09499">
        <ele>308.384787</ele>
        <time>2025-04-25T07:13:45.000Z</time>
      </trkpt>
      <trkpt lat="43.37025" lon="6.09505">
        <ele>308.283869</ele>
        <time>2025-04-25T07:13:46.000Z</time>
      </trkpt>
      <trkpt lat="43.37026" lon="6.09512">
        <ele>308.176504</ele>
        <time>2025-04-25T07:13:46.000Z</time>
      </trkpt>
      <trkpt lat="43.37026" lon="6.09512">
        <ele>308.176504</ele>
        <time>2025-04-25T07:13:46.000Z</time>
      </trkpt>
      <trkpt lat="43.37026" lon="6.09519">
        <ele>308.065431</ele>
        <time>2025-04-25T07:13:48.000Z</time>
      </trkpt>
      <trkpt lat="43.37026" lon="6.09527">
        <ele>307.944635</ele>
        <time>2025-04-25T07:13:49.000Z</time>
      </trkpt>
      <trkpt lat="43.37027" lon="6.09536">
        <ele>307.814392</ele>
        <time>2025-04-25T07:13:50.000Z</time>
      </trkpt>
      <trkpt lat="43.37027" lon="6.09544">
        <ele>307.771508</ele>
        <time>2025-04-25T07:13:51.000Z</time>
      </trkpt>
      <trkpt lat="43.37028" lon="6.09552">
        <ele>307.749713</ele>
        <time>2025-04-25T07:13:51.000Z</time>
      </trkpt>
      <trkpt lat="43.37028" lon="6.09552">
        <ele>307.749713</ele>
        <time>2025-04-25T07:13:51.000Z</time>
      </trkpt>
      <trkpt lat="43.37028" lon="6.09561">
        <ele>307.727756</ele>
        <time>2025-04-25T07:13:53.000Z</time>
      </trkpt>
      <trkpt lat="43.37028" lon="6.09569">
        <ele>307.706889</ele>
        <time>2025-04-25T07:13:54.000Z</time>
      </trkpt>
      <trkpt lat="43.37028" lon="6.09569">
        <ele>307.706889</ele>
        <time>2025-04-25T07:13:54.000Z</time>
      </trkpt>
      <trkpt lat="43.37029" lon="6.09577">
        <ele>307.686232</ele>
        <time>2025-04-25T07:13:54.000Z</time>
      </trkpt>
      <trkpt lat="43.3703" lon="6.09584">
        <ele>307.665691</ele>
        <time>2025-04-25T07:13:56.000Z</time>
      </trkpt>
      <trkpt lat="43.3703" lon="6.09591">
        <ele>307.64688</ele>
        <time>2025-04-25T07:13:57.000Z</time>
      </trkpt>
      <trkpt lat="43.37031" lon="6.09599">
        <ele>307.627881</ele>
        <time>2025-04-25T07:13:57.000Z</time>
      </trkpt>
      <trkpt lat="43.37031" lon="6.09599">
        <ele>307.627881</ele>
        <time>2025-04-25T07:13:57.000Z</time>
      </trkpt>
      <trkpt lat="43.37031" lon="6.09606">
        <ele>307.607485</ele>
        <time>2025-04-25T07:13:59.000Z</time>
      </trkpt>
      <trkpt lat="43.37032" lon="6.09614">
        <ele>307.588796</ele>
        <time>2025-04-25T07:14:00.000Z</time>
      </trkpt>
      <trkpt lat="43.37034" lon="6.09618">
        <ele>307.574769</ele>
        <time>2025-04-25T07:14:01.000Z</time>
      </trkpt>
      <trkpt lat="43.37034" lon="6.09618">
        <ele>307.574769</ele>
        <time>2025-04-25T07:14:01.000Z</time>
      </trkpt>
      <trkpt lat="43.37037" lon="6.09623">
        <ele>307.558938</ele>
        <time>2025-04-25T07:14:02.000Z</time>
      </trkpt>
      <trkpt lat="43.3704" lon="6.09628">
        <ele>307.542576</ele>
        <time>2025-04-25T07:14:03.000Z</time>
      </trkpt>
      <trkpt lat="43.37044" lon="6.09633">
        <ele>307.522301</ele>
        <time>2025-04-25T07:14:04.000Z</time>
      </trkpt>
      <trkpt lat="43.37048" lon="6.09637">
        <ele>307.503198</ele>
        <time>2025-04-25T07:14:05.000Z</time>
      </trkpt>
      <trkpt lat="43.37052" lon="6.09642">
        <ele>307.484255</ele>
        <time>2025-04-25T07:14:06.000Z</time>
      </trkpt>
      <trkpt lat="43.37056" lon="6.09644">
        <ele>307.469561</ele>
        <time>2025-04-25T07:14:07.000Z</time>
      </trkpt>
      <trkpt lat="43.3706" lon="6.09645">
        <ele>307.455678</ele>
        <time>2025-04-25T07:14:08.000Z</time>
      </trkpt>
      <trkpt lat="43.37064" lon="6.09646">
        <ele>307.438968</ele>
        <time>2025-04-25T07:14:09.000Z</time>
      </trkpt>
      <trkpt lat="43.37069" lon="6.09647">
        <ele>307.420955</ele>
        <time>2025-04-25T07:14:10.000Z</time>
      </trkpt>
      <trkpt lat="43.37075" lon="6.09651">
        <ele>307.399753</ele>
        <time>2025-04-25T07:14:11.000Z</time>
      </trkpt>
      <trkpt lat="43.37079" lon="6.09655">
        <ele>307.382262</ele>
        <time>2025-04-25T07:14:12.000Z</time>
      </trkpt>
      <trkpt lat="43.37079" lon="6.09655">
        <ele>307.382262</ele>
        <time>2025-04-25T07:14:12.000Z</time>
      </trkpt>
      <trkpt lat="43.37082" lon="6.09659">
        <ele>307.364606</ele>
        <time>2025-04-25T07:14:13.000Z</time>
      </trkpt>
      <trkpt lat="43.37086" lon="6.09663">
        <ele>307.348197</ele>
        <time>2025-04-25T07:14:14.000Z</time>
      </trkpt>
      <trkpt lat="43.3709" lon="6.09666">
        <ele>307.332604</ele>
        <time>2025-04-25T07:14:15.000Z</time>
      </trkpt>
      <trkpt lat="43.37094" lon="6.09669">
        <ele>307.315623</ele>
        <time>2025-04-25T07:14:16.000Z</time>
      </trkpt>
      <trkpt lat="43.37099" lon="6.09672">
        <ele>307.297243</ele>
        <time>2025-04-25T07:14:17.000Z</time>
      </trkpt>
      <trkpt lat="43.37103" lon="6.09675">
        <ele>307.280834</ele>
        <time>2025-04-25T07:14:18.000Z</time>
      </trkpt>
      <trkpt lat="43.37107" lon="6.0968">
        <ele>307.26157</ele>
        <time>2025-04-25T07:14:18.000Z</time>
      </trkpt>
      <trkpt lat="43.37111" lon="6.09683">
        <ele>307.244865</ele>
        <time>2025-04-25T07:14:20.000Z</time>
      </trkpt>
      <trkpt lat="43.37115" lon="6.09687">
        <ele>307.226127</ele>
        <time>2025-04-25T07:14:21.000Z</time>
      </trkpt>
      <trkpt lat="43.37115" lon="6.09687">
        <ele>307.226127</ele>
        <time>2025-04-25T07:14:21.000Z</time>
      </trkpt>
      <trkpt lat="43.3712" lon="6.09689">
        <ele>307.20838</ele>
        <time>2025-04-25T07:14:22.000Z</time>
      </trkpt>
      <trkpt lat="43.37124" lon="6.09691">
        <ele>307.194264</ele>
        <time>2025-04-25T07:14:23.000Z</time>
      </trkpt>
      <trkpt lat="43.37128" lon="6.09691">
        <ele>307.177725</ele>
        <time>2025-04-25T07:14:24.000Z</time>
      </trkpt>
      <trkpt lat="43.37132" lon="6.09691">
        <ele>307.162646</ele>
        <time>2025-04-25T07:14:25.000Z</time>
      </trkpt>
      <trkpt lat="43.37137" lon="6.09691">
        <ele>307.14649</ele>
        <time>2025-04-25T07:14:26.000Z</time>
      </trkpt>
      <trkpt lat="43.37137" lon="6.09691">
        <ele>307.14649</ele>
        <time>2025-04-25T07:14:26.000Z</time>
      </trkpt>
      <trkpt lat="43.37141" lon="6.09691">
        <ele>307.165156</ele>
        <time>2025-04-25T07:14:26.000Z</time>
      </trkpt>
      <trkpt lat="43.37147" lon="6.09692">
        <ele>307.197819</ele>
        <time>2025-04-25T07:14:28.000Z</time>
      </trkpt>
      <trkpt lat="43.37151" lon="6.09693">
        <ele>307.221814</ele>
        <time>2025-04-25T07:14:29.000Z</time>
      </trkpt>
      <trkpt lat="43.37155" lon="6.09695">
        <ele>307.248103</ele>
        <time>2025-04-25T07:14:30.000Z</time>
      </trkpt>
      <trkpt lat="43.37155" lon="6.09695">
        <ele>307.248103</ele>
        <time>2025-04-25T07:14:30.000Z</time>
      </trkpt>
      <trkpt lat="43.37158" lon="6.09697">
        <ele>307.269681</ele>
        <time>2025-04-25T07:14:30.000Z</time>
      </trkpt>
      <trkpt lat="43.37161" lon="6.09699">
        <ele>307.286503</ele>
        <time>2025-04-25T07:14:32.000Z</time>
      </trkpt>
      <trkpt lat="43.37163" lon="6.09702">
        <ele>307.305838</ele>
        <time>2025-04-25T07:14:33.000Z</time>
      </trkpt>
      <trkpt lat="43.37164" lon="6.09705">
        <ele>307.319348</ele>
        <time>2025-04-25T07:14:34.000Z</time>
      </trkpt>
      <trkpt lat="43.37165" lon="6.09708">
        <ele>307.33578</ele>
        <time>2025-04-25T07:14:35.000Z</time>
      </trkpt>
      <trkpt lat="43.37165" lon="6.09708">
        <ele>307.33578</ele>
        <time>2025-04-25T07:14:35.000Z</time>
      </trkpt>
      <trkpt lat="43.37165" lon="6.09712">
        <ele>307.350814</ele>
        <time>2025-04-25T07:14:36.000Z</time>
      </trkpt>
      <trkpt lat="43.37166" lon="6.09716">
        <ele>307.368439</ele>
        <time>2025-04-25T07:14:37.000Z</time>
      </trkpt>
      <trkpt lat="43.37166" lon="6.09716">
        <ele>307.368439</ele>
        <time>2025-04-25T07:14:37.000Z</time>
      </trkpt>
      <trkpt lat="43.37166" lon="6.0972">
        <ele>307.38686</ele>
        <time>2025-04-25T07:14:38.000Z</time>
      </trkpt>
      <trkpt lat="43.37167" lon="6.09725">
        <ele>307.40943</ele>
        <time>2025-04-25T07:14:39.000Z</time>
      </trkpt>
      <trkpt lat="43.37168" lon="6.0973">
        <ele>307.432514</ele>
        <time>2025-04-25T07:14:40.000Z</time>
      </trkpt>
      <trkpt lat="43.37168" lon="6.0973">
        <ele>307.432514</ele>
        <time>2025-04-25T07:14:40.000Z</time>
      </trkpt>
      <trkpt lat="43.37169" lon="6.09735">
        <ele>307.456142</ele>
        <time>2025-04-25T07:14:41.000Z</time>
      </trkpt>
      <trkpt lat="43.3717" lon="6.09739">
        <ele>307.475218</ele>
        <time>2025-04-25T07:14:41.000Z</time>
      </trkpt>
      <trkpt lat="43.3717" lon="6.09742">
        <ele>307.487141</ele>
        <time>2025-04-25T07:14:43.000Z</time>
      </trkpt>
      <trkpt lat="43.37172" lon="6.09744">
        <ele>307.500307</ele>
        <time>2025-04-25T07:14:44.000Z</time>
      </trkpt>
      <trkpt lat="43.37174" lon="6.09746">
        <ele>307.514943</ele>
        <time>2025-04-25T07:14:45.000Z</time>
      </trkpt>
      <trkpt lat="43.37176" lon="6.09748">
        <ele>307.527885</ele>
        <time>2025-04-25T07:14:46.000Z</time>
      </trkpt>
      <trkpt lat="43.37179" lon="6.09749">
        <ele>307.549773</ele>
        <time>2025-04-25T07:14:47.000Z</time>
      </trkpt>
      <trkpt lat="43.37179" lon="6.09749">
        <ele>307.549773</ele>
        <time>2025-04-25T07:14:47.000Z</time>
      </trkpt>
      <trkpt lat="43.37182" lon="6.09749">
        <ele>307.566079</ele>
        <time>2025-04-25T07:14:48.000Z</time>
      </trkpt>
      <trkpt lat="43.37187" lon="6.0975">
        <ele>307.59571</ele>
        <time>2025-04-25T07:14:49.000Z</time>
      </trkpt>
      <trkpt lat="43.37187" lon="6.0975">
        <ele>307.59571</ele>
        <time>2025-04-25T07:14:49.000Z</time>
      </trkpt>
      <trkpt lat="43.37192" lon="6.09751">
        <ele>307.628323</ele>
        <time>2025-04-25T07:14:50.000Z</time>
      </trkpt>
      <trkpt lat="43.37198" lon="6.09752">
        <ele>307.663018</ele>
        <time>2025-04-25T07:14:51.000Z</time>
      </trkpt>
      <trkpt lat="43.37204" lon="6.09755">
        <ele>307.699511</ele>
        <time>2025-04-25T07:14:52.000Z</time>
      </trkpt>
      <trkpt lat="43.37207" lon="6.09761">
        <ele>307.729546</ele>
        <time>2025-04-25T07:14:53.000Z</time>
      </trkpt>
      <trkpt lat="43.37208" lon="6.09766">
        <ele>307.754372</ele>
        <time>2025-04-25T07:14:54.000Z</time>
      </trkpt>
      <trkpt lat="43.37208" lon="6.09766">
        <ele>307.754372</ele>
        <time>2025-04-25T07:14:54.000Z</time>
      </trkpt>
      <trkpt lat="43.37211" lon="6.09778">
        <ele>307.808964</ele>
        <time>2025-04-25T07:14:55.000Z</time>
      </trkpt>
      <trkpt lat="43.37211" lon="6.09785">
        <ele>307.839807</ele>
        <time>2025-04-25T07:14:56.000Z</time>
      </trkpt>
      <trkpt lat="43.37212" lon="6.09794">
        <ele>307.877422</ele>
        <time>2025-04-25T07:14:57.000Z</time>
      </trkpt>
      <trkpt lat="43.37212" lon="6.09796">
        <ele>307.888771</ele>
        <time>2025-04-25T07:14:58.000Z</time>
      </trkpt>
      <trkpt lat="43.37212" lon="6.09796">
        <ele>307.888771</ele>
        <time>2025-04-25T07:14:58.000Z</time>
      </trkpt>
      <trkpt lat="43.37212" lon="6.09809">
        <ele>307.944258</ele>
        <time>2025-04-25T07:14:59.000Z</time>
      </trkpt>
      <trkpt lat="43.37212" lon="6.09816">
        <ele>307.975777</ele>
        <time>2025-04-25T07:15:00.000Z</time>
      </trkpt>
      <trkpt lat="43.37211" lon="6.09823">
        <ele>308.006707</ele>
        <time>2025-04-25T07:15:01.000Z</time>
      </trkpt>
      <trkpt lat="43.37211" lon="6.0983">
        <ele>308.036008</ele>
        <time>2025-04-25T07:15:02.000Z</time>
      </trkpt>
      <trkpt lat="43.37211" lon="6.0983">
        <ele>308.036008</ele>
        <time>2025-04-25T07:15:02.000Z</time>
      </trkpt>
      <trkpt lat="43.3721" lon="6.09837">
        <ele>308.066938</ele>
        <time>2025-04-25T07:15:03.000Z</time>
      </trkpt>
      <trkpt lat="43.37209" lon="6.09843">
        <ele>308.095412</ele>
        <time>2025-04-25T07:15:04.000Z</time>
      </trkpt>
      <trkpt lat="43.37209" lon="6.0985">
        <ele>308.12553</ele>
        <time>2025-04-25T07:15:05.000Z</time>
      </trkpt>
      <trkpt lat="43.37209" lon="6.0985">
        <ele>308.12553</ele>
        <time>2025-04-25T07:15:05.000Z</time>
      </trkpt>
      <trkpt lat="43.37209" lon="6.09857">
        <ele>308.154212</ele>
        <time>2025-04-25T07:15:06.000Z</time>
      </trkpt>
      <trkpt lat="43.37208" lon="6.09863">
        <ele>308.182558</ele>
        <time>2025-04-25T07:15:07.000Z</time>
      </trkpt>
      <trkpt lat="43.37207" lon="6.0987">
        <ele>308.212966</ele>
        <time>2025-04-25T07:15:08.000Z</time>
      </trkpt>
      <trkpt lat="43.37207" lon="6.0987">
        <ele>308.212966</ele>
        <time>2025-04-25T07:15:08.000Z</time>
      </trkpt>
      <trkpt lat="43.37206" lon="6.09874">
        <ele>308.218324</ele>
        <time>2025-04-25T07:15:09.000Z</time>
      </trkpt>
      <trkpt lat="43.37204" lon="6.09883">
        <ele>308.186178</ele>
        <time>2025-04-25T07:15:10.000Z</time>
      </trkpt>
      <trkpt lat="43.37204" lon="6.0989">
        <ele>308.16428</ele>
        <time>2025-04-25T07:15:11.000Z</time>
      </trkpt>
      <trkpt lat="43.37204" lon="6.09898">
        <ele>308.139564</ele>
        <time>2025-04-25T07:15:12.000Z</time>
      </trkpt>
      <trkpt lat="43.37204" lon="6.09906">
        <ele>308.115106</ele>
        <time>2025-04-25T07:15:13.000Z</time>
      </trkpt>
      <trkpt lat="43.37205" lon="6.09912">
        <ele>308.094966</ele>
        <time>2025-04-25T07:15:14.000Z</time>
      </trkpt>
      <trkpt lat="43.37206" lon="6.09915">
        <ele>308.08486</ele>
        <time>2025-04-25T07:15:15.000Z</time>
      </trkpt>
      <trkpt lat="43.37208" lon="6.09927">
        <ele>308.043926</ele>
        <time>2025-04-25T07:15:16.000Z</time>
      </trkpt>
      <trkpt lat="43.37211" lon="6.09933">
        <ele>308.022598</ele>
        <time>2025-04-25T07:15:17.000Z</time>
      </trkpt>
      <trkpt lat="43.37214" lon="6.09939">
        <ele>307.99897</ele>
        <time>2025-04-25T07:15:18.000Z</time>
      </trkpt>
      <trkpt lat="43.37217" lon="6.09945">
        <ele>307.973525</ele>
        <time>2025-04-25T07:15:19.000Z</time>
      </trkpt>
      <trkpt lat="43.3722" lon="6.09951">
        <ele>307.952318</ele>
        <time>2025-04-25T07:15:20.000Z</time>
      </trkpt>
      <trkpt lat="43.3722" lon="6.09951">
        <ele>307.952318</ele>
        <time>2025-04-25T07:15:20.000Z</time>
      </trkpt>
      <trkpt lat="43.37221" lon="6.09958">
        <ele>307.927969</ele>
        <time>2025-04-25T07:15:21.000Z</time>
      </trkpt>
      <trkpt lat="43.37222" lon="6.09965">
        <ele>307.903946</ele>
        <time>2025-04-25T07:15:21.000Z</time>
      </trkpt>
      <trkpt lat="43.37223" lon="6.09973">
        <ele>307.878847</ele>
        <time>2025-04-25T07:15:23.000Z</time>
      </trkpt>
      <trkpt lat="43.37223" lon="6.0998">
        <ele>307.85702</ele>
        <time>2025-04-25T07:15:24.000Z</time>
      </trkpt>
      <trkpt lat="43.37223" lon="6.09986">
        <ele>307.836798</ele>
        <time>2025-04-25T07:15:25.000Z</time>
      </trkpt>
      <trkpt lat="43.37223" lon="6.09986">
        <ele>307.836798</ele>
        <time>2025-04-25T07:15:25.000Z</time>
      </trkpt>
      <trkpt lat="43.37223" lon="6.09992">
        <ele>307.819787</ele>
        <time>2025-04-25T07:15:26.000Z</time>
      </trkpt>
      <trkpt lat="43.37223" lon="6.09996">
        <ele>307.805872</ele>
        <time>2025-04-25T07:15:27.000Z</time>
      </trkpt>
      <trkpt lat="43.37225" lon="6.09999">
        <ele>307.79283</ele>
        <time>2025-04-25T07:15:28.000Z</time>
      </trkpt>
      <trkpt lat="43.3723" lon="6.10002">
        <ele>307.766104</ele>
        <time>2025-04-25T07:15:30.000Z</time>
      </trkpt>
      <trkpt lat="43.37232" lon="6.10001">
        <ele>307.757122</ele>
        <time>2025-04-25T07:15:31.000Z</time>
      </trkpt>
      <trkpt lat="43.37232" lon="6.10001">
        <ele>307.757122</ele>
        <time>2025-04-25T07:15:31.000Z</time>
      </trkpt>
      <trkpt lat="43.37236" lon="6.10001">
        <ele>307.740293</ele>
        <time>2025-04-25T07:15:32.000Z</time>
      </trkpt>
      <trkpt lat="43.3724" lon="6.1">
        <ele>307.723464</ele>
        <time>2025-04-25T07:15:33.000Z</time>
      </trkpt>
      <trkpt lat="43.37244" lon="6.1">
        <ele>307.704849</ele>
        <time>2025-04-25T07:15:34.000Z</time>
      </trkpt>
      <trkpt lat="43.37251" lon="6.1">
        <ele>307.676131</ele>
        <time>2025-04-25T07:15:35.000Z</time>
      </trkpt>
      <trkpt lat="43.37256" lon="6.10001">
        <ele>307.650929</ele>
        <time>2025-04-25T07:15:36.000Z</time>
      </trkpt>
      <trkpt lat="43.37263" lon="6.10001">
        <ele>307.620433</ele>
        <time>2025-04-25T07:15:37.000Z</time>
      </trkpt>
      <trkpt lat="43.3727" lon="6.10002">
        <ele>307.591643</ele>
        <time>2025-04-25T07:15:38.000Z</time>
      </trkpt>
      <trkpt lat="43.3727" lon="6.10002">
        <ele>307.591643</ele>
        <time>2025-04-25T07:15:38.000Z</time>
      </trkpt>
      <trkpt lat="43.37275" lon="6.10003">
        <ele>307.566018</ele>
        <time>2025-04-25T07:15:39.000Z</time>
      </trkpt>
      <trkpt lat="43.37281" lon="6.10006">
        <ele>307.539696</ele>
        <time>2025-04-25T07:15:40.000Z</time>
      </trkpt>
      <trkpt lat="43.37281" lon="6.10006">
        <ele>307.539696</ele>
        <time>2025-04-25T07:15:40.000Z</time>
      </trkpt>
      <trkpt lat="43.37288" lon="6.10008">
        <ele>307.50793</ele>
        <time>2025-04-25T07:15:41.000Z</time>
      </trkpt>
      <trkpt lat="43.37294" lon="6.10011">
        <ele>307.478127</ele>
        <time>2025-04-25T07:15:42.000Z</time>
      </trkpt>
      <trkpt lat="43.37294" lon="6.10011">
        <ele>307.478127</ele>
        <time>2025-04-25T07:15:42.000Z</time>
      </trkpt>
      <trkpt lat="43.373" lon="6.10014">
        <ele>307.451507</ele>
        <time>2025-04-25T07:15:43.000Z</time>
      </trkpt>
      <trkpt lat="43.373" lon="6.10014">
        <ele>307.451507</ele>
        <time>2025-04-25T07:15:43.000Z</time>
      </trkpt>
      <trkpt lat="43.37303" lon="6.10018">
        <ele>307.431137</ele>
        <time>2025-04-25T07:15:44.000Z</time>
      </trkpt>
      <trkpt lat="43.37303" lon="6.10018">
        <ele>307.431137</ele>
        <time>2025-04-25T07:15:44.000Z</time>
      </trkpt>
      <trkpt lat="43.37304" lon="6.10024">
        <ele>307.437471</ele>
        <time>2025-04-25T07:15:45.000Z</time>
      </trkpt>
      <trkpt lat="43.37304" lon="6.10024">
        <ele>307.437471</ele>
        <time>2025-04-25T07:15:45.000Z</time>
      </trkpt>
      <trkpt lat="43.37303" lon="6.1003">
        <ele>307.448201</ele>
        <time>2025-04-25T07:15:46.000Z</time>
      </trkpt>
      <trkpt lat="43.373" lon="6.10037">
        <ele>307.462061</ele>
        <time>2025-04-25T07:15:47.000Z</time>
      </trkpt>
      <trkpt lat="43.373" lon="6.10037">
        <ele>307.462061</ele>
        <time>2025-04-25T07:15:47.000Z</time>
      </trkpt>
      <trkpt lat="43.37295" lon="6.10045">
        <ele>307.479846</ele>
        <time>2025-04-25T07:15:48.000Z</time>
      </trkpt>
      <trkpt lat="43.37286" lon="6.10061">
        <ele>307.514199</ele>
        <time>2025-04-25T07:15:50.000Z</time>
      </trkpt>
      <trkpt lat="43.37284" lon="6.10066">
        <ele>307.524493</ele>
        <time>2025-04-25T07:15:51.000Z</time>
      </trkpt>
      <trkpt lat="43.3728" lon="6.10073">
        <ele>307.53873</ele>
        <time>2025-04-25T07:15:52.000Z</time>
      </trkpt>
      <trkpt lat="43.37276" lon="6.1008">
        <ele>307.553101</ele>
        <time>2025-04-25T07:15:53.000Z</time>
      </trkpt>
      <trkpt lat="43.37273" lon="6.10087">
        <ele>307.567468</ele>
        <time>2025-04-25T07:15:54.000Z</time>
      </trkpt>
      <trkpt lat="43.3727" lon="6.10094">
        <ele>307.581796</ele>
        <time>2025-04-25T07:15:55.000Z</time>
      </trkpt>
      <trkpt lat="43.37267" lon="6.10101">
        <ele>307.595512</ele>
        <time>2025-04-25T07:15:56.000Z</time>
      </trkpt>
      <trkpt lat="43.37264" lon="6.10108">
        <ele>307.609107</ele>
        <time>2025-04-25T07:15:57.000Z</time>
      </trkpt>
      <trkpt lat="43.37264" lon="6.10108">
        <ele>307.609107</ele>
        <time>2025-04-25T07:15:57.000Z</time>
      </trkpt>
      <trkpt lat="43.37261" lon="6.10116">
        <ele>307.623869</ele>
        <time>2025-04-25T07:15:58.000Z</time>
      </trkpt>
      <trkpt lat="43.37259" lon="6.10125">
        <ele>307.639866</ele>
        <time>2025-04-25T07:15:59.000Z</time>
      </trkpt>
      <trkpt lat="43.37259" lon="6.10125">
        <ele>307.639866</ele>
        <time>2025-04-25T07:15:59.000Z</time>
      </trkpt>
      <trkpt lat="43.37257" lon="6.10133">
        <ele>307.653616</ele>
        <time>2025-04-25T07:16:00.000Z</time>
      </trkpt>
      <trkpt lat="43.37255" lon="6.1014">
        <ele>307.666119</ele>
        <time>2025-04-25T07:16:01.000Z</time>
      </trkpt>
      <trkpt lat="43.37252" lon="6.10145">
        <ele>307.676926</ele>
        <time>2025-04-25T07:16:02.000Z</time>
      </trkpt>
      <trkpt lat="43.37252" lon="6.10145">
        <ele>307.676926</ele>
        <time>2025-04-25T07:16:02.000Z</time>
      </trkpt>
      <trkpt lat="43.37249" lon="6.10148">
        <ele>307.686804</ele>
        <time>2025-04-25T07:16:03.000Z</time>
      </trkpt>
      <trkpt lat="43.37245" lon="6.1015">
        <ele>307.696269</ele>
        <time>2025-04-25T07:16:04.000Z</time>
      </trkpt>
      <trkpt lat="43.37242" lon="6.10152">
        <ele>307.704308</ele>
        <time>2025-04-25T07:16:05.000Z</time>
      </trkpt>
      <trkpt lat="43.37242" lon="6.10152">
        <ele>307.704308</ele>
        <time>2025-04-25T07:16:05.000Z</time>
      </trkpt>
      <trkpt lat="43.3724" lon="6.10156">
        <ele>307.71301</ele>
        <time>2025-04-25T07:16:06.000Z</time>
      </trkpt>
      <trkpt lat="43.37237" lon="6.1016">
        <ele>307.722491</ele>
        <time>2025-04-25T07:16:06.000Z</time>
      </trkpt>
      <trkpt lat="43.37234" lon="6.10165">
        <ele>307.732622</ele>
        <time>2025-04-25T07:16:08.000Z</time>
      </trkpt>
      <trkpt lat="43.3723" lon="6.10168">
        <ele>307.743076</ele>
        <time>2025-04-25T07:16:08.000Z</time>
      </trkpt>
      <trkpt lat="43.3723" lon="6.10168">
        <ele>307.743076</ele>
        <time>2025-04-25T07:16:08.000Z</time>
      </trkpt>
      <trkpt lat="43.37226" lon="6.1017">
        <ele>307.753309</ele>
        <time>2025-04-25T07:16:10.000Z</time>
      </trkpt>
      <trkpt lat="43.37222" lon="6.10173">
        <ele>307.764754</ele>
        <time>2025-04-25T07:16:10.000Z</time>
      </trkpt>
      <trkpt lat="43.37222" lon="6.10173">
        <ele>307.764754</ele>
        <time>2025-04-25T07:16:10.000Z</time>
      </trkpt>
      <trkpt lat="43.37218" lon="6.10176">
        <ele>307.775299</ele>
        <time>2025-04-25T07:16:12.000Z</time>
      </trkpt>
      <trkpt lat="43.37214" lon="6.10181">
        <ele>307.787075</ele>
        <time>2025-04-25T07:16:12.000Z</time>
      </trkpt>
      <trkpt lat="43.37214" lon="6.10181">
        <ele>307.787075</ele>
        <time>2025-04-25T07:16:12.000Z</time>
      </trkpt>
      <trkpt lat="43.3721" lon="6.10186">
        <ele>307.800278</ele>
        <time>2025-04-25T07:16:14.000Z</time>
      </trkpt>
      <trkpt lat="43.37207" lon="6.10193">
        <ele>307.81382</ele>
        <time>2025-04-25T07:16:15.000Z</time>
      </trkpt>
      <trkpt lat="43.37207" lon="6.10193">
        <ele>307.81382</ele>
        <time>2025-04-25T07:16:15.000Z</time>
      </trkpt>
      <trkpt lat="43.37203" lon="6.102">
        <ele>307.828048</ele>
        <time>2025-04-25T07:16:16.000Z</time>
      </trkpt>
      <trkpt lat="43.37199" lon="6.10207">
        <ele>307.842553</ele>
        <time>2025-04-25T07:16:17.000Z</time>
      </trkpt>
      <trkpt lat="43.37199" lon="6.10207">
        <ele>307.842553</ele>
        <time>2025-04-25T07:16:17.000Z</time>
      </trkpt>
      <trkpt lat="43.37196" lon="6.10213">
        <ele>307.848266</ele>
        <time>2025-04-25T07:16:18.000Z</time>
      </trkpt>
      <trkpt lat="43.37194" lon="6.10219">
        <ele>307.849499</ele>
        <time>2025-04-25T07:16:19.000Z</time>
      </trkpt>
      <trkpt lat="43.37191" lon="6.10226">
        <ele>307.850763</ele>
        <time>2025-04-25T07:16:20.000Z</time>
      </trkpt>
      <trkpt lat="43.37189" lon="6.10234">
        <ele>307.852185</ele>
        <time>2025-04-25T07:16:21.000Z</time>
      </trkpt>
      <trkpt lat="43.37189" lon="6.10234">
        <ele>307.852185</ele>
        <time>2025-04-25T07:16:21.000Z</time>
      </trkpt>
      <trkpt lat="43.37186" lon="6.10242">
        <ele>307.853771</ele>
        <time>2025-04-25T07:16:22.000Z</time>
      </trkpt>
      <trkpt lat="43.37184" lon="6.10249">
        <ele>307.855082</ele>
        <time>2025-04-25T07:16:22.000Z</time>
      </trkpt>
      <trkpt lat="43.37181" lon="6.10256">
        <ele>307.856471</ele>
        <time>2025-04-25T07:16:24.000Z</time>
      </trkpt>
      <trkpt lat="43.37179" lon="6.10262">
        <ele>307.857735</ele>
        <time>2025-04-25T07:16:24.000Z</time>
      </trkpt>
      <trkpt lat="43.37179" lon="6.10262">
        <ele>307.857735</ele>
        <time>2025-04-25T07:16:24.000Z</time>
      </trkpt>
      <trkpt lat="43.37177" lon="6.10269">
        <ele>307.859009</ele>
        <time>2025-04-25T07:16:26.000Z</time>
      </trkpt>
      <trkpt lat="43.37175" lon="6.10275">
        <ele>307.860061</ele>
        <time>2025-04-25T07:16:27.000Z</time>
      </trkpt>
      <trkpt lat="43.37172" lon="6.10282">
        <ele>307.861491</ele>
        <time>2025-04-25T07:16:28.000Z</time>
      </trkpt>
      <trkpt lat="43.37167" lon="6.10296">
        <ele>307.864082</ele>
        <time>2025-04-25T07:16:30.000Z</time>
      </trkpt>
      <trkpt lat="43.37166" lon="6.10299">
        <ele>307.864825</ele>
        <time>2025-04-25T07:16:31.000Z</time>
      </trkpt>
      <trkpt lat="43.37166" lon="6.10299">
        <ele>307.864825</ele>
        <time>2025-04-25T07:16:31.000Z</time>
      </trkpt>
      <trkpt lat="43.37164" lon="6.10304">
        <ele>307.865776</ele>
        <time>2025-04-25T07:16:32.000Z</time>
      </trkpt>
      <trkpt lat="43.37164" lon="6.10304">
        <ele>307.865776</ele>
        <time>2025-04-25T07:16:32.000Z</time>
      </trkpt>
      <trkpt lat="43.37164" lon="6.1031">
        <ele>307.866795</ele>
        <time>2025-04-25T07:16:33.000Z</time>
      </trkpt>
      <trkpt lat="43.37162" lon="6.10316">
        <ele>307.867864</ele>
        <time>2025-04-25T07:16:34.000Z</time>
      </trkpt>
      <trkpt lat="43.37161" lon="6.10321">
        <ele>307.86883</ele>
        <time>2025-04-25T07:16:35.000Z</time>
      </trkpt>
      <trkpt lat="43.37161" lon="6.10321">
        <ele>307.86883</ele>
        <time>2025-04-25T07:16:35.000Z</time>
      </trkpt>
      <trkpt lat="43.3716" lon="6.10325">
        <ele>307.869594</ele>
        <time>2025-04-25T07:16:36.000Z</time>
      </trkpt>
      <trkpt lat="43.37157" lon="6.10334">
        <ele>307.871195</ele>
        <time>2025-04-25T07:16:37.000Z</time>
      </trkpt>
      <trkpt lat="43.37154" lon="6.10338">
        <ele>307.872117</ele>
        <time>2025-04-25T07:16:38.000Z</time>
      </trkpt>
      <trkpt lat="43.37152" lon="6.10341">
        <ele>307.87291</ele>
        <time>2025-04-25T07:16:39.000Z</time>
      </trkpt>
      <trkpt lat="43.37152" lon="6.10341">
        <ele>307.87291</ele>
        <time>2025-04-25T07:16:39.000Z</time>
      </trkpt>
      <trkpt lat="43.37149" lon="6.10342">
        <ele>307.873643</ele>
        <time>2025-04-25T07:16:40.000Z</time>
      </trkpt>
      <trkpt lat="43.37145" lon="6.10341">
        <ele>307.874644</ele>
        <time>2025-04-25T07:16:41.000Z</time>
      </trkpt>
      <trkpt lat="43.37139" lon="6.10341">
        <ele>307.876024</ele>
        <time>2025-04-25T07:16:42.000Z</time>
      </trkpt>
      <trkpt lat="43.37133" lon="6.10339">
        <ele>307.8774</ele>
        <time>2025-04-25T07:16:43.000Z</time>
      </trkpt>
      <trkpt lat="43.37133" lon="6.10339">
        <ele>307.8774</ele>
        <time>2025-04-25T07:16:43.000Z</time>
      </trkpt>
      <trkpt lat="43.37128" lon="6.10339">
        <ele>307.878575</ele>
        <time>2025-04-25T07:16:44.000Z</time>
      </trkpt>
      <trkpt lat="43.37128" lon="6.10339">
        <ele>307.878575</ele>
        <time>2025-04-25T07:16:44.000Z</time>
      </trkpt>
      <trkpt lat="43.37123" lon="6.1034">
        <ele>307.879869</ele>
        <time>2025-04-25T07:16:45.000Z</time>
      </trkpt>
      <trkpt lat="43.37119" lon="6.10342">
        <ele>307.88082</ele>
        <time>2025-04-25T07:16:46.000Z</time>
      </trkpt>
      <trkpt lat="43.37117" lon="6.10347">
        <ele>307.881854</ele>
        <time>2025-04-25T07:16:47.000Z</time>
      </trkpt>
      <trkpt lat="43.37114" lon="6.10352">
        <ele>307.882906</ele>
        <time>2025-04-25T07:16:48.000Z</time>
      </trkpt>
      <trkpt lat="43.37113" lon="6.10358">
        <ele>307.884002</ele>
        <time>2025-04-25T07:16:49.000Z</time>
      </trkpt>
      <trkpt lat="43.37112" lon="6.10366">
        <ele>307.885374</ele>
        <time>2025-04-25T07:16:50.000Z</time>
      </trkpt>
      <trkpt lat="43.3711" lon="6.10373">
        <ele>307.886691</ele>
        <time>2025-04-25T07:16:51.000Z</time>
      </trkpt>
      <trkpt lat="43.37109" lon="6.10381">
        <ele>307.887961</ele>
        <time>2025-04-25T07:16:52.000Z</time>
      </trkpt>
      <trkpt lat="43.37108" lon="6.10388">
        <ele>307.889254</ele>
        <time>2025-04-25T07:16:53.000Z</time>
      </trkpt>
      <trkpt lat="43.37108" lon="6.10396">
        <ele>307.839555</ele>
        <time>2025-04-25T07:16:54.000Z</time>
      </trkpt>
      <trkpt lat="43.37108" lon="6.10396">
        <ele>307.839555</ele>
        <time>2025-04-25T07:16:54.000Z</time>
      </trkpt>
      <trkpt lat="43.37108" lon="6.10403">
        <ele>307.71123</ele>
        <time>2025-04-25T07:16:55.000Z</time>
      </trkpt>
      <trkpt lat="43.37107" lon="6.10411">
        <ele>307.577004</ele>
        <time>2025-04-25T07:16:56.000Z</time>
      </trkpt>
      <trkpt lat="43.37106" lon="6.10417">
        <ele>307.456342</ele>
        <time>2025-04-25T07:16:57.000Z</time>
      </trkpt>
      <trkpt lat="43.37106" lon="6.10417">
        <ele>307.456342</ele>
        <time>2025-04-25T07:16:57.000Z</time>
      </trkpt>
      <trkpt lat="43.37106" lon="6.10425">
        <ele>307.317534</ele>
        <time>2025-04-25T07:16:58.000Z</time>
      </trkpt>
      <trkpt lat="43.37106" lon="6.10434">
        <ele>307.166303</ele>
        <time>2025-04-25T07:16:59.000Z</time>
      </trkpt>
      <trkpt lat="43.37107" lon="6.10441">
        <ele>307.031593</ele>
        <time>2025-04-25T07:17:00.000Z</time>
      </trkpt>
      <trkpt lat="43.37107" lon="6.10448">
        <ele>306.899724</ele>
        <time>2025-04-25T07:17:01.000Z</time>
      </trkpt>
      <trkpt lat="43.37107" lon="6.10448">
        <ele>306.899724</ele>
        <time>2025-04-25T07:17:01.000Z</time>
      </trkpt>
      <trkpt lat="43.37107" lon="6.10455">
        <ele>306.789544</ele>
        <time>2025-04-25T07:17:02.000Z</time>
      </trkpt>
      <trkpt lat="43.37107" lon="6.10461">
        <ele>306.670077</ele>
        <time>2025-04-25T07:17:03.000Z</time>
      </trkpt>
      <trkpt lat="43.37106" lon="6.10467">
        <ele>306.560112</ele>
        <time>2025-04-25T07:17:04.000Z</time>
      </trkpt>
      <trkpt lat="43.37106" lon="6.10467">
        <ele>306.560112</ele>
        <time>2025-04-25T07:17:04.000Z</time>
      </trkpt>
      <trkpt lat="43.37103" lon="6.10473">
        <ele>306.434709</ele>
        <time>2025-04-25T07:17:05.000Z</time>
      </trkpt>
      <trkpt lat="43.371" lon="6.10478">
        <ele>306.328252</ele>
        <time>2025-04-25T07:17:06.000Z</time>
      </trkpt>
      <trkpt lat="43.37097" lon="6.10483">
        <ele>306.201296</ele>
        <time>2025-04-25T07:17:07.000Z</time>
      </trkpt>
      <trkpt lat="43.37097" lon="6.10483">
        <ele>306.201296</ele>
        <time>2025-04-25T07:17:07.000Z</time>
      </trkpt>
      <trkpt lat="43.37094" lon="6.10488">
        <ele>306.100319</ele>
        <time>2025-04-25T07:17:08.000Z</time>
      </trkpt>
      <trkpt lat="43.3709" lon="6.10492">
        <ele>305.97644</ele>
        <time>2025-04-25T07:17:09.000Z</time>
      </trkpt>
      <trkpt lat="43.37086" lon="6.10494">
        <ele>305.862341</ele>
        <time>2025-04-25T07:17:10.000Z</time>
      </trkpt>
      <trkpt lat="43.3708" lon="6.10496">
        <ele>305.718532</ele>
        <time>2025-04-25T07:17:11.000Z</time>
      </trkpt>
      <trkpt lat="43.37074" lon="6.10499">
        <ele>305.554003</ele>
        <time>2025-04-25T07:17:12.000Z</time>
      </trkpt>
      <trkpt lat="43.37067" lon="6.105">
        <ele>305.393162</ele>
        <time>2025-04-25T07:17:13.000Z</time>
      </trkpt>
      <trkpt lat="43.37061" lon="6.10502">
        <ele>305.232321</ele>
        <time>2025-04-25T07:17:14.000Z</time>
      </trkpt>
      <trkpt lat="43.37061" lon="6.10502">
        <ele>305.232321</ele>
        <time>2025-04-25T07:17:14.000Z</time>
      </trkpt>
      <trkpt lat="43.37054" lon="6.10503">
        <ele>305.072624</ele>
        <time>2025-04-25T07:17:15.000Z</time>
      </trkpt>
      <trkpt lat="43.37054" lon="6.10503">
        <ele>305.072624</ele>
        <time>2025-04-25T07:17:15.000Z</time>
      </trkpt>
      <trkpt lat="43.37047" lon="6.10506">
        <ele>304.888714</ele>
        <time>2025-04-25T07:17:16.000Z</time>
      </trkpt>
      <trkpt lat="43.37047" lon="6.10506">
        <ele>304.888714</ele>
        <time>2025-04-25T07:17:16.000Z</time>
      </trkpt>
      <trkpt lat="43.3704" lon="6.10509">
        <ele>304.72166</ele>
        <time>2025-04-25T07:17:17.000Z</time>
      </trkpt>
      <trkpt lat="43.3704" lon="6.10509">
        <ele>304.72166</ele>
        <time>2025-04-25T07:17:17.000Z</time>
      </trkpt>
      <trkpt lat="43.37034" lon="6.10511">
        <ele>304.549119</ele>
        <time>2025-04-25T07:17:18.000Z</time>
      </trkpt>
      <trkpt lat="43.37034" lon="6.10511">
        <ele>304.549119</ele>
        <time>2025-04-25T07:17:18.000Z</time>
      </trkpt>
      <trkpt lat="43.37026" lon="6.10514">
        <ele>304.362863</ele>
        <time>2025-04-25T07:17:19.000Z</time>
      </trkpt>
      <trkpt lat="43.37026" lon="6.10514">
        <ele>304.362863</ele>
        <time>2025-04-25T07:17:19.000Z</time>
      </trkpt>
      <trkpt lat="43.37017" lon="6.10522">
        <ele>304.113459</ele>
        <time>2025-04-25T07:17:21.000Z</time>
      </trkpt>
      <trkpt lat="43.37017" lon="6.10522">
        <ele>304.113459</ele>
        <time>2025-04-25T07:17:21.000Z</time>
      </trkpt>
      <trkpt lat="43.37017" lon="6.10524">
        <ele>304.07368</ele>
        <time>2025-04-25T07:17:22.000Z</time>
      </trkpt>
      <trkpt lat="43.37017" lon="6.10524">
        <ele>304.07368</ele>
        <time>2025-04-25T07:17:22.000Z</time>
      </trkpt>
      <trkpt lat="43.37017" lon="6.10528">
        <ele>304.005752</ele>
        <time>2025-04-25T07:17:23.000Z</time>
      </trkpt>
      <trkpt lat="43.37017" lon="6.10528">
        <ele>304.005752</ele>
        <time>2025-04-25T07:17:23.000Z</time>
      </trkpt>
      <trkpt lat="43.37017" lon="6.10534">
        <ele>303.89557</ele>
        <time>2025-04-25T07:17:23.000Z</time>
      </trkpt>
      <trkpt lat="43.37017" lon="6.10534">
        <ele>303.89557</ele>
        <time>2025-04-25T07:17:23.000Z</time>
      </trkpt>
      <trkpt lat="43.37018" lon="6.10541">
        <ele>303.7637</ele>
        <time>2025-04-25T07:17:25.000Z</time>
      </trkpt>
      <trkpt lat="43.37018" lon="6.10541">
        <ele>303.7637</ele>
        <time>2025-04-25T07:17:25.000Z</time>
      </trkpt>
      <trkpt lat="43.37019" lon="6.10548">
        <ele>303.630694</ele>
        <time>2025-04-25T07:17:26.000Z</time>
      </trkpt>
      <trkpt lat="43.37019" lon="6.10548">
        <ele>303.630694</ele>
        <time>2025-04-25T07:17:26.000Z</time>
      </trkpt>
      <trkpt lat="43.37021" lon="6.10556">
        <ele>303.49588</ele>
        <time>2025-04-25T07:17:27.000Z</time>
      </trkpt>
      <trkpt lat="43.37021" lon="6.10556">
        <ele>303.49588</ele>
        <time>2025-04-25T07:17:27.000Z</time>
      </trkpt>
      <trkpt lat="43.37022" lon="6.10564">
        <ele>303.421226</ele>
        <time>2025-04-25T07:17:28.000Z</time>
      </trkpt>
      <trkpt lat="43.37022" lon="6.10564">
        <ele>303.421226</ele>
        <time>2025-04-25T07:17:28.000Z</time>
      </trkpt>
      <trkpt lat="43.37028" lon="6.1058">
        <ele>303.266727</ele>
        <time>2025-04-25T07:17:30.000Z</time>
      </trkpt>
      <trkpt lat="43.37028" lon="6.1058">
        <ele>303.266727</ele>
        <time>2025-04-25T07:17:30.000Z</time>
      </trkpt>
      <trkpt lat="43.37031" lon="6.10588">
        <ele>303.191763</ele>
        <time>2025-04-25T07:17:31.000Z</time>
      </trkpt>
      <trkpt lat="43.37032" lon="6.10591">
        <ele>303.162444</ele>
        <time>2025-04-25T07:17:32.000Z</time>
      </trkpt>
      <trkpt lat="43.37032" lon="6.10591">
        <ele>303.162444</ele>
        <time>2025-04-25T07:17:32.000Z</time>
      </trkpt>
      <trkpt lat="43.37036" lon="6.10602">
        <ele>303.056842</ele>
        <time>2025-04-25T07:17:33.000Z</time>
      </trkpt>
      <trkpt lat="43.37036" lon="6.10602">
        <ele>303.056842</ele>
        <time>2025-04-25T07:17:33.000Z</time>
      </trkpt>
      <trkpt lat="43.3704" lon="6.10609">
        <ele>302.98356</ele>
        <time>2025-04-25T07:17:34.000Z</time>
      </trkpt>
      <trkpt lat="43.3704" lon="6.10609">
        <ele>302.98356</ele>
        <time>2025-04-25T07:17:34.000Z</time>
      </trkpt>
      <trkpt lat="43.37042" lon="6.10612">
        <ele>302.946434</ele>
        <time>2025-04-25T07:17:35.000Z</time>
      </trkpt>
      <trkpt lat="43.37042" lon="6.10612">
        <ele>302.946434</ele>
        <time>2025-04-25T07:17:35.000Z</time>
      </trkpt>
      <trkpt lat="43.37046" lon="6.1062">
        <ele>302.867974</ele>
        <time>2025-04-25T07:17:36.000Z</time>
      </trkpt>
      <trkpt lat="43.37048" lon="6.10624">
        <ele>302.826159</ele>
        <time>2025-04-25T07:17:37.000Z</time>
      </trkpt>
      <trkpt lat="43.37048" lon="6.10624">
        <ele>302.826159</ele>
        <time>2025-04-25T07:17:37.000Z</time>
      </trkpt>
      <trkpt lat="43.37047" lon="6.10628">
        <ele>302.787611</ele>
        <time>2025-04-25T07:17:38.000Z</time>
      </trkpt>
      <trkpt lat="43.37046" lon="6.10633">
        <ele>302.743205</ele>
        <time>2025-04-25T07:17:39.000Z</time>
      </trkpt>
      <trkpt lat="43.37043" lon="6.10638">
        <ele>302.694267</ele>
        <time>2025-04-25T07:17:40.000Z</time>
      </trkpt>
      <trkpt lat="43.3704" lon="6.10641">
        <ele>302.64572</ele>
        <time>2025-04-25T07:17:41.000Z</time>
      </trkpt>
      <trkpt lat="43.3704" lon="6.10641">
        <ele>302.64572</ele>
        <time>2025-04-25T07:17:41.000Z</time>
      </trkpt>
      <trkpt lat="43.37037" lon="6.10645">
        <ele>302.601336</ele>
        <time>2025-04-25T07:17:42.000Z</time>
      </trkpt>
      <trkpt lat="43.37032" lon="6.10649">
        <ele>302.528959</ele>
        <time>2025-04-25T07:17:43.000Z</time>
      </trkpt>
      <trkpt lat="43.37027" lon="6.10652">
        <ele>302.471982</ele>
        <time>2025-04-25T07:17:44.000Z</time>
      </trkpt>
      <trkpt lat="43.37022" lon="6.10655">
        <ele>302.40786</ele>
        <time>2025-04-25T07:17:45.000Z</time>
      </trkpt>
      <trkpt lat="43.37017" lon="6.10659">
        <ele>302.341072</ele>
        <time>2025-04-25T07:17:46.000Z</time>
      </trkpt>
      <trkpt lat="43.37012" lon="6.10664">
        <ele>302.261572</ele>
        <time>2025-04-25T07:17:47.000Z</time>
      </trkpt>
      <trkpt lat="43.37007" lon="6.10669">
        <ele>302.192213</ele>
        <time>2025-04-25T07:17:48.000Z</time>
      </trkpt>
      <trkpt lat="43.37002" lon="6.10674">
        <ele>302.120437</ele>
        <time>2025-04-25T07:17:49.000Z</time>
      </trkpt>
      <trkpt lat="43.36998" lon="6.10678">
        <ele>302.060711</ele>
        <time>2025-04-25T07:17:50.000Z</time>
      </trkpt>
      <trkpt lat="43.36992" lon="6.10682">
        <ele>301.984705</ele>
        <time>2025-04-25T07:17:51.000Z</time>
      </trkpt>
      <trkpt lat="43.36987" lon="6.10686">
        <ele>301.923651</ele>
        <time>2025-04-25T07:17:52.000Z</time>
      </trkpt>
      <trkpt lat="43.36982" lon="6.10689">
        <ele>301.85727</ele>
        <time>2025-04-25T07:17:53.000Z</time>
      </trkpt>
      <trkpt lat="43.36982" lon="6.10689">
        <ele>301.85727</ele>
        <time>2025-04-25T07:17:53.000Z</time>
      </trkpt>
      <trkpt lat="43.36977" lon="6.10693">
        <ele>301.782066</ele>
        <time>2025-04-25T07:17:54.000Z</time>
      </trkpt>
      <trkpt lat="43.36972" lon="6.10696">
        <ele>301.727121</ele>
        <time>2025-04-25T07:17:55.000Z</time>
      </trkpt>
      <trkpt lat="43.36968" lon="6.10699">
        <ele>301.67038</ele>
        <time>2025-04-25T07:17:56.000Z</time>
      </trkpt>
      <trkpt lat="43.36964" lon="6.10699">
        <ele>301.621244</ele>
        <time>2025-04-25T07:17:57.000Z</time>
      </trkpt>
      <trkpt lat="43.36964" lon="6.10699">
        <ele>301.621244</ele>
        <time>2025-04-25T07:17:57.000Z</time>
      </trkpt>
      <trkpt lat="43.3696" lon="6.10697">
        <ele>301.571961</ele>
        <time>2025-04-25T07:17:58.000Z</time>
      </trkpt>
      <trkpt lat="43.36956" lon="6.10692">
        <ele>301.512215</ele>
        <time>2025-04-25T07:17:59.000Z</time>
      </trkpt>
      <trkpt lat="43.36953" lon="6.10686">
        <ele>301.449902</ele>
        <time>2025-04-25T07:18:00.000Z</time>
      </trkpt>
      <trkpt lat="43.36953" lon="6.10686">
        <ele>301.449902</ele>
        <time>2025-04-25T07:18:00.000Z</time>
      </trkpt>
      <trkpt lat="43.36952" lon="6.10679">
        <ele>301.39238</ele>
        <time>2025-04-25T07:18:01.000Z</time>
      </trkpt>
      <trkpt lat="43.36951" lon="6.10672">
        <ele>301.453143</ele>
        <time>2025-04-25T07:18:02.000Z</time>
      </trkpt>
      <trkpt lat="43.36951" lon="6.10672">
        <ele>301.453143</ele>
        <time>2025-04-25T07:18:02.000Z</time>
      </trkpt>
      <trkpt lat="43.36951" lon="6.10664">
        <ele>301.521852</ele>
        <time>2025-04-25T07:18:03.000Z</time>
      </trkpt>
      <trkpt lat="43.3695" lon="6.10657">
        <ele>301.590203</ele>
        <time>2025-04-25T07:18:04.000Z</time>
      </trkpt>
      <trkpt lat="43.3695" lon="6.10657">
        <ele>301.590203</ele>
        <time>2025-04-25T07:18:04.000Z</time>
      </trkpt>
      <trkpt lat="43.36949" lon="6.10649">
        <ele>301.65574</ele>
        <time>2025-04-25T07:18:05.000Z</time>
      </trkpt>
      <trkpt lat="43.36948" lon="6.10642">
        <ele>301.721486</ele>
        <time>2025-04-25T07:18:06.000Z</time>
      </trkpt>
      <trkpt lat="43.36948" lon="6.10642">
        <ele>301.721486</ele>
        <time>2025-04-25T07:18:06.000Z</time>
      </trkpt>
      <trkpt lat="43.36946" lon="6.10636">
        <ele>301.782184</ele>
        <time>2025-04-25T07:18:07.000Z</time>
      </trkpt>
      <trkpt lat="43.36945" lon="6.10628">
        <ele>301.849703</ele>
        <time>2025-04-25T07:18:08.000Z</time>
      </trkpt>
      <trkpt lat="43.36943" lon="6.10621">
        <ele>301.915449</ele>
        <time>2025-04-25T07:18:09.000Z</time>
      </trkpt>
      <trkpt lat="43.36943" lon="6.10621">
        <ele>301.915449</ele>
        <time>2025-04-25T07:18:09.000Z</time>
      </trkpt>
      <trkpt lat="43.36943" lon="6.10614">
        <ele>301.982304</ele>
        <time>2025-04-25T07:18:10.000Z</time>
      </trkpt>
      <trkpt lat="43.36942" lon="6.10607">
        <ele>302.044228</ele>
        <time>2025-04-25T07:18:11.000Z</time>
      </trkpt>
      <trkpt lat="43.3694" lon="6.10602">
        <ele>302.093195</ele>
        <time>2025-04-25T07:18:12.000Z</time>
      </trkpt>
      <trkpt lat="43.3694" lon="6.10602">
        <ele>302.093195</ele>
        <time>2025-04-25T07:18:12.000Z</time>
      </trkpt>
      <trkpt lat="43.36938" lon="6.10599">
        <ele>302.133247</ele>
        <time>2025-04-25T07:18:13.000Z</time>
      </trkpt>
      <trkpt lat="43.36932" lon="6.10579">
        <ele>303.478865</ele>
        <time>2025-04-25T07:19:01.000Z</time>
      </trkpt>
      <trkpt lat="43.36932" lon="6.10575">
        <ele>303.464938</ele>
        <time>2025-04-25T07:19:02.000Z</time>
      </trkpt>
      <trkpt lat="43.36932" lon="6.10569">
        <ele>303.446038</ele>
        <time>2025-04-25T07:19:03.000Z</time>
      </trkpt>
      <trkpt lat="43.36931" lon="6.10563">
        <ele>303.424155</ele>
        <time>2025-04-25T07:19:04.000Z</time>
      </trkpt>
      <trkpt lat="43.36929" lon="6.10558">
        <ele>303.404815</ele>
        <time>2025-04-25T07:19:04.000Z</time>
      </trkpt>
      <trkpt lat="43.36928" lon="6.10553">
        <ele>303.386401</ele>
        <time>2025-04-25T07:19:06.000Z</time>
      </trkpt>
      <trkpt lat="43.36927" lon="6.10546">
        <ele>303.363104</ele>
        <time>2025-04-25T07:19:06.000Z</time>
      </trkpt>
      <trkpt lat="43.36927" lon="6.10546">
        <ele>303.363104</ele>
        <time>2025-04-25T07:19:06.000Z</time>
      </trkpt>
      <trkpt lat="43.36926" lon="6.1054">
        <ele>303.339359</ele>
        <time>2025-04-25T07:19:08.000Z</time>
      </trkpt>
      <trkpt lat="43.36925" lon="6.10532">
        <ele>303.311586</ele>
        <time>2025-04-25T07:19:09.000Z</time>
      </trkpt>
      <trkpt lat="43.36925" lon="6.10524">
        <ele>303.284708</ele>
        <time>2025-04-25T07:19:09.000Z</time>
      </trkpt>
      <trkpt lat="43.36925" lon="6.10517">
        <ele>303.257897</ele>
        <time>2025-04-25T07:19:11.000Z</time>
      </trkpt>
      <trkpt lat="43.36925" lon="6.10515">
        <ele>303.250338</ele>
        <time>2025-04-25T07:19:12.000Z</time>
      </trkpt>
      <trkpt lat="43.36926" lon="6.10498">
        <ele>303.19276</ele>
        <time>2025-04-25T07:19:13.000Z</time>
      </trkpt>
      <trkpt lat="43.36926" lon="6.10498">
        <ele>303.190391</ele>
        <time>2025-04-25T07:19:14.000Z</time>
      </trkpt>
      <trkpt lat="43.36926" lon="6.10498">
        <ele>303.190391</ele>
        <time>2025-04-25T07:19:14.000Z</time>
      </trkpt>
      <trkpt lat="43.36925" lon="6.10481">
        <ele>303.132118</ele>
        <time>2025-04-25T07:19:15.000Z</time>
      </trkpt>
      <trkpt lat="43.36925" lon="6.10481">
        <ele>303.132118</ele>
        <time>2025-04-25T07:19:15.000Z</time>
      </trkpt>
      <trkpt lat="43.36924" lon="6.10478">
        <ele>303.120884</ele>
        <time>2025-04-25T07:19:16.000Z</time>
      </trkpt>
      <trkpt lat="43.36924" lon="6.10478">
        <ele>303.120884</ele>
        <time>2025-04-25T07:19:16.000Z</time>
      </trkpt>
      <trkpt lat="43.36923" lon="6.10465">
        <ele>303.075055</ele>
        <time>2025-04-25T07:19:17.000Z</time>
      </trkpt>
      <trkpt lat="43.36923" lon="6.10465">
        <ele>303.075055</ele>
        <time>2025-04-25T07:19:17.000Z</time>
      </trkpt>
      <trkpt lat="43.36923" lon="6.10462">
        <ele>303.063565</ele>
        <time>2025-04-25T07:19:18.000Z</time>
      </trkpt>
      <trkpt lat="43.36923" lon="6.1045">
        <ele>303.023498</ele>
        <time>2025-04-25T07:19:19.000Z</time>
      </trkpt>
      <trkpt lat="43.36923" lon="6.1045">
        <ele>303.023498</ele>
        <time>2025-04-25T07:19:19.000Z</time>
      </trkpt>
      <trkpt lat="43.36923" lon="6.10444">
        <ele>303.001214</ele>
        <time>2025-04-25T07:19:19.000Z</time>
      </trkpt>
      <trkpt lat="43.36923" lon="6.10444">
        <ele>303.001214</ele>
        <time>2025-04-25T07:19:19.000Z</time>
      </trkpt>
      <trkpt lat="43.36923" lon="6.10437">
        <ele>302.978189</ele>
        <time>2025-04-25T07:19:21.000Z</time>
      </trkpt>
      <trkpt lat="43.36922" lon="6.10432">
        <ele>302.959341</ele>
        <time>2025-04-25T07:19:22.000Z</time>
      </trkpt>
      <trkpt lat="43.3692" lon="6.10426">
        <ele>302.937907</ele>
        <time>2025-04-25T07:19:23.000Z</time>
      </trkpt>
      <trkpt lat="43.3692" lon="6.10426">
        <ele>302.937907</ele>
        <time>2025-04-25T07:19:23.000Z</time>
      </trkpt>
      <trkpt lat="43.36918" lon="6.1042">
        <ele>302.912443</ele>
        <time>2025-04-25T07:19:24.000Z</time>
      </trkpt>
      <trkpt lat="43.36915" lon="6.10414">
        <ele>302.89035</ele>
        <time>2025-04-25T07:19:24.000Z</time>
      </trkpt>
      <trkpt lat="43.36912" lon="6.10409">
        <ele>302.868572</ele>
        <time>2025-04-25T07:19:26.000Z</time>
      </trkpt>
      <trkpt lat="43.36908" lon="6.10405">
        <ele>302.843073</ele>
        <time>2025-04-25T07:19:26.000Z</time>
      </trkpt>
      <trkpt lat="43.36908" lon="6.10405">
        <ele>302.843073</ele>
        <time>2025-04-25T07:19:26.000Z</time>
      </trkpt>
      <trkpt lat="43.36904" lon="6.104">
        <ele>302.818692</ele>
        <time>2025-04-25T07:19:28.000Z</time>
      </trkpt>
      <trkpt lat="43.36901" lon="6.10395">
        <ele>302.793287</ele>
        <time>2025-04-25T07:19:29.000Z</time>
      </trkpt>
      <trkpt lat="43.36901" lon="6.10395">
        <ele>302.793287</ele>
        <time>2025-04-25T07:19:29.000Z</time>
      </trkpt>
      <trkpt lat="43.36898" lon="6.10389">
        <ele>302.769307</ele>
        <time>2025-04-25T07:19:30.000Z</time>
      </trkpt>
      <trkpt lat="43.36897" lon="6.10383">
        <ele>302.747214</ele>
        <time>2025-04-25T07:19:30.000Z</time>
      </trkpt>
      <trkpt lat="43.36896" lon="6.10376">
        <ele>302.746493</ele>
        <time>2025-04-25T07:19:32.000Z</time>
      </trkpt>
      <trkpt lat="43.36896" lon="6.10376">
        <ele>302.746493</ele>
        <time>2025-04-25T07:19:32.000Z</time>
      </trkpt>
      <trkpt lat="43.36897" lon="6.10371">
        <ele>302.772571</ele>
        <time>2025-04-25T07:19:33.000Z</time>
      </trkpt>
      <trkpt lat="43.36899" lon="6.1036">
        <ele>302.834577</ele>
        <time>2025-04-25T07:19:34.000Z</time>
      </trkpt>
      <trkpt lat="43.36899" lon="6.1036">
        <ele>302.834577</ele>
        <time>2025-04-25T07:19:34.000Z</time>
      </trkpt>
      <trkpt lat="43.369" lon="6.10353">
        <ele>302.877281</ele>
        <time>2025-04-25T07:19:35.000Z</time>
      </trkpt>
      <trkpt lat="43.36902" lon="6.10345">
        <ele>302.927342</ele>
        <time>2025-04-25T07:19:35.000Z</time>
      </trkpt>
      <trkpt lat="43.36902" lon="6.10345">
        <ele>302.927342</ele>
        <time>2025-04-25T07:19:35.000Z</time>
      </trkpt>
      <trkpt lat="43.36904" lon="6.10336">
        <ele>302.979559</ele>
        <time>2025-04-25T07:19:37.000Z</time>
      </trkpt>
      <trkpt lat="43.36906" lon="6.10326">
        <ele>303.03646</ele>
        <time>2025-04-25T07:19:37.000Z</time>
      </trkpt>
      <trkpt lat="43.36908" lon="6.10318">
        <ele>303.085343</ele>
        <time>2025-04-25T07:19:39.000Z</time>
      </trkpt>
      <trkpt lat="43.36909" lon="6.10314">
        <ele>303.106321</ele>
        <time>2025-04-25T07:19:40.000Z</time>
      </trkpt>
      <trkpt lat="43.36911" lon="6.10299">
        <ele>303.192219</ele>
        <time>2025-04-25T07:19:40.000Z</time>
      </trkpt>
      <trkpt lat="43.36913" lon="6.10291">
        <ele>303.242006</ele>
        <time>2025-04-25T07:19:42.000Z</time>
      </trkpt>
      <trkpt lat="43.36914" lon="6.10282">
        <ele>303.290197</ele>
        <time>2025-04-25T07:19:43.000Z</time>
      </trkpt>
      <trkpt lat="43.36914" lon="6.10282">
        <ele>303.290197</ele>
        <time>2025-04-25T07:19:43.000Z</time>
      </trkpt>
      <trkpt lat="43.36915" lon="6.10274">
        <ele>303.336675</ele>
        <time>2025-04-25T07:19:44.000Z</time>
      </trkpt>
      <trkpt lat="43.36915" lon="6.10265">
        <ele>303.385186</ele>
        <time>2025-04-25T07:19:45.000Z</time>
      </trkpt>
      <trkpt lat="43.36915" lon="6.10257">
        <ele>303.433599</ele>
        <time>2025-04-25T07:19:46.000Z</time>
      </trkpt>
      <trkpt lat="43.36915" lon="6.10257">
        <ele>303.433599</ele>
        <time>2025-04-25T07:19:46.000Z</time>
      </trkpt>
      <trkpt lat="43.36916" lon="6.10248">
        <ele>303.481549</ele>
        <time>2025-04-25T07:19:47.000Z</time>
      </trkpt>
      <trkpt lat="43.36917" lon="6.1024">
        <ele>303.529148</ele>
        <time>2025-04-25T07:19:48.000Z</time>
      </trkpt>
      <trkpt lat="43.36918" lon="6.10237">
        <ele>303.548198</ele>
        <time>2025-04-25T07:19:49.000Z</time>
      </trkpt>
      <trkpt lat="43.36921" lon="6.10224">
        <ele>303.623906</ele>
        <time>2025-04-25T07:19:50.000Z</time>
      </trkpt>
      <trkpt lat="43.36921" lon="6.10223">
        <ele>303.632374</ele>
        <time>2025-04-25T07:19:51.000Z</time>
      </trkpt>
      <trkpt lat="43.36921" lon="6.10223">
        <ele>303.632374</ele>
        <time>2025-04-25T07:19:51.000Z</time>
      </trkpt>
      <trkpt lat="43.36923" lon="6.10209">
        <ele>303.7131</ele>
        <time>2025-04-25T07:19:52.000Z</time>
      </trkpt>
      <trkpt lat="43.36924" lon="6.10201">
        <ele>303.755995</ele>
        <time>2025-04-25T07:19:53.000Z</time>
      </trkpt>
      <trkpt lat="43.36923" lon="6.10194">
        <ele>303.797554</ele>
        <time>2025-04-25T07:19:54.000Z</time>
      </trkpt>
      <trkpt lat="43.36921" lon="6.10188">
        <ele>303.836237</ele>
        <time>2025-04-25T07:19:55.000Z</time>
      </trkpt>
      <trkpt lat="43.36921" lon="6.10188">
        <ele>303.836237</ele>
        <time>2025-04-25T07:19:55.000Z</time>
      </trkpt>
      <trkpt lat="43.36918" lon="6.10183">
        <ele>303.871872</ele>
        <time>2025-04-25T07:19:56.000Z</time>
      </trkpt>
      <trkpt lat="43.36918" lon="6.10183">
        <ele>303.871872</ele>
        <time>2025-04-25T07:19:56.000Z</time>
      </trkpt>
      <trkpt lat="43.36913" lon="6.10179">
        <ele>303.910494</ele>
        <time>2025-04-25T07:19:57.000Z</time>
      </trkpt>
      <trkpt lat="43.36909" lon="6.10175">
        <ele>303.950052</ele>
        <time>2025-04-25T07:19:58.000Z</time>
      </trkpt>
      <trkpt lat="43.36909" lon="6.10175">
        <ele>303.950052</ele>
        <time>2025-04-25T07:19:58.000Z</time>
      </trkpt>
      <trkpt lat="43.36905" lon="6.10171">
        <ele>303.98888</ele>
        <time>2025-04-25T07:19:59.000Z</time>
      </trkpt>
      <trkpt lat="43.36901" lon="6.10165">
        <ele>304.032638</ele>
        <time>2025-04-25T07:20:00.000Z</time>
      </trkpt>
      <trkpt lat="43.36901" lon="6.10165">
        <ele>304.032638</ele>
        <time>2025-04-25T07:20:00.000Z</time>
      </trkpt>
      <trkpt lat="43.36897" lon="6.10159">
        <ele>304.080345</ele>
        <time>2025-04-25T07:20:01.000Z</time>
      </trkpt>
      <trkpt lat="43.36897" lon="6.10159">
        <ele>304.080345</ele>
        <time>2025-04-25T07:20:01.000Z</time>
      </trkpt>
      <trkpt lat="43.36894" lon="6.10152">
        <ele>304.130212</ele>
        <time>2025-04-25T07:20:02.000Z</time>
      </trkpt>
      <trkpt lat="43.36894" lon="6.10152">
        <ele>304.130212</ele>
        <time>2025-04-25T07:20:02.000Z</time>
      </trkpt>
      <trkpt lat="43.36892" lon="6.10144">
        <ele>304.210552</ele>
        <time>2025-04-25T07:20:03.000Z</time>
      </trkpt>
      <trkpt lat="43.36892" lon="6.10144">
        <ele>304.210552</ele>
        <time>2025-04-25T07:20:03.000Z</time>
      </trkpt>
      <trkpt lat="43.3689" lon="6.10137">
        <ele>304.289109</ele>
        <time>2025-04-25T07:20:04.000Z</time>
      </trkpt>
      <trkpt lat="43.36887" lon="6.10129">
        <ele>304.371045</ele>
        <time>2025-04-25T07:20:05.000Z</time>
      </trkpt>
      <trkpt lat="43.36887" lon="6.10129">
        <ele>304.371045</ele>
        <time>2025-04-25T07:20:05.000Z</time>
      </trkpt>
      <trkpt lat="43.36885" lon="6.10121">
        <ele>304.450435</ele>
        <time>2025-04-25T07:20:06.000Z</time>
      </trkpt>
      <trkpt lat="43.36885" lon="6.10121">
        <ele>304.450435</ele>
        <time>2025-04-25T07:20:06.000Z</time>
      </trkpt>
      <trkpt lat="43.36884" lon="6.10113">
        <ele>304.534238</ele>
        <time>2025-04-25T07:20:07.000Z</time>
      </trkpt>
      <trkpt lat="43.36884" lon="6.10113">
        <ele>304.534238</ele>
        <time>2025-04-25T07:20:07.000Z</time>
      </trkpt>
      <trkpt lat="43.36882" lon="6.10105">
        <ele>304.610917</ele>
        <time>2025-04-25T07:20:08.000Z</time>
      </trkpt>
      <trkpt lat="43.36882" lon="6.10105">
        <ele>304.610917</ele>
        <time>2025-04-25T07:20:08.000Z</time>
      </trkpt>
      <trkpt lat="43.36881" lon="6.10097">
        <ele>304.685703</ele>
        <time>2025-04-25T07:20:09.000Z</time>
      </trkpt>
      <trkpt lat="43.36879" lon="6.1009">
        <ele>304.756496</ele>
        <time>2025-04-25T07:20:10.000Z</time>
      </trkpt>
      <trkpt lat="43.36877" lon="6.10086">
        <ele>304.806718</ele>
        <time>2025-04-25T07:20:11.000Z</time>
      </trkpt>
      <trkpt lat="43.36874" lon="6.10081">
        <ele>304.875662</ele>
        <time>2025-04-25T07:20:12.000Z</time>
      </trkpt>
      <trkpt lat="43.36874" lon="6.10081">
        <ele>304.875662</ele>
        <time>2025-04-25T07:20:12.000Z</time>
      </trkpt>
      <trkpt lat="43.36871" lon="6.10076">
        <ele>304.934235</ele>
        <time>2025-04-25T07:20:13.000Z</time>
      </trkpt>
      <trkpt lat="43.3687" lon="6.10071">
        <ele>304.980053</ele>
        <time>2025-04-25T07:20:14.000Z</time>
      </trkpt>
      <trkpt lat="43.36868" lon="6.10065">
        <ele>305.045515</ele>
        <time>2025-04-25T07:20:15.000Z</time>
      </trkpt>
      <trkpt lat="43.36868" lon="6.10065">
        <ele>305.045515</ele>
        <time>2025-04-25T07:20:15.000Z</time>
      </trkpt>
      <trkpt lat="43.36865" lon="6.10061">
        <ele>305.101084</ele>
        <time>2025-04-25T07:20:16.000Z</time>
      </trkpt>
      <trkpt lat="43.36862" lon="6.10056">
        <ele>305.165763</ele>
        <time>2025-04-25T07:20:17.000Z</time>
      </trkpt>
      <trkpt lat="43.36859" lon="6.1005">
        <ele>305.233676</ele>
        <time>2025-04-25T07:20:18.000Z</time>
      </trkpt>
      <trkpt lat="43.36857" lon="6.10045">
        <ele>305.294912</ele>
        <time>2025-04-25T07:20:19.000Z</time>
      </trkpt>
      <trkpt lat="43.36857" lon="6.10045">
        <ele>305.294912</ele>
        <time>2025-04-25T07:20:19.000Z</time>
      </trkpt>
      <trkpt lat="43.36855" lon="6.10038">
        <ele>305.361629</ele>
        <time>2025-04-25T07:20:20.000Z</time>
      </trkpt>
      <trkpt lat="43.36854" lon="6.10031">
        <ele>305.431317</ele>
        <time>2025-04-25T07:20:21.000Z</time>
      </trkpt>
      <trkpt lat="43.36855" lon="6.10024">
        <ele>305.499081</ele>
        <time>2025-04-25T07:20:22.000Z</time>
      </trkpt>
      <trkpt lat="43.36855" lon="6.10024">
        <ele>305.499081</ele>
        <time>2025-04-25T07:20:22.000Z</time>
      </trkpt>
      <trkpt lat="43.36854" lon="6.10017">
        <ele>305.573582</ele>
        <time>2025-04-25T07:20:23.000Z</time>
      </trkpt>
      <trkpt lat="43.36854" lon="6.10009">
        <ele>305.645963</ele>
        <time>2025-04-25T07:20:24.000Z</time>
      </trkpt>
      <trkpt lat="43.36855" lon="6.10001">
        <ele>305.720464</ele>
        <time>2025-04-25T07:20:25.000Z</time>
      </trkpt>
      <trkpt lat="43.36855" lon="6.10001">
        <ele>305.720464</ele>
        <time>2025-04-25T07:20:25.000Z</time>
      </trkpt>
      <trkpt lat="43.36855" lon="6.09993">
        <ele>305.79727</ele>
        <time>2025-04-25T07:20:26.000Z</time>
      </trkpt>
      <trkpt lat="43.36857" lon="6.09986">
        <ele>305.876069</ele>
        <time>2025-04-25T07:20:27.000Z</time>
      </trkpt>
      <trkpt lat="43.36859" lon="6.09977">
        <ele>305.960456</ele>
        <time>2025-04-25T07:20:28.000Z</time>
      </trkpt>
      <trkpt lat="43.36859" lon="6.09977">
        <ele>305.960456</ele>
        <time>2025-04-25T07:20:28.000Z</time>
      </trkpt>
      <trkpt lat="43.36861" lon="6.09971">
        <ele>306.028068</ele>
        <time>2025-04-25T07:20:29.000Z</time>
      </trkpt>
      <trkpt lat="43.36863" lon="6.09963">
        <ele>306.112422</ele>
        <time>2025-04-25T07:20:30.000Z</time>
      </trkpt>
      <trkpt lat="43.36863" lon="6.09956">
        <ele>306.173454</ele>
        <time>2025-04-25T07:20:31.000Z</time>
      </trkpt>
      <trkpt lat="43.36863" lon="6.09956">
        <ele>306.173454</ele>
        <time>2025-04-25T07:20:31.000Z</time>
      </trkpt>
      <trkpt lat="43.36863" lon="6.09951">
        <ele>306.220081</ele>
        <time>2025-04-25T07:20:32.000Z</time>
      </trkpt>
      <trkpt lat="43.36861" lon="6.09948">
        <ele>306.25848</ele>
        <time>2025-04-25T07:20:33.000Z</time>
      </trkpt>
      <trkpt lat="43.36859" lon="6.09947">
        <ele>306.290267</ele>
        <time>2025-04-25T07:20:34.000Z</time>
      </trkpt>
      <trkpt lat="43.36855" lon="6.09947">
        <ele>306.336822</ele>
        <time>2025-04-25T07:20:35.000Z</time>
      </trkpt>
      <trkpt lat="43.36851" lon="6.09947">
        <ele>306.392589</ele>
        <time>2025-04-25T07:20:36.000Z</time>
      </trkpt>
      <trkpt lat="43.36851" lon="6.09947">
        <ele>306.392589</ele>
        <time>2025-04-25T07:20:36.000Z</time>
      </trkpt>
      <trkpt lat="43.36846" lon="6.09947">
        <ele>306.46295</ele>
        <time>2025-04-25T07:20:37.000Z</time>
      </trkpt>
      <trkpt lat="43.36841" lon="6.09947">
        <ele>306.523326</ele>
        <time>2025-04-25T07:20:38.000Z</time>
      </trkpt>
      <trkpt lat="43.36835" lon="6.09946">
        <ele>306.599703</ele>
        <time>2025-04-25T07:20:39.000Z</time>
      </trkpt>
      <trkpt lat="43.36831" lon="6.09946">
        <ele>306.657214</ele>
        <time>2025-04-25T07:20:40.000Z</time>
      </trkpt>
      <trkpt lat="43.36831" lon="6.09946">
        <ele>306.657214</ele>
        <time>2025-04-25T07:20:40.000Z</time>
      </trkpt>
      <trkpt lat="43.36826" lon="6.09945">
        <ele>306.71948</ele>
        <time>2025-04-25T07:20:41.000Z</time>
      </trkpt>
      <trkpt lat="43.36822" lon="6.09943">
        <ele>306.766103</ele>
        <time>2025-04-25T07:20:42.000Z</time>
      </trkpt>
      <trkpt lat="43.36819" lon="6.09941">
        <ele>306.811242</ele>
        <time>2025-04-25T07:20:43.000Z</time>
      </trkpt>
      <trkpt lat="43.36816" lon="6.09939">
        <ele>306.852365</ele>
        <time>2025-04-25T07:20:44.000Z</time>
      </trkpt>
      <trkpt lat="43.36815" lon="6.09936">
        <ele>306.881234</ele>
        <time>2025-04-25T07:20:45.000Z</time>
      </trkpt>
      <trkpt lat="43.36814" lon="6.09933">
        <ele>306.911928</ele>
        <time>2025-04-25T07:20:46.000Z</time>
      </trkpt>
      <trkpt lat="43.36814" lon="6.09933">
        <ele>306.911928</ele>
        <time>2025-04-25T07:20:46.000Z</time>
      </trkpt>
      <trkpt lat="43.36814" lon="6.09928">
        <ele>306.956654</ele>
        <time>2025-04-25T07:20:47.000Z</time>
      </trkpt>
      <trkpt lat="43.36813" lon="6.09922">
        <ele>307.010301</ele>
        <time>2025-04-25T07:20:48.000Z</time>
      </trkpt>
      <trkpt lat="43.36812" lon="6.09915">
        <ele>307.070832</ele>
        <time>2025-04-25T07:20:49.000Z</time>
      </trkpt>
      <trkpt lat="43.36812" lon="6.09915">
        <ele>307.070832</ele>
        <time>2025-04-25T07:20:49.000Z</time>
      </trkpt>
      <trkpt lat="43.3681" lon="6.0991">
        <ele>307.129364</ele>
        <time>2025-04-25T07:20:50.000Z</time>
      </trkpt>
      <trkpt lat="43.36808" lon="6.09903">
        <ele>307.197393</ele>
        <time>2025-04-25T07:20:51.000Z</time>
      </trkpt>
      <trkpt lat="43.36808" lon="6.09903">
        <ele>307.197393</ele>
        <time>2025-04-25T07:20:51.000Z</time>
      </trkpt>
      <trkpt lat="43.36805" lon="6.09896">
        <ele>307.262151</ele>
        <time>2025-04-25T07:20:52.000Z</time>
      </trkpt>
      <trkpt lat="43.36804" lon="6.09889">
        <ele>307.334459</ele>
        <time>2025-04-25T07:20:53.000Z</time>
      </trkpt>
      <trkpt lat="43.36804" lon="6.09885">
        <ele>307.365299</ele>
        <time>2025-04-25T07:20:54.000Z</time>
      </trkpt>
      <trkpt lat="43.36804" lon="6.09878">
        <ele>307.427886</ele>
        <time>2025-04-25T07:20:55.000Z</time>
      </trkpt>
      <trkpt lat="43.36804" lon="6.0987">
        <ele>307.503171</ele>
        <time>2025-04-25T07:20:56.000Z</time>
      </trkpt>
      <trkpt lat="43.36803" lon="6.09865">
        <ele>307.546689</ele>
        <time>2025-04-25T07:20:57.000Z</time>
      </trkpt>
      <trkpt lat="43.36803" lon="6.09865">
        <ele>307.546689</ele>
        <time>2025-04-25T07:20:57.000Z</time>
      </trkpt>
      <trkpt lat="43.36802" lon="6.09862">
        <ele>307.576956</ele>
        <time>2025-04-25T07:20:58.000Z</time>
      </trkpt>
      <trkpt lat="43.368" lon="6.0986">
        <ele>307.606359</ele>
        <time>2025-04-25T07:20:59.000Z</time>
      </trkpt>
      <trkpt lat="43.36799" lon="6.09857">
        <ele>307.640444</ele>
        <time>2025-04-25T07:21:00.000Z</time>
      </trkpt>
      <trkpt lat="43.36799" lon="6.09857">
        <ele>307.640444</ele>
        <time>2025-04-25T07:21:00.000Z</time>
      </trkpt>
      <trkpt lat="43.36796" lon="6.09853">
        <ele>307.689955</ele>
        <time>2025-04-25T07:21:01.000Z</time>
      </trkpt>
      <trkpt lat="43.36793" lon="6.09848">
        <ele>307.753053</ele>
        <time>2025-04-25T07:21:02.000Z</time>
      </trkpt>
      <trkpt lat="43.3679" lon="6.09842">
        <ele>307.815466</ele>
        <time>2025-04-25T07:21:03.000Z</time>
      </trkpt>
      <trkpt lat="43.3679" lon="6.09842">
        <ele>307.815466</ele>
        <time>2025-04-25T07:21:03.000Z</time>
      </trkpt>
      <trkpt lat="43.36787" lon="6.09837">
        <ele>307.877836</ele>
        <time>2025-04-25T07:21:04.000Z</time>
      </trkpt>
      <trkpt lat="43.36784" lon="6.09832">
        <ele>307.934332</ele>
        <time>2025-04-25T07:21:05.000Z</time>
      </trkpt>
      <trkpt lat="43.36784" lon="6.09832">
        <ele>307.934332</ele>
        <time>2025-04-25T07:21:05.000Z</time>
      </trkpt>
      <trkpt lat="43.36782" lon="6.09827">
        <ele>307.982756</ele>
        <time>2025-04-25T07:21:06.000Z</time>
      </trkpt>
      <trkpt lat="43.36778" lon="6.0982">
        <ele>308.062</ele>
        <time>2025-04-25T07:21:07.000Z</time>
      </trkpt>
      <trkpt lat="43.36775" lon="6.09816">
        <ele>308.118895</ele>
        <time>2025-04-25T07:21:08.000Z</time>
      </trkpt>
      <trkpt lat="43.36773" lon="6.09812">
        <ele>308.163053</ele>
        <time>2025-04-25T07:21:09.000Z</time>
      </trkpt>
      <trkpt lat="43.3677" lon="6.09807">
        <ele>308.219787</ele>
        <time>2025-04-25T07:21:10.000Z</time>
      </trkpt>
      <trkpt lat="43.3677" lon="6.09807">
        <ele>308.219787</ele>
        <time>2025-04-25T07:21:10.000Z</time>
      </trkpt>
      <trkpt lat="43.36767" lon="6.09804">
        <ele>308.263259</ele>
        <time>2025-04-25T07:21:10.000Z</time>
      </trkpt>
      <trkpt lat="43.36765" lon="6.09801">
        <ele>308.301582</ele>
        <time>2025-04-25T07:21:12.000Z</time>
      </trkpt>
      <trkpt lat="43.36765" lon="6.09801">
        <ele>308.301582</ele>
        <time>2025-04-25T07:21:12.000Z</time>
      </trkpt>
      <trkpt lat="43.36763" lon="6.098">
        <ele>308.32238</ele>
        <time>2025-04-25T07:21:13.000Z</time>
      </trkpt>
      <trkpt lat="43.36762" lon="6.098">
        <ele>308.346088</ele>
        <time>2025-04-25T07:21:14.000Z</time>
      </trkpt>
      <trkpt lat="43.3676" lon="6.098">
        <ele>308.370071</ele>
        <time>2025-04-25T07:21:15.000Z</time>
      </trkpt>
      <trkpt lat="43.3676" lon="6.098">
        <ele>308.370071</ele>
        <time>2025-04-25T07:21:15.000Z</time>
      </trkpt>
      <trkpt lat="43.36757" lon="6.098">
        <ele>308.398826</ele>
        <time>2025-04-25T07:21:16.000Z</time>
      </trkpt>
      <trkpt lat="43.36754" lon="6.098">
        <ele>308.437517</ele>
        <time>2025-04-25T07:21:17.000Z</time>
      </trkpt>
      <trkpt lat="43.36754" lon="6.098">
        <ele>308.437517</ele>
        <time>2025-04-25T07:21:17.000Z</time>
      </trkpt>
      <trkpt lat="43.36752" lon="6.09801">
        <ele>308.470969</ele>
        <time>2025-04-25T07:21:18.000Z</time>
      </trkpt>
      <trkpt lat="43.36748" lon="6.09801">
        <ele>308.519665</ele>
        <time>2025-04-25T07:21:19.000Z</time>
      </trkpt>
      <trkpt lat="43.36748" lon="6.09801">
        <ele>308.519665</ele>
        <time>2025-04-25T07:21:19.000Z</time>
      </trkpt>
      <trkpt lat="43.36744" lon="6.098">
        <ele>308.564217</ele>
        <time>2025-04-25T07:21:20.000Z</time>
      </trkpt>
      <trkpt lat="43.3674" lon="6.09798">
        <ele>308.619977</ele>
        <time>2025-04-25T07:21:21.000Z</time>
      </trkpt>
      <trkpt lat="43.3674" lon="6.09798">
        <ele>308.619977</ele>
        <time>2025-04-25T07:21:21.000Z</time>
      </trkpt>
      <trkpt lat="43.36736" lon="6.09796">
        <ele>308.670743</ele>
        <time>2025-04-25T07:21:22.000Z</time>
      </trkpt>
      <trkpt lat="43.36736" lon="6.09796">
        <ele>308.670743</ele>
        <time>2025-04-25T07:21:22.000Z</time>
      </trkpt>
      <trkpt lat="43.36733" lon="6.09793">
        <ele>308.722916</ele>
        <time>2025-04-25T07:21:23.000Z</time>
      </trkpt>
      <trkpt lat="43.36729" lon="6.09791">
        <ele>308.778969</ele>
        <time>2025-04-25T07:21:24.000Z</time>
      </trkpt>
      <trkpt lat="43.36729" lon="6.09791">
        <ele>308.778969</ele>
        <time>2025-04-25T07:21:24.000Z</time>
      </trkpt>
      <trkpt lat="43.36726" lon="6.09788">
        <ele>308.857831</ele>
        <time>2025-04-25T07:21:25.000Z</time>
      </trkpt>
      <trkpt lat="43.36726" lon="6.09788">
        <ele>308.857831</ele>
        <time>2025-04-25T07:21:25.000Z</time>
      </trkpt>
      <trkpt lat="43.36721" lon="6.09784">
        <ele>308.960661</ele>
        <time>2025-04-25T07:21:26.000Z</time>
      </trkpt>
      <trkpt lat="43.36721" lon="6.09784">
        <ele>308.960661</ele>
        <time>2025-04-25T07:21:26.000Z</time>
      </trkpt>
      <trkpt lat="43.36717" lon="6.0978">
        <ele>309.058576</ele>
        <time>2025-04-25T07:21:27.000Z</time>
      </trkpt>
      <trkpt lat="43.36713" lon="6.09778">
        <ele>309.135981</ele>
        <time>2025-04-25T07:21:28.000Z</time>
      </trkpt>
      <trkpt lat="43.36713" lon="6.09778">
        <ele>309.135981</ele>
        <time>2025-04-25T07:21:28.000Z</time>
      </trkpt>
      <trkpt lat="43.3671" lon="6.09777">
        <ele>309.205973</ele>
        <time>2025-04-25T07:21:29.000Z</time>
      </trkpt>
      <trkpt lat="43.3671" lon="6.09777">
        <ele>309.205973</ele>
        <time>2025-04-25T07:21:29.000Z</time>
      </trkpt>
      <trkpt lat="43.36706" lon="6.09776">
        <ele>309.281914</ele>
        <time>2025-04-25T07:21:30.000Z</time>
      </trkpt>
      <trkpt lat="43.36703" lon="6.09775">
        <ele>309.350802</ele>
        <time>2025-04-25T07:21:31.000Z</time>
      </trkpt>
      <trkpt lat="43.36703" lon="6.09775">
        <ele>309.350802</ele>
        <time>2025-04-25T07:21:31.000Z</time>
      </trkpt>
      <trkpt lat="43.367" lon="6.09773">
        <ele>309.401658</ele>
        <time>2025-04-25T07:21:32.000Z</time>
      </trkpt>
      <trkpt lat="43.367" lon="6.09773">
        <ele>309.401658</ele>
        <time>2025-04-25T07:21:32.000Z</time>
      </trkpt>
      <trkpt lat="43.36697" lon="6.09772">
        <ele>309.46433</ele>
        <time>2025-04-25T07:21:33.000Z</time>
      </trkpt>
      <trkpt lat="43.36697" lon="6.09772">
        <ele>309.46433</ele>
        <time>2025-04-25T07:21:33.000Z</time>
      </trkpt>
      <trkpt lat="43.36693" lon="6.09769">
        <ele>309.552914</ele>
        <time>2025-04-25T07:21:34.000Z</time>
      </trkpt>
      <trkpt lat="43.36689" lon="6.09766">
        <ele>309.652071</ele>
        <time>2025-04-25T07:21:35.000Z</time>
      </trkpt>
      <trkpt lat="43.36689" lon="6.09766">
        <ele>309.652071</ele>
        <time>2025-04-25T07:21:35.000Z</time>
      </trkpt>
      <trkpt lat="43.36684" lon="6.09763">
        <ele>309.743605</ele>
        <time>2025-04-25T07:21:36.000Z</time>
      </trkpt>
      <trkpt lat="43.36681" lon="6.09761">
        <ele>309.822358</ele>
        <time>2025-04-25T07:21:37.000Z</time>
      </trkpt>
      <trkpt lat="43.36677" lon="6.0976">
        <ele>309.890727</ele>
        <time>2025-04-25T07:21:38.000Z</time>
      </trkpt>
      <trkpt lat="43.36677" lon="6.0976">
        <ele>309.890727</ele>
        <time>2025-04-25T07:21:38.000Z</time>
      </trkpt>
      <trkpt lat="43.36674" lon="6.09758">
        <ele>309.95867</ele>
        <time>2025-04-25T07:21:39.000Z</time>
      </trkpt>
      <trkpt lat="43.36672" lon="6.09755">
        <ele>310.020407</ele>
        <time>2025-04-25T07:21:40.000Z</time>
      </trkpt>
      <trkpt lat="43.36669" lon="6.09752">
        <ele>310.090281</ele>
        <time>2025-04-25T07:21:41.000Z</time>
      </trkpt>
      <trkpt lat="43.36667" lon="6.09749">
        <ele>310.156141</ele>
        <time>2025-04-25T07:21:41.000Z</time>
      </trkpt>
      <trkpt lat="43.36663" lon="6.09747">
        <ele>310.219693</ele>
        <time>2025-04-25T07:21:43.000Z</time>
      </trkpt>
      <trkpt lat="43.3666" lon="6.09747">
        <ele>310.286879</ele>
        <time>2025-04-25T07:21:44.000Z</time>
      </trkpt>
      <trkpt lat="43.36656" lon="6.09748">
        <ele>310.363149</ele>
        <time>2025-04-25T07:21:45.000Z</time>
      </trkpt>
      <trkpt lat="43.36653" lon="6.0975">
        <ele>310.435742</ele>
        <time>2025-04-25T07:21:45.000Z</time>
      </trkpt>
      <trkpt lat="43.36649" lon="6.09753">
        <ele>310.522776</ele>
        <time>2025-04-25T07:21:46.000Z</time>
      </trkpt>
      <trkpt lat="43.36645" lon="6.09757">
        <ele>310.611851</ele>
        <time>2025-04-25T07:21:48.000Z</time>
      </trkpt>
      <trkpt lat="43.36645" lon="6.09757">
        <ele>310.611851</ele>
        <time>2025-04-25T07:21:48.000Z</time>
      </trkpt>
      <trkpt lat="43.36641" lon="6.09761">
        <ele>310.705051</ele>
        <time>2025-04-25T07:21:48.000Z</time>
      </trkpt>
      <trkpt lat="43.36636" lon="6.09764">
        <ele>310.813926</ele>
        <time>2025-04-25T07:21:50.000Z</time>
      </trkpt>
      <trkpt lat="43.36631" lon="6.09769">
        <ele>310.935458</ele>
        <time>2025-04-25T07:21:51.000Z</time>
      </trkpt>
      <trkpt lat="43.36631" lon="6.09769">
        <ele>310.935458</ele>
        <time>2025-04-25T07:21:51.000Z</time>
      </trkpt>
      <trkpt lat="43.36626" lon="6.09773">
        <ele>311.053207</ele>
        <time>2025-04-25T07:21:51.000Z</time>
      </trkpt>
      <trkpt lat="43.3662" lon="6.09777">
        <ele>311.178492</ele>
        <time>2025-04-25T07:21:53.000Z</time>
      </trkpt>
      <trkpt lat="43.3662" lon="6.09777">
        <ele>311.178492</ele>
        <time>2025-04-25T07:21:53.000Z</time>
      </trkpt>
      <trkpt lat="43.36615" lon="6.0978">
        <ele>311.284184</ele>
        <time>2025-04-25T07:21:54.000Z</time>
      </trkpt>
      <trkpt lat="43.36609" lon="6.09783">
        <ele>311.404097</ele>
        <time>2025-04-25T07:21:54.000Z</time>
      </trkpt>
      <trkpt lat="43.36605" lon="6.09785">
        <ele>311.499923</ele>
        <time>2025-04-25T07:21:56.000Z</time>
      </trkpt>
      <trkpt lat="43.36605" lon="6.09785">
        <ele>311.499923</ele>
        <time>2025-04-25T07:21:56.000Z</time>
      </trkpt>
      <trkpt lat="43.36601" lon="6.09788">
        <ele>311.588507</ele>
        <time>2025-04-25T07:21:57.000Z</time>
      </trkpt>
      <trkpt lat="43.36596" lon="6.09791">
        <ele>311.690898</ele>
        <time>2025-04-25T07:21:57.000Z</time>
      </trkpt>
      <trkpt lat="43.36593" lon="6.09795">
        <ele>311.771298</ele>
        <time>2025-04-25T07:21:59.000Z</time>
      </trkpt>
      <trkpt lat="43.36593" lon="6.09795">
        <ele>311.771298</ele>
        <time>2025-04-25T07:21:59.000Z</time>
      </trkpt>
      <trkpt lat="43.36589" lon="6.098">
        <ele>311.866568</ele>
        <time>2025-04-25T07:22:00.000Z</time>
      </trkpt>
      <trkpt lat="43.36587" lon="6.09804">
        <ele>311.942547</ele>
        <time>2025-04-25T07:22:00.000Z</time>
      </trkpt>
      <trkpt lat="43.36584" lon="6.09806">
        <ele>312.00367</ele>
        <time>2025-04-25T07:22:02.000Z</time>
      </trkpt>
      <trkpt lat="43.36584" lon="6.09806">
        <ele>312.00367</ele>
        <time>2025-04-25T07:22:02.000Z</time>
      </trkpt>
      <trkpt lat="43.36582" lon="6.09806">
        <ele>312.049025</ele>
        <time>2025-04-25T07:22:03.000Z</time>
      </trkpt>
      <trkpt lat="43.36578" lon="6.09807">
        <ele>312.115491</ele>
        <time>2025-04-25T07:22:03.000Z</time>
      </trkpt>
      <trkpt lat="43.36575" lon="6.09807">
        <ele>312.18952</ele>
        <time>2025-04-25T07:22:05.000Z</time>
      </trkpt>
      <trkpt lat="43.36575" lon="6.09807">
        <ele>312.18952</ele>
        <time>2025-04-25T07:22:05.000Z</time>
      </trkpt>
      <trkpt lat="43.3657" lon="6.09806">
        <ele>312.323685</ele>
        <time>2025-04-25T07:22:06.000Z</time>
      </trkpt>
      <trkpt lat="43.36565" lon="6.09806">
        <ele>312.549166</ele>
        <time>2025-04-25T07:22:06.000Z</time>
      </trkpt>
      <trkpt lat="43.3656" lon="6.09806">
        <ele>312.739023</ele>
        <time>2025-04-25T07:22:08.000Z</time>
      </trkpt>
      <trkpt lat="43.3656" lon="6.09806">
        <ele>312.739023</ele>
        <time>2025-04-25T07:22:08.000Z</time>
      </trkpt>
      <trkpt lat="43.36556" lon="6.09805">
        <ele>312.944089</ele>
        <time>2025-04-25T07:22:08.000Z</time>
      </trkpt>
      <trkpt lat="43.36552" lon="6.09804">
        <ele>313.122994</ele>
        <time>2025-04-25T07:22:10.000Z</time>
      </trkpt>
      <trkpt lat="43.36548" lon="6.09804">
        <ele>313.294391</ele>
        <time>2025-04-25T07:22:10.000Z</time>
      </trkpt>
      <trkpt lat="43.36548" lon="6.09804">
        <ele>313.294391</ele>
        <time>2025-04-25T07:22:10.000Z</time>
      </trkpt>
      <trkpt lat="43.36546" lon="6.09805">
        <ele>313.387353</ele>
        <time>2025-04-25T07:22:12.000Z</time>
      </trkpt>
      <trkpt lat="43.36543" lon="6.09807">
        <ele>313.534952</ele>
        <time>2025-04-25T07:22:12.000Z</time>
      </trkpt>
      <trkpt lat="43.36543" lon="6.09807">
        <ele>313.534952</ele>
        <time>2025-04-25T07:22:12.000Z</time>
      </trkpt>
      <trkpt lat="43.3654" lon="6.09809">
        <ele>313.692259</ele>
        <time>2025-04-25T07:22:14.000Z</time>
      </trkpt>
      <trkpt lat="43.3654" lon="6.09809">
        <ele>313.692259</ele>
        <time>2025-04-25T07:22:14.000Z</time>
      </trkpt>
      <trkpt lat="43.36536" lon="6.09813">
        <ele>313.898494</ele>
        <time>2025-04-25T07:22:15.000Z</time>
      </trkpt>
      <trkpt lat="43.36536" lon="6.09813">
        <ele>313.898494</ele>
        <time>2025-04-25T07:22:15.000Z</time>
      </trkpt>
      <trkpt lat="43.36533" lon="6.09817">
        <ele>314.118325</ele>
        <time>2025-04-25T07:22:16.000Z</time>
      </trkpt>
      <trkpt lat="43.36533" lon="6.09817">
        <ele>314.118325</ele>
        <time>2025-04-25T07:22:16.000Z</time>
      </trkpt>
      <trkpt lat="43.36529" lon="6.09822">
        <ele>314.344447</ele>
        <time>2025-04-25T07:22:17.000Z</time>
      </trkpt>
      <trkpt lat="43.36524" lon="6.09825">
        <ele>314.593139</ele>
        <time>2025-04-25T07:22:18.000Z</time>
      </trkpt>
      <trkpt lat="43.36524" lon="6.09825">
        <ele>314.593139</ele>
        <time>2025-04-25T07:22:18.000Z</time>
      </trkpt>
      <trkpt lat="43.36512" lon="6.09826">
        <ele>315.110248</ele>
        <time>2025-04-25T07:22:20.000Z</time>
      </trkpt>
      <trkpt lat="43.36512" lon="6.09826">
        <ele>315.110248</ele>
        <time>2025-04-25T07:22:20.000Z</time>
      </trkpt>
      <trkpt lat="43.36509" lon="6.09826">
        <ele>315.250391</ele>
        <time>2025-04-25T07:22:21.000Z</time>
      </trkpt>
      <trkpt lat="43.36509" lon="6.09826">
        <ele>315.250391</ele>
        <time>2025-04-25T07:22:21.000Z</time>
      </trkpt>
      <trkpt lat="43.36505" lon="6.09826">
        <ele>315.44005</ele>
        <time>2025-04-25T07:22:22.000Z</time>
      </trkpt>
      <trkpt lat="43.36505" lon="6.09826">
        <ele>315.44005</ele>
        <time>2025-04-25T07:22:22.000Z</time>
      </trkpt>
      <trkpt lat="43.36501" lon="6.09827">
        <ele>315.645614</ele>
        <time>2025-04-25T07:22:23.000Z</time>
      </trkpt>
      <trkpt lat="43.36501" lon="6.09827">
        <ele>315.645614</ele>
        <time>2025-04-25T07:22:23.000Z</time>
      </trkpt>
      <trkpt lat="43.36497" lon="6.09829">
        <ele>315.831126</ele>
        <time>2025-04-25T07:22:24.000Z</time>
      </trkpt>
      <trkpt lat="43.36497" lon="6.09829">
        <ele>315.831126</ele>
        <time>2025-04-25T07:22:24.000Z</time>
      </trkpt>
      <trkpt lat="43.36493" lon="6.09832">
        <ele>316.044544</ele>
        <time>2025-04-25T07:22:25.000Z</time>
      </trkpt>
      <trkpt lat="43.36493" lon="6.09832">
        <ele>316.044544</ele>
        <time>2025-04-25T07:22:25.000Z</time>
      </trkpt>
      <trkpt lat="43.36488" lon="6.09836">
        <ele>316.262669</ele>
        <time>2025-04-25T07:22:26.000Z</time>
      </trkpt>
      <trkpt lat="43.36488" lon="6.09836">
        <ele>316.262669</ele>
        <time>2025-04-25T07:22:26.000Z</time>
      </trkpt>
      <trkpt lat="43.36485" lon="6.0984">
        <ele>316.488792</ele>
        <time>2025-04-25T07:22:27.000Z</time>
      </trkpt>
      <trkpt lat="43.36485" lon="6.0984">
        <ele>316.488792</ele>
        <time>2025-04-25T07:22:27.000Z</time>
      </trkpt>
      <trkpt lat="43.36481" lon="6.09844">
        <ele>316.708625</ele>
        <time>2025-04-25T07:22:28.000Z</time>
      </trkpt>
      <trkpt lat="43.36481" lon="6.09844">
        <ele>316.708625</ele>
        <time>2025-04-25T07:22:28.000Z</time>
      </trkpt>
      <trkpt lat="43.36478" lon="6.09847">
        <ele>316.868527</ele>
        <time>2025-04-25T07:22:29.000Z</time>
      </trkpt>
      <trkpt lat="43.36478" lon="6.09847">
        <ele>316.868527</ele>
        <time>2025-04-25T07:22:29.000Z</time>
      </trkpt>
      <trkpt lat="43.36475" lon="6.09849">
        <ele>316.986274</ele>
        <time>2025-04-25T07:22:30.000Z</time>
      </trkpt>
      <trkpt lat="43.36475" lon="6.09849">
        <ele>316.986274</ele>
        <time>2025-04-25T07:22:30.000Z</time>
      </trkpt>
      <trkpt lat="43.36472" lon="6.09851">
        <ele>317.177669</ele>
        <time>2025-04-25T07:22:31.000Z</time>
      </trkpt>
      <trkpt lat="43.36472" lon="6.09851">
        <ele>317.177669</ele>
        <time>2025-04-25T07:22:31.000Z</time>
      </trkpt>
      <trkpt lat="43.36467" lon="6.09854">
        <ele>317.38537</ele>
        <time>2025-04-25T07:22:32.000Z</time>
      </trkpt>
      <trkpt lat="43.36467" lon="6.09854">
        <ele>317.38537</ele>
        <time>2025-04-25T07:22:32.000Z</time>
      </trkpt>
      <trkpt lat="43.36464" lon="6.09857">
        <ele>317.585299</ele>
        <time>2025-04-25T07:22:33.000Z</time>
      </trkpt>
      <trkpt lat="43.36464" lon="6.09857">
        <ele>317.585299</ele>
        <time>2025-04-25T07:22:33.000Z</time>
      </trkpt>
      <trkpt lat="43.36459" lon="6.0986">
        <ele>317.797884</ele>
        <time>2025-04-25T07:22:34.000Z</time>
      </trkpt>
      <trkpt lat="43.36459" lon="6.0986">
        <ele>317.797884</ele>
        <time>2025-04-25T07:22:34.000Z</time>
      </trkpt>
      <trkpt lat="43.36454" lon="6.09863">
        <ele>318.041335</ele>
        <time>2025-04-25T07:22:35.000Z</time>
      </trkpt>
      <trkpt lat="43.36454" lon="6.09863">
        <ele>318.041335</ele>
        <time>2025-04-25T07:22:35.000Z</time>
      </trkpt>
      <trkpt lat="43.36449" lon="6.09865">
        <ele>318.275262</ele>
        <time>2025-04-25T07:22:36.000Z</time>
      </trkpt>
      <trkpt lat="43.36449" lon="6.09865">
        <ele>318.275262</ele>
        <time>2025-04-25T07:22:36.000Z</time>
      </trkpt>
      <trkpt lat="43.36445" lon="6.09865">
        <ele>318.480328</ele>
        <time>2025-04-25T07:22:37.000Z</time>
      </trkpt>
      <trkpt lat="43.36445" lon="6.09865">
        <ele>318.480328</ele>
        <time>2025-04-25T07:22:37.000Z</time>
      </trkpt>
      <trkpt lat="43.3644" lon="6.09866">
        <ele>318.689422</ele>
        <time>2025-04-25T07:22:38.000Z</time>
      </trkpt>
      <trkpt lat="43.3644" lon="6.09866">
        <ele>318.689422</ele>
        <time>2025-04-25T07:22:38.000Z</time>
      </trkpt>
      <trkpt lat="43.36435" lon="6.09868">
        <ele>318.939238</ele>
        <time>2025-04-25T07:22:39.000Z</time>
      </trkpt>
      <trkpt lat="43.36435" lon="6.09868">
        <ele>318.939238</ele>
        <time>2025-04-25T07:22:39.000Z</time>
      </trkpt>
      <trkpt lat="43.3643" lon="6.09871">
        <ele>319.17608</ele>
        <time>2025-04-25T07:22:40.000Z</time>
      </trkpt>
      <trkpt lat="43.3643" lon="6.09871">
        <ele>319.17608</ele>
        <time>2025-04-25T07:22:40.000Z</time>
      </trkpt>
      <trkpt lat="43.36425" lon="6.09873">
        <ele>319.404273</ele>
        <time>2025-04-25T07:22:41.000Z</time>
      </trkpt>
      <trkpt lat="43.36425" lon="6.09873">
        <ele>319.404273</ele>
        <time>2025-04-25T07:22:41.000Z</time>
      </trkpt>
      <trkpt lat="43.3642" lon="6.09876">
        <ele>319.646507</ele>
        <time>2025-04-25T07:22:42.000Z</time>
      </trkpt>
      <trkpt lat="43.3642" lon="6.09876">
        <ele>319.646507</ele>
        <time>2025-04-25T07:22:42.000Z</time>
      </trkpt>
      <trkpt lat="43.36416" lon="6.09877">
        <ele>319.851573</ele>
        <time>2025-04-25T07:22:43.000Z</time>
      </trkpt>
      <trkpt lat="43.36416" lon="6.09877">
        <ele>319.851573</ele>
        <time>2025-04-25T07:22:43.000Z</time>
      </trkpt>
      <trkpt lat="43.36411" lon="6.09878">
        <ele>320.078976</ele>
        <time>2025-04-25T07:22:44.000Z</time>
      </trkpt>
      <trkpt lat="43.36411" lon="6.09878">
        <ele>320.078976</ele>
        <time>2025-04-25T07:22:44.000Z</time>
      </trkpt>
      <trkpt lat="43.36406" lon="6.09879">
        <ele>320.288507</ele>
        <time>2025-04-25T07:22:45.000Z</time>
      </trkpt>
      <trkpt lat="43.36402" lon="6.0988">
        <ele>320.709938</ele>
        <time>2025-04-25T07:22:46.000Z</time>
      </trkpt>
      <trkpt lat="43.36402" lon="6.0988">
        <ele>320.709938</ele>
        <time>2025-04-25T07:22:46.000Z</time>
      </trkpt>
      <trkpt lat="43.36398" lon="6.09879">
        <ele>321.202562</ele>
        <time>2025-04-25T07:22:47.000Z</time>
      </trkpt>
      <trkpt lat="43.36398" lon="6.09879">
        <ele>321.202562</ele>
        <time>2025-04-25T07:22:47.000Z</time>
      </trkpt>
      <trkpt lat="43.36393" lon="6.09877">
        <ele>321.7412</ele>
        <time>2025-04-25T07:22:48.000Z</time>
      </trkpt>
      <trkpt lat="43.3639" lon="6.09874">
        <ele>322.230906</ele>
        <time>2025-04-25T07:22:49.000Z</time>
      </trkpt>
      <trkpt lat="43.3639" lon="6.09874">
        <ele>322.230906</ele>
        <time>2025-04-25T07:22:49.000Z</time>
      </trkpt>
      <trkpt lat="43.36387" lon="6.09871">
        <ele>322.715034</ele>
        <time>2025-04-25T07:22:50.000Z</time>
      </trkpt>
      <trkpt lat="43.36383" lon="6.09869">
        <ele>323.137175</ele>
        <time>2025-04-25T07:22:51.000Z</time>
      </trkpt>
      <trkpt lat="43.3638" lon="6.09868">
        <ele>323.511623</ele>
        <time>2025-04-25T07:22:52.000Z</time>
      </trkpt>
      <trkpt lat="43.36378" lon="6.09868">
        <ele>323.787831</ele>
        <time>2025-04-25T07:22:53.000Z</time>
      </trkpt>
      <trkpt lat="43.36375" lon="6.09868">
        <ele>324.160288</ele>
        <time>2025-04-25T07:22:54.000Z</time>
      </trkpt>
      <trkpt lat="43.36375" lon="6.09868">
        <ele>324.160288</ele>
        <time>2025-04-25T07:22:54.000Z</time>
      </trkpt>
      <trkpt lat="43.36372" lon="6.09867">
        <ele>324.530248</ele>
        <time>2025-04-25T07:22:55.000Z</time>
      </trkpt>
      <trkpt lat="43.36368" lon="6.09865">
        <ele>325.014838</ele>
        <time>2025-04-25T07:22:56.000Z</time>
      </trkpt>
      <trkpt lat="43.36368" lon="6.09865">
        <ele>325.014838</ele>
        <time>2025-04-25T07:22:56.000Z</time>
      </trkpt>
      <trkpt lat="43.36366" lon="6.09863">
        <ele>325.378326</ele>
        <time>2025-04-25T07:22:57.000Z</time>
      </trkpt>
      <trkpt lat="43.36362" lon="6.0986">
        <ele>325.886994</ele>
        <time>2025-04-25T07:22:58.000Z</time>
      </trkpt>
      <trkpt lat="43.36362" lon="6.0986">
        <ele>325.886994</ele>
        <time>2025-04-25T07:22:58.000Z</time>
      </trkpt>
      <trkpt lat="43.36358" lon="6.09859">
        <ele>326.371585</ele>
        <time>2025-04-25T07:22:59.000Z</time>
      </trkpt>
      <trkpt lat="43.36358" lon="6.09859">
        <ele>326.371585</ele>
        <time>2025-04-25T07:22:59.000Z</time>
      </trkpt>
      <trkpt lat="43.36355" lon="6.09858">
        <ele>326.706708</ele>
        <time>2025-04-25T07:22:59.000Z</time>
      </trkpt>
      <trkpt lat="43.36355" lon="6.09858">
        <ele>326.706708</ele>
        <time>2025-04-25T07:22:59.000Z</time>
      </trkpt>
      <trkpt lat="43.36352" lon="6.09857">
        <ele>327.072956</ele>
        <time>2025-04-25T07:23:01.000Z</time>
      </trkpt>
      <trkpt lat="43.36352" lon="6.09857">
        <ele>327.072956</ele>
        <time>2025-04-25T07:23:01.000Z</time>
      </trkpt>
      <trkpt lat="43.36349" lon="6.09857">
        <ele>327.492525</ele>
        <time>2025-04-25T07:23:02.000Z</time>
      </trkpt>
      <trkpt lat="43.36349" lon="6.09857">
        <ele>327.492525</ele>
        <time>2025-04-25T07:23:02.000Z</time>
      </trkpt>
      <trkpt lat="43.36345" lon="6.09857">
        <ele>327.900391</ele>
        <time>2025-04-25T07:23:03.000Z</time>
      </trkpt>
      <trkpt lat="43.36345" lon="6.09857">
        <ele>327.900391</ele>
        <time>2025-04-25T07:23:03.000Z</time>
      </trkpt>
      <trkpt lat="43.36342" lon="6.09857">
        <ele>328.308258</ele>
        <time>2025-04-25T07:23:04.000Z</time>
      </trkpt>
      <trkpt lat="43.36342" lon="6.09857">
        <ele>328.308258</ele>
        <time>2025-04-25T07:23:04.000Z</time>
      </trkpt>
      <trkpt lat="43.36338" lon="6.09858">
        <ele>328.77964</ele>
        <time>2025-04-25T07:23:05.000Z</time>
      </trkpt>
      <trkpt lat="43.36338" lon="6.09858">
        <ele>328.77964</ele>
        <time>2025-04-25T07:23:05.000Z</time>
      </trkpt>
      <trkpt lat="43.36335" lon="6.09858">
        <ele>329.141823</ele>
        <time>2025-04-25T07:23:06.000Z</time>
      </trkpt>
      <trkpt lat="43.36335" lon="6.09858">
        <ele>329.141823</ele>
        <time>2025-04-25T07:23:06.000Z</time>
      </trkpt>
      <trkpt lat="43.36331" lon="6.09859">
        <ele>329.599336</ele>
        <time>2025-04-25T07:23:07.000Z</time>
      </trkpt>
      <trkpt lat="43.36331" lon="6.09859">
        <ele>329.599336</ele>
        <time>2025-04-25T07:23:07.000Z</time>
      </trkpt>
      <trkpt lat="43.36327" lon="6.09859">
        <ele>330.056849</ele>
        <time>2025-04-25T07:23:08.000Z</time>
      </trkpt>
      <trkpt lat="43.36327" lon="6.09859">
        <ele>330.056849</ele>
        <time>2025-04-25T07:23:08.000Z</time>
      </trkpt>
      <trkpt lat="43.36324" lon="6.0986">
        <ele>330.430933</ele>
        <time>2025-04-25T07:23:09.000Z</time>
      </trkpt>
      <trkpt lat="43.36324" lon="6.0986">
        <ele>330.430933</ele>
        <time>2025-04-25T07:23:09.000Z</time>
      </trkpt>
      <trkpt lat="43.36321" lon="6.0986">
        <ele>330.841767</ele>
        <time>2025-04-25T07:23:10.000Z</time>
      </trkpt>
      <trkpt lat="43.36321" lon="6.0986">
        <ele>330.841767</ele>
        <time>2025-04-25T07:23:10.000Z</time>
      </trkpt>
      <trkpt lat="43.36318" lon="6.09861">
        <ele>331.218278</ele>
        <time>2025-04-25T07:23:11.000Z</time>
      </trkpt>
      <trkpt lat="43.36318" lon="6.09861">
        <ele>331.218278</ele>
        <time>2025-04-25T07:23:11.000Z</time>
      </trkpt>
      <trkpt lat="43.36315" lon="6.09862">
        <ele>331.535804</ele>
        <time>2025-04-25T07:23:12.000Z</time>
      </trkpt>
      <trkpt lat="43.36315" lon="6.09862">
        <ele>331.535804</ele>
        <time>2025-04-25T07:23:12.000Z</time>
      </trkpt>
      <trkpt lat="43.36313" lon="6.09863">
        <ele>331.837247</ele>
        <time>2025-04-25T07:23:13.000Z</time>
      </trkpt>
      <trkpt lat="43.36313" lon="6.09863">
        <ele>331.837247</ele>
        <time>2025-04-25T07:23:13.000Z</time>
      </trkpt>
      <trkpt lat="43.36311" lon="6.09865">
        <ele>332.178055</ele>
        <time>2025-04-25T07:23:14.000Z</time>
      </trkpt>
      <trkpt lat="43.36311" lon="6.09865">
        <ele>332.178055</ele>
        <time>2025-04-25T07:23:14.000Z</time>
      </trkpt>
      <trkpt lat="43.36308" lon="6.09869">
        <ele>332.582721</ele>
        <time>2025-04-25T07:23:14.000Z</time>
      </trkpt>
      <trkpt lat="43.36308" lon="6.09869">
        <ele>332.582721</ele>
        <time>2025-04-25T07:23:14.000Z</time>
      </trkpt>
      <trkpt lat="43.36306" lon="6.09872">
        <ele>333.021449</ele>
        <time>2025-04-25T07:23:16.000Z</time>
      </trkpt>
      <trkpt lat="43.36306" lon="6.09872">
        <ele>333.021449</ele>
        <time>2025-04-25T07:23:16.000Z</time>
      </trkpt>
      <trkpt lat="43.36303" lon="6.09875">
        <ele>333.421529</ele>
        <time>2025-04-25T07:23:17.000Z</time>
      </trkpt>
      <trkpt lat="43.36303" lon="6.09875">
        <ele>333.421529</ele>
        <time>2025-04-25T07:23:17.000Z</time>
      </trkpt>
      <trkpt lat="43.363" lon="6.09878">
        <ele>333.846502</ele>
        <time>2025-04-25T07:23:18.000Z</time>
      </trkpt>
      <trkpt lat="43.363" lon="6.09878">
        <ele>333.846502</ele>
        <time>2025-04-25T07:23:18.000Z</time>
      </trkpt>
      <trkpt lat="43.36297" lon="6.09879">
        <ele>334.206106</ele>
        <time>2025-04-25T07:23:19.000Z</time>
      </trkpt>
      <trkpt lat="43.36297" lon="6.09879">
        <ele>334.206106</ele>
        <time>2025-04-25T07:23:19.000Z</time>
      </trkpt>
      <trkpt lat="43.36294" lon="6.09881">
        <ele>334.594976</ele>
        <time>2025-04-25T07:23:20.000Z</time>
      </trkpt>
      <trkpt lat="43.36294" lon="6.09881">
        <ele>334.594976</ele>
        <time>2025-04-25T07:23:20.000Z</time>
      </trkpt>
      <trkpt lat="43.36291" lon="6.09883">
        <ele>335.005354</ele>
        <time>2025-04-25T07:23:21.000Z</time>
      </trkpt>
      <trkpt lat="43.36291" lon="6.09883">
        <ele>335.005354</ele>
        <time>2025-04-25T07:23:21.000Z</time>
      </trkpt>
      <trkpt lat="43.36288" lon="6.09885">
        <ele>335.39099</ele>
        <time>2025-04-25T07:23:22.000Z</time>
      </trkpt>
      <trkpt lat="43.36288" lon="6.09885">
        <ele>335.39099</ele>
        <time>2025-04-25T07:23:22.000Z</time>
      </trkpt>
      <trkpt lat="43.36285" lon="6.09886">
        <ele>335.750594</ele>
        <time>2025-04-25T07:23:22.000Z</time>
      </trkpt>
      <trkpt lat="43.36285" lon="6.09886">
        <ele>335.750594</ele>
        <time>2025-04-25T07:23:22.000Z</time>
      </trkpt>
      <trkpt lat="43.36283" lon="6.09888">
        <ele>336.072146</ele>
        <time>2025-04-25T07:23:24.000Z</time>
      </trkpt>
      <trkpt lat="43.36283" lon="6.09888">
        <ele>336.072146</ele>
        <time>2025-04-25T07:23:24.000Z</time>
      </trkpt>
      <trkpt lat="43.36281" lon="6.09891">
        <ele>336.412954</ele>
        <time>2025-04-25T07:23:25.000Z</time>
      </trkpt>
      <trkpt lat="43.36281" lon="6.09891">
        <ele>336.412954</ele>
        <time>2025-04-25T07:23:25.000Z</time>
      </trkpt>
      <trkpt lat="43.36279" lon="6.09892">
        <ele>336.710978</ele>
        <time>2025-04-25T07:23:26.000Z</time>
      </trkpt>
      <trkpt lat="43.36279" lon="6.09892">
        <ele>336.710978</ele>
        <time>2025-04-25T07:23:26.000Z</time>
      </trkpt>
      <trkpt lat="43.36276" lon="6.09894">
        <ele>337.106815</ele>
        <time>2025-04-25T07:23:27.000Z</time>
      </trkpt>
      <trkpt lat="43.36276" lon="6.09894">
        <ele>337.106815</ele>
        <time>2025-04-25T07:23:27.000Z</time>
      </trkpt>
      <trkpt lat="43.36273" lon="6.09896">
        <ele>337.447624</ele>
        <time>2025-04-25T07:23:28.000Z</time>
      </trkpt>
      <trkpt lat="43.36273" lon="6.09896">
        <ele>337.447624</ele>
        <time>2025-04-25T07:23:28.000Z</time>
      </trkpt>
      <trkpt lat="43.3627" lon="6.09899">
        <ele>337.922572</ele>
        <time>2025-04-25T07:23:29.000Z</time>
      </trkpt>
      <trkpt lat="43.3627" lon="6.09899">
        <ele>337.922572</ele>
        <time>2025-04-25T07:23:29.000Z</time>
      </trkpt>
      <trkpt lat="43.36264" lon="6.09905">
        <ele>338.842072</ele>
        <time>2025-04-25T07:23:30.000Z</time>
      </trkpt>
      <trkpt lat="43.36264" lon="6.09905">
        <ele>338.842072</ele>
        <time>2025-04-25T07:23:30.000Z</time>
      </trkpt>
      <trkpt lat="43.3626" lon="6.09909">
        <ele>339.376484</ele>
        <time>2025-04-25T07:23:32.000Z</time>
      </trkpt>
      <trkpt lat="43.3626" lon="6.09909">
        <ele>339.376484</ele>
        <time>2025-04-25T07:23:32.000Z</time>
      </trkpt>
      <trkpt lat="43.36258" lon="6.09912">
        <ele>339.768573</ele>
        <time>2025-04-25T07:23:33.000Z</time>
      </trkpt>
      <trkpt lat="43.36258" lon="6.09912">
        <ele>339.768573</ele>
        <time>2025-04-25T07:23:33.000Z</time>
      </trkpt>
      <trkpt lat="43.36256" lon="6.09916">
        <ele>340.192752</ele>
        <time>2025-04-25T07:23:33.000Z</time>
      </trkpt>
      <trkpt lat="43.36256" lon="6.09916">
        <ele>340.192752</ele>
        <time>2025-04-25T07:23:33.000Z</time>
      </trkpt>
      <trkpt lat="43.36252" lon="6.09924">
        <ele>340.989303</ele>
        <time>2025-04-25T07:23:35.000Z</time>
      </trkpt>
      <trkpt lat="43.36252" lon="6.09924">
        <ele>340.989303</ele>
        <time>2025-04-25T07:23:35.000Z</time>
      </trkpt>
      <trkpt lat="43.3625" lon="6.09927">
        <ele>341.376928</ele>
        <time>2025-04-25T07:23:36.000Z</time>
      </trkpt>
      <trkpt lat="43.3625" lon="6.09927">
        <ele>341.376928</ele>
        <time>2025-04-25T07:23:36.000Z</time>
      </trkpt>
      <trkpt lat="43.36249" lon="6.0993">
        <ele>341.685356</ele>
        <time>2025-04-25T07:23:36.000Z</time>
      </trkpt>
      <trkpt lat="43.36249" lon="6.0993">
        <ele>341.685356</ele>
        <time>2025-04-25T07:23:36.000Z</time>
      </trkpt>
      <trkpt lat="43.36247" lon="6.09934">
        <ele>342.023571</ele>
        <time>2025-04-25T07:23:37.000Z</time>
      </trkpt>
      <trkpt lat="43.36247" lon="6.09934">
        <ele>342.023571</ele>
        <time>2025-04-25T07:23:37.000Z</time>
      </trkpt>
      <trkpt lat="43.36245" lon="6.09937">
        <ele>342.322833</ele>
        <time>2025-04-25T07:23:39.000Z</time>
      </trkpt>
      <trkpt lat="43.36245" lon="6.09937">
        <ele>342.322833</ele>
        <time>2025-04-25T07:23:39.000Z</time>
      </trkpt>
      <trkpt lat="43.36243" lon="6.09941">
        <ele>342.699559</ele>
        <time>2025-04-25T07:23:39.000Z</time>
      </trkpt>
      <trkpt lat="43.36243" lon="6.09941">
        <ele>342.699559</ele>
        <time>2025-04-25T07:23:39.000Z</time>
      </trkpt>
      <trkpt lat="43.36241" lon="6.09944">
        <ele>343.010943</ele>
        <time>2025-04-25T07:23:40.000Z</time>
      </trkpt>
      <trkpt lat="43.36241" lon="6.09944">
        <ele>343.010943</ele>
        <time>2025-04-25T07:23:40.000Z</time>
      </trkpt>
      <trkpt lat="43.36239" lon="6.09947">
        <ele>343.297695</ele>
        <time>2025-04-25T07:23:41.000Z</time>
      </trkpt>
      <trkpt lat="43.36239" lon="6.09947">
        <ele>343.297695</ele>
        <time>2025-04-25T07:23:41.000Z</time>
      </trkpt>
      <trkpt lat="43.36237" lon="6.09949">
        <ele>343.573691</ele>
        <time>2025-04-25T07:23:42.000Z</time>
      </trkpt>
      <trkpt lat="43.36237" lon="6.09949">
        <ele>343.573691</ele>
        <time>2025-04-25T07:23:42.000Z</time>
      </trkpt>
      <trkpt lat="43.36234" lon="6.09955">
        <ele>344.137344</ele>
        <time>2025-04-25T07:23:45.000Z</time>
      </trkpt>
      <trkpt lat="43.36234" lon="6.09955">
        <ele>344.137344</ele>
        <time>2025-04-25T07:23:45.000Z</time>
      </trkpt>
      <trkpt lat="43.36232" lon="6.09958">
        <ele>344.446666</ele>
        <time>2025-04-25T07:23:45.000Z</time>
      </trkpt>
      <trkpt lat="43.36232" lon="6.09958">
        <ele>344.446666</ele>
        <time>2025-04-25T07:23:45.000Z</time>
      </trkpt>
      <trkpt lat="43.3623" lon="6.0996">
        <ele>344.702422</ele>
        <time>2025-04-25T07:23:47.000Z</time>
      </trkpt>
      <trkpt lat="43.3623" lon="6.0996">
        <ele>344.702422</ele>
        <time>2025-04-25T07:23:47.000Z</time>
      </trkpt>
      <trkpt lat="43.36229" lon="6.09963">
        <ele>344.945101</ele>
        <time>2025-04-25T07:23:48.000Z</time>
      </trkpt>
      <trkpt lat="43.36229" lon="6.09963">
        <ele>344.945101</ele>
        <time>2025-04-25T07:23:48.000Z</time>
      </trkpt>
      <trkpt lat="43.36227" lon="6.09966">
        <ele>345.221096</ele>
        <time>2025-04-25T07:23:48.000Z</time>
      </trkpt>
      <trkpt lat="43.36227" lon="6.09966">
        <ele>345.221096</ele>
        <time>2025-04-25T07:23:48.000Z</time>
      </trkpt>
      <trkpt lat="43.36225" lon="6.09968">
        <ele>345.489555</ele>
        <time>2025-04-25T07:23:49.000Z</time>
      </trkpt>
      <trkpt lat="43.36225" lon="6.09968">
        <ele>345.489555</ele>
        <time>2025-04-25T07:23:49.000Z</time>
      </trkpt>
      <trkpt lat="43.36223" lon="6.0997">
        <ele>345.755202</ele>
        <time>2025-04-25T07:23:50.000Z</time>
      </trkpt>
      <trkpt lat="43.36223" lon="6.0997">
        <ele>345.755202</ele>
        <time>2025-04-25T07:23:50.000Z</time>
      </trkpt>
      <trkpt lat="43.3622" lon="6.09975">
        <ele>346.246356</ele>
        <time>2025-04-25T07:23:53.000Z</time>
      </trkpt>
      <trkpt lat="43.3622" lon="6.09975">
        <ele>346.246356</ele>
        <time>2025-04-25T07:23:53.000Z</time>
      </trkpt>
      <trkpt lat="43.36218" lon="6.09977">
        <ele>346.466763</ele>
        <time>2025-04-25T07:23:53.000Z</time>
      </trkpt>
      <trkpt lat="43.36218" lon="6.09977">
        <ele>346.466763</ele>
        <time>2025-04-25T07:23:53.000Z</time>
      </trkpt>
      <trkpt lat="43.36216" lon="6.0998">
        <ele>346.759034</ele>
        <time>2025-04-25T07:23:55.000Z</time>
      </trkpt>
      <trkpt lat="43.36216" lon="6.0998">
        <ele>346.759034</ele>
        <time>2025-04-25T07:23:55.000Z</time>
      </trkpt>
      <trkpt lat="43.36215" lon="6.09983">
        <ele>347.031592</ele>
        <time>2025-04-25T07:23:56.000Z</time>
      </trkpt>
      <trkpt lat="43.36215" lon="6.09983">
        <ele>347.031592</ele>
        <time>2025-04-25T07:23:56.000Z</time>
      </trkpt>
      <trkpt lat="43.36213" lon="6.09985">
        <ele>347.251999</ele>
        <time>2025-04-25T07:23:57.000Z</time>
      </trkpt>
      <trkpt lat="43.36213" lon="6.09985">
        <ele>347.251999</ele>
        <time>2025-04-25T07:23:57.000Z</time>
      </trkpt>
      <trkpt lat="43.36212" lon="6.09988">
        <ele>347.494678</ele>
        <time>2025-04-25T07:23:58.000Z</time>
      </trkpt>
      <trkpt lat="43.36212" lon="6.09988">
        <ele>347.494678</ele>
        <time>2025-04-25T07:23:58.000Z</time>
      </trkpt>
      <trkpt lat="43.3621" lon="6.09991">
        <ele>347.853484</ele>
        <time>2025-04-25T07:23:59.000Z</time>
      </trkpt>
      <trkpt lat="43.3621" lon="6.09991">
        <ele>347.853484</ele>
        <time>2025-04-25T07:23:59.000Z</time>
      </trkpt>
      <trkpt lat="43.36209" lon="6.09994">
        <ele>348.074475</ele>
        <time>2025-04-25T07:23:59.000Z</time>
      </trkpt>
      <trkpt lat="43.36209" lon="6.09994">
        <ele>348.074475</ele>
        <time>2025-04-25T07:23:59.000Z</time>
      </trkpt>
      <trkpt lat="43.36209" lon="6.09999">
        <ele>348.399033</ele>
        <time>2025-04-25T07:24:01.000Z</time>
      </trkpt>
      <trkpt lat="43.36209" lon="6.09999">
        <ele>348.399033</ele>
        <time>2025-04-25T07:24:01.000Z</time>
      </trkpt>
      <trkpt lat="43.36208" lon="6.10003">
        <ele>348.69391</ele>
        <time>2025-04-25T07:24:02.000Z</time>
      </trkpt>
      <trkpt lat="43.36208" lon="6.10003">
        <ele>348.69391</ele>
        <time>2025-04-25T07:24:02.000Z</time>
      </trkpt>
      <trkpt lat="43.36209" lon="6.10007">
        <ele>349.018468</ele>
        <time>2025-04-25T07:24:03.000Z</time>
      </trkpt>
      <trkpt lat="43.36209" lon="6.10007">
        <ele>349.018468</ele>
        <time>2025-04-25T07:24:03.000Z</time>
      </trkpt>
      <trkpt lat="43.36209" lon="6.10011">
        <ele>349.362862</ele>
        <time>2025-04-25T07:24:04.000Z</time>
      </trkpt>
      <trkpt lat="43.36209" lon="6.10011">
        <ele>349.362862</ele>
        <time>2025-04-25T07:24:04.000Z</time>
      </trkpt>
      <trkpt lat="43.36209" lon="6.10016">
        <ele>349.70971</ele>
        <time>2025-04-25T07:24:04.000Z</time>
      </trkpt>
      <trkpt lat="43.36209" lon="6.10016">
        <ele>349.70971</ele>
        <time>2025-04-25T07:24:04.000Z</time>
      </trkpt>
      <trkpt lat="43.36209" lon="6.1002">
        <ele>349.994209</ele>
        <time>2025-04-25T07:24:06.000Z</time>
      </trkpt>
      <trkpt lat="43.36209" lon="6.1002">
        <ele>349.994209</ele>
        <time>2025-04-25T07:24:06.000Z</time>
      </trkpt>
      <trkpt lat="43.3621" lon="6.10024">
        <ele>350.311342</ele>
        <time>2025-04-25T07:24:07.000Z</time>
      </trkpt>
      <trkpt lat="43.3621" lon="6.10024">
        <ele>350.311342</ele>
        <time>2025-04-25T07:24:07.000Z</time>
      </trkpt>
      <trkpt lat="43.3621" lon="6.10028">
        <ele>350.595842</ele>
        <time>2025-04-25T07:24:07.000Z</time>
      </trkpt>
      <trkpt lat="43.3621" lon="6.10028">
        <ele>350.595842</ele>
        <time>2025-04-25T07:24:07.000Z</time>
      </trkpt>
      <trkpt lat="43.3621" lon="6.10032">
        <ele>350.94269</ele>
        <time>2025-04-25T07:24:09.000Z</time>
      </trkpt>
      <trkpt lat="43.3621" lon="6.10032">
        <ele>350.94269</ele>
        <time>2025-04-25T07:24:09.000Z</time>
      </trkpt>
      <trkpt lat="43.36211" lon="6.10041">
        <ele>351.583007</ele>
        <time>2025-04-25T07:24:11.000Z</time>
      </trkpt>
      <trkpt lat="43.36211" lon="6.10041">
        <ele>351.583007</ele>
        <time>2025-04-25T07:24:11.000Z</time>
      </trkpt>
      <trkpt lat="43.36212" lon="6.10044">
        <ele>351.850558</ele>
        <time>2025-04-25T07:24:11.000Z</time>
      </trkpt>
      <trkpt lat="43.36212" lon="6.10044">
        <ele>351.850558</ele>
        <time>2025-04-25T07:24:11.000Z</time>
      </trkpt>
      <trkpt lat="43.36213" lon="6.10048">
        <ele>352.144047</ele>
        <time>2025-04-25T07:24:12.000Z</time>
      </trkpt>
      <trkpt lat="43.36213" lon="6.10048">
        <ele>352.144047</ele>
        <time>2025-04-25T07:24:12.000Z</time>
      </trkpt>
      <trkpt lat="43.36213" lon="6.10056">
        <ele>352.744407</ele>
        <time>2025-04-25T07:24:15.000Z</time>
      </trkpt>
      <trkpt lat="43.36213" lon="6.10056">
        <ele>352.744407</ele>
        <time>2025-04-25T07:24:15.000Z</time>
      </trkpt>
      <trkpt lat="43.36213" lon="6.10061">
        <ele>353.09869</ele>
        <time>2025-04-25T07:24:15.000Z</time>
      </trkpt>
      <trkpt lat="43.36213" lon="6.10061">
        <ele>353.09869</ele>
        <time>2025-04-25T07:24:15.000Z</time>
      </trkpt>
      <trkpt lat="43.36213" lon="6.10065">
        <ele>353.438106</ele>
        <time>2025-04-25T07:24:16.000Z</time>
      </trkpt>
      <trkpt lat="43.36213" lon="6.10065">
        <ele>353.438106</ele>
        <time>2025-04-25T07:24:16.000Z</time>
      </trkpt>
      <trkpt lat="43.36212" lon="6.10069">
        <ele>353.739168</ele>
        <time>2025-04-25T07:24:17.000Z</time>
      </trkpt>
      <trkpt lat="43.36212" lon="6.10069">
        <ele>353.739168</ele>
        <time>2025-04-25T07:24:17.000Z</time>
      </trkpt>
      <trkpt lat="43.36211" lon="6.10073">
        <ele>354.05699</ele>
        <time>2025-04-25T07:24:18.000Z</time>
      </trkpt>
      <trkpt lat="43.36211" lon="6.10073">
        <ele>354.05699</ele>
        <time>2025-04-25T07:24:18.000Z</time>
      </trkpt>
      <trkpt lat="43.36211" lon="6.10077">
        <ele>354.338825</ele>
        <time>2025-04-25T07:24:19.000Z</time>
      </trkpt>
      <trkpt lat="43.36211" lon="6.10077">
        <ele>354.338825</ele>
        <time>2025-04-25T07:24:19.000Z</time>
      </trkpt>
      <trkpt lat="43.3621" lon="6.10081">
        <ele>354.632441</ele>
        <time>2025-04-25T07:24:20.000Z</time>
      </trkpt>
      <trkpt lat="43.3621" lon="6.10081">
        <ele>354.632441</ele>
        <time>2025-04-25T07:24:20.000Z</time>
      </trkpt>
      <trkpt lat="43.3621" lon="6.10084">
        <ele>354.905096</ele>
        <time>2025-04-25T07:24:22.000Z</time>
      </trkpt>
      <trkpt lat="43.3621" lon="6.10084">
        <ele>354.905096</ele>
        <time>2025-04-25T07:24:22.000Z</time>
      </trkpt>
      <trkpt lat="43.36209" lon="6.10088">
        <ele>355.165534</ele>
        <time>2025-04-25T07:24:22.000Z</time>
      </trkpt>
      <trkpt lat="43.36209" lon="6.10088">
        <ele>355.165534</ele>
        <time>2025-04-25T07:24:22.000Z</time>
      </trkpt>
      <trkpt lat="43.36208" lon="6.10092">
        <ele>355.492728</ele>
        <time>2025-04-25T07:24:23.000Z</time>
      </trkpt>
      <trkpt lat="43.36208" lon="6.10092">
        <ele>355.492728</ele>
        <time>2025-04-25T07:24:23.000Z</time>
      </trkpt>
      <trkpt lat="43.36206" lon="6.10094">
        <ele>355.774055</ele>
        <time>2025-04-25T07:24:24.000Z</time>
      </trkpt>
      <trkpt lat="43.36206" lon="6.10094">
        <ele>355.774055</ele>
        <time>2025-04-25T07:24:24.000Z</time>
      </trkpt>
      <trkpt lat="43.36204" lon="6.10098">
        <ele>356.105664</ele>
        <time>2025-04-25T07:24:25.000Z</time>
      </trkpt>
      <trkpt lat="43.36204" lon="6.10098">
        <ele>356.105664</ele>
        <time>2025-04-25T07:24:25.000Z</time>
      </trkpt>
      <trkpt lat="43.36202" lon="6.101">
        <ele>356.38166</ele>
        <time>2025-04-25T07:24:26.000Z</time>
      </trkpt>
      <trkpt lat="43.36202" lon="6.101">
        <ele>356.38166</ele>
        <time>2025-04-25T07:24:26.000Z</time>
      </trkpt>
      <trkpt lat="43.362" lon="6.10103">
        <ele>356.702967</ele>
        <time>2025-04-25T07:24:27.000Z</time>
      </trkpt>
      <trkpt lat="43.362" lon="6.10103">
        <ele>356.702967</ele>
        <time>2025-04-25T07:24:27.000Z</time>
      </trkpt>
      <trkpt lat="43.36197" lon="6.10105">
        <ele>356.987251</ele>
        <time>2025-04-25T07:24:29.000Z</time>
      </trkpt>
      <trkpt lat="43.36197" lon="6.10105">
        <ele>356.987251</ele>
        <time>2025-04-25T07:24:29.000Z</time>
      </trkpt>
      <trkpt lat="43.36195" lon="6.10107">
        <ele>357.303048</ele>
        <time>2025-04-25T07:24:30.000Z</time>
      </trkpt>
      <trkpt lat="43.36195" lon="6.10107">
        <ele>357.303048</ele>
        <time>2025-04-25T07:24:30.000Z</time>
      </trkpt>
      <trkpt lat="43.36192" lon="6.10108">
        <ele>357.547354</ele>
        <time>2025-04-25T07:24:30.000Z</time>
      </trkpt>
      <trkpt lat="43.36192" lon="6.10108">
        <ele>357.547354</ele>
        <time>2025-04-25T07:24:30.000Z</time>
      </trkpt>
      <trkpt lat="43.3619" lon="6.10109">
        <ele>357.831773</ele>
        <time>2025-04-25T07:24:31.000Z</time>
      </trkpt>
      <trkpt lat="43.3619" lon="6.10109">
        <ele>357.831773</ele>
        <time>2025-04-25T07:24:31.000Z</time>
      </trkpt>
      <trkpt lat="43.36187" lon="6.1011">
        <ele>358.151497</ele>
        <time>2025-04-25T07:24:32.000Z</time>
      </trkpt>
      <trkpt lat="43.36184" lon="6.1011">
        <ele>358.471519</ele>
        <time>2025-04-25T07:24:33.000Z</time>
      </trkpt>
      <trkpt lat="43.36184" lon="6.1011">
        <ele>358.471519</ele>
        <time>2025-04-25T07:24:33.000Z</time>
      </trkpt>
      <trkpt lat="43.36181" lon="6.10111">
        <ele>358.781902</ele>
        <time>2025-04-25T07:24:34.000Z</time>
      </trkpt>
      <trkpt lat="43.36176" lon="6.10111">
        <ele>359.21467</ele>
        <time>2025-04-25T07:24:36.000Z</time>
      </trkpt>
      <trkpt lat="43.36173" lon="6.10111">
        <ele>359.565516</ele>
        <time>2025-04-25T07:24:36.000Z</time>
      </trkpt>
      <trkpt lat="43.36169" lon="6.10112">
        <ele>360.004457</ele>
        <time>2025-04-25T07:24:37.000Z</time>
      </trkpt>
      <trkpt lat="43.36165" lon="6.10114">
        <ele>360.451082</ele>
        <time>2025-04-25T07:24:39.000Z</time>
      </trkpt>
      <trkpt lat="43.3616" lon="6.10116">
        <ele>360.588217</ele>
        <time>2025-04-25T07:24:40.000Z</time>
      </trkpt>
      <trkpt lat="43.3616" lon="6.10116">
        <ele>360.588217</ele>
        <time>2025-04-25T07:24:40.000Z</time>
      </trkpt>
      <trkpt lat="43.36157" lon="6.10118">
        <ele>360.704925</ele>
        <time>2025-04-25T07:24:41.000Z</time>
      </trkpt>
      <trkpt lat="43.36153" lon="6.1012">
        <ele>360.831123</ele>
        <time>2025-04-25T07:24:42.000Z</time>
      </trkpt>
      <trkpt lat="43.36149" lon="6.10122">
        <ele>360.961775</ele>
        <time>2025-04-25T07:24:43.000Z</time>
      </trkpt>
      <trkpt lat="43.36146" lon="6.10124">
        <ele>361.066183</ele>
        <time>2025-04-25T07:24:44.000Z</time>
      </trkpt>
      <trkpt lat="43.36146" lon="6.10124">
        <ele>361.066183</ele>
        <time>2025-04-25T07:24:44.000Z</time>
      </trkpt>
      <trkpt lat="43.36143" lon="6.10126">
        <ele>361.184621</ele>
        <time>2025-04-25T07:24:44.000Z</time>
      </trkpt>
      <trkpt lat="43.36139" lon="6.10129">
        <ele>361.328417</ele>
        <time>2025-04-25T07:24:46.000Z</time>
      </trkpt>
      <trkpt lat="43.36134" lon="6.10131">
        <ele>361.465553</ele>
        <time>2025-04-25T07:24:46.000Z</time>
      </trkpt>
      <trkpt lat="43.36134" lon="6.10131">
        <ele>361.465553</ele>
        <time>2025-04-25T07:24:46.000Z</time>
      </trkpt>
      <trkpt lat="43.36129" lon="6.10133">
        <ele>361.622862</ele>
        <time>2025-04-25T07:24:47.000Z</time>
      </trkpt>
      <trkpt lat="43.36125" lon="6.10134">
        <ele>361.768082</ele>
        <time>2025-04-25T07:24:49.000Z</time>
      </trkpt>
      <trkpt lat="43.36125" lon="6.10134">
        <ele>361.768082</ele>
        <time>2025-04-25T07:24:49.000Z</time>
      </trkpt>
      <trkpt lat="43.36121" lon="6.10135">
        <ele>361.899924</ele>
        <time>2025-04-25T07:24:50.000Z</time>
      </trkpt>
      <trkpt lat="43.36121" lon="6.10135">
        <ele>361.899924</ele>
        <time>2025-04-25T07:24:50.000Z</time>
      </trkpt>
      <trkpt lat="43.36116" lon="6.10136">
        <ele>362.031766</ele>
        <time>2025-04-25T07:24:51.000Z</time>
      </trkpt>
      <trkpt lat="43.36116" lon="6.10136">
        <ele>362.031766</ele>
        <time>2025-04-25T07:24:51.000Z</time>
      </trkpt>
      <trkpt lat="43.36113" lon="6.10137">
        <ele>362.151768</ele>
        <time>2025-04-25T07:24:52.000Z</time>
      </trkpt>
      <trkpt lat="43.36109" lon="6.10138">
        <ele>362.272213</ele>
        <time>2025-04-25T07:24:53.000Z</time>
      </trkpt>
      <trkpt lat="43.36109" lon="6.10138">
        <ele>362.272213</ele>
        <time>2025-04-25T07:24:53.000Z</time>
      </trkpt>
      <trkpt lat="43.36105" lon="6.10139">
        <ele>362.384661</ele>
        <time>2025-04-25T07:24:53.000Z</time>
      </trkpt>
      <trkpt lat="43.36102" lon="6.10141">
        <ele>362.51007</ele>
        <time>2025-04-25T07:24:55.000Z</time>
      </trkpt>
      <trkpt lat="43.36102" lon="6.10141">
        <ele>362.51007</ele>
        <time>2025-04-25T07:24:55.000Z</time>
      </trkpt>
      <trkpt lat="43.36097" lon="6.10144">
        <ele>362.65686</ele>
        <time>2025-04-25T07:24:56.000Z</time>
      </trkpt>
      <trkpt lat="43.36093" lon="6.10147">
        <ele>362.805781</ele>
        <time>2025-04-25T07:24:57.000Z</time>
      </trkpt>
      <trkpt lat="43.36089" lon="6.1015">
        <ele>362.940572</ele>
        <time>2025-04-25T07:24:58.000Z</time>
      </trkpt>
      <trkpt lat="43.36084" lon="6.10153">
        <ele>363.108816</ele>
        <time>2025-04-25T07:24:59.000Z</time>
      </trkpt>
      <trkpt lat="43.3608" lon="6.10156">
        <ele>363.251672</ele>
        <time>2025-04-25T07:25:00.000Z</time>
      </trkpt>
      <trkpt lat="43.3608" lon="6.10156">
        <ele>363.251672</ele>
        <time>2025-04-25T07:25:00.000Z</time>
      </trkpt>
      <trkpt lat="43.36076" lon="6.10158">
        <ele>363.380443</ele>
        <time>2025-04-25T07:25:01.000Z</time>
      </trkpt>
      <trkpt lat="43.36073" lon="6.1016">
        <ele>363.510348</ele>
        <time>2025-04-25T07:25:02.000Z</time>
      </trkpt>
      <trkpt lat="43.36073" lon="6.1016">
        <ele>363.510348</ele>
        <time>2025-04-25T07:25:02.000Z</time>
      </trkpt>
      <trkpt lat="43.36069" lon="6.10163">
        <ele>363.639119</ele>
        <time>2025-04-25T07:25:03.000Z</time>
      </trkpt>
      <trkpt lat="43.36066" lon="6.10165">
        <ele>363.752852</ele>
        <time>2025-04-25T07:25:04.000Z</time>
      </trkpt>
      <trkpt lat="43.36066" lon="6.10165">
        <ele>363.752852</ele>
        <time>2025-04-25T07:25:04.000Z</time>
      </trkpt>
      <trkpt lat="43.36063" lon="6.10169">
        <ele>363.87307</ele>
        <time>2025-04-25T07:25:05.000Z</time>
      </trkpt>
      <trkpt lat="43.36063" lon="6.10169">
        <ele>363.87307</ele>
        <time>2025-04-25T07:25:05.000Z</time>
      </trkpt>
      <trkpt lat="43.3606" lon="6.10172">
        <ele>363.991286</ele>
        <time>2025-04-25T07:25:06.000Z</time>
      </trkpt>
      <trkpt lat="43.3606" lon="6.10172">
        <ele>363.991286</ele>
        <time>2025-04-25T07:25:06.000Z</time>
      </trkpt>
      <trkpt lat="43.36058" lon="6.10176">
        <ele>364.097338</ele>
        <time>2025-04-25T07:25:07.000Z</time>
      </trkpt>
      <trkpt lat="43.36058" lon="6.10176">
        <ele>364.097338</ele>
        <time>2025-04-25T07:25:07.000Z</time>
      </trkpt>
      <trkpt lat="43.36055" lon="6.1018">
        <ele>364.223765</ele>
        <time>2025-04-25T07:25:08.000Z</time>
      </trkpt>
      <trkpt lat="43.36055" lon="6.1018">
        <ele>364.223765</ele>
        <time>2025-04-25T07:25:08.000Z</time>
      </trkpt>
      <trkpt lat="43.36052" lon="6.10184">
        <ele>364.357157</ele>
        <time>2025-04-25T07:25:09.000Z</time>
      </trkpt>
      <trkpt lat="43.36052" lon="6.10184">
        <ele>364.357157</ele>
        <time>2025-04-25T07:25:09.000Z</time>
      </trkpt>
      <trkpt lat="43.36049" lon="6.10187">
        <ele>364.463883</ele>
        <time>2025-04-25T07:25:10.000Z</time>
      </trkpt>
      <trkpt lat="43.36049" lon="6.10187">
        <ele>364.463883</ele>
        <time>2025-04-25T07:25:10.000Z</time>
      </trkpt>
      <trkpt lat="43.36046" lon="6.10191">
        <ele>364.598101</ele>
        <time>2025-04-25T07:25:11.000Z</time>
      </trkpt>
      <trkpt lat="43.36046" lon="6.10191">
        <ele>364.598101</ele>
        <time>2025-04-25T07:25:11.000Z</time>
      </trkpt>
      <trkpt lat="43.36043" lon="6.10194">
        <ele>364.715854</ele>
        <time>2025-04-25T07:25:12.000Z</time>
      </trkpt>
      <trkpt lat="43.36043" lon="6.10194">
        <ele>364.715854</ele>
        <time>2025-04-25T07:25:12.000Z</time>
      </trkpt>
      <trkpt lat="43.3604" lon="6.10197">
        <ele>364.832138</ele>
        <time>2025-04-25T07:25:13.000Z</time>
      </trkpt>
      <trkpt lat="43.3604" lon="6.10197">
        <ele>364.832138</ele>
        <time>2025-04-25T07:25:13.000Z</time>
      </trkpt>
      <trkpt lat="43.36037" lon="6.102">
        <ele>364.943339</ele>
        <time>2025-04-25T07:25:14.000Z</time>
      </trkpt>
      <trkpt lat="43.36037" lon="6.102">
        <ele>364.943339</ele>
        <time>2025-04-25T07:25:14.000Z</time>
      </trkpt>
      <trkpt lat="43.36033" lon="6.10202">
        <ele>365.065111</ele>
        <time>2025-04-25T07:25:15.000Z</time>
      </trkpt>
      <trkpt lat="43.36033" lon="6.10202">
        <ele>365.065111</ele>
        <time>2025-04-25T07:25:15.000Z</time>
      </trkpt>
      <trkpt lat="43.3603" lon="6.10204">
        <ele>365.170377</ele>
        <time>2025-04-25T07:25:16.000Z</time>
      </trkpt>
      <trkpt lat="43.3603" lon="6.10204">
        <ele>365.170377</ele>
        <time>2025-04-25T07:25:16.000Z</time>
      </trkpt>
      <trkpt lat="43.36026" lon="6.10206">
        <ele>365.296575</ele>
        <time>2025-04-25T07:25:17.000Z</time>
      </trkpt>
      <trkpt lat="43.36026" lon="6.10206">
        <ele>365.296575</ele>
        <time>2025-04-25T07:25:17.000Z</time>
      </trkpt>
      <trkpt lat="43.36023" lon="6.10208">
        <ele>365.408784</ele>
        <time>2025-04-25T07:25:18.000Z</time>
      </trkpt>
      <trkpt lat="43.36023" lon="6.10208">
        <ele>365.408784</ele>
        <time>2025-04-25T07:25:18.000Z</time>
      </trkpt>
      <trkpt lat="43.36019" lon="6.1021">
        <ele>365.548182</ele>
        <time>2025-04-25T07:25:19.000Z</time>
      </trkpt>
      <trkpt lat="43.36019" lon="6.1021">
        <ele>365.548182</ele>
        <time>2025-04-25T07:25:19.000Z</time>
      </trkpt>
      <trkpt lat="43.36016" lon="6.10212">
        <ele>365.652551</ele>
        <time>2025-04-25T07:25:20.000Z</time>
      </trkpt>
      <trkpt lat="43.36016" lon="6.10212">
        <ele>365.652551</ele>
        <time>2025-04-25T07:25:20.000Z</time>
      </trkpt>
      <trkpt lat="43.36012" lon="6.10214">
        <ele>365.790408</ele>
        <time>2025-04-25T07:25:21.000Z</time>
      </trkpt>
      <trkpt lat="43.36012" lon="6.10214">
        <ele>365.790408</ele>
        <time>2025-04-25T07:25:21.000Z</time>
      </trkpt>
      <trkpt lat="43.36008" lon="6.10216">
        <ele>365.916606</ele>
        <time>2025-04-25T07:25:22.000Z</time>
      </trkpt>
      <trkpt lat="43.36008" lon="6.10216">
        <ele>365.916606</ele>
        <time>2025-04-25T07:25:22.000Z</time>
      </trkpt>
      <trkpt lat="43.36004" lon="6.10218">
        <ele>366.076053</ele>
        <time>2025-04-25T07:25:23.000Z</time>
      </trkpt>
      <trkpt lat="43.36004" lon="6.10218">
        <ele>366.076053</ele>
        <time>2025-04-25T07:25:23.000Z</time>
      </trkpt>
      <trkpt lat="43.36" lon="6.1022">
        <ele>366.296387</ele>
        <time>2025-04-25T07:25:24.000Z</time>
      </trkpt>
      <trkpt lat="43.36" lon="6.1022">
        <ele>366.296387</ele>
        <time>2025-04-25T07:25:24.000Z</time>
      </trkpt>
      <trkpt lat="43.35996" lon="6.10222">
        <ele>366.50124</ele>
        <time>2025-04-25T07:25:25.000Z</time>
      </trkpt>
      <trkpt lat="43.35996" lon="6.10222">
        <ele>366.50124</ele>
        <time>2025-04-25T07:25:25.000Z</time>
      </trkpt>
      <trkpt lat="43.35993" lon="6.10223">
        <ele>366.67912</ele>
        <time>2025-04-25T07:25:26.000Z</time>
      </trkpt>
      <trkpt lat="43.35993" lon="6.10223">
        <ele>366.67912</ele>
        <time>2025-04-25T07:25:26.000Z</time>
      </trkpt>
      <trkpt lat="43.3599" lon="6.10226">
        <ele>366.885113</ele>
        <time>2025-04-25T07:25:27.000Z</time>
      </trkpt>
      <trkpt lat="43.3599" lon="6.10226">
        <ele>366.885113</ele>
        <time>2025-04-25T07:25:27.000Z</time>
      </trkpt>
      <trkpt lat="43.35986" lon="6.10228">
        <ele>367.139277</ele>
        <time>2025-04-25T07:25:28.000Z</time>
      </trkpt>
      <trkpt lat="43.35986" lon="6.10228">
        <ele>367.139277</ele>
        <time>2025-04-25T07:25:28.000Z</time>
      </trkpt>
      <trkpt lat="43.35982" lon="6.10231">
        <ele>367.377522</ele>
        <time>2025-04-25T07:25:29.000Z</time>
      </trkpt>
      <trkpt lat="43.35982" lon="6.10231">
        <ele>367.377522</ele>
        <time>2025-04-25T07:25:29.000Z</time>
      </trkpt>
      <trkpt lat="43.35978" lon="6.10234">
        <ele>367.613411</ele>
        <time>2025-04-25T07:25:30.000Z</time>
      </trkpt>
      <trkpt lat="43.35978" lon="6.10234">
        <ele>367.613411</ele>
        <time>2025-04-25T07:25:30.000Z</time>
      </trkpt>
      <trkpt lat="43.35973" lon="6.10237">
        <ele>367.88585</ele>
        <time>2025-04-25T07:25:31.000Z</time>
      </trkpt>
      <trkpt lat="43.3597" lon="6.10239">
        <ele>368.075295</ele>
        <time>2025-04-25T07:25:32.000Z</time>
      </trkpt>
      <trkpt lat="43.3597" lon="6.10239">
        <ele>368.075295</ele>
        <time>2025-04-25T07:25:32.000Z</time>
      </trkpt>
      <trkpt lat="43.35967" lon="6.10241">
        <ele>368.3029</ele>
        <time>2025-04-25T07:25:33.000Z</time>
      </trkpt>
      <trkpt lat="43.35967" lon="6.10241">
        <ele>368.3029</ele>
        <time>2025-04-25T07:25:33.000Z</time>
      </trkpt>
      <trkpt lat="43.35963" lon="6.10244">
        <ele>368.517806</ele>
        <time>2025-04-25T07:25:34.000Z</time>
      </trkpt>
      <trkpt lat="43.3596" lon="6.10248">
        <ele>368.746869</ele>
        <time>2025-04-25T07:25:35.000Z</time>
      </trkpt>
      <trkpt lat="43.3596" lon="6.10248">
        <ele>368.746869</ele>
        <time>2025-04-25T07:25:35.000Z</time>
      </trkpt>
      <trkpt lat="43.35959" lon="6.10252">
        <ele>368.927424</ele>
        <time>2025-04-25T07:25:36.000Z</time>
      </trkpt>
      <trkpt lat="43.35959" lon="6.10252">
        <ele>368.927424</ele>
        <time>2025-04-25T07:25:36.000Z</time>
      </trkpt>
      <trkpt lat="43.35957" lon="6.10256">
        <ele>369.11037</ele>
        <time>2025-04-25T07:25:37.000Z</time>
      </trkpt>
      <trkpt lat="43.35957" lon="6.10256">
        <ele>369.11037</ele>
        <time>2025-04-25T07:25:37.000Z</time>
      </trkpt>
      <trkpt lat="43.35955" lon="6.10259">
        <ele>369.271802</ele>
        <time>2025-04-25T07:25:38.000Z</time>
      </trkpt>
      <trkpt lat="43.35955" lon="6.10259">
        <ele>369.271802</ele>
        <time>2025-04-25T07:25:38.000Z</time>
      </trkpt>
      <trkpt lat="43.35954" lon="6.10263">
        <ele>369.440658</ele>
        <time>2025-04-25T07:25:39.000Z</time>
      </trkpt>
      <trkpt lat="43.35954" lon="6.10263">
        <ele>369.440658</ele>
        <time>2025-04-25T07:25:39.000Z</time>
      </trkpt>
      <trkpt lat="43.35952" lon="6.10267">
        <ele>369.609515</ele>
        <time>2025-04-25T07:25:40.000Z</time>
      </trkpt>
      <trkpt lat="43.35952" lon="6.10267">
        <ele>369.609515</ele>
        <time>2025-04-25T07:25:40.000Z</time>
      </trkpt>
      <trkpt lat="43.35951" lon="6.10271">
        <ele>369.810079</ele>
        <time>2025-04-25T07:25:41.000Z</time>
      </trkpt>
      <trkpt lat="43.35951" lon="6.10271">
        <ele>369.810079</ele>
        <time>2025-04-25T07:25:41.000Z</time>
      </trkpt>
      <trkpt lat="43.35949" lon="6.10276">
        <ele>370.014061</ele>
        <time>2025-04-25T07:25:42.000Z</time>
      </trkpt>
      <trkpt lat="43.35949" lon="6.10276">
        <ele>370.014061</ele>
        <time>2025-04-25T07:25:42.000Z</time>
      </trkpt>
      <trkpt lat="43.35947" lon="6.1028">
        <ele>370.217315</ele>
        <time>2025-04-25T07:25:43.000Z</time>
      </trkpt>
      <trkpt lat="43.35947" lon="6.1028">
        <ele>370.217315</ele>
        <time>2025-04-25T07:25:43.000Z</time>
      </trkpt>
      <trkpt lat="43.35945" lon="6.10284">
        <ele>370.41135</ele>
        <time>2025-04-25T07:25:44.000Z</time>
      </trkpt>
      <trkpt lat="43.35945" lon="6.10284">
        <ele>370.41135</ele>
        <time>2025-04-25T07:25:44.000Z</time>
      </trkpt>
      <trkpt lat="43.35943" lon="6.10287">
        <ele>370.57296</ele>
        <time>2025-04-25T07:25:45.000Z</time>
      </trkpt>
      <trkpt lat="43.35943" lon="6.10287">
        <ele>370.57296</ele>
        <time>2025-04-25T07:25:45.000Z</time>
      </trkpt>
      <trkpt lat="43.3594" lon="6.10289">
        <ele>370.736277</ele>
        <time>2025-04-25T07:25:46.000Z</time>
      </trkpt>
      <trkpt lat="43.3594" lon="6.10289">
        <ele>370.736277</ele>
        <time>2025-04-25T07:25:46.000Z</time>
      </trkpt>
      <trkpt lat="43.35938" lon="6.10288">
        <ele>370.842329</ele>
        <time>2025-04-25T07:25:47.000Z</time>
      </trkpt>
      <trkpt lat="43.35938" lon="6.10288">
        <ele>370.842329</ele>
        <time>2025-04-25T07:25:47.000Z</time>
      </trkpt>
      <trkpt lat="43.35936" lon="6.10287">
        <ele>370.997886</ele>
        <time>2025-04-25T07:25:48.000Z</time>
      </trkpt>
      <trkpt lat="43.35936" lon="6.10287">
        <ele>370.997886</ele>
        <time>2025-04-25T07:25:48.000Z</time>
      </trkpt>
      <trkpt lat="43.35933" lon="6.10285">
        <ele>371.147065</ele>
        <time>2025-04-25T07:25:49.000Z</time>
      </trkpt>
      <trkpt lat="43.35933" lon="6.10285">
        <ele>371.147065</ele>
        <time>2025-04-25T07:25:49.000Z</time>
      </trkpt>
      <trkpt lat="43.3593" lon="6.10283">
        <ele>371.326501</ele>
        <time>2025-04-25T07:25:50.000Z</time>
      </trkpt>
      <trkpt lat="43.3593" lon="6.10283">
        <ele>371.326501</ele>
        <time>2025-04-25T07:25:50.000Z</time>
      </trkpt>
      <trkpt lat="43.35927" lon="6.10282">
        <ele>371.506661</ele>
        <time>2025-04-25T07:25:51.000Z</time>
      </trkpt>
      <trkpt lat="43.35927" lon="6.10282">
        <ele>371.506661</ele>
        <time>2025-04-25T07:25:51.000Z</time>
      </trkpt>
      <trkpt lat="43.35924" lon="6.1028">
        <ele>371.709389</ele>
        <time>2025-04-25T07:25:52.000Z</time>
      </trkpt>
      <trkpt lat="43.35924" lon="6.1028">
        <ele>371.709389</ele>
        <time>2025-04-25T07:25:52.000Z</time>
      </trkpt>
      <trkpt lat="43.35921" lon="6.10278">
        <ele>371.883501</ele>
        <time>2025-04-25T07:25:53.000Z</time>
      </trkpt>
      <trkpt lat="43.35921" lon="6.10278">
        <ele>371.883501</ele>
        <time>2025-04-25T07:25:53.000Z</time>
      </trkpt>
      <trkpt lat="43.35918" lon="6.10275">
        <ele>372.073788</ele>
        <time>2025-04-25T07:25:54.000Z</time>
      </trkpt>
      <trkpt lat="43.35918" lon="6.10275">
        <ele>372.073788</ele>
        <time>2025-04-25T07:25:54.000Z</time>
      </trkpt>
      <trkpt lat="43.35917" lon="6.10272">
        <ele>372.235399</ele>
        <time>2025-04-25T07:25:55.000Z</time>
      </trkpt>
      <trkpt lat="43.35914" lon="6.10269">
        <ele>372.393673</ele>
        <time>2025-04-25T07:25:56.000Z</time>
      </trkpt>
      <trkpt lat="43.35914" lon="6.10269">
        <ele>372.393673</ele>
        <time>2025-04-25T07:25:56.000Z</time>
      </trkpt>
      <trkpt lat="43.35912" lon="6.10266">
        <ele>372.567449</ele>
        <time>2025-04-25T07:25:57.000Z</time>
      </trkpt>
      <trkpt lat="43.35909" lon="6.10262">
        <ele>372.778358</ele>
        <time>2025-04-25T07:25:58.000Z</time>
      </trkpt>
      <trkpt lat="43.35908" lon="6.10259">
        <ele>372.9326</ele>
        <time>2025-04-25T07:25:59.000Z</time>
      </trkpt>
      <trkpt lat="43.35907" lon="6.10254">
        <ele>373.14085</ele>
        <time>2025-04-25T07:26:00.000Z</time>
      </trkpt>
      <trkpt lat="43.35905" lon="6.10249">
        <ele>373.363837</ele>
        <time>2025-04-25T07:26:01.000Z</time>
      </trkpt>
      <trkpt lat="43.35904" lon="6.10244">
        <ele>373.558636</ele>
        <time>2025-04-25T07:26:02.000Z</time>
      </trkpt>
      <trkpt lat="43.35902" lon="6.1024">
        <ele>373.75234</ele>
        <time>2025-04-25T07:26:03.000Z</time>
      </trkpt>
      <trkpt lat="43.35901" lon="6.10235">
        <ele>373.975327</ele>
        <time>2025-04-25T07:26:04.000Z</time>
      </trkpt>
      <trkpt lat="43.35901" lon="6.10235">
        <ele>373.975327</ele>
        <time>2025-04-25T07:26:04.000Z</time>
      </trkpt>
      <trkpt lat="43.35899" lon="6.10229">
        <ele>374.205743</ele>
        <time>2025-04-25T07:26:05.000Z</time>
      </trkpt>
      <trkpt lat="43.35897" lon="6.10225">
        <ele>374.42827</ele>
        <time>2025-04-25T07:26:06.000Z</time>
      </trkpt>
      <trkpt lat="43.35895" lon="6.10221">
        <ele>374.616317</ele>
        <time>2025-04-25T07:26:07.000Z</time>
      </trkpt>
      <trkpt lat="43.35895" lon="6.10221">
        <ele>374.616317</ele>
        <time>2025-04-25T07:26:07.000Z</time>
      </trkpt>
      <trkpt lat="43.35893" lon="6.10218">
        <ele>374.787375</ele>
        <time>2025-04-25T07:26:08.000Z</time>
      </trkpt>
      <trkpt lat="43.3589" lon="6.10217">
        <ele>374.948551</ele>
        <time>2025-04-25T07:26:09.000Z</time>
      </trkpt>
      <trkpt lat="43.35887" lon="6.10216">
        <ele>375.097907</ele>
        <time>2025-04-25T07:26:10.000Z</time>
      </trkpt>
      <trkpt lat="43.35885" lon="6.10217">
        <ele>375.243969</ele>
        <time>2025-04-25T07:26:11.000Z</time>
      </trkpt>
      <trkpt lat="43.3588" lon="6.10218">
        <ele>375.500649</ele>
        <time>2025-04-25T07:26:12.000Z</time>
      </trkpt>
      <trkpt lat="43.3588" lon="6.10218">
        <ele>375.500649</ele>
        <time>2025-04-25T07:26:12.000Z</time>
      </trkpt>
      <trkpt lat="43.35876" lon="6.10219">
        <ele>375.736662</ele>
        <time>2025-04-25T07:26:13.000Z</time>
      </trkpt>
      <trkpt lat="43.35872" lon="6.10221">
        <ele>375.981503</ele>
        <time>2025-04-25T07:26:14.000Z</time>
      </trkpt>
      <trkpt lat="43.35872" lon="6.10221">
        <ele>375.981503</ele>
        <time>2025-04-25T07:26:14.000Z</time>
      </trkpt>
      <trkpt lat="43.35867" lon="6.10222">
        <ele>376.260637</ele>
        <time>2025-04-25T07:26:15.000Z</time>
      </trkpt>
      <trkpt lat="43.35867" lon="6.10222">
        <ele>376.260637</ele>
        <time>2025-04-25T07:26:15.000Z</time>
      </trkpt>
      <trkpt lat="43.35862" lon="6.10223">
        <ele>376.536241</ele>
        <time>2025-04-25T07:26:16.000Z</time>
      </trkpt>
      <trkpt lat="43.35859" lon="6.10225">
        <ele>376.780174</ele>
        <time>2025-04-25T07:26:17.000Z</time>
      </trkpt>
      <trkpt lat="43.35859" lon="6.10225">
        <ele>376.780174</ele>
        <time>2025-04-25T07:26:17.000Z</time>
      </trkpt>
      <trkpt lat="43.35854" lon="6.10227">
        <ele>377.063624</ele>
        <time>2025-04-25T07:26:18.000Z</time>
      </trkpt>
      <trkpt lat="43.35854" lon="6.10227">
        <ele>377.063624</ele>
        <time>2025-04-25T07:26:18.000Z</time>
      </trkpt>
      <trkpt lat="43.3585" lon="6.10229">
        <ele>377.341501</ele>
        <time>2025-04-25T07:26:19.000Z</time>
      </trkpt>
      <trkpt lat="43.3585" lon="6.10229">
        <ele>377.341501</ele>
        <time>2025-04-25T07:26:19.000Z</time>
      </trkpt>
      <trkpt lat="43.35846" lon="6.10232">
        <ele>377.579925</ele>
        <time>2025-04-25T07:26:20.000Z</time>
      </trkpt>
      <trkpt lat="43.35846" lon="6.10232">
        <ele>377.579925</ele>
        <time>2025-04-25T07:26:20.000Z</time>
      </trkpt>
      <trkpt lat="43.35842" lon="6.10235">
        <ele>377.86562</ele>
        <time>2025-04-25T07:26:21.000Z</time>
      </trkpt>
      <trkpt lat="43.35842" lon="6.10235">
        <ele>377.86562</ele>
        <time>2025-04-25T07:26:21.000Z</time>
      </trkpt>
      <trkpt lat="43.35838" lon="6.10238">
        <ele>378.124008</ele>
        <time>2025-04-25T07:26:22.000Z</time>
      </trkpt>
      <trkpt lat="43.35838" lon="6.10238">
        <ele>378.124008</ele>
        <time>2025-04-25T07:26:22.000Z</time>
      </trkpt>
      <trkpt lat="43.35835" lon="6.1024">
        <ele>378.374636</ele>
        <time>2025-04-25T07:26:23.000Z</time>
      </trkpt>
      <trkpt lat="43.35835" lon="6.1024">
        <ele>378.374636</ele>
        <time>2025-04-25T07:26:23.000Z</time>
      </trkpt>
      <trkpt lat="43.35831" lon="6.10242">
        <ele>378.620096</ele>
        <time>2025-04-25T07:26:24.000Z</time>
      </trkpt>
      <trkpt lat="43.35831" lon="6.10242">
        <ele>378.620096</ele>
        <time>2025-04-25T07:26:24.000Z</time>
      </trkpt>
      <trkpt lat="43.35827" lon="6.10245">
        <ele>378.889471</ele>
        <time>2025-04-25T07:26:25.000Z</time>
      </trkpt>
      <trkpt lat="43.35827" lon="6.10245">
        <ele>378.889471</ele>
        <time>2025-04-25T07:26:25.000Z</time>
      </trkpt>
      <trkpt lat="43.35823" lon="6.10246">
        <ele>379.104857</ele>
        <time>2025-04-25T07:26:26.000Z</time>
      </trkpt>
      <trkpt lat="43.35823" lon="6.10246">
        <ele>379.104857</ele>
        <time>2025-04-25T07:26:26.000Z</time>
      </trkpt>
      <trkpt lat="43.35819" lon="6.10248">
        <ele>379.368532</ele>
        <time>2025-04-25T07:26:27.000Z</time>
      </trkpt>
      <trkpt lat="43.35819" lon="6.10248">
        <ele>379.368532</ele>
        <time>2025-04-25T07:26:27.000Z</time>
      </trkpt>
      <trkpt lat="43.35815" lon="6.1025">
        <ele>379.633536</ele>
        <time>2025-04-25T07:26:28.000Z</time>
      </trkpt>
      <trkpt lat="43.35815" lon="6.1025">
        <ele>379.633536</ele>
        <time>2025-04-25T07:26:28.000Z</time>
      </trkpt>
      <trkpt lat="43.35811" lon="6.10252">
        <ele>379.873043</ele>
        <time>2025-04-25T07:26:29.000Z</time>
      </trkpt>
      <trkpt lat="43.35811" lon="6.10252">
        <ele>379.873043</ele>
        <time>2025-04-25T07:26:29.000Z</time>
      </trkpt>
      <trkpt lat="43.35807" lon="6.10253">
        <ele>380.116977</ele>
        <time>2025-04-25T07:26:30.000Z</time>
      </trkpt>
      <trkpt lat="43.35807" lon="6.10253">
        <ele>380.116977</ele>
        <time>2025-04-25T07:26:30.000Z</time>
      </trkpt>
      <trkpt lat="43.35803" lon="6.10255">
        <ele>380.353933</ele>
        <time>2025-04-25T07:26:31.000Z</time>
      </trkpt>
      <trkpt lat="43.35803" lon="6.10255">
        <ele>380.353933</ele>
        <time>2025-04-25T07:26:31.000Z</time>
      </trkpt>
      <trkpt lat="43.358" lon="6.10256">
        <ele>380.566657</ele>
        <time>2025-04-25T07:26:32.000Z</time>
      </trkpt>
      <trkpt lat="43.358" lon="6.10256">
        <ele>380.566657</ele>
        <time>2025-04-25T07:26:32.000Z</time>
      </trkpt>
      <trkpt lat="43.35797" lon="6.10257">
        <ele>380.759682</ele>
        <time>2025-04-25T07:26:33.000Z</time>
      </trkpt>
      <trkpt lat="43.35797" lon="6.10257">
        <ele>380.759682</ele>
        <time>2025-04-25T07:26:33.000Z</time>
      </trkpt>
      <trkpt lat="43.35793" lon="6.10259">
        <ele>380.983074</ele>
        <time>2025-04-25T07:26:34.000Z</time>
      </trkpt>
      <trkpt lat="43.35793" lon="6.10259">
        <ele>380.983074</ele>
        <time>2025-04-25T07:26:34.000Z</time>
      </trkpt>
      <trkpt lat="43.3579" lon="6.10262">
        <ele>381.247888</ele>
        <time>2025-04-25T07:26:35.000Z</time>
      </trkpt>
      <trkpt lat="43.3579" lon="6.10262">
        <ele>381.247888</ele>
        <time>2025-04-25T07:26:35.000Z</time>
      </trkpt>
      <trkpt lat="43.35786" lon="6.10267">
        <ele>381.54008</ele>
        <time>2025-04-25T07:26:36.000Z</time>
      </trkpt>
      <trkpt lat="43.35786" lon="6.10267">
        <ele>381.54008</ele>
        <time>2025-04-25T07:26:36.000Z</time>
      </trkpt>
      <trkpt lat="43.35782" lon="6.10271">
        <ele>381.821368</ele>
        <time>2025-04-25T07:26:37.000Z</time>
      </trkpt>
      <trkpt lat="43.35779" lon="6.10275">
        <ele>382.098215</ele>
        <time>2025-04-25T07:26:38.000Z</time>
      </trkpt>
      <trkpt lat="43.35779" lon="6.10275">
        <ele>382.098215</ele>
        <time>2025-04-25T07:26:38.000Z</time>
      </trkpt>
      <trkpt lat="43.35776" lon="6.10279">
        <ele>382.351705</ele>
        <time>2025-04-25T07:26:39.000Z</time>
      </trkpt>
      <trkpt lat="43.35776" lon="6.10279">
        <ele>382.351705</ele>
        <time>2025-04-25T07:26:39.000Z</time>
      </trkpt>
      <trkpt lat="43.35773" lon="6.10283">
        <ele>382.586387</ele>
        <time>2025-04-25T07:26:40.000Z</time>
      </trkpt>
      <trkpt lat="43.35773" lon="6.10283">
        <ele>382.586387</ele>
        <time>2025-04-25T07:26:40.000Z</time>
      </trkpt>
      <trkpt lat="43.3577" lon="6.10286">
        <ele>382.811099</ele>
        <time>2025-04-25T07:26:41.000Z</time>
      </trkpt>
      <trkpt lat="43.3577" lon="6.10286">
        <ele>382.811099</ele>
        <time>2025-04-25T07:26:41.000Z</time>
      </trkpt>
      <trkpt lat="43.35767" lon="6.1029">
        <ele>383.049731</ele>
        <time>2025-04-25T07:26:42.000Z</time>
      </trkpt>
      <trkpt lat="43.35767" lon="6.1029">
        <ele>383.049731</ele>
        <time>2025-04-25T07:26:42.000Z</time>
      </trkpt>
      <trkpt lat="43.35764" lon="6.10294">
        <ele>383.281276</ele>
        <time>2025-04-25T07:26:43.000Z</time>
      </trkpt>
      <trkpt lat="43.35764" lon="6.10294">
        <ele>383.281276</ele>
        <time>2025-04-25T07:26:43.000Z</time>
      </trkpt>
      <trkpt lat="43.35761" lon="6.10298">
        <ele>383.537857</ele>
        <time>2025-04-25T07:26:44.000Z</time>
      </trkpt>
      <trkpt lat="43.35761" lon="6.10298">
        <ele>383.537857</ele>
        <time>2025-04-25T07:26:44.000Z</time>
      </trkpt>
      <trkpt lat="43.35758" lon="6.10302">
        <ele>383.811188</ele>
        <time>2025-04-25T07:26:45.000Z</time>
      </trkpt>
      <trkpt lat="43.35758" lon="6.10302">
        <ele>383.811188</ele>
        <time>2025-04-25T07:26:45.000Z</time>
      </trkpt>
      <trkpt lat="43.35757" lon="6.10306">
        <ele>384.011208</ele>
        <time>2025-04-25T07:26:46.000Z</time>
      </trkpt>
      <trkpt lat="43.35757" lon="6.10306">
        <ele>384.011208</ele>
        <time>2025-04-25T07:26:46.000Z</time>
      </trkpt>
      <trkpt lat="43.35755" lon="6.10311">
        <ele>384.237983</ele>
        <time>2025-04-25T07:26:47.000Z</time>
      </trkpt>
      <trkpt lat="43.35755" lon="6.10311">
        <ele>384.237983</ele>
        <time>2025-04-25T07:26:47.000Z</time>
      </trkpt>
      <trkpt lat="43.35753" lon="6.10316">
        <ele>384.476155</ele>
        <time>2025-04-25T07:26:48.000Z</time>
      </trkpt>
      <trkpt lat="43.35753" lon="6.10316">
        <ele>384.476155</ele>
        <time>2025-04-25T07:26:48.000Z</time>
      </trkpt>
      <trkpt lat="43.35751" lon="6.10321">
        <ele>384.726243</ele>
        <time>2025-04-25T07:26:49.000Z</time>
      </trkpt>
      <trkpt lat="43.35751" lon="6.10321">
        <ele>384.726243</ele>
        <time>2025-04-25T07:26:49.000Z</time>
      </trkpt>
      <trkpt lat="43.3575" lon="6.10327">
        <ele>385.002745</ele>
        <time>2025-04-25T07:26:50.000Z</time>
      </trkpt>
      <trkpt lat="43.3575" lon="6.10327">
        <ele>385.002745</ele>
        <time>2025-04-25T07:26:50.000Z</time>
      </trkpt>
      <trkpt lat="43.35749" lon="6.10333">
        <ele>385.267566</ele>
        <time>2025-04-25T07:26:51.000Z</time>
      </trkpt>
      <trkpt lat="43.35749" lon="6.10333">
        <ele>385.267566</ele>
        <time>2025-04-25T07:26:51.000Z</time>
      </trkpt>
      <trkpt lat="43.35748" lon="6.10339">
        <ele>385.546273</ele>
        <time>2025-04-25T07:26:52.000Z</time>
      </trkpt>
      <trkpt lat="43.35748" lon="6.10339">
        <ele>385.546273</ele>
        <time>2025-04-25T07:26:52.000Z</time>
      </trkpt>
      <trkpt lat="43.35748" lon="6.10344">
        <ele>385.761154</ele>
        <time>2025-04-25T07:26:53.000Z</time>
      </trkpt>
      <trkpt lat="43.35748" lon="6.10344">
        <ele>385.761154</ele>
        <time>2025-04-25T07:26:53.000Z</time>
      </trkpt>
      <trkpt lat="43.35748" lon="6.1035">
        <ele>385.996483</ele>
        <time>2025-04-25T07:26:54.000Z</time>
      </trkpt>
      <trkpt lat="43.35748" lon="6.1035">
        <ele>385.996483</ele>
        <time>2025-04-25T07:26:54.000Z</time>
      </trkpt>
      <trkpt lat="43.35748" lon="6.10355">
        <ele>386.23303</ele>
        <time>2025-04-25T07:26:55.000Z</time>
      </trkpt>
      <trkpt lat="43.35748" lon="6.10355">
        <ele>386.23303</ele>
        <time>2025-04-25T07:26:55.000Z</time>
      </trkpt>
      <trkpt lat="43.35747" lon="6.10361">
        <ele>386.473913</ele>
        <time>2025-04-25T07:26:56.000Z</time>
      </trkpt>
      <trkpt lat="43.35747" lon="6.10361">
        <ele>386.473913</ele>
        <time>2025-04-25T07:26:56.000Z</time>
      </trkpt>
      <trkpt lat="43.35746" lon="6.10365">
        <ele>386.677507</ele>
        <time>2025-04-25T07:26:57.000Z</time>
      </trkpt>
      <trkpt lat="43.35746" lon="6.10365">
        <ele>386.677507</ele>
        <time>2025-04-25T07:26:57.000Z</time>
      </trkpt>
      <trkpt lat="43.35745" lon="6.1037">
        <ele>386.930532</ele>
        <time>2025-04-25T07:26:58.000Z</time>
      </trkpt>
      <trkpt lat="43.35745" lon="6.1037">
        <ele>386.930532</ele>
        <time>2025-04-25T07:26:58.000Z</time>
      </trkpt>
      <trkpt lat="43.35743" lon="6.10375">
        <ele>387.181899</ele>
        <time>2025-04-25T07:26:59.000Z</time>
      </trkpt>
      <trkpt lat="43.35743" lon="6.10375">
        <ele>387.181899</ele>
        <time>2025-04-25T07:26:59.000Z</time>
      </trkpt>
      <trkpt lat="43.35742" lon="6.1038">
        <ele>387.452866</ele>
        <time>2025-04-25T07:27:00.000Z</time>
      </trkpt>
      <trkpt lat="43.35742" lon="6.1038">
        <ele>387.452866</ele>
        <time>2025-04-25T07:27:00.000Z</time>
      </trkpt>
      <trkpt lat="43.35741" lon="6.10385">
        <ele>387.701259</ele>
        <time>2025-04-25T07:27:01.000Z</time>
      </trkpt>
      <trkpt lat="43.35741" lon="6.10385">
        <ele>387.701259</ele>
        <time>2025-04-25T07:27:01.000Z</time>
      </trkpt>
      <trkpt lat="43.3574" lon="6.10389">
        <ele>387.925643</ele>
        <time>2025-04-25T07:27:02.000Z</time>
      </trkpt>
      <trkpt lat="43.3574" lon="6.10389">
        <ele>387.925643</ele>
        <time>2025-04-25T07:27:02.000Z</time>
      </trkpt>
      <trkpt lat="43.35739" lon="6.10395">
        <ele>388.215973</ele>
        <time>2025-04-25T07:27:03.000Z</time>
      </trkpt>
      <trkpt lat="43.35739" lon="6.10395">
        <ele>388.215973</ele>
        <time>2025-04-25T07:27:03.000Z</time>
      </trkpt>
      <trkpt lat="43.35738" lon="6.104">
        <ele>388.448133</ele>
        <time>2025-04-25T07:27:04.000Z</time>
      </trkpt>
      <trkpt lat="43.35738" lon="6.104">
        <ele>388.448133</ele>
        <time>2025-04-25T07:27:04.000Z</time>
      </trkpt>
      <trkpt lat="43.35737" lon="6.10404">
        <ele>388.691381</ele>
        <time>2025-04-25T07:27:05.000Z</time>
      </trkpt>
      <trkpt lat="43.35737" lon="6.10404">
        <ele>388.691381</ele>
        <time>2025-04-25T07:27:05.000Z</time>
      </trkpt>
      <trkpt lat="43.35736" lon="6.10409">
        <ele>388.930535</ele>
        <time>2025-04-25T07:27:06.000Z</time>
      </trkpt>
      <trkpt lat="43.35736" lon="6.10409">
        <ele>388.930535</ele>
        <time>2025-04-25T07:27:06.000Z</time>
      </trkpt>
      <trkpt lat="43.35734" lon="6.10414">
        <ele>389.179151</ele>
        <time>2025-04-25T07:27:07.000Z</time>
      </trkpt>
      <trkpt lat="43.35734" lon="6.10414">
        <ele>389.179151</ele>
        <time>2025-04-25T07:27:07.000Z</time>
      </trkpt>
      <trkpt lat="43.35733" lon="6.10419">
        <ele>389.443402</ele>
        <time>2025-04-25T07:27:08.000Z</time>
      </trkpt>
      <trkpt lat="43.35733" lon="6.10419">
        <ele>389.443402</ele>
        <time>2025-04-25T07:27:08.000Z</time>
      </trkpt>
      <trkpt lat="43.35732" lon="6.10424">
        <ele>389.723396</ele>
        <time>2025-04-25T07:27:09.000Z</time>
      </trkpt>
      <trkpt lat="43.35732" lon="6.10424">
        <ele>389.723396</ele>
        <time>2025-04-25T07:27:09.000Z</time>
      </trkpt>
      <trkpt lat="43.35731" lon="6.10429">
        <ele>389.952488</ele>
        <time>2025-04-25T07:27:10.000Z</time>
      </trkpt>
      <trkpt lat="43.35731" lon="6.10429">
        <ele>389.952488</ele>
        <time>2025-04-25T07:27:10.000Z</time>
      </trkpt>
      <trkpt lat="43.3573" lon="6.10434">
        <ele>390.184866</ele>
        <time>2025-04-25T07:27:11.000Z</time>
      </trkpt>
      <trkpt lat="43.3573" lon="6.10434">
        <ele>390.184866</ele>
        <time>2025-04-25T07:27:11.000Z</time>
      </trkpt>
      <trkpt lat="43.35729" lon="6.10439">
        <ele>390.467645</ele>
        <time>2025-04-25T07:27:12.000Z</time>
      </trkpt>
      <trkpt lat="43.35729" lon="6.10444">
        <ele>390.71065</ele>
        <time>2025-04-25T07:27:13.000Z</time>
      </trkpt>
      <trkpt lat="43.35729" lon="6.10444">
        <ele>390.71065</ele>
        <time>2025-04-25T07:27:13.000Z</time>
      </trkpt>
      <trkpt lat="43.35728" lon="6.10449">
        <ele>390.953898</ele>
        <time>2025-04-25T07:27:14.000Z</time>
      </trkpt>
      <trkpt lat="43.35727" lon="6.10453">
        <ele>391.164196</ele>
        <time>2025-04-25T07:27:15.000Z</time>
      </trkpt>
      <trkpt lat="43.35726" lon="6.10458">
        <ele>391.40335</ele>
        <time>2025-04-25T07:27:16.000Z</time>
      </trkpt>
      <trkpt lat="43.35726" lon="6.10458">
        <ele>391.40335</ele>
        <time>2025-04-25T07:27:16.000Z</time>
      </trkpt>
      <trkpt lat="43.35725" lon="6.10463">
        <ele>391.662988</ele>
        <time>2025-04-25T07:27:17.000Z</time>
      </trkpt>
      <trkpt lat="43.35724" lon="6.1047">
        <ele>391.976813</ele>
        <time>2025-04-25T07:27:18.000Z</time>
      </trkpt>
      <trkpt lat="43.35722" lon="6.10475">
        <ele>392.24378</ele>
        <time>2025-04-25T07:27:19.000Z</time>
      </trkpt>
      <trkpt lat="43.35722" lon="6.10475">
        <ele>392.24378</ele>
        <time>2025-04-25T07:27:19.000Z</time>
      </trkpt>
      <trkpt lat="43.35722" lon="6.10481">
        <ele>392.534482</ele>
        <time>2025-04-25T07:27:20.000Z</time>
      </trkpt>
      <trkpt lat="43.35721" lon="6.10486">
        <ele>392.801413</ele>
        <time>2025-04-25T07:27:21.000Z</time>
      </trkpt>
      <trkpt lat="43.3572" lon="6.10491">
        <ele>393.06838</ele>
        <time>2025-04-25T07:27:22.000Z</time>
      </trkpt>
      <trkpt lat="43.3572" lon="6.10491">
        <ele>393.06838</ele>
        <time>2025-04-25T07:27:22.000Z</time>
      </trkpt>
      <trkpt lat="43.35718" lon="6.10497">
        <ele>393.339347</ele>
        <time>2025-04-25T07:27:23.000Z</time>
      </trkpt>
      <trkpt lat="43.35717" lon="6.10501">
        <ele>393.59511</ele>
        <time>2025-04-25T07:27:24.000Z</time>
      </trkpt>
      <trkpt lat="43.35717" lon="6.10501">
        <ele>393.59511</ele>
        <time>2025-04-25T07:27:24.000Z</time>
      </trkpt>
      <trkpt lat="43.35715" lon="6.10507">
        <ele>393.876995</ele>
        <time>2025-04-25T07:27:25.000Z</time>
      </trkpt>
      <trkpt lat="43.35714" lon="6.10513">
        <ele>394.172016</ele>
        <time>2025-04-25T07:27:26.000Z</time>
      </trkpt>
      <trkpt lat="43.35713" lon="6.10518">
        <ele>394.457958</ele>
        <time>2025-04-25T07:27:27.000Z</time>
      </trkpt>
      <trkpt lat="43.35713" lon="6.10518">
        <ele>394.457958</ele>
        <time>2025-04-25T07:27:27.000Z</time>
      </trkpt>
      <trkpt lat="43.35712" lon="6.10523">
        <ele>394.706417</ele>
        <time>2025-04-25T07:27:28.000Z</time>
      </trkpt>
      <trkpt lat="43.35712" lon="6.10523">
        <ele>394.706417</ele>
        <time>2025-04-25T07:27:28.000Z</time>
      </trkpt>
      <trkpt lat="43.35711" lon="6.10528">
        <ele>394.950187</ele>
        <time>2025-04-25T07:27:29.000Z</time>
      </trkpt>
      <trkpt lat="43.35711" lon="6.10528">
        <ele>394.950187</ele>
        <time>2025-04-25T07:27:29.000Z</time>
      </trkpt>
      <trkpt lat="43.35711" lon="6.10533">
        <ele>395.16987</ele>
        <time>2025-04-25T07:27:29.000Z</time>
      </trkpt>
      <trkpt lat="43.35711" lon="6.10533">
        <ele>395.16987</ele>
        <time>2025-04-25T07:27:29.000Z</time>
      </trkpt>
      <trkpt lat="43.35709" lon="6.10537">
        <ele>395.399822</ele>
        <time>2025-04-25T07:27:31.000Z</time>
      </trkpt>
      <trkpt lat="43.35709" lon="6.10537">
        <ele>395.399822</ele>
        <time>2025-04-25T07:27:31.000Z</time>
      </trkpt>
      <trkpt lat="43.35708" lon="6.10541">
        <ele>395.596609</ele>
        <time>2025-04-25T07:27:32.000Z</time>
      </trkpt>
      <trkpt lat="43.35708" lon="6.10541">
        <ele>395.596609</ele>
        <time>2025-04-25T07:27:32.000Z</time>
      </trkpt>
      <trkpt lat="43.35707" lon="6.10545">
        <ele>395.825702</ele>
        <time>2025-04-25T07:27:33.000Z</time>
      </trkpt>
      <trkpt lat="43.35707" lon="6.10545">
        <ele>395.825702</ele>
        <time>2025-04-25T07:27:33.000Z</time>
      </trkpt>
      <trkpt lat="43.35706" lon="6.10551">
        <ele>396.094574</ele>
        <time>2025-04-25T07:27:34.000Z</time>
      </trkpt>
      <trkpt lat="43.35706" lon="6.10551">
        <ele>396.094574</ele>
        <time>2025-04-25T07:27:34.000Z</time>
      </trkpt>
      <trkpt lat="43.35706" lon="6.10556">
        <ele>396.365819</ele>
        <time>2025-04-25T07:27:35.000Z</time>
      </trkpt>
      <trkpt lat="43.35706" lon="6.10556">
        <ele>396.365819</ele>
        <time>2025-04-25T07:27:35.000Z</time>
      </trkpt>
      <trkpt lat="43.35706" lon="6.10561">
        <ele>396.614278</ele>
        <time>2025-04-25T07:27:36.000Z</time>
      </trkpt>
      <trkpt lat="43.35706" lon="6.10561">
        <ele>396.614278</ele>
        <time>2025-04-25T07:27:36.000Z</time>
      </trkpt>
      <trkpt lat="43.35707" lon="6.10567">
        <ele>396.886829</ele>
        <time>2025-04-25T07:27:37.000Z</time>
      </trkpt>
      <trkpt lat="43.35707" lon="6.10567">
        <ele>396.886829</ele>
        <time>2025-04-25T07:27:37.000Z</time>
      </trkpt>
      <trkpt lat="43.35706" lon="6.10571">
        <ele>397.101609</ele>
        <time>2025-04-25T07:27:38.000Z</time>
      </trkpt>
      <trkpt lat="43.35706" lon="6.10571">
        <ele>397.101609</ele>
        <time>2025-04-25T07:27:38.000Z</time>
      </trkpt>
      <trkpt lat="43.35706" lon="6.10576">
        <ele>397.345253</ele>
        <time>2025-04-25T07:27:39.000Z</time>
      </trkpt>
      <trkpt lat="43.35706" lon="6.10576">
        <ele>397.345253</ele>
        <time>2025-04-25T07:27:39.000Z</time>
      </trkpt>
      <trkpt lat="43.35705" lon="6.1058">
        <ele>397.544532</ele>
        <time>2025-04-25T07:27:40.000Z</time>
      </trkpt>
      <trkpt lat="43.35705" lon="6.1058">
        <ele>397.544532</ele>
        <time>2025-04-25T07:27:40.000Z</time>
      </trkpt>
      <trkpt lat="43.35704" lon="6.10585">
        <ele>397.768918</ele>
        <time>2025-04-25T07:27:41.000Z</time>
      </trkpt>
      <trkpt lat="43.35704" lon="6.10585">
        <ele>397.768918</ele>
        <time>2025-04-25T07:27:41.000Z</time>
      </trkpt>
      <trkpt lat="43.35703" lon="6.10589">
        <ele>398.017535</ele>
        <time>2025-04-25T07:27:42.000Z</time>
      </trkpt>
      <trkpt lat="43.35703" lon="6.10589">
        <ele>398.017535</ele>
        <time>2025-04-25T07:27:42.000Z</time>
      </trkpt>
      <trkpt lat="43.35702" lon="6.10595">
        <ele>398.314281</ele>
        <time>2025-04-25T07:27:43.000Z</time>
      </trkpt>
      <trkpt lat="43.35702" lon="6.10595">
        <ele>398.314281</ele>
        <time>2025-04-25T07:27:43.000Z</time>
      </trkpt>
      <trkpt lat="43.35701" lon="6.106">
        <ele>398.571947</ele>
        <time>2025-04-25T07:27:43.000Z</time>
      </trkpt>
      <trkpt lat="43.35701" lon="6.106">
        <ele>398.571947</ele>
        <time>2025-04-25T07:27:43.000Z</time>
      </trkpt>
      <trkpt lat="43.35699" lon="6.10606">
        <ele>398.86716</ele>
        <time>2025-04-25T07:27:45.000Z</time>
      </trkpt>
      <trkpt lat="43.35699" lon="6.10606">
        <ele>398.86716</ele>
        <time>2025-04-25T07:27:45.000Z</time>
      </trkpt>
      <trkpt lat="43.35698" lon="6.1061">
        <ele>399.119311</ele>
        <time>2025-04-25T07:27:45.000Z</time>
      </trkpt>
      <trkpt lat="43.35698" lon="6.1061">
        <ele>399.119311</ele>
        <time>2025-04-25T07:27:45.000Z</time>
      </trkpt>
      <trkpt lat="43.35697" lon="6.10615">
        <ele>399.392859</ele>
        <time>2025-04-25T07:27:47.000Z</time>
      </trkpt>
      <trkpt lat="43.35697" lon="6.10615">
        <ele>399.392859</ele>
        <time>2025-04-25T07:27:47.000Z</time>
      </trkpt>
      <trkpt lat="43.35696" lon="6.10619">
        <ele>399.639818</ele>
        <time>2025-04-25T07:27:48.000Z</time>
      </trkpt>
      <trkpt lat="43.35696" lon="6.10619">
        <ele>399.639818</ele>
        <time>2025-04-25T07:27:48.000Z</time>
      </trkpt>
      <trkpt lat="43.35695" lon="6.10623">
        <ele>399.88401</ele>
        <time>2025-04-25T07:27:49.000Z</time>
      </trkpt>
      <trkpt lat="43.35695" lon="6.10623">
        <ele>399.88401</ele>
        <time>2025-04-25T07:27:49.000Z</time>
      </trkpt>
      <trkpt lat="43.35694" lon="6.10627">
        <ele>400.105063</ele>
        <time>2025-04-25T07:27:50.000Z</time>
      </trkpt>
      <trkpt lat="43.35694" lon="6.10627">
        <ele>400.105063</ele>
        <time>2025-04-25T07:27:50.000Z</time>
      </trkpt>
      <trkpt lat="43.35693" lon="6.10632">
        <ele>400.402307</ele>
        <time>2025-04-25T07:27:51.000Z</time>
      </trkpt>
      <trkpt lat="43.35693" lon="6.10632">
        <ele>400.402307</ele>
        <time>2025-04-25T07:27:51.000Z</time>
      </trkpt>
      <trkpt lat="43.35692" lon="6.10636">
        <ele>400.661158</ele>
        <time>2025-04-25T07:27:52.000Z</time>
      </trkpt>
      <trkpt lat="43.35692" lon="6.10636">
        <ele>400.661158</ele>
        <time>2025-04-25T07:27:52.000Z</time>
      </trkpt>
      <trkpt lat="43.35692" lon="6.10641">
        <ele>400.92376</ele>
        <time>2025-04-25T07:27:53.000Z</time>
      </trkpt>
      <trkpt lat="43.35692" lon="6.10641">
        <ele>400.92376</ele>
        <time>2025-04-25T07:27:53.000Z</time>
      </trkpt>
      <trkpt lat="43.35691" lon="6.10645">
        <ele>401.16636</ele>
        <time>2025-04-25T07:27:54.000Z</time>
      </trkpt>
      <trkpt lat="43.35691" lon="6.10645">
        <ele>401.16636</ele>
        <time>2025-04-25T07:27:54.000Z</time>
      </trkpt>
      <trkpt lat="43.3569" lon="6.10649">
        <ele>401.434183</ele>
        <time>2025-04-25T07:27:55.000Z</time>
      </trkpt>
      <trkpt lat="43.3569" lon="6.10649">
        <ele>401.434183</ele>
        <time>2025-04-25T07:27:55.000Z</time>
      </trkpt>
      <trkpt lat="43.35688" lon="6.10654">
        <ele>401.695647</ele>
        <time>2025-04-25T07:27:56.000Z</time>
      </trkpt>
      <trkpt lat="43.35688" lon="6.10654">
        <ele>401.695647</ele>
        <time>2025-04-25T07:27:56.000Z</time>
      </trkpt>
      <trkpt lat="43.35687" lon="6.10658">
        <ele>401.93984</ele>
        <time>2025-04-25T07:27:57.000Z</time>
      </trkpt>
      <trkpt lat="43.35687" lon="6.10658">
        <ele>401.93984</ele>
        <time>2025-04-25T07:27:57.000Z</time>
      </trkpt>
      <trkpt lat="43.35686" lon="6.10661">
        <ele>402.166219</ele>
        <time>2025-04-25T07:27:58.000Z</time>
      </trkpt>
      <trkpt lat="43.35686" lon="6.10661">
        <ele>402.166219</ele>
        <time>2025-04-25T07:27:58.000Z</time>
      </trkpt>
      <trkpt lat="43.35685" lon="6.10665">
        <ele>402.380763</ele>
        <time>2025-04-25T07:27:59.000Z</time>
      </trkpt>
      <trkpt lat="43.35685" lon="6.10665">
        <ele>402.380763</ele>
        <time>2025-04-25T07:27:59.000Z</time>
      </trkpt>
      <trkpt lat="43.35684" lon="6.10669">
        <ele>402.630206</ele>
        <time>2025-04-25T07:28:00.000Z</time>
      </trkpt>
      <trkpt lat="43.35684" lon="6.10669">
        <ele>402.630206</ele>
        <time>2025-04-25T07:28:00.000Z</time>
      </trkpt>
      <trkpt lat="43.35684" lon="6.10674">
        <ele>402.88907</ele>
        <time>2025-04-25T07:28:01.000Z</time>
      </trkpt>
      <trkpt lat="43.35684" lon="6.10674">
        <ele>402.88907</ele>
        <time>2025-04-25T07:28:01.000Z</time>
      </trkpt>
      <trkpt lat="43.35683" lon="6.10679">
        <ele>403.16262</ele>
        <time>2025-04-25T07:28:02.000Z</time>
      </trkpt>
      <trkpt lat="43.35683" lon="6.10679">
        <ele>403.16262</ele>
        <time>2025-04-25T07:28:02.000Z</time>
      </trkpt>
      <trkpt lat="43.35683" lon="6.10684">
        <ele>403.4548</ele>
        <time>2025-04-25T07:28:03.000Z</time>
      </trkpt>
      <trkpt lat="43.35683" lon="6.10684">
        <ele>403.4548</ele>
        <time>2025-04-25T07:28:03.000Z</time>
      </trkpt>
      <trkpt lat="43.35682" lon="6.10688">
        <ele>403.697028</ele>
        <time>2025-04-25T07:28:04.000Z</time>
      </trkpt>
      <trkpt lat="43.35682" lon="6.10688">
        <ele>403.697028</ele>
        <time>2025-04-25T07:28:04.000Z</time>
      </trkpt>
      <trkpt lat="43.35682" lon="6.10693">
        <ele>403.988555</ele>
        <time>2025-04-25T07:28:05.000Z</time>
      </trkpt>
      <trkpt lat="43.35682" lon="6.10693">
        <ele>403.988555</ele>
        <time>2025-04-25T07:28:05.000Z</time>
      </trkpt>
      <trkpt lat="43.35681" lon="6.10698">
        <ele>404.229928</ele>
        <time>2025-04-25T07:28:06.000Z</time>
      </trkpt>
      <trkpt lat="43.35681" lon="6.10698">
        <ele>404.229928</ele>
        <time>2025-04-25T07:28:06.000Z</time>
      </trkpt>
      <trkpt lat="43.35681" lon="6.10703">
        <ele>404.510998</ele>
        <time>2025-04-25T07:28:07.000Z</time>
      </trkpt>
      <trkpt lat="43.35681" lon="6.10703">
        <ele>404.510998</ele>
        <time>2025-04-25T07:28:07.000Z</time>
      </trkpt>
      <trkpt lat="43.3568" lon="6.10707">
        <ele>404.764315</ele>
        <time>2025-04-25T07:28:08.000Z</time>
      </trkpt>
      <trkpt lat="43.3568" lon="6.10707">
        <ele>404.764315</ele>
        <time>2025-04-25T07:28:08.000Z</time>
      </trkpt>
      <trkpt lat="43.3568" lon="6.10712">
        <ele>405.050383</ele>
        <time>2025-04-25T07:28:09.000Z</time>
      </trkpt>
      <trkpt lat="43.3568" lon="6.10712">
        <ele>405.050383</ele>
        <time>2025-04-25T07:28:09.000Z</time>
      </trkpt>
      <trkpt lat="43.35679" lon="6.10717">
        <ele>405.312984</ele>
        <time>2025-04-25T07:28:10.000Z</time>
      </trkpt>
      <trkpt lat="43.35679" lon="6.10717">
        <ele>405.312984</ele>
        <time>2025-04-25T07:28:10.000Z</time>
      </trkpt>
      <trkpt lat="43.35679" lon="6.10721">
        <ele>405.571849</ele>
        <time>2025-04-25T07:28:11.000Z</time>
      </trkpt>
      <trkpt lat="43.35679" lon="6.10721">
        <ele>405.571849</ele>
        <time>2025-04-25T07:28:11.000Z</time>
      </trkpt>
      <trkpt lat="43.35678" lon="6.10727">
        <ele>405.864029</ele>
        <time>2025-04-25T07:28:12.000Z</time>
      </trkpt>
      <trkpt lat="43.35678" lon="6.10727">
        <ele>405.864029</ele>
        <time>2025-04-25T07:28:12.000Z</time>
      </trkpt>
      <trkpt lat="43.35678" lon="6.10731">
        <ele>406.117346</ele>
        <time>2025-04-25T07:28:13.000Z</time>
      </trkpt>
      <trkpt lat="43.35678" lon="6.10731">
        <ele>406.117346</ele>
        <time>2025-04-25T07:28:13.000Z</time>
      </trkpt>
      <trkpt lat="43.35677" lon="6.10736">
        <ele>406.392862</ele>
        <time>2025-04-25T07:28:14.000Z</time>
      </trkpt>
      <trkpt lat="43.35677" lon="6.10736">
        <ele>406.392862</ele>
        <time>2025-04-25T07:28:14.000Z</time>
      </trkpt>
      <trkpt lat="43.35677" lon="6.10741">
        <ele>406.662059</ele>
        <time>2025-04-25T07:28:15.000Z</time>
      </trkpt>
      <trkpt lat="43.35677" lon="6.10741">
        <ele>406.662059</ele>
        <time>2025-04-25T07:28:15.000Z</time>
      </trkpt>
      <trkpt lat="43.35677" lon="6.10745">
        <ele>406.907917</ele>
        <time>2025-04-25T07:28:16.000Z</time>
      </trkpt>
      <trkpt lat="43.35677" lon="6.10745">
        <ele>406.907917</ele>
        <time>2025-04-25T07:28:16.000Z</time>
      </trkpt>
      <trkpt lat="43.35677" lon="6.10749">
        <ele>407.133528</ele>
        <time>2025-04-25T07:28:17.000Z</time>
      </trkpt>
      <trkpt lat="43.35677" lon="6.10749">
        <ele>407.133528</ele>
        <time>2025-04-25T07:28:17.000Z</time>
      </trkpt>
      <trkpt lat="43.35676" lon="6.10754">
        <ele>407.414141</ele>
        <time>2025-04-25T07:28:18.000Z</time>
      </trkpt>
      <trkpt lat="43.35676" lon="6.10754">
        <ele>407.414141</ele>
        <time>2025-04-25T07:28:18.000Z</time>
      </trkpt>
      <trkpt lat="43.35675" lon="6.10759">
        <ele>407.722117</ele>
        <time>2025-04-25T07:28:19.000Z</time>
      </trkpt>
      <trkpt lat="43.35675" lon="6.10759">
        <ele>407.722117</ele>
        <time>2025-04-25T07:28:19.000Z</time>
      </trkpt>
      <trkpt lat="43.35674" lon="6.10764">
        <ele>407.9864</ele>
        <time>2025-04-25T07:28:20.000Z</time>
      </trkpt>
      <trkpt lat="43.35674" lon="6.10764">
        <ele>407.9864</ele>
        <time>2025-04-25T07:28:20.000Z</time>
      </trkpt>
      <trkpt lat="43.35673" lon="6.10769">
        <ele>408.267014</ele>
        <time>2025-04-25T07:28:21.000Z</time>
      </trkpt>
      <trkpt lat="43.35673" lon="6.10769">
        <ele>408.267014</ele>
        <time>2025-04-25T07:28:21.000Z</time>
      </trkpt>
      <trkpt lat="43.35672" lon="6.10775">
        <ele>408.584514</ele>
        <time>2025-04-25T07:28:22.000Z</time>
      </trkpt>
      <trkpt lat="43.35672" lon="6.10775">
        <ele>408.584514</ele>
        <time>2025-04-25T07:28:22.000Z</time>
      </trkpt>
      <trkpt lat="43.35672" lon="6.10779">
        <ele>408.86003</ele>
        <time>2025-04-25T07:28:23.000Z</time>
      </trkpt>
      <trkpt lat="43.35672" lon="6.10779">
        <ele>408.86003</ele>
        <time>2025-04-25T07:28:23.000Z</time>
      </trkpt>
      <trkpt lat="43.35672" lon="6.10784">
        <ele>409.135546</ele>
        <time>2025-04-25T07:28:24.000Z</time>
      </trkpt>
      <trkpt lat="43.35672" lon="6.10784">
        <ele>409.135546</ele>
        <time>2025-04-25T07:28:24.000Z</time>
      </trkpt>
      <trkpt lat="43.35671" lon="6.10789">
        <ele>409.416616</ele>
        <time>2025-04-25T07:28:25.000Z</time>
      </trkpt>
      <trkpt lat="43.35671" lon="6.10789">
        <ele>409.416616</ele>
        <time>2025-04-25T07:28:25.000Z</time>
      </trkpt>
      <trkpt lat="43.35671" lon="6.10794">
        <ele>409.680247</ele>
        <time>2025-04-25T07:28:26.000Z</time>
      </trkpt>
      <trkpt lat="43.35671" lon="6.10794">
        <ele>409.680247</ele>
        <time>2025-04-25T07:28:26.000Z</time>
      </trkpt>
      <trkpt lat="43.35671" lon="6.10799">
        <ele>409.977985</ele>
        <time>2025-04-25T07:28:27.000Z</time>
      </trkpt>
      <trkpt lat="43.35671" lon="6.10799">
        <ele>409.977985</ele>
        <time>2025-04-25T07:28:27.000Z</time>
      </trkpt>
      <trkpt lat="43.35671" lon="6.10804">
        <ele>410.223843</ele>
        <time>2025-04-25T07:28:28.000Z</time>
      </trkpt>
      <trkpt lat="43.35671" lon="6.10804">
        <ele>410.223843</ele>
        <time>2025-04-25T07:28:28.000Z</time>
      </trkpt>
      <trkpt lat="43.3567" lon="6.10808">
        <ele>410.488256</ele>
        <time>2025-04-25T07:28:29.000Z</time>
      </trkpt>
      <trkpt lat="43.3567" lon="6.10808">
        <ele>410.488256</ele>
        <time>2025-04-25T07:28:29.000Z</time>
      </trkpt>
      <trkpt lat="43.3567" lon="6.10813">
        <ele>410.76764</ele>
        <time>2025-04-25T07:28:30.000Z</time>
      </trkpt>
      <trkpt lat="43.3567" lon="6.10813">
        <ele>410.76764</ele>
        <time>2025-04-25T07:28:30.000Z</time>
      </trkpt>
      <trkpt lat="43.3567" lon="6.10818">
        <ele>411.043156</ele>
        <time>2025-04-25T07:28:31.000Z</time>
      </trkpt>
      <trkpt lat="43.3567" lon="6.10818">
        <ele>411.043156</ele>
        <time>2025-04-25T07:28:31.000Z</time>
      </trkpt>
      <trkpt lat="43.35669" lon="6.10823">
        <ele>411.329781</ele>
        <time>2025-04-25T07:28:32.000Z</time>
      </trkpt>
      <trkpt lat="43.35669" lon="6.10823">
        <ele>411.329781</ele>
        <time>2025-04-25T07:28:32.000Z</time>
      </trkpt>
      <trkpt lat="43.35669" lon="6.10828">
        <ele>411.603331</ele>
        <time>2025-04-25T07:28:33.000Z</time>
      </trkpt>
      <trkpt lat="43.35669" lon="6.10828">
        <ele>411.603331</ele>
        <time>2025-04-25T07:28:33.000Z</time>
      </trkpt>
      <trkpt lat="43.35668" lon="6.10833">
        <ele>411.873296</ele>
        <time>2025-04-25T07:28:34.000Z</time>
      </trkpt>
      <trkpt lat="43.35668" lon="6.10838">
        <ele>412.154366</ele>
        <time>2025-04-25T07:28:35.000Z</time>
      </trkpt>
      <trkpt lat="43.35668" lon="6.10838">
        <ele>412.154366</ele>
        <time>2025-04-25T07:28:35.000Z</time>
      </trkpt>
      <trkpt lat="43.35667" lon="6.10843">
        <ele>412.446546</ele>
        <time>2025-04-25T07:28:36.000Z</time>
      </trkpt>
      <trkpt lat="43.35667" lon="6.10843">
        <ele>412.446546</ele>
        <time>2025-04-25T07:28:36.000Z</time>
      </trkpt>
      <trkpt lat="43.35667" lon="6.10848">
        <ele>412.605178</ele>
        <time>2025-04-25T07:28:37.000Z</time>
      </trkpt>
      <trkpt lat="43.35666" lon="6.10853">
        <ele>412.758524</ele>
        <time>2025-04-25T07:28:37.000Z</time>
      </trkpt>
      <trkpt lat="43.35666" lon="6.10853">
        <ele>412.758524</ele>
        <time>2025-04-25T07:28:37.000Z</time>
      </trkpt>
      <trkpt lat="43.35666" lon="6.10858">
        <ele>412.917931</ele>
        <time>2025-04-25T07:28:39.000Z</time>
      </trkpt>
      <trkpt lat="43.35666" lon="6.10858">
        <ele>412.917931</ele>
        <time>2025-04-25T07:28:39.000Z</time>
      </trkpt>
      <trkpt lat="43.35666" lon="6.10863">
        <ele>413.080371</ele>
        <time>2025-04-25T07:28:40.000Z</time>
      </trkpt>
      <trkpt lat="43.35665" lon="6.10868">
        <ele>413.232604</ele>
        <time>2025-04-25T07:28:41.000Z</time>
      </trkpt>
      <trkpt lat="43.35665" lon="6.10868">
        <ele>413.232604</ele>
        <time>2025-04-25T07:28:41.000Z</time>
      </trkpt>
      <trkpt lat="43.35664" lon="6.10873">
        <ele>413.388981</ele>
        <time>2025-04-25T07:28:42.000Z</time>
      </trkpt>
      <trkpt lat="43.35664" lon="6.10873">
        <ele>413.388981</ele>
        <time>2025-04-25T07:28:42.000Z</time>
      </trkpt>
      <trkpt lat="43.35664" lon="6.10879">
        <ele>413.559971</ele>
        <time>2025-04-25T07:28:43.000Z</time>
      </trkpt>
      <trkpt lat="43.35664" lon="6.10879">
        <ele>413.559971</ele>
        <time>2025-04-25T07:28:43.000Z</time>
      </trkpt>
      <trkpt lat="43.35663" lon="6.10884">
        <ele>413.713397</ele>
        <time>2025-04-25T07:28:44.000Z</time>
      </trkpt>
      <trkpt lat="43.35662" lon="6.10889">
        <ele>413.878413</ele>
        <time>2025-04-25T07:28:45.000Z</time>
      </trkpt>
      <trkpt lat="43.35662" lon="6.10889">
        <ele>413.878413</ele>
        <time>2025-04-25T07:28:45.000Z</time>
      </trkpt>
      <trkpt lat="43.35661" lon="6.10895">
        <ele>414.046918</ele>
        <time>2025-04-25T07:28:46.000Z</time>
      </trkpt>
      <trkpt lat="43.35661" lon="6.10895">
        <ele>414.046918</ele>
        <time>2025-04-25T07:28:46.000Z</time>
      </trkpt>
      <trkpt lat="43.35661" lon="6.10899">
        <ele>414.190189</ele>
        <time>2025-04-25T07:28:47.000Z</time>
      </trkpt>
      <trkpt lat="43.3566" lon="6.10904">
        <ele>414.352628</ele>
        <time>2025-04-25T07:28:48.000Z</time>
      </trkpt>
      <trkpt lat="43.3566" lon="6.10904">
        <ele>414.352628</ele>
        <time>2025-04-25T07:28:48.000Z</time>
      </trkpt>
      <trkpt lat="43.3566" lon="6.1091">
        <ele>414.521134</ele>
        <time>2025-04-25T07:28:49.000Z</time>
      </trkpt>
      <trkpt lat="43.3566" lon="6.1091">
        <ele>414.521134</ele>
        <time>2025-04-25T07:28:49.000Z</time>
      </trkpt>
      <trkpt lat="43.35659" lon="6.10916">
        <ele>414.704097</ele>
        <time>2025-04-25T07:28:50.000Z</time>
      </trkpt>
      <trkpt lat="43.35658" lon="6.10921">
        <ele>414.865315</ele>
        <time>2025-04-25T07:28:51.000Z</time>
      </trkpt>
      <trkpt lat="43.35658" lon="6.10927">
        <ele>415.042288</ele>
        <time>2025-04-25T07:28:52.000Z</time>
      </trkpt>
      <trkpt lat="43.35658" lon="6.10927">
        <ele>415.042288</ele>
        <time>2025-04-25T07:28:52.000Z</time>
      </trkpt>
      <trkpt lat="43.35657" lon="6.10932">
        <ele>415.216861</ele>
        <time>2025-04-25T07:28:53.000Z</time>
      </trkpt>
      <trkpt lat="43.35656" lon="6.10939">
        <ele>415.405123</ele>
        <time>2025-04-25T07:28:54.000Z</time>
      </trkpt>
      <trkpt lat="43.35656" lon="6.10939">
        <ele>415.405123</ele>
        <time>2025-04-25T07:28:54.000Z</time>
      </trkpt>
      <trkpt lat="43.35656" lon="6.10944">
        <ele>415.585766</ele>
        <time>2025-04-25T07:28:55.000Z</time>
      </trkpt>
      <trkpt lat="43.35656" lon="6.1095">
        <ele>415.753435</ele>
        <time>2025-04-25T07:28:56.000Z</time>
      </trkpt>
      <trkpt lat="43.35656" lon="6.1095">
        <ele>415.753435</ele>
        <time>2025-04-25T07:28:56.000Z</time>
      </trkpt>
      <trkpt lat="43.35656" lon="6.10956">
        <ele>415.930249</ele>
        <time>2025-04-25T07:28:57.000Z</time>
      </trkpt>
      <trkpt lat="43.35656" lon="6.10956">
        <ele>415.930249</ele>
        <time>2025-04-25T07:28:57.000Z</time>
      </trkpt>
      <trkpt lat="43.35657" lon="6.10962">
        <ele>416.112491</ele>
        <time>2025-04-25T07:28:58.000Z</time>
      </trkpt>
      <trkpt lat="43.35657" lon="6.10968">
        <ele>416.293134</ele>
        <time>2025-04-25T07:28:59.000Z</time>
      </trkpt>
      <trkpt lat="43.35657" lon="6.10968">
        <ele>416.293134</ele>
        <time>2025-04-25T07:28:59.000Z</time>
      </trkpt>
      <trkpt lat="43.35658" lon="6.10973">
        <ele>416.452542</ele>
        <time>2025-04-25T07:29:00.000Z</time>
      </trkpt>
      <trkpt lat="43.35657" lon="6.10978">
        <ele>416.624081</ele>
        <time>2025-04-25T07:29:01.000Z</time>
      </trkpt>
      <trkpt lat="43.35657" lon="6.10978">
        <ele>416.624081</ele>
        <time>2025-04-25T07:29:01.000Z</time>
      </trkpt>
      <trkpt lat="43.35658" lon="6.10984">
        <ele>416.783489</ele>
        <time>2025-04-25T07:29:02.000Z</time>
      </trkpt>
      <trkpt lat="43.35658" lon="6.10984">
        <ele>416.783489</ele>
        <time>2025-04-25T07:29:02.000Z</time>
      </trkpt>
      <trkpt lat="43.35658" lon="6.10989">
        <ele>416.938964</ele>
        <time>2025-04-25T07:29:03.000Z</time>
      </trkpt>
      <trkpt lat="43.35658" lon="6.10989">
        <ele>416.938964</ele>
        <time>2025-04-25T07:29:03.000Z</time>
      </trkpt>
      <trkpt lat="43.35658" lon="6.10994">
        <ele>417.094439</ele>
        <time>2025-04-25T07:29:04.000Z</time>
      </trkpt>
      <trkpt lat="43.35658" lon="6.10994">
        <ele>417.094439</ele>
        <time>2025-04-25T07:29:04.000Z</time>
      </trkpt>
      <trkpt lat="43.35658" lon="6.10999">
        <ele>417.256878</ele>
        <time>2025-04-25T07:29:05.000Z</time>
      </trkpt>
      <trkpt lat="43.35658" lon="6.11005">
        <ele>417.424547</ele>
        <time>2025-04-25T07:29:06.000Z</time>
      </trkpt>
      <trkpt lat="43.35658" lon="6.11005">
        <ele>417.424547</ele>
        <time>2025-04-25T07:29:06.000Z</time>
      </trkpt>
      <trkpt lat="43.35658" lon="6.11009">
        <ele>417.574863</ele>
        <time>2025-04-25T07:29:07.000Z</time>
      </trkpt>
      <trkpt lat="43.35658" lon="6.11009">
        <ele>417.574863</ele>
        <time>2025-04-25T07:29:07.000Z</time>
      </trkpt>
      <trkpt lat="43.35659" lon="6.11014">
        <ele>417.727808</ele>
        <time>2025-04-25T07:29:08.000Z</time>
      </trkpt>
      <trkpt lat="43.35659" lon="6.1102">
        <ele>417.89328</ele>
        <time>2025-04-25T07:29:09.000Z</time>
      </trkpt>
      <trkpt lat="43.35659" lon="6.1102">
        <ele>417.89328</ele>
        <time>2025-04-25T07:29:09.000Z</time>
      </trkpt>
      <trkpt lat="43.3566" lon="6.11026">
        <ele>418.073247</ele>
        <time>2025-04-25T07:29:10.000Z</time>
      </trkpt>
      <trkpt lat="43.3566" lon="6.11026">
        <ele>418.073247</ele>
        <time>2025-04-25T07:29:10.000Z</time>
      </trkpt>
      <trkpt lat="43.3566" lon="6.11031">
        <ele>418.237868</ele>
        <time>2025-04-25T07:29:11.000Z</time>
      </trkpt>
      <trkpt lat="43.3566" lon="6.11031">
        <ele>418.237868</ele>
        <time>2025-04-25T07:29:11.000Z</time>
      </trkpt>
      <trkpt lat="43.3566" lon="6.11037">
        <ele>418.408585</ele>
        <time>2025-04-25T07:29:12.000Z</time>
      </trkpt>
      <trkpt lat="43.35659" lon="6.11043">
        <ele>418.616562</ele>
        <time>2025-04-25T07:29:13.000Z</time>
      </trkpt>
      <trkpt lat="43.35659" lon="6.11043">
        <ele>418.616562</ele>
        <time>2025-04-25T07:29:13.000Z</time>
      </trkpt>
      <trkpt lat="43.35658" lon="6.11057">
        <ele>419.035751</ele>
        <time>2025-04-25T07:29:15.000Z</time>
      </trkpt>
      <trkpt lat="43.35658" lon="6.11057">
        <ele>419.035751</ele>
        <time>2025-04-25T07:29:15.000Z</time>
      </trkpt>
      <trkpt lat="43.35657" lon="6.11061">
        <ele>419.170931</ele>
        <time>2025-04-25T07:29:16.000Z</time>
      </trkpt>
      <trkpt lat="43.35657" lon="6.11061">
        <ele>419.170931</ele>
        <time>2025-04-25T07:29:16.000Z</time>
      </trkpt>
      <trkpt lat="43.35657" lon="6.11067">
        <ele>419.345504</ele>
        <time>2025-04-25T07:29:17.000Z</time>
      </trkpt>
      <trkpt lat="43.35657" lon="6.11067">
        <ele>419.345504</ele>
        <time>2025-04-25T07:29:17.000Z</time>
      </trkpt>
      <trkpt lat="43.35656" lon="6.11073">
        <ele>419.515722</ele>
        <time>2025-04-25T07:29:18.000Z</time>
      </trkpt>
      <trkpt lat="43.35656" lon="6.11073">
        <ele>419.515722</ele>
        <time>2025-04-25T07:29:18.000Z</time>
      </trkpt>
      <trkpt lat="43.35656" lon="6.11078">
        <ele>419.677294</ele>
        <time>2025-04-25T07:29:19.000Z</time>
      </trkpt>
      <trkpt lat="43.35656" lon="6.11078">
        <ele>419.677294</ele>
        <time>2025-04-25T07:29:19.000Z</time>
      </trkpt>
      <trkpt lat="43.35656" lon="6.11083">
        <ele>419.836702</ele>
        <time>2025-04-25T07:29:20.000Z</time>
      </trkpt>
      <trkpt lat="43.35656" lon="6.11083">
        <ele>419.836702</ele>
        <time>2025-04-25T07:29:20.000Z</time>
      </trkpt>
      <trkpt lat="43.35655" lon="6.11088">
        <ele>419.999142</ele>
        <time>2025-04-25T07:29:21.000Z</time>
      </trkpt>
      <trkpt lat="43.35655" lon="6.11088">
        <ele>419.999142</ele>
        <time>2025-04-25T07:29:21.000Z</time>
      </trkpt>
      <trkpt lat="43.35654" lon="6.11094">
        <ele>420.196245</ele>
        <time>2025-04-25T07:29:22.000Z</time>
      </trkpt>
      <trkpt lat="43.35653" lon="6.11099">
        <ele>420.418458</ele>
        <time>2025-04-25T07:29:23.000Z</time>
      </trkpt>
      <trkpt lat="43.35653" lon="6.11099">
        <ele>420.418458</ele>
        <time>2025-04-25T07:29:23.000Z</time>
      </trkpt>
      <trkpt lat="43.35653" lon="6.11105">
        <ele>420.633396</ele>
        <time>2025-04-25T07:29:24.000Z</time>
      </trkpt>
      <trkpt lat="43.35653" lon="6.11105">
        <ele>420.633396</ele>
        <time>2025-04-25T07:29:24.000Z</time>
      </trkpt>
      <trkpt lat="43.35652" lon="6.11111">
        <ele>420.852376</ele>
        <time>2025-04-25T07:29:25.000Z</time>
      </trkpt>
      <trkpt lat="43.35652" lon="6.11111">
        <ele>420.852376</ele>
        <time>2025-04-25T07:29:25.000Z</time>
      </trkpt>
      <trkpt lat="43.35652" lon="6.11116">
        <ele>421.041203</ele>
        <time>2025-04-25T07:29:26.000Z</time>
      </trkpt>
      <trkpt lat="43.35652" lon="6.11116">
        <ele>421.041203</ele>
        <time>2025-04-25T07:29:26.000Z</time>
      </trkpt>
      <trkpt lat="43.35653" lon="6.11121">
        <ele>421.238029</ele>
        <time>2025-04-25T07:29:27.000Z</time>
      </trkpt>
      <trkpt lat="43.35653" lon="6.11121">
        <ele>421.238029</ele>
        <time>2025-04-25T07:29:27.000Z</time>
      </trkpt>
      <trkpt lat="43.35653" lon="6.11126">
        <ele>421.423968</ele>
        <time>2025-04-25T07:29:28.000Z</time>
      </trkpt>
      <trkpt lat="43.35653" lon="6.11126">
        <ele>421.423968</ele>
        <time>2025-04-25T07:29:28.000Z</time>
      </trkpt>
      <trkpt lat="43.35654" lon="6.11131">
        <ele>421.61021</ele>
        <time>2025-04-25T07:29:29.000Z</time>
      </trkpt>
      <trkpt lat="43.35654" lon="6.11131">
        <ele>421.61021</ele>
        <time>2025-04-25T07:29:29.000Z</time>
      </trkpt>
      <trkpt lat="43.35653" lon="6.11136">
        <ele>421.774388</ele>
        <time>2025-04-25T07:29:30.000Z</time>
      </trkpt>
      <trkpt lat="43.35653" lon="6.11136">
        <ele>421.774388</ele>
        <time>2025-04-25T07:29:30.000Z</time>
      </trkpt>
      <trkpt lat="43.35653" lon="6.1114">
        <ele>421.948404</ele>
        <time>2025-04-25T07:29:31.000Z</time>
      </trkpt>
      <trkpt lat="43.35653" lon="6.1114">
        <ele>421.948404</ele>
        <time>2025-04-25T07:29:31.000Z</time>
      </trkpt>
      <trkpt lat="43.35653" lon="6.11145">
        <ele>422.122421</ele>
        <time>2025-04-25T07:29:32.000Z</time>
      </trkpt>
      <trkpt lat="43.35653" lon="6.11145">
        <ele>422.122421</ele>
        <time>2025-04-25T07:29:32.000Z</time>
      </trkpt>
      <trkpt lat="43.35653" lon="6.1115">
        <ele>422.300141</ele>
        <time>2025-04-25T07:29:33.000Z</time>
      </trkpt>
      <trkpt lat="43.35653" lon="6.1115">
        <ele>422.300141</ele>
        <time>2025-04-25T07:29:33.000Z</time>
      </trkpt>
      <trkpt lat="43.35653" lon="6.11154">
        <ele>422.450174</ele>
        <time>2025-04-25T07:29:34.000Z</time>
      </trkpt>
      <trkpt lat="43.35653" lon="6.11154">
        <ele>422.450174</ele>
        <time>2025-04-25T07:29:34.000Z</time>
      </trkpt>
      <trkpt lat="43.35652" lon="6.11159">
        <ele>422.631433</ele>
        <time>2025-04-25T07:29:35.000Z</time>
      </trkpt>
      <trkpt lat="43.35652" lon="6.11159">
        <ele>422.631433</ele>
        <time>2025-04-25T07:29:35.000Z</time>
      </trkpt>
      <trkpt lat="43.3565" lon="6.11163">
        <ele>422.826938</ele>
        <time>2025-04-25T07:29:36.000Z</time>
      </trkpt>
      <trkpt lat="43.3565" lon="6.11163">
        <ele>422.826938</ele>
        <time>2025-04-25T07:29:36.000Z</time>
      </trkpt>
      <trkpt lat="43.3565" lon="6.11168">
        <ele>423.004569</ele>
        <time>2025-04-25T07:29:37.000Z</time>
      </trkpt>
      <trkpt lat="43.3565" lon="6.11168">
        <ele>423.004569</ele>
        <time>2025-04-25T07:29:37.000Z</time>
      </trkpt>
      <trkpt lat="43.35649" lon="6.11173">
        <ele>423.19774</ele>
        <time>2025-04-25T07:29:38.000Z</time>
      </trkpt>
      <trkpt lat="43.35649" lon="6.11173">
        <ele>423.19774</ele>
        <time>2025-04-25T07:29:38.000Z</time>
      </trkpt>
      <trkpt lat="43.35648" lon="6.11178">
        <ele>423.387662</ele>
        <time>2025-04-25T07:29:39.000Z</time>
      </trkpt>
      <trkpt lat="43.35648" lon="6.11178">
        <ele>423.387662</ele>
        <time>2025-04-25T07:29:39.000Z</time>
      </trkpt>
      <trkpt lat="43.35648" lon="6.11183">
        <ele>423.566037</ele>
        <time>2025-04-25T07:29:40.000Z</time>
      </trkpt>
      <trkpt lat="43.35648" lon="6.11183">
        <ele>423.566037</ele>
        <time>2025-04-25T07:29:40.000Z</time>
      </trkpt>
      <trkpt lat="43.35648" lon="6.11188">
        <ele>423.758567</ele>
        <time>2025-04-25T07:29:41.000Z</time>
      </trkpt>
      <trkpt lat="43.35648" lon="6.11188">
        <ele>423.758567</ele>
        <time>2025-04-25T07:29:41.000Z</time>
      </trkpt>
      <trkpt lat="43.35648" lon="6.11194">
        <ele>423.955853</ele>
        <time>2025-04-25T07:29:42.000Z</time>
      </trkpt>
      <trkpt lat="43.35648" lon="6.11194">
        <ele>423.955853</ele>
        <time>2025-04-25T07:29:42.000Z</time>
      </trkpt>
      <trkpt lat="43.35647" lon="6.11199">
        <ele>424.159896</ele>
        <time>2025-04-25T07:29:43.000Z</time>
      </trkpt>
      <trkpt lat="43.35647" lon="6.11199">
        <ele>424.159896</ele>
        <time>2025-04-25T07:29:43.000Z</time>
      </trkpt>
      <trkpt lat="43.35646" lon="6.11205">
        <ele>424.388998</ele>
        <time>2025-04-25T07:29:44.000Z</time>
      </trkpt>
      <trkpt lat="43.35646" lon="6.11205">
        <ele>424.388998</ele>
        <time>2025-04-25T07:29:44.000Z</time>
      </trkpt>
      <trkpt lat="43.35645" lon="6.11211">
        <ele>424.603936</ele>
        <time>2025-04-25T07:29:45.000Z</time>
      </trkpt>
      <trkpt lat="43.35645" lon="6.11211">
        <ele>424.603936</ele>
        <time>2025-04-25T07:29:45.000Z</time>
      </trkpt>
      <trkpt lat="43.35645" lon="6.11216">
        <ele>424.793859</ele>
        <time>2025-04-25T07:29:46.000Z</time>
      </trkpt>
      <trkpt lat="43.35645" lon="6.11216">
        <ele>424.793859</ele>
        <time>2025-04-25T07:29:46.000Z</time>
      </trkpt>
      <trkpt lat="43.35645" lon="6.11221">
        <ele>424.972742</ele>
        <time>2025-04-25T07:29:47.000Z</time>
      </trkpt>
      <trkpt lat="43.35645" lon="6.11221">
        <ele>424.972742</ele>
        <time>2025-04-25T07:29:47.000Z</time>
      </trkpt>
      <trkpt lat="43.35645" lon="6.11225">
        <ele>425.150461</ele>
        <time>2025-04-25T07:29:48.000Z</time>
      </trkpt>
      <trkpt lat="43.35645" lon="6.11225">
        <ele>425.150461</ele>
        <time>2025-04-25T07:29:48.000Z</time>
      </trkpt>
      <trkpt lat="43.35645" lon="6.11231">
        <ele>425.339289</ele>
        <time>2025-04-25T07:29:49.000Z</time>
      </trkpt>
      <trkpt lat="43.35645" lon="6.11231">
        <ele>425.339289</ele>
        <time>2025-04-25T07:29:49.000Z</time>
      </trkpt>
      <trkpt lat="43.35645" lon="6.11236">
        <ele>425.550331</ele>
        <time>2025-04-25T07:29:50.000Z</time>
      </trkpt>
      <trkpt lat="43.35645" lon="6.11236">
        <ele>425.550331</ele>
        <time>2025-04-25T07:29:50.000Z</time>
      </trkpt>
      <trkpt lat="43.35645" lon="6.11242">
        <ele>425.762353</ele>
        <time>2025-04-25T07:29:51.000Z</time>
      </trkpt>
      <trkpt lat="43.35645" lon="6.11242">
        <ele>425.762353</ele>
        <time>2025-04-25T07:29:51.000Z</time>
      </trkpt>
      <trkpt lat="43.35646" lon="6.11247">
        <ele>425.95964</ele>
        <time>2025-04-25T07:29:52.000Z</time>
      </trkpt>
      <trkpt lat="43.35646" lon="6.11247">
        <ele>425.95964</ele>
        <time>2025-04-25T07:29:52.000Z</time>
      </trkpt>
      <trkpt lat="43.35646" lon="6.11253">
        <ele>426.166979</ele>
        <time>2025-04-25T07:29:53.000Z</time>
      </trkpt>
      <trkpt lat="43.35646" lon="6.11259">
        <ele>426.389129</ele>
        <time>2025-04-25T07:29:54.000Z</time>
      </trkpt>
      <trkpt lat="43.35646" lon="6.11259">
        <ele>426.389129</ele>
        <time>2025-04-25T07:29:54.000Z</time>
      </trkpt>
      <trkpt lat="43.35646" lon="6.11264">
        <ele>426.581659</ele>
        <time>2025-04-25T07:29:55.000Z</time>
      </trkpt>
      <trkpt lat="43.35646" lon="6.11264">
        <ele>426.581659</ele>
        <time>2025-04-25T07:29:55.000Z</time>
      </trkpt>
      <trkpt lat="43.35646" lon="6.11271">
        <ele>426.841632</ele>
        <time>2025-04-25T07:29:56.000Z</time>
      </trkpt>
      <trkpt lat="43.35646" lon="6.11276">
        <ele>427.023054</ele>
        <time>2025-04-25T07:29:57.000Z</time>
      </trkpt>
      <trkpt lat="43.35646" lon="6.11276">
        <ele>427.023054</ele>
        <time>2025-04-25T07:29:57.000Z</time>
      </trkpt>
      <trkpt lat="43.35646" lon="6.11282">
        <ele>427.238342</ele>
        <time>2025-04-25T07:29:58.000Z</time>
      </trkpt>
      <trkpt lat="43.35647" lon="6.11287">
        <ele>427.417225</ele>
        <time>2025-04-25T07:29:59.000Z</time>
      </trkpt>
      <trkpt lat="43.35647" lon="6.11287">
        <ele>427.417225</ele>
        <time>2025-04-25T07:29:59.000Z</time>
      </trkpt>
      <trkpt lat="43.35647" lon="6.11292">
        <ele>427.609754</ele>
        <time>2025-04-25T07:30:00.000Z</time>
      </trkpt>
      <trkpt lat="43.35647" lon="6.11292">
        <ele>427.609754</ele>
        <time>2025-04-25T07:30:00.000Z</time>
      </trkpt>
      <trkpt lat="43.35647" lon="6.11296">
        <ele>427.773932</ele>
        <time>2025-04-25T07:30:01.000Z</time>
      </trkpt>
      <trkpt lat="43.35648" lon="6.11301">
        <ele>427.963855</ele>
        <time>2025-04-25T07:30:02.000Z</time>
      </trkpt>
      <trkpt lat="43.35648" lon="6.11301">
        <ele>427.963855</ele>
        <time>2025-04-25T07:30:02.000Z</time>
      </trkpt>
      <trkpt lat="43.35648" lon="6.11306">
        <ele>428.131707</ele>
        <time>2025-04-25T07:30:03.000Z</time>
      </trkpt>
      <trkpt lat="43.35649" lon="6.1131">
        <ele>428.294856</ele>
        <time>2025-04-25T07:30:04.000Z</time>
      </trkpt>
      <trkpt lat="43.35649" lon="6.1131">
        <ele>428.294856</ele>
        <time>2025-04-25T07:30:04.000Z</time>
      </trkpt>
      <trkpt lat="43.3565" lon="6.11314">
        <ele>428.465387</ele>
        <time>2025-04-25T07:30:05.000Z</time>
      </trkpt>
      <trkpt lat="43.3565" lon="6.11314">
        <ele>428.465387</ele>
        <time>2025-04-25T07:30:05.000Z</time>
      </trkpt>
      <trkpt lat="43.35651" lon="6.11319">
        <ele>428.651725</ele>
        <time>2025-04-25T07:30:06.000Z</time>
      </trkpt>
      <trkpt lat="43.35652" lon="6.11324">
        <ele>428.837664</ele>
        <time>2025-04-25T07:30:07.000Z</time>
      </trkpt>
      <trkpt lat="43.35652" lon="6.11324">
        <ele>428.837664</ele>
        <time>2025-04-25T07:30:07.000Z</time>
      </trkpt>
      <trkpt lat="43.35653" lon="6.11329">
        <ele>429.022555</ele>
        <time>2025-04-25T07:30:08.000Z</time>
      </trkpt>
      <trkpt lat="43.35653" lon="6.11334">
        <ele>429.216292</ele>
        <time>2025-04-25T07:30:10.000Z</time>
      </trkpt>
      <trkpt lat="43.35653" lon="6.11334">
        <ele>429.216292</ele>
        <time>2025-04-25T07:30:10.000Z</time>
      </trkpt>
      <trkpt lat="43.35653" lon="6.1134">
        <ele>429.416859</ele>
        <time>2025-04-25T07:30:10.000Z</time>
      </trkpt>
      <trkpt lat="43.35653" lon="6.11345">
        <ele>429.613712</ele>
        <time>2025-04-25T07:30:11.000Z</time>
      </trkpt>
      <trkpt lat="43.35653" lon="6.11345">
        <ele>429.613712</ele>
        <time>2025-04-25T07:30:11.000Z</time>
      </trkpt>
      <trkpt lat="43.35653" lon="6.1135">
        <ele>429.811622</ele>
        <time>2025-04-25T07:30:12.000Z</time>
      </trkpt>
      <trkpt lat="43.35653" lon="6.1135">
        <ele>429.811622</ele>
        <time>2025-04-25T07:30:12.000Z</time>
      </trkpt>
      <trkpt lat="43.35653" lon="6.11356">
        <ele>430.01219</ele>
        <time>2025-04-25T07:30:14.000Z</time>
      </trkpt>
      <trkpt lat="43.35653" lon="6.11356">
        <ele>430.01219</ele>
        <time>2025-04-25T07:30:14.000Z</time>
      </trkpt>
      <trkpt lat="43.35653" lon="6.11361">
        <ele>430.216471</ele>
        <time>2025-04-25T07:30:14.000Z</time>
      </trkpt>
      <trkpt lat="43.35653" lon="6.11361">
        <ele>430.216471</ele>
        <time>2025-04-25T07:30:14.000Z</time>
      </trkpt>
      <trkpt lat="43.35653" lon="6.11367">
        <ele>430.429164</ele>
        <time>2025-04-25T07:30:15.000Z</time>
      </trkpt>
      <trkpt lat="43.35653" lon="6.11367">
        <ele>430.429164</ele>
        <time>2025-04-25T07:30:15.000Z</time>
      </trkpt>
      <trkpt lat="43.35652" lon="6.11373">
        <ele>430.662205</ele>
        <time>2025-04-25T07:30:16.000Z</time>
      </trkpt>
      <trkpt lat="43.35652" lon="6.11373">
        <ele>430.662205</ele>
        <time>2025-04-25T07:30:16.000Z</time>
      </trkpt>
      <trkpt lat="43.35652" lon="6.11379">
        <ele>430.904492</ele>
        <time>2025-04-25T07:30:17.000Z</time>
      </trkpt>
      <trkpt lat="43.35652" lon="6.11379">
        <ele>430.904492</ele>
        <time>2025-04-25T07:30:17.000Z</time>
      </trkpt>
      <trkpt lat="43.35652" lon="6.11386">
        <ele>431.131058</ele>
        <time>2025-04-25T07:30:19.000Z</time>
      </trkpt>
      <trkpt lat="43.35651" lon="6.11392">
        <ele>431.354845</ele>
        <time>2025-04-25T07:30:19.000Z</time>
      </trkpt>
      <trkpt lat="43.35651" lon="6.11392">
        <ele>431.354845</ele>
        <time>2025-04-25T07:30:19.000Z</time>
      </trkpt>
      <trkpt lat="43.35651" lon="6.11397">
        <ele>431.563174</ele>
        <time>2025-04-25T07:30:20.000Z</time>
      </trkpt>
      <trkpt lat="43.35651" lon="6.11397">
        <ele>431.563174</ele>
        <time>2025-04-25T07:30:20.000Z</time>
      </trkpt>
      <trkpt lat="43.3565" lon="6.11403">
        <ele>431.770562</ele>
        <time>2025-04-25T07:30:21.000Z</time>
      </trkpt>
      <trkpt lat="43.3565" lon="6.11408">
        <ele>431.975863</ele>
        <time>2025-04-25T07:30:22.000Z</time>
      </trkpt>
      <trkpt lat="43.3565" lon="6.11408">
        <ele>431.975863</ele>
        <time>2025-04-25T07:30:22.000Z</time>
      </trkpt>
      <trkpt lat="43.35648" lon="6.11414">
        <ele>432.189143</ele>
        <time>2025-04-25T07:30:23.000Z</time>
      </trkpt>
      <trkpt lat="43.35648" lon="6.11414">
        <ele>432.189143</ele>
        <time>2025-04-25T07:30:23.000Z</time>
      </trkpt>
      <trkpt lat="43.35647" lon="6.11419">
        <ele>432.397433</ele>
        <time>2025-04-25T07:30:24.000Z</time>
      </trkpt>
      <trkpt lat="43.35647" lon="6.11419">
        <ele>432.397433</ele>
        <time>2025-04-25T07:30:24.000Z</time>
      </trkpt>
      <trkpt lat="43.35646" lon="6.11424">
        <ele>432.602121</ele>
        <time>2025-04-25T07:30:25.000Z</time>
      </trkpt>
      <trkpt lat="43.35646" lon="6.11424">
        <ele>432.602121</ele>
        <time>2025-04-25T07:30:25.000Z</time>
      </trkpt>
      <trkpt lat="43.35645" lon="6.1143">
        <ele>432.809905</ele>
        <time>2025-04-25T07:30:26.000Z</time>
      </trkpt>
      <trkpt lat="43.35643" lon="6.11434">
        <ele>433.020328</ele>
        <time>2025-04-25T07:30:27.000Z</time>
      </trkpt>
      <trkpt lat="43.35643" lon="6.11434">
        <ele>433.020328</ele>
        <time>2025-04-25T07:30:27.000Z</time>
      </trkpt>
      <trkpt lat="43.35641" lon="6.11439">
        <ele>433.207218</ele>
        <time>2025-04-25T07:30:28.000Z</time>
      </trkpt>
      <trkpt lat="43.35639" lon="6.11443">
        <ele>433.413477</ele>
        <time>2025-04-25T07:30:29.000Z</time>
      </trkpt>
      <trkpt lat="43.35639" lon="6.11443">
        <ele>433.413477</ele>
        <time>2025-04-25T07:30:29.000Z</time>
      </trkpt>
      <trkpt lat="43.35637" lon="6.11449">
        <ele>433.631656</ele>
        <time>2025-04-25T07:30:30.000Z</time>
      </trkpt>
      <trkpt lat="43.35636" lon="6.11454">
        <ele>433.844937</ele>
        <time>2025-04-25T07:30:32.000Z</time>
      </trkpt>
      <trkpt lat="43.35636" lon="6.11454">
        <ele>433.844937</ele>
        <time>2025-04-25T07:30:32.000Z</time>
      </trkpt>
      <trkpt lat="43.35635" lon="6.1146">
        <ele>434.049653</ele>
        <time>2025-04-25T07:30:33.000Z</time>
      </trkpt>
      <trkpt lat="43.35635" lon="6.1146">
        <ele>434.049653</ele>
        <time>2025-04-25T07:30:33.000Z</time>
      </trkpt>
      <trkpt lat="43.35634" lon="6.11465">
        <ele>434.239807</ele>
        <time>2025-04-25T07:30:34.000Z</time>
      </trkpt>
      <trkpt lat="43.35634" lon="6.11465">
        <ele>434.239807</ele>
        <time>2025-04-25T07:30:34.000Z</time>
      </trkpt>
      <trkpt lat="43.35634" lon="6.11469">
        <ele>434.418</ele>
        <time>2025-04-25T07:30:35.000Z</time>
      </trkpt>
      <trkpt lat="43.35634" lon="6.11469">
        <ele>434.418</ele>
        <time>2025-04-25T07:30:35.000Z</time>
      </trkpt>
      <trkpt lat="43.35633" lon="6.11475">
        <ele>434.622689</ele>
        <time>2025-04-25T07:30:36.000Z</time>
      </trkpt>
      <trkpt lat="43.35633" lon="6.11475">
        <ele>434.622689</ele>
        <time>2025-04-25T07:30:36.000Z</time>
      </trkpt>
      <trkpt lat="43.35632" lon="6.1148">
        <ele>434.813163</ele>
        <time>2025-04-25T07:30:36.000Z</time>
      </trkpt>
      <trkpt lat="43.35631" lon="6.11484">
        <ele>434.97802</ele>
        <time>2025-04-25T07:30:38.000Z</time>
      </trkpt>
      <trkpt lat="43.3563" lon="6.11489">
        <ele>435.15378</ele>
        <time>2025-04-25T07:30:39.000Z</time>
      </trkpt>
      <trkpt lat="43.3563" lon="6.11489">
        <ele>435.15378</ele>
        <time>2025-04-25T07:30:39.000Z</time>
      </trkpt>
      <trkpt lat="43.3563" lon="6.11494">
        <ele>435.335777</ele>
        <time>2025-04-25T07:30:40.000Z</time>
      </trkpt>
      <trkpt lat="43.3563" lon="6.11494">
        <ele>435.335777</ele>
        <time>2025-04-25T07:30:40.000Z</time>
      </trkpt>
      <trkpt lat="43.3563" lon="6.11498">
        <ele>435.514059</ele>
        <time>2025-04-25T07:30:41.000Z</time>
      </trkpt>
      <trkpt lat="43.3563" lon="6.11498">
        <ele>435.514059</ele>
        <time>2025-04-25T07:30:41.000Z</time>
      </trkpt>
      <trkpt lat="43.35631" lon="6.11503">
        <ele>435.693509</ele>
        <time>2025-04-25T07:30:42.000Z</time>
      </trkpt>
      <trkpt lat="43.35631" lon="6.11509">
        <ele>435.890362</ele>
        <time>2025-04-25T07:30:43.000Z</time>
      </trkpt>
      <trkpt lat="43.35631" lon="6.11509">
        <ele>435.890362</ele>
        <time>2025-04-25T07:30:43.000Z</time>
      </trkpt>
      <trkpt lat="43.35631" lon="6.11514">
        <ele>436.077194</ele>
        <time>2025-04-25T07:30:44.000Z</time>
      </trkpt>
      <trkpt lat="43.35631" lon="6.11514">
        <ele>436.077194</ele>
        <time>2025-04-25T07:30:44.000Z</time>
      </trkpt>
      <trkpt lat="43.35632" lon="6.11518">
        <ele>436.26267</ele>
        <time>2025-04-25T07:30:45.000Z</time>
      </trkpt>
      <trkpt lat="43.35632" lon="6.11518">
        <ele>436.26267</ele>
        <time>2025-04-25T07:30:45.000Z</time>
      </trkpt>
      <trkpt lat="43.35632" lon="6.11523">
        <ele>436.434742</ele>
        <time>2025-04-25T07:30:45.000Z</time>
      </trkpt>
      <trkpt lat="43.35632" lon="6.11523">
        <ele>436.434742</ele>
        <time>2025-04-25T07:30:45.000Z</time>
      </trkpt>
      <trkpt lat="43.35633" lon="6.11528">
        <ele>436.628959</ele>
        <time>2025-04-25T07:30:47.000Z</time>
      </trkpt>
      <trkpt lat="43.35633" lon="6.11533">
        <ele>436.801031</ele>
        <time>2025-04-25T07:30:48.000Z</time>
      </trkpt>
      <trkpt lat="43.35633" lon="6.11533">
        <ele>436.801031</ele>
        <time>2025-04-25T07:30:48.000Z</time>
      </trkpt>
      <trkpt lat="43.35634" lon="6.11538">
        <ele>436.987959</ele>
        <time>2025-04-25T07:30:49.000Z</time>
      </trkpt>
      <trkpt lat="43.35634" lon="6.11538">
        <ele>436.987959</ele>
        <time>2025-04-25T07:30:49.000Z</time>
      </trkpt>
      <trkpt lat="43.35635" lon="6.11541">
        <ele>437.134896</ele>
        <time>2025-04-25T07:30:50.000Z</time>
      </trkpt>
      <trkpt lat="43.35635" lon="6.11541">
        <ele>437.134896</ele>
        <time>2025-04-25T07:30:50.000Z</time>
      </trkpt>
      <trkpt lat="43.35636" lon="6.11545">
        <ele>437.269732</ele>
        <time>2025-04-25T07:30:51.000Z</time>
      </trkpt>
      <trkpt lat="43.35636" lon="6.11545">
        <ele>437.269732</ele>
        <time>2025-04-25T07:30:51.000Z</time>
      </trkpt>
      <trkpt lat="43.35637" lon="6.11548">
        <ele>437.413105</ele>
        <time>2025-04-25T07:30:51.000Z</time>
      </trkpt>
      <trkpt lat="43.35637" lon="6.11548">
        <ele>437.413105</ele>
        <time>2025-04-25T07:30:51.000Z</time>
      </trkpt>
      <trkpt lat="43.35638" lon="6.11554">
        <ele>437.621396</ele>
        <time>2025-04-25T07:30:52.000Z</time>
      </trkpt>
      <trkpt lat="43.35638" lon="6.11554">
        <ele>437.621396</ele>
        <time>2025-04-25T07:30:52.000Z</time>
      </trkpt>
      <trkpt lat="43.35639" lon="6.11559">
        <ele>437.822446</ele>
        <time>2025-04-25T07:30:53.000Z</time>
      </trkpt>
      <trkpt lat="43.35639" lon="6.11559">
        <ele>437.822446</ele>
        <time>2025-04-25T07:30:53.000Z</time>
      </trkpt>
      <trkpt lat="43.3564" lon="6.11564">
        <ele>438.028623</ele>
        <time>2025-04-25T07:30:54.000Z</time>
      </trkpt>
      <trkpt lat="43.3564" lon="6.11564">
        <ele>438.028623</ele>
        <time>2025-04-25T07:30:54.000Z</time>
      </trkpt>
      <trkpt lat="43.35641" lon="6.11569">
        <ele>438.212012</ele>
        <time>2025-04-25T07:30:56.000Z</time>
      </trkpt>
      <trkpt lat="43.35641" lon="6.11569">
        <ele>438.212012</ele>
        <time>2025-04-25T07:30:56.000Z</time>
      </trkpt>
      <trkpt lat="43.35643" lon="6.11574">
        <ele>438.440507</ele>
        <time>2025-04-25T07:30:57.000Z</time>
      </trkpt>
      <trkpt lat="43.35643" lon="6.11574">
        <ele>438.440507</ele>
        <time>2025-04-25T07:30:57.000Z</time>
      </trkpt>
      <trkpt lat="43.35643" lon="6.11579">
        <ele>438.679951</ele>
        <time>2025-04-25T07:30:58.000Z</time>
      </trkpt>
      <trkpt lat="43.35643" lon="6.11579">
        <ele>438.679951</ele>
        <time>2025-04-25T07:30:58.000Z</time>
      </trkpt>
      <trkpt lat="43.35644" lon="6.11585">
        <ele>438.937618</ele>
        <time>2025-04-25T07:30:59.000Z</time>
      </trkpt>
      <trkpt lat="43.35644" lon="6.11585">
        <ele>438.937618</ele>
        <time>2025-04-25T07:30:59.000Z</time>
      </trkpt>
      <trkpt lat="43.35644" lon="6.1159">
        <ele>439.166947</ele>
        <time>2025-04-25T07:30:59.000Z</time>
      </trkpt>
      <trkpt lat="43.35644" lon="6.1159">
        <ele>439.166947</ele>
        <time>2025-04-25T07:30:59.000Z</time>
      </trkpt>
      <trkpt lat="43.35644" lon="6.11594">
        <ele>439.371634</ele>
        <time>2025-04-25T07:31:01.000Z</time>
      </trkpt>
      <trkpt lat="43.35644" lon="6.11594">
        <ele>439.371634</ele>
        <time>2025-04-25T07:31:01.000Z</time>
      </trkpt>
      <trkpt lat="43.35644" lon="6.11599">
        <ele>439.615194</ele>
        <time>2025-04-25T07:31:02.000Z</time>
      </trkpt>
      <trkpt lat="43.35644" lon="6.11599">
        <ele>439.615194</ele>
        <time>2025-04-25T07:31:02.000Z</time>
      </trkpt>
      <trkpt lat="43.35643" lon="6.11603">
        <ele>439.812109</ele>
        <time>2025-04-25T07:31:03.000Z</time>
      </trkpt>
      <trkpt lat="43.35643" lon="6.11603">
        <ele>439.812109</ele>
        <time>2025-04-25T07:31:03.000Z</time>
      </trkpt>
      <trkpt lat="43.35643" lon="6.11607">
        <ele>440.012036</ele>
        <time>2025-04-25T07:31:04.000Z</time>
      </trkpt>
      <trkpt lat="43.35643" lon="6.11607">
        <ele>440.012036</ele>
        <time>2025-04-25T07:31:04.000Z</time>
      </trkpt>
      <trkpt lat="43.35643" lon="6.11612">
        <ele>440.223113</ele>
        <time>2025-04-25T07:31:05.000Z</time>
      </trkpt>
      <trkpt lat="43.35643" lon="6.11612">
        <ele>440.223113</ele>
        <time>2025-04-25T07:31:05.000Z</time>
      </trkpt>
      <trkpt lat="43.35643" lon="6.11615">
        <ele>440.382366</ele>
        <time>2025-04-25T07:31:06.000Z</time>
      </trkpt>
      <trkpt lat="43.35643" lon="6.11615">
        <ele>440.382366</ele>
        <time>2025-04-25T07:31:06.000Z</time>
      </trkpt>
      <trkpt lat="43.35642" lon="6.11619">
        <ele>440.55572</ele>
        <time>2025-04-25T07:31:07.000Z</time>
      </trkpt>
      <trkpt lat="43.35642" lon="6.11619">
        <ele>440.55572</ele>
        <time>2025-04-25T07:31:07.000Z</time>
      </trkpt>
      <trkpt lat="43.35642" lon="6.11622">
        <ele>440.727086</ele>
        <time>2025-04-25T07:31:08.000Z</time>
      </trkpt>
      <trkpt lat="43.35642" lon="6.11622">
        <ele>440.727086</ele>
        <time>2025-04-25T07:31:08.000Z</time>
      </trkpt>
      <trkpt lat="43.35642" lon="6.11627">
        <ele>440.946931</ele>
        <time>2025-04-25T07:31:08.000Z</time>
      </trkpt>
      <trkpt lat="43.35642" lon="6.11627">
        <ele>440.946931</ele>
        <time>2025-04-25T07:31:08.000Z</time>
      </trkpt>
      <trkpt lat="43.35641" lon="6.11631">
        <ele>441.162827</ele>
        <time>2025-04-25T07:31:10.000Z</time>
      </trkpt>
      <trkpt lat="43.35641" lon="6.11631">
        <ele>441.162827</ele>
        <time>2025-04-25T07:31:10.000Z</time>
      </trkpt>
      <trkpt lat="43.3564" lon="6.11635">
        <ele>441.389852</ele>
        <time>2025-04-25T07:31:11.000Z</time>
      </trkpt>
      <trkpt lat="43.3564" lon="6.11635">
        <ele>441.389852</ele>
        <time>2025-04-25T07:31:11.000Z</time>
      </trkpt>
      <trkpt lat="43.35638" lon="6.1164">
        <ele>441.636886</ele>
        <time>2025-04-25T07:31:11.000Z</time>
      </trkpt>
      <trkpt lat="43.35638" lon="6.1164">
        <ele>441.636886</ele>
        <time>2025-04-25T07:31:11.000Z</time>
      </trkpt>
      <trkpt lat="43.35637" lon="6.11644">
        <ele>441.83601</ele>
        <time>2025-04-25T07:31:13.000Z</time>
      </trkpt>
      <trkpt lat="43.35637" lon="6.11644">
        <ele>441.83601</ele>
        <time>2025-04-25T07:31:13.000Z</time>
      </trkpt>
      <trkpt lat="43.35636" lon="6.11648">
        <ele>442.024326</ele>
        <time>2025-04-25T07:31:13.000Z</time>
      </trkpt>
      <trkpt lat="43.35636" lon="6.11648">
        <ele>442.024326</ele>
        <time>2025-04-25T07:31:13.000Z</time>
      </trkpt>
      <trkpt lat="43.35635" lon="6.11653">
        <ele>442.268438</ele>
        <time>2025-04-25T07:31:14.000Z</time>
      </trkpt>
      <trkpt lat="43.35635" lon="6.11653">
        <ele>442.268438</ele>
        <time>2025-04-25T07:31:14.000Z</time>
      </trkpt>
      <trkpt lat="43.35634" lon="6.11657">
        <ele>442.488954</ele>
        <time>2025-04-25T07:31:16.000Z</time>
      </trkpt>
      <trkpt lat="43.35634" lon="6.11657">
        <ele>442.488954</ele>
        <time>2025-04-25T07:31:16.000Z</time>
      </trkpt>
      <trkpt lat="43.35634" lon="6.11662">
        <ele>442.703161</ele>
        <time>2025-04-25T07:31:17.000Z</time>
      </trkpt>
      <trkpt lat="43.35634" lon="6.11662">
        <ele>442.703161</ele>
        <time>2025-04-25T07:31:17.000Z</time>
      </trkpt>
      <trkpt lat="43.35634" lon="6.11667">
        <ele>442.933145</ele>
        <time>2025-04-25T07:31:18.000Z</time>
      </trkpt>
      <trkpt lat="43.35634" lon="6.11667">
        <ele>442.933145</ele>
        <time>2025-04-25T07:31:18.000Z</time>
      </trkpt>
      <trkpt lat="43.35634" lon="6.11671">
        <ele>443.129297</ele>
        <time>2025-04-25T07:31:19.000Z</time>
      </trkpt>
      <trkpt lat="43.35634" lon="6.11671">
        <ele>443.129297</ele>
        <time>2025-04-25T07:31:19.000Z</time>
      </trkpt>
      <trkpt lat="43.35633" lon="6.11675">
        <ele>443.340374</ele>
        <time>2025-04-25T07:31:20.000Z</time>
      </trkpt>
      <trkpt lat="43.35633" lon="6.11679">
        <ele>443.52126</ele>
        <time>2025-04-25T07:31:21.000Z</time>
      </trkpt>
      <trkpt lat="43.35633" lon="6.11679">
        <ele>443.52126</ele>
        <time>2025-04-25T07:31:21.000Z</time>
      </trkpt>
      <trkpt lat="43.35633" lon="6.11682">
        <ele>443.683105</ele>
        <time>2025-04-25T07:31:22.000Z</time>
      </trkpt>
      <trkpt lat="43.35633" lon="6.11682">
        <ele>443.683105</ele>
        <time>2025-04-25T07:31:22.000Z</time>
      </trkpt>
      <trkpt lat="43.35634" lon="6.11686">
        <ele>443.865877</ele>
        <time>2025-04-25T07:31:23.000Z</time>
      </trkpt>
      <trkpt lat="43.35634" lon="6.11686">
        <ele>443.865877</ele>
        <time>2025-04-25T07:31:23.000Z</time>
      </trkpt>
      <trkpt lat="43.35634" lon="6.1169">
        <ele>444.057293</ele>
        <time>2025-04-25T07:31:24.000Z</time>
      </trkpt>
      <trkpt lat="43.35634" lon="6.1169">
        <ele>444.057293</ele>
        <time>2025-04-25T07:31:24.000Z</time>
      </trkpt>
      <trkpt lat="43.35634" lon="6.11695">
        <ele>444.273095</ele>
        <time>2025-04-25T07:31:25.000Z</time>
      </trkpt>
      <trkpt lat="43.35634" lon="6.11695">
        <ele>444.273095</ele>
        <time>2025-04-25T07:31:25.000Z</time>
      </trkpt>
      <trkpt lat="43.35634" lon="6.11699">
        <ele>444.496822</ele>
        <time>2025-04-25T07:31:26.000Z</time>
      </trkpt>
      <trkpt lat="43.35634" lon="6.11699">
        <ele>444.496822</ele>
        <time>2025-04-25T07:31:26.000Z</time>
      </trkpt>
      <trkpt lat="43.35634" lon="6.11704">
        <ele>444.74435</ele>
        <time>2025-04-25T07:31:27.000Z</time>
      </trkpt>
      <trkpt lat="43.35634" lon="6.11704">
        <ele>444.74435</ele>
        <time>2025-04-25T07:31:27.000Z</time>
      </trkpt>
      <trkpt lat="43.35634" lon="6.11709">
        <ele>444.949037</ele>
        <time>2025-04-25T07:31:28.000Z</time>
      </trkpt>
      <trkpt lat="43.35634" lon="6.11709">
        <ele>444.949037</ele>
        <time>2025-04-25T07:31:28.000Z</time>
      </trkpt>
      <trkpt lat="43.35634" lon="6.11714">
        <ele>445.17902</ele>
        <time>2025-04-25T07:31:29.000Z</time>
      </trkpt>
      <trkpt lat="43.35634" lon="6.11714">
        <ele>445.17902</ele>
        <time>2025-04-25T07:31:29.000Z</time>
      </trkpt>
      <trkpt lat="43.35634" lon="6.11719">
        <ele>445.427326</ele>
        <time>2025-04-25T07:31:30.000Z</time>
      </trkpt>
      <trkpt lat="43.35634" lon="6.11719">
        <ele>445.427326</ele>
        <time>2025-04-25T07:31:30.000Z</time>
      </trkpt>
      <trkpt lat="43.35634" lon="6.11723">
        <ele>445.627253</ele>
        <time>2025-04-25T07:31:31.000Z</time>
      </trkpt>
      <trkpt lat="43.35634" lon="6.11723">
        <ele>445.627253</ele>
        <time>2025-04-25T07:31:31.000Z</time>
      </trkpt>
      <trkpt lat="43.35634" lon="6.11727">
        <ele>445.817659</ele>
        <time>2025-04-25T07:31:32.000Z</time>
      </trkpt>
      <trkpt lat="43.35634" lon="6.11727">
        <ele>445.817659</ele>
        <time>2025-04-25T07:31:32.000Z</time>
      </trkpt>
      <trkpt lat="43.35633" lon="6.11732">
        <ele>446.042914</ele>
        <time>2025-04-25T07:31:33.000Z</time>
      </trkpt>
      <trkpt lat="43.35633" lon="6.11732">
        <ele>446.042914</ele>
        <time>2025-04-25T07:31:33.000Z</time>
      </trkpt>
      <trkpt lat="43.35632" lon="6.11736">
        <ele>446.280033</ele>
        <time>2025-04-25T07:31:34.000Z</time>
      </trkpt>
      <trkpt lat="43.35632" lon="6.11736">
        <ele>446.280033</ele>
        <time>2025-04-25T07:31:34.000Z</time>
      </trkpt>
      <trkpt lat="43.35631" lon="6.1174">
        <ele>446.471252</ele>
        <time>2025-04-25T07:31:35.000Z</time>
      </trkpt>
      <trkpt lat="43.35631" lon="6.1174">
        <ele>446.471252</ele>
        <time>2025-04-25T07:31:35.000Z</time>
      </trkpt>
      <trkpt lat="43.3563" lon="6.11745">
        <ele>446.714955</ele>
        <time>2025-04-25T07:31:36.000Z</time>
      </trkpt>
      <trkpt lat="43.3563" lon="6.11745">
        <ele>446.714955</ele>
        <time>2025-04-25T07:31:36.000Z</time>
      </trkpt>
      <trkpt lat="43.3563" lon="6.1175">
        <ele>446.926032</ele>
        <time>2025-04-25T07:31:37.000Z</time>
      </trkpt>
      <trkpt lat="43.35629" lon="6.11755">
        <ele>447.187134</ele>
        <time>2025-04-25T07:31:38.000Z</time>
      </trkpt>
      <trkpt lat="43.35629" lon="6.11755">
        <ele>447.187134</ele>
        <time>2025-04-25T07:31:38.000Z</time>
      </trkpt>
      <trkpt lat="43.35628" lon="6.1176">
        <ele>447.415293</ele>
        <time>2025-04-25T07:31:39.000Z</time>
      </trkpt>
      <trkpt lat="43.35627" lon="6.11764">
        <ele>447.650938</ele>
        <time>2025-04-25T07:31:40.000Z</time>
      </trkpt>
      <trkpt lat="43.35625" lon="6.11769">
        <ele>447.912815</ele>
        <time>2025-04-25T07:31:41.000Z</time>
      </trkpt>
      <trkpt lat="43.35624" lon="6.11773">
        <ele>448.127624</ele>
        <time>2025-04-25T07:31:42.000Z</time>
      </trkpt>
      <trkpt lat="43.35624" lon="6.11773">
        <ele>448.127624</ele>
        <time>2025-04-25T07:31:42.000Z</time>
      </trkpt>
      <trkpt lat="43.35622" lon="6.11778">
        <ele>448.371955</ele>
        <time>2025-04-25T07:31:43.000Z</time>
      </trkpt>
      <trkpt lat="43.35621" lon="6.11783">
        <ele>448.63432</ele>
        <time>2025-04-25T07:31:44.000Z</time>
      </trkpt>
      <trkpt lat="43.35621" lon="6.11788">
        <ele>448.850217</ele>
        <time>2025-04-25T07:31:45.000Z</time>
      </trkpt>
      <trkpt lat="43.35621" lon="6.11788">
        <ele>448.850217</ele>
        <time>2025-04-25T07:31:45.000Z</time>
      </trkpt>
      <trkpt lat="43.3562" lon="6.11792">
        <ele>449.061498</ele>
        <time>2025-04-25T07:31:46.000Z</time>
      </trkpt>
      <trkpt lat="43.35619" lon="6.11797">
        <ele>449.287487</ele>
        <time>2025-04-25T07:31:47.000Z</time>
      </trkpt>
      <trkpt lat="43.35619" lon="6.11797">
        <ele>449.287487</ele>
        <time>2025-04-25T07:31:47.000Z</time>
      </trkpt>
      <trkpt lat="43.35618" lon="6.118">
        <ele>449.465549</ele>
        <time>2025-04-25T07:31:48.000Z</time>
      </trkpt>
      <trkpt lat="43.35618" lon="6.118">
        <ele>449.465549</ele>
        <time>2025-04-25T07:31:48.000Z</time>
      </trkpt>
      <trkpt lat="43.35618" lon="6.11805">
        <ele>449.670236</ele>
        <time>2025-04-25T07:31:49.000Z</time>
      </trkpt>
      <trkpt lat="43.35618" lon="6.11805">
        <ele>449.670236</ele>
        <time>2025-04-25T07:31:49.000Z</time>
      </trkpt>
      <trkpt lat="43.35619" lon="6.11809">
        <ele>449.895492</ele>
        <time>2025-04-25T07:31:50.000Z</time>
      </trkpt>
      <trkpt lat="43.3562" lon="6.11814">
        <ele>450.125997</ele>
        <time>2025-04-25T07:31:51.000Z</time>
      </trkpt>
      <trkpt lat="43.3562" lon="6.11814">
        <ele>450.125997</ele>
        <time>2025-04-25T07:31:51.000Z</time>
      </trkpt>
      <trkpt lat="43.3562" lon="6.11818">
        <ele>450.274385</ele>
        <time>2025-04-25T07:31:52.000Z</time>
      </trkpt>
      <trkpt lat="43.3562" lon="6.11818">
        <ele>450.274385</ele>
        <time>2025-04-25T07:31:52.000Z</time>
      </trkpt>
      <trkpt lat="43.3562" lon="6.11822">
        <ele>450.431272</ele>
        <time>2025-04-25T07:31:53.000Z</time>
      </trkpt>
      <trkpt lat="43.3562" lon="6.11822">
        <ele>450.431272</ele>
        <time>2025-04-25T07:31:53.000Z</time>
      </trkpt>
      <trkpt lat="43.35619" lon="6.11826">
        <ele>450.590865</ele>
        <time>2025-04-25T07:31:54.000Z</time>
      </trkpt>
      <trkpt lat="43.35618" lon="6.1183">
        <ele>450.754561</ele>
        <time>2025-04-25T07:31:55.000Z</time>
      </trkpt>
      <trkpt lat="43.35618" lon="6.1183">
        <ele>450.754561</ele>
        <time>2025-04-25T07:31:55.000Z</time>
      </trkpt>
      <trkpt lat="43.35617" lon="6.11834">
        <ele>450.899751</ele>
        <time>2025-04-25T07:31:56.000Z</time>
      </trkpt>
      <trkpt lat="43.35617" lon="6.11834">
        <ele>450.899751</ele>
        <time>2025-04-25T07:31:56.000Z</time>
      </trkpt>
      <trkpt lat="43.35616" lon="6.11838">
        <ele>451.043073</ele>
        <time>2025-04-25T07:31:57.000Z</time>
      </trkpt>
      <trkpt lat="43.35616" lon="6.11838">
        <ele>451.043073</ele>
        <time>2025-04-25T07:31:57.000Z</time>
      </trkpt>
      <trkpt lat="43.35614" lon="6.11841">
        <ele>451.177922</ele>
        <time>2025-04-25T07:31:58.000Z</time>
      </trkpt>
      <trkpt lat="43.35614" lon="6.11841">
        <ele>451.177922</ele>
        <time>2025-04-25T07:31:58.000Z</time>
      </trkpt>
      <trkpt lat="43.35613" lon="6.11844">
        <ele>451.328398</ele>
        <time>2025-04-25T07:31:59.000Z</time>
      </trkpt>
      <trkpt lat="43.35613" lon="6.11844">
        <ele>451.328398</ele>
        <time>2025-04-25T07:31:59.000Z</time>
      </trkpt>
      <trkpt lat="43.35612" lon="6.11849">
        <ele>451.503577</ele>
        <time>2025-04-25T07:32:00.000Z</time>
      </trkpt>
      <trkpt lat="43.35612" lon="6.11849">
        <ele>451.503577</ele>
        <time>2025-04-25T07:32:00.000Z</time>
      </trkpt>
      <trkpt lat="43.35611" lon="6.11853">
        <ele>451.682361</ele>
        <time>2025-04-25T07:32:01.000Z</time>
      </trkpt>
      <trkpt lat="43.35611" lon="6.11853">
        <ele>451.682361</ele>
        <time>2025-04-25T07:32:01.000Z</time>
      </trkpt>
      <trkpt lat="43.35611" lon="6.11858">
        <ele>451.849731</ele>
        <time>2025-04-25T07:32:02.000Z</time>
      </trkpt>
      <trkpt lat="43.35611" lon="6.11858">
        <ele>451.849731</ele>
        <time>2025-04-25T07:32:02.000Z</time>
      </trkpt>
      <trkpt lat="43.35611" lon="6.11863">
        <ele>452.031858</ele>
        <time>2025-04-25T07:32:03.000Z</time>
      </trkpt>
      <trkpt lat="43.35611" lon="6.11863">
        <ele>452.031858</ele>
        <time>2025-04-25T07:32:03.000Z</time>
      </trkpt>
      <trkpt lat="43.35611" lon="6.11868">
        <ele>452.23927</ele>
        <time>2025-04-25T07:32:04.000Z</time>
      </trkpt>
      <trkpt lat="43.35611" lon="6.11868">
        <ele>452.23927</ele>
        <time>2025-04-25T07:32:04.000Z</time>
      </trkpt>
      <trkpt lat="43.35612" lon="6.11873">
        <ele>452.410858</ele>
        <time>2025-04-25T07:32:05.000Z</time>
      </trkpt>
      <trkpt lat="43.35612" lon="6.11873">
        <ele>452.410858</ele>
        <time>2025-04-25T07:32:05.000Z</time>
      </trkpt>
      <trkpt lat="43.35611" lon="6.11878">
        <ele>452.586124</ele>
        <time>2025-04-25T07:32:06.000Z</time>
      </trkpt>
      <trkpt lat="43.35611" lon="6.11882">
        <ele>452.741683</ele>
        <time>2025-04-25T07:32:07.000Z</time>
      </trkpt>
      <trkpt lat="43.35611" lon="6.11882">
        <ele>452.741683</ele>
        <time>2025-04-25T07:32:07.000Z</time>
      </trkpt>
      <trkpt lat="43.35612" lon="6.11886">
        <ele>452.883894</ele>
        <time>2025-04-25T07:32:08.000Z</time>
      </trkpt>
      <trkpt lat="43.35612" lon="6.11886">
        <ele>452.883894</ele>
        <time>2025-04-25T07:32:08.000Z</time>
      </trkpt>
      <trkpt lat="43.35612" lon="6.11891">
        <ele>453.066519</ele>
        <time>2025-04-25T07:32:09.000Z</time>
      </trkpt>
      <trkpt lat="43.35612" lon="6.11891">
        <ele>453.066519</ele>
        <time>2025-04-25T07:32:09.000Z</time>
      </trkpt>
      <trkpt lat="43.35613" lon="6.11895">
        <ele>453.238099</ele>
        <time>2025-04-25T07:32:10.000Z</time>
      </trkpt>
      <trkpt lat="43.35613" lon="6.11895">
        <ele>453.238099</ele>
        <time>2025-04-25T07:32:10.000Z</time>
      </trkpt>
      <trkpt lat="43.35614" lon="6.119">
        <ele>453.415791</ele>
        <time>2025-04-25T07:32:11.000Z</time>
      </trkpt>
      <trkpt lat="43.35614" lon="6.119">
        <ele>453.415791</ele>
        <time>2025-04-25T07:32:11.000Z</time>
      </trkpt>
      <trkpt lat="43.35614" lon="6.11904">
        <ele>453.583702</ele>
        <time>2025-04-25T07:32:12.000Z</time>
      </trkpt>
      <trkpt lat="43.35614" lon="6.11904">
        <ele>453.583702</ele>
        <time>2025-04-25T07:32:12.000Z</time>
      </trkpt>
      <trkpt lat="43.35615" lon="6.11912">
        <ele>453.886244</ele>
        <time>2025-04-25T07:32:14.000Z</time>
      </trkpt>
      <trkpt lat="43.35615" lon="6.11912">
        <ele>453.886244</ele>
        <time>2025-04-25T07:32:14.000Z</time>
      </trkpt>
      <trkpt lat="43.35615" lon="6.11914">
        <ele>453.96032</ele>
        <time>2025-04-25T07:32:15.000Z</time>
      </trkpt>
      <trkpt lat="43.35615" lon="6.11914">
        <ele>453.96032</ele>
        <time>2025-04-25T07:32:15.000Z</time>
      </trkpt>
      <trkpt lat="43.35616" lon="6.11917">
        <ele>454.061483</ele>
        <time>2025-04-25T07:32:16.000Z</time>
      </trkpt>
      <trkpt lat="43.35616" lon="6.1192">
        <ele>454.178094</ele>
        <time>2025-04-25T07:32:17.000Z</time>
      </trkpt>
      <trkpt lat="43.35616" lon="6.1192">
        <ele>454.178094</ele>
        <time>2025-04-25T07:32:17.000Z</time>
      </trkpt>
      <trkpt lat="43.35617" lon="6.11924">
        <ele>454.317518</ele>
        <time>2025-04-25T07:32:18.000Z</time>
      </trkpt>
      <trkpt lat="43.35617" lon="6.11924">
        <ele>454.317518</ele>
        <time>2025-04-25T07:32:18.000Z</time>
      </trkpt>
      <trkpt lat="43.35618" lon="6.11928">
        <ele>454.493355</ele>
        <time>2025-04-25T07:32:19.000Z</time>
      </trkpt>
      <trkpt lat="43.35618" lon="6.11928">
        <ele>454.493355</ele>
        <time>2025-04-25T07:32:19.000Z</time>
      </trkpt>
      <trkpt lat="43.35619" lon="6.11932">
        <ele>454.639879</ele>
        <time>2025-04-25T07:32:20.000Z</time>
      </trkpt>
      <trkpt lat="43.35619" lon="6.11936">
        <ele>454.804273</ele>
        <time>2025-04-25T07:32:21.000Z</time>
      </trkpt>
      <trkpt lat="43.35619" lon="6.11936">
        <ele>454.804273</ele>
        <time>2025-04-25T07:32:21.000Z</time>
      </trkpt>
      <trkpt lat="43.35621" lon="6.11941">
        <ele>454.990675</ele>
        <time>2025-04-25T07:32:22.000Z</time>
      </trkpt>
      <trkpt lat="43.35621" lon="6.11941">
        <ele>454.990675</ele>
        <time>2025-04-25T07:32:22.000Z</time>
      </trkpt>
      <trkpt lat="43.35621" lon="6.11946">
        <ele>455.162255</ele>
        <time>2025-04-25T07:32:22.000Z</time>
      </trkpt>
      <trkpt lat="43.35621" lon="6.11946">
        <ele>455.162255</ele>
        <time>2025-04-25T07:32:22.000Z</time>
      </trkpt>
      <trkpt lat="43.35622" lon="6.1195">
        <ele>455.329624</ele>
        <time>2025-04-25T07:32:24.000Z</time>
      </trkpt>
      <trkpt lat="43.35622" lon="6.11955">
        <ele>455.508569</ele>
        <time>2025-04-25T07:32:25.000Z</time>
      </trkpt>
      <trkpt lat="43.35622" lon="6.11955">
        <ele>455.508569</ele>
        <time>2025-04-25T07:32:25.000Z</time>
      </trkpt>
      <trkpt lat="43.35622" lon="6.1196">
        <ele>455.690054</ele>
        <time>2025-04-25T07:32:26.000Z</time>
      </trkpt>
      <trkpt lat="43.35622" lon="6.1196">
        <ele>455.690054</ele>
        <time>2025-04-25T07:32:26.000Z</time>
      </trkpt>
      <trkpt lat="43.35622" lon="6.11965">
        <ele>455.883725</ele>
        <time>2025-04-25T07:32:27.000Z</time>
      </trkpt>
      <trkpt lat="43.35622" lon="6.11965">
        <ele>455.883725</ele>
        <time>2025-04-25T07:32:27.000Z</time>
      </trkpt>
      <trkpt lat="43.35622" lon="6.11969">
        <ele>456.040612</ele>
        <time>2025-04-25T07:32:28.000Z</time>
      </trkpt>
      <trkpt lat="43.35622" lon="6.11969">
        <ele>456.040612</ele>
        <time>2025-04-25T07:32:28.000Z</time>
      </trkpt>
      <trkpt lat="43.35622" lon="6.11974">
        <ele>456.208523</ele>
        <time>2025-04-25T07:32:29.000Z</time>
      </trkpt>
      <trkpt lat="43.35622" lon="6.11977">
        <ele>456.341859</ele>
        <time>2025-04-25T07:32:29.000Z</time>
      </trkpt>
      <trkpt lat="43.35622" lon="6.11977">
        <ele>456.341859</ele>
        <time>2025-04-25T07:32:29.000Z</time>
      </trkpt>
      <trkpt lat="43.35622" lon="6.11981">
        <ele>456.471491</ele>
        <time>2025-04-25T07:32:31.000Z</time>
      </trkpt>
      <trkpt lat="43.35622" lon="6.11981">
        <ele>456.471491</ele>
        <time>2025-04-25T07:32:31.000Z</time>
      </trkpt>
      <trkpt lat="43.35622" lon="6.11985">
        <ele>456.613702</ele>
        <time>2025-04-25T07:32:32.000Z</time>
      </trkpt>
      <trkpt lat="43.35622" lon="6.11985">
        <ele>456.613702</ele>
        <time>2025-04-25T07:32:32.000Z</time>
      </trkpt>
      <trkpt lat="43.35623" lon="6.11989">
        <ele>456.767355</ele>
        <time>2025-04-25T07:32:32.000Z</time>
      </trkpt>
      <trkpt lat="43.35624" lon="6.11992">
        <ele>456.927502</ele>
        <time>2025-04-25T07:32:34.000Z</time>
      </trkpt>
      <trkpt lat="43.35624" lon="6.11992">
        <ele>456.927502</ele>
        <time>2025-04-25T07:32:34.000Z</time>
      </trkpt>
      <trkpt lat="43.35626" lon="6.11997">
        <ele>457.098092</ele>
        <time>2025-04-25T07:32:35.000Z</time>
      </trkpt>
      <trkpt lat="43.35627" lon="6.12002">
        <ele>457.315658</ele>
        <time>2025-04-25T07:32:36.000Z</time>
      </trkpt>
      <trkpt lat="43.35627" lon="6.12002">
        <ele>457.315658</ele>
        <time>2025-04-25T07:32:36.000Z</time>
      </trkpt>
      <trkpt lat="43.35629" lon="6.12008">
        <ele>457.543661</ele>
        <time>2025-04-25T07:32:37.000Z</time>
      </trkpt>
      <trkpt lat="43.35629" lon="6.12008">
        <ele>457.543661</ele>
        <time>2025-04-25T07:32:37.000Z</time>
      </trkpt>
      <trkpt lat="43.3563" lon="6.12013">
        <ele>457.735164</ele>
        <time>2025-04-25T07:32:38.000Z</time>
      </trkpt>
      <trkpt lat="43.3563" lon="6.12013">
        <ele>457.735164</ele>
        <time>2025-04-25T07:32:38.000Z</time>
      </trkpt>
      <trkpt lat="43.35631" lon="6.12018">
        <ele>457.949266</ele>
        <time>2025-04-25T07:32:38.000Z</time>
      </trkpt>
      <trkpt lat="43.35631" lon="6.12018">
        <ele>457.949266</ele>
        <time>2025-04-25T07:32:38.000Z</time>
      </trkpt>
      <trkpt lat="43.35633" lon="6.12023">
        <ele>458.149598</ele>
        <time>2025-04-25T07:32:40.000Z</time>
      </trkpt>
      <trkpt lat="43.35633" lon="6.12023">
        <ele>458.149598</ele>
        <time>2025-04-25T07:32:40.000Z</time>
      </trkpt>
      <trkpt lat="43.35634" lon="6.12028">
        <ele>458.321928</ele>
        <time>2025-04-25T07:32:41.000Z</time>
      </trkpt>
      <trkpt lat="43.35634" lon="6.12028">
        <ele>458.321928</ele>
        <time>2025-04-25T07:32:41.000Z</time>
      </trkpt>
      <trkpt lat="43.35635" lon="6.12032">
        <ele>458.485624</ele>
        <time>2025-04-25T07:32:42.000Z</time>
      </trkpt>
      <trkpt lat="43.35635" lon="6.12032">
        <ele>458.485624</ele>
        <time>2025-04-25T07:32:42.000Z</time>
      </trkpt>
      <trkpt lat="43.35637" lon="6.12038">
        <ele>458.720619</ele>
        <time>2025-04-25T07:32:43.000Z</time>
      </trkpt>
      <trkpt lat="43.35637" lon="6.12038">
        <ele>458.720619</ele>
        <time>2025-04-25T07:32:43.000Z</time>
      </trkpt>
      <trkpt lat="43.35637" lon="6.12042">
        <ele>458.894696</ele>
        <time>2025-04-25T07:32:43.000Z</time>
      </trkpt>
      <trkpt lat="43.35637" lon="6.12042">
        <ele>458.894696</ele>
        <time>2025-04-25T07:32:43.000Z</time>
      </trkpt>
      <trkpt lat="43.35637" lon="6.12046">
        <ele>459.024327</ele>
        <time>2025-04-25T07:32:45.000Z</time>
      </trkpt>
      <trkpt lat="43.35637" lon="6.12046">
        <ele>459.024327</ele>
        <time>2025-04-25T07:32:45.000Z</time>
      </trkpt>
      <trkpt lat="43.35636" lon="6.12051">
        <ele>459.199593</ele>
        <time>2025-04-25T07:32:46.000Z</time>
      </trkpt>
      <trkpt lat="43.35636" lon="6.12051">
        <ele>459.199593</ele>
        <time>2025-04-25T07:32:46.000Z</time>
      </trkpt>
      <trkpt lat="43.35635" lon="6.12055">
        <ele>459.248371</ele>
        <time>2025-04-25T07:32:46.000Z</time>
      </trkpt>
      <trkpt lat="43.35635" lon="6.12055">
        <ele>459.248371</ele>
        <time>2025-04-25T07:32:46.000Z</time>
      </trkpt>
      <trkpt lat="43.35635" lon="6.12061">
        <ele>459.107998</ele>
        <time>2025-04-25T07:32:48.000Z</time>
      </trkpt>
      <trkpt lat="43.35635" lon="6.12061">
        <ele>459.107998</ele>
        <time>2025-04-25T07:32:48.000Z</time>
      </trkpt>
      <trkpt lat="43.35634" lon="6.12065">
        <ele>458.995049</ele>
        <time>2025-04-25T07:32:49.000Z</time>
      </trkpt>
      <trkpt lat="43.35634" lon="6.12065">
        <ele>458.995049</ele>
        <time>2025-04-25T07:32:49.000Z</time>
      </trkpt>
      <trkpt lat="43.35634" lon="6.12065">
        <ele>458.995049</ele>
        <time>2025-04-25T07:32:50.000Z</time>
      </trkpt>
      <trkpt lat="43.35632" lon="6.12073">
        <ele>458.776486</ele>
        <time>2025-04-25T07:32:51.000Z</time>
      </trkpt>
      <trkpt lat="43.35632" lon="6.12073">
        <ele>458.776486</ele>
        <time>2025-04-25T07:32:51.000Z</time>
      </trkpt>
      <trkpt lat="43.35632" lon="6.12073">
        <ele>458.776486</ele>
        <time>2025-04-25T07:32:52.000Z</time>
      </trkpt>
      <trkpt lat="43.3563" lon="6.12076">
        <ele>458.673213</ele>
        <time>2025-04-25T07:32:53.000Z</time>
      </trkpt>
      <trkpt lat="43.3563" lon="6.12076">
        <ele>458.673213</ele>
        <time>2025-04-25T07:32:53.000Z</time>
      </trkpt>
      <trkpt lat="43.3563" lon="6.12076">
        <ele>458.673213</ele>
        <time>2025-04-25T07:32:55.000Z</time>
      </trkpt>
      <trkpt lat="43.3563" lon="6.12078">
        <ele>458.614369</ele>
        <time>2025-04-25T07:32:56.000Z</time>
      </trkpt>
      <trkpt lat="43.3563" lon="6.12078">
        <ele>458.614369</ele>
        <time>2025-04-25T07:32:56.000Z</time>
      </trkpt>
      <trkpt lat="43.3563" lon="6.12077">
        <ele>458.591444</ele>
        <time>2025-04-25T07:32:57.000Z</time>
      </trkpt>
      <trkpt lat="43.35631" lon="6.12077">
        <ele>458.576534</ele>
        <time>2025-04-25T07:32:58.000Z</time>
      </trkpt>
      <trkpt lat="43.35632" lon="6.12077">
        <ele>458.548508</ele>
        <time>2025-04-25T07:32:59.000Z</time>
      </trkpt>
      <trkpt lat="43.35632" lon="6.12077">
        <ele>458.548508</ele>
        <time>2025-04-25T07:32:59.000Z</time>
      </trkpt>
      <trkpt lat="43.35634" lon="6.12078">
        <ele>458.478898</ele>
        <time>2025-04-25T07:32:59.000Z</time>
      </trkpt>
      <trkpt lat="43.35635" lon="6.12079">
        <ele>458.416787</ele>
        <time>2025-04-25T07:33:01.000Z</time>
      </trkpt>
      <trkpt lat="43.35637" lon="6.12081">
        <ele>458.343598</ele>
        <time>2025-04-25T07:33:02.000Z</time>
      </trkpt>
      <trkpt lat="43.3564" lon="6.12087">
        <ele>458.159335</ele>
        <time>2025-04-25T07:33:03.000Z</time>
      </trkpt>
      <trkpt lat="43.35642" lon="6.12091">
        <ele>458.027483</ele>
        <time>2025-04-25T07:33:04.000Z</time>
      </trkpt>
      <trkpt lat="43.35644" lon="6.12094">
        <ele>457.918256</ele>
        <time>2025-04-25T07:33:05.000Z</time>
      </trkpt>
      <trkpt lat="43.35644" lon="6.12094">
        <ele>457.918256</ele>
        <time>2025-04-25T07:33:05.000Z</time>
      </trkpt>
      <trkpt lat="43.35646" lon="6.12099">
        <ele>457.786352</ele>
        <time>2025-04-25T07:33:06.000Z</time>
      </trkpt>
      <trkpt lat="43.35648" lon="6.12102">
        <ele>457.691584</ele>
        <time>2025-04-25T07:33:07.000Z</time>
      </trkpt>
      <trkpt lat="43.35648" lon="6.12102">
        <ele>457.691584</ele>
        <time>2025-04-25T07:33:07.000Z</time>
      </trkpt>
      <trkpt lat="43.3565" lon="6.12107">
        <ele>457.538778</ele>
        <time>2025-04-25T07:33:08.000Z</time>
      </trkpt>
      <trkpt lat="43.35651" lon="6.12112">
        <ele>457.391535</ele>
        <time>2025-04-25T07:33:09.000Z</time>
      </trkpt>
      <trkpt lat="43.35653" lon="6.12117">
        <ele>457.26091</ele>
        <time>2025-04-25T07:33:10.000Z</time>
      </trkpt>
      <trkpt lat="43.35654" lon="6.12124">
        <ele>457.074006</ele>
        <time>2025-04-25T07:33:11.000Z</time>
      </trkpt>
      <trkpt lat="43.35655" lon="6.12129">
        <ele>456.936061</ele>
        <time>2025-04-25T07:33:12.000Z</time>
      </trkpt>
      <trkpt lat="43.35656" lon="6.12135">
        <ele>456.785127</ele>
        <time>2025-04-25T07:33:13.000Z</time>
      </trkpt>
      <trkpt lat="43.35656" lon="6.12135">
        <ele>456.785127</ele>
        <time>2025-04-25T07:33:13.000Z</time>
      </trkpt>
      <trkpt lat="43.35656" lon="6.12142">
        <ele>456.618969</ele>
        <time>2025-04-25T07:33:14.000Z</time>
      </trkpt>
      <trkpt lat="43.35656" lon="6.12148">
        <ele>456.463592</ele>
        <time>2025-04-25T07:33:15.000Z</time>
      </trkpt>
      <trkpt lat="43.35656" lon="6.12148">
        <ele>456.463592</ele>
        <time>2025-04-25T07:33:15.000Z</time>
      </trkpt>
      <trkpt lat="43.35656" lon="6.12156">
        <ele>456.269501</ele>
        <time>2025-04-25T07:33:16.000Z</time>
      </trkpt>
      <trkpt lat="43.35657" lon="6.12159">
        <ele>456.169607</ele>
        <time>2025-04-25T07:33:17.000Z</time>
      </trkpt>
      <trkpt lat="43.35657" lon="6.12159">
        <ele>456.169607</ele>
        <time>2025-04-25T07:33:17.000Z</time>
      </trkpt>
      <trkpt lat="43.35658" lon="6.1217">
        <ele>455.898836</ele>
        <time>2025-04-25T07:33:18.000Z</time>
      </trkpt>
      <trkpt lat="43.35659" lon="6.12177">
        <ele>455.721394</ele>
        <time>2025-04-25T07:33:19.000Z</time>
      </trkpt>
      <trkpt lat="43.35659" lon="6.12177">
        <ele>455.721394</ele>
        <time>2025-04-25T07:33:19.000Z</time>
      </trkpt>
      <trkpt lat="43.35661" lon="6.12182">
        <ele>455.578899</ele>
        <time>2025-04-25T07:33:20.000Z</time>
      </trkpt>
      <trkpt lat="43.35664" lon="6.12187">
        <ele>455.407746</ele>
        <time>2025-04-25T07:33:21.000Z</time>
      </trkpt>
      <trkpt lat="43.35664" lon="6.12187">
        <ele>455.407746</ele>
        <time>2025-04-25T07:33:21.000Z</time>
      </trkpt>
      <trkpt lat="43.35666" lon="6.12194">
        <ele>455.223663</ele>
        <time>2025-04-25T07:33:22.000Z</time>
      </trkpt>
      <trkpt lat="43.35666" lon="6.12194">
        <ele>455.223663</ele>
        <time>2025-04-25T07:33:22.000Z</time>
      </trkpt>
      <trkpt lat="43.35669" lon="6.12199">
        <ele>455.056563</ele>
        <time>2025-04-25T07:33:23.000Z</time>
      </trkpt>
      <trkpt lat="43.35669" lon="6.12199">
        <ele>455.056563</ele>
        <time>2025-04-25T07:33:23.000Z</time>
      </trkpt>
      <trkpt lat="43.35672" lon="6.12205">
        <ele>454.871148</ele>
        <time>2025-04-25T07:33:24.000Z</time>
      </trkpt>
      <trkpt lat="43.35672" lon="6.12205">
        <ele>454.871148</ele>
        <time>2025-04-25T07:33:24.000Z</time>
      </trkpt>
      <trkpt lat="43.35675" lon="6.12211">
        <ele>454.673343</ele>
        <time>2025-04-25T07:33:25.000Z</time>
      </trkpt>
      <trkpt lat="43.35675" lon="6.12211">
        <ele>454.673343</ele>
        <time>2025-04-25T07:33:25.000Z</time>
      </trkpt>
      <trkpt lat="43.35679" lon="6.12218">
        <ele>454.471059</ele>
        <time>2025-04-25T07:33:26.000Z</time>
      </trkpt>
      <trkpt lat="43.35679" lon="6.12218">
        <ele>454.471059</ele>
        <time>2025-04-25T07:33:26.000Z</time>
      </trkpt>
      <trkpt lat="43.35681" lon="6.12224">
        <ele>454.305012</ele>
        <time>2025-04-25T07:33:27.000Z</time>
      </trkpt>
      <trkpt lat="43.35681" lon="6.12224">
        <ele>454.305012</ele>
        <time>2025-04-25T07:33:27.000Z</time>
      </trkpt>
      <trkpt lat="43.35686" lon="6.12234">
        <ele>453.987213</ele>
        <time>2025-04-25T07:33:28.000Z</time>
      </trkpt>
      <trkpt lat="43.35686" lon="6.12234">
        <ele>453.987213</ele>
        <time>2025-04-25T07:33:28.000Z</time>
      </trkpt>
      <trkpt lat="43.35687" lon="6.12236">
        <ele>453.939829</ele>
        <time>2025-04-25T07:33:29.000Z</time>
      </trkpt>
      <trkpt lat="43.35695" lon="6.12253">
        <ele>453.399951</ele>
        <time>2025-04-25T07:33:30.000Z</time>
      </trkpt>
      <trkpt lat="43.35695" lon="6.12253">
        <ele>453.399951</ele>
        <time>2025-04-25T07:33:30.000Z</time>
      </trkpt>
      <trkpt lat="43.35698" lon="6.12257">
        <ele>453.274012</ele>
        <time>2025-04-25T07:33:31.000Z</time>
      </trkpt>
      <trkpt lat="43.35698" lon="6.12257">
        <ele>453.274012</ele>
        <time>2025-04-25T07:33:31.000Z</time>
      </trkpt>
      <trkpt lat="43.35703" lon="6.12267">
        <ele>452.872696</ele>
        <time>2025-04-25T07:33:32.000Z</time>
      </trkpt>
      <trkpt lat="43.35703" lon="6.12267">
        <ele>452.872696</ele>
        <time>2025-04-25T07:33:32.000Z</time>
      </trkpt>
      <trkpt lat="43.35705" lon="6.12272">
        <ele>452.373546</ele>
        <time>2025-04-25T07:33:33.000Z</time>
      </trkpt>
      <trkpt lat="43.35705" lon="6.12272">
        <ele>452.373546</ele>
        <time>2025-04-25T07:33:33.000Z</time>
      </trkpt>
      <trkpt lat="43.35708" lon="6.12276">
        <ele>451.941845</ele>
        <time>2025-04-25T07:33:34.000Z</time>
      </trkpt>
      <trkpt lat="43.35708" lon="6.12276">
        <ele>451.941845</ele>
        <time>2025-04-25T07:33:34.000Z</time>
      </trkpt>
      <trkpt lat="43.3571" lon="6.12281">
        <ele>451.501885</ele>
        <time>2025-04-25T07:33:35.000Z</time>
      </trkpt>
      <trkpt lat="43.3571" lon="6.12281">
        <ele>451.501885</ele>
        <time>2025-04-25T07:33:35.000Z</time>
      </trkpt>
      <trkpt lat="43.35714" lon="6.12285">
        <ele>450.96899</ele>
        <time>2025-04-25T07:33:36.000Z</time>
      </trkpt>
      <trkpt lat="43.35714" lon="6.12285">
        <ele>450.96899</ele>
        <time>2025-04-25T07:33:36.000Z</time>
      </trkpt>
      <trkpt lat="43.35717" lon="6.12289">
        <ele>450.460315</ele>
        <time>2025-04-25T07:33:37.000Z</time>
      </trkpt>
      <trkpt lat="43.35717" lon="6.12289">
        <ele>450.460315</ele>
        <time>2025-04-25T07:33:37.000Z</time>
      </trkpt>
      <trkpt lat="43.35722" lon="6.12291">
        <ele>449.944662</ele>
        <time>2025-04-25T07:33:38.000Z</time>
      </trkpt>
      <trkpt lat="43.35722" lon="6.12291">
        <ele>449.944662</ele>
        <time>2025-04-25T07:33:38.000Z</time>
      </trkpt>
      <trkpt lat="43.35726" lon="6.12292">
        <ele>449.425353</ele>
        <time>2025-04-25T07:33:39.000Z</time>
      </trkpt>
      <trkpt lat="43.35726" lon="6.12292">
        <ele>449.425353</ele>
        <time>2025-04-25T07:33:39.000Z</time>
      </trkpt>
      <trkpt lat="43.35731" lon="6.12292">
        <ele>448.924778</ele>
        <time>2025-04-25T07:33:40.000Z</time>
      </trkpt>
      <trkpt lat="43.35731" lon="6.12292">
        <ele>448.924778</ele>
        <time>2025-04-25T07:33:40.000Z</time>
      </trkpt>
      <trkpt lat="43.35736" lon="6.12291">
        <ele>448.319772</ele>
        <time>2025-04-25T07:33:41.000Z</time>
      </trkpt>
      <trkpt lat="43.35736" lon="6.12291">
        <ele>448.319772</ele>
        <time>2025-04-25T07:33:41.000Z</time>
      </trkpt>
      <trkpt lat="43.35741" lon="6.12291">
        <ele>447.72757</ele>
        <time>2025-04-25T07:33:42.000Z</time>
      </trkpt>
      <trkpt lat="43.35741" lon="6.12291">
        <ele>447.72757</ele>
        <time>2025-04-25T07:33:42.000Z</time>
      </trkpt>
      <trkpt lat="43.35747" lon="6.12292">
        <ele>447.08209</ele>
        <time>2025-04-25T07:33:43.000Z</time>
      </trkpt>
      <trkpt lat="43.35747" lon="6.12292">
        <ele>447.08209</ele>
        <time>2025-04-25T07:33:43.000Z</time>
      </trkpt>
      <trkpt lat="43.35752" lon="6.12296">
        <ele>446.438731</ele>
        <time>2025-04-25T07:33:44.000Z</time>
      </trkpt>
      <trkpt lat="43.35752" lon="6.12296">
        <ele>446.438731</ele>
        <time>2025-04-25T07:33:44.000Z</time>
      </trkpt>
      <trkpt lat="43.35757" lon="6.12301">
        <ele>445.771294</ele>
        <time>2025-04-25T07:33:45.000Z</time>
      </trkpt>
      <trkpt lat="43.35757" lon="6.12301">
        <ele>445.771294</ele>
        <time>2025-04-25T07:33:45.000Z</time>
      </trkpt>
      <trkpt lat="43.35761" lon="6.12309">
        <ele>444.983962</ele>
        <time>2025-04-25T07:33:46.000Z</time>
      </trkpt>
      <trkpt lat="43.35761" lon="6.12309">
        <ele>444.983962</ele>
        <time>2025-04-25T07:33:46.000Z</time>
      </trkpt>
      <trkpt lat="43.35765" lon="6.12316">
        <ele>444.309893</ele>
        <time>2025-04-25T07:33:47.000Z</time>
      </trkpt>
      <trkpt lat="43.35765" lon="6.12316">
        <ele>444.309893</ele>
        <time>2025-04-25T07:33:47.000Z</time>
      </trkpt>
      <trkpt lat="43.35769" lon="6.12322">
        <ele>443.66641</ele>
        <time>2025-04-25T07:33:48.000Z</time>
      </trkpt>
      <trkpt lat="43.35769" lon="6.12322">
        <ele>443.66641</ele>
        <time>2025-04-25T07:33:48.000Z</time>
      </trkpt>
      <trkpt lat="43.35773" lon="6.12325">
        <ele>443.077747</ele>
        <time>2025-04-25T07:33:49.000Z</time>
      </trkpt>
      <trkpt lat="43.35773" lon="6.12325">
        <ele>443.077747</ele>
        <time>2025-04-25T07:33:49.000Z</time>
      </trkpt>
      <trkpt lat="43.35778" lon="6.12327">
        <ele>442.521111</ele>
        <time>2025-04-25T07:33:50.000Z</time>
      </trkpt>
      <trkpt lat="43.35778" lon="6.12327">
        <ele>442.521111</ele>
        <time>2025-04-25T07:33:50.000Z</time>
      </trkpt>
      <trkpt lat="43.35784" lon="6.12328">
        <ele>441.819486</ele>
        <time>2025-04-25T07:33:51.000Z</time>
      </trkpt>
      <trkpt lat="43.35784" lon="6.12328">
        <ele>441.819486</ele>
        <time>2025-04-25T07:33:51.000Z</time>
      </trkpt>
      <trkpt lat="43.3579" lon="6.12331">
        <ele>441.111535</ele>
        <time>2025-04-25T07:33:52.000Z</time>
      </trkpt>
      <trkpt lat="43.3579" lon="6.12331">
        <ele>441.111535</ele>
        <time>2025-04-25T07:33:52.000Z</time>
      </trkpt>
      <trkpt lat="43.35796" lon="6.12333">
        <ele>440.405851</ele>
        <time>2025-04-25T07:33:53.000Z</time>
      </trkpt>
      <trkpt lat="43.35796" lon="6.12333">
        <ele>440.405851</ele>
        <time>2025-04-25T07:33:53.000Z</time>
      </trkpt>
      <trkpt lat="43.35802" lon="6.12335">
        <ele>439.757137</ele>
        <time>2025-04-25T07:33:54.000Z</time>
      </trkpt>
      <trkpt lat="43.35802" lon="6.12335">
        <ele>439.757137</ele>
        <time>2025-04-25T07:33:54.000Z</time>
      </trkpt>
      <trkpt lat="43.35807" lon="6.12336">
        <ele>439.165654</ele>
        <time>2025-04-25T07:33:55.000Z</time>
      </trkpt>
      <trkpt lat="43.35807" lon="6.12336">
        <ele>439.165654</ele>
        <time>2025-04-25T07:33:55.000Z</time>
      </trkpt>
      <trkpt lat="43.35813" lon="6.12338">
        <ele>438.536901</ele>
        <time>2025-04-25T07:33:56.000Z</time>
      </trkpt>
      <trkpt lat="43.35813" lon="6.12338">
        <ele>438.536901</ele>
        <time>2025-04-25T07:33:56.000Z</time>
      </trkpt>
      <trkpt lat="43.35817" lon="6.12342">
        <ele>437.984411</ele>
        <time>2025-04-25T07:33:57.000Z</time>
      </trkpt>
      <trkpt lat="43.35817" lon="6.12342">
        <ele>437.984411</ele>
        <time>2025-04-25T07:33:57.000Z</time>
      </trkpt>
      <trkpt lat="43.35821" lon="6.12348">
        <ele>437.344942</ele>
        <time>2025-04-25T07:33:58.000Z</time>
      </trkpt>
      <trkpt lat="43.35821" lon="6.12348">
        <ele>437.344942</ele>
        <time>2025-04-25T07:33:58.000Z</time>
      </trkpt>
      <trkpt lat="43.35823" lon="6.12351">
        <ele>436.957389</ele>
        <time>2025-04-25T07:33:59.000Z</time>
      </trkpt>
      <trkpt lat="43.35823" lon="6.12351">
        <ele>436.957389</ele>
        <time>2025-04-25T07:33:59.000Z</time>
      </trkpt>
      <trkpt lat="43.35829" lon="6.1236">
        <ele>436.004307</ele>
        <time>2025-04-25T07:34:00.000Z</time>
      </trkpt>
      <trkpt lat="43.35829" lon="6.1236">
        <ele>436.004307</ele>
        <time>2025-04-25T07:34:00.000Z</time>
      </trkpt>
      <trkpt lat="43.35832" lon="6.12364">
        <ele>435.528178</ele>
        <time>2025-04-25T07:34:01.000Z</time>
      </trkpt>
      <trkpt lat="43.35832" lon="6.12364">
        <ele>435.528178</ele>
        <time>2025-04-25T07:34:01.000Z</time>
      </trkpt>
      <trkpt lat="43.35836" lon="6.12369">
        <ele>434.925945</ele>
        <time>2025-04-25T07:34:02.000Z</time>
      </trkpt>
      <trkpt lat="43.35836" lon="6.12369">
        <ele>434.925945</ele>
        <time>2025-04-25T07:34:02.000Z</time>
      </trkpt>
      <trkpt lat="43.3584" lon="6.12373">
        <ele>434.41273</ele>
        <time>2025-04-25T07:34:03.000Z</time>
      </trkpt>
      <trkpt lat="43.3584" lon="6.12373">
        <ele>434.41273</ele>
        <time>2025-04-25T07:34:03.000Z</time>
      </trkpt>
      <trkpt lat="43.35843" lon="6.12376">
        <ele>433.931425</ele>
        <time>2025-04-25T07:34:04.000Z</time>
      </trkpt>
      <trkpt lat="43.35843" lon="6.12376">
        <ele>433.931425</ele>
        <time>2025-04-25T07:34:04.000Z</time>
      </trkpt>
      <trkpt lat="43.35846" lon="6.12381">
        <ele>433.431708</ele>
        <time>2025-04-25T07:34:05.000Z</time>
      </trkpt>
      <trkpt lat="43.35846" lon="6.12381">
        <ele>433.431708</ele>
        <time>2025-04-25T07:34:05.000Z</time>
      </trkpt>
      <trkpt lat="43.35849" lon="6.12385">
        <ele>432.948266</ele>
        <time>2025-04-25T07:34:06.000Z</time>
      </trkpt>
      <trkpt lat="43.35849" lon="6.12385">
        <ele>432.948266</ele>
        <time>2025-04-25T07:34:06.000Z</time>
      </trkpt>
      <trkpt lat="43.35852" lon="6.12391">
        <ele>432.509799</ele>
        <time>2025-04-25T07:34:07.000Z</time>
      </trkpt>
      <trkpt lat="43.35852" lon="6.12391">
        <ele>432.509799</ele>
        <time>2025-04-25T07:34:07.000Z</time>
      </trkpt>
      <trkpt lat="43.35856" lon="6.12396">
        <ele>431.972316</ele>
        <time>2025-04-25T07:34:08.000Z</time>
      </trkpt>
      <trkpt lat="43.35856" lon="6.12396">
        <ele>431.972316</ele>
        <time>2025-04-25T07:34:08.000Z</time>
      </trkpt>
      <trkpt lat="43.35859" lon="6.12401">
        <ele>431.53764</ele>
        <time>2025-04-25T07:34:09.000Z</time>
      </trkpt>
      <trkpt lat="43.35859" lon="6.12401">
        <ele>431.53764</ele>
        <time>2025-04-25T07:34:09.000Z</time>
      </trkpt>
      <trkpt lat="43.35862" lon="6.12405">
        <ele>431.098169</ele>
        <time>2025-04-25T07:34:10.000Z</time>
      </trkpt>
      <trkpt lat="43.35862" lon="6.12405">
        <ele>431.098169</ele>
        <time>2025-04-25T07:34:10.000Z</time>
      </trkpt>
      <trkpt lat="43.35865" lon="6.1241">
        <ele>430.612118</ele>
        <time>2025-04-25T07:34:11.000Z</time>
      </trkpt>
      <trkpt lat="43.35865" lon="6.1241">
        <ele>430.612118</ele>
        <time>2025-04-25T07:34:11.000Z</time>
      </trkpt>
      <trkpt lat="43.35869" lon="6.12416">
        <ele>430.139362</ele>
        <time>2025-04-25T07:34:12.000Z</time>
      </trkpt>
      <trkpt lat="43.35869" lon="6.12416">
        <ele>430.139362</ele>
        <time>2025-04-25T07:34:12.000Z</time>
      </trkpt>
      <trkpt lat="43.35872" lon="6.12422">
        <ele>429.570445</ele>
        <time>2025-04-25T07:34:13.000Z</time>
      </trkpt>
      <trkpt lat="43.35872" lon="6.12422">
        <ele>429.570445</ele>
        <time>2025-04-25T07:34:13.000Z</time>
      </trkpt>
      <trkpt lat="43.35876" lon="6.12428">
        <ele>429.030712</ele>
        <time>2025-04-25T07:34:14.000Z</time>
      </trkpt>
      <trkpt lat="43.35876" lon="6.12428">
        <ele>429.030712</ele>
        <time>2025-04-25T07:34:14.000Z</time>
      </trkpt>
      <trkpt lat="43.35879" lon="6.12435">
        <ele>428.468535</ele>
        <time>2025-04-25T07:34:15.000Z</time>
      </trkpt>
      <trkpt lat="43.35879" lon="6.12435">
        <ele>428.468535</ele>
        <time>2025-04-25T07:34:15.000Z</time>
      </trkpt>
      <trkpt lat="43.35882" lon="6.1244">
        <ele>427.995779</ele>
        <time>2025-04-25T07:34:16.000Z</time>
      </trkpt>
      <trkpt lat="43.35882" lon="6.1244">
        <ele>427.995779</ele>
        <time>2025-04-25T07:34:16.000Z</time>
      </trkpt>
      <trkpt lat="43.35886" lon="6.12444">
        <ele>427.554254</ele>
        <time>2025-04-25T07:34:17.000Z</time>
      </trkpt>
      <trkpt lat="43.35886" lon="6.12444">
        <ele>427.554254</ele>
        <time>2025-04-25T07:34:17.000Z</time>
      </trkpt>
      <trkpt lat="43.35889" lon="6.12446">
        <ele>427.176345</ele>
        <time>2025-04-25T07:34:18.000Z</time>
      </trkpt>
      <trkpt lat="43.35889" lon="6.12446">
        <ele>427.176345</ele>
        <time>2025-04-25T07:34:18.000Z</time>
      </trkpt>
      <trkpt lat="43.35892" lon="6.12447">
        <ele>426.900517</ele>
        <time>2025-04-25T07:34:19.000Z</time>
      </trkpt>
      <trkpt lat="43.35892" lon="6.12447">
        <ele>426.900517</ele>
        <time>2025-04-25T07:34:19.000Z</time>
      </trkpt>
      <trkpt lat="43.35897" lon="6.12449">
        <ele>426.441399</ele>
        <time>2025-04-25T07:34:19.000Z</time>
      </trkpt>
      <trkpt lat="43.35897" lon="6.12449">
        <ele>426.441399</ele>
        <time>2025-04-25T07:34:19.000Z</time>
      </trkpt>
      <trkpt lat="43.35901" lon="6.12449">
        <ele>426.001188</ele>
        <time>2025-04-25T07:34:21.000Z</time>
      </trkpt>
      <trkpt lat="43.35901" lon="6.12449">
        <ele>426.001188</ele>
        <time>2025-04-25T07:34:21.000Z</time>
      </trkpt>
      <trkpt lat="43.35905" lon="6.12451">
        <ele>425.644912</ele>
        <time>2025-04-25T07:34:22.000Z</time>
      </trkpt>
      <trkpt lat="43.35905" lon="6.12451">
        <ele>425.644912</ele>
        <time>2025-04-25T07:34:22.000Z</time>
      </trkpt>
      <trkpt lat="43.35908" lon="6.12455">
        <ele>425.23475</ele>
        <time>2025-04-25T07:34:23.000Z</time>
      </trkpt>
      <trkpt lat="43.35908" lon="6.12455">
        <ele>425.23475</ele>
        <time>2025-04-25T07:34:23.000Z</time>
      </trkpt>
      <trkpt lat="43.35912" lon="6.12459">
        <ele>424.793674</ele>
        <time>2025-04-25T07:34:24.000Z</time>
      </trkpt>
      <trkpt lat="43.35912" lon="6.12459">
        <ele>424.793674</ele>
        <time>2025-04-25T07:34:24.000Z</time>
      </trkpt>
      <trkpt lat="43.35915" lon="6.12461">
        <ele>424.416679</ele>
        <time>2025-04-25T07:34:25.000Z</time>
      </trkpt>
      <trkpt lat="43.35915" lon="6.12461">
        <ele>424.416679</ele>
        <time>2025-04-25T07:34:25.000Z</time>
      </trkpt>
      <trkpt lat="43.35919" lon="6.12463">
        <ele>424.036794</ele>
        <time>2025-04-25T07:34:26.000Z</time>
      </trkpt>
      <trkpt lat="43.35919" lon="6.12463">
        <ele>424.036794</ele>
        <time>2025-04-25T07:34:26.000Z</time>
      </trkpt>
      <trkpt lat="43.35923" lon="6.12465">
        <ele>423.614154</ele>
        <time>2025-04-25T07:34:27.000Z</time>
      </trkpt>
      <trkpt lat="43.35923" lon="6.12465">
        <ele>423.614154</ele>
        <time>2025-04-25T07:34:27.000Z</time>
      </trkpt>
      <trkpt lat="43.35928" lon="6.12467">
        <ele>423.179401</ele>
        <time>2025-04-25T07:34:27.000Z</time>
      </trkpt>
      <trkpt lat="43.35928" lon="6.12467">
        <ele>423.179401</ele>
        <time>2025-04-25T07:34:27.000Z</time>
      </trkpt>
      <trkpt lat="43.35932" lon="6.1247">
        <ele>422.741935</ele>
        <time>2025-04-25T07:34:29.000Z</time>
      </trkpt>
      <trkpt lat="43.35932" lon="6.1247">
        <ele>422.741935</ele>
        <time>2025-04-25T07:34:29.000Z</time>
      </trkpt>
      <trkpt lat="43.35937" lon="6.12472">
        <ele>422.239892</ele>
        <time>2025-04-25T07:34:30.000Z</time>
      </trkpt>
      <trkpt lat="43.35937" lon="6.12472">
        <ele>422.239892</ele>
        <time>2025-04-25T07:34:30.000Z</time>
      </trkpt>
      <trkpt lat="43.35941" lon="6.12474">
        <ele>421.821387</ele>
        <time>2025-04-25T07:34:31.000Z</time>
      </trkpt>
      <trkpt lat="43.35941" lon="6.12474">
        <ele>421.821387</ele>
        <time>2025-04-25T07:34:31.000Z</time>
      </trkpt>
      <trkpt lat="43.35945" lon="6.12476">
        <ele>421.400866</ele>
        <time>2025-04-25T07:34:32.000Z</time>
      </trkpt>
      <trkpt lat="43.35945" lon="6.12476">
        <ele>421.400866</ele>
        <time>2025-04-25T07:34:32.000Z</time>
      </trkpt>
      <trkpt lat="43.3595" lon="6.12477">
        <ele>420.943699</ele>
        <time>2025-04-25T07:34:33.000Z</time>
      </trkpt>
      <trkpt lat="43.3595" lon="6.12477">
        <ele>420.943699</ele>
        <time>2025-04-25T07:34:33.000Z</time>
      </trkpt>
      <trkpt lat="43.35955" lon="6.12478">
        <ele>420.434737</ele>
        <time>2025-04-25T07:34:34.000Z</time>
      </trkpt>
      <trkpt lat="43.35955" lon="6.12478">
        <ele>420.434737</ele>
        <time>2025-04-25T07:34:34.000Z</time>
      </trkpt>
      <trkpt lat="43.35959" lon="6.12478">
        <ele>420.031755</ele>
        <time>2025-04-25T07:34:35.000Z</time>
      </trkpt>
      <trkpt lat="43.35959" lon="6.12478">
        <ele>420.031755</ele>
        <time>2025-04-25T07:34:35.000Z</time>
      </trkpt>
      <trkpt lat="43.35963" lon="6.12477">
        <ele>419.630033</ele>
        <time>2025-04-25T07:34:36.000Z</time>
      </trkpt>
      <trkpt lat="43.35963" lon="6.12477">
        <ele>419.630033</ele>
        <time>2025-04-25T07:34:36.000Z</time>
      </trkpt>
      <trkpt lat="43.35968" lon="6.12478">
        <ele>419.22801</ele>
        <time>2025-04-25T07:34:37.000Z</time>
      </trkpt>
      <trkpt lat="43.35968" lon="6.12478">
        <ele>419.22801</ele>
        <time>2025-04-25T07:34:37.000Z</time>
      </trkpt>
      <trkpt lat="43.35973" lon="6.12479">
        <ele>418.746833</ele>
        <time>2025-04-25T07:34:38.000Z</time>
      </trkpt>
      <trkpt lat="43.35973" lon="6.12479">
        <ele>418.746833</ele>
        <time>2025-04-25T07:34:38.000Z</time>
      </trkpt>
      <trkpt lat="43.35977" lon="6.1248">
        <ele>418.293273</ele>
        <time>2025-04-25T07:34:39.000Z</time>
      </trkpt>
      <trkpt lat="43.35977" lon="6.1248">
        <ele>418.293273</ele>
        <time>2025-04-25T07:34:39.000Z</time>
      </trkpt>
      <trkpt lat="43.35981" lon="6.12482">
        <ele>417.880169</ele>
        <time>2025-04-25T07:34:40.000Z</time>
      </trkpt>
      <trkpt lat="43.35981" lon="6.12482">
        <ele>417.880169</ele>
        <time>2025-04-25T07:34:40.000Z</time>
      </trkpt>
      <trkpt lat="43.35987" lon="6.12483">
        <ele>417.366719</ele>
        <time>2025-04-25T07:34:41.000Z</time>
      </trkpt>
      <trkpt lat="43.35987" lon="6.12483">
        <ele>417.366719</ele>
        <time>2025-04-25T07:34:41.000Z</time>
      </trkpt>
      <trkpt lat="43.35991" lon="6.12484">
        <ele>416.950123</ele>
        <time>2025-04-25T07:34:42.000Z</time>
      </trkpt>
      <trkpt lat="43.35991" lon="6.12484">
        <ele>416.950123</ele>
        <time>2025-04-25T07:34:42.000Z</time>
      </trkpt>
      <trkpt lat="43.35996" lon="6.12486">
        <ele>416.460932</ele>
        <time>2025-04-25T07:34:43.000Z</time>
      </trkpt>
      <trkpt lat="43.35996" lon="6.12486">
        <ele>416.460932</ele>
        <time>2025-04-25T07:34:43.000Z</time>
      </trkpt>
      <trkpt lat="43.36001" lon="6.12487">
        <ele>415.98517</ele>
        <time>2025-04-25T07:34:44.000Z</time>
      </trkpt>
      <trkpt lat="43.36001" lon="6.12487">
        <ele>415.98517</ele>
        <time>2025-04-25T07:34:44.000Z</time>
      </trkpt>
      <trkpt lat="43.36005" lon="6.12488">
        <ele>415.597159</ele>
        <time>2025-04-25T07:34:45.000Z</time>
      </trkpt>
      <trkpt lat="43.36005" lon="6.12488">
        <ele>415.597159</ele>
        <time>2025-04-25T07:34:45.000Z</time>
      </trkpt>
      <trkpt lat="43.36009" lon="6.12488">
        <ele>415.226776</ele>
        <time>2025-04-25T07:34:46.000Z</time>
      </trkpt>
      <trkpt lat="43.36009" lon="6.12488">
        <ele>415.226776</ele>
        <time>2025-04-25T07:34:46.000Z</time>
      </trkpt>
      <trkpt lat="43.36015" lon="6.12487">
        <ele>414.746919</ele>
        <time>2025-04-25T07:34:47.000Z</time>
      </trkpt>
      <trkpt lat="43.36015" lon="6.12487">
        <ele>414.746919</ele>
        <time>2025-04-25T07:34:47.000Z</time>
      </trkpt>
      <trkpt lat="43.3602" lon="6.12486">
        <ele>414.307432</ele>
        <time>2025-04-25T07:34:48.000Z</time>
      </trkpt>
      <trkpt lat="43.3602" lon="6.12486">
        <ele>414.307432</ele>
        <time>2025-04-25T07:34:48.000Z</time>
      </trkpt>
      <trkpt lat="43.36025" lon="6.12485">
        <ele>413.863338</ele>
        <time>2025-04-25T07:34:49.000Z</time>
      </trkpt>
      <trkpt lat="43.36025" lon="6.12485">
        <ele>413.863338</ele>
        <time>2025-04-25T07:34:49.000Z</time>
      </trkpt>
      <trkpt lat="43.3603" lon="6.12484">
        <ele>413.354497</ele>
        <time>2025-04-25T07:34:50.000Z</time>
      </trkpt>
      <trkpt lat="43.3603" lon="6.12484">
        <ele>413.354497</ele>
        <time>2025-04-25T07:34:50.000Z</time>
      </trkpt>
      <trkpt lat="43.36036" lon="6.12483">
        <ele>412.849214</ele>
        <time>2025-04-25T07:34:50.000Z</time>
      </trkpt>
      <trkpt lat="43.36036" lon="6.12483">
        <ele>412.849214</ele>
        <time>2025-04-25T07:34:50.000Z</time>
      </trkpt>
      <trkpt lat="43.36042" lon="6.12482">
        <ele>412.34576</ele>
        <time>2025-04-25T07:34:52.000Z</time>
      </trkpt>
      <trkpt lat="43.36042" lon="6.12482">
        <ele>412.34576</ele>
        <time>2025-04-25T07:34:52.000Z</time>
      </trkpt>
      <trkpt lat="43.36047" lon="6.12482">
        <ele>411.870194</ele>
        <time>2025-04-25T07:34:53.000Z</time>
      </trkpt>
      <trkpt lat="43.36047" lon="6.12482">
        <ele>411.870194</ele>
        <time>2025-04-25T07:34:53.000Z</time>
      </trkpt>
      <trkpt lat="43.36052" lon="6.12482">
        <ele>411.438614</ele>
        <time>2025-04-25T07:34:54.000Z</time>
      </trkpt>
      <trkpt lat="43.36052" lon="6.12482">
        <ele>411.438614</ele>
        <time>2025-04-25T07:34:54.000Z</time>
      </trkpt>
      <trkpt lat="43.36057" lon="6.12483">
        <ele>410.997531</ele>
        <time>2025-04-25T07:34:55.000Z</time>
      </trkpt>
      <trkpt lat="43.36057" lon="6.12483">
        <ele>410.997531</ele>
        <time>2025-04-25T07:34:55.000Z</time>
      </trkpt>
      <trkpt lat="43.36063" lon="6.12483">
        <ele>410.494891</ele>
        <time>2025-04-25T07:34:56.000Z</time>
      </trkpt>
      <trkpt lat="43.36063" lon="6.12483">
        <ele>410.494891</ele>
        <time>2025-04-25T07:34:56.000Z</time>
      </trkpt>
      <trkpt lat="43.36068" lon="6.12484">
        <ele>410.018249</ele>
        <time>2025-04-25T07:34:57.000Z</time>
      </trkpt>
      <trkpt lat="43.36068" lon="6.12484">
        <ele>410.018249</ele>
        <time>2025-04-25T07:34:57.000Z</time>
      </trkpt>
      <trkpt lat="43.36073" lon="6.12484">
        <ele>409.584395</ele>
        <time>2025-04-25T07:34:58.000Z</time>
      </trkpt>
      <trkpt lat="43.36073" lon="6.12484">
        <ele>409.584395</ele>
        <time>2025-04-25T07:34:58.000Z</time>
      </trkpt>
      <trkpt lat="43.36079" lon="6.12485">
        <ele>409.043379</ele>
        <time>2025-04-25T07:34:59.000Z</time>
      </trkpt>
      <trkpt lat="43.36079" lon="6.12485">
        <ele>409.043379</ele>
        <time>2025-04-25T07:34:59.000Z</time>
      </trkpt>
      <trkpt lat="43.36086" lon="6.12486">
        <ele>408.468652</ele>
        <time>2025-04-25T07:35:00.000Z</time>
      </trkpt>
      <trkpt lat="43.36086" lon="6.12486">
        <ele>408.468652</ele>
        <time>2025-04-25T07:35:00.000Z</time>
      </trkpt>
      <trkpt lat="43.36091" lon="6.12486">
        <ele>407.966502</ele>
        <time>2025-04-25T07:35:01.000Z</time>
      </trkpt>
      <trkpt lat="43.36091" lon="6.12486">
        <ele>407.966502</ele>
        <time>2025-04-25T07:35:01.000Z</time>
      </trkpt>
      <trkpt lat="43.36097" lon="6.12486">
        <ele>407.455548</ele>
        <time>2025-04-25T07:35:02.000Z</time>
      </trkpt>
      <trkpt lat="43.36097" lon="6.12486">
        <ele>407.455548</ele>
        <time>2025-04-25T07:35:02.000Z</time>
      </trkpt>
      <trkpt lat="43.36102" lon="6.12485">
        <ele>407.053033</ele>
        <time>2025-04-25T07:35:03.000Z</time>
      </trkpt>
      <trkpt lat="43.36102" lon="6.12485">
        <ele>407.053033</ele>
        <time>2025-04-25T07:35:03.000Z</time>
      </trkpt>
      <trkpt lat="43.36106" lon="6.12484">
        <ele>406.640699</ele>
        <time>2025-04-25T07:35:04.000Z</time>
      </trkpt>
      <trkpt lat="43.36106" lon="6.12484">
        <ele>406.640699</ele>
        <time>2025-04-25T07:35:04.000Z</time>
      </trkpt>
      <trkpt lat="43.3611" lon="6.12483">
        <ele>406.264168</ele>
        <time>2025-04-25T07:35:05.000Z</time>
      </trkpt>
      <trkpt lat="43.3611" lon="6.12483">
        <ele>406.264168</ele>
        <time>2025-04-25T07:35:05.000Z</time>
      </trkpt>
      <trkpt lat="43.36115" lon="6.12483">
        <ele>405.894228</ele>
        <time>2025-04-25T07:35:06.000Z</time>
      </trkpt>
      <trkpt lat="43.36115" lon="6.12483">
        <ele>405.894228</ele>
        <time>2025-04-25T07:35:06.000Z</time>
      </trkpt>
      <trkpt lat="43.36118" lon="6.12484">
        <ele>405.555673</ele>
        <time>2025-04-25T07:35:07.000Z</time>
      </trkpt>
      <trkpt lat="43.36118" lon="6.12484">
        <ele>405.555673</ele>
        <time>2025-04-25T07:35:07.000Z</time>
      </trkpt>
      <trkpt lat="43.36123" lon="6.12485">
        <ele>405.145533</ele>
        <time>2025-04-25T07:35:08.000Z</time>
      </trkpt>
      <trkpt lat="43.36123" lon="6.12485">
        <ele>405.145533</ele>
        <time>2025-04-25T07:35:08.000Z</time>
      </trkpt>
      <trkpt lat="43.36126" lon="6.12486">
        <ele>404.866537</ele>
        <time>2025-04-25T07:35:09.000Z</time>
      </trkpt>
      <trkpt lat="43.36126" lon="6.12486">
        <ele>404.866537</ele>
        <time>2025-04-25T07:35:09.000Z</time>
      </trkpt>
      <trkpt lat="43.36129" lon="6.12489">
        <ele>404.543394</ele>
        <time>2025-04-25T07:35:10.000Z</time>
      </trkpt>
      <trkpt lat="43.36129" lon="6.12489">
        <ele>404.543394</ele>
        <time>2025-04-25T07:35:10.000Z</time>
      </trkpt>
      <trkpt lat="43.36131" lon="6.12493">
        <ele>404.206723</ele>
        <time>2025-04-25T07:35:11.000Z</time>
      </trkpt>
      <trkpt lat="43.36131" lon="6.12493">
        <ele>404.206723</ele>
        <time>2025-04-25T07:35:11.000Z</time>
      </trkpt>
      <trkpt lat="43.36135" lon="6.12506">
        <ele>403.291745</ele>
        <time>2025-04-25T07:35:13.000Z</time>
      </trkpt>
      <trkpt lat="43.36135" lon="6.12506">
        <ele>403.291745</ele>
        <time>2025-04-25T07:35:13.000Z</time>
      </trkpt>
      <trkpt lat="43.36135" lon="6.12511">
        <ele>402.965199</ele>
        <time>2025-04-25T07:35:14.000Z</time>
      </trkpt>
      <trkpt lat="43.36135" lon="6.12511">
        <ele>402.965199</ele>
        <time>2025-04-25T07:35:14.000Z</time>
      </trkpt>
      <trkpt lat="43.36136" lon="6.12514">
        <ele>402.766598</ele>
        <time>2025-04-25T07:35:14.000Z</time>
      </trkpt>
      <trkpt lat="43.36136" lon="6.12514">
        <ele>402.766598</ele>
        <time>2025-04-25T07:35:14.000Z</time>
      </trkpt>
      <trkpt lat="43.36137" lon="6.12524">
        <ele>402.125363</ele>
        <time>2025-04-25T07:35:16.000Z</time>
      </trkpt>
      <trkpt lat="43.36137" lon="6.12524">
        <ele>402.125363</ele>
        <time>2025-04-25T07:35:16.000Z</time>
      </trkpt>
      <trkpt lat="43.36139" lon="6.1253">
        <ele>401.718041</ele>
        <time>2025-04-25T07:35:16.000Z</time>
      </trkpt>
      <trkpt lat="43.36139" lon="6.1253">
        <ele>401.718041</ele>
        <time>2025-04-25T07:35:16.000Z</time>
      </trkpt>
      <trkpt lat="43.36144" lon="6.12539">
        <ele>400.976521</ele>
        <time>2025-04-25T07:35:18.000Z</time>
      </trkpt>
      <trkpt lat="43.36144" lon="6.12539">
        <ele>400.976521</ele>
        <time>2025-04-25T07:35:18.000Z</time>
      </trkpt>
      <trkpt lat="43.36149" lon="6.12548">
        <ele>400.272115</ele>
        <time>2025-04-25T07:35:20.000Z</time>
      </trkpt>
      <trkpt lat="43.36149" lon="6.12548">
        <ele>400.272115</ele>
        <time>2025-04-25T07:35:20.000Z</time>
      </trkpt>
      <trkpt lat="43.3615" lon="6.12553">
        <ele>399.948194</ele>
        <time>2025-04-25T07:35:21.000Z</time>
      </trkpt>
      <trkpt lat="43.3615" lon="6.12553">
        <ele>399.948194</ele>
        <time>2025-04-25T07:35:21.000Z</time>
      </trkpt>
      <trkpt lat="43.36152" lon="6.12557">
        <ele>399.566471</ele>
        <time>2025-04-25T07:35:22.000Z</time>
      </trkpt>
      <trkpt lat="43.36152" lon="6.12557">
        <ele>399.566471</ele>
        <time>2025-04-25T07:35:22.000Z</time>
      </trkpt>
      <trkpt lat="43.36154" lon="6.12565">
        <ele>398.929158</ele>
        <time>2025-04-25T07:35:24.000Z</time>
      </trkpt>
      <trkpt lat="43.36154" lon="6.12565">
        <ele>398.929158</ele>
        <time>2025-04-25T07:35:24.000Z</time>
      </trkpt>
      <trkpt lat="43.36156" lon="6.1257">
        <ele>398.547434</ele>
        <time>2025-04-25T07:35:24.000Z</time>
      </trkpt>
      <trkpt lat="43.36156" lon="6.1257">
        <ele>398.547434</ele>
        <time>2025-04-25T07:35:24.000Z</time>
      </trkpt>
      <trkpt lat="43.36157" lon="6.12573">
        <ele>398.262408</ele>
        <time>2025-04-25T07:35:25.000Z</time>
      </trkpt>
      <trkpt lat="43.36157" lon="6.12573">
        <ele>398.262408</ele>
        <time>2025-04-25T07:35:25.000Z</time>
      </trkpt>
      <trkpt lat="43.36158" lon="6.12578">
        <ele>397.901291</ele>
        <time>2025-04-25T07:35:27.000Z</time>
      </trkpt>
      <trkpt lat="43.36158" lon="6.12578">
        <ele>397.901291</ele>
        <time>2025-04-25T07:35:27.000Z</time>
      </trkpt>
      <trkpt lat="43.36159" lon="6.12581">
        <ele>397.626417</ele>
        <time>2025-04-25T07:35:28.000Z</time>
      </trkpt>
      <trkpt lat="43.36159" lon="6.12581">
        <ele>397.626417</ele>
        <time>2025-04-25T07:35:28.000Z</time>
      </trkpt>
      <trkpt lat="43.36161" lon="6.12588">
        <ele>397.067759</ele>
        <time>2025-04-25T07:35:30.000Z</time>
      </trkpt>
      <trkpt lat="43.36161" lon="6.12588">
        <ele>397.067759</ele>
        <time>2025-04-25T07:35:30.000Z</time>
      </trkpt>
      <trkpt lat="43.36163" lon="6.12591">
        <ele>396.748284</ele>
        <time>2025-04-25T07:35:30.000Z</time>
      </trkpt>
      <trkpt lat="43.36163" lon="6.12591">
        <ele>396.748284</ele>
        <time>2025-04-25T07:35:30.000Z</time>
      </trkpt>
      <trkpt lat="43.36167" lon="6.12599">
        <ele>395.982426</ele>
        <time>2025-04-25T07:35:33.000Z</time>
      </trkpt>
      <trkpt lat="43.36167" lon="6.12599">
        <ele>395.982426</ele>
        <time>2025-04-25T07:35:33.000Z</time>
      </trkpt>
      <trkpt lat="43.36172" lon="6.12606">
        <ele>395.284679</ele>
        <time>2025-04-25T07:35:35.000Z</time>
      </trkpt>
      <trkpt lat="43.36172" lon="6.12606">
        <ele>395.284679</ele>
        <time>2025-04-25T07:35:35.000Z</time>
      </trkpt>
      <trkpt lat="43.36174" lon="6.1261">
        <ele>394.882374</ele>
        <time>2025-04-25T07:35:35.000Z</time>
      </trkpt>
      <trkpt lat="43.36174" lon="6.1261">
        <ele>394.882374</ele>
        <time>2025-04-25T07:35:35.000Z</time>
      </trkpt>
      <trkpt lat="43.3618" lon="6.12615">
        <ele>394.199952</ele>
        <time>2025-04-25T07:35:38.000Z</time>
      </trkpt>
      <trkpt lat="43.3618" lon="6.12615">
        <ele>394.199952</ele>
        <time>2025-04-25T07:35:38.000Z</time>
      </trkpt>
      <trkpt lat="43.36182" lon="6.12617">
        <ele>393.931528</ele>
        <time>2025-04-25T07:35:38.000Z</time>
      </trkpt>
      <trkpt lat="43.36185" lon="6.12619">
        <ele>393.583969</ele>
        <time>2025-04-25T07:35:40.000Z</time>
      </trkpt>
      <trkpt lat="43.36185" lon="6.12619">
        <ele>393.583969</ele>
        <time>2025-04-25T07:35:40.000Z</time>
      </trkpt>
      <trkpt lat="43.36189" lon="6.1262">
        <ele>393.174272</ele>
        <time>2025-04-25T07:35:40.000Z</time>
      </trkpt>
      <trkpt lat="43.36189" lon="6.1262">
        <ele>393.174272</ele>
        <time>2025-04-25T07:35:40.000Z</time>
      </trkpt>
      <trkpt lat="43.36197" lon="6.12623">
        <ele>392.262372</ele>
        <time>2025-04-25T07:35:42.000Z</time>
      </trkpt>
      <trkpt lat="43.36197" lon="6.12623">
        <ele>392.262372</ele>
        <time>2025-04-25T07:35:42.000Z</time>
      </trkpt>
      <trkpt lat="43.36202" lon="6.12626">
        <ele>391.772949</ele>
        <time>2025-04-25T07:35:44.000Z</time>
      </trkpt>
      <trkpt lat="43.36202" lon="6.12626">
        <ele>391.772949</ele>
        <time>2025-04-25T07:35:44.000Z</time>
      </trkpt>
      <trkpt lat="43.36205" lon="6.1263">
        <ele>391.363265</ele>
        <time>2025-04-25T07:35:45.000Z</time>
      </trkpt>
      <trkpt lat="43.36205" lon="6.1263">
        <ele>391.363265</ele>
        <time>2025-04-25T07:35:45.000Z</time>
      </trkpt>
      <trkpt lat="43.36208" lon="6.12634">
        <ele>390.915383</ele>
        <time>2025-04-25T07:35:46.000Z</time>
      </trkpt>
      <trkpt lat="43.36208" lon="6.12634">
        <ele>390.915383</ele>
        <time>2025-04-25T07:35:46.000Z</time>
      </trkpt>
      <trkpt lat="43.3621" lon="6.12638">
        <ele>390.485188</ele>
        <time>2025-04-25T07:35:47.000Z</time>
      </trkpt>
      <trkpt lat="43.3621" lon="6.12638">
        <ele>390.485188</ele>
        <time>2025-04-25T07:35:47.000Z</time>
      </trkpt>
      <trkpt lat="43.36213" lon="6.12641">
        <ele>390.136574</ele>
        <time>2025-04-25T07:35:48.000Z</time>
      </trkpt>
      <trkpt lat="43.36213" lon="6.12641">
        <ele>390.136574</ele>
        <time>2025-04-25T07:35:48.000Z</time>
      </trkpt>
      <trkpt lat="43.36216" lon="6.12644">
        <ele>389.754446</ele>
        <time>2025-04-25T07:35:49.000Z</time>
      </trkpt>
      <trkpt lat="43.36216" lon="6.12644">
        <ele>389.754446</ele>
        <time>2025-04-25T07:35:49.000Z</time>
      </trkpt>
      <trkpt lat="43.36219" lon="6.12646">
        <ele>389.410486</ele>
        <time>2025-04-25T07:35:50.000Z</time>
      </trkpt>
      <trkpt lat="43.36219" lon="6.12646">
        <ele>389.410486</ele>
        <time>2025-04-25T07:35:50.000Z</time>
      </trkpt>
      <trkpt lat="43.36222" lon="6.12648">
        <ele>389.032354</ele>
        <time>2025-04-25T07:35:51.000Z</time>
      </trkpt>
      <trkpt lat="43.36222" lon="6.12648">
        <ele>389.032354</ele>
        <time>2025-04-25T07:35:51.000Z</time>
      </trkpt>
      <trkpt lat="43.36225" lon="6.12651">
        <ele>388.667055</ele>
        <time>2025-04-25T07:35:52.000Z</time>
      </trkpt>
      <trkpt lat="43.36225" lon="6.12651">
        <ele>388.667055</ele>
        <time>2025-04-25T07:35:52.000Z</time>
      </trkpt>
      <trkpt lat="43.36227" lon="6.12653">
        <ele>388.370911</ele>
        <time>2025-04-25T07:35:52.000Z</time>
      </trkpt>
      <trkpt lat="43.36227" lon="6.12653">
        <ele>388.370911</ele>
        <time>2025-04-25T07:35:52.000Z</time>
      </trkpt>
      <trkpt lat="43.3623" lon="6.12656">
        <ele>388.045968</ele>
        <time>2025-04-25T07:35:54.000Z</time>
      </trkpt>
      <trkpt lat="43.3623" lon="6.12656">
        <ele>388.045968</ele>
        <time>2025-04-25T07:35:54.000Z</time>
      </trkpt>
      <trkpt lat="43.36233" lon="6.12661">
        <ele>387.559847</ele>
        <time>2025-04-25T07:35:56.000Z</time>
      </trkpt>
      <trkpt lat="43.36233" lon="6.12661">
        <ele>387.559847</ele>
        <time>2025-04-25T07:35:56.000Z</time>
      </trkpt>
      <trkpt lat="43.36234" lon="6.12663">
        <ele>387.338593</ele>
        <time>2025-04-25T07:35:57.000Z</time>
      </trkpt>
      <trkpt lat="43.36234" lon="6.12663">
        <ele>387.338593</ele>
        <time>2025-04-25T07:35:57.000Z</time>
      </trkpt>
      <trkpt lat="43.36235" lon="6.12665">
        <ele>387.126228</ele>
        <time>2025-04-25T07:35:58.000Z</time>
      </trkpt>
      <trkpt lat="43.36235" lon="6.12665">
        <ele>387.126228</ele>
        <time>2025-04-25T07:35:58.000Z</time>
      </trkpt>
      <trkpt lat="43.36239" lon="6.12667">
        <ele>386.746625</ele>
        <time>2025-04-25T07:36:00.000Z</time>
      </trkpt>
      <trkpt lat="43.36239" lon="6.12667">
        <ele>386.746625</ele>
        <time>2025-04-25T07:36:00.000Z</time>
      </trkpt>
      <trkpt lat="43.3624" lon="6.12668">
        <ele>386.569594</ele>
        <time>2025-04-25T07:36:01.000Z</time>
      </trkpt>
      <trkpt lat="43.3624" lon="6.12668">
        <ele>386.569594</ele>
        <time>2025-04-25T07:36:01.000Z</time>
      </trkpt>
      <trkpt lat="43.3624" lon="6.12668">
        <ele>386.569594</ele>
        <time>2025-04-25T07:36:01.000Z</time>
      </trkpt>
      <trkpt lat="43.36242" lon="6.12669">
        <ele>386.36718</ele>
        <time>2025-04-25T07:36:02.000Z</time>
      </trkpt>
      <trkpt lat="43.36242" lon="6.12669">
        <ele>386.36718</ele>
        <time>2025-04-25T07:36:02.000Z</time>
      </trkpt>
      <trkpt lat="43.36243" lon="6.1267">
        <ele>386.264174</ele>
        <time>2025-04-25T07:36:04.000Z</time>
      </trkpt>
      <trkpt lat="43.36244" lon="6.12672">
        <ele>386.056863</ele>
        <time>2025-04-25T07:36:06.000Z</time>
      </trkpt>
      <trkpt lat="43.36244" lon="6.12672">
        <ele>386.056863</ele>
        <time>2025-04-25T07:36:06.000Z</time>
      </trkpt>
      <trkpt lat="43.36245" lon="6.12672">
        <ele>386.000574</ele>
        <time>2025-04-25T07:36:06.000Z</time>
      </trkpt>
      <trkpt lat="43.36245" lon="6.12673">
        <ele>385.918429</ele>
        <time>2025-04-25T07:36:08.000Z</time>
      </trkpt>
      <trkpt lat="43.36247" lon="6.12674">
        <ele>385.694107</ele>
        <time>2025-04-25T07:36:09.000Z</time>
      </trkpt>
      <trkpt lat="43.36247" lon="6.12674">
        <ele>385.694107</ele>
        <time>2025-04-25T07:36:09.000Z</time>
      </trkpt>
      <trkpt lat="43.3625" lon="6.12675">
        <ele>385.403324</ele>
        <time>2025-04-25T07:36:10.000Z</time>
      </trkpt>
      <trkpt lat="43.3625" lon="6.12675">
        <ele>385.403324</ele>
        <time>2025-04-25T07:36:10.000Z</time>
      </trkpt>
      <trkpt lat="43.36253" lon="6.12678">
        <ele>385.040039</ele>
        <time>2025-04-25T07:36:11.000Z</time>
      </trkpt>
      <trkpt lat="43.36253" lon="6.12678">
        <ele>385.040039</ele>
        <time>2025-04-25T07:36:11.000Z</time>
      </trkpt>
      <trkpt lat="43.36257" lon="6.12681">
        <ele>384.576015</ele>
        <time>2025-04-25T07:36:12.000Z</time>
      </trkpt>
      <trkpt lat="43.36257" lon="6.12681">
        <ele>384.576015</ele>
        <time>2025-04-25T07:36:12.000Z</time>
      </trkpt>
      <trkpt lat="43.36261" lon="6.12684">
        <ele>384.111991</ele>
        <time>2025-04-25T07:36:12.000Z</time>
      </trkpt>
      <trkpt lat="43.36261" lon="6.12684">
        <ele>384.111991</ele>
        <time>2025-04-25T07:36:12.000Z</time>
      </trkpt>
      <trkpt lat="43.36264" lon="6.12688">
        <ele>383.635712</ele>
        <time>2025-04-25T07:36:14.000Z</time>
      </trkpt>
      <trkpt lat="43.36264" lon="6.12688">
        <ele>383.635712</ele>
        <time>2025-04-25T07:36:14.000Z</time>
      </trkpt>
      <trkpt lat="43.36268" lon="6.12691">
        <ele>383.218033</ele>
        <time>2025-04-25T07:36:15.000Z</time>
      </trkpt>
      <trkpt lat="43.36268" lon="6.12691">
        <ele>383.218033</ele>
        <time>2025-04-25T07:36:15.000Z</time>
      </trkpt>
      <trkpt lat="43.36271" lon="6.12695">
        <ele>382.737017</ele>
        <time>2025-04-25T07:36:16.000Z</time>
      </trkpt>
      <trkpt lat="43.36271" lon="6.12695">
        <ele>382.737017</ele>
        <time>2025-04-25T07:36:16.000Z</time>
      </trkpt>
      <trkpt lat="43.36276" lon="6.12704">
        <ele>381.871797</ele>
        <time>2025-04-25T07:36:18.000Z</time>
      </trkpt>
      <trkpt lat="43.36276" lon="6.12704">
        <ele>381.871797</ele>
        <time>2025-04-25T07:36:18.000Z</time>
      </trkpt>
      <trkpt lat="43.36278" lon="6.12709">
        <ele>381.446325</ele>
        <time>2025-04-25T07:36:19.000Z</time>
      </trkpt>
      <trkpt lat="43.36278" lon="6.12709">
        <ele>381.446325</ele>
        <time>2025-04-25T07:36:19.000Z</time>
      </trkpt>
      <trkpt lat="43.3628" lon="6.12714">
        <ele>381.048779</ele>
        <time>2025-04-25T07:36:20.000Z</time>
      </trkpt>
      <trkpt lat="43.3628" lon="6.12714">
        <ele>381.048779</ele>
        <time>2025-04-25T07:36:20.000Z</time>
      </trkpt>
      <trkpt lat="43.36281" lon="6.12718">
        <ele>380.735207</ele>
        <time>2025-04-25T07:36:21.000Z</time>
      </trkpt>
      <trkpt lat="43.36281" lon="6.12718">
        <ele>380.735207</ele>
        <time>2025-04-25T07:36:21.000Z</time>
      </trkpt>
      <trkpt lat="43.36281" lon="6.12722">
        <ele>380.449326</ele>
        <time>2025-04-25T07:36:22.000Z</time>
      </trkpt>
      <trkpt lat="43.36281" lon="6.12722">
        <ele>380.449326</ele>
        <time>2025-04-25T07:36:22.000Z</time>
      </trkpt>
      <trkpt lat="43.36281" lon="6.12726">
        <ele>380.10439</ele>
        <time>2025-04-25T07:36:23.000Z</time>
      </trkpt>
      <trkpt lat="43.36281" lon="6.12726">
        <ele>380.10439</ele>
        <time>2025-04-25T07:36:23.000Z</time>
      </trkpt>
      <trkpt lat="43.36281" lon="6.1273">
        <ele>379.784231</ele>
        <time>2025-04-25T07:36:24.000Z</time>
      </trkpt>
      <trkpt lat="43.36281" lon="6.1273">
        <ele>379.784231</ele>
        <time>2025-04-25T07:36:24.000Z</time>
      </trkpt>
      <trkpt lat="43.36281" lon="6.12734">
        <ele>379.545974</ele>
        <time>2025-04-25T07:36:25.000Z</time>
      </trkpt>
      <trkpt lat="43.36281" lon="6.12734">
        <ele>379.545974</ele>
        <time>2025-04-25T07:36:25.000Z</time>
      </trkpt>
      <trkpt lat="43.36281" lon="6.12737">
        <ele>379.307716</ele>
        <time>2025-04-25T07:36:26.000Z</time>
      </trkpt>
      <trkpt lat="43.36281" lon="6.12737">
        <ele>379.307716</ele>
        <time>2025-04-25T07:36:26.000Z</time>
      </trkpt>
      <trkpt lat="43.36281" lon="6.1274">
        <ele>379.051275</ele>
        <time>2025-04-25T07:36:27.000Z</time>
      </trkpt>
      <trkpt lat="43.36281" lon="6.1274">
        <ele>379.051275</ele>
        <time>2025-04-25T07:36:27.000Z</time>
      </trkpt>
      <trkpt lat="43.36282" lon="6.12744">
        <ele>378.80218</ele>
        <time>2025-04-25T07:36:28.000Z</time>
      </trkpt>
      <trkpt lat="43.36282" lon="6.12744">
        <ele>378.80218</ele>
        <time>2025-04-25T07:36:28.000Z</time>
      </trkpt>
      <trkpt lat="43.36282" lon="6.12747">
        <ele>378.575088</ele>
        <time>2025-04-25T07:36:29.000Z</time>
      </trkpt>
      <trkpt lat="43.36282" lon="6.12747">
        <ele>378.575088</ele>
        <time>2025-04-25T07:36:29.000Z</time>
      </trkpt>
      <trkpt lat="43.36283" lon="6.12749">
        <ele>378.361659</ele>
        <time>2025-04-25T07:36:30.000Z</time>
      </trkpt>
      <trkpt lat="43.36283" lon="6.12749">
        <ele>378.361659</ele>
        <time>2025-04-25T07:36:30.000Z</time>
      </trkpt>
      <trkpt lat="43.36284" lon="6.12752">
        <ele>378.130717</ele>
        <time>2025-04-25T07:36:31.000Z</time>
      </trkpt>
      <trkpt lat="43.36284" lon="6.12752">
        <ele>378.130717</ele>
        <time>2025-04-25T07:36:31.000Z</time>
      </trkpt>
      <trkpt lat="43.36285" lon="6.12755">
        <ele>377.87388</ele>
        <time>2025-04-25T07:36:32.000Z</time>
      </trkpt>
      <trkpt lat="43.36285" lon="6.12755">
        <ele>377.87388</ele>
        <time>2025-04-25T07:36:32.000Z</time>
      </trkpt>
      <trkpt lat="43.36286" lon="6.12758">
        <ele>377.650832</ele>
        <time>2025-04-25T07:36:33.000Z</time>
      </trkpt>
      <trkpt lat="43.36286" lon="6.12758">
        <ele>377.650832</ele>
        <time>2025-04-25T07:36:33.000Z</time>
      </trkpt>
      <trkpt lat="43.36287" lon="6.12761">
        <ele>377.391872</ele>
        <time>2025-04-25T07:36:34.000Z</time>
      </trkpt>
      <trkpt lat="43.36287" lon="6.12761">
        <ele>377.391872</ele>
        <time>2025-04-25T07:36:34.000Z</time>
      </trkpt>
      <trkpt lat="43.36289" lon="6.12763">
        <ele>377.138868</ele>
        <time>2025-04-25T07:36:35.000Z</time>
      </trkpt>
      <trkpt lat="43.36289" lon="6.12763">
        <ele>377.138868</ele>
        <time>2025-04-25T07:36:35.000Z</time>
      </trkpt>
      <trkpt lat="43.3629" lon="6.12766">
        <ele>376.890881</ele>
        <time>2025-04-25T07:36:36.000Z</time>
      </trkpt>
      <trkpt lat="43.36292" lon="6.12767">
        <ele>376.691835</ele>
        <time>2025-04-25T07:36:37.000Z</time>
      </trkpt>
      <trkpt lat="43.36292" lon="6.12767">
        <ele>376.691835</ele>
        <time>2025-04-25T07:36:37.000Z</time>
      </trkpt>
      <trkpt lat="43.36294" lon="6.12768">
        <ele>376.496684</ele>
        <time>2025-04-25T07:36:38.000Z</time>
      </trkpt>
      <trkpt lat="43.36294" lon="6.12768">
        <ele>376.496684</ele>
        <time>2025-04-25T07:36:38.000Z</time>
      </trkpt>
      <trkpt lat="43.36296" lon="6.12769">
        <ele>376.247304</ele>
        <time>2025-04-25T07:36:39.000Z</time>
      </trkpt>
      <trkpt lat="43.36296" lon="6.12769">
        <ele>376.247304</ele>
        <time>2025-04-25T07:36:39.000Z</time>
      </trkpt>
      <trkpt lat="43.36298" lon="6.1277">
        <ele>376.038963</ele>
        <time>2025-04-25T07:36:40.000Z</time>
      </trkpt>
      <trkpt lat="43.36298" lon="6.1277">
        <ele>376.038963</ele>
        <time>2025-04-25T07:36:40.000Z</time>
      </trkpt>
      <trkpt lat="43.363" lon="6.12772">
        <ele>375.835101</ele>
        <time>2025-04-25T07:36:41.000Z</time>
      </trkpt>
      <trkpt lat="43.363" lon="6.12772">
        <ele>375.835101</ele>
        <time>2025-04-25T07:36:41.000Z</time>
      </trkpt>
      <trkpt lat="43.36301" lon="6.12773">
        <ele>375.653266</ele>
        <time>2025-04-25T07:36:42.000Z</time>
      </trkpt>
      <trkpt lat="43.36301" lon="6.12773">
        <ele>375.653266</ele>
        <time>2025-04-25T07:36:42.000Z</time>
      </trkpt>
      <trkpt lat="43.36302" lon="6.12775">
        <ele>375.45422</ele>
        <time>2025-04-25T07:36:43.000Z</time>
      </trkpt>
      <trkpt lat="43.36302" lon="6.12775">
        <ele>375.45422</ele>
        <time>2025-04-25T07:36:43.000Z</time>
      </trkpt>
      <trkpt lat="43.36305" lon="6.12778">
        <ele>375.103392</ele>
        <time>2025-04-25T07:36:44.000Z</time>
      </trkpt>
      <trkpt lat="43.36305" lon="6.12778">
        <ele>375.103392</ele>
        <time>2025-04-25T07:36:44.000Z</time>
      </trkpt>
      <trkpt lat="43.36307" lon="6.12781">
        <ele>374.784102</ele>
        <time>2025-04-25T07:36:45.000Z</time>
      </trkpt>
      <trkpt lat="43.36307" lon="6.12781">
        <ele>374.784102</ele>
        <time>2025-04-25T07:36:45.000Z</time>
      </trkpt>
      <trkpt lat="43.3631" lon="6.12785">
        <ele>374.381234</ele>
        <time>2025-04-25T07:36:46.000Z</time>
      </trkpt>
      <trkpt lat="43.3631" lon="6.12785">
        <ele>374.381234</ele>
        <time>2025-04-25T07:36:46.000Z</time>
      </trkpt>
      <trkpt lat="43.36313" lon="6.12788">
        <ele>374.039369</ele>
        <time>2025-04-25T07:36:47.000Z</time>
      </trkpt>
      <trkpt lat="43.36313" lon="6.12788">
        <ele>374.039369</ele>
        <time>2025-04-25T07:36:47.000Z</time>
      </trkpt>
      <trkpt lat="43.36315" lon="6.12789">
        <ele>373.768365</ele>
        <time>2025-04-25T07:36:48.000Z</time>
      </trkpt>
      <trkpt lat="43.36315" lon="6.12789">
        <ele>373.768365</ele>
        <time>2025-04-25T07:36:48.000Z</time>
      </trkpt>
      <trkpt lat="43.36316" lon="6.12791">
        <ele>373.57844</ele>
        <time>2025-04-25T07:36:49.000Z</time>
      </trkpt>
      <trkpt lat="43.36316" lon="6.12791">
        <ele>373.57844</ele>
        <time>2025-04-25T07:36:49.000Z</time>
      </trkpt>
      <trkpt lat="43.36318" lon="6.12792">
        <ele>373.370099</ele>
        <time>2025-04-25T07:36:50.000Z</time>
      </trkpt>
      <trkpt lat="43.36318" lon="6.12792">
        <ele>373.370099</ele>
        <time>2025-04-25T07:36:50.000Z</time>
      </trkpt>
      <trkpt lat="43.3632" lon="6.12793">
        <ele>373.155985</ele>
        <time>2025-04-25T07:36:51.000Z</time>
      </trkpt>
      <trkpt lat="43.3632" lon="6.12793">
        <ele>373.155985</ele>
        <time>2025-04-25T07:36:51.000Z</time>
      </trkpt>
      <trkpt lat="43.36323" lon="6.12794">
        <ele>372.828114</ele>
        <time>2025-04-25T07:36:52.000Z</time>
      </trkpt>
      <trkpt lat="43.36323" lon="6.12794">
        <ele>372.828114</ele>
        <time>2025-04-25T07:36:52.000Z</time>
      </trkpt>
      <trkpt lat="43.36326" lon="6.12795">
        <ele>372.547253</ele>
        <time>2025-04-25T07:36:53.000Z</time>
      </trkpt>
      <trkpt lat="43.36326" lon="6.12795">
        <ele>372.547253</ele>
        <time>2025-04-25T07:36:53.000Z</time>
      </trkpt>
      <trkpt lat="43.36328" lon="6.12796">
        <ele>372.343758</ele>
        <time>2025-04-25T07:36:54.000Z</time>
      </trkpt>
      <trkpt lat="43.36328" lon="6.12796">
        <ele>372.343758</ele>
        <time>2025-04-25T07:36:54.000Z</time>
      </trkpt>
      <trkpt lat="43.3633" lon="6.12797">
        <ele>372.128252</ele>
        <time>2025-04-25T07:36:55.000Z</time>
      </trkpt>
      <trkpt lat="43.3633" lon="6.12797">
        <ele>372.128252</ele>
        <time>2025-04-25T07:36:55.000Z</time>
      </trkpt>
      <trkpt lat="43.36332" lon="6.12799">
        <ele>371.891982</ele>
        <time>2025-04-25T07:36:56.000Z</time>
      </trkpt>
      <trkpt lat="43.36332" lon="6.12799">
        <ele>371.891982</ele>
        <time>2025-04-25T07:36:56.000Z</time>
      </trkpt>
      <trkpt lat="43.36334" lon="6.12801">
        <ele>371.642364</ele>
        <time>2025-04-25T07:36:57.000Z</time>
      </trkpt>
      <trkpt lat="43.36334" lon="6.12801">
        <ele>371.642364</ele>
        <time>2025-04-25T07:36:57.000Z</time>
      </trkpt>
      <trkpt lat="43.36335" lon="6.12802">
        <ele>371.480146</ele>
        <time>2025-04-25T07:36:58.000Z</time>
      </trkpt>
      <trkpt lat="43.36335" lon="6.12802">
        <ele>371.480146</ele>
        <time>2025-04-25T07:36:58.000Z</time>
      </trkpt>
      <trkpt lat="43.36337" lon="6.12803">
        <ele>371.262819</ele>
        <time>2025-04-25T07:36:59.000Z</time>
      </trkpt>
      <trkpt lat="43.36337" lon="6.12803">
        <ele>371.262819</ele>
        <time>2025-04-25T07:36:59.000Z</time>
      </trkpt>
      <trkpt lat="43.36338" lon="6.12804">
        <ele>371.135389</ele>
        <time>2025-04-25T07:37:00.000Z</time>
      </trkpt>
      <trkpt lat="43.36338" lon="6.12804">
        <ele>371.135389</ele>
        <time>2025-04-25T07:37:00.000Z</time>
      </trkpt>
      <trkpt lat="43.36341" lon="6.12805">
        <ele>370.812373</ele>
        <time>2025-04-25T07:37:01.000Z</time>
      </trkpt>
      <trkpt lat="43.36341" lon="6.12805">
        <ele>370.812373</ele>
        <time>2025-04-25T07:37:01.000Z</time>
      </trkpt>
      <trkpt lat="43.36344" lon="6.12806">
        <ele>370.523987</ele>
        <time>2025-04-25T07:37:02.000Z</time>
      </trkpt>
      <trkpt lat="43.36344" lon="6.12806">
        <ele>370.523987</ele>
        <time>2025-04-25T07:37:02.000Z</time>
      </trkpt>
      <trkpt lat="43.36347" lon="6.12807">
        <ele>370.201866</ele>
        <time>2025-04-25T07:37:03.000Z</time>
      </trkpt>
      <trkpt lat="43.36347" lon="6.12807">
        <ele>370.201866</ele>
        <time>2025-04-25T07:37:03.000Z</time>
      </trkpt>
      <trkpt lat="43.36349" lon="6.12808">
        <ele>369.952486</ele>
        <time>2025-04-25T07:37:04.000Z</time>
      </trkpt>
      <trkpt lat="43.36349" lon="6.12808">
        <ele>369.952486</ele>
        <time>2025-04-25T07:37:04.000Z</time>
      </trkpt>
      <trkpt lat="43.36351" lon="6.12809">
        <ele>369.74137</ele>
        <time>2025-04-25T07:37:05.000Z</time>
      </trkpt>
      <trkpt lat="43.36351" lon="6.12809">
        <ele>369.74137</ele>
        <time>2025-04-25T07:37:05.000Z</time>
      </trkpt>
      <trkpt lat="43.36354" lon="6.12811">
        <ele>369.399593</ele>
        <time>2025-04-25T07:37:06.000Z</time>
      </trkpt>
      <trkpt lat="43.36354" lon="6.12811">
        <ele>369.399593</ele>
        <time>2025-04-25T07:37:06.000Z</time>
      </trkpt>
      <trkpt lat="43.36356" lon="6.12812">
        <ele>369.13891</ele>
        <time>2025-04-25T07:37:07.000Z</time>
      </trkpt>
      <trkpt lat="43.36356" lon="6.12812">
        <ele>369.13891</ele>
        <time>2025-04-25T07:37:07.000Z</time>
      </trkpt>
      <trkpt lat="43.36361" lon="6.12815">
        <ele>368.649813</ele>
        <time>2025-04-25T07:37:08.000Z</time>
      </trkpt>
      <trkpt lat="43.36361" lon="6.12815">
        <ele>368.649813</ele>
        <time>2025-04-25T07:37:08.000Z</time>
      </trkpt>
      <trkpt lat="43.36366" lon="6.12817">
        <ele>368.15345</ele>
        <time>2025-04-25T07:37:09.000Z</time>
      </trkpt>
      <trkpt lat="43.36366" lon="6.12817">
        <ele>368.15345</ele>
        <time>2025-04-25T07:37:09.000Z</time>
      </trkpt>
      <trkpt lat="43.3637" lon="6.12819">
        <ele>367.678662</ele>
        <time>2025-04-25T07:37:10.000Z</time>
      </trkpt>
      <trkpt lat="43.3637" lon="6.12819">
        <ele>367.678662</ele>
        <time>2025-04-25T07:37:10.000Z</time>
      </trkpt>
      <trkpt lat="43.36375" lon="6.12823">
        <ele>367.019916</ele>
        <time>2025-04-25T07:37:11.000Z</time>
      </trkpt>
      <trkpt lat="43.36375" lon="6.12823">
        <ele>367.019916</ele>
        <time>2025-04-25T07:37:11.000Z</time>
      </trkpt>
      <trkpt lat="43.36382" lon="6.12828">
        <ele>366.317945</ele>
        <time>2025-04-25T07:37:12.000Z</time>
      </trkpt>
      <trkpt lat="43.36382" lon="6.12828">
        <ele>366.317945</ele>
        <time>2025-04-25T07:37:12.000Z</time>
      </trkpt>
      <trkpt lat="43.36387" lon="6.12832">
        <ele>365.643171</ele>
        <time>2025-04-25T07:37:13.000Z</time>
      </trkpt>
      <trkpt lat="43.36387" lon="6.12832">
        <ele>365.643171</ele>
        <time>2025-04-25T07:37:13.000Z</time>
      </trkpt>
      <trkpt lat="43.36393" lon="6.12837">
        <ele>364.950822</ele>
        <time>2025-04-25T07:37:14.000Z</time>
      </trkpt>
      <trkpt lat="43.36393" lon="6.12837">
        <ele>364.950822</ele>
        <time>2025-04-25T07:37:14.000Z</time>
      </trkpt>
      <trkpt lat="43.36398" lon="6.12842">
        <ele>364.36398</ele>
        <time>2025-04-25T07:37:15.000Z</time>
      </trkpt>
      <trkpt lat="43.36398" lon="6.12842">
        <ele>364.36398</ele>
        <time>2025-04-25T07:37:15.000Z</time>
      </trkpt>
      <trkpt lat="43.36403" lon="6.12847">
        <ele>363.679543</ele>
        <time>2025-04-25T07:37:16.000Z</time>
      </trkpt>
      <trkpt lat="43.36403" lon="6.12847">
        <ele>363.679543</ele>
        <time>2025-04-25T07:37:16.000Z</time>
      </trkpt>
      <trkpt lat="43.36407" lon="6.12852">
        <ele>363.110688</ele>
        <time>2025-04-25T07:37:17.000Z</time>
      </trkpt>
      <trkpt lat="43.36407" lon="6.12852">
        <ele>363.110688</ele>
        <time>2025-04-25T07:37:17.000Z</time>
      </trkpt>
      <trkpt lat="43.36411" lon="6.12857">
        <ele>362.715025</ele>
        <time>2025-04-25T07:37:18.000Z</time>
      </trkpt>
      <trkpt lat="43.36411" lon="6.12857">
        <ele>362.715025</ele>
        <time>2025-04-25T07:37:18.000Z</time>
      </trkpt>
      <trkpt lat="43.36414" lon="6.12861">
        <ele>362.440952</ele>
        <time>2025-04-25T07:37:19.000Z</time>
      </trkpt>
      <trkpt lat="43.36414" lon="6.12861">
        <ele>362.440952</ele>
        <time>2025-04-25T07:37:19.000Z</time>
      </trkpt>
      <trkpt lat="43.36419" lon="6.12866">
        <ele>362.14277</ele>
        <time>2025-04-25T07:37:20.000Z</time>
      </trkpt>
      <trkpt lat="43.36419" lon="6.12866">
        <ele>362.14277</ele>
        <time>2025-04-25T07:37:20.000Z</time>
      </trkpt>
      <trkpt lat="43.36422" lon="6.1287">
        <ele>361.89386</ele>
        <time>2025-04-25T07:37:21.000Z</time>
      </trkpt>
      <trkpt lat="43.36422" lon="6.1287">
        <ele>361.89386</ele>
        <time>2025-04-25T07:37:21.000Z</time>
      </trkpt>
      <trkpt lat="43.36425" lon="6.12874">
        <ele>361.659127</ele>
        <time>2025-04-25T07:37:22.000Z</time>
      </trkpt>
      <trkpt lat="43.36425" lon="6.12874">
        <ele>361.659127</ele>
        <time>2025-04-25T07:37:22.000Z</time>
      </trkpt>
      <trkpt lat="43.36429" lon="6.12879">
        <ele>361.382438</ele>
        <time>2025-04-25T07:37:23.000Z</time>
      </trkpt>
      <trkpt lat="43.36429" lon="6.12879">
        <ele>361.382438</ele>
        <time>2025-04-25T07:37:23.000Z</time>
      </trkpt>
      <trkpt lat="43.36432" lon="6.12883">
        <ele>361.164686</ele>
        <time>2025-04-25T07:37:24.000Z</time>
      </trkpt>
      <trkpt lat="43.36432" lon="6.12883">
        <ele>361.164686</ele>
        <time>2025-04-25T07:37:24.000Z</time>
      </trkpt>
      <trkpt lat="43.36435" lon="6.12887">
        <ele>360.941037</ele>
        <time>2025-04-25T07:37:25.000Z</time>
      </trkpt>
      <trkpt lat="43.36435" lon="6.12887">
        <ele>360.941037</ele>
        <time>2025-04-25T07:37:25.000Z</time>
      </trkpt>
      <trkpt lat="43.36437" lon="6.12892">
        <ele>360.722443</ele>
        <time>2025-04-25T07:37:26.000Z</time>
      </trkpt>
      <trkpt lat="43.36437" lon="6.12892">
        <ele>360.722443</ele>
        <time>2025-04-25T07:37:26.000Z</time>
      </trkpt>
      <trkpt lat="43.36438" lon="6.12897">
        <ele>360.520399</ele>
        <time>2025-04-25T07:37:27.000Z</time>
      </trkpt>
      <trkpt lat="43.36438" lon="6.12897">
        <ele>360.520399</ele>
        <time>2025-04-25T07:37:27.000Z</time>
      </trkpt>
      <trkpt lat="43.36439" lon="6.12901">
        <ele>360.326046</ele>
        <time>2025-04-25T07:37:28.000Z</time>
      </trkpt>
      <trkpt lat="43.36439" lon="6.12901">
        <ele>360.326046</ele>
        <time>2025-04-25T07:37:28.000Z</time>
      </trkpt>
      <trkpt lat="43.36441" lon="6.12909">
        <ele>360.029693</ele>
        <time>2025-04-25T07:37:29.000Z</time>
      </trkpt>
      <trkpt lat="43.36441" lon="6.12909">
        <ele>360.029693</ele>
        <time>2025-04-25T07:37:29.000Z</time>
      </trkpt>
      <trkpt lat="43.36441" lon="6.12912">
        <ele>359.915543</ele>
        <time>2025-04-25T07:37:30.000Z</time>
      </trkpt>
      <trkpt lat="43.36442" lon="6.1292">
        <ele>359.564072</ele>
        <time>2025-04-25T07:37:31.000Z</time>
      </trkpt>
      <trkpt lat="43.36442" lon="6.1292">
        <ele>359.564072</ele>
        <time>2025-04-25T07:37:31.000Z</time>
      </trkpt>
      <trkpt lat="43.36442" lon="6.1292">
        <ele>359.564072</ele>
        <time>2025-04-25T07:37:32.000Z</time>
      </trkpt>
      <trkpt lat="43.36443" lon="6.12931">
        <ele>359.137914</ele>
        <time>2025-04-25T07:37:32.000Z</time>
      </trkpt>
      <trkpt lat="43.36443" lon="6.12931">
        <ele>359.137914</ele>
        <time>2025-04-25T07:37:32.000Z</time>
      </trkpt>
      <trkpt lat="43.36443" lon="6.12933">
        <ele>359.042059</ele>
        <time>2025-04-25T07:37:34.000Z</time>
      </trkpt>
      <trkpt lat="43.36443" lon="6.12936">
        <ele>358.955462</ele>
        <time>2025-04-25T07:37:35.000Z</time>
      </trkpt>
      <trkpt lat="43.36443" lon="6.12936">
        <ele>358.955462</ele>
        <time>2025-04-25T07:37:35.000Z</time>
      </trkpt>
      <trkpt lat="43.36444" lon="6.1294">
        <ele>358.800429</ele>
        <time>2025-04-25T07:37:37.000Z</time>
      </trkpt>
      <trkpt lat="43.36445" lon="6.12942">
        <ele>358.69529</ele>
        <time>2025-04-25T07:37:38.000Z</time>
      </trkpt>
      <trkpt lat="43.36446" lon="6.12944">
        <ele>358.573462</ele>
        <time>2025-04-25T07:37:39.000Z</time>
      </trkpt>
      <trkpt lat="43.36446" lon="6.12944">
        <ele>358.573462</ele>
        <time>2025-04-25T07:37:39.000Z</time>
      </trkpt>
      <trkpt lat="43.36448" lon="6.12948">
        <ele>358.387754</ele>
        <time>2025-04-25T07:37:40.000Z</time>
      </trkpt>
      <trkpt lat="43.36451" lon="6.12952">
        <ele>358.172903</ele>
        <time>2025-04-25T07:37:41.000Z</time>
      </trkpt>
      <trkpt lat="43.36451" lon="6.12952">
        <ele>358.172903</ele>
        <time>2025-04-25T07:37:41.000Z</time>
      </trkpt>
      <trkpt lat="43.36453" lon="6.12956">
        <ele>357.978598</ele>
        <time>2025-04-25T07:37:42.000Z</time>
      </trkpt>
      <trkpt lat="43.36454" lon="6.1296">
        <ele>357.81552</ele>
        <time>2025-04-25T07:37:43.000Z</time>
      </trkpt>
      <trkpt lat="43.36454" lon="6.1296">
        <ele>357.81552</ele>
        <time>2025-04-25T07:37:43.000Z</time>
      </trkpt>
      <trkpt lat="43.36456" lon="6.12965">
        <ele>357.580607</ele>
        <time>2025-04-25T07:37:44.000Z</time>
      </trkpt>
      <trkpt lat="43.36457" lon="6.1297">
        <ele>357.367697</ele>
        <time>2025-04-25T07:37:45.000Z</time>
      </trkpt>
      <trkpt lat="43.36457" lon="6.1297">
        <ele>357.367697</ele>
        <time>2025-04-25T07:37:45.000Z</time>
      </trkpt>
      <trkpt lat="43.36459" lon="6.12976">
        <ele>357.118568</ele>
        <time>2025-04-25T07:37:46.000Z</time>
      </trkpt>
      <trkpt lat="43.36459" lon="6.12976">
        <ele>357.118568</ele>
        <time>2025-04-25T07:37:46.000Z</time>
      </trkpt>
      <trkpt lat="43.36461" lon="6.12982">
        <ele>356.868161</ele>
        <time>2025-04-25T07:37:47.000Z</time>
      </trkpt>
      <trkpt lat="43.36461" lon="6.12982">
        <ele>356.868161</ele>
        <time>2025-04-25T07:37:47.000Z</time>
      </trkpt>
      <trkpt lat="43.36463" lon="6.12986">
        <ele>356.687493</ele>
        <time>2025-04-25T07:37:48.000Z</time>
      </trkpt>
      <trkpt lat="43.36463" lon="6.12986">
        <ele>356.687493</ele>
        <time>2025-04-25T07:37:48.000Z</time>
      </trkpt>
      <trkpt lat="43.36465" lon="6.12989">
        <ele>356.509186</ele>
        <time>2025-04-25T07:37:49.000Z</time>
      </trkpt>
      <trkpt lat="43.36465" lon="6.12989">
        <ele>356.509186</ele>
        <time>2025-04-25T07:37:49.000Z</time>
      </trkpt>
      <trkpt lat="43.36466" lon="6.12993">
        <ele>356.342432</ele>
        <time>2025-04-25T07:37:50.000Z</time>
      </trkpt>
      <trkpt lat="43.36466" lon="6.12993">
        <ele>356.342432</ele>
        <time>2025-04-25T07:37:50.000Z</time>
      </trkpt>
      <trkpt lat="43.36469" lon="6.12997">
        <ele>356.153786</ele>
        <time>2025-04-25T07:37:51.000Z</time>
      </trkpt>
      <trkpt lat="43.36469" lon="6.12997">
        <ele>356.153786</ele>
        <time>2025-04-25T07:37:51.000Z</time>
      </trkpt>
      <trkpt lat="43.36471" lon="6.13001">
        <ele>355.938935</ele>
        <time>2025-04-25T07:37:52.000Z</time>
      </trkpt>
      <trkpt lat="43.36471" lon="6.13001">
        <ele>355.938935</ele>
        <time>2025-04-25T07:37:52.000Z</time>
      </trkpt>
      <trkpt lat="43.36474" lon="6.13004">
        <ele>355.74739</ele>
        <time>2025-04-25T07:37:53.000Z</time>
      </trkpt>
      <trkpt lat="43.36474" lon="6.13004">
        <ele>355.74739</ele>
        <time>2025-04-25T07:37:53.000Z</time>
      </trkpt>
      <trkpt lat="43.36477" lon="6.13007">
        <ele>355.532722</ele>
        <time>2025-04-25T07:37:54.000Z</time>
      </trkpt>
      <trkpt lat="43.36477" lon="6.13007">
        <ele>355.532722</ele>
        <time>2025-04-25T07:37:54.000Z</time>
      </trkpt>
      <trkpt lat="43.36479" lon="6.1301">
        <ele>355.376111</ele>
        <time>2025-04-25T07:37:55.000Z</time>
      </trkpt>
      <trkpt lat="43.36479" lon="6.1301">
        <ele>355.376111</ele>
        <time>2025-04-25T07:37:55.000Z</time>
      </trkpt>
      <trkpt lat="43.36481" lon="6.13012">
        <ele>355.236562</ele>
        <time>2025-04-25T07:37:56.000Z</time>
      </trkpt>
      <trkpt lat="43.36481" lon="6.13012">
        <ele>355.236562</ele>
        <time>2025-04-25T07:37:56.000Z</time>
      </trkpt>
      <trkpt lat="43.36483" lon="6.13014">
        <ele>355.115942</ele>
        <time>2025-04-25T07:37:57.000Z</time>
      </trkpt>
      <trkpt lat="43.36483" lon="6.13014">
        <ele>355.115942</ele>
        <time>2025-04-25T07:37:57.000Z</time>
      </trkpt>
      <trkpt lat="43.36485" lon="6.13016">
        <ele>354.970681</ele>
        <time>2025-04-25T07:37:58.000Z</time>
      </trkpt>
      <trkpt lat="43.36485" lon="6.13016">
        <ele>354.970681</ele>
        <time>2025-04-25T07:37:58.000Z</time>
      </trkpt>
      <trkpt lat="43.36485" lon="6.13016">
        <ele>354.970681</ele>
        <time>2025-04-25T07:37:59.000Z</time>
      </trkpt>
      <trkpt lat="43.36485" lon="6.13016">
        <ele>354.970681</ele>
        <time>2025-04-25T07:38:01.000Z</time>
      </trkpt>
      <trkpt lat="43.36485" lon="6.13016">
        <ele>354.970681</ele>
        <time>2025-04-25T07:38:04.000Z</time>
      </trkpt>
      <trkpt lat="43.36493" lon="6.13027">
        <ele>354.332699</ele>
        <time>2025-04-25T07:38:06.000Z</time>
      </trkpt>
      <trkpt lat="43.36493" lon="6.13027">
        <ele>354.332699</ele>
        <time>2025-04-25T07:38:06.000Z</time>
      </trkpt>
      <trkpt lat="43.36494" lon="6.13028">
        <ele>354.305924</ele>
        <time>2025-04-25T07:38:07.000Z</time>
      </trkpt>
      <trkpt lat="43.36494" lon="6.1303">
        <ele>354.231136</ele>
        <time>2025-04-25T07:38:13.000Z</time>
      </trkpt>
      <trkpt lat="43.36494" lon="6.1303">
        <ele>354.231136</ele>
        <time>2025-04-25T07:38:15.000Z</time>
      </trkpt>
      <trkpt lat="43.36493" lon="6.13031">
        <ele>354.1547</ele>
        <time>2025-04-25T07:38:15.000Z</time>
      </trkpt>
      <trkpt lat="43.36494" lon="6.13033">
        <ele>354.064214</ele>
        <time>2025-04-25T07:38:18.000Z</time>
      </trkpt>
      <trkpt lat="43.36494" lon="6.13033">
        <ele>354.047501</ele>
        <time>2025-04-25T07:38:18.000Z</time>
      </trkpt>
      <trkpt lat="43.36495" lon="6.13033">
        <ele>354.003476</ele>
        <time>2025-04-25T07:38:20.000Z</time>
      </trkpt>
      <trkpt lat="43.36496" lon="6.13034">
        <ele>353.93744</ele>
        <time>2025-04-25T07:38:21.000Z</time>
      </trkpt>
      <trkpt lat="43.36496" lon="6.13034">
        <ele>353.93744</ele>
        <time>2025-04-25T07:38:21.000Z</time>
      </trkpt>
      <trkpt lat="43.36497" lon="6.13034">
        <ele>353.894734</ele>
        <time>2025-04-25T07:38:22.000Z</time>
      </trkpt>
      <trkpt lat="43.365" lon="6.13036">
        <ele>353.724824</ele>
        <time>2025-04-25T07:38:24.000Z</time>
      </trkpt>
      <trkpt lat="43.36502" lon="6.13036">
        <ele>353.621651</ele>
        <time>2025-04-25T07:38:26.000Z</time>
      </trkpt>
      <trkpt lat="43.36502" lon="6.13036">
        <ele>353.621651</ele>
        <time>2025-04-25T07:38:26.000Z</time>
      </trkpt>
      <trkpt lat="43.36503" lon="6.13037">
        <ele>353.558926</ele>
        <time>2025-04-25T07:38:27.000Z</time>
      </trkpt>
      <trkpt lat="43.36503" lon="6.13037">
        <ele>353.529662</ele>
        <time>2025-04-25T07:38:28.000Z</time>
      </trkpt>
      <trkpt lat="43.36503" lon="6.13037">
        <ele>353.529662</ele>
        <time>2025-04-25T07:38:28.000Z</time>
      </trkpt>
      <trkpt lat="43.36503" lon="6.13037">
        <ele>353.529662</ele>
        <time>2025-04-25T07:38:29.000Z</time>
      </trkpt>
      <trkpt lat="43.36505" lon="6.13041">
        <ele>353.338279</ele>
        <time>2025-04-25T07:38:30.000Z</time>
      </trkpt>
      <trkpt lat="43.36506" lon="6.13042">
        <ele>353.293353</ele>
        <time>2025-04-25T07:38:31.000Z</time>
      </trkpt>
      <trkpt lat="43.36506" lon="6.13042">
        <ele>353.293353</ele>
        <time>2025-04-25T07:38:31.000Z</time>
      </trkpt>
      <trkpt lat="43.36506" lon="6.13042">
        <ele>353.293353</ele>
        <time>2025-04-25T07:38:32.000Z</time>
      </trkpt>
      <trkpt lat="43.36506" lon="6.13042">
        <ele>353.293353</ele>
        <time>2025-04-25T07:38:33.000Z</time>
      </trkpt>
      <trkpt lat="43.36507" lon="6.13046">
        <ele>353.10562</ele>
        <time>2025-04-25T07:38:34.000Z</time>
      </trkpt>
      <trkpt lat="43.36507" lon="6.13046">
        <ele>353.10562</ele>
        <time>2025-04-25T07:38:34.000Z</time>
      </trkpt>
      <trkpt lat="43.36508" lon="6.13049">
        <ele>353.080936</ele>
        <time>2025-04-25T07:38:35.000Z</time>
      </trkpt>
      <trkpt lat="43.36508" lon="6.1305">
        <ele>353.087778</ele>
        <time>2025-04-25T07:38:37.000Z</time>
      </trkpt>
      <trkpt lat="43.36509" lon="6.13052">
        <ele>353.098463</ele>
        <time>2025-04-25T07:38:38.000Z</time>
      </trkpt>
      <trkpt lat="43.36509" lon="6.13052">
        <ele>353.098463</ele>
        <time>2025-04-25T07:38:38.000Z</time>
      </trkpt>
      <trkpt lat="43.36511" lon="6.13054">
        <ele>353.115892</ele>
        <time>2025-04-25T07:38:39.000Z</time>
      </trkpt>
      <trkpt lat="43.36511" lon="6.13054">
        <ele>353.115892</ele>
        <time>2025-04-25T07:38:39.000Z</time>
      </trkpt>
      <trkpt lat="43.36511" lon="6.13055">
        <ele>353.125589</ele>
        <time>2025-04-25T07:38:40.000Z</time>
      </trkpt>
      <trkpt lat="43.36511" lon="6.13055">
        <ele>353.125589</ele>
        <time>2025-04-25T07:38:40.000Z</time>
      </trkpt>
      <trkpt lat="43.36514" lon="6.13058">
        <ele>353.155772</ele>
        <time>2025-04-25T07:38:40.000Z</time>
      </trkpt>
      <trkpt lat="43.36514" lon="6.13058">
        <ele>353.155772</ele>
        <time>2025-04-25T07:38:40.000Z</time>
      </trkpt>
      <trkpt lat="43.36516" lon="6.1306">
        <ele>353.176251</ele>
        <time>2025-04-25T07:38:42.000Z</time>
      </trkpt>
      <trkpt lat="43.36516" lon="6.1306">
        <ele>353.176251</ele>
        <time>2025-04-25T07:38:42.000Z</time>
      </trkpt>
      <trkpt lat="43.36518" lon="6.13062">
        <ele>353.196754</ele>
        <time>2025-04-25T07:38:43.000Z</time>
      </trkpt>
      <trkpt lat="43.36518" lon="6.13062">
        <ele>353.196754</ele>
        <time>2025-04-25T07:38:43.000Z</time>
      </trkpt>
      <trkpt lat="43.3652" lon="6.13061">
        <ele>353.209353</ele>
        <time>2025-04-25T07:38:44.000Z</time>
      </trkpt>
      <trkpt lat="43.36522" lon="6.13061">
        <ele>353.231744</ele>
        <time>2025-04-25T07:38:45.000Z</time>
      </trkpt>
      <trkpt lat="43.36522" lon="6.13061">
        <ele>353.231744</ele>
        <time>2025-04-25T07:38:45.000Z</time>
      </trkpt>
      <trkpt lat="43.36524" lon="6.1306">
        <ele>353.247818</ele>
        <time>2025-04-25T07:38:46.000Z</time>
      </trkpt>
      <trkpt lat="43.36524" lon="6.1306">
        <ele>353.247818</ele>
        <time>2025-04-25T07:38:46.000Z</time>
      </trkpt>
      <trkpt lat="43.36527" lon="6.13059">
        <ele>353.270726</ele>
        <time>2025-04-25T07:38:47.000Z</time>
      </trkpt>
      <trkpt lat="43.36527" lon="6.13059">
        <ele>353.270726</ele>
        <time>2025-04-25T07:38:47.000Z</time>
      </trkpt>
      <trkpt lat="43.3653" lon="6.13059">
        <ele>353.292373</ele>
        <time>2025-04-25T07:38:48.000Z</time>
      </trkpt>
      <trkpt lat="43.3653" lon="6.13059">
        <ele>353.292373</ele>
        <time>2025-04-25T07:38:48.000Z</time>
      </trkpt>
      <trkpt lat="43.36531" lon="6.13058">
        <ele>353.308323</ele>
        <time>2025-04-25T07:38:49.000Z</time>
      </trkpt>
      <trkpt lat="43.36534" lon="6.13058">
        <ele>353.330978</ele>
        <time>2025-04-25T07:38:50.000Z</time>
      </trkpt>
      <trkpt lat="43.36534" lon="6.13058">
        <ele>353.330978</ele>
        <time>2025-04-25T07:38:50.000Z</time>
      </trkpt>
      <trkpt lat="43.36536" lon="6.13058">
        <ele>353.349981</ele>
        <time>2025-04-25T07:38:51.000Z</time>
      </trkpt>
      <trkpt lat="43.36539" lon="6.13057">
        <ele>353.372276</ele>
        <time>2025-04-25T07:38:52.000Z</time>
      </trkpt>
      <trkpt lat="43.36539" lon="6.13057">
        <ele>353.372276</ele>
        <time>2025-04-25T07:38:52.000Z</time>
      </trkpt>
      <trkpt lat="43.36542" lon="6.13057">
        <ele>353.39702</ele>
        <time>2025-04-25T07:38:53.000Z</time>
      </trkpt>
      <trkpt lat="43.36542" lon="6.13057">
        <ele>353.39702</ele>
        <time>2025-04-25T07:38:53.000Z</time>
      </trkpt>
      <trkpt lat="43.36544" lon="6.13058">
        <ele>353.416582</ele>
        <time>2025-04-25T07:38:54.000Z</time>
      </trkpt>
      <trkpt lat="43.36546" lon="6.13059">
        <ele>353.433151</ele>
        <time>2025-04-25T07:38:55.000Z</time>
      </trkpt>
      <trkpt lat="43.36548" lon="6.1306">
        <ele>353.4479</ele>
        <time>2025-04-25T07:38:56.000Z</time>
      </trkpt>
      <trkpt lat="43.36548" lon="6.1306">
        <ele>353.4479</ele>
        <time>2025-04-25T07:38:56.000Z</time>
      </trkpt>
      <trkpt lat="43.36549" lon="6.13062">
        <ele>353.460672</ele>
        <time>2025-04-25T07:38:57.000Z</time>
      </trkpt>
      <trkpt lat="43.3655" lon="6.13064">
        <ele>353.474355</ele>
        <time>2025-04-25T07:38:58.000Z</time>
      </trkpt>
      <trkpt lat="43.3655" lon="6.13066">
        <ele>353.487773</ele>
        <time>2025-04-25T07:38:59.000Z</time>
      </trkpt>
      <trkpt lat="43.36551" lon="6.13072">
        <ele>353.523293</ele>
        <time>2025-04-25T07:38:59.000Z</time>
      </trkpt>
      <trkpt lat="43.3655" lon="6.13075">
        <ele>353.541577</ele>
        <time>2025-04-25T07:39:01.000Z</time>
      </trkpt>
      <trkpt lat="43.3655" lon="6.1308">
        <ele>353.572748</ele>
        <time>2025-04-25T07:39:02.000Z</time>
      </trkpt>
      <trkpt lat="43.36551" lon="6.13086">
        <ele>353.609462</ele>
        <time>2025-04-25T07:39:03.000Z</time>
      </trkpt>
      <trkpt lat="43.36551" lon="6.13086">
        <ele>353.609462</ele>
        <time>2025-04-25T07:39:03.000Z</time>
      </trkpt>
      <trkpt lat="43.36551" lon="6.13093">
        <ele>353.652022</ele>
        <time>2025-04-25T07:39:03.000Z</time>
      </trkpt>
      <trkpt lat="43.36551" lon="6.13101">
        <ele>353.699493</ele>
        <time>2025-04-25T07:39:05.000Z</time>
      </trkpt>
      <trkpt lat="43.36552" lon="6.13108">
        <ele>353.740193</ele>
        <time>2025-04-25T07:39:06.000Z</time>
      </trkpt>
      <trkpt lat="43.36552" lon="6.13108">
        <ele>353.740193</ele>
        <time>2025-04-25T07:39:06.000Z</time>
      </trkpt>
      <trkpt lat="43.36552" lon="6.13114">
        <ele>353.778397</ele>
        <time>2025-04-25T07:39:07.000Z</time>
      </trkpt>
      <trkpt lat="43.36552" lon="6.13114">
        <ele>353.778397</ele>
        <time>2025-04-25T07:39:07.000Z</time>
      </trkpt>
      <trkpt lat="43.36553" lon="6.13121">
        <ele>353.819689</ele>
        <time>2025-04-25T07:39:08.000Z</time>
      </trkpt>
      <trkpt lat="43.36554" lon="6.13127">
        <ele>353.855666</ele>
        <time>2025-04-25T07:39:09.000Z</time>
      </trkpt>
      <trkpt lat="43.36554" lon="6.13127">
        <ele>353.855666</ele>
        <time>2025-04-25T07:39:09.000Z</time>
      </trkpt>
      <trkpt lat="43.36554" lon="6.13133">
        <ele>353.896503</ele>
        <time>2025-04-25T07:39:10.000Z</time>
      </trkpt>
      <trkpt lat="43.36554" lon="6.13133">
        <ele>353.896503</ele>
        <time>2025-04-25T07:39:10.000Z</time>
      </trkpt>
      <trkpt lat="43.36554" lon="6.1314">
        <ele>353.933668</ele>
        <time>2025-04-25T07:39:11.000Z</time>
      </trkpt>
      <trkpt lat="43.36554" lon="6.1314">
        <ele>353.933668</ele>
        <time>2025-04-25T07:39:11.000Z</time>
      </trkpt>
      <trkpt lat="43.36555" lon="6.13146">
        <ele>353.969189</ele>
        <time>2025-04-25T07:39:12.000Z</time>
      </trkpt>
      <trkpt lat="43.36556" lon="6.13151">
        <ele>354.002811</ele>
        <time>2025-04-25T07:39:13.000Z</time>
      </trkpt>
      <trkpt lat="43.36556" lon="6.13151">
        <ele>354.002811</ele>
        <time>2025-04-25T07:39:13.000Z</time>
      </trkpt>
      <trkpt lat="43.36557" lon="6.13157">
        <ele>354.038163</ele>
        <time>2025-04-25T07:39:14.000Z</time>
      </trkpt>
      <trkpt lat="43.36557" lon="6.13157">
        <ele>354.038163</ele>
        <time>2025-04-25T07:39:14.000Z</time>
      </trkpt>
      <trkpt lat="43.36558" lon="6.13162">
        <ele>354.071438</ele>
        <time>2025-04-25T07:39:15.000Z</time>
      </trkpt>
      <trkpt lat="43.36558" lon="6.13162">
        <ele>354.071438</ele>
        <time>2025-04-25T07:39:15.000Z</time>
      </trkpt>
      <trkpt lat="43.36559" lon="6.13169">
        <ele>354.113197</ele>
        <time>2025-04-25T07:39:16.000Z</time>
      </trkpt>
      <trkpt lat="43.36559" lon="6.13169">
        <ele>354.113197</ele>
        <time>2025-04-25T07:39:16.000Z</time>
      </trkpt>
      <trkpt lat="43.3656" lon="6.13176">
        <ele>354.155725</ele>
        <time>2025-04-25T07:39:17.000Z</time>
      </trkpt>
      <trkpt lat="43.3656" lon="6.13176">
        <ele>354.155725</ele>
        <time>2025-04-25T07:39:17.000Z</time>
      </trkpt>
      <trkpt lat="43.3656" lon="6.13183">
        <ele>354.197161</ele>
        <time>2025-04-25T07:39:18.000Z</time>
      </trkpt>
      <trkpt lat="43.3656" lon="6.13183">
        <ele>354.197161</ele>
        <time>2025-04-25T07:39:18.000Z</time>
      </trkpt>
      <trkpt lat="43.3656" lon="6.13188">
        <ele>354.22953</ele>
        <time>2025-04-25T07:39:19.000Z</time>
      </trkpt>
      <trkpt lat="43.3656" lon="6.13188">
        <ele>354.22953</ele>
        <time>2025-04-25T07:39:19.000Z</time>
      </trkpt>
      <trkpt lat="43.36561" lon="6.13193">
        <ele>354.262565</ele>
        <time>2025-04-25T07:39:20.000Z</time>
      </trkpt>
      <trkpt lat="43.36561" lon="6.13193">
        <ele>354.262565</ele>
        <time>2025-04-25T07:39:20.000Z</time>
      </trkpt>
      <trkpt lat="43.36562" lon="6.132">
        <ele>354.29928</ele>
        <time>2025-04-25T07:39:21.000Z</time>
      </trkpt>
      <trkpt lat="43.36562" lon="6.132">
        <ele>354.29928</ele>
        <time>2025-04-25T07:39:21.000Z</time>
      </trkpt>
      <trkpt lat="43.36562" lon="6.13206">
        <ele>354.338207</ele>
        <time>2025-04-25T07:39:22.000Z</time>
      </trkpt>
      <trkpt lat="43.36562" lon="6.13206">
        <ele>354.338207</ele>
        <time>2025-04-25T07:39:22.000Z</time>
      </trkpt>
      <trkpt lat="43.36563" lon="6.13212">
        <ele>354.372268</ele>
        <time>2025-04-25T07:39:23.000Z</time>
      </trkpt>
      <trkpt lat="43.36563" lon="6.13212">
        <ele>354.372268</ele>
        <time>2025-04-25T07:39:23.000Z</time>
      </trkpt>
      <trkpt lat="43.36564" lon="6.13218">
        <ele>354.410605</ele>
        <time>2025-04-25T07:39:24.000Z</time>
      </trkpt>
      <trkpt lat="43.36564" lon="6.13218">
        <ele>354.410605</ele>
        <time>2025-04-25T07:39:24.000Z</time>
      </trkpt>
      <trkpt lat="43.36565" lon="6.13225">
        <ele>354.45118</ele>
        <time>2025-04-25T07:39:25.000Z</time>
      </trkpt>
      <trkpt lat="43.36565" lon="6.13225">
        <ele>354.45118</ele>
        <time>2025-04-25T07:39:25.000Z</time>
      </trkpt>
      <trkpt lat="43.36565" lon="6.13231">
        <ele>354.49088</ele>
        <time>2025-04-25T07:39:26.000Z</time>
      </trkpt>
      <trkpt lat="43.36565" lon="6.13231">
        <ele>354.49088</ele>
        <time>2025-04-25T07:39:26.000Z</time>
      </trkpt>
      <trkpt lat="43.36565" lon="6.13239">
        <ele>354.535361</ele>
        <time>2025-04-25T07:39:27.000Z</time>
      </trkpt>
      <trkpt lat="43.36565" lon="6.13239">
        <ele>354.535361</ele>
        <time>2025-04-25T07:39:27.000Z</time>
      </trkpt>
      <trkpt lat="43.36566" lon="6.13246">
        <ele>354.709693</ele>
        <time>2025-04-25T07:39:28.000Z</time>
      </trkpt>
      <trkpt lat="43.36566" lon="6.13246">
        <ele>354.709693</ele>
        <time>2025-04-25T07:39:28.000Z</time>
      </trkpt>
      <trkpt lat="43.36566" lon="6.13255">
        <ele>355.033792</ele>
        <time>2025-04-25T07:39:29.000Z</time>
      </trkpt>
      <trkpt lat="43.36566" lon="6.13255">
        <ele>355.033792</ele>
        <time>2025-04-25T07:39:29.000Z</time>
      </trkpt>
      <trkpt lat="43.36566" lon="6.13262">
        <ele>355.303268</ele>
        <time>2025-04-25T07:39:30.000Z</time>
      </trkpt>
      <trkpt lat="43.36566" lon="6.13262">
        <ele>355.303268</ele>
        <time>2025-04-25T07:39:30.000Z</time>
      </trkpt>
      <trkpt lat="43.36567" lon="6.13268">
        <ele>355.532135</ele>
        <time>2025-04-25T07:39:31.000Z</time>
      </trkpt>
      <trkpt lat="43.36567" lon="6.13268">
        <ele>355.532135</ele>
        <time>2025-04-25T07:39:31.000Z</time>
      </trkpt>
      <trkpt lat="43.36567" lon="6.13273">
        <ele>355.70693</ele>
        <time>2025-04-25T07:39:32.000Z</time>
      </trkpt>
      <trkpt lat="43.36567" lon="6.13273">
        <ele>355.70693</ele>
        <time>2025-04-25T07:39:32.000Z</time>
      </trkpt>
      <trkpt lat="43.36567" lon="6.13278">
        <ele>355.893727</ele>
        <time>2025-04-25T07:39:33.000Z</time>
      </trkpt>
      <trkpt lat="43.36567" lon="6.13278">
        <ele>355.893727</ele>
        <time>2025-04-25T07:39:33.000Z</time>
      </trkpt>
      <trkpt lat="43.36568" lon="6.13283">
        <ele>356.087767</ele>
        <time>2025-04-25T07:39:34.000Z</time>
      </trkpt>
      <trkpt lat="43.36568" lon="6.13283">
        <ele>356.087767</ele>
        <time>2025-04-25T07:39:34.000Z</time>
      </trkpt>
      <trkpt lat="43.36568" lon="6.13289">
        <ele>356.291695</ele>
        <time>2025-04-25T07:39:35.000Z</time>
      </trkpt>
      <trkpt lat="43.36568" lon="6.13289">
        <ele>356.291695</ele>
        <time>2025-04-25T07:39:35.000Z</time>
      </trkpt>
      <trkpt lat="43.36568" lon="6.13296">
        <ele>356.54013</ele>
        <time>2025-04-25T07:39:36.000Z</time>
      </trkpt>
      <trkpt lat="43.36568" lon="6.13296">
        <ele>356.54013</ele>
        <time>2025-04-25T07:39:36.000Z</time>
      </trkpt>
      <trkpt lat="43.36568" lon="6.13303">
        <ele>356.799456</ele>
        <time>2025-04-25T07:39:37.000Z</time>
      </trkpt>
      <trkpt lat="43.36568" lon="6.13303">
        <ele>356.799456</ele>
        <time>2025-04-25T07:39:37.000Z</time>
      </trkpt>
      <trkpt lat="43.36567" lon="6.13309">
        <ele>357.043671</ele>
        <time>2025-04-25T07:39:38.000Z</time>
      </trkpt>
      <trkpt lat="43.36567" lon="6.13309">
        <ele>357.043671</ele>
        <time>2025-04-25T07:39:38.000Z</time>
      </trkpt>
      <trkpt lat="43.36566" lon="6.13316">
        <ele>357.300981</ele>
        <time>2025-04-25T07:39:39.000Z</time>
      </trkpt>
      <trkpt lat="43.36566" lon="6.13316">
        <ele>357.300981</ele>
        <time>2025-04-25T07:39:39.000Z</time>
      </trkpt>
      <trkpt lat="43.36565" lon="6.13322">
        <ele>357.530287</ele>
        <time>2025-04-25T07:39:40.000Z</time>
      </trkpt>
      <trkpt lat="43.36565" lon="6.13322">
        <ele>357.530287</ele>
        <time>2025-04-25T07:39:40.000Z</time>
      </trkpt>
      <trkpt lat="43.36565" lon="6.13328">
        <ele>357.735196</ele>
        <time>2025-04-25T07:39:41.000Z</time>
      </trkpt>
      <trkpt lat="43.36566" lon="6.13334">
        <ele>357.954794</ele>
        <time>2025-04-25T07:39:42.000Z</time>
      </trkpt>
      <trkpt lat="43.36566" lon="6.13334">
        <ele>357.954794</ele>
        <time>2025-04-25T07:39:42.000Z</time>
      </trkpt>
      <trkpt lat="43.36567" lon="6.13339">
        <ele>358.145027</ele>
        <time>2025-04-25T07:39:43.000Z</time>
      </trkpt>
      <trkpt lat="43.36567" lon="6.13339">
        <ele>358.145027</ele>
        <time>2025-04-25T07:39:43.000Z</time>
      </trkpt>
      <trkpt lat="43.36569" lon="6.13344">
        <ele>358.360753</ele>
        <time>2025-04-25T07:39:44.000Z</time>
      </trkpt>
      <trkpt lat="43.36569" lon="6.13344">
        <ele>358.360753</ele>
        <time>2025-04-25T07:39:44.000Z</time>
      </trkpt>
      <trkpt lat="43.3657" lon="6.1335">
        <ele>358.582558</ele>
        <time>2025-04-25T07:39:45.000Z</time>
      </trkpt>
      <trkpt lat="43.3657" lon="6.1335">
        <ele>358.582558</ele>
        <time>2025-04-25T07:39:45.000Z</time>
      </trkpt>
      <trkpt lat="43.3657" lon="6.13357">
        <ele>358.819038</ele>
        <time>2025-04-25T07:39:46.000Z</time>
      </trkpt>
      <trkpt lat="43.3657" lon="6.13357">
        <ele>358.819038</ele>
        <time>2025-04-25T07:39:46.000Z</time>
      </trkpt>
      <trkpt lat="43.36571" lon="6.13363">
        <ele>359.05985</ele>
        <time>2025-04-25T07:39:47.000Z</time>
      </trkpt>
      <trkpt lat="43.36571" lon="6.13363">
        <ele>359.05985</ele>
        <time>2025-04-25T07:39:47.000Z</time>
      </trkpt>
      <trkpt lat="43.36571" lon="6.13369">
        <ele>359.275635</ele>
        <time>2025-04-25T07:39:48.000Z</time>
      </trkpt>
      <trkpt lat="43.36571" lon="6.13369">
        <ele>359.275635</ele>
        <time>2025-04-25T07:39:48.000Z</time>
      </trkpt>
      <trkpt lat="43.36572" lon="6.13374">
        <ele>359.477781</ele>
        <time>2025-04-25T07:39:49.000Z</time>
      </trkpt>
      <trkpt lat="43.36572" lon="6.13374">
        <ele>359.477781</ele>
        <time>2025-04-25T07:39:49.000Z</time>
      </trkpt>
      <trkpt lat="43.36574" lon="6.1338">
        <ele>359.678124</ele>
        <time>2025-04-25T07:39:50.000Z</time>
      </trkpt>
      <trkpt lat="43.36576" lon="6.13384">
        <ele>359.87715</ele>
        <time>2025-04-25T07:39:51.000Z</time>
      </trkpt>
      <trkpt lat="43.36576" lon="6.13384">
        <ele>359.87715</ele>
        <time>2025-04-25T07:39:51.000Z</time>
      </trkpt>
      <trkpt lat="43.36578" lon="6.13389">
        <ele>360.072985</ele>
        <time>2025-04-25T07:39:52.000Z</time>
      </trkpt>
      <trkpt lat="43.36578" lon="6.13389">
        <ele>360.072985</ele>
        <time>2025-04-25T07:39:52.000Z</time>
      </trkpt>
      <trkpt lat="43.3658" lon="6.13393">
        <ele>360.267388</ele>
        <time>2025-04-25T07:39:53.000Z</time>
      </trkpt>
      <trkpt lat="43.3658" lon="6.13393">
        <ele>360.267388</ele>
        <time>2025-04-25T07:39:53.000Z</time>
      </trkpt>
      <trkpt lat="43.36582" lon="6.13398">
        <ele>360.461792</ele>
        <time>2025-04-25T07:39:54.000Z</time>
      </trkpt>
      <trkpt lat="43.36582" lon="6.13398">
        <ele>360.461792</ele>
        <time>2025-04-25T07:39:54.000Z</time>
      </trkpt>
      <trkpt lat="43.36584" lon="6.13402">
        <ele>360.657627</ele>
        <time>2025-04-25T07:39:55.000Z</time>
      </trkpt>
      <trkpt lat="43.36584" lon="6.13402">
        <ele>360.657627</ele>
        <time>2025-04-25T07:39:55.000Z</time>
      </trkpt>
      <trkpt lat="43.36586" lon="6.13408">
        <ele>360.879282</ele>
        <time>2025-04-25T07:39:56.000Z</time>
      </trkpt>
      <trkpt lat="43.36586" lon="6.13408">
        <ele>360.879282</ele>
        <time>2025-04-25T07:39:56.000Z</time>
      </trkpt>
      <trkpt lat="43.36588" lon="6.13412">
        <ele>361.059085</ele>
        <time>2025-04-25T07:39:57.000Z</time>
      </trkpt>
      <trkpt lat="43.36588" lon="6.13412">
        <ele>361.059085</ele>
        <time>2025-04-25T07:39:57.000Z</time>
      </trkpt>
      <trkpt lat="43.36589" lon="6.13417">
        <ele>361.259428</ele>
        <time>2025-04-25T07:39:58.000Z</time>
      </trkpt>
      <trkpt lat="43.36589" lon="6.13417">
        <ele>361.259428</ele>
        <time>2025-04-25T07:39:58.000Z</time>
      </trkpt>
      <trkpt lat="43.3659" lon="6.13421">
        <ele>361.396511</ele>
        <time>2025-04-25T07:39:59.000Z</time>
      </trkpt>
      <trkpt lat="43.3659" lon="6.13421">
        <ele>361.396511</ele>
        <time>2025-04-25T07:39:59.000Z</time>
      </trkpt>
      <trkpt lat="43.36591" lon="6.13425">
        <ele>361.540576</ele>
        <time>2025-04-25T07:40:00.000Z</time>
      </trkpt>
      <trkpt lat="43.36591" lon="6.13425">
        <ele>361.540576</ele>
        <time>2025-04-25T07:40:00.000Z</time>
      </trkpt>
      <trkpt lat="43.36591" lon="6.13428">
        <ele>361.671672</ele>
        <time>2025-04-25T07:40:01.000Z</time>
      </trkpt>
      <trkpt lat="43.36591" lon="6.13428">
        <ele>361.671672</ele>
        <time>2025-04-25T07:40:01.000Z</time>
      </trkpt>
      <trkpt lat="43.3659" lon="6.13431">
        <ele>361.772014</ele>
        <time>2025-04-25T07:40:02.000Z</time>
      </trkpt>
      <trkpt lat="43.3659" lon="6.13431">
        <ele>361.772014</ele>
        <time>2025-04-25T07:40:02.000Z</time>
      </trkpt>
      <trkpt lat="43.36589" lon="6.13433">
        <ele>361.875107</ele>
        <time>2025-04-25T07:40:03.000Z</time>
      </trkpt>
      <trkpt lat="43.36589" lon="6.13433">
        <ele>361.875107</ele>
        <time>2025-04-25T07:40:03.000Z</time>
      </trkpt>
      <trkpt lat="43.36588" lon="6.13436">
        <ele>362.007698</ele>
        <time>2025-04-25T07:40:04.000Z</time>
      </trkpt>
      <trkpt lat="43.36588" lon="6.13436">
        <ele>362.007698</ele>
        <time>2025-04-25T07:40:04.000Z</time>
      </trkpt>
      <trkpt lat="43.36586" lon="6.1344">
        <ele>362.163863</ele>
        <time>2025-04-25T07:40:05.000Z</time>
      </trkpt>
      <trkpt lat="43.36584" lon="6.13444">
        <ele>362.334825</ele>
        <time>2025-04-25T07:40:06.000Z</time>
      </trkpt>
      <trkpt lat="43.36582" lon="6.13447">
        <ele>362.485926</ele>
        <time>2025-04-25T07:40:07.000Z</time>
      </trkpt>
      <trkpt lat="43.36582" lon="6.13447">
        <ele>362.485926</ele>
        <time>2025-04-25T07:40:07.000Z</time>
      </trkpt>
      <trkpt lat="43.36581" lon="6.13453">
        <ele>362.691552</ele>
        <time>2025-04-25T07:40:08.000Z</time>
      </trkpt>
      <trkpt lat="43.3658" lon="6.13458">
        <ele>362.905653</ele>
        <time>2025-04-25T07:40:09.000Z</time>
      </trkpt>
      <trkpt lat="43.3658" lon="6.13458">
        <ele>362.905653</ele>
        <time>2025-04-25T07:40:09.000Z</time>
      </trkpt>
      <trkpt lat="43.3658" lon="6.13464">
        <ele>363.106339</ele>
        <time>2025-04-25T07:40:10.000Z</time>
      </trkpt>
      <trkpt lat="43.36579" lon="6.13468">
        <ele>363.249091</ele>
        <time>2025-04-25T07:40:11.000Z</time>
      </trkpt>
      <trkpt lat="43.36579" lon="6.13468">
        <ele>363.249091</ele>
        <time>2025-04-25T07:40:11.000Z</time>
      </trkpt>
      <trkpt lat="43.36579" lon="6.13468">
        <ele>363.249091</ele>
        <time>2025-04-25T07:40:12.000Z</time>
      </trkpt>
      <trkpt lat="43.36577" lon="6.13476">
        <ele>363.571205</ele>
        <time>2025-04-25T07:40:13.000Z</time>
      </trkpt>
      <trkpt lat="43.36575" lon="6.13477">
        <ele>363.668874</ele>
        <time>2025-04-25T07:40:14.000Z</time>
      </trkpt>
      <trkpt lat="43.36575" lon="6.13477">
        <ele>363.668874</ele>
        <time>2025-04-25T07:40:14.000Z</time>
      </trkpt>
      <trkpt lat="43.36573" lon="6.13479">
        <ele>363.806696</ele>
        <time>2025-04-25T07:40:15.000Z</time>
      </trkpt>
      <trkpt lat="43.36571" lon="6.1348">
        <ele>363.985488</ele>
        <time>2025-04-25T07:40:16.000Z</time>
      </trkpt>
      <trkpt lat="43.36571" lon="6.1348">
        <ele>363.985488</ele>
        <time>2025-04-25T07:40:16.000Z</time>
      </trkpt>
      <trkpt lat="43.36569" lon="6.1348">
        <ele>364.128898</ele>
        <time>2025-04-25T07:40:17.000Z</time>
      </trkpt>
      <trkpt lat="43.36565" lon="6.13481">
        <ele>364.355048</ele>
        <time>2025-04-25T07:40:18.000Z</time>
      </trkpt>
      <trkpt lat="43.36565" lon="6.13481">
        <ele>364.355048</ele>
        <time>2025-04-25T07:40:18.000Z</time>
      </trkpt>
      <trkpt lat="43.36561" lon="6.13482">
        <ele>364.626166</ele>
        <time>2025-04-25T07:40:19.000Z</time>
      </trkpt>
      <trkpt lat="43.36561" lon="6.13482">
        <ele>364.626166</ele>
        <time>2025-04-25T07:40:19.000Z</time>
      </trkpt>
      <trkpt lat="43.36558" lon="6.13483">
        <ele>364.8225</ele>
        <time>2025-04-25T07:40:20.000Z</time>
      </trkpt>
      <trkpt lat="43.36558" lon="6.13483">
        <ele>364.8225</ele>
        <time>2025-04-25T07:40:20.000Z</time>
      </trkpt>
      <trkpt lat="43.36554" lon="6.13484">
        <ele>365.061427</ele>
        <time>2025-04-25T07:40:21.000Z</time>
      </trkpt>
      <trkpt lat="43.36554" lon="6.13484">
        <ele>365.061427</ele>
        <time>2025-04-25T07:40:21.000Z</time>
      </trkpt>
      <trkpt lat="43.36552" lon="6.13487">
        <ele>365.243249</ele>
        <time>2025-04-25T07:40:22.000Z</time>
      </trkpt>
      <trkpt lat="43.36552" lon="6.13487">
        <ele>365.243249</ele>
        <time>2025-04-25T07:40:22.000Z</time>
      </trkpt>
      <trkpt lat="43.36551" lon="6.13489">
        <ele>365.376826</ele>
        <time>2025-04-25T07:40:23.000Z</time>
      </trkpt>
      <trkpt lat="43.36551" lon="6.13489">
        <ele>365.376826</ele>
        <time>2025-04-25T07:40:23.000Z</time>
      </trkpt>
      <trkpt lat="43.36549" lon="6.13491">
        <ele>365.551503</ele>
        <time>2025-04-25T07:40:24.000Z</time>
      </trkpt>
      <trkpt lat="43.36549" lon="6.13491">
        <ele>365.551503</ele>
        <time>2025-04-25T07:40:24.000Z</time>
      </trkpt>
      <trkpt lat="43.36547" lon="6.13493">
        <ele>365.701704</ele>
        <time>2025-04-25T07:40:25.000Z</time>
      </trkpt>
      <trkpt lat="43.36547" lon="6.13493">
        <ele>365.701704</ele>
        <time>2025-04-25T07:40:25.000Z</time>
      </trkpt>
      <trkpt lat="43.36545" lon="6.13494">
        <ele>365.812659</ele>
        <time>2025-04-25T07:40:26.000Z</time>
      </trkpt>
      <trkpt lat="43.36545" lon="6.13494">
        <ele>365.812659</ele>
        <time>2025-04-25T07:40:26.000Z</time>
      </trkpt>
      <trkpt lat="43.36543" lon="6.13496">
        <ele>365.973481</ele>
        <time>2025-04-25T07:40:27.000Z</time>
      </trkpt>
      <trkpt lat="43.36543" lon="6.13496">
        <ele>365.973481</ele>
        <time>2025-04-25T07:40:27.000Z</time>
      </trkpt>
      <trkpt lat="43.36541" lon="6.13497">
        <ele>366.124103</ele>
        <time>2025-04-25T07:40:28.000Z</time>
      </trkpt>
      <trkpt lat="43.36541" lon="6.13497">
        <ele>366.124103</ele>
        <time>2025-04-25T07:40:28.000Z</time>
      </trkpt>
      <trkpt lat="43.36538" lon="6.13497">
        <ele>366.274726</ele>
        <time>2025-04-25T07:40:29.000Z</time>
      </trkpt>
      <trkpt lat="43.36538" lon="6.13497">
        <ele>366.274726</ele>
        <time>2025-04-25T07:40:29.000Z</time>
      </trkpt>
      <trkpt lat="43.36536" lon="6.13499">
        <ele>366.437485</ele>
        <time>2025-04-25T07:40:30.000Z</time>
      </trkpt>
      <trkpt lat="43.36536" lon="6.13499">
        <ele>366.437485</ele>
        <time>2025-04-25T07:40:30.000Z</time>
      </trkpt>
      <trkpt lat="43.36534" lon="6.13501">
        <ele>366.593335</ele>
        <time>2025-04-25T07:40:31.000Z</time>
      </trkpt>
      <trkpt lat="43.36534" lon="6.13501">
        <ele>366.593335</ele>
        <time>2025-04-25T07:40:31.000Z</time>
      </trkpt>
      <trkpt lat="43.36533" lon="6.13503">
        <ele>366.723718</ele>
        <time>2025-04-25T07:40:32.000Z</time>
      </trkpt>
      <trkpt lat="43.36533" lon="6.13503">
        <ele>366.723718</ele>
        <time>2025-04-25T07:40:32.000Z</time>
      </trkpt>
      <trkpt lat="43.3653" lon="6.13505">
        <ele>366.91706</ele>
        <time>2025-04-25T07:40:33.000Z</time>
      </trkpt>
      <trkpt lat="43.3653" lon="6.13505">
        <ele>366.91706</ele>
        <time>2025-04-25T07:40:33.000Z</time>
      </trkpt>
      <trkpt lat="43.36529" lon="6.13508">
        <ele>367.037379</ele>
        <time>2025-04-25T07:40:34.000Z</time>
      </trkpt>
      <trkpt lat="43.36529" lon="6.13508">
        <ele>367.037379</ele>
        <time>2025-04-25T07:40:34.000Z</time>
      </trkpt>
      <trkpt lat="43.36528" lon="6.1351">
        <ele>367.160112</ele>
        <time>2025-04-25T07:40:35.000Z</time>
      </trkpt>
      <trkpt lat="43.36528" lon="6.1351">
        <ele>367.160112</ele>
        <time>2025-04-25T07:40:35.000Z</time>
      </trkpt>
      <trkpt lat="43.36528" lon="6.13513">
        <ele>367.297323</ele>
        <time>2025-04-25T07:40:36.000Z</time>
      </trkpt>
      <trkpt lat="43.36528" lon="6.13513">
        <ele>367.297323</ele>
        <time>2025-04-25T07:40:36.000Z</time>
      </trkpt>
      <trkpt lat="43.36528" lon="6.13517">
        <ele>367.473967</ele>
        <time>2025-04-25T07:40:37.000Z</time>
      </trkpt>
      <trkpt lat="43.36528" lon="6.13517">
        <ele>367.473967</ele>
        <time>2025-04-25T07:40:37.000Z</time>
      </trkpt>
      <trkpt lat="43.36528" lon="6.13521">
        <ele>367.655258</ele>
        <time>2025-04-25T07:40:38.000Z</time>
      </trkpt>
      <trkpt lat="43.36529" lon="6.13526">
        <ele>367.893246</ele>
        <time>2025-04-25T07:40:39.000Z</time>
      </trkpt>
      <trkpt lat="43.36529" lon="6.13526">
        <ele>367.893246</ele>
        <time>2025-04-25T07:40:39.000Z</time>
      </trkpt>
      <trkpt lat="43.36529" lon="6.13531">
        <ele>368.153563</ele>
        <time>2025-04-25T07:40:40.000Z</time>
      </trkpt>
      <trkpt lat="43.36529" lon="6.13531">
        <ele>368.153563</ele>
        <time>2025-04-25T07:40:40.000Z</time>
      </trkpt>
      <trkpt lat="43.3653" lon="6.13536">
        <ele>368.396398</ele>
        <time>2025-04-25T07:40:41.000Z</time>
      </trkpt>
      <trkpt lat="43.36531" lon="6.13541">
        <ele>368.650006</ele>
        <time>2025-04-25T07:40:42.000Z</time>
      </trkpt>
      <trkpt lat="43.36531" lon="6.13541">
        <ele>368.650006</ele>
        <time>2025-04-25T07:40:42.000Z</time>
      </trkpt>
      <trkpt lat="43.36533" lon="6.13547">
        <ele>368.910062</ele>
        <time>2025-04-25T07:40:43.000Z</time>
      </trkpt>
      <trkpt lat="43.36534" lon="6.13551">
        <ele>369.130753</ele>
        <time>2025-04-25T07:40:44.000Z</time>
      </trkpt>
      <trkpt lat="43.36534" lon="6.13551">
        <ele>369.130753</ele>
        <time>2025-04-25T07:40:44.000Z</time>
      </trkpt>
      <trkpt lat="43.36535" lon="6.13554">
        <ele>369.306443</ele>
        <time>2025-04-25T07:40:45.000Z</time>
      </trkpt>
      <trkpt lat="43.36537" lon="6.13558">
        <ele>369.543513</ele>
        <time>2025-04-25T07:40:46.000Z</time>
      </trkpt>
      <trkpt lat="43.3654" lon="6.13562">
        <ele>369.776955</ele>
        <time>2025-04-25T07:40:47.000Z</time>
      </trkpt>
      <trkpt lat="43.3654" lon="6.13562">
        <ele>369.776955</ele>
        <time>2025-04-25T07:40:47.000Z</time>
      </trkpt>
      <trkpt lat="43.36542" lon="6.13565">
        <ele>369.968605</ele>
        <time>2025-04-25T07:40:48.000Z</time>
      </trkpt>
      <trkpt lat="43.36544" lon="6.13569">
        <ele>370.202047</ele>
        <time>2025-04-25T07:40:49.000Z</time>
      </trkpt>
      <trkpt lat="43.36544" lon="6.13569">
        <ele>370.202047</ele>
        <time>2025-04-25T07:40:49.000Z</time>
      </trkpt>
      <trkpt lat="43.36547" lon="6.13574">
        <ele>370.499091</ele>
        <time>2025-04-25T07:40:50.000Z</time>
      </trkpt>
      <trkpt lat="43.36549" lon="6.1358">
        <ele>370.827109</ele>
        <time>2025-04-25T07:40:51.000Z</time>
      </trkpt>
      <trkpt lat="43.36549" lon="6.1358">
        <ele>370.827109</ele>
        <time>2025-04-25T07:40:51.000Z</time>
      </trkpt>
      <trkpt lat="43.36551" lon="6.13585">
        <ele>371.069978</ele>
        <time>2025-04-25T07:40:52.000Z</time>
      </trkpt>
      <trkpt lat="43.36551" lon="6.13585">
        <ele>371.069978</ele>
        <time>2025-04-25T07:40:52.000Z</time>
      </trkpt>
      <trkpt lat="43.36552" lon="6.13589">
        <ele>371.287502</ele>
        <time>2025-04-25T07:40:53.000Z</time>
      </trkpt>
      <trkpt lat="43.36552" lon="6.13589">
        <ele>371.287502</ele>
        <time>2025-04-25T07:40:53.000Z</time>
      </trkpt>
      <trkpt lat="43.36554" lon="6.13594">
        <ele>371.523454</ele>
        <time>2025-04-25T07:40:54.000Z</time>
      </trkpt>
      <trkpt lat="43.36554" lon="6.13594">
        <ele>371.523454</ele>
        <time>2025-04-25T07:40:54.000Z</time>
      </trkpt>
      <trkpt lat="43.36554" lon="6.13598">
        <ele>371.723339</ele>
        <time>2025-04-25T07:40:55.000Z</time>
      </trkpt>
      <trkpt lat="43.36554" lon="6.13598">
        <ele>371.723339</ele>
        <time>2025-04-25T07:40:55.000Z</time>
      </trkpt>
      <trkpt lat="43.36554" lon="6.13604">
        <ele>371.983655</ele>
        <time>2025-04-25T07:40:56.000Z</time>
      </trkpt>
      <trkpt lat="43.36554" lon="6.13604">
        <ele>371.983655</ele>
        <time>2025-04-25T07:40:56.000Z</time>
      </trkpt>
      <trkpt lat="43.36552" lon="6.13609">
        <ele>372.228417</ele>
        <time>2025-04-25T07:40:57.000Z</time>
      </trkpt>
      <trkpt lat="43.36552" lon="6.13609">
        <ele>372.228417</ele>
        <time>2025-04-25T07:40:57.000Z</time>
      </trkpt>
      <trkpt lat="43.36551" lon="6.13614">
        <ele>372.466806</ele>
        <time>2025-04-25T07:40:59.000Z</time>
      </trkpt>
      <trkpt lat="43.36551" lon="6.13614">
        <ele>372.466806</ele>
        <time>2025-04-25T07:40:59.000Z</time>
      </trkpt>
      <trkpt lat="43.3655" lon="6.13619">
        <ele>372.724848</ele>
        <time>2025-04-25T07:40:59.000Z</time>
      </trkpt>
      <trkpt lat="43.3655" lon="6.13619">
        <ele>372.724848</ele>
        <time>2025-04-25T07:40:59.000Z</time>
      </trkpt>
      <trkpt lat="43.36549" lon="6.13624">
        <ele>372.95698</ele>
        <time>2025-04-25T07:41:01.000Z</time>
      </trkpt>
      <trkpt lat="43.36549" lon="6.13624">
        <ele>372.95698</ele>
        <time>2025-04-25T07:41:01.000Z</time>
      </trkpt>
      <trkpt lat="43.36548" lon="6.13629">
        <ele>373.215022</ele>
        <time>2025-04-25T07:41:02.000Z</time>
      </trkpt>
      <trkpt lat="43.36548" lon="6.13629">
        <ele>373.215022</ele>
        <time>2025-04-25T07:41:02.000Z</time>
      </trkpt>
      <trkpt lat="43.36548" lon="6.13634">
        <ele>373.456284</ele>
        <time>2025-04-25T07:41:03.000Z</time>
      </trkpt>
      <trkpt lat="43.36548" lon="6.13634">
        <ele>373.456284</ele>
        <time>2025-04-25T07:41:03.000Z</time>
      </trkpt>
      <trkpt lat="43.36547" lon="6.13639">
        <ele>373.676148</ele>
        <time>2025-04-25T07:41:04.000Z</time>
      </trkpt>
      <trkpt lat="43.36547" lon="6.13639">
        <ele>373.676148</ele>
        <time>2025-04-25T07:41:04.000Z</time>
      </trkpt>
      <trkpt lat="43.36545" lon="6.13644">
        <ele>373.914753</ele>
        <time>2025-04-25T07:41:04.000Z</time>
      </trkpt>
      <trkpt lat="43.36545" lon="6.13644">
        <ele>373.914753</ele>
        <time>2025-04-25T07:41:04.000Z</time>
      </trkpt>
      <trkpt lat="43.36544" lon="6.13648">
        <ele>374.128115</ele>
        <time>2025-04-25T07:41:06.000Z</time>
      </trkpt>
      <trkpt lat="43.36544" lon="6.13648">
        <ele>374.128115</ele>
        <time>2025-04-25T07:41:06.000Z</time>
      </trkpt>
      <trkpt lat="43.36543" lon="6.13652">
        <ele>374.320703</ele>
        <time>2025-04-25T07:41:07.000Z</time>
      </trkpt>
      <trkpt lat="43.36543" lon="6.13652">
        <ele>374.320703</ele>
        <time>2025-04-25T07:41:07.000Z</time>
      </trkpt>
      <trkpt lat="43.36541" lon="6.13655">
        <ele>374.517633</ele>
        <time>2025-04-25T07:41:07.000Z</time>
      </trkpt>
      <trkpt lat="43.36541" lon="6.13655">
        <ele>374.517633</ele>
        <time>2025-04-25T07:41:07.000Z</time>
      </trkpt>
      <trkpt lat="43.3654" lon="6.13659">
        <ele>374.688183</ele>
        <time>2025-04-25T07:41:08.000Z</time>
      </trkpt>
      <trkpt lat="43.3654" lon="6.13659">
        <ele>374.688183</ele>
        <time>2025-04-25T07:41:08.000Z</time>
      </trkpt>
      <trkpt lat="43.3654" lon="6.13662">
        <ele>374.839078</ele>
        <time>2025-04-25T07:41:09.000Z</time>
      </trkpt>
      <trkpt lat="43.3654" lon="6.13662">
        <ele>374.839078</ele>
        <time>2025-04-25T07:41:09.000Z</time>
      </trkpt>
      <trkpt lat="43.36538" lon="6.13666">
        <ele>375.023176</ele>
        <time>2025-04-25T07:41:10.000Z</time>
      </trkpt>
      <trkpt lat="43.36538" lon="6.13666">
        <ele>375.023176</ele>
        <time>2025-04-25T07:41:10.000Z</time>
      </trkpt>
      <trkpt lat="43.36537" lon="6.1367">
        <ele>375.112067</ele>
        <time>2025-04-25T07:41:11.000Z</time>
      </trkpt>
      <trkpt lat="43.36537" lon="6.1367">
        <ele>375.112067</ele>
        <time>2025-04-25T07:41:11.000Z</time>
      </trkpt>
      <trkpt lat="43.36537" lon="6.13674">
        <ele>375.159141</ele>
        <time>2025-04-25T07:41:12.000Z</time>
      </trkpt>
      <trkpt lat="43.36537" lon="6.13674">
        <ele>375.159141</ele>
        <time>2025-04-25T07:41:12.000Z</time>
      </trkpt>
      <trkpt lat="43.36536" lon="6.13678">
        <ele>375.217356</ele>
        <time>2025-04-25T07:41:13.000Z</time>
      </trkpt>
      <trkpt lat="43.36536" lon="6.13678">
        <ele>375.217356</ele>
        <time>2025-04-25T07:41:13.000Z</time>
      </trkpt>
      <trkpt lat="43.36535" lon="6.13683">
        <ele>375.278681</ele>
        <time>2025-04-25T07:41:14.000Z</time>
      </trkpt>
      <trkpt lat="43.36535" lon="6.13683">
        <ele>375.278681</ele>
        <time>2025-04-25T07:41:14.000Z</time>
      </trkpt>
      <trkpt lat="43.36533" lon="6.13689">
        <ele>375.358618</ele>
        <time>2025-04-25T07:41:15.000Z</time>
      </trkpt>
      <trkpt lat="43.36533" lon="6.13689">
        <ele>375.358618</ele>
        <time>2025-04-25T07:41:15.000Z</time>
      </trkpt>
      <trkpt lat="43.36532" lon="6.13694">
        <ele>375.42709</ele>
        <time>2025-04-25T07:41:16.000Z</time>
      </trkpt>
      <trkpt lat="43.36532" lon="6.13694">
        <ele>375.42709</ele>
        <time>2025-04-25T07:41:16.000Z</time>
      </trkpt>
      <trkpt lat="43.36532" lon="6.13699">
        <ele>375.490634</ele>
        <time>2025-04-25T07:41:17.000Z</time>
      </trkpt>
      <trkpt lat="43.36532" lon="6.13699">
        <ele>375.490634</ele>
        <time>2025-04-25T07:41:17.000Z</time>
      </trkpt>
      <trkpt lat="43.36531" lon="6.13705">
        <ele>375.560104</ele>
        <time>2025-04-25T07:41:18.000Z</time>
      </trkpt>
      <trkpt lat="43.36531" lon="6.13705">
        <ele>375.560104</ele>
        <time>2025-04-25T07:41:18.000Z</time>
      </trkpt>
      <trkpt lat="43.3653" lon="6.1371">
        <ele>375.631239</ele>
        <time>2025-04-25T07:41:19.000Z</time>
      </trkpt>
      <trkpt lat="43.3653" lon="6.1371">
        <ele>375.631239</ele>
        <time>2025-04-25T07:41:19.000Z</time>
      </trkpt>
      <trkpt lat="43.36529" lon="6.13714">
        <ele>375.684617</ele>
        <time>2025-04-25T07:41:20.000Z</time>
      </trkpt>
      <trkpt lat="43.36529" lon="6.13714">
        <ele>375.684617</ele>
        <time>2025-04-25T07:41:20.000Z</time>
      </trkpt>
      <trkpt lat="43.36528" lon="6.13719">
        <ele>375.743994</ele>
        <time>2025-04-25T07:41:21.000Z</time>
      </trkpt>
      <trkpt lat="43.36528" lon="6.13719">
        <ele>375.743994</ele>
        <time>2025-04-25T07:41:21.000Z</time>
      </trkpt>
      <trkpt lat="43.36527" lon="6.13722">
        <ele>375.791229</ele>
        <time>2025-04-25T07:41:22.000Z</time>
      </trkpt>
      <trkpt lat="43.36527" lon="6.13722">
        <ele>375.791229</ele>
        <time>2025-04-25T07:41:22.000Z</time>
      </trkpt>
      <trkpt lat="43.36526" lon="6.13726">
        <ele>375.842621</ele>
        <time>2025-04-25T07:41:23.000Z</time>
      </trkpt>
      <trkpt lat="43.36526" lon="6.13726">
        <ele>375.842621</ele>
        <time>2025-04-25T07:41:23.000Z</time>
      </trkpt>
      <trkpt lat="43.36525" lon="6.13729">
        <ele>375.879186</ele>
        <time>2025-04-25T07:41:24.000Z</time>
      </trkpt>
      <trkpt lat="43.36525" lon="6.13729">
        <ele>375.879186</ele>
        <time>2025-04-25T07:41:24.000Z</time>
      </trkpt>
      <trkpt lat="43.36525" lon="6.13729">
        <ele>375.879186</ele>
        <time>2025-04-25T07:41:25.000Z</time>
      </trkpt>
      <trkpt lat="43.36525" lon="6.13734">
        <ele>375.932564</ele>
        <time>2025-04-25T07:41:27.000Z</time>
      </trkpt>
      <trkpt lat="43.36525" lon="6.13734">
        <ele>375.932564</ele>
        <time>2025-04-25T07:41:27.000Z</time>
      </trkpt>
      <trkpt lat="43.36525" lon="6.13734">
        <ele>375.943713</ele>
        <time>2025-04-25T07:41:28.000Z</time>
      </trkpt>
      <trkpt lat="43.36525" lon="6.13734">
        <ele>375.943713</ele>
        <time>2025-04-25T07:41:28.000Z</time>
      </trkpt>
      <trkpt lat="43.36524" lon="6.13736">
        <ele>375.970912</ele>
        <time>2025-04-25T07:41:28.000Z</time>
      </trkpt>
      <trkpt lat="43.36524" lon="6.13736">
        <ele>375.970912</ele>
        <time>2025-04-25T07:41:28.000Z</time>
      </trkpt>
      <trkpt lat="43.36523" lon="6.13739">
        <ele>376.002623</ele>
        <time>2025-04-25T07:41:30.000Z</time>
      </trkpt>
      <trkpt lat="43.36523" lon="6.13741">
        <ele>376.028637</ele>
        <time>2025-04-25T07:41:31.000Z</time>
      </trkpt>
      <trkpt lat="43.36523" lon="6.13741">
        <ele>376.028637</ele>
        <time>2025-04-25T07:41:31.000Z</time>
      </trkpt>
      <trkpt lat="43.36523" lon="6.13741">
        <ele>376.028637</ele>
        <time>2025-04-25T07:41:31.000Z</time>
      </trkpt>
      <trkpt lat="43.36525" lon="6.13743">
        <ele>376.070956</ele>
        <time>2025-04-25T07:41:32.000Z</time>
      </trkpt>
      <trkpt lat="43.36526" lon="6.13743">
        <ele>376.077772</ele>
        <time>2025-04-25T07:41:33.000Z</time>
      </trkpt>
      <trkpt lat="43.36527" lon="6.13743">
        <ele>376.098257</ele>
        <time>2025-04-25T07:41:34.000Z</time>
      </trkpt>
      <trkpt lat="43.36527" lon="6.13743">
        <ele>376.098257</ele>
        <time>2025-04-25T07:41:34.000Z</time>
      </trkpt>
      <trkpt lat="43.36529" lon="6.13744">
        <ele>376.130845</ele>
        <time>2025-04-25T07:41:35.000Z</time>
      </trkpt>
      <trkpt lat="43.36531" lon="6.13744">
        <ele>376.170056</ele>
        <time>2025-04-25T07:41:36.000Z</time>
      </trkpt>
      <trkpt lat="43.36533" lon="6.13744">
        <ele>376.209423</ele>
        <time>2025-04-25T07:41:37.000Z</time>
      </trkpt>
      <trkpt lat="43.36535" lon="6.13745">
        <ele>376.242641</ele>
        <time>2025-04-25T07:41:38.000Z</time>
      </trkpt>
      <trkpt lat="43.36537" lon="6.13745">
        <ele>376.276157</ele>
        <time>2025-04-25T07:41:40.000Z</time>
      </trkpt>
      <trkpt lat="43.36538" lon="6.13747">
        <ele>376.298238</ele>
        <time>2025-04-25T07:41:41.000Z</time>
      </trkpt>
      <trkpt lat="43.36538" lon="6.13747">
        <ele>376.298238</ele>
        <time>2025-04-25T07:41:41.000Z</time>
      </trkpt>
      <trkpt lat="43.36539" lon="6.1375">
        <ele>376.343687</ele>
        <time>2025-04-25T07:41:41.000Z</time>
      </trkpt>
      <trkpt lat="43.36543" lon="6.13752">
        <ele>376.510591</ele>
        <time>2025-04-25T07:41:50.000Z</time>
      </trkpt>
      <trkpt lat="43.36543" lon="6.13749">
        <ele>376.549015</ele>
        <time>2025-04-25T07:41:50.000Z</time>
      </trkpt>
      <trkpt lat="43.36544" lon="6.13745">
        <ele>376.591599</ele>
        <time>2025-04-25T07:41:52.000Z</time>
      </trkpt>
      <trkpt lat="43.36544" lon="6.13742">
        <ele>376.634265</ele>
        <time>2025-04-25T07:41:53.000Z</time>
      </trkpt>
      <trkpt lat="43.36545" lon="6.13737">
        <ele>376.692885</ele>
        <time>2025-04-25T07:41:54.000Z</time>
      </trkpt>
      <trkpt lat="43.36545" lon="6.13737">
        <ele>376.692885</ele>
        <time>2025-04-25T07:41:54.000Z</time>
      </trkpt>
      <trkpt lat="43.36546" lon="6.13732">
        <ele>376.763582</ele>
        <time>2025-04-25T07:41:54.000Z</time>
      </trkpt>
      <trkpt lat="43.36547" lon="6.13725">
        <ele>376.843844</ele>
        <time>2025-04-25T07:41:55.000Z</time>
      </trkpt>
      <trkpt lat="43.36548" lon="6.13719">
        <ele>376.91941</ele>
        <time>2025-04-25T07:41:57.000Z</time>
      </trkpt>
      <trkpt lat="43.36548" lon="6.13719">
        <ele>376.91941</ele>
        <time>2025-04-25T07:41:57.000Z</time>
      </trkpt>
      <trkpt lat="43.36549" lon="6.13713">
        <ele>376.998467</ele>
        <time>2025-04-25T07:41:58.000Z</time>
      </trkpt>
      <trkpt lat="43.3655" lon="6.13707">
        <ele>377.077946</ele>
        <time>2025-04-25T07:41:59.000Z</time>
      </trkpt>
      <trkpt lat="43.3655" lon="6.13707">
        <ele>377.077946</ele>
        <time>2025-04-25T07:41:59.000Z</time>
      </trkpt>
      <trkpt lat="43.36551" lon="6.137">
        <ele>377.171512</ele>
        <time>2025-04-25T07:41:59.000Z</time>
      </trkpt>
      <trkpt lat="43.36552" lon="6.13692">
        <ele>377.267506</ele>
        <time>2025-04-25T07:42:00.000Z</time>
      </trkpt>
      <trkpt lat="43.36552" lon="6.13692">
        <ele>377.267506</ele>
        <time>2025-04-25T07:42:00.000Z</time>
      </trkpt>
      <trkpt lat="43.36553" lon="6.13685">
        <ele>377.361427</ele>
        <time>2025-04-25T07:42:02.000Z</time>
      </trkpt>
      <trkpt lat="43.36553" lon="6.13685">
        <ele>377.361427</ele>
        <time>2025-04-25T07:42:02.000Z</time>
      </trkpt>
      <trkpt lat="43.36554" lon="6.13677">
        <ele>377.454993</ele>
        <time>2025-04-25T07:42:02.000Z</time>
      </trkpt>
      <trkpt lat="43.36554" lon="6.13677">
        <ele>377.454993</ele>
        <time>2025-04-25T07:42:02.000Z</time>
      </trkpt>
      <trkpt lat="43.36556" lon="6.1367">
        <ele>377.55338</ele>
        <time>2025-04-25T07:42:04.000Z</time>
      </trkpt>
      <trkpt lat="43.36556" lon="6.1367">
        <ele>377.55338</ele>
        <time>2025-04-25T07:42:04.000Z</time>
      </trkpt>
      <trkpt lat="43.36558" lon="6.13663">
        <ele>377.647704</ele>
        <time>2025-04-25T07:42:04.000Z</time>
      </trkpt>
      <trkpt lat="43.36558" lon="6.13663">
        <ele>377.647704</ele>
        <time>2025-04-25T07:42:04.000Z</time>
      </trkpt>
      <trkpt lat="43.3656" lon="6.13655">
        <ele>377.746454</ele>
        <time>2025-04-25T07:42:05.000Z</time>
      </trkpt>
      <trkpt lat="43.3656" lon="6.13655">
        <ele>377.746454</ele>
        <time>2025-04-25T07:42:05.000Z</time>
      </trkpt>
      <trkpt lat="43.36561" lon="6.13646">
        <ele>377.853404</ele>
        <time>2025-04-25T07:42:07.000Z</time>
      </trkpt>
      <trkpt lat="43.36561" lon="6.13646">
        <ele>377.853404</ele>
        <time>2025-04-25T07:42:07.000Z</time>
      </trkpt>
      <trkpt lat="43.36562" lon="6.13638">
        <ele>377.958235</ele>
        <time>2025-04-25T07:42:08.000Z</time>
      </trkpt>
      <trkpt lat="43.36562" lon="6.13638">
        <ele>377.958235</ele>
        <time>2025-04-25T07:42:08.000Z</time>
      </trkpt>
      <trkpt lat="43.36564" lon="6.1363">
        <ele>378.06298</ele>
        <time>2025-04-25T07:42:08.000Z</time>
      </trkpt>
      <trkpt lat="43.36564" lon="6.1363">
        <ele>378.06298</ele>
        <time>2025-04-25T07:42:08.000Z</time>
      </trkpt>
      <trkpt lat="43.36565" lon="6.13621">
        <ele>377.926205</ele>
        <time>2025-04-25T07:42:10.000Z</time>
      </trkpt>
      <trkpt lat="43.36565" lon="6.13621">
        <ele>377.926205</ele>
        <time>2025-04-25T07:42:10.000Z</time>
      </trkpt>
      <trkpt lat="43.36568" lon="6.13613">
        <ele>377.464363</ele>
        <time>2025-04-25T07:42:11.000Z</time>
      </trkpt>
      <trkpt lat="43.36568" lon="6.13613">
        <ele>377.464363</ele>
        <time>2025-04-25T07:42:11.000Z</time>
      </trkpt>
      <trkpt lat="43.36571" lon="6.13605">
        <ele>377.019628</ele>
        <time>2025-04-25T07:42:11.000Z</time>
      </trkpt>
      <trkpt lat="43.36571" lon="6.13605">
        <ele>377.019628</ele>
        <time>2025-04-25T07:42:11.000Z</time>
      </trkpt>
      <trkpt lat="43.36573" lon="6.13598">
        <ele>376.576548</ele>
        <time>2025-04-25T07:42:13.000Z</time>
      </trkpt>
      <trkpt lat="43.36573" lon="6.13598">
        <ele>376.576548</ele>
        <time>2025-04-25T07:42:13.000Z</time>
      </trkpt>
      <trkpt lat="43.36575" lon="6.1359">
        <ele>376.174679</ele>
        <time>2025-04-25T07:42:14.000Z</time>
      </trkpt>
      <trkpt lat="43.36575" lon="6.1359">
        <ele>376.174679</ele>
        <time>2025-04-25T07:42:14.000Z</time>
      </trkpt>
      <trkpt lat="43.36577" lon="6.13584">
        <ele>375.826162</ele>
        <time>2025-04-25T07:42:14.000Z</time>
      </trkpt>
      <trkpt lat="43.36577" lon="6.13584">
        <ele>375.826162</ele>
        <time>2025-04-25T07:42:14.000Z</time>
      </trkpt>
      <trkpt lat="43.36579" lon="6.13576">
        <ele>375.412119</ele>
        <time>2025-04-25T07:42:16.000Z</time>
      </trkpt>
      <trkpt lat="43.36579" lon="6.13576">
        <ele>375.412119</ele>
        <time>2025-04-25T07:42:16.000Z</time>
      </trkpt>
      <trkpt lat="43.36581" lon="6.13567">
        <ele>374.915081</ele>
        <time>2025-04-25T07:42:17.000Z</time>
      </trkpt>
      <trkpt lat="43.36581" lon="6.13567">
        <ele>374.915081</ele>
        <time>2025-04-25T07:42:17.000Z</time>
      </trkpt>
      <trkpt lat="43.36583" lon="6.13559">
        <ele>374.445009</ele>
        <time>2025-04-25T07:42:18.000Z</time>
      </trkpt>
      <trkpt lat="43.36583" lon="6.13559">
        <ele>374.445009</ele>
        <time>2025-04-25T07:42:18.000Z</time>
      </trkpt>
      <trkpt lat="43.36586" lon="6.13551">
        <ele>374.013554</ele>
        <time>2025-04-25T07:42:19.000Z</time>
      </trkpt>
      <trkpt lat="43.36586" lon="6.13551">
        <ele>374.013554</ele>
        <time>2025-04-25T07:42:19.000Z</time>
      </trkpt>
      <trkpt lat="43.36588" lon="6.13543">
        <ele>373.582098</ele>
        <time>2025-04-25T07:42:20.000Z</time>
      </trkpt>
      <trkpt lat="43.36588" lon="6.13543">
        <ele>373.582098</ele>
        <time>2025-04-25T07:42:20.000Z</time>
      </trkpt>
      <trkpt lat="43.3659" lon="6.13537">
        <ele>373.242904</ele>
        <time>2025-04-25T07:42:21.000Z</time>
      </trkpt>
      <trkpt lat="43.3659" lon="6.13537">
        <ele>373.242904</ele>
        <time>2025-04-25T07:42:21.000Z</time>
      </trkpt>
      <trkpt lat="43.36591" lon="6.13532">
        <ele>372.918955</ele>
        <time>2025-04-25T07:42:22.000Z</time>
      </trkpt>
      <trkpt lat="43.36591" lon="6.13532">
        <ele>372.918955</ele>
        <time>2025-04-25T07:42:22.000Z</time>
      </trkpt>
      <trkpt lat="43.36593" lon="6.13524">
        <ele>372.498905</ele>
        <time>2025-04-25T07:42:23.000Z</time>
      </trkpt>
      <trkpt lat="43.36593" lon="6.13524">
        <ele>372.498905</ele>
        <time>2025-04-25T07:42:23.000Z</time>
      </trkpt>
      <trkpt lat="43.36594" lon="6.13516">
        <ele>372.097276</ele>
        <time>2025-04-25T07:42:24.000Z</time>
      </trkpt>
      <trkpt lat="43.36594" lon="6.13516">
        <ele>372.097276</ele>
        <time>2025-04-25T07:42:24.000Z</time>
      </trkpt>
      <trkpt lat="43.36596" lon="6.13506">
        <ele>371.568071</ele>
        <time>2025-04-25T07:42:24.000Z</time>
      </trkpt>
      <trkpt lat="43.36596" lon="6.13506">
        <ele>371.568071</ele>
        <time>2025-04-25T07:42:24.000Z</time>
      </trkpt>
      <trkpt lat="43.36597" lon="6.13497">
        <ele>371.07853</ele>
        <time>2025-04-25T07:42:26.000Z</time>
      </trkpt>
      <trkpt lat="43.36597" lon="6.13497">
        <ele>371.07853</ele>
        <time>2025-04-25T07:42:26.000Z</time>
      </trkpt>
      <trkpt lat="43.36598" lon="6.13487">
        <ele>370.559468</ele>
        <time>2025-04-25T07:42:27.000Z</time>
      </trkpt>
      <trkpt lat="43.36598" lon="6.13487">
        <ele>370.559468</ele>
        <time>2025-04-25T07:42:27.000Z</time>
      </trkpt>
      <trkpt lat="43.36599" lon="6.13479">
        <ele>370.1512</ele>
        <time>2025-04-25T07:42:27.000Z</time>
      </trkpt>
      <trkpt lat="43.36599" lon="6.13479">
        <ele>370.1512</ele>
        <time>2025-04-25T07:42:27.000Z</time>
      </trkpt>
      <trkpt lat="43.36599" lon="6.13475">
        <ele>369.912788</ele>
        <time>2025-04-25T07:42:29.000Z</time>
      </trkpt>
      <trkpt lat="43.36599" lon="6.13475">
        <ele>369.912788</ele>
        <time>2025-04-25T07:42:29.000Z</time>
      </trkpt>
      <trkpt lat="43.36598" lon="6.1347">
        <ele>369.682966</ele>
        <time>2025-04-25T07:42:30.000Z</time>
      </trkpt>
      <trkpt lat="43.36598" lon="6.1347">
        <ele>369.682966</ele>
        <time>2025-04-25T07:42:30.000Z</time>
      </trkpt>
      <trkpt lat="43.36598" lon="6.13467">
        <ele>369.53507</ele>
        <time>2025-04-25T07:42:31.000Z</time>
      </trkpt>
      <trkpt lat="43.36598" lon="6.13467">
        <ele>369.53507</ele>
        <time>2025-04-25T07:42:31.000Z</time>
      </trkpt>
      <trkpt lat="43.36597" lon="6.13465">
        <ele>369.424672</ele>
        <time>2025-04-25T07:42:32.000Z</time>
      </trkpt>
      <trkpt lat="43.36597" lon="6.13465">
        <ele>369.424672</ele>
        <time>2025-04-25T07:42:32.000Z</time>
      </trkpt>
      <trkpt lat="43.36595" lon="6.13462">
        <ele>369.191446</ele>
        <time>2025-04-25T07:42:32.000Z</time>
      </trkpt>
      <trkpt lat="43.36595" lon="6.13462">
        <ele>369.191446</ele>
        <time>2025-04-25T07:42:32.000Z</time>
      </trkpt>
      <trkpt lat="43.36592" lon="6.13459">
        <ele>368.940712</ele>
        <time>2025-04-25T07:42:34.000Z</time>
      </trkpt>
      <trkpt lat="43.36592" lon="6.13459">
        <ele>368.940712</ele>
        <time>2025-04-25T07:42:34.000Z</time>
      </trkpt>
      <trkpt lat="43.36589" lon="6.13455">
        <ele>368.631633</ele>
        <time>2025-04-25T07:42:35.000Z</time>
      </trkpt>
      <trkpt lat="43.36589" lon="6.13455">
        <ele>368.631633</ele>
        <time>2025-04-25T07:42:35.000Z</time>
      </trkpt>
      <trkpt lat="43.36585" lon="6.13453">
        <ele>368.340335</ele>
        <time>2025-04-25T07:42:36.000Z</time>
      </trkpt>
      <trkpt lat="43.36585" lon="6.13453">
        <ele>368.340335</ele>
        <time>2025-04-25T07:42:36.000Z</time>
      </trkpt>
      <trkpt lat="43.36582" lon="6.13449">
        <ele>368.037578</ele>
        <time>2025-04-25T07:42:36.000Z</time>
      </trkpt>
      <trkpt lat="43.36582" lon="6.13449">
        <ele>368.037578</ele>
        <time>2025-04-25T07:42:36.000Z</time>
      </trkpt>
      <trkpt lat="43.3658" lon="6.13445">
        <ele>367.798543</ele>
        <time>2025-04-25T07:42:37.000Z</time>
      </trkpt>
      <trkpt lat="43.3658" lon="6.13445">
        <ele>367.798543</ele>
        <time>2025-04-25T07:42:37.000Z</time>
      </trkpt>
      <trkpt lat="43.36578" lon="6.1344">
        <ele>367.496907</ele>
        <time>2025-04-25T07:42:39.000Z</time>
      </trkpt>
      <trkpt lat="43.36578" lon="6.1344">
        <ele>367.496907</ele>
        <time>2025-04-25T07:42:39.000Z</time>
      </trkpt>
      <trkpt lat="43.36576" lon="6.13435">
        <ele>367.181301</ele>
        <time>2025-04-25T07:42:39.000Z</time>
      </trkpt>
      <trkpt lat="43.36576" lon="6.13435">
        <ele>367.181301</ele>
        <time>2025-04-25T07:42:39.000Z</time>
      </trkpt>
      <trkpt lat="43.36574" lon="6.13429">
        <ele>366.829745</ele>
        <time>2025-04-25T07:42:40.000Z</time>
      </trkpt>
      <trkpt lat="43.36574" lon="6.13429">
        <ele>366.829745</ele>
        <time>2025-04-25T07:42:40.000Z</time>
      </trkpt>
      <trkpt lat="43.36571" lon="6.13423">
        <ele>366.481473</ele>
        <time>2025-04-25T07:42:42.000Z</time>
      </trkpt>
      <trkpt lat="43.36571" lon="6.13423">
        <ele>366.481473</ele>
        <time>2025-04-25T07:42:42.000Z</time>
      </trkpt>
      <trkpt lat="43.36568" lon="6.13417">
        <ele>366.103324</ele>
        <time>2025-04-25T07:42:42.000Z</time>
      </trkpt>
      <trkpt lat="43.36568" lon="6.13417">
        <ele>366.103324</ele>
        <time>2025-04-25T07:42:42.000Z</time>
      </trkpt>
      <trkpt lat="43.36564" lon="6.13411">
        <ele>365.683023</ele>
        <time>2025-04-25T07:42:43.000Z</time>
      </trkpt>
      <trkpt lat="43.36564" lon="6.13411">
        <ele>365.683023</ele>
        <time>2025-04-25T07:42:43.000Z</time>
      </trkpt>
      <trkpt lat="43.36561" lon="6.13405">
        <ele>365.285299</ele>
        <time>2025-04-25T07:42:45.000Z</time>
      </trkpt>
      <trkpt lat="43.36561" lon="6.13405">
        <ele>365.285299</ele>
        <time>2025-04-25T07:42:45.000Z</time>
      </trkpt>
      <trkpt lat="43.36559" lon="6.13397">
        <ele>364.946155</ele>
        <time>2025-04-25T07:42:45.000Z</time>
      </trkpt>
      <trkpt lat="43.36559" lon="6.13397">
        <ele>364.946155</ele>
        <time>2025-04-25T07:42:45.000Z</time>
      </trkpt>
      <trkpt lat="43.36557" lon="6.1339">
        <ele>364.63318</ele>
        <time>2025-04-25T07:42:46.000Z</time>
      </trkpt>
      <trkpt lat="43.36557" lon="6.1339">
        <ele>364.63318</ele>
        <time>2025-04-25T07:42:46.000Z</time>
      </trkpt>
      <trkpt lat="43.36557" lon="6.13382">
        <ele>364.343926</ele>
        <time>2025-04-25T07:42:47.000Z</time>
      </trkpt>
      <trkpt lat="43.36557" lon="6.13382">
        <ele>364.343926</ele>
        <time>2025-04-25T07:42:47.000Z</time>
      </trkpt>
      <trkpt lat="43.36557" lon="6.13375">
        <ele>364.025365</ele>
        <time>2025-04-25T07:42:49.000Z</time>
      </trkpt>
      <trkpt lat="43.36557" lon="6.13375">
        <ele>364.025365</ele>
        <time>2025-04-25T07:42:49.000Z</time>
      </trkpt>
      <trkpt lat="43.36556" lon="6.13367">
        <ele>363.717652</ele>
        <time>2025-04-25T07:42:50.000Z</time>
      </trkpt>
      <trkpt lat="43.36556" lon="6.13367">
        <ele>363.717652</ele>
        <time>2025-04-25T07:42:50.000Z</time>
      </trkpt>
      <trkpt lat="43.36554" lon="6.1336">
        <ele>363.432575</ele>
        <time>2025-04-25T07:42:51.000Z</time>
      </trkpt>
      <trkpt lat="43.36554" lon="6.1336">
        <ele>363.432575</ele>
        <time>2025-04-25T07:42:51.000Z</time>
      </trkpt>
      <trkpt lat="43.36554" lon="6.13352">
        <ele>363.092166</ele>
        <time>2025-04-25T07:42:52.000Z</time>
      </trkpt>
      <trkpt lat="43.36554" lon="6.13352">
        <ele>363.092166</ele>
        <time>2025-04-25T07:42:52.000Z</time>
      </trkpt>
      <trkpt lat="43.36554" lon="6.13345">
        <ele>362.806986</ele>
        <time>2025-04-25T07:42:53.000Z</time>
      </trkpt>
      <trkpt lat="43.36554" lon="6.13345">
        <ele>362.806986</ele>
        <time>2025-04-25T07:42:53.000Z</time>
      </trkpt>
      <trkpt lat="43.36555" lon="6.13339">
        <ele>362.543026</ele>
        <time>2025-04-25T07:42:54.000Z</time>
      </trkpt>
      <trkpt lat="43.36555" lon="6.13339">
        <ele>362.543026</ele>
        <time>2025-04-25T07:42:54.000Z</time>
      </trkpt>
      <trkpt lat="43.36556" lon="6.13333">
        <ele>362.28164</ele>
        <time>2025-04-25T07:42:54.000Z</time>
      </trkpt>
      <trkpt lat="43.36556" lon="6.13333">
        <ele>362.28164</ele>
        <time>2025-04-25T07:42:54.000Z</time>
      </trkpt>
      <trkpt lat="43.36557" lon="6.13326">
        <ele>362.00578</ele>
        <time>2025-04-25T07:42:56.000Z</time>
      </trkpt>
      <trkpt lat="43.36557" lon="6.13326">
        <ele>362.00578</ele>
        <time>2025-04-25T07:42:56.000Z</time>
      </trkpt>
      <trkpt lat="43.36558" lon="6.13319">
        <ele>361.728615</ele>
        <time>2025-04-25T07:42:57.000Z</time>
      </trkpt>
      <trkpt lat="43.36558" lon="6.13319">
        <ele>361.728615</ele>
        <time>2025-04-25T07:42:57.000Z</time>
      </trkpt>
      <trkpt lat="43.36558" lon="6.13313">
        <ele>361.459732</ele>
        <time>2025-04-25T07:42:58.000Z</time>
      </trkpt>
      <trkpt lat="43.36558" lon="6.13313">
        <ele>361.459732</ele>
        <time>2025-04-25T07:42:58.000Z</time>
      </trkpt>
      <trkpt lat="43.36558" lon="6.13305">
        <ele>361.137106</ele>
        <time>2025-04-25T07:42:59.000Z</time>
      </trkpt>
      <trkpt lat="43.36558" lon="6.13305">
        <ele>361.137106</ele>
        <time>2025-04-25T07:42:59.000Z</time>
      </trkpt>
      <trkpt lat="43.36557" lon="6.13296">
        <ele>360.769763</ele>
        <time>2025-04-25T07:42:59.000Z</time>
      </trkpt>
      <trkpt lat="43.36557" lon="6.13296">
        <ele>360.769763</ele>
        <time>2025-04-25T07:42:59.000Z</time>
      </trkpt>
      <trkpt lat="43.36557" lon="6.13287">
        <ele>360.410551</ele>
        <time>2025-04-25T07:43:01.000Z</time>
      </trkpt>
      <trkpt lat="43.36557" lon="6.13287">
        <ele>360.410551</ele>
        <time>2025-04-25T07:43:01.000Z</time>
      </trkpt>
      <trkpt lat="43.36557" lon="6.13279">
        <ele>360.059471</ele>
        <time>2025-04-25T07:43:02.000Z</time>
      </trkpt>
      <trkpt lat="43.36557" lon="6.13279">
        <ele>360.059471</ele>
        <time>2025-04-25T07:43:02.000Z</time>
      </trkpt>
      <trkpt lat="43.36558" lon="6.13271">
        <ele>359.742586</ele>
        <time>2025-04-25T07:43:03.000Z</time>
      </trkpt>
      <trkpt lat="43.36558" lon="6.13271">
        <ele>359.742586</ele>
        <time>2025-04-25T07:43:03.000Z</time>
      </trkpt>
      <trkpt lat="43.36559" lon="6.13263">
        <ele>359.43857</ele>
        <time>2025-04-25T07:43:04.000Z</time>
      </trkpt>
      <trkpt lat="43.36559" lon="6.13263">
        <ele>359.43857</ele>
        <time>2025-04-25T07:43:04.000Z</time>
      </trkpt>
      <trkpt lat="43.36559" lon="6.13256">
        <ele>359.120009</ele>
        <time>2025-04-25T07:43:05.000Z</time>
      </trkpt>
      <trkpt lat="43.36559" lon="6.13256">
        <ele>359.120009</ele>
        <time>2025-04-25T07:43:05.000Z</time>
      </trkpt>
      <trkpt lat="43.3656" lon="6.13249">
        <ele>358.86237</ele>
        <time>2025-04-25T07:43:06.000Z</time>
      </trkpt>
      <trkpt lat="43.3656" lon="6.13249">
        <ele>358.86237</ele>
        <time>2025-04-25T07:43:06.000Z</time>
      </trkpt>
      <trkpt lat="43.3656" lon="6.13242">
        <ele>358.560062</ele>
        <time>2025-04-25T07:43:07.000Z</time>
      </trkpt>
      <trkpt lat="43.3656" lon="6.13242">
        <ele>358.560062</ele>
        <time>2025-04-25T07:43:07.000Z</time>
      </trkpt>
      <trkpt lat="43.3656" lon="6.13235">
        <ele>358.262186</ele>
        <time>2025-04-25T07:43:08.000Z</time>
      </trkpt>
      <trkpt lat="43.3656" lon="6.13235">
        <ele>358.262186</ele>
        <time>2025-04-25T07:43:08.000Z</time>
      </trkpt>
      <trkpt lat="43.36561" lon="6.13227">
        <ele>357.943625</ele>
        <time>2025-04-25T07:43:09.000Z</time>
      </trkpt>
      <trkpt lat="43.36561" lon="6.13227">
        <ele>357.943625</ele>
        <time>2025-04-25T07:43:09.000Z</time>
      </trkpt>
      <trkpt lat="43.36561" lon="6.13219">
        <ele>357.608807</ele>
        <time>2025-04-25T07:43:10.000Z</time>
      </trkpt>
      <trkpt lat="43.36561" lon="6.13219">
        <ele>357.608807</ele>
        <time>2025-04-25T07:43:10.000Z</time>
      </trkpt>
      <trkpt lat="43.36562" lon="6.13211">
        <ele>357.290246</ele>
        <time>2025-04-25T07:43:11.000Z</time>
      </trkpt>
      <trkpt lat="43.36562" lon="6.13211">
        <ele>357.290246</ele>
        <time>2025-04-25T07:43:11.000Z</time>
      </trkpt>
      <trkpt lat="43.36562" lon="6.13203">
        <ele>356.959492</ele>
        <time>2025-04-25T07:43:12.000Z</time>
      </trkpt>
      <trkpt lat="43.36562" lon="6.13203">
        <ele>356.959492</ele>
        <time>2025-04-25T07:43:12.000Z</time>
      </trkpt>
      <trkpt lat="43.36562" lon="6.13195">
        <ele>356.658017</ele>
        <time>2025-04-25T07:43:13.000Z</time>
      </trkpt>
      <trkpt lat="43.36562" lon="6.13195">
        <ele>356.658017</ele>
        <time>2025-04-25T07:43:13.000Z</time>
      </trkpt>
      <trkpt lat="43.36562" lon="6.13188">
        <ele>356.363834</ele>
        <time>2025-04-25T07:43:14.000Z</time>
      </trkpt>
      <trkpt lat="43.36562" lon="6.13188">
        <ele>356.363834</ele>
        <time>2025-04-25T07:43:14.000Z</time>
      </trkpt>
      <trkpt lat="43.36561" lon="6.13181">
        <ele>356.06559</ele>
        <time>2025-04-25T07:43:15.000Z</time>
      </trkpt>
      <trkpt lat="43.36561" lon="6.13181">
        <ele>356.06559</ele>
        <time>2025-04-25T07:43:15.000Z</time>
      </trkpt>
      <trkpt lat="43.36561" lon="6.13174">
        <ele>355.788558</ele>
        <time>2025-04-25T07:43:16.000Z</time>
      </trkpt>
      <trkpt lat="43.36561" lon="6.13174">
        <ele>355.788558</ele>
        <time>2025-04-25T07:43:16.000Z</time>
      </trkpt>
      <trkpt lat="43.36561" lon="6.13167">
        <ele>355.502499</ele>
        <time>2025-04-25T07:43:17.000Z</time>
      </trkpt>
      <trkpt lat="43.36561" lon="6.13167">
        <ele>355.502499</ele>
        <time>2025-04-25T07:43:17.000Z</time>
      </trkpt>
      <trkpt lat="43.3656" lon="6.1316">
        <ele>355.202302</ele>
        <time>2025-04-25T07:43:18.000Z</time>
      </trkpt>
      <trkpt lat="43.3656" lon="6.1316">
        <ele>355.202302</ele>
        <time>2025-04-25T07:43:18.000Z</time>
      </trkpt>
      <trkpt lat="43.3656" lon="6.13153">
        <ele>354.952681</ele>
        <time>2025-04-25T07:43:19.000Z</time>
      </trkpt>
      <trkpt lat="43.3656" lon="6.13153">
        <ele>354.952681</ele>
        <time>2025-04-25T07:43:19.000Z</time>
      </trkpt>
      <trkpt lat="43.36561" lon="6.13146">
        <ele>354.687364</ele>
        <time>2025-04-25T07:43:20.000Z</time>
      </trkpt>
      <trkpt lat="43.36561" lon="6.13146">
        <ele>354.687364</ele>
        <time>2025-04-25T07:43:20.000Z</time>
      </trkpt>
      <trkpt lat="43.3656" lon="6.13137">
        <ele>354.373736</ele>
        <time>2025-04-25T07:43:21.000Z</time>
      </trkpt>
      <trkpt lat="43.3656" lon="6.13137">
        <ele>354.373736</ele>
        <time>2025-04-25T07:43:21.000Z</time>
      </trkpt>
      <trkpt lat="43.3656" lon="6.1313">
        <ele>354.108766</ele>
        <time>2025-04-25T07:43:22.000Z</time>
      </trkpt>
      <trkpt lat="43.3656" lon="6.1313">
        <ele>354.108766</ele>
        <time>2025-04-25T07:43:22.000Z</time>
      </trkpt>
      <trkpt lat="43.3656" lon="6.13123">
        <ele>353.832305</ele>
        <time>2025-04-25T07:43:23.000Z</time>
      </trkpt>
      <trkpt lat="43.3656" lon="6.13123">
        <ele>353.832305</ele>
        <time>2025-04-25T07:43:23.000Z</time>
      </trkpt>
      <trkpt lat="43.36559" lon="6.13115">
        <ele>353.544695</ele>
        <time>2025-04-25T07:43:24.000Z</time>
      </trkpt>
      <trkpt lat="43.36559" lon="6.13115">
        <ele>353.544695</ele>
        <time>2025-04-25T07:43:24.000Z</time>
      </trkpt>
      <trkpt lat="43.36559" lon="6.13108">
        <ele>353.268995</ele>
        <time>2025-04-25T07:43:25.000Z</time>
      </trkpt>
      <trkpt lat="43.36559" lon="6.13108">
        <ele>353.268995</ele>
        <time>2025-04-25T07:43:25.000Z</time>
      </trkpt>
      <trkpt lat="43.3656" lon="6.13099">
        <ele>352.947931</ele>
        <time>2025-04-25T07:43:26.000Z</time>
      </trkpt>
      <trkpt lat="43.3656" lon="6.13099">
        <ele>352.947931</ele>
        <time>2025-04-25T07:43:26.000Z</time>
      </trkpt>
      <trkpt lat="43.3656" lon="6.13092">
        <ele>352.677293</ele>
        <time>2025-04-25T07:43:27.000Z</time>
      </trkpt>
      <trkpt lat="43.3656" lon="6.13092">
        <ele>352.677293</ele>
        <time>2025-04-25T07:43:27.000Z</time>
      </trkpt>
      <trkpt lat="43.36562" lon="6.13084">
        <ele>352.37296</ele>
        <time>2025-04-25T07:43:28.000Z</time>
      </trkpt>
      <trkpt lat="43.36562" lon="6.13084">
        <ele>352.37296</ele>
        <time>2025-04-25T07:43:28.000Z</time>
      </trkpt>
      <trkpt lat="43.36564" lon="6.13078">
        <ele>352.094048</ele>
        <time>2025-04-25T07:43:29.000Z</time>
      </trkpt>
      <trkpt lat="43.36564" lon="6.13078">
        <ele>352.094048</ele>
        <time>2025-04-25T07:43:29.000Z</time>
      </trkpt>
      <trkpt lat="43.36567" lon="6.13071">
        <ele>351.791305</ele>
        <time>2025-04-25T07:43:30.000Z</time>
      </trkpt>
      <trkpt lat="43.36567" lon="6.13071">
        <ele>351.791305</ele>
        <time>2025-04-25T07:43:30.000Z</time>
      </trkpt>
      <trkpt lat="43.3657" lon="6.13065">
        <ele>351.5231</ele>
        <time>2025-04-25T07:43:31.000Z</time>
      </trkpt>
      <trkpt lat="43.3657" lon="6.13065">
        <ele>351.5231</ele>
        <time>2025-04-25T07:43:31.000Z</time>
      </trkpt>
      <trkpt lat="43.36572" lon="6.13059">
        <ele>351.272424</ele>
        <time>2025-04-25T07:43:32.000Z</time>
      </trkpt>
      <trkpt lat="43.36572" lon="6.13059">
        <ele>351.272424</ele>
        <time>2025-04-25T07:43:32.000Z</time>
      </trkpt>
      <trkpt lat="43.36573" lon="6.13053">
        <ele>351.045495</ele>
        <time>2025-04-25T07:43:33.000Z</time>
      </trkpt>
      <trkpt lat="43.36573" lon="6.13053">
        <ele>351.045495</ele>
        <time>2025-04-25T07:43:33.000Z</time>
      </trkpt>
      <trkpt lat="43.36574" lon="6.13046">
        <ele>350.795035</ele>
        <time>2025-04-25T07:43:34.000Z</time>
      </trkpt>
      <trkpt lat="43.36574" lon="6.13046">
        <ele>350.795035</ele>
        <time>2025-04-25T07:43:34.000Z</time>
      </trkpt>
      <trkpt lat="43.36574" lon="6.1304">
        <ele>350.563135</ele>
        <time>2025-04-25T07:43:34.000Z</time>
      </trkpt>
      <trkpt lat="43.36574" lon="6.1304">
        <ele>350.563135</ele>
        <time>2025-04-25T07:43:34.000Z</time>
      </trkpt>
      <trkpt lat="43.36575" lon="6.13035">
        <ele>350.368318</ele>
        <time>2025-04-25T07:43:35.000Z</time>
      </trkpt>
      <trkpt lat="43.36575" lon="6.13035">
        <ele>350.368318</ele>
        <time>2025-04-25T07:43:35.000Z</time>
      </trkpt>
      <trkpt lat="43.36577" lon="6.1303">
        <ele>350.18717</ele>
        <time>2025-04-25T07:43:36.000Z</time>
      </trkpt>
      <trkpt lat="43.36577" lon="6.1303">
        <ele>350.18717</ele>
        <time>2025-04-25T07:43:36.000Z</time>
      </trkpt>
      <trkpt lat="43.36578" lon="6.13027">
        <ele>350.015342</ele>
        <time>2025-04-25T07:43:37.000Z</time>
      </trkpt>
      <trkpt lat="43.36578" lon="6.13027">
        <ele>350.015342</ele>
        <time>2025-04-25T07:43:37.000Z</time>
      </trkpt>
      <trkpt lat="43.3658" lon="6.13023">
        <ele>349.855569</ele>
        <time>2025-04-25T07:43:39.000Z</time>
      </trkpt>
      <trkpt lat="43.3658" lon="6.13023">
        <ele>349.855569</ele>
        <time>2025-04-25T07:43:39.000Z</time>
      </trkpt>
      <trkpt lat="43.36582" lon="6.1302">
        <ele>349.704505</ele>
        <time>2025-04-25T07:43:39.000Z</time>
      </trkpt>
      <trkpt lat="43.36582" lon="6.1302">
        <ele>349.704505</ele>
        <time>2025-04-25T07:43:39.000Z</time>
      </trkpt>
      <trkpt lat="43.36584" lon="6.13017">
        <ele>349.556269</ele>
        <time>2025-04-25T07:43:41.000Z</time>
      </trkpt>
      <trkpt lat="43.36584" lon="6.13017">
        <ele>349.556269</ele>
        <time>2025-04-25T07:43:41.000Z</time>
      </trkpt>
      <trkpt lat="43.36587" lon="6.13014">
        <ele>349.366137</ele>
        <time>2025-04-25T07:43:42.000Z</time>
      </trkpt>
      <trkpt lat="43.36587" lon="6.13014">
        <ele>349.366137</ele>
        <time>2025-04-25T07:43:42.000Z</time>
      </trkpt>
      <trkpt lat="43.36589" lon="6.13011">
        <ele>349.207379</ele>
        <time>2025-04-25T07:43:43.000Z</time>
      </trkpt>
      <trkpt lat="43.36589" lon="6.13011">
        <ele>349.207379</ele>
        <time>2025-04-25T07:43:43.000Z</time>
      </trkpt>
      <trkpt lat="43.36591" lon="6.13007">
        <ele>349.037057</ele>
        <time>2025-04-25T07:43:44.000Z</time>
      </trkpt>
      <trkpt lat="43.36591" lon="6.13007">
        <ele>349.037057</ele>
        <time>2025-04-25T07:43:44.000Z</time>
      </trkpt>
      <trkpt lat="43.36594" lon="6.13003">
        <ele>348.822536</ele>
        <time>2025-04-25T07:43:45.000Z</time>
      </trkpt>
      <trkpt lat="43.36594" lon="6.13003">
        <ele>348.822536</ele>
        <time>2025-04-25T07:43:45.000Z</time>
      </trkpt>
      <trkpt lat="43.36596" lon="6.12998">
        <ele>348.625426</ele>
        <time>2025-04-25T07:43:46.000Z</time>
      </trkpt>
      <trkpt lat="43.36596" lon="6.12998">
        <ele>348.625426</ele>
        <time>2025-04-25T07:43:46.000Z</time>
      </trkpt>
      <trkpt lat="43.36597" lon="6.12993">
        <ele>348.429254</ele>
        <time>2025-04-25T07:43:47.000Z</time>
      </trkpt>
      <trkpt lat="43.36597" lon="6.12993">
        <ele>348.429254</ele>
        <time>2025-04-25T07:43:47.000Z</time>
      </trkpt>
      <trkpt lat="43.36598" lon="6.12988">
        <ele>348.210208</ele>
        <time>2025-04-25T07:43:48.000Z</time>
      </trkpt>
      <trkpt lat="43.36598" lon="6.12988">
        <ele>348.210208</ele>
        <time>2025-04-25T07:43:48.000Z</time>
      </trkpt>
      <trkpt lat="43.36599" lon="6.12981">
        <ele>347.970294</ele>
        <time>2025-04-25T07:43:49.000Z</time>
      </trkpt>
      <trkpt lat="43.36599" lon="6.12981">
        <ele>347.970294</ele>
        <time>2025-04-25T07:43:49.000Z</time>
      </trkpt>
      <trkpt lat="43.36601" lon="6.12974">
        <ele>347.698717</ele>
        <time>2025-04-25T07:43:50.000Z</time>
      </trkpt>
      <trkpt lat="43.36602" lon="6.12968">
        <ele>347.441088</ele>
        <time>2025-04-25T07:43:51.000Z</time>
      </trkpt>
      <trkpt lat="43.36602" lon="6.12968">
        <ele>347.441088</ele>
        <time>2025-04-25T07:43:51.000Z</time>
      </trkpt>
      <trkpt lat="43.36603" lon="6.12961">
        <ele>347.18762</ele>
        <time>2025-04-25T07:43:52.000Z</time>
      </trkpt>
      <trkpt lat="43.36603" lon="6.12961">
        <ele>347.18762</ele>
        <time>2025-04-25T07:43:52.000Z</time>
      </trkpt>
      <trkpt lat="43.36604" lon="6.12956">
        <ele>346.971502</ele>
        <time>2025-04-25T07:43:53.000Z</time>
      </trkpt>
      <trkpt lat="43.36606" lon="6.12949">
        <ele>346.703184</ele>
        <time>2025-04-25T07:43:54.000Z</time>
      </trkpt>
      <trkpt lat="43.36606" lon="6.12949">
        <ele>346.703184</ele>
        <time>2025-04-25T07:43:54.000Z</time>
      </trkpt>
      <trkpt lat="43.36608" lon="6.12941">
        <ele>346.403759</ele>
        <time>2025-04-25T07:43:54.000Z</time>
      </trkpt>
      <trkpt lat="43.3661" lon="6.12934">
        <ele>346.107343</ele>
        <time>2025-04-25T07:43:56.000Z</time>
      </trkpt>
      <trkpt lat="43.36612" lon="6.12927">
        <ele>345.871081</ele>
        <time>2025-04-25T07:43:56.000Z</time>
      </trkpt>
      <trkpt lat="43.36612" lon="6.12927">
        <ele>345.871081</ele>
        <time>2025-04-25T07:43:56.000Z</time>
      </trkpt>
      <trkpt lat="43.36614" lon="6.1292">
        <ele>345.668851</ele>
        <time>2025-04-25T07:43:57.000Z</time>
      </trkpt>
      <trkpt lat="43.36616" lon="6.12914">
        <ele>345.482072</ele>
        <time>2025-04-25T07:43:59.000Z</time>
      </trkpt>
      <trkpt lat="43.36616" lon="6.12914">
        <ele>345.482072</ele>
        <time>2025-04-25T07:43:59.000Z</time>
      </trkpt>
      <trkpt lat="43.36618" lon="6.12907">
        <ele>345.286303</ele>
        <time>2025-04-25T07:43:59.000Z</time>
      </trkpt>
      <trkpt lat="43.36619" lon="6.129">
        <ele>345.075716</ele>
        <time>2025-04-25T07:44:01.000Z</time>
      </trkpt>
      <trkpt lat="43.36621" lon="6.12892">
        <ele>344.862456</ele>
        <time>2025-04-25T07:44:02.000Z</time>
      </trkpt>
      <trkpt lat="43.36622" lon="6.12885">
        <ele>344.659871</ele>
        <time>2025-04-25T07:44:03.000Z</time>
      </trkpt>
      <trkpt lat="43.36622" lon="6.12885">
        <ele>344.659871</ele>
        <time>2025-04-25T07:44:03.000Z</time>
      </trkpt>
      <trkpt lat="43.36625" lon="6.12879">
        <ele>344.447215</ele>
        <time>2025-04-25T07:44:04.000Z</time>
      </trkpt>
      <trkpt lat="43.36628" lon="6.12872">
        <ele>344.217304</ele>
        <time>2025-04-25T07:44:05.000Z</time>
      </trkpt>
      <trkpt lat="43.36628" lon="6.12872">
        <ele>344.217304</ele>
        <time>2025-04-25T07:44:05.000Z</time>
      </trkpt>
      <trkpt lat="43.36631" lon="6.12866">
        <ele>344.015153</ele>
        <time>2025-04-25T07:44:06.000Z</time>
      </trkpt>
      <trkpt lat="43.36634" lon="6.1286">
        <ele>343.818932</ele>
        <time>2025-04-25T07:44:07.000Z</time>
      </trkpt>
      <trkpt lat="43.36634" lon="6.1286">
        <ele>343.818932</ele>
        <time>2025-04-25T07:44:07.000Z</time>
      </trkpt>
      <trkpt lat="43.36638" lon="6.12856">
        <ele>343.620941</ele>
        <time>2025-04-25T07:44:08.000Z</time>
      </trkpt>
      <trkpt lat="43.36638" lon="6.12856">
        <ele>343.620941</ele>
        <time>2025-04-25T07:44:08.000Z</time>
      </trkpt>
      <trkpt lat="43.36642" lon="6.12852">
        <ele>343.447841</ele>
        <time>2025-04-25T07:44:08.000Z</time>
      </trkpt>
      <trkpt lat="43.36642" lon="6.12852">
        <ele>343.447841</ele>
        <time>2025-04-25T07:44:08.000Z</time>
      </trkpt>
      <trkpt lat="43.36645" lon="6.1285">
        <ele>343.312444</ele>
        <time>2025-04-25T07:44:10.000Z</time>
      </trkpt>
      <trkpt lat="43.36645" lon="6.1285">
        <ele>343.312444</ele>
        <time>2025-04-25T07:44:10.000Z</time>
      </trkpt>
      <trkpt lat="43.36648" lon="6.12847">
        <ele>343.184979</ele>
        <time>2025-04-25T07:44:11.000Z</time>
      </trkpt>
      <trkpt lat="43.36648" lon="6.12847">
        <ele>343.184979</ele>
        <time>2025-04-25T07:44:11.000Z</time>
      </trkpt>
      <trkpt lat="43.3665" lon="6.12845">
        <ele>343.078006</ele>
        <time>2025-04-25T07:44:12.000Z</time>
      </trkpt>
      <trkpt lat="43.3665" lon="6.12845">
        <ele>343.078006</ele>
        <time>2025-04-25T07:44:12.000Z</time>
      </trkpt>
      <trkpt lat="43.36653" lon="6.12842">
        <ele>342.956737</ele>
        <time>2025-04-25T07:44:13.000Z</time>
      </trkpt>
      <trkpt lat="43.36653" lon="6.12842">
        <ele>342.956737</ele>
        <time>2025-04-25T07:44:13.000Z</time>
      </trkpt>
      <trkpt lat="43.36655" lon="6.12841">
        <ele>342.849076</ele>
        <time>2025-04-25T07:44:14.000Z</time>
      </trkpt>
      <trkpt lat="43.36655" lon="6.12841">
        <ele>342.849076</ele>
        <time>2025-04-25T07:44:14.000Z</time>
      </trkpt>
      <trkpt lat="43.36659" lon="6.12838">
        <ele>342.711858</ele>
        <time>2025-04-25T07:44:15.000Z</time>
      </trkpt>
      <trkpt lat="43.36659" lon="6.12838">
        <ele>342.711858</ele>
        <time>2025-04-25T07:44:15.000Z</time>
      </trkpt>
      <trkpt lat="43.36661" lon="6.12834">
        <ele>342.570285</ele>
        <time>2025-04-25T07:44:16.000Z</time>
      </trkpt>
      <trkpt lat="43.36661" lon="6.12834">
        <ele>342.570285</ele>
        <time>2025-04-25T07:44:16.000Z</time>
      </trkpt>
      <trkpt lat="43.36662" lon="6.12829">
        <ele>342.404613</ele>
        <time>2025-04-25T07:44:17.000Z</time>
      </trkpt>
      <trkpt lat="43.36662" lon="6.12829">
        <ele>342.404613</ele>
        <time>2025-04-25T07:44:17.000Z</time>
      </trkpt>
      <trkpt lat="43.36663" lon="6.12823">
        <ele>342.238218</ele>
        <time>2025-04-25T07:44:17.000Z</time>
      </trkpt>
      <trkpt lat="43.36665" lon="6.12817">
        <ele>342.04374</ele>
        <time>2025-04-25T07:44:18.000Z</time>
      </trkpt>
      <trkpt lat="43.36665" lon="6.12817">
        <ele>342.04374</ele>
        <time>2025-04-25T07:44:18.000Z</time>
      </trkpt>
      <trkpt lat="43.36668" lon="6.12809">
        <ele>341.827963</ele>
        <time>2025-04-25T07:44:19.000Z</time>
      </trkpt>
      <trkpt lat="43.36668" lon="6.12809">
        <ele>341.827963</ele>
        <time>2025-04-25T07:44:19.000Z</time>
      </trkpt>
      <trkpt lat="43.3667" lon="6.12803">
        <ele>341.627335</ele>
        <time>2025-04-25T07:44:20.000Z</time>
      </trkpt>
      <trkpt lat="43.3667" lon="6.12803">
        <ele>341.627335</ele>
        <time>2025-04-25T07:44:20.000Z</time>
      </trkpt>
      <trkpt lat="43.36673" lon="6.12797">
        <ele>341.429083</ele>
        <time>2025-04-25T07:44:21.000Z</time>
      </trkpt>
      <trkpt lat="43.36673" lon="6.12797">
        <ele>341.429083</ele>
        <time>2025-04-25T07:44:21.000Z</time>
      </trkpt>
      <trkpt lat="43.36675" lon="6.12791">
        <ele>341.23586</ele>
        <time>2025-04-25T07:44:22.000Z</time>
      </trkpt>
      <trkpt lat="43.36677" lon="6.12785">
        <ele>341.059262</ele>
        <time>2025-04-25T07:44:23.000Z</time>
      </trkpt>
      <trkpt lat="43.36677" lon="6.12785">
        <ele>341.059262</ele>
        <time>2025-04-25T07:44:23.000Z</time>
      </trkpt>
      <trkpt lat="43.36679" lon="6.12779">
        <ele>340.877588</ele>
        <time>2025-04-25T07:44:25.000Z</time>
      </trkpt>
      <trkpt lat="43.36679" lon="6.12779">
        <ele>340.877588</ele>
        <time>2025-04-25T07:44:25.000Z</time>
      </trkpt>
      <trkpt lat="43.36681" lon="6.12773">
        <ele>340.679403</ele>
        <time>2025-04-25T07:44:26.000Z</time>
      </trkpt>
      <trkpt lat="43.36683" lon="6.12767">
        <ele>340.512866</ele>
        <time>2025-04-25T07:44:27.000Z</time>
      </trkpt>
      <trkpt lat="43.36683" lon="6.12767">
        <ele>340.512866</ele>
        <time>2025-04-25T07:44:27.000Z</time>
      </trkpt>
      <trkpt lat="43.36685" lon="6.12763">
        <ele>340.367831</ele>
        <time>2025-04-25T07:44:28.000Z</time>
      </trkpt>
      <trkpt lat="43.36685" lon="6.12763">
        <ele>340.367831</ele>
        <time>2025-04-25T07:44:28.000Z</time>
      </trkpt>
      <trkpt lat="43.36686" lon="6.12757">
        <ele>340.20216</ele>
        <time>2025-04-25T07:44:28.000Z</time>
      </trkpt>
      <trkpt lat="43.36686" lon="6.12757">
        <ele>340.20216</ele>
        <time>2025-04-25T07:44:28.000Z</time>
      </trkpt>
      <trkpt lat="43.36687" lon="6.12751">
        <ele>340.045958</ele>
        <time>2025-04-25T07:44:29.000Z</time>
      </trkpt>
      <trkpt lat="43.36688" lon="6.12745">
        <ele>339.860215</ele>
        <time>2025-04-25T07:44:30.000Z</time>
      </trkpt>
      <trkpt lat="43.36688" lon="6.12745">
        <ele>339.860215</ele>
        <time>2025-04-25T07:44:30.000Z</time>
      </trkpt>
      <trkpt lat="43.36689" lon="6.12739">
        <ele>339.685749</ele>
        <time>2025-04-25T07:44:32.000Z</time>
      </trkpt>
      <trkpt lat="43.36689" lon="6.12739">
        <ele>339.685749</ele>
        <time>2025-04-25T07:44:32.000Z</time>
      </trkpt>
      <trkpt lat="43.36691" lon="6.12733">
        <ele>339.501527</ele>
        <time>2025-04-25T07:44:33.000Z</time>
      </trkpt>
      <trkpt lat="43.36691" lon="6.12733">
        <ele>339.501527</ele>
        <time>2025-04-25T07:44:33.000Z</time>
      </trkpt>
      <trkpt lat="43.36693" lon="6.12726">
        <ele>339.281552</ele>
        <time>2025-04-25T07:44:34.000Z</time>
      </trkpt>
      <trkpt lat="43.36696" lon="6.12719">
        <ele>339.088909</ele>
        <time>2025-04-25T07:44:35.000Z</time>
      </trkpt>
      <trkpt lat="43.36696" lon="6.12719">
        <ele>339.088909</ele>
        <time>2025-04-25T07:44:35.000Z</time>
      </trkpt>
      <trkpt lat="43.36697" lon="6.12713">
        <ele>338.92763</ele>
        <time>2025-04-25T07:44:36.000Z</time>
      </trkpt>
      <trkpt lat="43.36697" lon="6.12713">
        <ele>338.92763</ele>
        <time>2025-04-25T07:44:36.000Z</time>
      </trkpt>
      <trkpt lat="43.36699" lon="6.12708">
        <ele>338.78781</ele>
        <time>2025-04-25T07:44:37.000Z</time>
      </trkpt>
      <trkpt lat="43.36699" lon="6.12708">
        <ele>338.78781</ele>
        <time>2025-04-25T07:44:37.000Z</time>
      </trkpt>
      <trkpt lat="43.367" lon="6.12703">
        <ele>338.640994</ele>
        <time>2025-04-25T07:44:38.000Z</time>
      </trkpt>
      <trkpt lat="43.367" lon="6.12703">
        <ele>338.640994</ele>
        <time>2025-04-25T07:44:38.000Z</time>
      </trkpt>
      <trkpt lat="43.36702" lon="6.12697">
        <ele>338.492936</ele>
        <time>2025-04-25T07:44:39.000Z</time>
      </trkpt>
      <trkpt lat="43.36702" lon="6.12697">
        <ele>338.492936</ele>
        <time>2025-04-25T07:44:39.000Z</time>
      </trkpt>
      <trkpt lat="43.36704" lon="6.12691">
        <ele>338.329625</ele>
        <time>2025-04-25T07:44:40.000Z</time>
      </trkpt>
      <trkpt lat="43.36704" lon="6.12691">
        <ele>338.329625</ele>
        <time>2025-04-25T07:44:40.000Z</time>
      </trkpt>
      <trkpt lat="43.36705" lon="6.12685">
        <ele>338.174973</ele>
        <time>2025-04-25T07:44:41.000Z</time>
      </trkpt>
      <trkpt lat="43.36705" lon="6.12685">
        <ele>338.174973</ele>
        <time>2025-04-25T07:44:41.000Z</time>
      </trkpt>
      <trkpt lat="43.36706" lon="6.12679">
        <ele>338.021853</ele>
        <time>2025-04-25T07:44:42.000Z</time>
      </trkpt>
      <trkpt lat="43.36706" lon="6.12679">
        <ele>338.021853</ele>
        <time>2025-04-25T07:44:42.000Z</time>
      </trkpt>
      <trkpt lat="43.36707" lon="6.12673">
        <ele>337.872042</ele>
        <time>2025-04-25T07:44:43.000Z</time>
      </trkpt>
      <trkpt lat="43.36707" lon="6.12673">
        <ele>337.872042</ele>
        <time>2025-04-25T07:44:43.000Z</time>
      </trkpt>
      <trkpt lat="43.36708" lon="6.12667">
        <ele>337.726953</ele>
        <time>2025-04-25T07:44:44.000Z</time>
      </trkpt>
      <trkpt lat="43.36708" lon="6.12667">
        <ele>337.726953</ele>
        <time>2025-04-25T07:44:44.000Z</time>
      </trkpt>
      <trkpt lat="43.36708" lon="6.12662">
        <ele>337.59875</ele>
        <time>2025-04-25T07:44:45.000Z</time>
      </trkpt>
      <trkpt lat="43.36708" lon="6.12662">
        <ele>337.59875</ele>
        <time>2025-04-25T07:44:45.000Z</time>
      </trkpt>
      <trkpt lat="43.36708" lon="6.12658">
        <ele>337.490787</ele>
        <time>2025-04-25T07:44:46.000Z</time>
      </trkpt>
      <trkpt lat="43.36708" lon="6.12658">
        <ele>337.490787</ele>
        <time>2025-04-25T07:44:46.000Z</time>
      </trkpt>
      <trkpt lat="43.36709" lon="6.12654">
        <ele>337.387101</ele>
        <time>2025-04-25T07:44:47.000Z</time>
      </trkpt>
      <trkpt lat="43.36709" lon="6.12654">
        <ele>337.387101</ele>
        <time>2025-04-25T07:44:47.000Z</time>
      </trkpt>
      <trkpt lat="43.3671" lon="6.12649">
        <ele>337.263867</ele>
        <time>2025-04-25T07:44:47.000Z</time>
      </trkpt>
      <trkpt lat="43.3671" lon="6.12649">
        <ele>337.263867</ele>
        <time>2025-04-25T07:44:47.000Z</time>
      </trkpt>
      <trkpt lat="43.3671" lon="6.12645">
        <ele>337.160478</ele>
        <time>2025-04-25T07:44:49.000Z</time>
      </trkpt>
      <trkpt lat="43.3671" lon="6.12645">
        <ele>337.160478</ele>
        <time>2025-04-25T07:44:49.000Z</time>
      </trkpt>
      <trkpt lat="43.36711" lon="6.1264">
        <ele>337.033217</ele>
        <time>2025-04-25T07:44:49.000Z</time>
      </trkpt>
      <trkpt lat="43.36711" lon="6.1264">
        <ele>337.033217</ele>
        <time>2025-04-25T07:44:49.000Z</time>
      </trkpt>
      <trkpt lat="43.36713" lon="6.12632">
        <ele>336.808857</ele>
        <time>2025-04-25T07:44:52.000Z</time>
      </trkpt>
      <trkpt lat="43.36713" lon="6.12632">
        <ele>336.808857</ele>
        <time>2025-04-25T07:44:52.000Z</time>
      </trkpt>
      <trkpt lat="43.36731" lon="6.12597">
        <ele>335.75411</ele>
        <time>2025-04-25T07:44:59.000Z</time>
      </trkpt>
      <trkpt lat="43.36731" lon="6.12597">
        <ele>335.75411</ele>
        <time>2025-04-25T07:44:59.000Z</time>
      </trkpt>
      <trkpt lat="43.36737" lon="6.12581">
        <ele>335.280666</ele>
        <time>2025-04-25T07:45:02.000Z</time>
      </trkpt>
      <trkpt lat="43.36737" lon="6.12581">
        <ele>335.280666</ele>
        <time>2025-04-25T07:45:02.000Z</time>
      </trkpt>
      <trkpt lat="43.36749" lon="6.12565">
        <ele>334.705934</ele>
        <time>2025-04-25T07:45:06.000Z</time>
      </trkpt>
      <trkpt lat="43.36749" lon="6.12565">
        <ele>334.705934</ele>
        <time>2025-04-25T07:45:06.000Z</time>
      </trkpt>
      <trkpt lat="43.36771" lon="6.12541">
        <ele>333.741593</ele>
        <time>2025-04-25T07:45:13.000Z</time>
      </trkpt>
      <trkpt lat="43.36773" lon="6.12539">
        <ele>333.659341</ele>
        <time>2025-04-25T07:45:14.000Z</time>
      </trkpt>
      <trkpt lat="43.36773" lon="6.12539">
        <ele>333.659341</ele>
        <time>2025-04-25T07:45:14.000Z</time>
      </trkpt>
      <trkpt lat="43.36774" lon="6.12537">
        <ele>333.595585</ele>
        <time>2025-04-25T07:45:15.000Z</time>
      </trkpt>
      <trkpt lat="43.36774" lon="6.12537">
        <ele>333.595585</ele>
        <time>2025-04-25T07:45:15.000Z</time>
      </trkpt>
      <trkpt lat="43.36776" lon="6.12535">
        <ele>333.519556</ele>
        <time>2025-04-25T07:45:16.000Z</time>
      </trkpt>
      <trkpt lat="43.36778" lon="6.12532">
        <ele>333.412292</ele>
        <time>2025-04-25T07:45:17.000Z</time>
      </trkpt>
      <trkpt lat="43.36778" lon="6.12532">
        <ele>333.412292</ele>
        <time>2025-04-25T07:45:17.000Z</time>
      </trkpt>
      <trkpt lat="43.3678" lon="6.12529">
        <ele>333.317131</ele>
        <time>2025-04-25T07:45:17.000Z</time>
      </trkpt>
      <trkpt lat="43.36781" lon="6.12526">
        <ele>333.245489</ele>
        <time>2025-04-25T07:45:19.000Z</time>
      </trkpt>
      <trkpt lat="43.36781" lon="6.12526">
        <ele>333.245489</ele>
        <time>2025-04-25T07:45:19.000Z</time>
      </trkpt>
      <trkpt lat="43.36784" lon="6.12517">
        <ele>333.588107</ele>
        <time>2025-04-25T07:46:44.000Z</time>
      </trkpt>
      <trkpt lat="43.36784" lon="6.12517">
        <ele>333.588107</ele>
        <time>2025-04-25T07:46:44.000Z</time>
      </trkpt>
      <trkpt lat="43.36787" lon="6.12512">
        <ele>333.521786</ele>
        <time>2025-04-25T07:46:46.000Z</time>
      </trkpt>
      <trkpt lat="43.36787" lon="6.12512">
        <ele>333.521786</ele>
        <time>2025-04-25T07:46:46.000Z</time>
      </trkpt>
      <trkpt lat="43.36787" lon="6.12512">
        <ele>333.518824</ele>
        <time>2025-04-25T07:46:47.000Z</time>
      </trkpt>
      <trkpt lat="43.36787" lon="6.12512">
        <ele>333.518824</ele>
        <time>2025-04-25T07:46:49.000Z</time>
      </trkpt>
      <trkpt lat="43.36791" lon="6.12506">
        <ele>332.674143</ele>
        <time>2025-04-25T07:47:43.000Z</time>
      </trkpt>
      <trkpt lat="43.36794" lon="6.12506">
        <ele>332.633351</ele>
        <time>2025-04-25T07:47:44.000Z</time>
      </trkpt>
      <trkpt lat="43.36797" lon="6.12506">
        <ele>332.59668</ele>
        <time>2025-04-25T07:47:45.000Z</time>
      </trkpt>
      <trkpt lat="43.36797" lon="6.12506">
        <ele>332.59668</ele>
        <time>2025-04-25T07:47:45.000Z</time>
      </trkpt>
      <trkpt lat="43.36799" lon="6.12506">
        <ele>332.561148</ele>
        <time>2025-04-25T07:47:45.000Z</time>
      </trkpt>
      <trkpt lat="43.36802" lon="6.12505">
        <ele>332.524002</ele>
        <time>2025-04-25T07:47:47.000Z</time>
      </trkpt>
      <trkpt lat="43.36802" lon="6.12505">
        <ele>332.524002</ele>
        <time>2025-04-25T07:47:47.000Z</time>
      </trkpt>
      <trkpt lat="43.36804" lon="6.12505">
        <ele>332.498178</ele>
        <time>2025-04-25T07:47:48.000Z</time>
      </trkpt>
      <trkpt lat="43.36805" lon="6.12505">
        <ele>332.477592</ele>
        <time>2025-04-25T07:47:49.000Z</time>
      </trkpt>
      <trkpt lat="43.36805" lon="6.12505">
        <ele>332.477592</ele>
        <time>2025-04-25T07:47:49.000Z</time>
      </trkpt>
      <trkpt lat="43.36808" lon="6.12504">
        <ele>332.445966</ele>
        <time>2025-04-25T07:47:50.000Z</time>
      </trkpt>
      <trkpt lat="43.36809" lon="6.12504">
        <ele>332.424035</ele>
        <time>2025-04-25T07:47:51.000Z</time>
      </trkpt>
      <trkpt lat="43.36809" lon="6.12504">
        <ele>332.424035</ele>
        <time>2025-04-25T07:47:51.000Z</time>
      </trkpt>
      <trkpt lat="43.36811" lon="6.12504">
        <ele>332.393895</ele>
        <time>2025-04-25T07:47:52.000Z</time>
      </trkpt>
      <trkpt lat="43.36814" lon="6.12504">
        <ele>332.362642</ele>
        <time>2025-04-25T07:47:53.000Z</time>
      </trkpt>
      <trkpt lat="43.36814" lon="6.12504">
        <ele>332.362642</ele>
        <time>2025-04-25T07:47:53.000Z</time>
      </trkpt>
      <trkpt lat="43.36817" lon="6.12505">
        <ele>332.313404</ele>
        <time>2025-04-25T07:47:54.000Z</time>
      </trkpt>
      <trkpt lat="43.3682" lon="6.12507">
        <ele>332.268952</ele>
        <time>2025-04-25T07:47:55.000Z</time>
      </trkpt>
      <trkpt lat="43.36824" lon="6.12509">
        <ele>332.206399</ele>
        <time>2025-04-25T07:47:56.000Z</time>
      </trkpt>
      <trkpt lat="43.36844" lon="6.12526">
        <ele>325.5</ele>
        <time>2025-04-25T07:48:02.000Z</time>
      </trkpt>
      <trkpt lat="43.36847" lon="6.12526">
        <ele>325.4</ele>
        <time>2025-04-25T07:48:02.000Z</time>
      </trkpt>
      <trkpt lat="43.3685" lon="6.12526">
        <ele>325.3</ele>
        <time>2025-04-25T07:48:04.000Z</time>
      </trkpt>
      <trkpt lat="43.3685" lon="6.12527">
        <ele>325.4</ele>
        <time>2025-04-25T07:48:05.000Z</time>
      </trkpt>
      <trkpt lat="43.36851" lon="6.12526">
        <ele>325.3</ele>
        <time>2025-04-25T07:48:05.000Z</time>
      </trkpt>
      <trkpt lat="43.36852" lon="6.12526">
        <ele>325.2</ele>
        <time>2025-04-25T07:48:06.000Z</time>
      </trkpt>
      <trkpt lat="43.36854" lon="6.12525">
        <ele>325.1</ele>
        <time>2025-04-25T07:48:07.000Z</time>
      </trkpt>
      <trkpt lat="43.36855" lon="6.12524">
        <ele>325</ele>
        <time>2025-04-25T07:48:07.000Z</time>
      </trkpt>
      <trkpt lat="43.36857" lon="6.1252">
        <ele>324.8</ele>
        <time>2025-04-25T07:48:08.000Z</time>
      </trkpt>
      <trkpt lat="43.3686" lon="6.12513">
        <ele>331.283942</ele>
        <time>2025-04-25T07:48:09.000Z</time>
      </trkpt>
      <trkpt lat="43.3687" lon="6.12504">
        <ele>329.265059</ele>
        <time>2025-04-25T07:48:39.000Z</time>
      </trkpt>
      <trkpt lat="43.36873" lon="6.1251">
        <ele>325.924937</ele>
        <time>2025-04-25T07:51:07.000Z</time>
      </trkpt>
      <trkpt lat="43.36873" lon="6.1251">
        <ele>325.924937</ele>
        <time>2025-04-25T07:51:07.000Z</time>
      </trkpt>
      <trkpt lat="43.36874" lon="6.12516">
        <ele>326.033759</ele>
        <time>2025-04-25T07:51:08.000Z</time>
      </trkpt>
      <trkpt lat="43.36874" lon="6.12521">
        <ele>326.133537</ele>
        <time>2025-04-25T07:51:09.000Z</time>
      </trkpt>
      <trkpt lat="43.36874" lon="6.12521">
        <ele>326.133537</ele>
        <time>2025-04-25T07:51:09.000Z</time>
      </trkpt>
      <trkpt lat="43.36876" lon="6.12528">
        <ele>326.246813</ele>
        <time>2025-04-25T07:51:10.000Z</time>
      </trkpt>
      <trkpt lat="43.36877" lon="6.12534">
        <ele>326.363485</ele>
        <time>2025-04-25T07:51:10.000Z</time>
      </trkpt>
      <trkpt lat="43.36877" lon="6.12534">
        <ele>326.363485</ele>
        <time>2025-04-25T07:51:10.000Z</time>
      </trkpt>
      <trkpt lat="43.36879" lon="6.1254">
        <ele>326.482536</ele>
        <time>2025-04-25T07:51:12.000Z</time>
      </trkpt>
      <trkpt lat="43.36882" lon="6.12547">
        <ele>326.608924</ele>
        <time>2025-04-25T07:51:13.000Z</time>
      </trkpt>
      <trkpt lat="43.36884" lon="6.12554">
        <ele>326.737922</ele>
        <time>2025-04-25T07:51:14.000Z</time>
      </trkpt>
      <trkpt lat="43.36884" lon="6.12554">
        <ele>326.737922</ele>
        <time>2025-04-25T07:51:14.000Z</time>
      </trkpt>
      <trkpt lat="43.36885" lon="6.1256">
        <ele>326.86692</ele>
        <time>2025-04-25T07:51:15.000Z</time>
      </trkpt>
      <trkpt lat="43.36887" lon="6.12567">
        <ele>326.993542</ele>
        <time>2025-04-25T07:51:16.000Z</time>
      </trkpt>
      <trkpt lat="43.36887" lon="6.12567">
        <ele>326.993542</ele>
        <time>2025-04-25T07:51:16.000Z</time>
      </trkpt>
      <trkpt lat="43.36888" lon="6.12574">
        <ele>327.111882</ele>
        <time>2025-04-25T07:51:17.000Z</time>
      </trkpt>
      <trkpt lat="43.36889" lon="6.12581">
        <ele>327.239323</ele>
        <time>2025-04-25T07:51:18.000Z</time>
      </trkpt>
      <trkpt lat="43.36889" lon="6.12581">
        <ele>327.239323</ele>
        <time>2025-04-25T07:51:18.000Z</time>
      </trkpt>
      <trkpt lat="43.36891" lon="6.12588">
        <ele>327.369958</ele>
        <time>2025-04-25T07:51:19.000Z</time>
      </trkpt>
      <trkpt lat="43.36893" lon="6.12594">
        <ele>327.482776</ele>
        <time>2025-04-25T07:51:20.000Z</time>
      </trkpt>
      <trkpt lat="43.36893" lon="6.12594">
        <ele>327.482776</ele>
        <time>2025-04-25T07:51:20.000Z</time>
      </trkpt>
      <trkpt lat="43.36895" lon="6.12601">
        <ele>327.60851</ele>
        <time>2025-04-25T07:51:21.000Z</time>
      </trkpt>
      <trkpt lat="43.36895" lon="6.12601">
        <ele>327.60851</ele>
        <time>2025-04-25T07:51:21.000Z</time>
      </trkpt>
      <trkpt lat="43.36897" lon="6.12607">
        <ele>327.729373</ele>
        <time>2025-04-25T07:51:22.000Z</time>
      </trkpt>
      <trkpt lat="43.36897" lon="6.12607">
        <ele>327.729373</ele>
        <time>2025-04-25T07:51:22.000Z</time>
      </trkpt>
      <trkpt lat="43.36898" lon="6.12614">
        <ele>327.863288</ele>
        <time>2025-04-25T07:51:23.000Z</time>
      </trkpt>
      <trkpt lat="43.369" lon="6.12621">
        <ele>327.984184</ele>
        <time>2025-04-25T07:51:24.000Z</time>
      </trkpt>
      <trkpt lat="43.369" lon="6.12621">
        <ele>327.984184</ele>
        <time>2025-04-25T07:51:24.000Z</time>
      </trkpt>
      <trkpt lat="43.36902" lon="6.12628">
        <ele>328.122211</ele>
        <time>2025-04-25T07:51:25.000Z</time>
      </trkpt>
      <trkpt lat="43.36902" lon="6.12628">
        <ele>328.122211</ele>
        <time>2025-04-25T07:51:25.000Z</time>
      </trkpt>
      <trkpt lat="43.36903" lon="6.12635">
        <ele>328.24144</ele>
        <time>2025-04-25T07:51:26.000Z</time>
      </trkpt>
      <trkpt lat="43.36903" lon="6.12635">
        <ele>328.24144</ele>
        <time>2025-04-25T07:51:26.000Z</time>
      </trkpt>
      <trkpt lat="43.36905" lon="6.12642">
        <ele>328.360782</ele>
        <time>2025-04-25T07:51:27.000Z</time>
      </trkpt>
      <trkpt lat="43.36905" lon="6.12642">
        <ele>328.360782</ele>
        <time>2025-04-25T07:51:27.000Z</time>
      </trkpt>
      <trkpt lat="43.36906" lon="6.12649">
        <ele>328.469711</ele>
        <time>2025-04-25T07:51:28.000Z</time>
      </trkpt>
      <trkpt lat="43.36906" lon="6.12649">
        <ele>328.469711</ele>
        <time>2025-04-25T07:51:28.000Z</time>
      </trkpt>
      <trkpt lat="43.36908" lon="6.12656">
        <ele>328.585119</ele>
        <time>2025-04-25T07:51:29.000Z</time>
      </trkpt>
      <trkpt lat="43.3691" lon="6.12663">
        <ele>328.696789</ele>
        <time>2025-04-25T07:51:30.000Z</time>
      </trkpt>
      <trkpt lat="43.3691" lon="6.12663">
        <ele>328.696789</ele>
        <time>2025-04-25T07:51:30.000Z</time>
      </trkpt>
      <trkpt lat="43.36912" lon="6.1267">
        <ele>328.812763</ele>
        <time>2025-04-25T07:51:31.000Z</time>
      </trkpt>
      <trkpt lat="43.36914" lon="6.12676">
        <ele>328.913082</ele>
        <time>2025-04-25T07:51:32.000Z</time>
      </trkpt>
      <trkpt lat="43.36914" lon="6.12676">
        <ele>328.913082</ele>
        <time>2025-04-25T07:51:32.000Z</time>
      </trkpt>
      <trkpt lat="43.36916" lon="6.12682">
        <ele>329.014809</ele>
        <time>2025-04-25T07:51:33.000Z</time>
      </trkpt>
      <trkpt lat="43.36918" lon="6.12688">
        <ele>329.127003</ele>
        <time>2025-04-25T07:51:34.000Z</time>
      </trkpt>
      <trkpt lat="43.36919" lon="6.12695">
        <ele>329.233001</ele>
        <time>2025-04-25T07:51:35.000Z</time>
      </trkpt>
      <trkpt lat="43.36921" lon="6.12701">
        <ele>329.33026</ele>
        <time>2025-04-25T07:51:36.000Z</time>
      </trkpt>
      <trkpt lat="43.36922" lon="6.12707">
        <ele>329.422697</ele>
        <time>2025-04-25T07:51:37.000Z</time>
      </trkpt>
      <trkpt lat="43.36922" lon="6.12707">
        <ele>329.422697</ele>
        <time>2025-04-25T07:51:37.000Z</time>
      </trkpt>
      <trkpt lat="43.36924" lon="6.12713">
        <ele>329.524424</ele>
        <time>2025-04-25T07:51:38.000Z</time>
      </trkpt>
      <trkpt lat="43.36926" lon="6.12719">
        <ele>329.62194</ele>
        <time>2025-04-25T07:51:39.000Z</time>
      </trkpt>
      <trkpt lat="43.36927" lon="6.12725">
        <ele>329.719767</ele>
        <time>2025-04-25T07:51:40.000Z</time>
      </trkpt>
      <trkpt lat="43.36928" lon="6.12731">
        <ele>329.814782</ele>
        <time>2025-04-25T07:51:41.000Z</time>
      </trkpt>
      <trkpt lat="43.36927" lon="6.12736">
        <ele>329.897985</ele>
        <time>2025-04-25T07:51:42.000Z</time>
      </trkpt>
      <trkpt lat="43.36927" lon="6.12736">
        <ele>329.897985</ele>
        <time>2025-04-25T07:51:42.000Z</time>
      </trkpt>
      <trkpt lat="43.36926" lon="6.12742">
        <ele>329.991351</ele>
        <time>2025-04-25T07:51:43.000Z</time>
      </trkpt>
      <trkpt lat="43.36925" lon="6.12748">
        <ele>330.080738</ele>
        <time>2025-04-25T07:51:44.000Z</time>
      </trkpt>
      <trkpt lat="43.36924" lon="6.12753">
        <ele>330.164818</ele>
        <time>2025-04-25T07:51:45.000Z</time>
      </trkpt>
      <trkpt lat="43.36924" lon="6.12753">
        <ele>330.164818</ele>
        <time>2025-04-25T07:51:45.000Z</time>
      </trkpt>
      <trkpt lat="43.36924" lon="6.12758">
        <ele>330.236863</ele>
        <time>2025-04-25T07:51:46.000Z</time>
      </trkpt>
      <trkpt lat="43.36925" lon="6.12762">
        <ele>330.307403</ele>
        <time>2025-04-25T07:51:47.000Z</time>
      </trkpt>
      <trkpt lat="43.36926" lon="6.12766">
        <ele>330.368207</ele>
        <time>2025-04-25T07:51:48.000Z</time>
      </trkpt>
      <trkpt lat="43.36926" lon="6.12766">
        <ele>330.368207</ele>
        <time>2025-04-25T07:51:48.000Z</time>
      </trkpt>
      <trkpt lat="43.36928" lon="6.12768">
        <ele>330.413336</ele>
        <time>2025-04-25T07:51:49.000Z</time>
      </trkpt>
      <trkpt lat="43.3693" lon="6.1277">
        <ele>330.462868</ele>
        <time>2025-04-25T07:51:50.000Z</time>
      </trkpt>
      <trkpt lat="43.36931" lon="6.12772">
        <ele>330.496525</ele>
        <time>2025-04-25T07:51:51.000Z</time>
      </trkpt>
      <trkpt lat="43.36932" lon="6.12775">
        <ele>330.56013</ele>
        <time>2025-04-25T07:51:52.000Z</time>
      </trkpt>
      <trkpt lat="43.36932" lon="6.1278">
        <ele>330.629623</ele>
        <time>2025-04-25T07:51:53.000Z</time>
      </trkpt>
      <trkpt lat="43.36931" lon="6.12785">
        <ele>330.710335</ele>
        <time>2025-04-25T07:51:54.000Z</time>
      </trkpt>
      <trkpt lat="43.36929" lon="6.12789">
        <ele>330.783579</ele>
        <time>2025-04-25T07:51:55.000Z</time>
      </trkpt>
      <trkpt lat="43.36927" lon="6.12794">
        <ele>330.871423</ele>
        <time>2025-04-25T07:51:56.000Z</time>
      </trkpt>
      <trkpt lat="43.36926" lon="6.12798">
        <ele>330.948557</ele>
        <time>2025-04-25T07:51:57.000Z</time>
      </trkpt>
      <trkpt lat="43.36923" lon="6.12802">
        <ele>331.02088</ele>
        <time>2025-04-25T07:51:58.000Z</time>
      </trkpt>
      <trkpt lat="43.36921" lon="6.12805">
        <ele>331.089859</ele>
        <time>2025-04-25T07:51:59.000Z</time>
      </trkpt>
      <trkpt lat="43.36919" lon="6.12808">
        <ele>331.156818</ele>
        <time>2025-04-25T07:52:00.000Z</time>
      </trkpt>
      <trkpt lat="43.36916" lon="6.12812">
        <ele>331.24138</ele>
        <time>2025-04-25T07:52:01.000Z</time>
      </trkpt>
      <trkpt lat="43.36916" lon="6.12812">
        <ele>331.24138</ele>
        <time>2025-04-25T07:52:01.000Z</time>
      </trkpt>
      <trkpt lat="43.36914" lon="6.12817">
        <ele>331.32696</ele>
        <time>2025-04-25T07:52:02.000Z</time>
      </trkpt>
      <trkpt lat="43.36911" lon="6.12822">
        <ele>331.418786</ele>
        <time>2025-04-25T07:52:03.000Z</time>
      </trkpt>
      <trkpt lat="43.36909" lon="6.12827">
        <ele>331.516048</ele>
        <time>2025-04-25T07:52:04.000Z</time>
      </trkpt>
      <trkpt lat="43.36909" lon="6.12827">
        <ele>331.516048</ele>
        <time>2025-04-25T07:52:04.000Z</time>
      </trkpt>
      <trkpt lat="43.36907" lon="6.12832">
        <ele>331.608046</ele>
        <time>2025-04-25T07:52:05.000Z</time>
      </trkpt>
      <trkpt lat="43.36905" lon="6.12838">
        <ele>331.70139</ele>
        <time>2025-04-25T07:52:06.000Z</time>
      </trkpt>
      <trkpt lat="43.36905" lon="6.12838">
        <ele>331.70139</ele>
        <time>2025-04-25T07:52:06.000Z</time>
      </trkpt>
      <trkpt lat="43.36903" lon="6.12842">
        <ele>331.78116</ele>
        <time>2025-04-25T07:52:07.000Z</time>
      </trkpt>
      <trkpt lat="43.36903" lon="6.12842">
        <ele>331.78116</ele>
        <time>2025-04-25T07:52:07.000Z</time>
      </trkpt>
      <trkpt lat="43.36901" lon="6.12847">
        <ele>331.869284</ele>
        <time>2025-04-25T07:52:08.000Z</time>
      </trkpt>
      <trkpt lat="43.36901" lon="6.12847">
        <ele>331.869284</ele>
        <time>2025-04-25T07:52:08.000Z</time>
      </trkpt>
      <trkpt lat="43.36898" lon="6.12851">
        <ele>331.950736</ele>
        <time>2025-04-25T07:52:09.000Z</time>
      </trkpt>
      <trkpt lat="43.36895" lon="6.12854">
        <ele>332.037604</ele>
        <time>2025-04-25T07:52:10.000Z</time>
      </trkpt>
      <trkpt lat="43.36895" lon="6.12854">
        <ele>332.037604</ele>
        <time>2025-04-25T07:52:10.000Z</time>
      </trkpt>
      <trkpt lat="43.36891" lon="6.12857">
        <ele>332.182649</ele>
        <time>2025-04-25T07:52:11.000Z</time>
      </trkpt>
      <trkpt lat="43.36891" lon="6.12857">
        <ele>332.182649</ele>
        <time>2025-04-25T07:52:11.000Z</time>
      </trkpt>
      <trkpt lat="43.36887" lon="6.12859">
        <ele>332.412541</ele>
        <time>2025-04-25T07:52:12.000Z</time>
      </trkpt>
      <trkpt lat="43.36887" lon="6.12859">
        <ele>332.412541</ele>
        <time>2025-04-25T07:52:12.000Z</time>
      </trkpt>
      <trkpt lat="43.36884" lon="6.12862">
        <ele>332.633164</ele>
        <time>2025-04-25T07:52:13.000Z</time>
      </trkpt>
      <trkpt lat="43.36884" lon="6.12862">
        <ele>332.633164</ele>
        <time>2025-04-25T07:52:13.000Z</time>
      </trkpt>
      <trkpt lat="43.36879" lon="6.12865">
        <ele>332.901097</ele>
        <time>2025-04-25T07:52:14.000Z</time>
      </trkpt>
      <trkpt lat="43.36879" lon="6.12865">
        <ele>332.901097</ele>
        <time>2025-04-25T07:52:14.000Z</time>
      </trkpt>
      <trkpt lat="43.36875" lon="6.12869">
        <ele>333.166392</ele>
        <time>2025-04-25T07:52:15.000Z</time>
      </trkpt>
      <trkpt lat="43.36875" lon="6.12869">
        <ele>333.166392</ele>
        <time>2025-04-25T07:52:15.000Z</time>
      </trkpt>
      <trkpt lat="43.36872" lon="6.12872">
        <ele>333.395259</ele>
        <time>2025-04-25T07:52:16.000Z</time>
      </trkpt>
      <trkpt lat="43.36872" lon="6.12872">
        <ele>333.395259</ele>
        <time>2025-04-25T07:52:16.000Z</time>
      </trkpt>
      <trkpt lat="43.36868" lon="6.12876">
        <ele>333.628737</ele>
        <time>2025-04-25T07:52:17.000Z</time>
      </trkpt>
      <trkpt lat="43.36868" lon="6.12876">
        <ele>333.628737</ele>
        <time>2025-04-25T07:52:17.000Z</time>
      </trkpt>
      <trkpt lat="43.36864" lon="6.12879">
        <ele>333.894666</ele>
        <time>2025-04-25T07:52:18.000Z</time>
      </trkpt>
      <trkpt lat="43.36864" lon="6.12879">
        <ele>333.894666</ele>
        <time>2025-04-25T07:52:18.000Z</time>
      </trkpt>
      <trkpt lat="43.36861" lon="6.12882">
        <ele>334.13056</ele>
        <time>2025-04-25T07:52:19.000Z</time>
      </trkpt>
      <trkpt lat="43.36861" lon="6.12882">
        <ele>334.13056</ele>
        <time>2025-04-25T07:52:19.000Z</time>
      </trkpt>
      <trkpt lat="43.36858" lon="6.12886">
        <ele>334.353611</ele>
        <time>2025-04-25T07:52:20.000Z</time>
      </trkpt>
      <trkpt lat="43.36858" lon="6.12886">
        <ele>334.353611</ele>
        <time>2025-04-25T07:52:20.000Z</time>
      </trkpt>
      <trkpt lat="43.36855" lon="6.1289">
        <ele>334.572489</ele>
        <time>2025-04-25T07:52:20.000Z</time>
      </trkpt>
      <trkpt lat="43.36855" lon="6.1289">
        <ele>334.572489</ele>
        <time>2025-04-25T07:52:20.000Z</time>
      </trkpt>
      <trkpt lat="43.36851" lon="6.12894">
        <ele>334.822665</ele>
        <time>2025-04-25T07:52:21.000Z</time>
      </trkpt>
      <trkpt lat="43.36851" lon="6.12894">
        <ele>334.822665</ele>
        <time>2025-04-25T07:52:21.000Z</time>
      </trkpt>
      <trkpt lat="43.36848" lon="6.12897">
        <ele>335.033855</ele>
        <time>2025-04-25T07:52:23.000Z</time>
      </trkpt>
      <trkpt lat="43.36848" lon="6.12897">
        <ele>335.033855</ele>
        <time>2025-04-25T07:52:23.000Z</time>
      </trkpt>
      <trkpt lat="43.36845" lon="6.129">
        <ele>335.254349</ele>
        <time>2025-04-25T07:52:24.000Z</time>
      </trkpt>
      <trkpt lat="43.36845" lon="6.129">
        <ele>335.254349</ele>
        <time>2025-04-25T07:52:24.000Z</time>
      </trkpt>
      <trkpt lat="43.36842" lon="6.12904">
        <ele>335.465538</ele>
        <time>2025-04-25T07:52:25.000Z</time>
      </trkpt>
      <trkpt lat="43.36842" lon="6.12904">
        <ele>335.465538</ele>
        <time>2025-04-25T07:52:25.000Z</time>
      </trkpt>
      <trkpt lat="43.36839" lon="6.12907">
        <ele>335.69018</ele>
        <time>2025-04-25T07:52:26.000Z</time>
      </trkpt>
      <trkpt lat="43.36839" lon="6.12907">
        <ele>335.69018</ele>
        <time>2025-04-25T07:52:26.000Z</time>
      </trkpt>
      <trkpt lat="43.36835" lon="6.12909">
        <ele>335.898492</ele>
        <time>2025-04-25T07:52:27.000Z</time>
      </trkpt>
      <trkpt lat="43.36835" lon="6.12909">
        <ele>335.898492</ele>
        <time>2025-04-25T07:52:27.000Z</time>
      </trkpt>
      <trkpt lat="43.36831" lon="6.12912">
        <ele>336.133639</ele>
        <time>2025-04-25T07:52:28.000Z</time>
      </trkpt>
      <trkpt lat="43.36831" lon="6.12912">
        <ele>336.133639</ele>
        <time>2025-04-25T07:52:28.000Z</time>
      </trkpt>
      <trkpt lat="43.36828" lon="6.12914">
        <ele>336.368787</ele>
        <time>2025-04-25T07:52:28.000Z</time>
      </trkpt>
      <trkpt lat="43.36828" lon="6.12914">
        <ele>336.368787</ele>
        <time>2025-04-25T07:52:28.000Z</time>
      </trkpt>
      <trkpt lat="43.36824" lon="6.12918">
        <ele>336.622464</ele>
        <time>2025-04-25T07:52:29.000Z</time>
      </trkpt>
      <trkpt lat="43.36824" lon="6.12918">
        <ele>336.622464</ele>
        <time>2025-04-25T07:52:29.000Z</time>
      </trkpt>
      <trkpt lat="43.3682" lon="6.12922">
        <ele>336.877823</ele>
        <time>2025-04-25T07:52:31.000Z</time>
      </trkpt>
      <trkpt lat="43.3682" lon="6.12922">
        <ele>336.877823</ele>
        <time>2025-04-25T07:52:31.000Z</time>
      </trkpt>
      <trkpt lat="43.36817" lon="6.12926">
        <ele>337.113161</ele>
        <time>2025-04-25T07:52:32.000Z</time>
      </trkpt>
      <trkpt lat="43.36817" lon="6.12926">
        <ele>337.113161</ele>
        <time>2025-04-25T07:52:32.000Z</time>
      </trkpt>
      <trkpt lat="43.36814" lon="6.12931">
        <ele>337.376557</ele>
        <time>2025-04-25T07:52:32.000Z</time>
      </trkpt>
      <trkpt lat="43.36814" lon="6.12931">
        <ele>337.376557</ele>
        <time>2025-04-25T07:52:32.000Z</time>
      </trkpt>
      <trkpt lat="43.36811" lon="6.12935">
        <ele>337.614763</ele>
        <time>2025-04-25T07:52:33.000Z</time>
      </trkpt>
      <trkpt lat="43.36811" lon="6.12935">
        <ele>337.614763</ele>
        <time>2025-04-25T07:52:33.000Z</time>
      </trkpt>
      <trkpt lat="43.36807" lon="6.1294">
        <ele>337.876956</ele>
        <time>2025-04-25T07:52:35.000Z</time>
      </trkpt>
      <trkpt lat="43.36807" lon="6.1294">
        <ele>337.876956</ele>
        <time>2025-04-25T07:52:35.000Z</time>
      </trkpt>
      <trkpt lat="43.36804" lon="6.12944">
        <ele>338.140352</ele>
        <time>2025-04-25T07:52:36.000Z</time>
      </trkpt>
      <trkpt lat="43.36804" lon="6.12944">
        <ele>338.140352</ele>
        <time>2025-04-25T07:52:36.000Z</time>
      </trkpt>
      <trkpt lat="43.36801" lon="6.12948">
        <ele>338.364567</ele>
        <time>2025-04-25T07:52:36.000Z</time>
      </trkpt>
      <trkpt lat="43.36801" lon="6.12948">
        <ele>338.364567</ele>
        <time>2025-04-25T07:52:36.000Z</time>
      </trkpt>
      <trkpt lat="43.36798" lon="6.12952">
        <ele>338.598252</ele>
        <time>2025-04-25T07:52:37.000Z</time>
      </trkpt>
      <trkpt lat="43.36798" lon="6.12952">
        <ele>338.598252</ele>
        <time>2025-04-25T07:52:37.000Z</time>
      </trkpt>
      <trkpt lat="43.36794" lon="6.12956">
        <ele>338.851929</ele>
        <time>2025-04-25T07:52:38.000Z</time>
      </trkpt>
      <trkpt lat="43.36794" lon="6.12956">
        <ele>338.851929</ele>
        <time>2025-04-25T07:52:38.000Z</time>
      </trkpt>
      <trkpt lat="43.3679" lon="6.12959">
        <ele>339.105606</ele>
        <time>2025-04-25T07:52:40.000Z</time>
      </trkpt>
      <trkpt lat="43.3679" lon="6.12959">
        <ele>339.105606</ele>
        <time>2025-04-25T07:52:40.000Z</time>
      </trkpt>
      <trkpt lat="43.36787" lon="6.12962">
        <ele>339.329872</ele>
        <time>2025-04-25T07:52:41.000Z</time>
      </trkpt>
      <trkpt lat="43.36787" lon="6.12962">
        <ele>339.329872</ele>
        <time>2025-04-25T07:52:41.000Z</time>
      </trkpt>
      <trkpt lat="43.36783" lon="6.12966">
        <ele>339.585891</ele>
        <time>2025-04-25T07:52:42.000Z</time>
      </trkpt>
      <trkpt lat="43.36783" lon="6.12966">
        <ele>339.585891</ele>
        <time>2025-04-25T07:52:42.000Z</time>
      </trkpt>
      <trkpt lat="43.36779" lon="6.12969">
        <ele>339.837323</ele>
        <time>2025-04-25T07:52:42.000Z</time>
      </trkpt>
      <trkpt lat="43.36779" lon="6.12969">
        <ele>339.837323</ele>
        <time>2025-04-25T07:52:42.000Z</time>
      </trkpt>
      <trkpt lat="43.36775" lon="6.12973">
        <ele>340.091</ele>
        <time>2025-04-25T07:52:44.000Z</time>
      </trkpt>
      <trkpt lat="43.36775" lon="6.12973">
        <ele>340.091</ele>
        <time>2025-04-25T07:52:44.000Z</time>
      </trkpt>
      <trkpt lat="43.36771" lon="6.12977">
        <ele>340.346966</ele>
        <time>2025-04-25T07:52:44.000Z</time>
      </trkpt>
      <trkpt lat="43.36771" lon="6.12977">
        <ele>340.346966</ele>
        <time>2025-04-25T07:52:44.000Z</time>
      </trkpt>
      <trkpt lat="43.36768" lon="6.1298">
        <ele>340.596197</ele>
        <time>2025-04-25T07:52:46.000Z</time>
      </trkpt>
      <trkpt lat="43.36764" lon="6.12983">
        <ele>340.831772</ele>
        <time>2025-04-25T07:52:47.000Z</time>
      </trkpt>
      <trkpt lat="43.36764" lon="6.12983">
        <ele>340.831772</ele>
        <time>2025-04-25T07:52:47.000Z</time>
      </trkpt>
      <trkpt lat="43.36761" lon="6.12987">
        <ele>341.038066</ele>
        <time>2025-04-25T07:52:47.000Z</time>
      </trkpt>
      <trkpt lat="43.36761" lon="6.12987">
        <ele>341.038066</ele>
        <time>2025-04-25T07:52:47.000Z</time>
      </trkpt>
      <trkpt lat="43.36757" lon="6.1299">
        <ele>341.296361</ele>
        <time>2025-04-25T07:52:48.000Z</time>
      </trkpt>
      <trkpt lat="43.36757" lon="6.1299">
        <ele>341.296361</ele>
        <time>2025-04-25T07:52:48.000Z</time>
      </trkpt>
      <trkpt lat="43.36755" lon="6.12994">
        <ele>341.505898</ele>
        <time>2025-04-25T07:52:50.000Z</time>
      </trkpt>
      <trkpt lat="43.36755" lon="6.12994">
        <ele>341.505898</ele>
        <time>2025-04-25T07:52:50.000Z</time>
      </trkpt>
      <trkpt lat="43.36752" lon="6.12998">
        <ele>341.700474</ele>
        <time>2025-04-25T07:52:50.000Z</time>
      </trkpt>
      <trkpt lat="43.36752" lon="6.12998">
        <ele>341.700474</ele>
        <time>2025-04-25T07:52:50.000Z</time>
      </trkpt>
      <trkpt lat="43.3675" lon="6.13002">
        <ele>341.915727</ele>
        <time>2025-04-25T07:52:51.000Z</time>
      </trkpt>
      <trkpt lat="43.3675" lon="6.13002">
        <ele>341.915727</ele>
        <time>2025-04-25T07:52:51.000Z</time>
      </trkpt>
      <trkpt lat="43.36748" lon="6.13006">
        <ele>342.154971</ele>
        <time>2025-04-25T07:52:52.000Z</time>
      </trkpt>
      <trkpt lat="43.36748" lon="6.13006">
        <ele>342.154971</ele>
        <time>2025-04-25T07:52:52.000Z</time>
      </trkpt>
      <trkpt lat="43.36746" lon="6.1301">
        <ele>342.422659</ele>
        <time>2025-04-25T07:52:53.000Z</time>
      </trkpt>
      <trkpt lat="43.36746" lon="6.1301">
        <ele>342.422659</ele>
        <time>2025-04-25T07:52:53.000Z</time>
      </trkpt>
      <trkpt lat="43.36743" lon="6.13015">
        <ele>342.722933</ele>
        <time>2025-04-25T07:52:55.000Z</time>
      </trkpt>
      <trkpt lat="43.36743" lon="6.13015">
        <ele>342.722933</ele>
        <time>2025-04-25T07:52:55.000Z</time>
      </trkpt>
      <trkpt lat="43.36741" lon="6.1302">
        <ele>343.028045</ele>
        <time>2025-04-25T07:52:55.000Z</time>
      </trkpt>
      <trkpt lat="43.36741" lon="6.1302">
        <ele>343.028045</ele>
        <time>2025-04-25T07:52:55.000Z</time>
      </trkpt>
      <trkpt lat="43.36738" lon="6.13025">
        <ele>343.320414</ele>
        <time>2025-04-25T07:52:57.000Z</time>
      </trkpt>
      <trkpt lat="43.36738" lon="6.13025">
        <ele>343.320414</ele>
        <time>2025-04-25T07:52:57.000Z</time>
      </trkpt>
      <trkpt lat="43.36736" lon="6.13031">
        <ele>343.644822</ele>
        <time>2025-04-25T07:52:58.000Z</time>
      </trkpt>
      <trkpt lat="43.36736" lon="6.13031">
        <ele>343.644822</ele>
        <time>2025-04-25T07:52:58.000Z</time>
      </trkpt>
      <trkpt lat="43.36733" lon="6.13034">
        <ele>343.892681</ele>
        <time>2025-04-25T07:52:59.000Z</time>
      </trkpt>
      <trkpt lat="43.36733" lon="6.13034">
        <ele>343.892681</ele>
        <time>2025-04-25T07:52:59.000Z</time>
      </trkpt>
      <trkpt lat="43.3673" lon="6.13039">
        <ele>344.187831</ele>
        <time>2025-04-25T07:53:00.000Z</time>
      </trkpt>
      <trkpt lat="43.3673" lon="6.13039">
        <ele>344.187831</ele>
        <time>2025-04-25T07:53:00.000Z</time>
      </trkpt>
      <trkpt lat="43.36727" lon="6.13043">
        <ele>344.498591</ele>
        <time>2025-04-25T07:53:01.000Z</time>
      </trkpt>
      <trkpt lat="43.36727" lon="6.13043">
        <ele>344.498591</ele>
        <time>2025-04-25T07:53:01.000Z</time>
      </trkpt>
      <trkpt lat="43.36724" lon="6.13047">
        <ele>344.793741</ele>
        <time>2025-04-25T07:53:01.000Z</time>
      </trkpt>
      <trkpt lat="43.36724" lon="6.13047">
        <ele>344.793741</ele>
        <time>2025-04-25T07:53:01.000Z</time>
      </trkpt>
      <trkpt lat="43.36721" lon="6.13051">
        <ele>345.074782</ele>
        <time>2025-04-25T07:53:03.000Z</time>
      </trkpt>
      <trkpt lat="43.36721" lon="6.13051">
        <ele>345.074782</ele>
        <time>2025-04-25T07:53:03.000Z</time>
      </trkpt>
      <trkpt lat="43.36718" lon="6.13056">
        <ele>345.410719</ele>
        <time>2025-04-25T07:53:04.000Z</time>
      </trkpt>
      <trkpt lat="43.36718" lon="6.13056">
        <ele>345.410719</ele>
        <time>2025-04-25T07:53:04.000Z</time>
      </trkpt>
      <trkpt lat="43.36715" lon="6.13061">
        <ele>345.710994</ele>
        <time>2025-04-25T07:53:04.000Z</time>
      </trkpt>
      <trkpt lat="43.36715" lon="6.13061">
        <ele>345.710994</ele>
        <time>2025-04-25T07:53:04.000Z</time>
      </trkpt>
      <trkpt lat="43.36713" lon="6.13066">
        <ele>346.023206</ele>
        <time>2025-04-25T07:53:06.000Z</time>
      </trkpt>
      <trkpt lat="43.36713" lon="6.13066">
        <ele>346.023206</ele>
        <time>2025-04-25T07:53:06.000Z</time>
      </trkpt>
      <trkpt lat="43.3671" lon="6.13071">
        <ele>346.343708</ele>
        <time>2025-04-25T07:53:07.000Z</time>
      </trkpt>
      <trkpt lat="43.3671" lon="6.13071">
        <ele>346.343708</ele>
        <time>2025-04-25T07:53:07.000Z</time>
      </trkpt>
      <trkpt lat="43.36708" lon="6.13076">
        <ele>346.613279</ele>
        <time>2025-04-25T07:53:08.000Z</time>
      </trkpt>
      <trkpt lat="43.36708" lon="6.13076">
        <ele>346.613279</ele>
        <time>2025-04-25T07:53:08.000Z</time>
      </trkpt>
      <trkpt lat="43.36707" lon="6.13082">
        <ele>346.919561</ele>
        <time>2025-04-25T07:53:09.000Z</time>
      </trkpt>
      <trkpt lat="43.36707" lon="6.13082">
        <ele>346.919561</ele>
        <time>2025-04-25T07:53:09.000Z</time>
      </trkpt>
      <trkpt lat="43.36705" lon="6.13087">
        <ele>347.215178</ele>
        <time>2025-04-25T07:53:10.000Z</time>
      </trkpt>
      <trkpt lat="43.36705" lon="6.13087">
        <ele>347.215178</ele>
        <time>2025-04-25T07:53:10.000Z</time>
      </trkpt>
      <trkpt lat="43.36705" lon="6.13094">
        <ele>347.530821</ele>
        <time>2025-04-25T07:53:11.000Z</time>
      </trkpt>
      <trkpt lat="43.36705" lon="6.13094">
        <ele>347.530821</ele>
        <time>2025-04-25T07:53:11.000Z</time>
      </trkpt>
      <trkpt lat="43.36704" lon="6.131">
        <ele>347.840997</ele>
        <time>2025-04-25T07:53:12.000Z</time>
      </trkpt>
      <trkpt lat="43.36704" lon="6.131">
        <ele>347.840997</ele>
        <time>2025-04-25T07:53:12.000Z</time>
      </trkpt>
      <trkpt lat="43.36702" lon="6.13104">
        <ele>348.107506</ele>
        <time>2025-04-25T07:53:13.000Z</time>
      </trkpt>
      <trkpt lat="43.36702" lon="6.13104">
        <ele>348.107506</ele>
        <time>2025-04-25T07:53:13.000Z</time>
      </trkpt>
      <trkpt lat="43.367" lon="6.13109">
        <ele>348.35861</ele>
        <time>2025-04-25T07:53:14.000Z</time>
      </trkpt>
      <trkpt lat="43.367" lon="6.13109">
        <ele>348.35861</ele>
        <time>2025-04-25T07:53:14.000Z</time>
      </trkpt>
      <trkpt lat="43.36699" lon="6.13114">
        <ele>348.615909</ele>
        <time>2025-04-25T07:53:14.000Z</time>
      </trkpt>
      <trkpt lat="43.36699" lon="6.13114">
        <ele>348.615909</ele>
        <time>2025-04-25T07:53:14.000Z</time>
      </trkpt>
      <trkpt lat="43.36697" lon="6.13118">
        <ele>348.868145</ele>
        <time>2025-04-25T07:53:16.000Z</time>
      </trkpt>
      <trkpt lat="43.36697" lon="6.13118">
        <ele>348.868145</ele>
        <time>2025-04-25T07:53:16.000Z</time>
      </trkpt>
      <trkpt lat="43.36695" lon="6.13122">
        <ele>349.107658</ele>
        <time>2025-04-25T07:53:17.000Z</time>
      </trkpt>
      <trkpt lat="43.36695" lon="6.13122">
        <ele>349.107658</ele>
        <time>2025-04-25T07:53:17.000Z</time>
      </trkpt>
      <trkpt lat="43.36692" lon="6.13126">
        <ele>349.388699</ele>
        <time>2025-04-25T07:53:18.000Z</time>
      </trkpt>
      <trkpt lat="43.36692" lon="6.13126">
        <ele>349.388699</ele>
        <time>2025-04-25T07:53:18.000Z</time>
      </trkpt>
      <trkpt lat="43.3669" lon="6.1313">
        <ele>349.665221</ele>
        <time>2025-04-25T07:53:19.000Z</time>
      </trkpt>
      <trkpt lat="43.3669" lon="6.1313">
        <ele>349.665221</ele>
        <time>2025-04-25T07:53:19.000Z</time>
      </trkpt>
      <trkpt lat="43.36687" lon="6.13134">
        <ele>349.951532</ele>
        <time>2025-04-25T07:53:20.000Z</time>
      </trkpt>
      <trkpt lat="43.36687" lon="6.13134">
        <ele>349.951532</ele>
        <time>2025-04-25T07:53:20.000Z</time>
      </trkpt>
      <trkpt lat="43.36684" lon="6.13138">
        <ele>350.229361</ele>
        <time>2025-04-25T07:53:21.000Z</time>
      </trkpt>
      <trkpt lat="43.36684" lon="6.13138">
        <ele>350.229361</ele>
        <time>2025-04-25T07:53:21.000Z</time>
      </trkpt>
      <trkpt lat="43.3668" lon="6.1314">
        <ele>350.521949</ele>
        <time>2025-04-25T07:53:22.000Z</time>
      </trkpt>
      <trkpt lat="43.3668" lon="6.1314">
        <ele>350.521949</ele>
        <time>2025-04-25T07:53:22.000Z</time>
      </trkpt>
      <trkpt lat="43.36675" lon="6.13141">
        <ele>350.839006</ele>
        <time>2025-04-25T07:53:22.000Z</time>
      </trkpt>
      <trkpt lat="43.36675" lon="6.13141">
        <ele>350.839006</ele>
        <time>2025-04-25T07:53:22.000Z</time>
      </trkpt>
      <trkpt lat="43.36671" lon="6.13143">
        <ele>351.134789</ele>
        <time>2025-04-25T07:53:24.000Z</time>
      </trkpt>
      <trkpt lat="43.36671" lon="6.13143">
        <ele>351.134789</ele>
        <time>2025-04-25T07:53:24.000Z</time>
      </trkpt>
      <trkpt lat="43.36667" lon="6.13144">
        <ele>351.41191</ele>
        <time>2025-04-25T07:53:24.000Z</time>
      </trkpt>
      <trkpt lat="43.36667" lon="6.13144">
        <ele>351.41191</ele>
        <time>2025-04-25T07:53:24.000Z</time>
      </trkpt>
      <trkpt lat="43.36663" lon="6.13147">
        <ele>351.700695</ele>
        <time>2025-04-25T07:53:26.000Z</time>
      </trkpt>
      <trkpt lat="43.36663" lon="6.13147">
        <ele>351.700695</ele>
        <time>2025-04-25T07:53:26.000Z</time>
      </trkpt>
      <trkpt lat="43.3666" lon="6.1315">
        <ele>352.002803</ele>
        <time>2025-04-25T07:53:27.000Z</time>
      </trkpt>
      <trkpt lat="43.3666" lon="6.1315">
        <ele>352.002803</ele>
        <time>2025-04-25T07:53:27.000Z</time>
      </trkpt>
      <trkpt lat="43.36657" lon="6.13154">
        <ele>352.301551</ele>
        <time>2025-04-25T07:53:28.000Z</time>
      </trkpt>
      <trkpt lat="43.36657" lon="6.13154">
        <ele>352.301551</ele>
        <time>2025-04-25T07:53:28.000Z</time>
      </trkpt>
      <trkpt lat="43.36655" lon="6.13158">
        <ele>352.553789</ele>
        <time>2025-04-25T07:53:29.000Z</time>
      </trkpt>
      <trkpt lat="43.36655" lon="6.13158">
        <ele>352.553789</ele>
        <time>2025-04-25T07:53:29.000Z</time>
      </trkpt>
      <trkpt lat="43.36654" lon="6.13163">
        <ele>352.822493</ele>
        <time>2025-04-25T07:53:29.000Z</time>
      </trkpt>
      <trkpt lat="43.36654" lon="6.13163">
        <ele>352.822493</ele>
        <time>2025-04-25T07:53:29.000Z</time>
      </trkpt>
      <trkpt lat="43.36653" lon="6.13168">
        <ele>353.077734</ele>
        <time>2025-04-25T07:53:31.000Z</time>
      </trkpt>
      <trkpt lat="43.36653" lon="6.13168">
        <ele>353.077734</ele>
        <time>2025-04-25T07:53:31.000Z</time>
      </trkpt>
      <trkpt lat="43.36652" lon="6.13173">
        <ele>353.33985</ele>
        <time>2025-04-25T07:53:32.000Z</time>
      </trkpt>
      <trkpt lat="43.36652" lon="6.13173">
        <ele>353.33985</ele>
        <time>2025-04-25T07:53:32.000Z</time>
      </trkpt>
      <trkpt lat="43.36652" lon="6.13179">
        <ele>353.596981</ele>
        <time>2025-04-25T07:53:33.000Z</time>
      </trkpt>
      <trkpt lat="43.36652" lon="6.13179">
        <ele>353.596981</ele>
        <time>2025-04-25T07:53:33.000Z</time>
      </trkpt>
      <trkpt lat="43.36652" lon="6.13184">
        <ele>353.874056</ele>
        <time>2025-04-25T07:53:34.000Z</time>
      </trkpt>
      <trkpt lat="43.36652" lon="6.13184">
        <ele>353.874056</ele>
        <time>2025-04-25T07:53:34.000Z</time>
      </trkpt>
      <trkpt lat="43.36651" lon="6.13189">
        <ele>354.136172</ele>
        <time>2025-04-25T07:53:35.000Z</time>
      </trkpt>
      <trkpt lat="43.36651" lon="6.13189">
        <ele>354.136172</ele>
        <time>2025-04-25T07:53:35.000Z</time>
      </trkpt>
      <trkpt lat="43.36651" lon="6.13195">
        <ele>354.407757</ele>
        <time>2025-04-25T07:53:36.000Z</time>
      </trkpt>
      <trkpt lat="43.36651" lon="6.13195">
        <ele>354.407757</ele>
        <time>2025-04-25T07:53:36.000Z</time>
      </trkpt>
      <trkpt lat="43.3665" lon="6.13201">
        <ele>354.64791</ele>
        <time>2025-04-25T07:53:37.000Z</time>
      </trkpt>
      <trkpt lat="43.3665" lon="6.13201">
        <ele>354.64791</ele>
        <time>2025-04-25T07:53:37.000Z</time>
      </trkpt>
      <trkpt lat="43.36649" lon="6.13206">
        <ele>354.876454</ele>
        <time>2025-04-25T07:53:38.000Z</time>
      </trkpt>
      <trkpt lat="43.36649" lon="6.13206">
        <ele>354.876454</ele>
        <time>2025-04-25T07:53:38.000Z</time>
      </trkpt>
      <trkpt lat="43.36647" lon="6.13212">
        <ele>355.118057</ele>
        <time>2025-04-25T07:53:39.000Z</time>
      </trkpt>
      <trkpt lat="43.36647" lon="6.13212">
        <ele>355.118057</ele>
        <time>2025-04-25T07:53:39.000Z</time>
      </trkpt>
      <trkpt lat="43.36647" lon="6.13217">
        <ele>355.32709</ele>
        <time>2025-04-25T07:53:40.000Z</time>
      </trkpt>
      <trkpt lat="43.36647" lon="6.13217">
        <ele>355.32709</ele>
        <time>2025-04-25T07:53:40.000Z</time>
      </trkpt>
      <trkpt lat="43.36646" lon="6.13223">
        <ele>355.576042</ele>
        <time>2025-04-25T07:53:41.000Z</time>
      </trkpt>
      <trkpt lat="43.36646" lon="6.13223">
        <ele>355.576042</ele>
        <time>2025-04-25T07:53:41.000Z</time>
      </trkpt>
      <trkpt lat="43.36646" lon="6.13229">
        <ele>355.792392</ele>
        <time>2025-04-25T07:53:42.000Z</time>
      </trkpt>
      <trkpt lat="43.36646" lon="6.13229">
        <ele>355.792392</ele>
        <time>2025-04-25T07:53:42.000Z</time>
      </trkpt>
      <trkpt lat="43.36646" lon="6.13234">
        <ele>356.017835</ele>
        <time>2025-04-25T07:53:43.000Z</time>
      </trkpt>
      <trkpt lat="43.36646" lon="6.13234">
        <ele>356.017835</ele>
        <time>2025-04-25T07:53:43.000Z</time>
      </trkpt>
      <trkpt lat="43.36646" lon="6.13239">
        <ele>356.210146</ele>
        <time>2025-04-25T07:53:44.000Z</time>
      </trkpt>
      <trkpt lat="43.36646" lon="6.13239">
        <ele>356.210146</ele>
        <time>2025-04-25T07:53:44.000Z</time>
      </trkpt>
      <trkpt lat="43.36646" lon="6.13245">
        <ele>356.43559</ele>
        <time>2025-04-25T07:53:45.000Z</time>
      </trkpt>
      <trkpt lat="43.36646" lon="6.13245">
        <ele>356.43559</ele>
        <time>2025-04-25T07:53:45.000Z</time>
      </trkpt>
      <trkpt lat="43.36646" lon="6.13249">
        <ele>356.619888</ele>
        <time>2025-04-25T07:53:46.000Z</time>
      </trkpt>
      <trkpt lat="43.36646" lon="6.13249">
        <ele>356.619888</ele>
        <time>2025-04-25T07:53:46.000Z</time>
      </trkpt>
      <trkpt lat="43.36645" lon="6.13254">
        <ele>356.83676</ele>
        <time>2025-04-25T07:53:47.000Z</time>
      </trkpt>
      <trkpt lat="43.36645" lon="6.13254">
        <ele>356.83676</ele>
        <time>2025-04-25T07:53:47.000Z</time>
      </trkpt>
      <trkpt lat="43.36644" lon="6.1326">
        <ele>357.053739</ele>
        <time>2025-04-25T07:53:48.000Z</time>
      </trkpt>
      <trkpt lat="43.36644" lon="6.1326">
        <ele>357.053739</ele>
        <time>2025-04-25T07:53:48.000Z</time>
      </trkpt>
      <trkpt lat="43.36643" lon="6.13265">
        <ele>357.278463</ele>
        <time>2025-04-25T07:53:49.000Z</time>
      </trkpt>
      <trkpt lat="43.36643" lon="6.13265">
        <ele>357.278463</ele>
        <time>2025-04-25T07:53:49.000Z</time>
      </trkpt>
      <trkpt lat="43.36642" lon="6.13271">
        <ele>357.502171</ele>
        <time>2025-04-25T07:53:50.000Z</time>
      </trkpt>
      <trkpt lat="43.36642" lon="6.13271">
        <ele>357.502171</ele>
        <time>2025-04-25T07:53:50.000Z</time>
      </trkpt>
      <trkpt lat="43.36641" lon="6.13277">
        <ele>357.751491</ele>
        <time>2025-04-25T07:53:51.000Z</time>
      </trkpt>
      <trkpt lat="43.36641" lon="6.13277">
        <ele>357.751491</ele>
        <time>2025-04-25T07:53:51.000Z</time>
      </trkpt>
      <trkpt lat="43.3664" lon="6.13281">
        <ele>357.953131</ele>
        <time>2025-04-25T07:53:52.000Z</time>
      </trkpt>
      <trkpt lat="43.3664" lon="6.13281">
        <ele>357.953131</ele>
        <time>2025-04-25T07:53:52.000Z</time>
      </trkpt>
      <trkpt lat="43.36639" lon="6.13287">
        <ele>358.167898</ele>
        <time>2025-04-25T07:53:53.000Z</time>
      </trkpt>
      <trkpt lat="43.36639" lon="6.13287">
        <ele>358.167898</ele>
        <time>2025-04-25T07:53:53.000Z</time>
      </trkpt>
      <trkpt lat="43.36638" lon="6.13292">
        <ele>358.381032</ele>
        <time>2025-04-25T07:53:53.000Z</time>
      </trkpt>
      <trkpt lat="43.36638" lon="6.13292">
        <ele>358.381032</ele>
        <time>2025-04-25T07:53:53.000Z</time>
      </trkpt>
      <trkpt lat="43.36636" lon="6.13297">
        <ele>358.598011</ele>
        <time>2025-04-25T07:53:55.000Z</time>
      </trkpt>
      <trkpt lat="43.36636" lon="6.13297">
        <ele>358.598011</ele>
        <time>2025-04-25T07:53:55.000Z</time>
      </trkpt>
      <trkpt lat="43.36635" lon="6.13302">
        <ele>358.816884</ele>
        <time>2025-04-25T07:53:56.000Z</time>
      </trkpt>
      <trkpt lat="43.36635" lon="6.13302">
        <ele>358.816884</ele>
        <time>2025-04-25T07:53:56.000Z</time>
      </trkpt>
      <trkpt lat="43.36634" lon="6.13307">
        <ele>359.030018</ele>
        <time>2025-04-25T07:53:57.000Z</time>
      </trkpt>
      <trkpt lat="43.36634" lon="6.13307">
        <ele>359.030018</ele>
        <time>2025-04-25T07:53:57.000Z</time>
      </trkpt>
      <trkpt lat="43.36633" lon="6.13312">
        <ele>359.256251</ele>
        <time>2025-04-25T07:53:58.000Z</time>
      </trkpt>
      <trkpt lat="43.36633" lon="6.13312">
        <ele>359.256251</ele>
        <time>2025-04-25T07:53:58.000Z</time>
      </trkpt>
      <trkpt lat="43.36631" lon="6.13318">
        <ele>359.502894</ele>
        <time>2025-04-25T07:53:59.000Z</time>
      </trkpt>
      <trkpt lat="43.36631" lon="6.13318">
        <ele>359.502894</ele>
        <time>2025-04-25T07:53:59.000Z</time>
      </trkpt>
      <trkpt lat="43.3663" lon="6.13324">
        <ele>359.727577</ele>
        <time>2025-04-25T07:54:00.000Z</time>
      </trkpt>
      <trkpt lat="43.3663" lon="6.13324">
        <ele>359.727577</ele>
        <time>2025-04-25T07:54:00.000Z</time>
      </trkpt>
      <trkpt lat="43.36629" lon="6.13329">
        <ele>359.960164</ele>
        <time>2025-04-25T07:54:01.000Z</time>
      </trkpt>
      <trkpt lat="43.36629" lon="6.13329">
        <ele>359.960164</ele>
        <time>2025-04-25T07:54:01.000Z</time>
      </trkpt>
      <trkpt lat="43.36628" lon="6.13335">
        <ele>360.204197</ele>
        <time>2025-04-25T07:54:02.000Z</time>
      </trkpt>
      <trkpt lat="43.36628" lon="6.13335">
        <ele>360.204197</ele>
        <time>2025-04-25T07:54:02.000Z</time>
      </trkpt>
      <trkpt lat="43.36627" lon="6.13341">
        <ele>360.445802</ele>
        <time>2025-04-25T07:54:03.000Z</time>
      </trkpt>
      <trkpt lat="43.36627" lon="6.13341">
        <ele>360.445802</ele>
        <time>2025-04-25T07:54:03.000Z</time>
      </trkpt>
      <trkpt lat="43.36626" lon="6.13347">
        <ele>360.678211</ele>
        <time>2025-04-25T07:54:04.000Z</time>
      </trkpt>
      <trkpt lat="43.36626" lon="6.13347">
        <ele>360.678211</ele>
        <time>2025-04-25T07:54:04.000Z</time>
      </trkpt>
      <trkpt lat="43.36624" lon="6.13352">
        <ele>360.908136</ele>
        <time>2025-04-25T07:54:05.000Z</time>
      </trkpt>
      <trkpt lat="43.36624" lon="6.13352">
        <ele>360.908136</ele>
        <time>2025-04-25T07:54:05.000Z</time>
      </trkpt>
      <trkpt lat="43.36623" lon="6.13358">
        <ele>361.158558</ele>
        <time>2025-04-25T07:54:06.000Z</time>
      </trkpt>
      <trkpt lat="43.36623" lon="6.13358">
        <ele>361.158558</ele>
        <time>2025-04-25T07:54:06.000Z</time>
      </trkpt>
      <trkpt lat="43.36621" lon="6.13363">
        <ele>361.397667</ele>
        <time>2025-04-25T07:54:07.000Z</time>
      </trkpt>
      <trkpt lat="43.36621" lon="6.13363">
        <ele>361.397667</ele>
        <time>2025-04-25T07:54:07.000Z</time>
      </trkpt>
      <trkpt lat="43.3662" lon="6.13369">
        <ele>361.618495</ele>
        <time>2025-04-25T07:54:08.000Z</time>
      </trkpt>
      <trkpt lat="43.3662" lon="6.13369">
        <ele>361.618495</ele>
        <time>2025-04-25T07:54:08.000Z</time>
      </trkpt>
      <trkpt lat="43.36618" lon="6.13374">
        <ele>361.844726</ele>
        <time>2025-04-25T07:54:09.000Z</time>
      </trkpt>
      <trkpt lat="43.36618" lon="6.13374">
        <ele>361.844726</ele>
        <time>2025-04-25T07:54:09.000Z</time>
      </trkpt>
      <trkpt lat="43.36617" lon="6.13379">
        <ele>362.080079</ele>
        <time>2025-04-25T07:54:10.000Z</time>
      </trkpt>
      <trkpt lat="43.36615" lon="6.13385">
        <ele>362.322952</ele>
        <time>2025-04-25T07:54:11.000Z</time>
      </trkpt>
      <trkpt lat="43.36615" lon="6.13385">
        <ele>362.322952</ele>
        <time>2025-04-25T07:54:11.000Z</time>
      </trkpt>
      <trkpt lat="43.36614" lon="6.1339">
        <ele>362.552877</ele>
        <time>2025-04-25T07:54:12.000Z</time>
      </trkpt>
      <trkpt lat="43.36614" lon="6.1339">
        <ele>362.552877</ele>
        <time>2025-04-25T07:54:12.000Z</time>
      </trkpt>
      <trkpt lat="43.36612" lon="6.13396">
        <ele>362.807757</ele>
        <time>2025-04-25T07:54:13.000Z</time>
      </trkpt>
      <trkpt lat="43.36612" lon="6.13396">
        <ele>362.807757</ele>
        <time>2025-04-25T07:54:13.000Z</time>
      </trkpt>
      <trkpt lat="43.3661" lon="6.13402">
        <ele>363.05899</ele>
        <time>2025-04-25T07:54:14.000Z</time>
      </trkpt>
      <trkpt lat="43.3661" lon="6.13402">
        <ele>363.05899</ele>
        <time>2025-04-25T07:54:14.000Z</time>
      </trkpt>
      <trkpt lat="43.36609" lon="6.13407">
        <ele>363.298099</ele>
        <time>2025-04-25T07:54:15.000Z</time>
      </trkpt>
      <trkpt lat="43.36607" lon="6.13413">
        <ele>363.545696</ele>
        <time>2025-04-25T07:54:15.000Z</time>
      </trkpt>
      <trkpt lat="43.36607" lon="6.13413">
        <ele>363.545696</ele>
        <time>2025-04-25T07:54:15.000Z</time>
      </trkpt>
      <trkpt lat="43.36605" lon="6.13419">
        <ele>363.784805</ele>
        <time>2025-04-25T07:54:17.000Z</time>
      </trkpt>
      <trkpt lat="43.36605" lon="6.13419">
        <ele>363.784805</ele>
        <time>2025-04-25T07:54:17.000Z</time>
      </trkpt>
      <trkpt lat="43.36604" lon="6.13425">
        <ele>364.048395</ele>
        <time>2025-04-25T07:54:17.000Z</time>
      </trkpt>
      <trkpt lat="43.36602" lon="6.13431">
        <ele>364.313293</ele>
        <time>2025-04-25T07:54:18.000Z</time>
      </trkpt>
      <trkpt lat="43.36602" lon="6.13431">
        <ele>364.313293</ele>
        <time>2025-04-25T07:54:18.000Z</time>
      </trkpt>
      <trkpt lat="43.366" lon="6.13437">
        <ele>364.569476</ele>
        <time>2025-04-25T07:54:20.000Z</time>
      </trkpt>
      <trkpt lat="43.366" lon="6.13437">
        <ele>364.569476</ele>
        <time>2025-04-25T07:54:20.000Z</time>
      </trkpt>
      <trkpt lat="43.36598" lon="6.13443">
        <ele>364.805001</ele>
        <time>2025-04-25T07:54:21.000Z</time>
      </trkpt>
      <trkpt lat="43.36598" lon="6.13443">
        <ele>364.805001</ele>
        <time>2025-04-25T07:54:21.000Z</time>
      </trkpt>
      <trkpt lat="43.36596" lon="6.13448">
        <ele>365.026958</ele>
        <time>2025-04-25T07:54:21.000Z</time>
      </trkpt>
      <trkpt lat="43.36594" lon="6.13454">
        <ele>365.285058</ele>
        <time>2025-04-25T07:54:23.000Z</time>
      </trkpt>
      <trkpt lat="43.36594" lon="6.13454">
        <ele>365.285058</ele>
        <time>2025-04-25T07:54:23.000Z</time>
      </trkpt>
      <trkpt lat="43.36592" lon="6.1346">
        <ele>365.502185</ele>
        <time>2025-04-25T07:54:24.000Z</time>
      </trkpt>
      <trkpt lat="43.36592" lon="6.1346">
        <ele>365.502185</ele>
        <time>2025-04-25T07:54:24.000Z</time>
      </trkpt>
      <trkpt lat="43.36591" lon="6.13465">
        <ele>365.720065</ele>
        <time>2025-04-25T07:54:25.000Z</time>
      </trkpt>
      <trkpt lat="43.36591" lon="6.13465">
        <ele>365.720065</ele>
        <time>2025-04-25T07:54:25.000Z</time>
      </trkpt>
      <trkpt lat="43.3659" lon="6.13471">
        <ele>365.939349</ele>
        <time>2025-04-25T07:54:26.000Z</time>
      </trkpt>
      <trkpt lat="43.3659" lon="6.13471">
        <ele>365.939349</ele>
        <time>2025-04-25T07:54:26.000Z</time>
      </trkpt>
      <trkpt lat="43.36589" lon="6.13476">
        <ele>366.150025</ele>
        <time>2025-04-25T07:54:27.000Z</time>
      </trkpt>
      <trkpt lat="43.36588" lon="6.13482">
        <ele>366.364281</ele>
        <time>2025-04-25T07:54:27.000Z</time>
      </trkpt>
      <trkpt lat="43.36588" lon="6.13482">
        <ele>366.364281</ele>
        <time>2025-04-25T07:54:27.000Z</time>
      </trkpt>
      <trkpt lat="43.36587" lon="6.13487">
        <ele>366.560246</ele>
        <time>2025-04-25T07:54:29.000Z</time>
      </trkpt>
      <trkpt lat="43.36587" lon="6.13487">
        <ele>366.560246</ele>
        <time>2025-04-25T07:54:29.000Z</time>
      </trkpt>
      <trkpt lat="43.36586" lon="6.13492">
        <ele>366.751498</ele>
        <time>2025-04-25T07:54:29.000Z</time>
      </trkpt>
      <trkpt lat="43.36586" lon="6.13492">
        <ele>366.751498</ele>
        <time>2025-04-25T07:54:29.000Z</time>
      </trkpt>
      <trkpt lat="43.36586" lon="6.13498">
        <ele>366.984314</ele>
        <time>2025-04-25T07:54:31.000Z</time>
      </trkpt>
      <trkpt lat="43.36585" lon="6.13504">
        <ele>367.213091</ele>
        <time>2025-04-25T07:54:31.000Z</time>
      </trkpt>
      <trkpt lat="43.36585" lon="6.13504">
        <ele>367.213091</ele>
        <time>2025-04-25T07:54:31.000Z</time>
      </trkpt>
      <trkpt lat="43.36584" lon="6.1351">
        <ele>367.431138</ele>
        <time>2025-04-25T07:54:32.000Z</time>
      </trkpt>
      <trkpt lat="43.36584" lon="6.1351">
        <ele>367.431138</ele>
        <time>2025-04-25T07:54:32.000Z</time>
      </trkpt>
      <trkpt lat="43.36583" lon="6.13515">
        <ele>367.641775</ele>
        <time>2025-04-25T07:54:33.000Z</time>
      </trkpt>
      <trkpt lat="43.36583" lon="6.13515">
        <ele>367.641775</ele>
        <time>2025-04-25T07:54:33.000Z</time>
      </trkpt>
      <trkpt lat="43.36582" lon="6.1352">
        <ele>367.826741</ele>
        <time>2025-04-25T07:54:34.000Z</time>
      </trkpt>
      <trkpt lat="43.36581" lon="6.13525">
        <ele>368.037379</ele>
        <time>2025-04-25T07:54:35.000Z</time>
      </trkpt>
      <trkpt lat="43.36581" lon="6.13525">
        <ele>368.037379</ele>
        <time>2025-04-25T07:54:35.000Z</time>
      </trkpt>
      <trkpt lat="43.3658" lon="6.1353">
        <ele>368.235149</ele>
        <time>2025-04-25T07:54:37.000Z</time>
      </trkpt>
      <trkpt lat="43.3658" lon="6.1353">
        <ele>368.235149</ele>
        <time>2025-04-25T07:54:37.000Z</time>
      </trkpt>
      <trkpt lat="43.36578" lon="6.13535">
        <ele>368.427945</ele>
        <time>2025-04-25T07:54:38.000Z</time>
      </trkpt>
      <trkpt lat="43.36578" lon="6.13535">
        <ele>368.427945</ele>
        <time>2025-04-25T07:54:38.000Z</time>
      </trkpt>
      <trkpt lat="43.36576" lon="6.1354">
        <ele>368.629936</ele>
        <time>2025-04-25T07:54:39.000Z</time>
      </trkpt>
      <trkpt lat="43.36576" lon="6.1354">
        <ele>368.629936</ele>
        <time>2025-04-25T07:54:39.000Z</time>
      </trkpt>
      <trkpt lat="43.36575" lon="6.13545">
        <ele>368.8331</ele>
        <time>2025-04-25T07:54:40.000Z</time>
      </trkpt>
      <trkpt lat="43.36575" lon="6.13545">
        <ele>368.8331</ele>
        <time>2025-04-25T07:54:40.000Z</time>
      </trkpt>
      <trkpt lat="43.36573" lon="6.1355">
        <ele>369.041733</ele>
        <time>2025-04-25T07:54:41.000Z</time>
      </trkpt>
      <trkpt lat="43.36573" lon="6.1355">
        <ele>369.041733</ele>
        <time>2025-04-25T07:54:41.000Z</time>
      </trkpt>
      <trkpt lat="43.36572" lon="6.13555">
        <ele>369.248756</ele>
        <time>2025-04-25T07:54:42.000Z</time>
      </trkpt>
      <trkpt lat="43.36572" lon="6.13555">
        <ele>369.248756</ele>
        <time>2025-04-25T07:54:42.000Z</time>
      </trkpt>
      <trkpt lat="43.36571" lon="6.13561">
        <ele>369.468041</ele>
        <time>2025-04-25T07:54:43.000Z</time>
      </trkpt>
      <trkpt lat="43.36571" lon="6.13561">
        <ele>369.468041</ele>
        <time>2025-04-25T07:54:43.000Z</time>
      </trkpt>
      <trkpt lat="43.3657" lon="6.13566">
        <ele>369.681466</ele>
        <time>2025-04-25T07:54:44.000Z</time>
      </trkpt>
      <trkpt lat="43.3657" lon="6.13566">
        <ele>369.681466</ele>
        <time>2025-04-25T07:54:44.000Z</time>
      </trkpt>
      <trkpt lat="43.36569" lon="6.13573">
        <ele>369.926083</ele>
        <time>2025-04-25T07:54:45.000Z</time>
      </trkpt>
      <trkpt lat="43.36569" lon="6.13573">
        <ele>369.926083</ele>
        <time>2025-04-25T07:54:45.000Z</time>
      </trkpt>
      <trkpt lat="43.36567" lon="6.13579">
        <ele>370.175081</ele>
        <time>2025-04-25T07:54:46.000Z</time>
      </trkpt>
      <trkpt lat="43.36567" lon="6.13579">
        <ele>370.175081</ele>
        <time>2025-04-25T07:54:46.000Z</time>
      </trkpt>
      <trkpt lat="43.36566" lon="6.13584">
        <ele>370.395721</ele>
        <time>2025-04-25T07:54:47.000Z</time>
      </trkpt>
      <trkpt lat="43.36566" lon="6.13584">
        <ele>370.395721</ele>
        <time>2025-04-25T07:54:47.000Z</time>
      </trkpt>
      <trkpt lat="43.36564" lon="6.13591">
        <ele>370.637592</ele>
        <time>2025-04-25T07:54:48.000Z</time>
      </trkpt>
      <trkpt lat="43.36564" lon="6.13591">
        <ele>370.637592</ele>
        <time>2025-04-25T07:54:48.000Z</time>
      </trkpt>
      <trkpt lat="43.36562" lon="6.13596">
        <ele>370.882453</ele>
        <time>2025-04-25T07:54:49.000Z</time>
      </trkpt>
      <trkpt lat="43.36562" lon="6.13596">
        <ele>370.882453</ele>
        <time>2025-04-25T07:54:49.000Z</time>
      </trkpt>
      <trkpt lat="43.3656" lon="6.13602">
        <ele>371.120775</ele>
        <time>2025-04-25T07:54:50.000Z</time>
      </trkpt>
      <trkpt lat="43.3656" lon="6.13602">
        <ele>371.120775</ele>
        <time>2025-04-25T07:54:50.000Z</time>
      </trkpt>
      <trkpt lat="43.36557" lon="6.13607">
        <ele>371.376305</ele>
        <time>2025-04-25T07:54:50.000Z</time>
      </trkpt>
      <trkpt lat="43.36557" lon="6.13607">
        <ele>371.376305</ele>
        <time>2025-04-25T07:54:50.000Z</time>
      </trkpt>
      <trkpt lat="43.36555" lon="6.13613">
        <ele>371.624458</ele>
        <time>2025-04-25T07:54:52.000Z</time>
      </trkpt>
      <trkpt lat="43.36555" lon="6.13613">
        <ele>371.624458</ele>
        <time>2025-04-25T07:54:52.000Z</time>
      </trkpt>
      <trkpt lat="43.36553" lon="6.13619">
        <ele>371.859985</ele>
        <time>2025-04-25T07:54:53.000Z</time>
      </trkpt>
      <trkpt lat="43.36553" lon="6.13619">
        <ele>371.859985</ele>
        <time>2025-04-25T07:54:53.000Z</time>
      </trkpt>
      <trkpt lat="43.36551" lon="6.13626">
        <ele>372.144158</ele>
        <time>2025-04-25T07:54:54.000Z</time>
      </trkpt>
      <trkpt lat="43.36551" lon="6.13626">
        <ele>372.144158</ele>
        <time>2025-04-25T07:54:54.000Z</time>
      </trkpt>
      <trkpt lat="43.36549" lon="6.13632">
        <ele>372.403816</ele>
        <time>2025-04-25T07:54:55.000Z</time>
      </trkpt>
      <trkpt lat="43.36549" lon="6.13632">
        <ele>372.403816</ele>
        <time>2025-04-25T07:54:55.000Z</time>
      </trkpt>
      <trkpt lat="43.36548" lon="6.13639">
        <ele>372.64773</ele>
        <time>2025-04-25T07:54:55.000Z</time>
      </trkpt>
      <trkpt lat="43.36548" lon="6.13639">
        <ele>372.64773</ele>
        <time>2025-04-25T07:54:55.000Z</time>
      </trkpt>
      <trkpt lat="43.36547" lon="6.13645">
        <ele>372.880149</ele>
        <time>2025-04-25T07:54:57.000Z</time>
      </trkpt>
      <trkpt lat="43.36547" lon="6.13645">
        <ele>372.880149</ele>
        <time>2025-04-25T07:54:57.000Z</time>
      </trkpt>
      <trkpt lat="43.36546" lon="6.13651">
        <ele>373.10927</ele>
        <time>2025-04-25T07:54:58.000Z</time>
      </trkpt>
      <trkpt lat="43.36546" lon="6.13651">
        <ele>373.10927</ele>
        <time>2025-04-25T07:54:58.000Z</time>
      </trkpt>
      <trkpt lat="43.36546" lon="6.13657">
        <ele>373.346802</ele>
        <time>2025-04-25T07:54:59.000Z</time>
      </trkpt>
      <trkpt lat="43.36546" lon="6.13657">
        <ele>373.346802</ele>
        <time>2025-04-25T07:54:59.000Z</time>
      </trkpt>
      <trkpt lat="43.36545" lon="6.13663">
        <ele>373.552828</ele>
        <time>2025-04-25T07:55:00.000Z</time>
      </trkpt>
      <trkpt lat="43.36545" lon="6.13663">
        <ele>373.552828</ele>
        <time>2025-04-25T07:55:00.000Z</time>
      </trkpt>
      <trkpt lat="43.36545" lon="6.13668">
        <ele>373.838233</ele>
        <time>2025-04-25T07:55:01.000Z</time>
      </trkpt>
      <trkpt lat="43.36545" lon="6.13668">
        <ele>373.838233</ele>
        <time>2025-04-25T07:55:01.000Z</time>
      </trkpt>
      <trkpt lat="43.36544" lon="6.13673">
        <ele>374.139432</ele>
        <time>2025-04-25T07:55:02.000Z</time>
      </trkpt>
      <trkpt lat="43.36544" lon="6.13673">
        <ele>374.139432</ele>
        <time>2025-04-25T07:55:02.000Z</time>
      </trkpt>
      <trkpt lat="43.36543" lon="6.13678">
        <ele>374.463108</ele>
        <time>2025-04-25T07:55:03.000Z</time>
      </trkpt>
      <trkpt lat="43.36543" lon="6.13678">
        <ele>374.463108</ele>
        <time>2025-04-25T07:55:03.000Z</time>
      </trkpt>
      <trkpt lat="43.36542" lon="6.13683">
        <ele>374.769539</ele>
        <time>2025-04-25T07:55:04.000Z</time>
      </trkpt>
      <trkpt lat="43.36542" lon="6.13683">
        <ele>374.769539</ele>
        <time>2025-04-25T07:55:04.000Z</time>
      </trkpt>
      <trkpt lat="43.36541" lon="6.13689">
        <ele>375.110238</ele>
        <time>2025-04-25T07:55:05.000Z</time>
      </trkpt>
      <trkpt lat="43.36541" lon="6.13689">
        <ele>375.110238</ele>
        <time>2025-04-25T07:55:05.000Z</time>
      </trkpt>
      <trkpt lat="43.3654" lon="6.13694">
        <ele>375.441882</ele>
        <time>2025-04-25T07:55:06.000Z</time>
      </trkpt>
      <trkpt lat="43.3654" lon="6.13694">
        <ele>375.441882</ele>
        <time>2025-04-25T07:55:06.000Z</time>
      </trkpt>
      <trkpt lat="43.36539" lon="6.137">
        <ele>375.769826</ele>
        <time>2025-04-25T07:55:06.000Z</time>
      </trkpt>
      <trkpt lat="43.36539" lon="6.137">
        <ele>375.769826</ele>
        <time>2025-04-25T07:55:06.000Z</time>
      </trkpt>
      <trkpt lat="43.36538" lon="6.13705">
        <ele>376.10147</ele>
        <time>2025-04-25T07:55:08.000Z</time>
      </trkpt>
      <trkpt lat="43.36538" lon="6.13705">
        <ele>376.10147</ele>
        <time>2025-04-25T07:55:08.000Z</time>
      </trkpt>
      <trkpt lat="43.36537" lon="6.1371">
        <ele>376.394765</ele>
        <time>2025-04-25T07:55:09.000Z</time>
      </trkpt>
      <trkpt lat="43.36537" lon="6.1371">
        <ele>376.394765</ele>
        <time>2025-04-25T07:55:09.000Z</time>
      </trkpt>
      <trkpt lat="43.36537" lon="6.13715">
        <ele>376.711923</ele>
        <time>2025-04-25T07:55:09.000Z</time>
      </trkpt>
      <trkpt lat="43.36537" lon="6.13715">
        <ele>376.711923</ele>
        <time>2025-04-25T07:55:09.000Z</time>
      </trkpt>
      <trkpt lat="43.36536" lon="6.13721">
        <ele>377.041356</ele>
        <time>2025-04-25T07:55:11.000Z</time>
      </trkpt>
      <trkpt lat="43.36536" lon="6.13721">
        <ele>377.041356</ele>
        <time>2025-04-25T07:55:11.000Z</time>
      </trkpt>
      <trkpt lat="43.36535" lon="6.13726">
        <ele>377.376388</ele>
        <time>2025-04-25T07:55:11.000Z</time>
      </trkpt>
      <trkpt lat="43.36535" lon="6.13726">
        <ele>377.376388</ele>
        <time>2025-04-25T07:55:11.000Z</time>
      </trkpt>
      <trkpt lat="43.36535" lon="6.13731">
        <ele>377.677081</ele>
        <time>2025-04-25T07:55:12.000Z</time>
      </trkpt>
      <trkpt lat="43.36535" lon="6.13731">
        <ele>377.677081</ele>
        <time>2025-04-25T07:55:12.000Z</time>
      </trkpt>
      <trkpt lat="43.36534" lon="6.13736">
        <ele>377.972041</ele>
        <time>2025-04-25T07:55:13.000Z</time>
      </trkpt>
      <trkpt lat="43.36534" lon="6.13736">
        <ele>377.972041</ele>
        <time>2025-04-25T07:55:13.000Z</time>
      </trkpt>
      <trkpt lat="43.36533" lon="6.13741">
        <ele>378.236581</ele>
        <time>2025-04-25T07:55:15.000Z</time>
      </trkpt>
      <trkpt lat="43.36533" lon="6.13741">
        <ele>378.236581</ele>
        <time>2025-04-25T07:55:15.000Z</time>
      </trkpt>
      <trkpt lat="43.36532" lon="6.13745">
        <ele>378.507101</ele>
        <time>2025-04-25T07:55:15.000Z</time>
      </trkpt>
      <trkpt lat="43.36532" lon="6.13745">
        <ele>378.507101</ele>
        <time>2025-04-25T07:55:15.000Z</time>
      </trkpt>
      <trkpt lat="43.3653" lon="6.13748">
        <ele>378.730728</ele>
        <time>2025-04-25T07:55:17.000Z</time>
      </trkpt>
      <trkpt lat="43.3653" lon="6.13748">
        <ele>378.730728</ele>
        <time>2025-04-25T07:55:17.000Z</time>
      </trkpt>
      <trkpt lat="43.36528" lon="6.13751">
        <ele>378.971241</ele>
        <time>2025-04-25T07:55:18.000Z</time>
      </trkpt>
      <trkpt lat="43.36528" lon="6.13751">
        <ele>378.971241</ele>
        <time>2025-04-25T07:55:18.000Z</time>
      </trkpt>
      <trkpt lat="43.36525" lon="6.13752">
        <ele>379.202349</ele>
        <time>2025-04-25T07:55:19.000Z</time>
      </trkpt>
      <trkpt lat="43.36525" lon="6.13752">
        <ele>379.202349</ele>
        <time>2025-04-25T07:55:19.000Z</time>
      </trkpt>
      <trkpt lat="43.36522" lon="6.13753">
        <ele>379.450414</ele>
        <time>2025-04-25T07:55:19.000Z</time>
      </trkpt>
      <trkpt lat="43.36522" lon="6.13753">
        <ele>379.450414</ele>
        <time>2025-04-25T07:55:19.000Z</time>
      </trkpt>
      <trkpt lat="43.36519" lon="6.13753">
        <ele>379.701135</ele>
        <time>2025-04-25T07:55:21.000Z</time>
      </trkpt>
      <trkpt lat="43.36519" lon="6.13753">
        <ele>379.701135</ele>
        <time>2025-04-25T07:55:21.000Z</time>
      </trkpt>
      <trkpt lat="43.36516" lon="6.13753">
        <ele>379.944639</ele>
        <time>2025-04-25T07:55:22.000Z</time>
      </trkpt>
      <trkpt lat="43.36516" lon="6.13753">
        <ele>379.944639</ele>
        <time>2025-04-25T07:55:22.000Z</time>
      </trkpt>
      <trkpt lat="43.36512" lon="6.13753">
        <ele>380.251863</ele>
        <time>2025-04-25T07:55:22.000Z</time>
      </trkpt>
      <trkpt lat="43.36512" lon="6.13753">
        <ele>380.251863</ele>
        <time>2025-04-25T07:55:22.000Z</time>
      </trkpt>
      <trkpt lat="43.36509" lon="6.13753">
        <ele>380.558918</ele>
        <time>2025-04-25T07:55:24.000Z</time>
      </trkpt>
      <trkpt lat="43.36509" lon="6.13753">
        <ele>380.558918</ele>
        <time>2025-04-25T07:55:24.000Z</time>
      </trkpt>
      <trkpt lat="43.36505" lon="6.13753">
        <ele>380.87405</ele>
        <time>2025-04-25T07:55:25.000Z</time>
      </trkpt>
      <trkpt lat="43.36505" lon="6.13753">
        <ele>380.87405</ele>
        <time>2025-04-25T07:55:25.000Z</time>
      </trkpt>
      <trkpt lat="43.36501" lon="6.13753">
        <ele>381.149737</ele>
        <time>2025-04-25T07:55:25.000Z</time>
      </trkpt>
      <trkpt lat="43.36501" lon="6.13753">
        <ele>381.149737</ele>
        <time>2025-04-25T07:55:25.000Z</time>
      </trkpt>
      <trkpt lat="43.36498" lon="6.13753">
        <ele>381.424671</ele>
        <time>2025-04-25T07:55:27.000Z</time>
      </trkpt>
      <trkpt lat="43.36498" lon="6.13753">
        <ele>381.424671</ele>
        <time>2025-04-25T07:55:27.000Z</time>
      </trkpt>
      <trkpt lat="43.36494" lon="6.13753">
        <ele>381.733071</ele>
        <time>2025-04-25T07:55:28.000Z</time>
      </trkpt>
      <trkpt lat="43.36494" lon="6.13753">
        <ele>381.733071</ele>
        <time>2025-04-25T07:55:28.000Z</time>
      </trkpt>
      <trkpt lat="43.36491" lon="6.13752">
        <ele>381.964179</ele>
        <time>2025-04-25T07:55:28.000Z</time>
      </trkpt>
      <trkpt lat="43.36491" lon="6.13752">
        <ele>381.964179</ele>
        <time>2025-04-25T07:55:28.000Z</time>
      </trkpt>
      <trkpt lat="43.36488" lon="6.13749">
        <ele>382.245994</ele>
        <time>2025-04-25T07:55:30.000Z</time>
      </trkpt>
      <trkpt lat="43.36488" lon="6.13749">
        <ele>382.245994</ele>
        <time>2025-04-25T07:55:30.000Z</time>
      </trkpt>
      <trkpt lat="43.36485" lon="6.13746">
        <ele>382.545641</ele>
        <time>2025-04-25T07:55:31.000Z</time>
      </trkpt>
      <trkpt lat="43.36485" lon="6.13746">
        <ele>382.545641</ele>
        <time>2025-04-25T07:55:31.000Z</time>
      </trkpt>
      <trkpt lat="43.36483" lon="6.13743">
        <ele>382.841375</ele>
        <time>2025-04-25T07:55:32.000Z</time>
      </trkpt>
      <trkpt lat="43.36483" lon="6.13743">
        <ele>382.841375</ele>
        <time>2025-04-25T07:55:32.000Z</time>
      </trkpt>
      <trkpt lat="43.3648" lon="6.13739">
        <ele>383.127299</ele>
        <time>2025-04-25T07:55:33.000Z</time>
      </trkpt>
      <trkpt lat="43.3648" lon="6.13739">
        <ele>383.127299</ele>
        <time>2025-04-25T07:55:33.000Z</time>
      </trkpt>
      <trkpt lat="43.36478" lon="6.13735">
        <ele>383.442443</ele>
        <time>2025-04-25T07:55:34.000Z</time>
      </trkpt>
      <trkpt lat="43.36478" lon="6.13735">
        <ele>383.442443</ele>
        <time>2025-04-25T07:55:34.000Z</time>
      </trkpt>
      <trkpt lat="43.36476" lon="6.13732">
        <ele>383.685108</ele>
        <time>2025-04-25T07:55:35.000Z</time>
      </trkpt>
      <trkpt lat="43.36476" lon="6.13732">
        <ele>383.685108</ele>
        <time>2025-04-25T07:55:35.000Z</time>
      </trkpt>
      <trkpt lat="43.36474" lon="6.13729">
        <ele>383.953611</ele>
        <time>2025-04-25T07:55:36.000Z</time>
      </trkpt>
      <trkpt lat="43.36474" lon="6.13729">
        <ele>383.953611</ele>
        <time>2025-04-25T07:55:36.000Z</time>
      </trkpt>
      <trkpt lat="43.36471" lon="6.13725">
        <ele>384.239535</ele>
        <time>2025-04-25T07:55:37.000Z</time>
      </trkpt>
      <trkpt lat="43.36471" lon="6.13725">
        <ele>384.239535</ele>
        <time>2025-04-25T07:55:37.000Z</time>
      </trkpt>
      <trkpt lat="43.36469" lon="6.13722">
        <ele>384.49561</ele>
        <time>2025-04-25T07:55:38.000Z</time>
      </trkpt>
      <trkpt lat="43.36469" lon="6.13722">
        <ele>384.49561</ele>
        <time>2025-04-25T07:55:38.000Z</time>
      </trkpt>
      <trkpt lat="43.36467" lon="6.13719">
        <ele>384.75576</ele>
        <time>2025-04-25T07:55:39.000Z</time>
      </trkpt>
      <trkpt lat="43.36467" lon="6.13719">
        <ele>384.75576</ele>
        <time>2025-04-25T07:55:39.000Z</time>
      </trkpt>
      <trkpt lat="43.36464" lon="6.13716">
        <ele>385.036167</ele>
        <time>2025-04-25T07:55:40.000Z</time>
      </trkpt>
      <trkpt lat="43.36464" lon="6.13716">
        <ele>385.036167</ele>
        <time>2025-04-25T07:55:40.000Z</time>
      </trkpt>
      <trkpt lat="43.36461" lon="6.13713">
        <ele>385.335814</ele>
        <time>2025-04-25T07:55:41.000Z</time>
      </trkpt>
      <trkpt lat="43.36461" lon="6.13713">
        <ele>385.335814</ele>
        <time>2025-04-25T07:55:41.000Z</time>
      </trkpt>
      <trkpt lat="43.36459" lon="6.13711">
        <ele>385.5496</ele>
        <time>2025-04-25T07:55:42.000Z</time>
      </trkpt>
      <trkpt lat="43.36459" lon="6.13711">
        <ele>385.5496</ele>
        <time>2025-04-25T07:55:42.000Z</time>
      </trkpt>
      <trkpt lat="43.36455" lon="6.13709">
        <ele>385.850704</ele>
        <time>2025-04-25T07:55:43.000Z</time>
      </trkpt>
      <trkpt lat="43.36455" lon="6.13709">
        <ele>385.850704</ele>
        <time>2025-04-25T07:55:43.000Z</time>
      </trkpt>
      <trkpt lat="43.36453" lon="6.13707">
        <ele>386.101291</ele>
        <time>2025-04-25T07:55:44.000Z</time>
      </trkpt>
      <trkpt lat="43.36453" lon="6.13707">
        <ele>386.101291</ele>
        <time>2025-04-25T07:55:44.000Z</time>
      </trkpt>
      <trkpt lat="43.36451" lon="6.13702">
        <ele>386.417147</ele>
        <time>2025-04-25T07:55:45.000Z</time>
      </trkpt>
      <trkpt lat="43.36451" lon="6.13702">
        <ele>386.417147</ele>
        <time>2025-04-25T07:55:45.000Z</time>
      </trkpt>
      <trkpt lat="43.36448" lon="6.13699">
        <ele>386.694249</ele>
        <time>2025-04-25T07:55:46.000Z</time>
      </trkpt>
      <trkpt lat="43.36448" lon="6.13699">
        <ele>386.694249</ele>
        <time>2025-04-25T07:55:46.000Z</time>
      </trkpt>
      <trkpt lat="43.36446" lon="6.13696">
        <ele>386.936915</ele>
        <time>2025-04-25T07:55:47.000Z</time>
      </trkpt>
      <trkpt lat="43.36446" lon="6.13696">
        <ele>386.936915</ele>
        <time>2025-04-25T07:55:47.000Z</time>
      </trkpt>
      <trkpt lat="43.36445" lon="6.13691">
        <ele>387.211756</ele>
        <time>2025-04-25T07:55:48.000Z</time>
      </trkpt>
      <trkpt lat="43.36445" lon="6.13691">
        <ele>387.211756</ele>
        <time>2025-04-25T07:55:48.000Z</time>
      </trkpt>
      <trkpt lat="43.36444" lon="6.13687">
        <ele>387.498799</ele>
        <time>2025-04-25T07:55:49.000Z</time>
      </trkpt>
      <trkpt lat="43.36444" lon="6.13687">
        <ele>387.498799</ele>
        <time>2025-04-25T07:55:49.000Z</time>
      </trkpt>
      <trkpt lat="43.36443" lon="6.13682">
        <ele>387.792098</ele>
        <time>2025-04-25T07:55:50.000Z</time>
      </trkpt>
      <trkpt lat="43.36443" lon="6.13682">
        <ele>387.792098</ele>
        <time>2025-04-25T07:55:50.000Z</time>
      </trkpt>
      <trkpt lat="43.36443" lon="6.13677">
        <ele>388.10506</ele>
        <time>2025-04-25T07:55:51.000Z</time>
      </trkpt>
      <trkpt lat="43.36443" lon="6.13677">
        <ele>388.10506</ele>
        <time>2025-04-25T07:55:51.000Z</time>
      </trkpt>
      <trkpt lat="43.36443" lon="6.13672">
        <ele>388.351983</ele>
        <time>2025-04-25T07:55:51.000Z</time>
      </trkpt>
      <trkpt lat="43.36443" lon="6.13672">
        <ele>388.351983</ele>
        <time>2025-04-25T07:55:51.000Z</time>
      </trkpt>
      <trkpt lat="43.36442" lon="6.13668">
        <ele>388.612698</ele>
        <time>2025-04-25T07:55:53.000Z</time>
      </trkpt>
      <trkpt lat="43.36442" lon="6.13668">
        <ele>388.612698</ele>
        <time>2025-04-25T07:55:53.000Z</time>
      </trkpt>
      <trkpt lat="43.36442" lon="6.13663">
        <ele>388.890923</ele>
        <time>2025-04-25T07:55:54.000Z</time>
      </trkpt>
      <trkpt lat="43.36442" lon="6.13663">
        <ele>388.890923</ele>
        <time>2025-04-25T07:55:54.000Z</time>
      </trkpt>
      <trkpt lat="43.36441" lon="6.13658">
        <ele>389.180831</ele>
        <time>2025-04-25T07:55:55.000Z</time>
      </trkpt>
      <trkpt lat="43.36441" lon="6.13658">
        <ele>389.180831</ele>
        <time>2025-04-25T07:55:55.000Z</time>
      </trkpt>
      <trkpt lat="43.36441" lon="6.13654">
        <ele>389.427772</ele>
        <time>2025-04-25T07:55:56.000Z</time>
      </trkpt>
      <trkpt lat="43.36441" lon="6.13654">
        <ele>389.427772</ele>
        <time>2025-04-25T07:55:56.000Z</time>
      </trkpt>
      <trkpt lat="43.36441" lon="6.1365">
        <ele>389.700159</ele>
        <time>2025-04-25T07:55:57.000Z</time>
      </trkpt>
      <trkpt lat="43.36441" lon="6.1365">
        <ele>389.700159</ele>
        <time>2025-04-25T07:55:57.000Z</time>
      </trkpt>
      <trkpt lat="43.36441" lon="6.13645">
        <ele>389.989276</ele>
        <time>2025-04-25T07:55:58.000Z</time>
      </trkpt>
      <trkpt lat="43.36441" lon="6.13645">
        <ele>389.989276</ele>
        <time>2025-04-25T07:55:58.000Z</time>
      </trkpt>
      <trkpt lat="43.3644" lon="6.1364">
        <ele>390.273088</ele>
        <time>2025-04-25T07:55:59.000Z</time>
      </trkpt>
      <trkpt lat="43.3644" lon="6.1364">
        <ele>390.273088</ele>
        <time>2025-04-25T07:55:59.000Z</time>
      </trkpt>
      <trkpt lat="43.3644" lon="6.13636">
        <ele>390.520029</ele>
        <time>2025-04-25T07:56:00.000Z</time>
      </trkpt>
      <trkpt lat="43.3644" lon="6.13636">
        <ele>390.520029</ele>
        <time>2025-04-25T07:56:00.000Z</time>
      </trkpt>
      <trkpt lat="43.3644" lon="6.13631">
        <ele>390.780743</ele>
        <time>2025-04-25T07:56:01.000Z</time>
      </trkpt>
      <trkpt lat="43.3644" lon="6.13631">
        <ele>390.780743</ele>
        <time>2025-04-25T07:56:01.000Z</time>
      </trkpt>
      <trkpt lat="43.3644" lon="6.13626">
        <ele>391.068841</ele>
        <time>2025-04-25T07:56:02.000Z</time>
      </trkpt>
      <trkpt lat="43.3644" lon="6.13626">
        <ele>391.068841</ele>
        <time>2025-04-25T07:56:02.000Z</time>
      </trkpt>
      <trkpt lat="43.3644" lon="6.13623">
        <ele>391.286384</ele>
        <time>2025-04-25T07:56:03.000Z</time>
      </trkpt>
      <trkpt lat="43.3644" lon="6.13623">
        <ele>391.286384</ele>
        <time>2025-04-25T07:56:03.000Z</time>
      </trkpt>
      <trkpt lat="43.3644" lon="6.13618">
        <ele>391.556843</ele>
        <time>2025-04-25T07:56:04.000Z</time>
      </trkpt>
      <trkpt lat="43.3644" lon="6.13618">
        <ele>391.556843</ele>
        <time>2025-04-25T07:56:04.000Z</time>
      </trkpt>
      <trkpt lat="43.36439" lon="6.13613">
        <ele>391.835069</ele>
        <time>2025-04-25T07:56:05.000Z</time>
      </trkpt>
      <trkpt lat="43.36439" lon="6.13613">
        <ele>391.835069</ele>
        <time>2025-04-25T07:56:05.000Z</time>
      </trkpt>
      <trkpt lat="43.36439" lon="6.1361">
        <ele>392.059805</ele>
        <time>2025-04-25T07:56:05.000Z</time>
      </trkpt>
      <trkpt lat="43.36439" lon="6.1361">
        <ele>392.059805</ele>
        <time>2025-04-25T07:56:05.000Z</time>
      </trkpt>
      <trkpt lat="43.36438" lon="6.13606">
        <ele>392.303028</ele>
        <time>2025-04-25T07:56:07.000Z</time>
      </trkpt>
      <trkpt lat="43.36438" lon="6.13606">
        <ele>392.303028</ele>
        <time>2025-04-25T07:56:07.000Z</time>
      </trkpt>
      <trkpt lat="43.36437" lon="6.13601">
        <ele>392.568354</ele>
        <time>2025-04-25T07:56:08.000Z</time>
      </trkpt>
      <trkpt lat="43.36437" lon="6.13601">
        <ele>392.568354</ele>
        <time>2025-04-25T07:56:08.000Z</time>
      </trkpt>
      <trkpt lat="43.36437" lon="6.13597">
        <ele>392.810254</ele>
        <time>2025-04-25T07:56:09.000Z</time>
      </trkpt>
      <trkpt lat="43.36437" lon="6.13597">
        <ele>392.810254</ele>
        <time>2025-04-25T07:56:09.000Z</time>
      </trkpt>
      <trkpt lat="43.36435" lon="6.13594">
        <ele>393.037775</ele>
        <time>2025-04-25T07:56:10.000Z</time>
      </trkpt>
      <trkpt lat="43.36435" lon="6.13594">
        <ele>393.037775</ele>
        <time>2025-04-25T07:56:10.000Z</time>
      </trkpt>
      <trkpt lat="43.36434" lon="6.13589">
        <ele>393.334194</ele>
        <time>2025-04-25T07:56:11.000Z</time>
      </trkpt>
      <trkpt lat="43.36434" lon="6.13589">
        <ele>393.334194</ele>
        <time>2025-04-25T07:56:11.000Z</time>
      </trkpt>
      <trkpt lat="43.36432" lon="6.13585">
        <ele>393.630614</ele>
        <time>2025-04-25T07:56:12.000Z</time>
      </trkpt>
      <trkpt lat="43.36432" lon="6.13585">
        <ele>393.630614</ele>
        <time>2025-04-25T07:56:12.000Z</time>
      </trkpt>
      <trkpt lat="43.36431" lon="6.1358">
        <ele>393.919871</ele>
        <time>2025-04-25T07:56:13.000Z</time>
      </trkpt>
      <trkpt lat="43.36431" lon="6.1358">
        <ele>393.919871</ele>
        <time>2025-04-25T07:56:13.000Z</time>
      </trkpt>
      <trkpt lat="43.36429" lon="6.13577">
        <ele>394.191907</ele>
        <time>2025-04-25T07:56:14.000Z</time>
      </trkpt>
      <trkpt lat="43.36429" lon="6.13577">
        <ele>394.191907</ele>
        <time>2025-04-25T07:56:14.000Z</time>
      </trkpt>
      <trkpt lat="43.36426" lon="6.13574">
        <ele>394.452331</ele>
        <time>2025-04-25T07:56:15.000Z</time>
      </trkpt>
      <trkpt lat="43.36426" lon="6.13574">
        <ele>394.452331</ele>
        <time>2025-04-25T07:56:15.000Z</time>
      </trkpt>
      <trkpt lat="43.36424" lon="6.13571">
        <ele>394.660954</ele>
        <time>2025-04-25T07:56:16.000Z</time>
      </trkpt>
      <trkpt lat="43.36424" lon="6.13571">
        <ele>394.660954</ele>
        <time>2025-04-25T07:56:16.000Z</time>
      </trkpt>
      <trkpt lat="43.36422" lon="6.13569">
        <ele>394.917796</ele>
        <time>2025-04-25T07:56:17.000Z</time>
      </trkpt>
      <trkpt lat="43.36422" lon="6.13569">
        <ele>394.917796</ele>
        <time>2025-04-25T07:56:17.000Z</time>
      </trkpt>
      <trkpt lat="43.36419" lon="6.13566">
        <ele>395.208418</ele>
        <time>2025-04-25T07:56:17.000Z</time>
      </trkpt>
      <trkpt lat="43.36419" lon="6.13566">
        <ele>395.208418</ele>
        <time>2025-04-25T07:56:17.000Z</time>
      </trkpt>
      <trkpt lat="43.36416" lon="6.13565">
        <ele>395.432151</ele>
        <time>2025-04-25T07:56:18.000Z</time>
      </trkpt>
      <trkpt lat="43.36416" lon="6.13565">
        <ele>395.432151</ele>
        <time>2025-04-25T07:56:18.000Z</time>
      </trkpt>
      <trkpt lat="43.36413" lon="6.13565">
        <ele>395.68533</ele>
        <time>2025-04-25T07:56:19.000Z</time>
      </trkpt>
      <trkpt lat="43.36413" lon="6.13565">
        <ele>395.68533</ele>
        <time>2025-04-25T07:56:19.000Z</time>
      </trkpt>
      <trkpt lat="43.36409" lon="6.13564">
        <ele>395.966517</ele>
        <time>2025-04-25T07:56:20.000Z</time>
      </trkpt>
      <trkpt lat="43.36409" lon="6.13564">
        <ele>395.966517</ele>
        <time>2025-04-25T07:56:20.000Z</time>
      </trkpt>
      <trkpt lat="43.36406" lon="6.13562">
        <ele>396.226965</ele>
        <time>2025-04-25T07:56:22.000Z</time>
      </trkpt>
      <trkpt lat="43.36406" lon="6.13562">
        <ele>396.226965</ele>
        <time>2025-04-25T07:56:22.000Z</time>
      </trkpt>
      <trkpt lat="43.36403" lon="6.1356">
        <ele>396.526025</ele>
        <time>2025-04-25T07:56:22.000Z</time>
      </trkpt>
      <trkpt lat="43.36403" lon="6.1356">
        <ele>396.526025</ele>
        <time>2025-04-25T07:56:22.000Z</time>
      </trkpt>
      <trkpt lat="43.36401" lon="6.13559">
        <ele>396.740035</ele>
        <time>2025-04-25T07:56:24.000Z</time>
      </trkpt>
      <trkpt lat="43.36401" lon="6.13559">
        <ele>396.740035</ele>
        <time>2025-04-25T07:56:24.000Z</time>
      </trkpt>
      <trkpt lat="43.36398" lon="6.13556">
        <ele>397.003259</ele>
        <time>2025-04-25T07:56:24.000Z</time>
      </trkpt>
      <trkpt lat="43.36398" lon="6.13556">
        <ele>397.003259</ele>
        <time>2025-04-25T07:56:24.000Z</time>
      </trkpt>
      <trkpt lat="43.36396" lon="6.13552">
        <ele>397.293979</ele>
        <time>2025-04-25T07:56:26.000Z</time>
      </trkpt>
      <trkpt lat="43.36396" lon="6.13552">
        <ele>397.293979</ele>
        <time>2025-04-25T07:56:26.000Z</time>
      </trkpt>
      <trkpt lat="43.36394" lon="6.13549">
        <ele>397.512926</ele>
        <time>2025-04-25T07:56:27.000Z</time>
      </trkpt>
      <trkpt lat="43.36394" lon="6.13549">
        <ele>397.512926</ele>
        <time>2025-04-25T07:56:27.000Z</time>
      </trkpt>
      <trkpt lat="43.36393" lon="6.13546">
        <ele>397.751806</ele>
        <time>2025-04-25T07:56:28.000Z</time>
      </trkpt>
      <trkpt lat="43.36393" lon="6.13546">
        <ele>397.751806</ele>
        <time>2025-04-25T07:56:28.000Z</time>
      </trkpt>
      <trkpt lat="43.36391" lon="6.13541">
        <ele>398.032227</ele>
        <time>2025-04-25T07:56:29.000Z</time>
      </trkpt>
      <trkpt lat="43.36391" lon="6.13541">
        <ele>398.032227</ele>
        <time>2025-04-25T07:56:29.000Z</time>
      </trkpt>
      <trkpt lat="43.36391" lon="6.13538">
        <ele>398.252164</ele>
        <time>2025-04-25T07:56:30.000Z</time>
      </trkpt>
      <trkpt lat="43.36391" lon="6.13538">
        <ele>398.252164</ele>
        <time>2025-04-25T07:56:30.000Z</time>
      </trkpt>
      <trkpt lat="43.3639" lon="6.13533">
        <ele>398.51288</ele>
        <time>2025-04-25T07:56:31.000Z</time>
      </trkpt>
      <trkpt lat="43.3639" lon="6.13533">
        <ele>398.51288</ele>
        <time>2025-04-25T07:56:31.000Z</time>
      </trkpt>
      <trkpt lat="43.36391" lon="6.13528">
        <ele>398.826174</ele>
        <time>2025-04-25T07:56:32.000Z</time>
      </trkpt>
      <trkpt lat="43.36391" lon="6.13528">
        <ele>398.826174</ele>
        <time>2025-04-25T07:56:32.000Z</time>
      </trkpt>
      <trkpt lat="43.36392" lon="6.13523">
        <ele>399.122083</ele>
        <time>2025-04-25T07:56:33.000Z</time>
      </trkpt>
      <trkpt lat="43.36392" lon="6.13523">
        <ele>399.122083</ele>
        <time>2025-04-25T07:56:33.000Z</time>
      </trkpt>
      <trkpt lat="43.36393" lon="6.13518">
        <ele>399.417358</ele>
        <time>2025-04-25T07:56:34.000Z</time>
      </trkpt>
      <trkpt lat="43.36393" lon="6.13518">
        <ele>399.417358</ele>
        <time>2025-04-25T07:56:34.000Z</time>
      </trkpt>
      <trkpt lat="43.36394" lon="6.13513">
        <ele>399.746285</ele>
        <time>2025-04-25T07:56:35.000Z</time>
      </trkpt>
      <trkpt lat="43.36394" lon="6.13513">
        <ele>399.746285</ele>
        <time>2025-04-25T07:56:35.000Z</time>
      </trkpt>
      <trkpt lat="43.36396" lon="6.13508">
        <ele>400.053473</ele>
        <time>2025-04-25T07:56:36.000Z</time>
      </trkpt>
      <trkpt lat="43.36396" lon="6.13508">
        <ele>400.053473</ele>
        <time>2025-04-25T07:56:36.000Z</time>
      </trkpt>
      <trkpt lat="43.36397" lon="6.13503">
        <ele>400.363944</ele>
        <time>2025-04-25T07:56:37.000Z</time>
      </trkpt>
      <trkpt lat="43.36397" lon="6.13503">
        <ele>400.363944</ele>
        <time>2025-04-25T07:56:37.000Z</time>
      </trkpt>
      <trkpt lat="43.36399" lon="6.13498">
        <ele>400.681969</ele>
        <time>2025-04-25T07:56:37.000Z</time>
      </trkpt>
      <trkpt lat="43.36399" lon="6.13498">
        <ele>400.681969</ele>
        <time>2025-04-25T07:56:37.000Z</time>
      </trkpt>
      <trkpt lat="43.364" lon="6.13494">
        <ele>400.9571</ele>
        <time>2025-04-25T07:56:38.000Z</time>
      </trkpt>
      <trkpt lat="43.364" lon="6.13494">
        <ele>400.9571</ele>
        <time>2025-04-25T07:56:38.000Z</time>
      </trkpt>
      <trkpt lat="43.36402" lon="6.1349">
        <ele>401.268163</ele>
        <time>2025-04-25T07:56:40.000Z</time>
      </trkpt>
      <trkpt lat="43.36402" lon="6.1349">
        <ele>401.268163</ele>
        <time>2025-04-25T07:56:40.000Z</time>
      </trkpt>
      <trkpt lat="43.36404" lon="6.13486">
        <ele>401.511251</ele>
        <time>2025-04-25T07:56:41.000Z</time>
      </trkpt>
      <trkpt lat="43.36404" lon="6.13486">
        <ele>401.511251</ele>
        <time>2025-04-25T07:56:41.000Z</time>
      </trkpt>
      <trkpt lat="43.36405" lon="6.13482">
        <ele>401.773729</ele>
        <time>2025-04-25T07:56:41.000Z</time>
      </trkpt>
      <trkpt lat="43.36405" lon="6.13482">
        <ele>401.773729</ele>
        <time>2025-04-25T07:56:41.000Z</time>
      </trkpt>
      <trkpt lat="43.36407" lon="6.13477">
        <ele>402.084792</ele>
        <time>2025-04-25T07:56:42.000Z</time>
      </trkpt>
      <trkpt lat="43.36407" lon="6.13477">
        <ele>402.084792</ele>
        <time>2025-04-25T07:56:42.000Z</time>
      </trkpt>
      <trkpt lat="43.36408" lon="6.13473">
        <ele>402.370524</ele>
        <time>2025-04-25T07:56:44.000Z</time>
      </trkpt>
      <trkpt lat="43.36408" lon="6.13473">
        <ele>402.370524</ele>
        <time>2025-04-25T07:56:44.000Z</time>
      </trkpt>
      <trkpt lat="43.36409" lon="6.13468">
        <ele>402.642901</ele>
        <time>2025-04-25T07:56:44.000Z</time>
      </trkpt>
      <trkpt lat="43.36409" lon="6.13468">
        <ele>402.642901</ele>
        <time>2025-04-25T07:56:44.000Z</time>
      </trkpt>
      <trkpt lat="43.3641" lon="6.13464">
        <ele>402.946801</ele>
        <time>2025-04-25T07:56:45.000Z</time>
      </trkpt>
      <trkpt lat="43.3641" lon="6.13464">
        <ele>402.946801</ele>
        <time>2025-04-25T07:56:45.000Z</time>
      </trkpt>
      <trkpt lat="43.36411" lon="6.13459">
        <ele>403.239211</ele>
        <time>2025-04-25T07:56:46.000Z</time>
      </trkpt>
      <trkpt lat="43.36411" lon="6.13459">
        <ele>403.239211</ele>
        <time>2025-04-25T07:56:46.000Z</time>
      </trkpt>
      <trkpt lat="43.36411" lon="6.13453">
        <ele>403.554416</ele>
        <time>2025-04-25T07:56:47.000Z</time>
      </trkpt>
      <trkpt lat="43.36411" lon="6.13453">
        <ele>403.554416</ele>
        <time>2025-04-25T07:56:47.000Z</time>
      </trkpt>
      <trkpt lat="43.36412" lon="6.13448">
        <ele>403.864513</ele>
        <time>2025-04-25T07:56:49.000Z</time>
      </trkpt>
      <trkpt lat="43.36412" lon="6.13448">
        <ele>403.864513</ele>
        <time>2025-04-25T07:56:49.000Z</time>
      </trkpt>
      <trkpt lat="43.36412" lon="6.1344">
        <ele>404.375106</ele>
        <time>2025-04-25T07:56:50.000Z</time>
      </trkpt>
      <trkpt lat="43.36412" lon="6.1344">
        <ele>404.375106</ele>
        <time>2025-04-25T07:56:50.000Z</time>
      </trkpt>
      <trkpt lat="43.36412" lon="6.13435">
        <ele>404.626306</ele>
        <time>2025-04-25T07:56:51.000Z</time>
      </trkpt>
      <trkpt lat="43.36412" lon="6.13435">
        <ele>404.626306</ele>
        <time>2025-04-25T07:56:51.000Z</time>
      </trkpt>
      <trkpt lat="43.36412" lon="6.13432">
        <ele>404.859878</ele>
        <time>2025-04-25T07:56:52.000Z</time>
      </trkpt>
      <trkpt lat="43.36412" lon="6.13427">
        <ele>405.104249</ele>
        <time>2025-04-25T07:56:54.000Z</time>
      </trkpt>
      <trkpt lat="43.36412" lon="6.13427">
        <ele>405.104249</ele>
        <time>2025-04-25T07:56:54.000Z</time>
      </trkpt>
      <trkpt lat="43.36411" lon="6.13418">
        <ele>405.658548</ele>
        <time>2025-04-25T07:56:55.000Z</time>
      </trkpt>
      <trkpt lat="43.36411" lon="6.13418">
        <ele>405.658548</ele>
        <time>2025-04-25T07:56:55.000Z</time>
      </trkpt>
      <trkpt lat="43.3641" lon="6.13414">
        <ele>405.927399</ele>
        <time>2025-04-25T07:56:56.000Z</time>
      </trkpt>
      <trkpt lat="43.3641" lon="6.13414">
        <ele>405.927399</ele>
        <time>2025-04-25T07:56:56.000Z</time>
      </trkpt>
      <trkpt lat="43.3641" lon="6.13409">
        <ele>406.206123</ele>
        <time>2025-04-25T07:56:57.000Z</time>
      </trkpt>
      <trkpt lat="43.3641" lon="6.13409">
        <ele>406.206123</ele>
        <time>2025-04-25T07:56:57.000Z</time>
      </trkpt>
      <trkpt lat="43.3641" lon="6.13401">
        <ele>406.704869</ele>
        <time>2025-04-25T07:56:59.000Z</time>
      </trkpt>
      <trkpt lat="43.3641" lon="6.13401">
        <ele>406.704869</ele>
        <time>2025-04-25T07:56:59.000Z</time>
      </trkpt>
      <trkpt lat="43.3641" lon="6.13392">
        <ele>407.220805</ele>
        <time>2025-04-25T07:57:01.000Z</time>
      </trkpt>
      <trkpt lat="43.3641" lon="6.13392">
        <ele>407.220805</ele>
        <time>2025-04-25T07:57:01.000Z</time>
      </trkpt>
      <trkpt lat="43.36409" lon="6.13388">
        <ele>407.483771</ele>
        <time>2025-04-25T07:57:02.000Z</time>
      </trkpt>
      <trkpt lat="43.36409" lon="6.13378">
        <ele>408.071777</ele>
        <time>2025-04-25T07:57:04.000Z</time>
      </trkpt>
      <trkpt lat="43.36409" lon="6.13378">
        <ele>408.071777</ele>
        <time>2025-04-25T07:57:04.000Z</time>
      </trkpt>
      <trkpt lat="43.36408" lon="6.13372">
        <ele>408.392942</ele>
        <time>2025-04-25T07:57:04.000Z</time>
      </trkpt>
      <trkpt lat="43.36408" lon="6.13372">
        <ele>408.392942</ele>
        <time>2025-04-25T07:57:04.000Z</time>
      </trkpt>
      <trkpt lat="43.36404" lon="6.13364">
        <ele>408.956842</ele>
        <time>2025-04-25T07:57:06.000Z</time>
      </trkpt>
      <trkpt lat="43.36404" lon="6.13364">
        <ele>408.956842</ele>
        <time>2025-04-25T07:57:06.000Z</time>
      </trkpt>
      <trkpt lat="43.36402" lon="6.13361">
        <ele>409.227947</ele>
        <time>2025-04-25T07:57:08.000Z</time>
      </trkpt>
      <trkpt lat="43.36402" lon="6.13361">
        <ele>409.227947</ele>
        <time>2025-04-25T07:57:08.000Z</time>
      </trkpt>
      <trkpt lat="43.364" lon="6.13359">
        <ele>409.463439</ele>
        <time>2025-04-25T07:57:08.000Z</time>
      </trkpt>
      <trkpt lat="43.364" lon="6.13359">
        <ele>409.463439</ele>
        <time>2025-04-25T07:57:08.000Z</time>
      </trkpt>
      <trkpt lat="43.36398" lon="6.13356">
        <ele>409.707933</ele>
        <time>2025-04-25T07:57:10.000Z</time>
      </trkpt>
      <trkpt lat="43.36398" lon="6.13356">
        <ele>409.707933</ele>
        <time>2025-04-25T07:57:10.000Z</time>
      </trkpt>
      <trkpt lat="43.36393" lon="6.13351">
        <ele>410.212185</ele>
        <time>2025-04-25T07:57:12.000Z</time>
      </trkpt>
      <trkpt lat="43.36393" lon="6.13351">
        <ele>410.212185</ele>
        <time>2025-04-25T07:57:12.000Z</time>
      </trkpt>
      <trkpt lat="43.3639" lon="6.13349">
        <ele>410.468171</ele>
        <time>2025-04-25T07:57:13.000Z</time>
      </trkpt>
      <trkpt lat="43.3639" lon="6.13349">
        <ele>410.468171</ele>
        <time>2025-04-25T07:57:13.000Z</time>
      </trkpt>
      <trkpt lat="43.36388" lon="6.13347">
        <ele>410.668829</ele>
        <time>2025-04-25T07:57:14.000Z</time>
      </trkpt>
      <trkpt lat="43.36388" lon="6.13347">
        <ele>410.668829</ele>
        <time>2025-04-25T07:57:14.000Z</time>
      </trkpt>
      <trkpt lat="43.36385" lon="6.13346">
        <ele>410.890721</ele>
        <time>2025-04-25T07:57:15.000Z</time>
      </trkpt>
      <trkpt lat="43.36385" lon="6.13346">
        <ele>410.890721</ele>
        <time>2025-04-25T07:57:15.000Z</time>
      </trkpt>
      <trkpt lat="43.36382" lon="6.13346">
        <ele>411.176221</ele>
        <time>2025-04-25T07:57:16.000Z</time>
      </trkpt>
      <trkpt lat="43.36382" lon="6.13346">
        <ele>411.176221</ele>
        <time>2025-04-25T07:57:16.000Z</time>
      </trkpt>
      <trkpt lat="43.36379" lon="6.13346">
        <ele>411.388308</ele>
        <time>2025-04-25T07:57:17.000Z</time>
      </trkpt>
      <trkpt lat="43.36379" lon="6.13346">
        <ele>411.388308</ele>
        <time>2025-04-25T07:57:17.000Z</time>
      </trkpt>
      <trkpt lat="43.36375" lon="6.13347">
        <ele>411.676017</ele>
        <time>2025-04-25T07:57:18.000Z</time>
      </trkpt>
      <trkpt lat="43.36375" lon="6.13347">
        <ele>411.676017</ele>
        <time>2025-04-25T07:57:18.000Z</time>
      </trkpt>
      <trkpt lat="43.3637" lon="6.13348">
        <ele>412.14833</ele>
        <time>2025-04-25T07:57:20.000Z</time>
      </trkpt>
      <trkpt lat="43.3637" lon="6.13348">
        <ele>412.14833</ele>
        <time>2025-04-25T07:57:20.000Z</time>
      </trkpt>
      <trkpt lat="43.36366" lon="6.13349">
        <ele>412.430763</ele>
        <time>2025-04-25T07:57:21.000Z</time>
      </trkpt>
      <trkpt lat="43.36366" lon="6.13349">
        <ele>412.430763</ele>
        <time>2025-04-25T07:57:21.000Z</time>
      </trkpt>
      <trkpt lat="43.36364" lon="6.13349">
        <ele>412.651006</ele>
        <time>2025-04-25T07:57:21.000Z</time>
      </trkpt>
      <trkpt lat="43.36364" lon="6.13349">
        <ele>412.651006</ele>
        <time>2025-04-25T07:57:21.000Z</time>
      </trkpt>
      <trkpt lat="43.36361" lon="6.13349">
        <ele>412.903948</ele>
        <time>2025-04-25T07:57:23.000Z</time>
      </trkpt>
      <trkpt lat="43.36361" lon="6.13349">
        <ele>412.903948</ele>
        <time>2025-04-25T07:57:23.000Z</time>
      </trkpt>
      <trkpt lat="43.36358" lon="6.13349">
        <ele>413.083797</ele>
        <time>2025-04-25T07:57:23.000Z</time>
      </trkpt>
      <trkpt lat="43.36358" lon="6.13349">
        <ele>413.083797</ele>
        <time>2025-04-25T07:57:23.000Z</time>
      </trkpt>
      <trkpt lat="43.36355" lon="6.1335">
        <ele>413.336739</ele>
        <time>2025-04-25T07:57:25.000Z</time>
      </trkpt>
      <trkpt lat="43.36355" lon="6.1335">
        <ele>413.336739</ele>
        <time>2025-04-25T07:57:25.000Z</time>
      </trkpt>
      <trkpt lat="43.36353" lon="6.1335">
        <ele>413.557302</ele>
        <time>2025-04-25T07:57:25.000Z</time>
      </trkpt>
      <trkpt lat="43.36353" lon="6.1335">
        <ele>413.557302</ele>
        <time>2025-04-25T07:57:25.000Z</time>
      </trkpt>
      <trkpt lat="43.3635" lon="6.1335">
        <ele>413.802089</ele>
        <time>2025-04-25T07:57:27.000Z</time>
      </trkpt>
      <trkpt lat="43.3635" lon="6.1335">
        <ele>413.802089</ele>
        <time>2025-04-25T07:57:27.000Z</time>
      </trkpt>
      <trkpt lat="43.36347" lon="6.1335">
        <ele>414.022412</ele>
        <time>2025-04-25T07:57:28.000Z</time>
      </trkpt>
      <trkpt lat="43.36347" lon="6.1335">
        <ele>414.022412</ele>
        <time>2025-04-25T07:57:28.000Z</time>
      </trkpt>
      <trkpt lat="43.36344" lon="6.13349">
        <ele>414.267773</ele>
        <time>2025-04-25T07:57:29.000Z</time>
      </trkpt>
      <trkpt lat="43.36344" lon="6.13349">
        <ele>414.267773</ele>
        <time>2025-04-25T07:57:29.000Z</time>
      </trkpt>
      <trkpt lat="43.36341" lon="6.13349">
        <ele>414.488096</ele>
        <time>2025-04-25T07:57:29.000Z</time>
      </trkpt>
      <trkpt lat="43.36341" lon="6.13349">
        <ele>414.488096</ele>
        <time>2025-04-25T07:57:29.000Z</time>
      </trkpt>
      <trkpt lat="43.36338" lon="6.13349">
        <ele>414.741593</ele>
        <time>2025-04-25T07:57:31.000Z</time>
      </trkpt>
      <trkpt lat="43.36338" lon="6.13349">
        <ele>414.741593</ele>
        <time>2025-04-25T07:57:31.000Z</time>
      </trkpt>
      <trkpt lat="43.36335" lon="6.13348">
        <ele>414.989804</ele>
        <time>2025-04-25T07:57:31.000Z</time>
      </trkpt>
      <trkpt lat="43.36335" lon="6.13348">
        <ele>414.989804</ele>
        <time>2025-04-25T07:57:31.000Z</time>
      </trkpt>
      <trkpt lat="43.36332" lon="6.13347">
        <ele>415.247089</ele>
        <time>2025-04-25T07:57:33.000Z</time>
      </trkpt>
      <trkpt lat="43.36332" lon="6.13347">
        <ele>415.247089</ele>
        <time>2025-04-25T07:57:33.000Z</time>
      </trkpt>
      <trkpt lat="43.36329" lon="6.13346">
        <ele>415.465788</ele>
        <time>2025-04-25T07:57:33.000Z</time>
      </trkpt>
      <trkpt lat="43.36329" lon="6.13346">
        <ele>415.465788</ele>
        <time>2025-04-25T07:57:33.000Z</time>
      </trkpt>
      <trkpt lat="43.36327" lon="6.13345">
        <ele>415.693876</ele>
        <time>2025-04-25T07:57:35.000Z</time>
      </trkpt>
      <trkpt lat="43.36327" lon="6.13345">
        <ele>415.693876</ele>
        <time>2025-04-25T07:57:35.000Z</time>
      </trkpt>
      <trkpt lat="43.36324" lon="6.13344">
        <ele>415.950448</ele>
        <time>2025-04-25T07:57:36.000Z</time>
      </trkpt>
      <trkpt lat="43.36324" lon="6.13344">
        <ele>415.950448</ele>
        <time>2025-04-25T07:57:36.000Z</time>
      </trkpt>
      <trkpt lat="43.36321" lon="6.13343">
        <ele>416.14908</ele>
        <time>2025-04-25T07:57:36.000Z</time>
      </trkpt>
      <trkpt lat="43.36321" lon="6.13343">
        <ele>416.14908</ele>
        <time>2025-04-25T07:57:36.000Z</time>
      </trkpt>
      <trkpt lat="43.36319" lon="6.13341">
        <ele>416.391301</ele>
        <time>2025-04-25T07:57:38.000Z</time>
      </trkpt>
      <trkpt lat="43.36319" lon="6.13341">
        <ele>416.391301</ele>
        <time>2025-04-25T07:57:38.000Z</time>
      </trkpt>
      <trkpt lat="43.36316" lon="6.1334">
        <ele>416.596466</ele>
        <time>2025-04-25T07:57:39.000Z</time>
      </trkpt>
      <trkpt lat="43.36316" lon="6.1334">
        <ele>416.596466</ele>
        <time>2025-04-25T07:57:39.000Z</time>
      </trkpt>
      <trkpt lat="43.36314" lon="6.13338">
        <ele>416.784657</ele>
        <time>2025-04-25T07:57:39.000Z</time>
      </trkpt>
      <trkpt lat="43.36314" lon="6.13338">
        <ele>416.784657</ele>
        <time>2025-04-25T07:57:39.000Z</time>
      </trkpt>
      <trkpt lat="43.36312" lon="6.13336">
        <ele>417.040643</ele>
        <time>2025-04-25T07:57:40.000Z</time>
      </trkpt>
      <trkpt lat="43.36312" lon="6.13336">
        <ele>417.040643</ele>
        <time>2025-04-25T07:57:40.000Z</time>
      </trkpt>
      <trkpt lat="43.36309" lon="6.13334">
        <ele>417.276137</ele>
        <time>2025-04-25T07:57:42.000Z</time>
      </trkpt>
      <trkpt lat="43.36309" lon="6.13334">
        <ele>417.276137</ele>
        <time>2025-04-25T07:57:42.000Z</time>
      </trkpt>
      <trkpt lat="43.36307" lon="6.13331">
        <ele>417.505299</ele>
        <time>2025-04-25T07:57:42.000Z</time>
      </trkpt>
      <trkpt lat="43.36307" lon="6.13331">
        <ele>417.505299</ele>
        <time>2025-04-25T07:57:42.000Z</time>
      </trkpt>
      <trkpt lat="43.36305" lon="6.13328">
        <ele>417.745716</ele>
        <time>2025-04-25T07:57:44.000Z</time>
      </trkpt>
      <trkpt lat="43.36305" lon="6.13328">
        <ele>417.745716</ele>
        <time>2025-04-25T07:57:44.000Z</time>
      </trkpt>
      <trkpt lat="43.36303" lon="6.13326">
        <ele>417.978813</ele>
        <time>2025-04-25T07:57:45.000Z</time>
      </trkpt>
      <trkpt lat="43.36303" lon="6.13326">
        <ele>417.978813</ele>
        <time>2025-04-25T07:57:45.000Z</time>
      </trkpt>
      <trkpt lat="43.36301" lon="6.13322">
        <ele>418.219744</ele>
        <time>2025-04-25T07:57:45.000Z</time>
      </trkpt>
      <trkpt lat="43.36301" lon="6.13322">
        <ele>418.219744</ele>
        <time>2025-04-25T07:57:45.000Z</time>
      </trkpt>
      <trkpt lat="43.36299" lon="6.13319">
        <ele>418.470012</ele>
        <time>2025-04-25T07:57:47.000Z</time>
      </trkpt>
      <trkpt lat="43.36299" lon="6.13319">
        <ele>418.470012</ele>
        <time>2025-04-25T07:57:47.000Z</time>
      </trkpt>
      <trkpt lat="43.36297" lon="6.13317">
        <ele>418.663568</ele>
        <time>2025-04-25T07:57:47.000Z</time>
      </trkpt>
      <trkpt lat="43.36297" lon="6.13317">
        <ele>418.663568</ele>
        <time>2025-04-25T07:57:47.000Z</time>
      </trkpt>
      <trkpt lat="43.36295" lon="6.13313">
        <ele>418.934392</ele>
        <time>2025-04-25T07:57:48.000Z</time>
      </trkpt>
      <trkpt lat="43.36295" lon="6.13313">
        <ele>418.934392</ele>
        <time>2025-04-25T07:57:48.000Z</time>
      </trkpt>
      <trkpt lat="43.36293" lon="6.1331">
        <ele>419.184466</ele>
        <time>2025-04-25T07:57:50.000Z</time>
      </trkpt>
      <trkpt lat="43.36293" lon="6.1331">
        <ele>419.184466</ele>
        <time>2025-04-25T07:57:50.000Z</time>
      </trkpt>
      <trkpt lat="43.36291" lon="6.13306">
        <ele>419.443885</ele>
        <time>2025-04-25T07:57:50.000Z</time>
      </trkpt>
      <trkpt lat="43.36291" lon="6.13306">
        <ele>419.443885</ele>
        <time>2025-04-25T07:57:50.000Z</time>
      </trkpt>
      <trkpt lat="43.3629" lon="6.13303">
        <ele>419.690928</ele>
        <time>2025-04-25T07:57:51.000Z</time>
      </trkpt>
      <trkpt lat="43.3629" lon="6.13303">
        <ele>419.690928</ele>
        <time>2025-04-25T07:57:51.000Z</time>
      </trkpt>
      <trkpt lat="43.36288" lon="6.133">
        <ele>419.927372</ele>
        <time>2025-04-25T07:57:52.000Z</time>
      </trkpt>
      <trkpt lat="43.36288" lon="6.133">
        <ele>419.927372</ele>
        <time>2025-04-25T07:57:52.000Z</time>
      </trkpt>
      <trkpt lat="43.36286" lon="6.13296">
        <ele>420.201141</ele>
        <time>2025-04-25T07:57:54.000Z</time>
      </trkpt>
      <trkpt lat="43.36286" lon="6.13296">
        <ele>420.201141</ele>
        <time>2025-04-25T07:57:54.000Z</time>
      </trkpt>
      <trkpt lat="43.36285" lon="6.13292">
        <ele>420.416309</ele>
        <time>2025-04-25T07:57:55.000Z</time>
      </trkpt>
      <trkpt lat="43.36285" lon="6.13292">
        <ele>420.416309</ele>
        <time>2025-04-25T07:57:55.000Z</time>
      </trkpt>
      <trkpt lat="43.36283" lon="6.13288">
        <ele>420.67877</ele>
        <time>2025-04-25T07:57:56.000Z</time>
      </trkpt>
      <trkpt lat="43.36283" lon="6.13288">
        <ele>420.67877</ele>
        <time>2025-04-25T07:57:56.000Z</time>
      </trkpt>
      <trkpt lat="43.36282" lon="6.13285">
        <ele>420.890472</ele>
        <time>2025-04-25T07:57:56.000Z</time>
      </trkpt>
      <trkpt lat="43.36282" lon="6.13285">
        <ele>420.890472</ele>
        <time>2025-04-25T07:57:56.000Z</time>
      </trkpt>
      <trkpt lat="43.3628" lon="6.13282">
        <ele>421.136526</ele>
        <time>2025-04-25T07:57:58.000Z</time>
      </trkpt>
      <trkpt lat="43.3628" lon="6.13282">
        <ele>421.136526</ele>
        <time>2025-04-25T07:57:58.000Z</time>
      </trkpt>
      <trkpt lat="43.3628" lon="6.13277">
        <ele>421.388432</ele>
        <time>2025-04-25T07:57:58.000Z</time>
      </trkpt>
      <trkpt lat="43.3628" lon="6.13277">
        <ele>421.388432</ele>
        <time>2025-04-25T07:57:58.000Z</time>
      </trkpt>
      <trkpt lat="43.36279" lon="6.13273">
        <ele>421.63539</ele>
        <time>2025-04-25T07:58:00.000Z</time>
      </trkpt>
      <trkpt lat="43.36279" lon="6.13273">
        <ele>421.63539</ele>
        <time>2025-04-25T07:58:00.000Z</time>
      </trkpt>
      <trkpt lat="43.36278" lon="6.1327">
        <ele>421.863989</ele>
        <time>2025-04-25T07:58:01.000Z</time>
      </trkpt>
      <trkpt lat="43.36278" lon="6.1327">
        <ele>421.863989</ele>
        <time>2025-04-25T07:58:01.000Z</time>
      </trkpt>
      <trkpt lat="43.36278" lon="6.13265">
        <ele>422.105224</ele>
        <time>2025-04-25T07:58:01.000Z</time>
      </trkpt>
      <trkpt lat="43.36278" lon="6.13265">
        <ele>422.105224</ele>
        <time>2025-04-25T07:58:01.000Z</time>
      </trkpt>
      <trkpt lat="43.36277" lon="6.13262">
        <ele>422.329131</ele>
        <time>2025-04-25T07:58:03.000Z</time>
      </trkpt>
      <trkpt lat="43.36277" lon="6.13262">
        <ele>422.329131</ele>
        <time>2025-04-25T07:58:03.000Z</time>
      </trkpt>
      <trkpt lat="43.36278" lon="6.13258">
        <ele>422.518477</ele>
        <time>2025-04-25T07:58:03.000Z</time>
      </trkpt>
      <trkpt lat="43.36278" lon="6.13258">
        <ele>422.518477</ele>
        <time>2025-04-25T07:58:03.000Z</time>
      </trkpt>
      <trkpt lat="43.36278" lon="6.13255">
        <ele>422.707823</ele>
        <time>2025-04-25T07:58:05.000Z</time>
      </trkpt>
      <trkpt lat="43.36278" lon="6.13255">
        <ele>422.707823</ele>
        <time>2025-04-25T07:58:05.000Z</time>
      </trkpt>
      <trkpt lat="43.36279" lon="6.13252">
        <ele>422.880488</ele>
        <time>2025-04-25T07:58:05.000Z</time>
      </trkpt>
      <trkpt lat="43.36279" lon="6.13252">
        <ele>422.880488</ele>
        <time>2025-04-25T07:58:05.000Z</time>
      </trkpt>
      <trkpt lat="43.36281" lon="6.13249">
        <ele>423.159964</ele>
        <time>2025-04-25T07:58:07.000Z</time>
      </trkpt>
      <trkpt lat="43.36281" lon="6.13249">
        <ele>423.159964</ele>
        <time>2025-04-25T07:58:07.000Z</time>
      </trkpt>
      <trkpt lat="43.36283" lon="6.13247">
        <ele>423.327531</ele>
        <time>2025-04-25T07:58:07.000Z</time>
      </trkpt>
      <trkpt lat="43.36283" lon="6.13247">
        <ele>423.327531</ele>
        <time>2025-04-25T07:58:07.000Z</time>
      </trkpt>
      <trkpt lat="43.36285" lon="6.13244">
        <ele>423.602306</ele>
        <time>2025-04-25T07:58:09.000Z</time>
      </trkpt>
      <trkpt lat="43.36285" lon="6.13244">
        <ele>423.602306</ele>
        <time>2025-04-25T07:58:09.000Z</time>
      </trkpt>
      <trkpt lat="43.36288" lon="6.13241">
        <ele>423.863373</ele>
        <time>2025-04-25T07:58:10.000Z</time>
      </trkpt>
      <trkpt lat="43.36288" lon="6.13241">
        <ele>423.863373</ele>
        <time>2025-04-25T07:58:10.000Z</time>
      </trkpt>
      <trkpt lat="43.36291" lon="6.13238">
        <ele>424.160878</ele>
        <time>2025-04-25T07:58:11.000Z</time>
      </trkpt>
      <trkpt lat="43.36291" lon="6.13238">
        <ele>424.160878</ele>
        <time>2025-04-25T07:58:11.000Z</time>
      </trkpt>
      <trkpt lat="43.36295" lon="6.13234">
        <ele>424.577386</ele>
        <time>2025-04-25T07:58:12.000Z</time>
      </trkpt>
      <trkpt lat="43.36295" lon="6.13234">
        <ele>424.577386</ele>
        <time>2025-04-25T07:58:12.000Z</time>
      </trkpt>
      <trkpt lat="43.36298" lon="6.13232">
        <ele>424.841754</ele>
        <time>2025-04-25T07:58:13.000Z</time>
      </trkpt>
      <trkpt lat="43.36298" lon="6.13232">
        <ele>424.841754</ele>
        <time>2025-04-25T07:58:13.000Z</time>
      </trkpt>
      <trkpt lat="43.36301" lon="6.13228">
        <ele>425.143373</ele>
        <time>2025-04-25T07:58:14.000Z</time>
      </trkpt>
      <trkpt lat="43.36301" lon="6.13228">
        <ele>425.143373</ele>
        <time>2025-04-25T07:58:14.000Z</time>
      </trkpt>
      <trkpt lat="43.36302" lon="6.13224">
        <ele>425.390416</ele>
        <time>2025-04-25T07:58:15.000Z</time>
      </trkpt>
      <trkpt lat="43.36302" lon="6.13224">
        <ele>425.390416</ele>
        <time>2025-04-25T07:58:15.000Z</time>
      </trkpt>
      <trkpt lat="43.36304" lon="6.1322">
        <ele>425.673809</ele>
        <time>2025-04-25T07:58:16.000Z</time>
      </trkpt>
      <trkpt lat="43.36304" lon="6.1322">
        <ele>425.673809</ele>
        <time>2025-04-25T07:58:16.000Z</time>
      </trkpt>
      <trkpt lat="43.36305" lon="6.13216">
        <ele>425.92136</ele>
        <time>2025-04-25T07:58:16.000Z</time>
      </trkpt>
      <trkpt lat="43.36305" lon="6.13216">
        <ele>425.92136</ele>
        <time>2025-04-25T07:58:16.000Z</time>
      </trkpt>
      <trkpt lat="43.36305" lon="6.13212">
        <ele>426.161281</ele>
        <time>2025-04-25T07:58:18.000Z</time>
      </trkpt>
      <trkpt lat="43.36305" lon="6.13212">
        <ele>426.161281</ele>
        <time>2025-04-25T07:58:18.000Z</time>
      </trkpt>
      <trkpt lat="43.36306" lon="6.13207">
        <ele>426.442772</ele>
        <time>2025-04-25T07:58:19.000Z</time>
      </trkpt>
      <trkpt lat="43.36306" lon="6.13203">
        <ele>426.705188</ele>
        <time>2025-04-25T07:58:20.000Z</time>
      </trkpt>
      <trkpt lat="43.36306" lon="6.13203">
        <ele>426.705188</ele>
        <time>2025-04-25T07:58:20.000Z</time>
      </trkpt>
      <trkpt lat="43.36306" lon="6.13198">
        <ele>426.998521</ele>
        <time>2025-04-25T07:58:21.000Z</time>
      </trkpt>
      <trkpt lat="43.36306" lon="6.13198">
        <ele>426.998521</ele>
        <time>2025-04-25T07:58:21.000Z</time>
      </trkpt>
      <trkpt lat="43.36306" lon="6.13193">
        <ele>427.249274</ele>
        <time>2025-04-25T07:58:21.000Z</time>
      </trkpt>
      <trkpt lat="43.36306" lon="6.13189">
        <ele>427.523352</ele>
        <time>2025-04-25T07:58:22.000Z</time>
      </trkpt>
      <trkpt lat="43.36306" lon="6.13189">
        <ele>427.523352</ele>
        <time>2025-04-25T07:58:22.000Z</time>
      </trkpt>
      <trkpt lat="43.36306" lon="6.13184">
        <ele>427.822483</ele>
        <time>2025-04-25T07:58:24.000Z</time>
      </trkpt>
      <trkpt lat="43.36306" lon="6.13184">
        <ele>427.822483</ele>
        <time>2025-04-25T07:58:24.000Z</time>
      </trkpt>
      <trkpt lat="43.36306" lon="6.13178">
        <ele>428.121613</ele>
        <time>2025-04-25T07:58:24.000Z</time>
      </trkpt>
      <trkpt lat="43.36306" lon="6.13178">
        <ele>428.121613</ele>
        <time>2025-04-25T07:58:24.000Z</time>
      </trkpt>
      <trkpt lat="43.36305" lon="6.13174">
        <ele>428.380196</ele>
        <time>2025-04-25T07:58:25.000Z</time>
      </trkpt>
      <trkpt lat="43.36305" lon="6.13174">
        <ele>428.380196</ele>
        <time>2025-04-25T07:58:25.000Z</time>
      </trkpt>
      <trkpt lat="43.36305" lon="6.1317">
        <ele>428.63678</ele>
        <time>2025-04-25T07:58:26.000Z</time>
      </trkpt>
      <trkpt lat="43.36305" lon="6.1317">
        <ele>428.63678</ele>
        <time>2025-04-25T07:58:26.000Z</time>
      </trkpt>
      <trkpt lat="43.36305" lon="6.13166">
        <ele>428.87587</ele>
        <time>2025-04-25T07:58:27.000Z</time>
      </trkpt>
      <trkpt lat="43.36305" lon="6.13166">
        <ele>428.87587</ele>
        <time>2025-04-25T07:58:27.000Z</time>
      </trkpt>
      <trkpt lat="43.36305" lon="6.1316">
        <ele>429.173275</ele>
        <time>2025-04-25T07:58:28.000Z</time>
      </trkpt>
      <trkpt lat="43.36305" lon="6.1316">
        <ele>429.173275</ele>
        <time>2025-04-25T07:58:28.000Z</time>
      </trkpt>
      <trkpt lat="43.36305" lon="6.13156">
        <ele>429.435691</ele>
        <time>2025-04-25T07:58:30.000Z</time>
      </trkpt>
      <trkpt lat="43.36305" lon="6.13156">
        <ele>429.435691</ele>
        <time>2025-04-25T07:58:30.000Z</time>
      </trkpt>
      <trkpt lat="43.36305" lon="6.13151">
        <ele>429.70977</ele>
        <time>2025-04-25T07:58:31.000Z</time>
      </trkpt>
      <trkpt lat="43.36305" lon="6.13151">
        <ele>429.70977</ele>
        <time>2025-04-25T07:58:31.000Z</time>
      </trkpt>
      <trkpt lat="43.36306" lon="6.13146">
        <ele>430.003103</ele>
        <time>2025-04-25T07:58:31.000Z</time>
      </trkpt>
      <trkpt lat="43.36306" lon="6.13146">
        <ele>430.003103</ele>
        <time>2025-04-25T07:58:31.000Z</time>
      </trkpt>
      <trkpt lat="43.36306" lon="6.13141">
        <ele>430.323834</ele>
        <time>2025-04-25T07:58:32.000Z</time>
      </trkpt>
      <trkpt lat="43.36306" lon="6.13141">
        <ele>430.323834</ele>
        <time>2025-04-25T07:58:32.000Z</time>
      </trkpt>
      <trkpt lat="43.36305" lon="6.13136">
        <ele>430.593993</ele>
        <time>2025-04-25T07:58:34.000Z</time>
      </trkpt>
      <trkpt lat="43.36305" lon="6.13136">
        <ele>430.593993</ele>
        <time>2025-04-25T07:58:34.000Z</time>
      </trkpt>
      <trkpt lat="43.36305" lon="6.13131">
        <ele>430.90981</ele>
        <time>2025-04-25T07:58:34.000Z</time>
      </trkpt>
      <trkpt lat="43.36305" lon="6.13131">
        <ele>430.90981</ele>
        <time>2025-04-25T07:58:34.000Z</time>
      </trkpt>
      <trkpt lat="43.36304" lon="6.13126">
        <ele>431.214059</ele>
        <time>2025-04-25T07:58:35.000Z</time>
      </trkpt>
      <trkpt lat="43.36304" lon="6.13126">
        <ele>431.214059</ele>
        <time>2025-04-25T07:58:35.000Z</time>
      </trkpt>
      <trkpt lat="43.36303" lon="6.13121">
        <ele>431.506917</ele>
        <time>2025-04-25T07:58:36.000Z</time>
      </trkpt>
      <trkpt lat="43.36303" lon="6.13121">
        <ele>431.506917</ele>
        <time>2025-04-25T07:58:36.000Z</time>
      </trkpt>
      <trkpt lat="43.36302" lon="6.13116">
        <ele>431.787098</ele>
        <time>2025-04-25T07:58:37.000Z</time>
      </trkpt>
      <trkpt lat="43.36302" lon="6.13116">
        <ele>431.787098</ele>
        <time>2025-04-25T07:58:37.000Z</time>
      </trkpt>
      <trkpt lat="43.36301" lon="6.13111">
        <ele>432.184418</ele>
        <time>2025-04-25T07:58:39.000Z</time>
      </trkpt>
      <trkpt lat="43.36301" lon="6.13111">
        <ele>432.184418</ele>
        <time>2025-04-25T07:58:39.000Z</time>
      </trkpt>
      <trkpt lat="43.363" lon="6.13106">
        <ele>432.501346</ele>
        <time>2025-04-25T07:58:40.000Z</time>
      </trkpt>
      <trkpt lat="43.363" lon="6.13106">
        <ele>432.501346</ele>
        <time>2025-04-25T07:58:40.000Z</time>
      </trkpt>
      <trkpt lat="43.36299" lon="6.13102">
        <ele>432.851858</ele>
        <time>2025-04-25T07:58:40.000Z</time>
      </trkpt>
      <trkpt lat="43.36299" lon="6.13102">
        <ele>432.851858</ele>
        <time>2025-04-25T07:58:40.000Z</time>
      </trkpt>
      <trkpt lat="43.36298" lon="6.13097">
        <ele>433.187451</ele>
        <time>2025-04-25T07:58:41.000Z</time>
      </trkpt>
      <trkpt lat="43.36298" lon="6.13097">
        <ele>433.187451</ele>
        <time>2025-04-25T07:58:41.000Z</time>
      </trkpt>
      <trkpt lat="43.36296" lon="6.13093">
        <ele>433.504143</ele>
        <time>2025-04-25T07:58:43.000Z</time>
      </trkpt>
      <trkpt lat="43.36296" lon="6.13093">
        <ele>433.504143</ele>
        <time>2025-04-25T07:58:43.000Z</time>
      </trkpt>
      <trkpt lat="43.36294" lon="6.13089">
        <ele>433.885465</ele>
        <time>2025-04-25T07:58:44.000Z</time>
      </trkpt>
      <trkpt lat="43.36294" lon="6.13089">
        <ele>433.885465</ele>
        <time>2025-04-25T07:58:44.000Z</time>
      </trkpt>
      <trkpt lat="43.36292" lon="6.13086">
        <ele>434.17618</ele>
        <time>2025-04-25T07:58:45.000Z</time>
      </trkpt>
      <trkpt lat="43.36292" lon="6.13086">
        <ele>434.17618</ele>
        <time>2025-04-25T07:58:45.000Z</time>
      </trkpt>
      <trkpt lat="43.3629" lon="6.13083">
        <ele>434.497848</ele>
        <time>2025-04-25T07:58:46.000Z</time>
      </trkpt>
      <trkpt lat="43.3629" lon="6.13083">
        <ele>434.497848</ele>
        <time>2025-04-25T07:58:46.000Z</time>
      </trkpt>
      <trkpt lat="43.36288" lon="6.13079">
        <ele>434.799594</ele>
        <time>2025-04-25T07:58:47.000Z</time>
      </trkpt>
      <trkpt lat="43.36288" lon="6.13079">
        <ele>434.799594</ele>
        <time>2025-04-25T07:58:47.000Z</time>
      </trkpt>
      <trkpt lat="43.36285" lon="6.13075">
        <ele>435.147512</ele>
        <time>2025-04-25T07:58:47.000Z</time>
      </trkpt>
      <trkpt lat="43.36285" lon="6.13075">
        <ele>435.147512</ele>
        <time>2025-04-25T07:58:47.000Z</time>
      </trkpt>
      <trkpt lat="43.36284" lon="6.13073">
        <ele>435.411917</ele>
        <time>2025-04-25T07:58:49.000Z</time>
      </trkpt>
      <trkpt lat="43.36284" lon="6.13073">
        <ele>435.411917</ele>
        <time>2025-04-25T07:58:49.000Z</time>
      </trkpt>
      <trkpt lat="43.36282" lon="6.13069">
        <ele>435.713663</ele>
        <time>2025-04-25T07:58:50.000Z</time>
      </trkpt>
      <trkpt lat="43.36282" lon="6.13069">
        <ele>435.713663</ele>
        <time>2025-04-25T07:58:50.000Z</time>
      </trkpt>
      <trkpt lat="43.36279" lon="6.13065">
        <ele>436.061581</ele>
        <time>2025-04-25T07:58:51.000Z</time>
      </trkpt>
      <trkpt lat="43.36279" lon="6.13065">
        <ele>436.061581</ele>
        <time>2025-04-25T07:58:51.000Z</time>
      </trkpt>
      <trkpt lat="43.36277" lon="6.13061">
        <ele>436.483076</ele>
        <time>2025-04-25T07:58:52.000Z</time>
      </trkpt>
      <trkpt lat="43.36277" lon="6.13061">
        <ele>436.483076</ele>
        <time>2025-04-25T07:58:52.000Z</time>
      </trkpt>
      <trkpt lat="43.36273" lon="6.13056">
        <ele>436.964807</ele>
        <time>2025-04-25T07:58:54.000Z</time>
      </trkpt>
      <trkpt lat="43.36273" lon="6.13056">
        <ele>436.964807</ele>
        <time>2025-04-25T07:58:54.000Z</time>
      </trkpt>
      <trkpt lat="43.36272" lon="6.13053">
        <ele>437.198358</ele>
        <time>2025-04-25T07:58:54.000Z</time>
      </trkpt>
      <trkpt lat="43.36272" lon="6.13053">
        <ele>437.198358</ele>
        <time>2025-04-25T07:58:54.000Z</time>
      </trkpt>
      <trkpt lat="43.3627" lon="6.13051">
        <ele>437.438045</ele>
        <time>2025-04-25T07:58:56.000Z</time>
      </trkpt>
      <trkpt lat="43.3627" lon="6.13051">
        <ele>437.438045</ele>
        <time>2025-04-25T07:58:56.000Z</time>
      </trkpt>
      <trkpt lat="43.36267" lon="6.13045">
        <ele>437.910679</ele>
        <time>2025-04-25T07:58:57.000Z</time>
      </trkpt>
      <trkpt lat="43.36267" lon="6.13045">
        <ele>437.910679</ele>
        <time>2025-04-25T07:58:57.000Z</time>
      </trkpt>
      <trkpt lat="43.36266" lon="6.13042">
        <ele>438.18453</ele>
        <time>2025-04-25T07:58:58.000Z</time>
      </trkpt>
      <trkpt lat="43.36266" lon="6.13042">
        <ele>438.18453</ele>
        <time>2025-04-25T07:58:58.000Z</time>
      </trkpt>
      <trkpt lat="43.36264" lon="6.13038">
        <ele>438.503274</ele>
        <time>2025-04-25T07:58:59.000Z</time>
      </trkpt>
      <trkpt lat="43.36264" lon="6.13038">
        <ele>438.503274</ele>
        <time>2025-04-25T07:58:59.000Z</time>
      </trkpt>
      <trkpt lat="43.36262" lon="6.13035">
        <ele>438.765076</ele>
        <time>2025-04-25T07:59:00.000Z</time>
      </trkpt>
      <trkpt lat="43.36262" lon="6.13035">
        <ele>438.765076</ele>
        <time>2025-04-25T07:59:00.000Z</time>
      </trkpt>
      <trkpt lat="43.3626" lon="6.13033">
        <ele>439.019557</ele>
        <time>2025-04-25T07:59:00.000Z</time>
      </trkpt>
      <trkpt lat="43.3626" lon="6.13033">
        <ele>439.019557</ele>
        <time>2025-04-25T07:59:00.000Z</time>
      </trkpt>
      <trkpt lat="43.36258" lon="6.1303">
        <ele>439.326336</ele>
        <time>2025-04-25T07:59:02.000Z</time>
      </trkpt>
      <trkpt lat="43.36258" lon="6.1303">
        <ele>439.326336</ele>
        <time>2025-04-25T07:59:02.000Z</time>
      </trkpt>
      <trkpt lat="43.36256" lon="6.13028">
        <ele>439.533486</ele>
        <time>2025-04-25T07:59:03.000Z</time>
      </trkpt>
      <trkpt lat="43.36256" lon="6.13028">
        <ele>439.533486</ele>
        <time>2025-04-25T07:59:03.000Z</time>
      </trkpt>
      <trkpt lat="43.36254" lon="6.13025">
        <ele>439.826141</ele>
        <time>2025-04-25T07:59:03.000Z</time>
      </trkpt>
      <trkpt lat="43.36254" lon="6.13025">
        <ele>439.826141</ele>
        <time>2025-04-25T07:59:03.000Z</time>
      </trkpt>
      <trkpt lat="43.36252" lon="6.13023">
        <ele>440.07581</ele>
        <time>2025-04-25T07:59:04.000Z</time>
      </trkpt>
      <trkpt lat="43.36252" lon="6.13023">
        <ele>440.07581</ele>
        <time>2025-04-25T07:59:04.000Z</time>
      </trkpt>
      <trkpt lat="43.3625" lon="6.13019">
        <ele>440.416204</ele>
        <time>2025-04-25T07:59:05.000Z</time>
      </trkpt>
      <trkpt lat="43.3625" lon="6.13019">
        <ele>440.416204</ele>
        <time>2025-04-25T07:59:05.000Z</time>
      </trkpt>
      <trkpt lat="43.36248" lon="6.13017">
        <ele>440.660935</ele>
        <time>2025-04-25T07:59:07.000Z</time>
      </trkpt>
      <trkpt lat="43.36248" lon="6.13017">
        <ele>440.660935</ele>
        <time>2025-04-25T07:59:07.000Z</time>
      </trkpt>
      <trkpt lat="43.36246" lon="6.13014">
        <ele>440.930441</ele>
        <time>2025-04-25T07:59:07.000Z</time>
      </trkpt>
      <trkpt lat="43.36246" lon="6.13014">
        <ele>440.930441</ele>
        <time>2025-04-25T07:59:07.000Z</time>
      </trkpt>
      <trkpt lat="43.36244" lon="6.13011">
        <ele>441.209854</ele>
        <time>2025-04-25T07:59:09.000Z</time>
      </trkpt>
      <trkpt lat="43.36244" lon="6.13011">
        <ele>441.209854</ele>
        <time>2025-04-25T07:59:09.000Z</time>
      </trkpt>
      <trkpt lat="43.36241" lon="6.13009">
        <ele>441.510057</ele>
        <time>2025-04-25T07:59:10.000Z</time>
      </trkpt>
      <trkpt lat="43.36241" lon="6.13009">
        <ele>441.510057</ele>
        <time>2025-04-25T07:59:10.000Z</time>
      </trkpt>
      <trkpt lat="43.3624" lon="6.13008">
        <ele>441.693773</ele>
        <time>2025-04-25T07:59:11.000Z</time>
      </trkpt>
      <trkpt lat="43.3624" lon="6.13008">
        <ele>441.693773</ele>
        <time>2025-04-25T07:59:11.000Z</time>
      </trkpt>
      <trkpt lat="43.36237" lon="6.13006">
        <ele>441.960957</ele>
        <time>2025-04-25T07:59:12.000Z</time>
      </trkpt>
      <trkpt lat="43.36237" lon="6.13006">
        <ele>441.960957</ele>
        <time>2025-04-25T07:59:12.000Z</time>
      </trkpt>
      <trkpt lat="43.36235" lon="6.13004">
        <ele>442.224315</ele>
        <time>2025-04-25T07:59:13.000Z</time>
      </trkpt>
      <trkpt lat="43.36235" lon="6.13004">
        <ele>442.224315</ele>
        <time>2025-04-25T07:59:13.000Z</time>
      </trkpt>
      <trkpt lat="43.36233" lon="6.13002">
        <ele>442.468542</ele>
        <time>2025-04-25T07:59:14.000Z</time>
      </trkpt>
      <trkpt lat="43.36233" lon="6.13002">
        <ele>442.468542</ele>
        <time>2025-04-25T07:59:14.000Z</time>
      </trkpt>
      <trkpt lat="43.36231" lon="6.13">
        <ele>442.724656</ele>
        <time>2025-04-25T07:59:15.000Z</time>
      </trkpt>
      <trkpt lat="43.36231" lon="6.13">
        <ele>442.724656</ele>
        <time>2025-04-25T07:59:15.000Z</time>
      </trkpt>
      <trkpt lat="43.36229" lon="6.12998">
        <ele>442.947945</ele>
        <time>2025-04-25T07:59:16.000Z</time>
      </trkpt>
      <trkpt lat="43.36229" lon="6.12998">
        <ele>442.947945</ele>
        <time>2025-04-25T07:59:16.000Z</time>
      </trkpt>
      <trkpt lat="43.36226" lon="6.12996">
        <ele>443.251673</ele>
        <time>2025-04-25T07:59:17.000Z</time>
      </trkpt>
      <trkpt lat="43.36226" lon="6.12996">
        <ele>443.251673</ele>
        <time>2025-04-25T07:59:17.000Z</time>
      </trkpt>
      <trkpt lat="43.36224" lon="6.12994">
        <ele>443.526891</ele>
        <time>2025-04-25T07:59:18.000Z</time>
      </trkpt>
      <trkpt lat="43.36224" lon="6.12994">
        <ele>443.526891</ele>
        <time>2025-04-25T07:59:18.000Z</time>
      </trkpt>
      <trkpt lat="43.36221" lon="6.12992">
        <ele>443.802109</ele>
        <time>2025-04-25T07:59:19.000Z</time>
      </trkpt>
      <trkpt lat="43.36221" lon="6.12992">
        <ele>443.802109</ele>
        <time>2025-04-25T07:59:19.000Z</time>
      </trkpt>
      <trkpt lat="43.3622" lon="6.12989">
        <ele>444.014336</ele>
        <time>2025-04-25T07:59:20.000Z</time>
      </trkpt>
      <trkpt lat="43.3622" lon="6.12989">
        <ele>444.014336</ele>
        <time>2025-04-25T07:59:20.000Z</time>
      </trkpt>
      <trkpt lat="43.36218" lon="6.12987">
        <ele>444.311607</ele>
        <time>2025-04-25T07:59:21.000Z</time>
      </trkpt>
      <trkpt lat="43.36218" lon="6.12987">
        <ele>444.311607</ele>
        <time>2025-04-25T07:59:21.000Z</time>
      </trkpt>
      <trkpt lat="43.36216" lon="6.12985">
        <ele>444.543169</ele>
        <time>2025-04-25T07:59:22.000Z</time>
      </trkpt>
      <trkpt lat="43.36216" lon="6.12985">
        <ele>444.543169</ele>
        <time>2025-04-25T07:59:22.000Z</time>
      </trkpt>
      <trkpt lat="43.36214" lon="6.12983">
        <ele>444.755197</ele>
        <time>2025-04-25T07:59:23.000Z</time>
      </trkpt>
      <trkpt lat="43.36214" lon="6.12983">
        <ele>444.755197</ele>
        <time>2025-04-25T07:59:23.000Z</time>
      </trkpt>
      <trkpt lat="43.36211" lon="6.1298">
        <ele>445.078279</ele>
        <time>2025-04-25T07:59:24.000Z</time>
      </trkpt>
      <trkpt lat="43.36211" lon="6.1298">
        <ele>445.078279</ele>
        <time>2025-04-25T07:59:24.000Z</time>
      </trkpt>
      <trkpt lat="43.36206" lon="6.12975">
        <ele>445.650112</ele>
        <time>2025-04-25T07:59:26.000Z</time>
      </trkpt>
      <trkpt lat="43.36206" lon="6.12975">
        <ele>445.650112</ele>
        <time>2025-04-25T07:59:26.000Z</time>
      </trkpt>
      <trkpt lat="43.36205" lon="6.12974">
        <ele>445.80582</ele>
        <time>2025-04-25T07:59:26.000Z</time>
      </trkpt>
      <trkpt lat="43.36205" lon="6.12974">
        <ele>445.80582</ele>
        <time>2025-04-25T07:59:26.000Z</time>
      </trkpt>
      <trkpt lat="43.36203" lon="6.12973">
        <ele>446.033174</ele>
        <time>2025-04-25T07:59:28.000Z</time>
      </trkpt>
      <trkpt lat="43.36203" lon="6.12973">
        <ele>446.033174</ele>
        <time>2025-04-25T07:59:28.000Z</time>
      </trkpt>
      <trkpt lat="43.362" lon="6.1297">
        <ele>446.348187</ele>
        <time>2025-04-25T07:59:29.000Z</time>
      </trkpt>
      <trkpt lat="43.362" lon="6.1297">
        <ele>446.348187</ele>
        <time>2025-04-25T07:59:29.000Z</time>
      </trkpt>
      <trkpt lat="43.36199" lon="6.12968">
        <ele>446.513645</ele>
        <time>2025-04-25T07:59:30.000Z</time>
      </trkpt>
      <trkpt lat="43.36199" lon="6.12968">
        <ele>446.513645</ele>
        <time>2025-04-25T07:59:30.000Z</time>
      </trkpt>
      <trkpt lat="43.36197" lon="6.12966">
        <ele>446.806301</ele>
        <time>2025-04-25T07:59:31.000Z</time>
      </trkpt>
      <trkpt lat="43.36197" lon="6.12966">
        <ele>446.806301</ele>
        <time>2025-04-25T07:59:31.000Z</time>
      </trkpt>
      <trkpt lat="43.36195" lon="6.12963">
        <ele>447.077441</ele>
        <time>2025-04-25T07:59:32.000Z</time>
      </trkpt>
      <trkpt lat="43.36195" lon="6.12963">
        <ele>447.077441</ele>
        <time>2025-04-25T07:59:32.000Z</time>
      </trkpt>
      <trkpt lat="43.36192" lon="6.12961">
        <ele>447.352659</ele>
        <time>2025-04-25T07:59:33.000Z</time>
      </trkpt>
      <trkpt lat="43.36192" lon="6.12961">
        <ele>447.352659</ele>
        <time>2025-04-25T07:59:33.000Z</time>
      </trkpt>
      <trkpt lat="43.36191" lon="6.12959">
        <ele>447.545321</ele>
        <time>2025-04-25T07:59:34.000Z</time>
      </trkpt>
      <trkpt lat="43.36191" lon="6.12959">
        <ele>447.545321</ele>
        <time>2025-04-25T07:59:34.000Z</time>
      </trkpt>
      <trkpt lat="43.36189" lon="6.12957">
        <ele>447.804987</ele>
        <time>2025-04-25T07:59:35.000Z</time>
      </trkpt>
      <trkpt lat="43.36189" lon="6.12957">
        <ele>447.804987</ele>
        <time>2025-04-25T07:59:35.000Z</time>
      </trkpt>
      <trkpt lat="43.36186" lon="6.12956">
        <ele>448.051347</ele>
        <time>2025-04-25T07:59:36.000Z</time>
      </trkpt>
      <trkpt lat="43.36186" lon="6.12956">
        <ele>448.051347</ele>
        <time>2025-04-25T07:59:36.000Z</time>
      </trkpt>
      <trkpt lat="43.36184" lon="6.12955">
        <ele>448.245837</ele>
        <time>2025-04-25T07:59:37.000Z</time>
      </trkpt>
      <trkpt lat="43.36184" lon="6.12955">
        <ele>448.245837</ele>
        <time>2025-04-25T07:59:37.000Z</time>
      </trkpt>
      <trkpt lat="43.36182" lon="6.12954">
        <ele>448.483918</ele>
        <time>2025-04-25T07:59:38.000Z</time>
      </trkpt>
      <trkpt lat="43.36182" lon="6.12954">
        <ele>448.483918</ele>
        <time>2025-04-25T07:59:38.000Z</time>
      </trkpt>
      <trkpt lat="43.36179" lon="6.12952">
        <ele>448.790528</ele>
        <time>2025-04-25T07:59:39.000Z</time>
      </trkpt>
      <trkpt lat="43.36179" lon="6.12952">
        <ele>448.790528</ele>
        <time>2025-04-25T07:59:39.000Z</time>
      </trkpt>
      <trkpt lat="43.36177" lon="6.12951">
        <ele>449.031195</ele>
        <time>2025-04-25T07:59:40.000Z</time>
      </trkpt>
      <trkpt lat="43.36177" lon="6.12951">
        <ele>449.031195</ele>
        <time>2025-04-25T07:59:40.000Z</time>
      </trkpt>
      <trkpt lat="43.36175" lon="6.1295">
        <ele>449.248666</ele>
        <time>2025-04-25T07:59:41.000Z</time>
      </trkpt>
      <trkpt lat="43.36175" lon="6.1295">
        <ele>449.248666</ele>
        <time>2025-04-25T07:59:41.000Z</time>
      </trkpt>
      <trkpt lat="43.36173" lon="6.12947">
        <ele>449.557285</ele>
        <time>2025-04-25T07:59:42.000Z</time>
      </trkpt>
      <trkpt lat="43.36173" lon="6.12947">
        <ele>449.557285</ele>
        <time>2025-04-25T07:59:42.000Z</time>
      </trkpt>
      <trkpt lat="43.3617" lon="6.12946">
        <ele>449.841223</ele>
        <time>2025-04-25T07:59:43.000Z</time>
      </trkpt>
      <trkpt lat="43.3617" lon="6.12946">
        <ele>449.841223</ele>
        <time>2025-04-25T07:59:43.000Z</time>
      </trkpt>
      <trkpt lat="43.36168" lon="6.12944">
        <ele>450.121636</ele>
        <time>2025-04-25T07:59:44.000Z</time>
      </trkpt>
      <trkpt lat="43.36168" lon="6.12944">
        <ele>450.121636</ele>
        <time>2025-04-25T07:59:44.000Z</time>
      </trkpt>
      <trkpt lat="43.36166" lon="6.12943">
        <ele>450.392627</ele>
        <time>2025-04-25T07:59:45.000Z</time>
      </trkpt>
      <trkpt lat="43.36166" lon="6.12943">
        <ele>450.392627</ele>
        <time>2025-04-25T07:59:45.000Z</time>
      </trkpt>
      <trkpt lat="43.36163" lon="6.12942">
        <ele>450.732682</ele>
        <time>2025-04-25T07:59:46.000Z</time>
      </trkpt>
      <trkpt lat="43.36163" lon="6.12942">
        <ele>450.732682</ele>
        <time>2025-04-25T07:59:46.000Z</time>
      </trkpt>
      <trkpt lat="43.3616" lon="6.12942">
        <ele>450.989201</ele>
        <time>2025-04-25T07:59:47.000Z</time>
      </trkpt>
      <trkpt lat="43.3616" lon="6.12942">
        <ele>450.989201</ele>
        <time>2025-04-25T07:59:47.000Z</time>
      </trkpt>
      <trkpt lat="43.36157" lon="6.12941">
        <ele>451.408509</ele>
        <time>2025-04-25T07:59:48.000Z</time>
      </trkpt>
      <trkpt lat="43.36157" lon="6.12941">
        <ele>451.408509</ele>
        <time>2025-04-25T07:59:48.000Z</time>
      </trkpt>
      <trkpt lat="43.36153" lon="6.12941">
        <ele>451.750108</ele>
        <time>2025-04-25T07:59:49.000Z</time>
      </trkpt>
      <trkpt lat="43.36153" lon="6.12941">
        <ele>451.750108</ele>
        <time>2025-04-25T07:59:49.000Z</time>
      </trkpt>
      <trkpt lat="43.36151" lon="6.12941">
        <ele>452.003609</ele>
        <time>2025-04-25T07:59:50.000Z</time>
      </trkpt>
      <trkpt lat="43.36151" lon="6.12941">
        <ele>452.003609</ele>
        <time>2025-04-25T07:59:50.000Z</time>
      </trkpt>
      <trkpt lat="43.36148" lon="6.12941">
        <ele>452.334097</ele>
        <time>2025-04-25T07:59:50.000Z</time>
      </trkpt>
      <trkpt lat="43.36148" lon="6.12941">
        <ele>452.334097</ele>
        <time>2025-04-25T07:59:50.000Z</time>
      </trkpt>
      <trkpt lat="43.36145" lon="6.12941">
        <ele>452.675602</ele>
        <time>2025-04-25T07:59:52.000Z</time>
      </trkpt>
      <trkpt lat="43.36145" lon="6.12941">
        <ele>452.675602</ele>
        <time>2025-04-25T07:59:52.000Z</time>
      </trkpt>
      <trkpt lat="43.36143" lon="6.12941">
        <ele>452.929482</ele>
        <time>2025-04-25T07:59:53.000Z</time>
      </trkpt>
      <trkpt lat="43.36143" lon="6.12941">
        <ele>452.929482</ele>
        <time>2025-04-25T07:59:53.000Z</time>
      </trkpt>
      <trkpt lat="43.3614" lon="6.12942">
        <ele>453.216353</ele>
        <time>2025-04-25T07:59:54.000Z</time>
      </trkpt>
      <trkpt lat="43.3614" lon="6.12942">
        <ele>453.216353</ele>
        <time>2025-04-25T07:59:54.000Z</time>
      </trkpt>
      <trkpt lat="43.36138" lon="6.12942">
        <ele>453.425816</ele>
        <time>2025-04-25T07:59:55.000Z</time>
      </trkpt>
      <trkpt lat="43.36138" lon="6.12942">
        <ele>453.425816</ele>
        <time>2025-04-25T07:59:55.000Z</time>
      </trkpt>
      <trkpt lat="43.36135" lon="6.12942">
        <ele>453.767415</ele>
        <time>2025-04-25T07:59:56.000Z</time>
      </trkpt>
      <trkpt lat="43.36135" lon="6.12942">
        <ele>453.767415</ele>
        <time>2025-04-25T07:59:56.000Z</time>
      </trkpt>
      <trkpt lat="43.36133" lon="6.12941">
        <ele>453.98217</ele>
        <time>2025-04-25T07:59:57.000Z</time>
      </trkpt>
      <trkpt lat="43.36133" lon="6.12941">
        <ele>453.98217</ele>
        <time>2025-04-25T07:59:57.000Z</time>
      </trkpt>
      <trkpt lat="43.3613" lon="6.1294">
        <ele>454.359794</ele>
        <time>2025-04-25T07:59:58.000Z</time>
      </trkpt>
      <trkpt lat="43.3613" lon="6.1294">
        <ele>454.359794</ele>
        <time>2025-04-25T07:59:58.000Z</time>
      </trkpt>
      <trkpt lat="43.36128" lon="6.1294">
        <ele>454.619297</ele>
        <time>2025-04-25T07:59:59.000Z</time>
      </trkpt>
      <trkpt lat="43.36128" lon="6.1294">
        <ele>454.619297</ele>
        <time>2025-04-25T07:59:59.000Z</time>
      </trkpt>
      <trkpt lat="43.36124" lon="6.12939">
        <ele>455.03914</ele>
        <time>2025-04-25T08:00:00.000Z</time>
      </trkpt>
      <trkpt lat="43.36124" lon="6.12939">
        <ele>455.03914</ele>
        <time>2025-04-25T08:00:00.000Z</time>
      </trkpt>
      <trkpt lat="43.36121" lon="6.12938">
        <ele>455.304872</ele>
        <time>2025-04-25T08:00:01.000Z</time>
      </trkpt>
      <trkpt lat="43.36121" lon="6.12938">
        <ele>455.304872</ele>
        <time>2025-04-25T08:00:01.000Z</time>
      </trkpt>
      <trkpt lat="43.36119" lon="6.12937">
        <ele>455.625658</ele>
        <time>2025-04-25T08:00:02.000Z</time>
      </trkpt>
      <trkpt lat="43.36119" lon="6.12937">
        <ele>455.625658</ele>
        <time>2025-04-25T08:00:02.000Z</time>
      </trkpt>
      <trkpt lat="43.36116" lon="6.12935">
        <ele>455.967359</ele>
        <time>2025-04-25T08:00:03.000Z</time>
      </trkpt>
      <trkpt lat="43.36116" lon="6.12935">
        <ele>455.967359</ele>
        <time>2025-04-25T08:00:03.000Z</time>
      </trkpt>
      <trkpt lat="43.36114" lon="6.12932">
        <ele>456.280621</ele>
        <time>2025-04-25T08:00:04.000Z</time>
      </trkpt>
      <trkpt lat="43.36114" lon="6.12932">
        <ele>456.280621</ele>
        <time>2025-04-25T08:00:04.000Z</time>
      </trkpt>
      <trkpt lat="43.36111" lon="6.12929">
        <ele>456.635368</ele>
        <time>2025-04-25T08:00:05.000Z</time>
      </trkpt>
      <trkpt lat="43.36111" lon="6.12929">
        <ele>456.635368</ele>
        <time>2025-04-25T08:00:05.000Z</time>
      </trkpt>
      <trkpt lat="43.3611" lon="6.12927">
        <ele>456.907527</ele>
        <time>2025-04-25T08:00:06.000Z</time>
      </trkpt>
      <trkpt lat="43.3611" lon="6.12927">
        <ele>456.907527</ele>
        <time>2025-04-25T08:00:06.000Z</time>
      </trkpt>
      <trkpt lat="43.36108" lon="6.12923">
        <ele>457.28539</ele>
        <time>2025-04-25T08:00:07.000Z</time>
      </trkpt>
      <trkpt lat="43.36108" lon="6.12923">
        <ele>457.28539</ele>
        <time>2025-04-25T08:00:07.000Z</time>
      </trkpt>
      <trkpt lat="43.36105" lon="6.12919">
        <ele>457.725958</ele>
        <time>2025-04-25T08:00:08.000Z</time>
      </trkpt>
      <trkpt lat="43.36105" lon="6.12919">
        <ele>457.725958</ele>
        <time>2025-04-25T08:00:08.000Z</time>
      </trkpt>
      <trkpt lat="43.36104" lon="6.12915">
        <ele>458.051362</ele>
        <time>2025-04-25T08:00:09.000Z</time>
      </trkpt>
      <trkpt lat="43.36104" lon="6.12915">
        <ele>458.051362</ele>
        <time>2025-04-25T08:00:09.000Z</time>
      </trkpt>
      <trkpt lat="43.36102" lon="6.12911">
        <ele>458.397681</ele>
        <time>2025-04-25T08:00:10.000Z</time>
      </trkpt>
      <trkpt lat="43.36102" lon="6.12911">
        <ele>458.397681</ele>
        <time>2025-04-25T08:00:10.000Z</time>
      </trkpt>
      <trkpt lat="43.36101" lon="6.12908">
        <ele>458.688443</ele>
        <time>2025-04-25T08:00:11.000Z</time>
      </trkpt>
      <trkpt lat="43.36101" lon="6.12908">
        <ele>458.688443</ele>
        <time>2025-04-25T08:00:11.000Z</time>
      </trkpt>
      <trkpt lat="43.361" lon="6.12904">
        <ele>459.042434</ele>
        <time>2025-04-25T08:00:12.000Z</time>
      </trkpt>
      <trkpt lat="43.361" lon="6.12904">
        <ele>459.042434</ele>
        <time>2025-04-25T08:00:12.000Z</time>
      </trkpt>
      <trkpt lat="43.361" lon="6.129">
        <ele>459.318293</ele>
        <time>2025-04-25T08:00:13.000Z</time>
      </trkpt>
      <trkpt lat="43.361" lon="6.129">
        <ele>459.318293</ele>
        <time>2025-04-25T08:00:13.000Z</time>
      </trkpt>
      <trkpt lat="43.36099" lon="6.12896">
        <ele>459.686868</ele>
        <time>2025-04-25T08:00:14.000Z</time>
      </trkpt>
      <trkpt lat="43.36099" lon="6.12896">
        <ele>459.686868</ele>
        <time>2025-04-25T08:00:14.000Z</time>
      </trkpt>
      <trkpt lat="43.36098" lon="6.12893">
        <ele>459.957895</ele>
        <time>2025-04-25T08:00:15.000Z</time>
      </trkpt>
      <trkpt lat="43.36098" lon="6.12893">
        <ele>459.957895</ele>
        <time>2025-04-25T08:00:15.000Z</time>
      </trkpt>
      <trkpt lat="43.36097" lon="6.1289">
        <ele>460.191941</ele>
        <time>2025-04-25T08:00:16.000Z</time>
      </trkpt>
      <trkpt lat="43.36097" lon="6.1289">
        <ele>460.191941</ele>
        <time>2025-04-25T08:00:16.000Z</time>
      </trkpt>
      <trkpt lat="43.36095" lon="6.12888">
        <ele>460.435575</ele>
        <time>2025-04-25T08:00:17.000Z</time>
      </trkpt>
      <trkpt lat="43.36095" lon="6.12888">
        <ele>460.435575</ele>
        <time>2025-04-25T08:00:17.000Z</time>
      </trkpt>
      <trkpt lat="43.36094" lon="6.12887">
        <ele>460.612807</ele>
        <time>2025-04-25T08:00:18.000Z</time>
      </trkpt>
      <trkpt lat="43.36094" lon="6.12887">
        <ele>460.612807</ele>
        <time>2025-04-25T08:00:18.000Z</time>
      </trkpt>
      <trkpt lat="43.36092" lon="6.12887">
        <ele>460.866308</ele>
        <time>2025-04-25T08:00:19.000Z</time>
      </trkpt>
      <trkpt lat="43.36089" lon="6.12889">
        <ele>461.204139</ele>
        <time>2025-04-25T08:00:20.000Z</time>
      </trkpt>
      <trkpt lat="43.36089" lon="6.12889">
        <ele>461.204139</ele>
        <time>2025-04-25T08:00:20.000Z</time>
      </trkpt>
      <trkpt lat="43.36088" lon="6.12891">
        <ele>461.411441</ele>
        <time>2025-04-25T08:00:21.000Z</time>
      </trkpt>
      <trkpt lat="43.36088" lon="6.12891">
        <ele>461.411441</ele>
        <time>2025-04-25T08:00:21.000Z</time>
      </trkpt>
      <trkpt lat="43.36087" lon="6.12895">
        <ele>461.705295</ele>
        <time>2025-04-25T08:00:22.000Z</time>
      </trkpt>
      <trkpt lat="43.36087" lon="6.12895">
        <ele>461.705295</ele>
        <time>2025-04-25T08:00:22.000Z</time>
      </trkpt>
      <trkpt lat="43.36087" lon="6.12898">
        <ele>461.97961</ele>
        <time>2025-04-25T08:00:23.000Z</time>
      </trkpt>
      <trkpt lat="43.36087" lon="6.12898">
        <ele>461.97961</ele>
        <time>2025-04-25T08:00:23.000Z</time>
      </trkpt>
      <trkpt lat="43.36087" lon="6.12902">
        <ele>462.245975</ele>
        <time>2025-04-25T08:00:24.000Z</time>
      </trkpt>
      <trkpt lat="43.36087" lon="6.12902">
        <ele>462.245975</ele>
        <time>2025-04-25T08:00:24.000Z</time>
      </trkpt>
      <trkpt lat="43.36088" lon="6.12905">
        <ele>462.547479</ele>
        <time>2025-04-25T08:00:25.000Z</time>
      </trkpt>
      <trkpt lat="43.36088" lon="6.12905">
        <ele>462.547479</ele>
        <time>2025-04-25T08:00:25.000Z</time>
      </trkpt>
      <trkpt lat="43.36089" lon="6.12909">
        <ele>462.867642</ele>
        <time>2025-04-25T08:00:26.000Z</time>
      </trkpt>
      <trkpt lat="43.36089" lon="6.12909">
        <ele>462.867642</ele>
        <time>2025-04-25T08:00:26.000Z</time>
      </trkpt>
      <trkpt lat="43.3609" lon="6.12912">
        <ele>463.11607</ele>
        <time>2025-04-25T08:00:27.000Z</time>
      </trkpt>
      <trkpt lat="43.3609" lon="6.12912">
        <ele>463.11607</ele>
        <time>2025-04-25T08:00:27.000Z</time>
      </trkpt>
      <trkpt lat="43.36091" lon="6.12915">
        <ele>463.417573</ele>
        <time>2025-04-25T08:00:28.000Z</time>
      </trkpt>
      <trkpt lat="43.36091" lon="6.12915">
        <ele>463.417573</ele>
        <time>2025-04-25T08:00:28.000Z</time>
      </trkpt>
      <trkpt lat="43.36091" lon="6.12918">
        <ele>463.638269</ele>
        <time>2025-04-25T08:00:29.000Z</time>
      </trkpt>
      <trkpt lat="43.36091" lon="6.12918">
        <ele>463.638269</ele>
        <time>2025-04-25T08:00:29.000Z</time>
      </trkpt>
      <trkpt lat="43.36091" lon="6.12921">
        <ele>463.912583</ele>
        <time>2025-04-25T08:00:30.000Z</time>
      </trkpt>
      <trkpt lat="43.36091" lon="6.12921">
        <ele>463.912583</ele>
        <time>2025-04-25T08:00:30.000Z</time>
      </trkpt>
      <trkpt lat="43.36092" lon="6.12925">
        <ele>464.206436</ele>
        <time>2025-04-25T08:00:31.000Z</time>
      </trkpt>
      <trkpt lat="43.36092" lon="6.12925">
        <ele>464.206436</ele>
        <time>2025-04-25T08:00:31.000Z</time>
      </trkpt>
      <trkpt lat="43.36092" lon="6.12928">
        <ele>464.474392</ele>
        <time>2025-04-25T08:00:32.000Z</time>
      </trkpt>
      <trkpt lat="43.36092" lon="6.12928">
        <ele>464.474392</ele>
        <time>2025-04-25T08:00:32.000Z</time>
      </trkpt>
      <trkpt lat="43.36093" lon="6.12932">
        <ele>464.79778</ele>
        <time>2025-04-25T08:00:33.000Z</time>
      </trkpt>
      <trkpt lat="43.36093" lon="6.12932">
        <ele>464.79778</ele>
        <time>2025-04-25T08:00:33.000Z</time>
      </trkpt>
      <trkpt lat="43.36093" lon="6.12935">
        <ele>465.0562</ele>
        <time>2025-04-25T08:00:34.000Z</time>
      </trkpt>
      <trkpt lat="43.36093" lon="6.12935">
        <ele>465.0562</ele>
        <time>2025-04-25T08:00:34.000Z</time>
      </trkpt>
      <trkpt lat="43.36094" lon="6.12939">
        <ele>465.342423</ele>
        <time>2025-04-25T08:00:35.000Z</time>
      </trkpt>
      <trkpt lat="43.36094" lon="6.12939">
        <ele>465.342423</ele>
        <time>2025-04-25T08:00:35.000Z</time>
      </trkpt>
      <trkpt lat="43.36094" lon="6.12941">
        <ele>465.547447</ele>
        <time>2025-04-25T08:00:36.000Z</time>
      </trkpt>
      <trkpt lat="43.36094" lon="6.12941">
        <ele>465.547447</ele>
        <time>2025-04-25T08:00:36.000Z</time>
      </trkpt>
      <trkpt lat="43.36095" lon="6.12945">
        <ele>465.86761</ele>
        <time>2025-04-25T08:00:37.000Z</time>
      </trkpt>
      <trkpt lat="43.36095" lon="6.12945">
        <ele>465.86761</ele>
        <time>2025-04-25T08:00:37.000Z</time>
      </trkpt>
      <trkpt lat="43.36096" lon="6.12948">
        <ele>466.153832</ele>
        <time>2025-04-25T08:00:38.000Z</time>
      </trkpt>
      <trkpt lat="43.36096" lon="6.12948">
        <ele>466.153832</ele>
        <time>2025-04-25T08:00:38.000Z</time>
      </trkpt>
      <trkpt lat="43.36097" lon="6.12951">
        <ele>466.358856</ele>
        <time>2025-04-25T08:00:39.000Z</time>
      </trkpt>
      <trkpt lat="43.36097" lon="6.12951">
        <ele>466.358856</ele>
        <time>2025-04-25T08:00:39.000Z</time>
      </trkpt>
      <trkpt lat="43.36099" lon="6.12954">
        <ele>466.696004</ele>
        <time>2025-04-25T08:00:40.000Z</time>
      </trkpt>
      <trkpt lat="43.36099" lon="6.12954">
        <ele>466.696004</ele>
        <time>2025-04-25T08:00:40.000Z</time>
      </trkpt>
      <trkpt lat="43.361" lon="6.12957">
        <ele>466.981057</ele>
        <time>2025-04-25T08:00:41.000Z</time>
      </trkpt>
      <trkpt lat="43.361" lon="6.12957">
        <ele>466.981057</ele>
        <time>2025-04-25T08:00:41.000Z</time>
      </trkpt>
      <trkpt lat="43.36102" lon="6.1296">
        <ele>467.299717</ele>
        <time>2025-04-25T08:00:42.000Z</time>
      </trkpt>
      <trkpt lat="43.36102" lon="6.1296">
        <ele>467.299717</ele>
        <time>2025-04-25T08:00:42.000Z</time>
      </trkpt>
      <trkpt lat="43.36103" lon="6.12963">
        <ele>467.588099</ele>
        <time>2025-04-25T08:00:43.000Z</time>
      </trkpt>
      <trkpt lat="43.36103" lon="6.12963">
        <ele>467.588099</ele>
        <time>2025-04-25T08:00:43.000Z</time>
      </trkpt>
      <trkpt lat="43.36104" lon="6.12966">
        <ele>467.808596</ele>
        <time>2025-04-25T08:00:44.000Z</time>
      </trkpt>
      <trkpt lat="43.36104" lon="6.12966">
        <ele>467.808596</ele>
        <time>2025-04-25T08:00:44.000Z</time>
      </trkpt>
      <trkpt lat="43.36106" lon="6.12969">
        <ele>468.100212</ele>
        <time>2025-04-25T08:00:45.000Z</time>
      </trkpt>
      <trkpt lat="43.36106" lon="6.12969">
        <ele>468.100212</ele>
        <time>2025-04-25T08:00:45.000Z</time>
      </trkpt>
      <trkpt lat="43.36107" lon="6.12971">
        <ele>468.385449</ele>
        <time>2025-04-25T08:00:46.000Z</time>
      </trkpt>
      <trkpt lat="43.36107" lon="6.12971">
        <ele>468.385449</ele>
        <time>2025-04-25T08:00:46.000Z</time>
      </trkpt>
      <trkpt lat="43.36109" lon="6.12974">
        <ele>468.632917</ele>
        <time>2025-04-25T08:00:47.000Z</time>
      </trkpt>
      <trkpt lat="43.36109" lon="6.12974">
        <ele>468.632917</ele>
        <time>2025-04-25T08:00:47.000Z</time>
      </trkpt>
      <trkpt lat="43.36111" lon="6.12976">
        <ele>468.896488</ele>
        <time>2025-04-25T08:00:48.000Z</time>
      </trkpt>
      <trkpt lat="43.36111" lon="6.12976">
        <ele>468.896488</ele>
        <time>2025-04-25T08:00:48.000Z</time>
      </trkpt>
      <trkpt lat="43.36113" lon="6.12978">
        <ele>469.200411</ele>
        <time>2025-04-25T08:00:49.000Z</time>
      </trkpt>
      <trkpt lat="43.36113" lon="6.12978">
        <ele>469.200411</ele>
        <time>2025-04-25T08:00:49.000Z</time>
      </trkpt>
      <trkpt lat="43.36115" lon="6.1298">
        <ele>469.526653</ele>
        <time>2025-04-25T08:00:50.000Z</time>
      </trkpt>
      <trkpt lat="43.36115" lon="6.1298">
        <ele>469.526653</ele>
        <time>2025-04-25T08:00:50.000Z</time>
      </trkpt>
      <trkpt lat="43.36116" lon="6.12982">
        <ele>469.740877</ele>
        <time>2025-04-25T08:00:50.000Z</time>
      </trkpt>
      <trkpt lat="43.36116" lon="6.12982">
        <ele>469.740877</ele>
        <time>2025-04-25T08:00:50.000Z</time>
      </trkpt>
      <trkpt lat="43.36119" lon="6.12983">
        <ele>470.028646</ele>
        <time>2025-04-25T08:00:52.000Z</time>
      </trkpt>
      <trkpt lat="43.36119" lon="6.12983">
        <ele>470.028646</ele>
        <time>2025-04-25T08:00:52.000Z</time>
      </trkpt>
      <trkpt lat="43.36121" lon="6.12984">
        <ele>470.316415</ele>
        <time>2025-04-25T08:00:53.000Z</time>
      </trkpt>
      <trkpt lat="43.36121" lon="6.12984">
        <ele>470.316415</ele>
        <time>2025-04-25T08:00:53.000Z</time>
      </trkpt>
      <trkpt lat="43.36123" lon="6.12985">
        <ele>470.553893</ele>
        <time>2025-04-25T08:00:54.000Z</time>
      </trkpt>
      <trkpt lat="43.36123" lon="6.12985">
        <ele>470.553893</ele>
        <time>2025-04-25T08:00:54.000Z</time>
      </trkpt>
      <trkpt lat="43.36124" lon="6.12985">
        <ele>470.73629</ele>
        <time>2025-04-25T08:00:55.000Z</time>
      </trkpt>
      <trkpt lat="43.36124" lon="6.12985">
        <ele>470.73629</ele>
        <time>2025-04-25T08:00:55.000Z</time>
      </trkpt>
      <trkpt lat="43.36126" lon="6.12986">
        <ele>470.880425</ele>
        <time>2025-04-25T08:00:56.000Z</time>
      </trkpt>
      <trkpt lat="43.36126" lon="6.12986">
        <ele>470.880425</ele>
        <time>2025-04-25T08:00:56.000Z</time>
      </trkpt>
      <trkpt lat="43.36128" lon="6.12986">
        <ele>471.106436</ele>
        <time>2025-04-25T08:00:57.000Z</time>
      </trkpt>
      <trkpt lat="43.36128" lon="6.12986">
        <ele>471.106436</ele>
        <time>2025-04-25T08:00:57.000Z</time>
      </trkpt>
      <trkpt lat="43.36129" lon="6.12986">
        <ele>471.283701</ele>
        <time>2025-04-25T08:00:58.000Z</time>
      </trkpt>
      <trkpt lat="43.36129" lon="6.12986">
        <ele>471.283701</ele>
        <time>2025-04-25T08:00:58.000Z</time>
      </trkpt>
      <trkpt lat="43.36131" lon="6.12985">
        <ele>471.46831</ele>
        <time>2025-04-25T08:00:59.000Z</time>
      </trkpt>
      <trkpt lat="43.36131" lon="6.12985">
        <ele>471.46831</ele>
        <time>2025-04-25T08:00:59.000Z</time>
      </trkpt>
      <trkpt lat="43.36131" lon="6.12985">
        <ele>471.46831</ele>
        <time>2025-04-25T08:01:00.000Z</time>
      </trkpt>
      <trkpt lat="43.36136" lon="6.12985">
        <ele>472.059443</ele>
        <time>2025-04-25T08:01:01.000Z</time>
      </trkpt>
      <trkpt lat="43.36136" lon="6.12985">
        <ele>472.059443</ele>
        <time>2025-04-25T08:01:01.000Z</time>
      </trkpt>
      <trkpt lat="43.36136" lon="6.12985">
        <ele>472.143933</ele>
        <time>2025-04-25T08:01:02.000Z</time>
      </trkpt>
      <trkpt lat="43.36138" lon="6.12985">
        <ele>472.333211</ele>
        <time>2025-04-25T08:01:03.000Z</time>
      </trkpt>
      <trkpt lat="43.36138" lon="6.12985">
        <ele>472.333211</ele>
        <time>2025-04-25T08:01:03.000Z</time>
      </trkpt>
      <trkpt lat="43.3614" lon="6.12986">
        <ele>472.557911</ele>
        <time>2025-04-25T08:01:04.000Z</time>
      </trkpt>
      <trkpt lat="43.3614" lon="6.12986">
        <ele>472.557911</ele>
        <time>2025-04-25T08:01:04.000Z</time>
      </trkpt>
      <trkpt lat="43.36142" lon="6.12987">
        <ele>472.84568</ele>
        <time>2025-04-25T08:01:05.000Z</time>
      </trkpt>
      <trkpt lat="43.36142" lon="6.12987">
        <ele>472.84568</ele>
        <time>2025-04-25T08:01:05.000Z</time>
      </trkpt>
      <trkpt lat="43.36145" lon="6.12988">
        <ele>473.178874</ele>
        <time>2025-04-25T08:01:06.000Z</time>
      </trkpt>
      <trkpt lat="43.36145" lon="6.12988">
        <ele>473.178874</ele>
        <time>2025-04-25T08:01:06.000Z</time>
      </trkpt>
      <trkpt lat="43.36148" lon="6.1299">
        <ele>473.595121</ele>
        <time>2025-04-25T08:01:07.000Z</time>
      </trkpt>
      <trkpt lat="43.36148" lon="6.1299">
        <ele>473.595121</ele>
        <time>2025-04-25T08:01:07.000Z</time>
      </trkpt>
      <trkpt lat="43.36149" lon="6.12992">
        <ele>473.804641</ele>
        <time>2025-04-25T08:01:08.000Z</time>
      </trkpt>
      <trkpt lat="43.36149" lon="6.12992">
        <ele>473.804641</ele>
        <time>2025-04-25T08:01:08.000Z</time>
      </trkpt>
      <trkpt lat="43.36153" lon="6.12995">
        <ele>474.30611</ele>
        <time>2025-04-25T08:01:09.000Z</time>
      </trkpt>
      <trkpt lat="43.36153" lon="6.12995">
        <ele>474.30611</ele>
        <time>2025-04-25T08:01:09.000Z</time>
      </trkpt>
      <trkpt lat="43.36156" lon="6.12999">
        <ele>474.770998</ele>
        <time>2025-04-25T08:01:10.000Z</time>
      </trkpt>
      <trkpt lat="43.36156" lon="6.12999">
        <ele>474.770998</ele>
        <time>2025-04-25T08:01:10.000Z</time>
      </trkpt>
      <trkpt lat="43.36158" lon="6.13001">
        <ele>475.117432</ele>
        <time>2025-04-25T08:01:11.000Z</time>
      </trkpt>
      <trkpt lat="43.36158" lon="6.13001">
        <ele>475.117432</ele>
        <time>2025-04-25T08:01:11.000Z</time>
      </trkpt>
      <trkpt lat="43.36159" lon="6.13002">
        <ele>475.29454</ele>
        <time>2025-04-25T08:01:12.000Z</time>
      </trkpt>
      <trkpt lat="43.36159" lon="6.13002">
        <ele>475.29454</ele>
        <time>2025-04-25T08:01:12.000Z</time>
      </trkpt>
      <trkpt lat="43.36161" lon="6.13005">
        <ele>475.593818</ele>
        <time>2025-04-25T08:01:13.000Z</time>
      </trkpt>
      <trkpt lat="43.36161" lon="6.13005">
        <ele>475.593818</ele>
        <time>2025-04-25T08:01:13.000Z</time>
      </trkpt>
      <trkpt lat="43.36163" lon="6.13009">
        <ele>475.984881</ele>
        <time>2025-04-25T08:01:14.000Z</time>
      </trkpt>
      <trkpt lat="43.36163" lon="6.13009">
        <ele>475.984881</ele>
        <time>2025-04-25T08:01:14.000Z</time>
      </trkpt>
      <trkpt lat="43.36164" lon="6.13011">
        <ele>476.21437</ele>
        <time>2025-04-25T08:01:15.000Z</time>
      </trkpt>
      <trkpt lat="43.36164" lon="6.13011">
        <ele>476.21437</ele>
        <time>2025-04-25T08:01:15.000Z</time>
      </trkpt>
      <trkpt lat="43.36166" lon="6.13013">
        <ele>476.519225</ele>
        <time>2025-04-25T08:01:16.000Z</time>
      </trkpt>
      <trkpt lat="43.36166" lon="6.13013">
        <ele>476.519225</ele>
        <time>2025-04-25T08:01:16.000Z</time>
      </trkpt>
      <trkpt lat="43.36167" lon="6.13015">
        <ele>476.755762</ele>
        <time>2025-04-25T08:01:17.000Z</time>
      </trkpt>
      <trkpt lat="43.36167" lon="6.13015">
        <ele>476.755762</ele>
        <time>2025-04-25T08:01:17.000Z</time>
      </trkpt>
      <trkpt lat="43.36168" lon="6.13018">
        <ele>476.992065</ele>
        <time>2025-04-25T08:01:18.000Z</time>
      </trkpt>
      <trkpt lat="43.36168" lon="6.13018">
        <ele>476.992065</ele>
        <time>2025-04-25T08:01:18.000Z</time>
      </trkpt>
      <trkpt lat="43.36169" lon="6.1302">
        <ele>477.250524</ele>
        <time>2025-04-25T08:01:19.000Z</time>
      </trkpt>
      <trkpt lat="43.36169" lon="6.1302">
        <ele>477.250524</ele>
        <time>2025-04-25T08:01:19.000Z</time>
      </trkpt>
      <trkpt lat="43.36171" lon="6.13023">
        <ele>477.530296</ele>
        <time>2025-04-25T08:01:20.000Z</time>
      </trkpt>
      <trkpt lat="43.36171" lon="6.13023">
        <ele>477.530296</ele>
        <time>2025-04-25T08:01:20.000Z</time>
      </trkpt>
      <trkpt lat="43.36172" lon="6.13025">
        <ele>477.759703</ele>
        <time>2025-04-25T08:01:21.000Z</time>
      </trkpt>
      <trkpt lat="43.36173" lon="6.13027">
        <ele>478.025622</ele>
        <time>2025-04-25T08:01:22.000Z</time>
      </trkpt>
      <trkpt lat="43.36173" lon="6.13027">
        <ele>478.025622</ele>
        <time>2025-04-25T08:01:22.000Z</time>
      </trkpt>
      <trkpt lat="43.36174" lon="6.1303">
        <ele>478.290222</ele>
        <time>2025-04-25T08:01:23.000Z</time>
      </trkpt>
      <trkpt lat="43.36174" lon="6.1303">
        <ele>478.290222</ele>
        <time>2025-04-25T08:01:23.000Z</time>
      </trkpt>
      <trkpt lat="43.36175" lon="6.13032">
        <ele>478.509285</ele>
        <time>2025-04-25T08:01:24.000Z</time>
      </trkpt>
      <trkpt lat="43.36175" lon="6.13032">
        <ele>478.509285</ele>
        <time>2025-04-25T08:01:24.000Z</time>
      </trkpt>
      <trkpt lat="43.36176" lon="6.13035">
        <ele>478.738691</ele>
        <time>2025-04-25T08:01:25.000Z</time>
      </trkpt>
      <trkpt lat="43.36176" lon="6.13035">
        <ele>478.738691</ele>
        <time>2025-04-25T08:01:26.000Z</time>
      </trkpt>
      <trkpt lat="43.36178" lon="6.13039">
        <ele>479.171021</ele>
        <time>2025-04-25T08:01:27.000Z</time>
      </trkpt>
      <trkpt lat="43.36178" lon="6.13039">
        <ele>479.171021</ele>
        <time>2025-04-25T08:01:27.000Z</time>
      </trkpt>
      <trkpt lat="43.36179" lon="6.1304">
        <ele>479.254442</ele>
        <time>2025-04-25T08:01:28.000Z</time>
      </trkpt>
      <trkpt lat="43.36179" lon="6.1304">
        <ele>479.254442</ele>
        <time>2025-04-25T08:01:28.000Z</time>
      </trkpt>
      <trkpt lat="43.36179" lon="6.13041">
        <ele>479.360114</ele>
        <time>2025-04-25T08:01:29.000Z</time>
      </trkpt>
      <trkpt lat="43.36179" lon="6.13041">
        <ele>479.360114</ele>
        <time>2025-04-25T08:01:30.000Z</time>
      </trkpt>
      <trkpt lat="43.36179" lon="6.13044">
        <ele>479.671445</ele>
        <time>2025-04-25T08:01:31.000Z</time>
      </trkpt>
      <trkpt lat="43.36179" lon="6.13044">
        <ele>479.671445</ele>
        <time>2025-04-25T08:01:31.000Z</time>
      </trkpt>
      <trkpt lat="43.3618" lon="6.13045">
        <ele>479.762076</ele>
        <time>2025-04-25T08:01:32.000Z</time>
      </trkpt>
      <trkpt lat="43.36181" lon="6.13046">
        <ele>479.895756</ele>
        <time>2025-04-25T08:01:33.000Z</time>
      </trkpt>
      <trkpt lat="43.36181" lon="6.13046">
        <ele>479.895756</ele>
        <time>2025-04-25T08:01:33.000Z</time>
      </trkpt>
      <trkpt lat="43.36181" lon="6.13047">
        <ele>479.986386</ele>
        <time>2025-04-25T08:01:34.000Z</time>
      </trkpt>
      <trkpt lat="43.36181" lon="6.13047">
        <ele>479.986386</ele>
        <time>2025-04-25T08:01:34.000Z</time>
      </trkpt>
      <trkpt lat="43.36182" lon="6.13049">
        <ele>480.205549</ele>
        <time>2025-04-25T08:01:35.000Z</time>
      </trkpt>
      <trkpt lat="43.36182" lon="6.13049">
        <ele>480.205549</ele>
        <time>2025-04-25T08:01:35.000Z</time>
      </trkpt>
      <trkpt lat="43.36184" lon="6.1305">
        <ele>480.40108</ele>
        <time>2025-04-25T08:01:35.000Z</time>
      </trkpt>
      <trkpt lat="43.36184" lon="6.1305">
        <ele>480.40108</ele>
        <time>2025-04-25T08:01:35.000Z</time>
      </trkpt>
      <trkpt lat="43.36185" lon="6.13052">
        <ele>480.640007</ele>
        <time>2025-04-25T08:01:37.000Z</time>
      </trkpt>
      <trkpt lat="43.36185" lon="6.13052">
        <ele>480.640007</ele>
        <time>2025-04-25T08:01:37.000Z</time>
      </trkpt>
      <trkpt lat="43.36187" lon="6.13054">
        <ele>480.892945</ele>
        <time>2025-04-25T08:01:38.000Z</time>
      </trkpt>
      <trkpt lat="43.36188" lon="6.13056">
        <ele>481.12819</ele>
        <time>2025-04-25T08:01:39.000Z</time>
      </trkpt>
      <trkpt lat="43.36188" lon="6.13056">
        <ele>481.12819</ele>
        <time>2025-04-25T08:01:39.000Z</time>
      </trkpt>
      <trkpt lat="43.3619" lon="6.13058">
        <ele>481.405796</ele>
        <time>2025-04-25T08:01:40.000Z</time>
      </trkpt>
      <trkpt lat="43.3619" lon="6.13058">
        <ele>481.405796</ele>
        <time>2025-04-25T08:01:40.000Z</time>
      </trkpt>
      <trkpt lat="43.36192" lon="6.1306">
        <ele>481.693843</ele>
        <time>2025-04-25T08:01:41.000Z</time>
      </trkpt>
      <trkpt lat="43.36192" lon="6.1306">
        <ele>481.693843</ele>
        <time>2025-04-25T08:01:41.000Z</time>
      </trkpt>
      <trkpt lat="43.36194" lon="6.13062">
        <ele>481.976586</ele>
        <time>2025-04-25T08:01:42.000Z</time>
      </trkpt>
      <trkpt lat="43.36194" lon="6.13062">
        <ele>481.976586</ele>
        <time>2025-04-25T08:01:42.000Z</time>
      </trkpt>
      <trkpt lat="43.36196" lon="6.13064">
        <ele>482.273937</ele>
        <time>2025-04-25T08:01:43.000Z</time>
      </trkpt>
      <trkpt lat="43.36196" lon="6.13064">
        <ele>482.273937</ele>
        <time>2025-04-25T08:01:43.000Z</time>
      </trkpt>
      <trkpt lat="43.36197" lon="6.13066">
        <ele>482.510472</ele>
        <time>2025-04-25T08:01:44.000Z</time>
      </trkpt>
      <trkpt lat="43.36197" lon="6.13066">
        <ele>482.510472</ele>
        <time>2025-04-25T08:01:44.000Z</time>
      </trkpt>
      <trkpt lat="43.36198" lon="6.13069">
        <ele>482.802426</ele>
        <time>2025-04-25T08:01:45.000Z</time>
      </trkpt>
      <trkpt lat="43.36198" lon="6.13069">
        <ele>482.802426</ele>
        <time>2025-04-25T08:01:45.000Z</time>
      </trkpt>
      <trkpt lat="43.362" lon="6.13072">
        <ele>483.096616</ele>
        <time>2025-04-25T08:01:46.000Z</time>
      </trkpt>
      <trkpt lat="43.362" lon="6.13072">
        <ele>483.096616</ele>
        <time>2025-04-25T08:01:46.000Z</time>
      </trkpt>
      <trkpt lat="43.36201" lon="6.13075">
        <ele>483.377651</ele>
        <time>2025-04-25T08:01:47.000Z</time>
      </trkpt>
      <trkpt lat="43.36201" lon="6.13075">
        <ele>483.377651</ele>
        <time>2025-04-25T08:01:47.000Z</time>
      </trkpt>
      <trkpt lat="43.36202" lon="6.13078">
        <ele>483.660278</ele>
        <time>2025-04-25T08:01:48.000Z</time>
      </trkpt>
      <trkpt lat="43.36202" lon="6.13078">
        <ele>483.660278</ele>
        <time>2025-04-25T08:01:48.000Z</time>
      </trkpt>
      <trkpt lat="43.36203" lon="6.13081">
        <ele>483.933724</ele>
        <time>2025-04-25T08:01:49.000Z</time>
      </trkpt>
      <trkpt lat="43.36203" lon="6.13081">
        <ele>483.933724</ele>
        <time>2025-04-25T08:01:49.000Z</time>
      </trkpt>
      <trkpt lat="43.36203" lon="6.13084">
        <ele>484.221167</ele>
        <time>2025-04-25T08:01:50.000Z</time>
      </trkpt>
      <trkpt lat="43.36203" lon="6.13084">
        <ele>484.221167</ele>
        <time>2025-04-25T08:01:50.000Z</time>
      </trkpt>
      <trkpt lat="43.36203" lon="6.13088">
        <ele>484.525573</ele>
        <time>2025-04-25T08:01:51.000Z</time>
      </trkpt>
      <trkpt lat="43.36203" lon="6.13088">
        <ele>484.525573</ele>
        <time>2025-04-25T08:01:51.000Z</time>
      </trkpt>
      <trkpt lat="43.36204" lon="6.13091">
        <ele>484.813016</ele>
        <time>2025-04-25T08:01:51.000Z</time>
      </trkpt>
      <trkpt lat="43.36204" lon="6.13091">
        <ele>484.813016</ele>
        <time>2025-04-25T08:01:51.000Z</time>
      </trkpt>
      <trkpt lat="43.36204" lon="6.13094">
        <ele>485.108937</ele>
        <time>2025-04-25T08:01:53.000Z</time>
      </trkpt>
      <trkpt lat="43.36204" lon="6.13094">
        <ele>485.108937</ele>
        <time>2025-04-25T08:01:53.000Z</time>
      </trkpt>
      <trkpt lat="43.36205" lon="6.13098">
        <ele>485.420267</ele>
        <time>2025-04-25T08:01:54.000Z</time>
      </trkpt>
      <trkpt lat="43.36205" lon="6.13098">
        <ele>485.420267</ele>
        <time>2025-04-25T08:01:54.000Z</time>
      </trkpt>
      <trkpt lat="43.36205" lon="6.13102">
        <ele>485.741659</ele>
        <time>2025-04-25T08:01:55.000Z</time>
      </trkpt>
      <trkpt lat="43.36205" lon="6.13102">
        <ele>485.741659</ele>
        <time>2025-04-25T08:01:55.000Z</time>
      </trkpt>
      <trkpt lat="43.36205" lon="6.13105">
        <ele>485.98683</ele>
        <time>2025-04-25T08:01:55.000Z</time>
      </trkpt>
      <trkpt lat="43.36205" lon="6.13105">
        <ele>485.98683</ele>
        <time>2025-04-25T08:01:55.000Z</time>
      </trkpt>
      <trkpt lat="43.36205" lon="6.13108">
        <ele>486.313318</ele>
        <time>2025-04-25T08:01:57.000Z</time>
      </trkpt>
      <trkpt lat="43.36205" lon="6.13108">
        <ele>486.313318</ele>
        <time>2025-04-25T08:01:57.000Z</time>
      </trkpt>
      <trkpt lat="43.36205" lon="6.13112">
        <ele>486.63471</ele>
        <time>2025-04-25T08:01:58.000Z</time>
      </trkpt>
      <trkpt lat="43.36205" lon="6.13112">
        <ele>486.63471</ele>
        <time>2025-04-25T08:01:58.000Z</time>
      </trkpt>
      <trkpt lat="43.36205" lon="6.13115">
        <ele>486.926831</ele>
        <time>2025-04-25T08:01:59.000Z</time>
      </trkpt>
      <trkpt lat="43.36205" lon="6.13115">
        <ele>486.926831</ele>
        <time>2025-04-25T08:01:59.000Z</time>
      </trkpt>
      <trkpt lat="43.36205" lon="6.13119">
        <ele>487.205803</ele>
        <time>2025-04-25T08:01:59.000Z</time>
      </trkpt>
      <trkpt lat="43.36205" lon="6.13119">
        <ele>487.205803</ele>
        <time>2025-04-25T08:01:59.000Z</time>
      </trkpt>
      <trkpt lat="43.36204" lon="6.13122">
        <ele>487.468339</ele>
        <time>2025-04-25T08:02:01.000Z</time>
      </trkpt>
      <trkpt lat="43.36204" lon="6.13122">
        <ele>487.468339</ele>
        <time>2025-04-25T08:02:01.000Z</time>
      </trkpt>
      <trkpt lat="43.36203" lon="6.13124">
        <ele>487.734834</ele>
        <time>2025-04-25T08:02:01.000Z</time>
      </trkpt>
      <trkpt lat="43.36203" lon="6.13124">
        <ele>487.734834</ele>
        <time>2025-04-25T08:02:01.000Z</time>
      </trkpt>
      <trkpt lat="43.36203" lon="6.13128">
        <ele>488.005342</ele>
        <time>2025-04-25T08:02:02.000Z</time>
      </trkpt>
      <trkpt lat="43.36203" lon="6.13128">
        <ele>488.005342</ele>
        <time>2025-04-25T08:02:02.000Z</time>
      </trkpt>
      <trkpt lat="43.36202" lon="6.1313">
        <ele>488.267878</ele>
        <time>2025-04-25T08:02:04.000Z</time>
      </trkpt>
      <trkpt lat="43.36202" lon="6.1313">
        <ele>488.267878</ele>
        <time>2025-04-25T08:02:04.000Z</time>
      </trkpt>
      <trkpt lat="43.36201" lon="6.13133">
        <ele>488.510447</ele>
        <time>2025-04-25T08:02:05.000Z</time>
      </trkpt>
      <trkpt lat="43.36201" lon="6.13133">
        <ele>488.510447</ele>
        <time>2025-04-25T08:02:05.000Z</time>
      </trkpt>
      <trkpt lat="43.362" lon="6.13136">
        <ele>488.801186</ele>
        <time>2025-04-25T08:02:06.000Z</time>
      </trkpt>
      <trkpt lat="43.362" lon="6.13136">
        <ele>488.801186</ele>
        <time>2025-04-25T08:02:06.000Z</time>
      </trkpt>
      <trkpt lat="43.362" lon="6.13139">
        <ele>489.001953</ele>
        <time>2025-04-25T08:02:06.000Z</time>
      </trkpt>
      <trkpt lat="43.362" lon="6.13139">
        <ele>489.001953</ele>
        <time>2025-04-25T08:02:06.000Z</time>
      </trkpt>
      <trkpt lat="43.36199" lon="6.13141">
        <ele>489.260433</ele>
        <time>2025-04-25T08:02:08.000Z</time>
      </trkpt>
      <trkpt lat="43.36199" lon="6.13141">
        <ele>489.260433</ele>
        <time>2025-04-25T08:02:08.000Z</time>
      </trkpt>
      <trkpt lat="43.36198" lon="6.13145">
        <ele>489.600698</ele>
        <time>2025-04-25T08:02:08.000Z</time>
      </trkpt>
      <trkpt lat="43.36198" lon="6.13145">
        <ele>489.600698</ele>
        <time>2025-04-25T08:02:08.000Z</time>
      </trkpt>
      <trkpt lat="43.36197" lon="6.13147">
        <ele>489.830873</ele>
        <time>2025-04-25T08:02:10.000Z</time>
      </trkpt>
      <trkpt lat="43.36197" lon="6.13147">
        <ele>489.830873</ele>
        <time>2025-04-25T08:02:10.000Z</time>
      </trkpt>
      <trkpt lat="43.36196" lon="6.1315">
        <ele>490.116048</ele>
        <time>2025-04-25T08:02:11.000Z</time>
      </trkpt>
      <trkpt lat="43.36196" lon="6.1315">
        <ele>490.116048</ele>
        <time>2025-04-25T08:02:11.000Z</time>
      </trkpt>
      <trkpt lat="43.36195" lon="6.13152">
        <ele>490.350374</ele>
        <time>2025-04-25T08:02:11.000Z</time>
      </trkpt>
      <trkpt lat="43.36195" lon="6.13152">
        <ele>490.350374</ele>
        <time>2025-04-25T08:02:11.000Z</time>
      </trkpt>
      <trkpt lat="43.36193" lon="6.13156">
        <ele>490.709011</ele>
        <time>2025-04-25T08:02:13.000Z</time>
      </trkpt>
      <trkpt lat="43.36193" lon="6.13156">
        <ele>490.709011</ele>
        <time>2025-04-25T08:02:13.000Z</time>
      </trkpt>
      <trkpt lat="43.36191" lon="6.13158">
        <ele>490.959582</ele>
        <time>2025-04-25T08:02:13.000Z</time>
      </trkpt>
      <trkpt lat="43.36191" lon="6.13158">
        <ele>490.959582</ele>
        <time>2025-04-25T08:02:13.000Z</time>
      </trkpt>
      <trkpt lat="43.36189" lon="6.13161">
        <ele>491.23004</ele>
        <time>2025-04-25T08:02:15.000Z</time>
      </trkpt>
      <trkpt lat="43.36189" lon="6.13161">
        <ele>491.23004</ele>
        <time>2025-04-25T08:02:15.000Z</time>
      </trkpt>
      <trkpt lat="43.36188" lon="6.13162">
        <ele>491.440898</ele>
        <time>2025-04-25T08:02:16.000Z</time>
      </trkpt>
      <trkpt lat="43.36188" lon="6.13162">
        <ele>491.440898</ele>
        <time>2025-04-25T08:02:16.000Z</time>
      </trkpt>
      <trkpt lat="43.36186" lon="6.13164">
        <ele>491.7119</ele>
        <time>2025-04-25T08:02:17.000Z</time>
      </trkpt>
      <trkpt lat="43.36186" lon="6.13164">
        <ele>491.7119</ele>
        <time>2025-04-25T08:02:17.000Z</time>
      </trkpt>
      <trkpt lat="43.36184" lon="6.13165">
        <ele>491.952789</ele>
        <time>2025-04-25T08:02:18.000Z</time>
      </trkpt>
      <trkpt lat="43.36184" lon="6.13165">
        <ele>491.952789</ele>
        <time>2025-04-25T08:02:18.000Z</time>
      </trkpt>
      <trkpt lat="43.36181" lon="6.13166">
        <ele>492.256844</ele>
        <time>2025-04-25T08:02:19.000Z</time>
      </trkpt>
      <trkpt lat="43.36181" lon="6.13166">
        <ele>492.256844</ele>
        <time>2025-04-25T08:02:19.000Z</time>
      </trkpt>
      <trkpt lat="43.36179" lon="6.13167">
        <ele>492.43552</ele>
        <time>2025-04-25T08:02:19.000Z</time>
      </trkpt>
      <trkpt lat="43.36179" lon="6.13167">
        <ele>492.43552</ele>
        <time>2025-04-25T08:02:19.000Z</time>
      </trkpt>
      <trkpt lat="43.36177" lon="6.13168">
        <ele>492.68142</ele>
        <time>2025-04-25T08:02:21.000Z</time>
      </trkpt>
      <trkpt lat="43.36177" lon="6.13168">
        <ele>492.68142</ele>
        <time>2025-04-25T08:02:21.000Z</time>
      </trkpt>
      <trkpt lat="43.36175" lon="6.13168">
        <ele>492.934992</ele>
        <time>2025-04-25T08:02:22.000Z</time>
      </trkpt>
      <trkpt lat="43.36175" lon="6.13168">
        <ele>492.934992</ele>
        <time>2025-04-25T08:02:22.000Z</time>
      </trkpt>
      <trkpt lat="43.36173" lon="6.13168">
        <ele>493.142502</ele>
        <time>2025-04-25T08:02:22.000Z</time>
      </trkpt>
      <trkpt lat="43.36173" lon="6.13168">
        <ele>493.142502</ele>
        <time>2025-04-25T08:02:22.000Z</time>
      </trkpt>
      <trkpt lat="43.36171" lon="6.13169">
        <ele>493.350011</ele>
        <time>2025-04-25T08:02:24.000Z</time>
      </trkpt>
      <trkpt lat="43.36171" lon="6.13169">
        <ele>493.350011</ele>
        <time>2025-04-25T08:02:24.000Z</time>
      </trkpt>
      <trkpt lat="43.36169" lon="6.13169">
        <ele>493.600974</ele>
        <time>2025-04-25T08:02:25.000Z</time>
      </trkpt>
      <trkpt lat="43.36169" lon="6.13169">
        <ele>493.600974</ele>
        <time>2025-04-25T08:02:25.000Z</time>
      </trkpt>
      <trkpt lat="43.36167" lon="6.13169">
        <ele>493.80803</ele>
        <time>2025-04-25T08:02:26.000Z</time>
      </trkpt>
      <trkpt lat="43.36167" lon="6.13169">
        <ele>493.80803</ele>
        <time>2025-04-25T08:02:26.000Z</time>
      </trkpt>
      <trkpt lat="43.36165" lon="6.13169">
        <ele>493.982265</ele>
        <time>2025-04-25T08:02:27.000Z</time>
      </trkpt>
      <trkpt lat="43.36165" lon="6.13169">
        <ele>493.982265</ele>
        <time>2025-04-25T08:02:27.000Z</time>
      </trkpt>
      <trkpt lat="43.36163" lon="6.13169">
        <ele>494.232854</ele>
        <time>2025-04-25T08:02:27.000Z</time>
      </trkpt>
      <trkpt lat="43.36163" lon="6.13169">
        <ele>494.232854</ele>
        <time>2025-04-25T08:02:27.000Z</time>
      </trkpt>
      <trkpt lat="43.36161" lon="6.13168">
        <ele>494.440363</ele>
        <time>2025-04-25T08:02:29.000Z</time>
      </trkpt>
      <trkpt lat="43.36161" lon="6.13168">
        <ele>494.440363</ele>
        <time>2025-04-25T08:02:29.000Z</time>
      </trkpt>
      <trkpt lat="43.36159" lon="6.13168">
        <ele>494.680068</ele>
        <time>2025-04-25T08:02:30.000Z</time>
      </trkpt>
      <trkpt lat="43.36159" lon="6.13168">
        <ele>494.680068</ele>
        <time>2025-04-25T08:02:30.000Z</time>
      </trkpt>
      <trkpt lat="43.36157" lon="6.13169">
        <ele>494.899153</ele>
        <time>2025-04-25T08:02:31.000Z</time>
      </trkpt>
      <trkpt lat="43.36157" lon="6.13169">
        <ele>494.899153</ele>
        <time>2025-04-25T08:02:31.000Z</time>
      </trkpt>
      <trkpt lat="43.36155" lon="6.13169">
        <ele>495.139249</ele>
        <time>2025-04-25T08:02:32.000Z</time>
      </trkpt>
      <trkpt lat="43.36155" lon="6.13169">
        <ele>495.139249</ele>
        <time>2025-04-25T08:02:32.000Z</time>
      </trkpt>
      <trkpt lat="43.36153" lon="6.13169">
        <ele>495.348563</ele>
        <time>2025-04-25T08:02:33.000Z</time>
      </trkpt>
      <trkpt lat="43.36153" lon="6.13169">
        <ele>495.348563</ele>
        <time>2025-04-25T08:02:33.000Z</time>
      </trkpt>
      <trkpt lat="43.36151" lon="6.13169">
        <ele>495.566501</ele>
        <time>2025-04-25T08:02:34.000Z</time>
      </trkpt>
      <trkpt lat="43.36151" lon="6.13169">
        <ele>495.566501</ele>
        <time>2025-04-25T08:02:34.000Z</time>
      </trkpt>
      <trkpt lat="43.36149" lon="6.13169">
        <ele>495.806597</ele>
        <time>2025-04-25T08:02:34.000Z</time>
      </trkpt>
      <trkpt lat="43.36149" lon="6.13169">
        <ele>495.806597</ele>
        <time>2025-04-25T08:02:34.000Z</time>
      </trkpt>
      <trkpt lat="43.36147" lon="6.13169">
        <ele>495.981013</ele>
        <time>2025-04-25T08:02:35.000Z</time>
      </trkpt>
      <trkpt lat="43.36147" lon="6.13169">
        <ele>495.981013</ele>
        <time>2025-04-25T08:02:35.000Z</time>
      </trkpt>
      <trkpt lat="43.36145" lon="6.13169">
        <ele>496.231976</ele>
        <time>2025-04-25T08:02:37.000Z</time>
      </trkpt>
      <trkpt lat="43.36145" lon="6.13169">
        <ele>496.231976</ele>
        <time>2025-04-25T08:02:37.000Z</time>
      </trkpt>
      <trkpt lat="43.36143" lon="6.13169">
        <ele>496.439485</ele>
        <time>2025-04-25T08:02:38.000Z</time>
      </trkpt>
      <trkpt lat="43.36143" lon="6.13169">
        <ele>496.439485</ele>
        <time>2025-04-25T08:02:38.000Z</time>
      </trkpt>
      <trkpt lat="43.36141" lon="6.13168">
        <ele>496.648799</ele>
        <time>2025-04-25T08:02:39.000Z</time>
      </trkpt>
      <trkpt lat="43.36141" lon="6.13168">
        <ele>496.648799</ele>
        <time>2025-04-25T08:02:39.000Z</time>
      </trkpt>
      <trkpt lat="43.36139" lon="6.13168">
        <ele>496.856309</ele>
        <time>2025-04-25T08:02:40.000Z</time>
      </trkpt>
      <trkpt lat="43.36139" lon="6.13168">
        <ele>496.856309</ele>
        <time>2025-04-25T08:02:40.000Z</time>
      </trkpt>
      <trkpt lat="43.36136" lon="6.13168">
        <ele>497.152031</ele>
        <time>2025-04-25T08:02:41.000Z</time>
      </trkpt>
      <trkpt lat="43.36136" lon="6.13168">
        <ele>497.152031</ele>
        <time>2025-04-25T08:02:41.000Z</time>
      </trkpt>
      <trkpt lat="43.36134" lon="6.13167">
        <ele>497.360295</ele>
        <time>2025-04-25T08:02:42.000Z</time>
      </trkpt>
      <trkpt lat="43.36134" lon="6.13167">
        <ele>497.360295</ele>
        <time>2025-04-25T08:02:42.000Z</time>
      </trkpt>
      <trkpt lat="43.36132" lon="6.13167">
        <ele>497.611882</ele>
        <time>2025-04-25T08:02:43.000Z</time>
      </trkpt>
      <trkpt lat="43.36132" lon="6.13167">
        <ele>497.611882</ele>
        <time>2025-04-25T08:02:43.000Z</time>
      </trkpt>
      <trkpt lat="43.3613" lon="6.13167">
        <ele>497.851455</ele>
        <time>2025-04-25T08:02:44.000Z</time>
      </trkpt>
      <trkpt lat="43.3613" lon="6.13167">
        <ele>497.851455</ele>
        <time>2025-04-25T08:02:44.000Z</time>
      </trkpt>
      <trkpt lat="43.36129" lon="6.13167">
        <ele>497.984273</ele>
        <time>2025-04-25T08:02:44.000Z</time>
      </trkpt>
      <trkpt lat="43.36129" lon="6.13167">
        <ele>497.984273</ele>
        <time>2025-04-25T08:02:44.000Z</time>
      </trkpt>
      <trkpt lat="43.36127" lon="6.13166">
        <ele>498.19493</ele>
        <time>2025-04-25T08:02:46.000Z</time>
      </trkpt>
      <trkpt lat="43.36127" lon="6.13166">
        <ele>498.19493</ele>
        <time>2025-04-25T08:02:46.000Z</time>
      </trkpt>
      <trkpt lat="43.36125" lon="6.13166">
        <ele>498.363004</ele>
        <time>2025-04-25T08:02:47.000Z</time>
      </trkpt>
      <trkpt lat="43.36125" lon="6.13166">
        <ele>498.363004</ele>
        <time>2025-04-25T08:02:47.000Z</time>
      </trkpt>
      <trkpt lat="43.36125" lon="6.13166">
        <ele>498.363004</ele>
        <time>2025-04-25T08:02:48.000Z</time>
      </trkpt>
      <trkpt lat="43.3612" lon="6.13162">
        <ele>499.036463</ele>
        <time>2025-04-25T08:02:49.000Z</time>
      </trkpt>
      <trkpt lat="43.3612" lon="6.13162">
        <ele>499.036463</ele>
        <time>2025-04-25T08:02:49.000Z</time>
      </trkpt>
      <trkpt lat="43.36118" lon="6.13161">
        <ele>499.189252</ele>
        <time>2025-04-25T08:02:50.000Z</time>
      </trkpt>
      <trkpt lat="43.36118" lon="6.13161">
        <ele>499.189252</ele>
        <time>2025-04-25T08:02:50.000Z</time>
      </trkpt>
      <trkpt lat="43.36116" lon="6.1316">
        <ele>499.427817</ele>
        <time>2025-04-25T08:02:51.000Z</time>
      </trkpt>
      <trkpt lat="43.36116" lon="6.1316">
        <ele>499.427817</ele>
        <time>2025-04-25T08:02:51.000Z</time>
      </trkpt>
      <trkpt lat="43.36115" lon="6.13158">
        <ele>499.634526</ele>
        <time>2025-04-25T08:02:52.000Z</time>
      </trkpt>
      <trkpt lat="43.36115" lon="6.13158">
        <ele>499.634526</ele>
        <time>2025-04-25T08:02:52.000Z</time>
      </trkpt>
      <trkpt lat="43.36113" lon="6.13156">
        <ele>499.926691</ele>
        <time>2025-04-25T08:02:53.000Z</time>
      </trkpt>
      <trkpt lat="43.36113" lon="6.13156">
        <ele>499.926691</ele>
        <time>2025-04-25T08:02:53.000Z</time>
      </trkpt>
      <trkpt lat="43.36111" lon="6.13155">
        <ele>500.128645</ele>
        <time>2025-04-25T08:02:54.000Z</time>
      </trkpt>
      <trkpt lat="43.36111" lon="6.13155">
        <ele>500.128645</ele>
        <time>2025-04-25T08:02:54.000Z</time>
      </trkpt>
      <trkpt lat="43.36109" lon="6.13153">
        <ele>500.389188</ele>
        <time>2025-04-25T08:02:55.000Z</time>
      </trkpt>
      <trkpt lat="43.36109" lon="6.13153">
        <ele>500.389188</ele>
        <time>2025-04-25T08:02:55.000Z</time>
      </trkpt>
      <trkpt lat="43.36107" lon="6.13151">
        <ele>500.644997</ele>
        <time>2025-04-25T08:02:56.000Z</time>
      </trkpt>
      <trkpt lat="43.36107" lon="6.13151">
        <ele>500.644997</ele>
        <time>2025-04-25T08:02:56.000Z</time>
      </trkpt>
      <trkpt lat="43.36105" lon="6.13149">
        <ele>500.909691</ele>
        <time>2025-04-25T08:02:57.000Z</time>
      </trkpt>
      <trkpt lat="43.36105" lon="6.13149">
        <ele>500.909691</ele>
        <time>2025-04-25T08:02:57.000Z</time>
      </trkpt>
      <trkpt lat="43.36104" lon="6.13147">
        <ele>501.1164</ele>
        <time>2025-04-25T08:02:58.000Z</time>
      </trkpt>
      <trkpt lat="43.36104" lon="6.13147">
        <ele>501.1164</ele>
        <time>2025-04-25T08:02:58.000Z</time>
      </trkpt>
      <trkpt lat="43.36102" lon="6.13146">
        <ele>501.367634</ele>
        <time>2025-04-25T08:02:59.000Z</time>
      </trkpt>
      <trkpt lat="43.361" lon="6.13145">
        <ele>501.552746</ele>
        <time>2025-04-25T08:03:00.000Z</time>
      </trkpt>
      <trkpt lat="43.361" lon="6.13145">
        <ele>501.552746</ele>
        <time>2025-04-25T08:03:00.000Z</time>
      </trkpt>
      <trkpt lat="43.36098" lon="6.13143">
        <ele>501.872896</ele>
        <time>2025-04-25T08:03:01.000Z</time>
      </trkpt>
      <trkpt lat="43.36098" lon="6.13143">
        <ele>501.872896</ele>
        <time>2025-04-25T08:03:01.000Z</time>
      </trkpt>
      <trkpt lat="43.36097" lon="6.13142">
        <ele>502.016483</ele>
        <time>2025-04-25T08:03:02.000Z</time>
      </trkpt>
      <trkpt lat="43.36097" lon="6.13142">
        <ele>502.016483</ele>
        <time>2025-04-25T08:03:02.000Z</time>
      </trkpt>
      <trkpt lat="43.36094" lon="6.1314">
        <ele>502.333584</ele>
        <time>2025-04-25T08:03:03.000Z</time>
      </trkpt>
      <trkpt lat="43.36094" lon="6.1314">
        <ele>502.333584</ele>
        <time>2025-04-25T08:03:03.000Z</time>
      </trkpt>
      <trkpt lat="43.36092" lon="6.1314">
        <ele>502.547782</ele>
        <time>2025-04-25T08:03:04.000Z</time>
      </trkpt>
      <trkpt lat="43.36092" lon="6.1314">
        <ele>502.547782</ele>
        <time>2025-04-25T08:03:04.000Z</time>
      </trkpt>
      <trkpt lat="43.36089" lon="6.13139">
        <ele>502.843505</ele>
        <time>2025-04-25T08:03:05.000Z</time>
      </trkpt>
      <trkpt lat="43.36089" lon="6.13139">
        <ele>502.843505</ele>
        <time>2025-04-25T08:03:05.000Z</time>
      </trkpt>
      <trkpt lat="43.36087" lon="6.13139">
        <ele>503.094093</ele>
        <time>2025-04-25T08:03:06.000Z</time>
      </trkpt>
      <trkpt lat="43.36084" lon="6.13139">
        <ele>503.37822</ele>
        <time>2025-04-25T08:03:07.000Z</time>
      </trkpt>
      <trkpt lat="43.36084" lon="6.13139">
        <ele>503.37822</ele>
        <time>2025-04-25T08:03:07.000Z</time>
      </trkpt>
      <trkpt lat="43.36082" lon="6.13139">
        <ele>503.628808</ele>
        <time>2025-04-25T08:03:08.000Z</time>
      </trkpt>
      <trkpt lat="43.36082" lon="6.13139">
        <ele>503.628808</ele>
        <time>2025-04-25T08:03:08.000Z</time>
      </trkpt>
      <trkpt lat="43.3608" lon="6.13139">
        <ele>503.879397</ele>
        <time>2025-04-25T08:03:10.000Z</time>
      </trkpt>
      <trkpt lat="43.3608" lon="6.13139">
        <ele>503.879397</ele>
        <time>2025-04-25T08:03:10.000Z</time>
      </trkpt>
      <trkpt lat="43.36078" lon="6.13139">
        <ele>504.042934</ele>
        <time>2025-04-25T08:03:10.000Z</time>
      </trkpt>
      <trkpt lat="43.36078" lon="6.13139">
        <ele>504.042934</ele>
        <time>2025-04-25T08:03:10.000Z</time>
      </trkpt>
      <trkpt lat="43.36076" lon="6.13138">
        <ele>504.339609</ele>
        <time>2025-04-25T08:03:11.000Z</time>
      </trkpt>
      <trkpt lat="43.36076" lon="6.13138">
        <ele>504.339609</ele>
        <time>2025-04-25T08:03:11.000Z</time>
      </trkpt>
      <trkpt lat="43.36074" lon="6.13138">
        <ele>504.547118</ele>
        <time>2025-04-25T08:03:12.000Z</time>
      </trkpt>
      <trkpt lat="43.36074" lon="6.13138">
        <ele>504.547118</ele>
        <time>2025-04-25T08:03:12.000Z</time>
      </trkpt>
      <trkpt lat="43.36071" lon="6.13137">
        <ele>504.843793</ele>
        <time>2025-04-25T08:03:13.000Z</time>
      </trkpt>
      <trkpt lat="43.36071" lon="6.13137">
        <ele>504.843793</ele>
        <time>2025-04-25T08:03:13.000Z</time>
      </trkpt>
      <trkpt lat="43.36068" lon="6.13137">
        <ele>505.138773</ele>
        <time>2025-04-25T08:03:14.000Z</time>
      </trkpt>
      <trkpt lat="43.36068" lon="6.13137">
        <ele>505.138773</ele>
        <time>2025-04-25T08:03:14.000Z</time>
      </trkpt>
      <trkpt lat="43.36066" lon="6.13137">
        <ele>505.378478</ele>
        <time>2025-04-25T08:03:15.000Z</time>
      </trkpt>
      <trkpt lat="43.36063" lon="6.13137">
        <ele>505.672926</ele>
        <time>2025-04-25T08:03:16.000Z</time>
      </trkpt>
      <trkpt lat="43.36063" lon="6.13137">
        <ele>505.672926</ele>
        <time>2025-04-25T08:03:16.000Z</time>
      </trkpt>
      <trkpt lat="43.36061" lon="6.13137">
        <ele>505.924513</ele>
        <time>2025-04-25T08:03:17.000Z</time>
      </trkpt>
      <trkpt lat="43.36061" lon="6.13137">
        <ele>505.924513</ele>
        <time>2025-04-25T08:03:17.000Z</time>
      </trkpt>
      <trkpt lat="43.36059" lon="6.13136">
        <ele>506.132022</ele>
        <time>2025-04-25T08:03:18.000Z</time>
      </trkpt>
      <trkpt lat="43.36059" lon="6.13136">
        <ele>506.132022</ele>
        <time>2025-04-25T08:03:18.000Z</time>
      </trkpt>
      <trkpt lat="43.36057" lon="6.13136">
        <ele>506.426151</ele>
        <time>2025-04-25T08:03:19.000Z</time>
      </trkpt>
      <trkpt lat="43.36057" lon="6.13136">
        <ele>506.426151</ele>
        <time>2025-04-25T08:03:19.000Z</time>
      </trkpt>
      <trkpt lat="43.36054" lon="6.13136">
        <ele>506.676739</ele>
        <time>2025-04-25T08:03:20.000Z</time>
      </trkpt>
      <trkpt lat="43.36054" lon="6.13136">
        <ele>506.676739</ele>
        <time>2025-04-25T08:03:20.000Z</time>
      </trkpt>
      <trkpt lat="43.36052" lon="6.13136">
        <ele>506.959982</ele>
        <time>2025-04-25T08:03:21.000Z</time>
      </trkpt>
      <trkpt lat="43.36052" lon="6.13136">
        <ele>506.959982</ele>
        <time>2025-04-25T08:03:21.000Z</time>
      </trkpt>
      <trkpt lat="43.36049" lon="6.13136">
        <ele>507.210946</ele>
        <time>2025-04-25T08:03:22.000Z</time>
      </trkpt>
      <trkpt lat="43.36049" lon="6.13136">
        <ele>507.210946</ele>
        <time>2025-04-25T08:03:22.000Z</time>
      </trkpt>
      <trkpt lat="43.36047" lon="6.13136">
        <ele>507.462533</ele>
        <time>2025-04-25T08:03:23.000Z</time>
      </trkpt>
      <trkpt lat="43.36047" lon="6.13136">
        <ele>507.462533</ele>
        <time>2025-04-25T08:03:23.000Z</time>
      </trkpt>
      <trkpt lat="43.36044" lon="6.13136">
        <ele>507.756981</ele>
        <time>2025-04-25T08:03:24.000Z</time>
      </trkpt>
      <trkpt lat="43.36044" lon="6.13136">
        <ele>507.756981</ele>
        <time>2025-04-25T08:03:24.000Z</time>
      </trkpt>
      <trkpt lat="43.36041" lon="6.13135">
        <ele>508.084056</ele>
        <time>2025-04-25T08:03:25.000Z</time>
      </trkpt>
      <trkpt lat="43.36041" lon="6.13135">
        <ele>508.084056</ele>
        <time>2025-04-25T08:03:25.000Z</time>
      </trkpt>
      <trkpt lat="43.36039" lon="6.13135">
        <ele>508.291111</ele>
        <time>2025-04-25T08:03:26.000Z</time>
      </trkpt>
      <trkpt lat="43.36039" lon="6.13135">
        <ele>508.291111</ele>
        <time>2025-04-25T08:03:26.000Z</time>
      </trkpt>
      <trkpt lat="43.36037" lon="6.13135">
        <ele>508.586091</ele>
        <time>2025-04-25T08:03:27.000Z</time>
      </trkpt>
      <trkpt lat="43.36037" lon="6.13135">
        <ele>508.586091</ele>
        <time>2025-04-25T08:03:27.000Z</time>
      </trkpt>
      <trkpt lat="43.36035" lon="6.13135">
        <ele>508.794355</ele>
        <time>2025-04-25T08:03:28.000Z</time>
      </trkpt>
      <trkpt lat="43.36035" lon="6.13135">
        <ele>508.794355</ele>
        <time>2025-04-25T08:03:28.000Z</time>
      </trkpt>
      <trkpt lat="43.36033" lon="6.13134">
        <ele>509.005012</ele>
        <time>2025-04-25T08:03:29.000Z</time>
      </trkpt>
      <trkpt lat="43.36033" lon="6.13134">
        <ele>509.005012</ele>
        <time>2025-04-25T08:03:29.000Z</time>
      </trkpt>
      <trkpt lat="43.3603" lon="6.13133">
        <ele>509.305779</ele>
        <time>2025-04-25T08:03:30.000Z</time>
      </trkpt>
      <trkpt lat="43.3603" lon="6.13133">
        <ele>509.305779</ele>
        <time>2025-04-25T08:03:30.000Z</time>
      </trkpt>
      <trkpt lat="43.36028" lon="6.13133">
        <ele>509.557366</ele>
        <time>2025-04-25T08:03:31.000Z</time>
      </trkpt>
      <trkpt lat="43.36028" lon="6.13133">
        <ele>509.557366</ele>
        <time>2025-04-25T08:03:31.000Z</time>
      </trkpt>
      <trkpt lat="43.36026" lon="6.13133">
        <ele>509.807954</ele>
        <time>2025-04-25T08:03:32.000Z</time>
      </trkpt>
      <trkpt lat="43.36026" lon="6.13133">
        <ele>509.807954</ele>
        <time>2025-04-25T08:03:32.000Z</time>
      </trkpt>
      <trkpt lat="43.36024" lon="6.13133">
        <ele>510.020122</ele>
        <time>2025-04-25T08:03:33.000Z</time>
      </trkpt>
      <trkpt lat="43.36024" lon="6.13133">
        <ele>510.020122</ele>
        <time>2025-04-25T08:03:33.000Z</time>
      </trkpt>
      <trkpt lat="43.36021" lon="6.13131">
        <ele>510.346653</ele>
        <time>2025-04-25T08:03:34.000Z</time>
      </trkpt>
      <trkpt lat="43.36021" lon="6.13131">
        <ele>510.346653</ele>
        <time>2025-04-25T08:03:34.000Z</time>
      </trkpt>
      <trkpt lat="43.36019" lon="6.1313">
        <ele>510.570997</ele>
        <time>2025-04-25T08:03:35.000Z</time>
      </trkpt>
      <trkpt lat="43.36019" lon="6.1313">
        <ele>510.570997</ele>
        <time>2025-04-25T08:03:35.000Z</time>
      </trkpt>
      <trkpt lat="43.36017" lon="6.13128">
        <ele>510.826643</ele>
        <time>2025-04-25T08:03:36.000Z</time>
      </trkpt>
      <trkpt lat="43.36017" lon="6.13128">
        <ele>510.826643</ele>
        <time>2025-04-25T08:03:36.000Z</time>
      </trkpt>
      <trkpt lat="43.36015" lon="6.13126">
        <ele>511.073316</ele>
        <time>2025-04-25T08:03:37.000Z</time>
      </trkpt>
      <trkpt lat="43.36015" lon="6.13126">
        <ele>511.073316</ele>
        <time>2025-04-25T08:03:37.000Z</time>
      </trkpt>
      <trkpt lat="43.36015" lon="6.13126">
        <ele>511.073316</ele>
        <time>2025-04-25T08:03:38.000Z</time>
      </trkpt>
      <trkpt lat="43.3601" lon="6.13123">
        <ele>511.647772</ele>
        <time>2025-04-25T08:03:39.000Z</time>
      </trkpt>
      <trkpt lat="43.3601" lon="6.13123">
        <ele>511.647772</ele>
        <time>2025-04-25T08:03:39.000Z</time>
      </trkpt>
      <trkpt lat="43.36009" lon="6.13123">
        <ele>511.786727</ele>
        <time>2025-04-25T08:03:40.000Z</time>
      </trkpt>
      <trkpt lat="43.36009" lon="6.13123">
        <ele>511.786727</ele>
        <time>2025-04-25T08:03:40.000Z</time>
      </trkpt>
      <trkpt lat="43.36007" lon="6.13122">
        <ele>511.995907</ele>
        <time>2025-04-25T08:03:41.000Z</time>
      </trkpt>
      <trkpt lat="43.36007" lon="6.13122">
        <ele>511.995907</ele>
        <time>2025-04-25T08:03:41.000Z</time>
      </trkpt>
      <trkpt lat="43.36005" lon="6.13122">
        <ele>512.24621</ele>
        <time>2025-04-25T08:03:42.000Z</time>
      </trkpt>
      <trkpt lat="43.36005" lon="6.13122">
        <ele>512.24621</ele>
        <time>2025-04-25T08:03:42.000Z</time>
      </trkpt>
      <trkpt lat="43.36003" lon="6.13122">
        <ele>512.496638</ele>
        <time>2025-04-25T08:03:43.000Z</time>
      </trkpt>
      <trkpt lat="43.36003" lon="6.13122">
        <ele>512.496638</ele>
        <time>2025-04-25T08:03:43.000Z</time>
      </trkpt>
      <trkpt lat="43.36" lon="6.13123">
        <ele>512.780032</ele>
        <time>2025-04-25T08:03:44.000Z</time>
      </trkpt>
      <trkpt lat="43.36" lon="6.13123">
        <ele>512.780032</ele>
        <time>2025-04-25T08:03:44.000Z</time>
      </trkpt>
      <trkpt lat="43.35998" lon="6.13123">
        <ele>512.986804</ele>
        <time>2025-04-25T08:03:45.000Z</time>
      </trkpt>
      <trkpt lat="43.35998" lon="6.13123">
        <ele>512.986804</ele>
        <time>2025-04-25T08:03:45.000Z</time>
      </trkpt>
      <trkpt lat="43.35996" lon="6.13123">
        <ele>513.280639</ele>
        <time>2025-04-25T08:03:46.000Z</time>
      </trkpt>
      <trkpt lat="43.35996" lon="6.13123">
        <ele>513.280639</ele>
        <time>2025-04-25T08:03:46.000Z</time>
      </trkpt>
      <trkpt lat="43.35994" lon="6.13123">
        <ele>513.487562</ele>
        <time>2025-04-25T08:03:47.000Z</time>
      </trkpt>
      <trkpt lat="43.35994" lon="6.13123">
        <ele>513.487562</ele>
        <time>2025-04-25T08:03:47.000Z</time>
      </trkpt>
      <trkpt lat="43.35991" lon="6.13122">
        <ele>513.742328</ele>
        <time>2025-04-25T08:03:48.000Z</time>
      </trkpt>
      <trkpt lat="43.35991" lon="6.13122">
        <ele>513.742328</ele>
        <time>2025-04-25T08:03:48.000Z</time>
      </trkpt>
      <trkpt lat="43.35989" lon="6.13121">
        <ele>514.048781</ele>
        <time>2025-04-25T08:03:49.000Z</time>
      </trkpt>
      <trkpt lat="43.35989" lon="6.13121">
        <ele>514.048781</ele>
        <time>2025-04-25T08:03:49.000Z</time>
      </trkpt>
      <trkpt lat="43.35986" lon="6.1312">
        <ele>514.306964</ele>
        <time>2025-04-25T08:03:50.000Z</time>
      </trkpt>
      <trkpt lat="43.35986" lon="6.1312">
        <ele>514.306964</ele>
        <time>2025-04-25T08:03:50.000Z</time>
      </trkpt>
      <trkpt lat="43.35984" lon="6.13119">
        <ele>514.563322</ele>
        <time>2025-04-25T08:03:51.000Z</time>
      </trkpt>
      <trkpt lat="43.35984" lon="6.13119">
        <ele>514.563322</ele>
        <time>2025-04-25T08:03:51.000Z</time>
      </trkpt>
      <trkpt lat="43.35982" lon="6.13119">
        <ele>514.772503</ele>
        <time>2025-04-25T08:03:53.000Z</time>
      </trkpt>
      <trkpt lat="43.35982" lon="6.13119">
        <ele>514.772503</ele>
        <time>2025-04-25T08:03:53.000Z</time>
      </trkpt>
      <trkpt lat="43.3598" lon="6.13119">
        <ele>514.981683</ele>
        <time>2025-04-25T08:03:53.000Z</time>
      </trkpt>
      <trkpt lat="43.3598" lon="6.13119">
        <ele>514.981683</ele>
        <time>2025-04-25T08:03:53.000Z</time>
      </trkpt>
      <trkpt lat="43.35978" lon="6.13118">
        <ele>515.233109</ele>
        <time>2025-04-25T08:03:54.000Z</time>
      </trkpt>
      <trkpt lat="43.35978" lon="6.13118">
        <ele>515.233109</ele>
        <time>2025-04-25T08:03:54.000Z</time>
      </trkpt>
      <trkpt lat="43.35976" lon="6.13118">
        <ele>515.483912</ele>
        <time>2025-04-25T08:03:55.000Z</time>
      </trkpt>
      <trkpt lat="43.35976" lon="6.13118">
        <ele>515.483912</ele>
        <time>2025-04-25T08:03:55.000Z</time>
      </trkpt>
      <trkpt lat="43.35973" lon="6.13119">
        <ele>515.736069</ele>
        <time>2025-04-25T08:03:56.000Z</time>
      </trkpt>
      <trkpt lat="43.35973" lon="6.13119">
        <ele>515.736069</ele>
        <time>2025-04-25T08:03:56.000Z</time>
      </trkpt>
      <trkpt lat="43.35972" lon="6.13121">
        <ele>515.982742</ele>
        <time>2025-04-25T08:03:57.000Z</time>
      </trkpt>
      <trkpt lat="43.35972" lon="6.13121">
        <ele>515.982742</ele>
        <time>2025-04-25T08:03:57.000Z</time>
      </trkpt>
      <trkpt lat="43.3597" lon="6.13123">
        <ele>516.206736</ele>
        <time>2025-04-25T08:03:58.000Z</time>
      </trkpt>
      <trkpt lat="43.35969" lon="6.13126">
        <ele>516.437948</ele>
        <time>2025-04-25T08:04:00.000Z</time>
      </trkpt>
      <trkpt lat="43.35969" lon="6.13126">
        <ele>516.437948</ele>
        <time>2025-04-25T08:04:00.000Z</time>
      </trkpt>
      <trkpt lat="43.35968" lon="6.13129">
        <ele>516.683369</ele>
        <time>2025-04-25T08:04:01.000Z</time>
      </trkpt>
      <trkpt lat="43.35968" lon="6.13129">
        <ele>516.683369</ele>
        <time>2025-04-25T08:04:01.000Z</time>
      </trkpt>
      <trkpt lat="43.35969" lon="6.13132">
        <ele>516.971522</ele>
        <time>2025-04-25T08:04:01.000Z</time>
      </trkpt>
      <trkpt lat="43.35969" lon="6.13132">
        <ele>516.971522</ele>
        <time>2025-04-25T08:04:01.000Z</time>
      </trkpt>
      <trkpt lat="43.3597" lon="6.13135">
        <ele>517.220818</ele>
        <time>2025-04-25T08:04:02.000Z</time>
      </trkpt>
      <trkpt lat="43.3597" lon="6.13135">
        <ele>517.220818</ele>
        <time>2025-04-25T08:04:02.000Z</time>
      </trkpt>
      <trkpt lat="43.3597" lon="6.13138">
        <ele>517.451512</ele>
        <time>2025-04-25T08:04:03.000Z</time>
      </trkpt>
      <trkpt lat="43.3597" lon="6.13138">
        <ele>517.451512</ele>
        <time>2025-04-25T08:04:03.000Z</time>
      </trkpt>
      <trkpt lat="43.35971" lon="6.13142">
        <ele>517.764533</ele>
        <time>2025-04-25T08:04:04.000Z</time>
      </trkpt>
      <trkpt lat="43.35971" lon="6.13142">
        <ele>517.764533</ele>
        <time>2025-04-25T08:04:04.000Z</time>
      </trkpt>
      <trkpt lat="43.35972" lon="6.13145">
        <ele>518.01383</ele>
        <time>2025-04-25T08:04:05.000Z</time>
      </trkpt>
      <trkpt lat="43.35972" lon="6.13145">
        <ele>518.01383</ele>
        <time>2025-04-25T08:04:05.000Z</time>
      </trkpt>
      <trkpt lat="43.35973" lon="6.13149">
        <ele>518.311683</ele>
        <time>2025-04-25T08:04:06.000Z</time>
      </trkpt>
      <trkpt lat="43.35973" lon="6.13149">
        <ele>518.311683</ele>
        <time>2025-04-25T08:04:06.000Z</time>
      </trkpt>
      <trkpt lat="43.35973" lon="6.13152">
        <ele>518.564517</ele>
        <time>2025-04-25T08:04:07.000Z</time>
      </trkpt>
      <trkpt lat="43.35973" lon="6.13152">
        <ele>518.564517</ele>
        <time>2025-04-25T08:04:07.000Z</time>
      </trkpt>
      <trkpt lat="43.35974" lon="6.13155">
        <ele>518.835512</ele>
        <time>2025-04-25T08:04:09.000Z</time>
      </trkpt>
      <trkpt lat="43.35974" lon="6.13155">
        <ele>518.835512</ele>
        <time>2025-04-25T08:04:09.000Z</time>
      </trkpt>
      <trkpt lat="43.35975" lon="6.13158">
        <ele>519.080933</ele>
        <time>2025-04-25T08:04:09.000Z</time>
      </trkpt>
      <trkpt lat="43.35975" lon="6.13158">
        <ele>519.080933</ele>
        <time>2025-04-25T08:04:09.000Z</time>
      </trkpt>
      <trkpt lat="43.35975" lon="6.1316">
        <ele>519.297054</ele>
        <time>2025-04-25T08:04:10.000Z</time>
      </trkpt>
      <trkpt lat="43.35975" lon="6.1316">
        <ele>519.297054</ele>
        <time>2025-04-25T08:04:10.000Z</time>
      </trkpt>
      <trkpt lat="43.35976" lon="6.13163">
        <ele>519.514882</ele>
        <time>2025-04-25T08:04:11.000Z</time>
      </trkpt>
      <trkpt lat="43.35976" lon="6.13163">
        <ele>519.514882</ele>
        <time>2025-04-25T08:04:11.000Z</time>
      </trkpt>
      <trkpt lat="43.35977" lon="6.13165">
        <ele>519.71662</ele>
        <time>2025-04-25T08:04:13.000Z</time>
      </trkpt>
      <trkpt lat="43.35977" lon="6.13165">
        <ele>519.71662</ele>
        <time>2025-04-25T08:04:13.000Z</time>
      </trkpt>
      <trkpt lat="43.35978" lon="6.13167">
        <ele>519.921228</ele>
        <time>2025-04-25T08:04:14.000Z</time>
      </trkpt>
      <trkpt lat="43.35978" lon="6.13167">
        <ele>519.921228</ele>
        <time>2025-04-25T08:04:14.000Z</time>
      </trkpt>
      <trkpt lat="43.35979" lon="6.1317">
        <ele>520.164899</ele>
        <time>2025-04-25T08:04:14.000Z</time>
      </trkpt>
      <trkpt lat="43.35979" lon="6.1317">
        <ele>520.164899</ele>
        <time>2025-04-25T08:04:14.000Z</time>
      </trkpt>
      <trkpt lat="43.3598" lon="6.13172">
        <ele>520.354911</ele>
        <time>2025-04-25T08:04:16.000Z</time>
      </trkpt>
      <trkpt lat="43.3598" lon="6.13172">
        <ele>520.354911</ele>
        <time>2025-04-25T08:04:16.000Z</time>
      </trkpt>
      <trkpt lat="43.35981" lon="6.13175">
        <ele>520.59295</ele>
        <time>2025-04-25T08:04:17.000Z</time>
      </trkpt>
      <trkpt lat="43.35981" lon="6.13175">
        <ele>520.59295</ele>
        <time>2025-04-25T08:04:17.000Z</time>
      </trkpt>
      <trkpt lat="43.35981" lon="6.13178">
        <ele>520.838371</ele>
        <time>2025-04-25T08:04:17.000Z</time>
      </trkpt>
      <trkpt lat="43.35981" lon="6.13178">
        <ele>520.838371</ele>
        <time>2025-04-25T08:04:17.000Z</time>
      </trkpt>
      <trkpt lat="43.35983" lon="6.13181">
        <ele>521.097179</ele>
        <time>2025-04-25T08:04:18.000Z</time>
      </trkpt>
      <trkpt lat="43.35983" lon="6.13181">
        <ele>521.097179</ele>
        <time>2025-04-25T08:04:18.000Z</time>
      </trkpt>
      <trkpt lat="43.35983" lon="6.13183">
        <ele>521.298917</ele>
        <time>2025-04-25T08:04:19.000Z</time>
      </trkpt>
      <trkpt lat="43.35983" lon="6.13183">
        <ele>521.298917</ele>
        <time>2025-04-25T08:04:19.000Z</time>
      </trkpt>
      <trkpt lat="43.35984" lon="6.13186">
        <ele>521.536934</ele>
        <time>2025-04-25T08:04:21.000Z</time>
      </trkpt>
      <trkpt lat="43.35984" lon="6.13186">
        <ele>521.536934</ele>
        <time>2025-04-25T08:04:21.000Z</time>
      </trkpt>
      <trkpt lat="43.35985" lon="6.13188">
        <ele>521.739476</ele>
        <time>2025-04-25T08:04:21.000Z</time>
      </trkpt>
      <trkpt lat="43.35985" lon="6.13188">
        <ele>521.739476</ele>
        <time>2025-04-25T08:04:21.000Z</time>
      </trkpt>
      <trkpt lat="43.35985" lon="6.1319">
        <ele>521.918909</ele>
        <time>2025-04-25T08:04:23.000Z</time>
      </trkpt>
      <trkpt lat="43.35985" lon="6.1319">
        <ele>521.918909</ele>
        <time>2025-04-25T08:04:23.000Z</time>
      </trkpt>
      <trkpt lat="43.35986" lon="6.13193">
        <ele>522.098341</ele>
        <time>2025-04-25T08:04:23.000Z</time>
      </trkpt>
      <trkpt lat="43.35986" lon="6.13193">
        <ele>522.098341</ele>
        <time>2025-04-25T08:04:23.000Z</time>
      </trkpt>
      <trkpt lat="43.35986" lon="6.13196">
        <ele>522.335712</ele>
        <time>2025-04-25T08:04:25.000Z</time>
      </trkpt>
      <trkpt lat="43.35986" lon="6.13196">
        <ele>522.335712</ele>
        <time>2025-04-25T08:04:25.000Z</time>
      </trkpt>
      <trkpt lat="43.35986" lon="6.13198">
        <ele>522.565171</ele>
        <time>2025-04-25T08:04:25.000Z</time>
      </trkpt>
      <trkpt lat="43.35986" lon="6.13198">
        <ele>522.565171</ele>
        <time>2025-04-25T08:04:25.000Z</time>
      </trkpt>
      <trkpt lat="43.35986" lon="6.13201">
        <ele>522.786717</ele>
        <time>2025-04-25T08:04:27.000Z</time>
      </trkpt>
      <trkpt lat="43.35986" lon="6.13201">
        <ele>522.786717</ele>
        <time>2025-04-25T08:04:27.000Z</time>
      </trkpt>
      <trkpt lat="43.35985" lon="6.13204">
        <ele>523.0125</ele>
        <time>2025-04-25T08:04:27.000Z</time>
      </trkpt>
      <trkpt lat="43.35985" lon="6.13204">
        <ele>523.0125</ele>
        <time>2025-04-25T08:04:27.000Z</time>
      </trkpt>
      <trkpt lat="43.35985" lon="6.13206">
        <ele>523.207322</ele>
        <time>2025-04-25T08:04:28.000Z</time>
      </trkpt>
      <trkpt lat="43.35985" lon="6.13206">
        <ele>523.207322</ele>
        <time>2025-04-25T08:04:28.000Z</time>
      </trkpt>
      <trkpt lat="43.35984" lon="6.13209">
        <ele>523.440873</ele>
        <time>2025-04-25T08:04:30.000Z</time>
      </trkpt>
      <trkpt lat="43.35984" lon="6.13209">
        <ele>523.440873</ele>
        <time>2025-04-25T08:04:30.000Z</time>
      </trkpt>
      <trkpt lat="43.35984" lon="6.13212">
        <ele>523.678244</ele>
        <time>2025-04-25T08:04:30.000Z</time>
      </trkpt>
      <trkpt lat="43.35984" lon="6.13212">
        <ele>523.678244</ele>
        <time>2025-04-25T08:04:30.000Z</time>
      </trkpt>
      <trkpt lat="43.35985" lon="6.13216">
        <ele>523.935155</ele>
        <time>2025-04-25T08:04:31.000Z</time>
      </trkpt>
      <trkpt lat="43.35985" lon="6.13216">
        <ele>523.935155</ele>
        <time>2025-04-25T08:04:31.000Z</time>
      </trkpt>
      <trkpt lat="43.35985" lon="6.13219">
        <ele>524.192066</ele>
        <time>2025-04-25T08:04:32.000Z</time>
      </trkpt>
      <trkpt lat="43.35985" lon="6.13219">
        <ele>524.192066</ele>
        <time>2025-04-25T08:04:32.000Z</time>
      </trkpt>
      <trkpt lat="43.35986" lon="6.13222">
        <ele>524.448976</ele>
        <time>2025-04-25T08:04:34.000Z</time>
      </trkpt>
      <trkpt lat="43.35986" lon="6.13222">
        <ele>524.448976</ele>
        <time>2025-04-25T08:04:34.000Z</time>
      </trkpt>
      <trkpt lat="43.35986" lon="6.13225">
        <ele>524.670522</ele>
        <time>2025-04-25T08:04:34.000Z</time>
      </trkpt>
      <trkpt lat="43.35986" lon="6.13225">
        <ele>524.670522</ele>
        <time>2025-04-25T08:04:34.000Z</time>
      </trkpt>
      <trkpt lat="43.35985" lon="6.13227">
        <ele>524.849955</ele>
        <time>2025-04-25T08:04:36.000Z</time>
      </trkpt>
      <trkpt lat="43.35985" lon="6.13227">
        <ele>524.849955</ele>
        <time>2025-04-25T08:04:36.000Z</time>
      </trkpt>
      <trkpt lat="43.35985" lon="6.1323">
        <ele>525.063589</ele>
        <time>2025-04-25T08:04:37.000Z</time>
      </trkpt>
      <trkpt lat="43.35985" lon="6.1323">
        <ele>525.063589</ele>
        <time>2025-04-25T08:04:37.000Z</time>
      </trkpt>
      <trkpt lat="43.35985" lon="6.13232">
        <ele>525.261398</ele>
        <time>2025-04-25T08:04:37.000Z</time>
      </trkpt>
      <trkpt lat="43.35985" lon="6.13232">
        <ele>525.261398</ele>
        <time>2025-04-25T08:04:37.000Z</time>
      </trkpt>
      <trkpt lat="43.35986" lon="6.13235">
        <ele>525.456221</ele>
        <time>2025-04-25T08:04:39.000Z</time>
      </trkpt>
      <trkpt lat="43.35986" lon="6.13235">
        <ele>525.456221</ele>
        <time>2025-04-25T08:04:39.000Z</time>
      </trkpt>
      <trkpt lat="43.35986" lon="6.13237">
        <ele>525.669854</ele>
        <time>2025-04-25T08:04:40.000Z</time>
      </trkpt>
      <trkpt lat="43.35986" lon="6.13237">
        <ele>525.669854</ele>
        <time>2025-04-25T08:04:40.000Z</time>
      </trkpt>
      <trkpt lat="43.35986" lon="6.13241">
        <ele>525.930963</ele>
        <time>2025-04-25T08:04:41.000Z</time>
      </trkpt>
      <trkpt lat="43.35985" lon="6.13244">
        <ele>526.172292</ele>
        <time>2025-04-25T08:04:42.000Z</time>
      </trkpt>
      <trkpt lat="43.35985" lon="6.13244">
        <ele>526.172292</ele>
        <time>2025-04-25T08:04:42.000Z</time>
      </trkpt>
      <trkpt lat="43.35985" lon="6.13247">
        <ele>526.417576</ele>
        <time>2025-04-25T08:04:43.000Z</time>
      </trkpt>
      <trkpt lat="43.35985" lon="6.13247">
        <ele>526.417576</ele>
        <time>2025-04-25T08:04:43.000Z</time>
      </trkpt>
      <trkpt lat="43.35985" lon="6.13249">
        <ele>526.623297</ele>
        <time>2025-04-25T08:04:44.000Z</time>
      </trkpt>
      <trkpt lat="43.35985" lon="6.13249">
        <ele>526.623297</ele>
        <time>2025-04-25T08:04:44.000Z</time>
      </trkpt>
      <trkpt lat="43.35985" lon="6.13252">
        <ele>526.844843</ele>
        <time>2025-04-25T08:04:44.000Z</time>
      </trkpt>
      <trkpt lat="43.35985" lon="6.13252">
        <ele>526.844843</ele>
        <time>2025-04-25T08:04:44.000Z</time>
      </trkpt>
      <trkpt lat="43.35985" lon="6.13254">
        <ele>527.03474</ele>
        <time>2025-04-25T08:04:45.000Z</time>
      </trkpt>
      <trkpt lat="43.35985" lon="6.13254">
        <ele>527.03474</ele>
        <time>2025-04-25T08:04:45.000Z</time>
      </trkpt>
      <trkpt lat="43.35984" lon="6.13258">
        <ele>527.302486</ele>
        <time>2025-04-25T08:04:47.000Z</time>
      </trkpt>
      <trkpt lat="43.35984" lon="6.13258">
        <ele>527.302486</ele>
        <time>2025-04-25T08:04:47.000Z</time>
      </trkpt>
      <trkpt lat="43.35984" lon="6.1326">
        <ele>527.51612</ele>
        <time>2025-04-25T08:04:48.000Z</time>
      </trkpt>
      <trkpt lat="43.35984" lon="6.1326">
        <ele>527.51612</ele>
        <time>2025-04-25T08:04:48.000Z</time>
      </trkpt>
      <trkpt lat="43.35984" lon="6.13263">
        <ele>527.734144</ele>
        <time>2025-04-25T08:04:49.000Z</time>
      </trkpt>
      <trkpt lat="43.35984" lon="6.13263">
        <ele>527.734144</ele>
        <time>2025-04-25T08:04:49.000Z</time>
      </trkpt>
      <trkpt lat="43.35984" lon="6.13266">
        <ele>527.965914</ele>
        <time>2025-04-25T08:04:50.000Z</time>
      </trkpt>
      <trkpt lat="43.35984" lon="6.13266">
        <ele>527.965914</ele>
        <time>2025-04-25T08:04:50.000Z</time>
      </trkpt>
      <trkpt lat="43.35983" lon="6.13269">
        <ele>528.207243</ele>
        <time>2025-04-25T08:04:51.000Z</time>
      </trkpt>
      <trkpt lat="43.35983" lon="6.13269">
        <ele>528.207243</ele>
        <time>2025-04-25T08:04:51.000Z</time>
      </trkpt>
      <trkpt lat="43.35983" lon="6.13272">
        <ele>528.452527</ele>
        <time>2025-04-25T08:04:52.000Z</time>
      </trkpt>
      <trkpt lat="43.35983" lon="6.13272">
        <ele>528.452527</ele>
        <time>2025-04-25T08:04:52.000Z</time>
      </trkpt>
      <trkpt lat="43.35983" lon="6.13275">
        <ele>528.709438</ele>
        <time>2025-04-25T08:04:53.000Z</time>
      </trkpt>
      <trkpt lat="43.35983" lon="6.13275">
        <ele>528.709438</ele>
        <time>2025-04-25T08:04:53.000Z</time>
      </trkpt>
      <trkpt lat="43.35983" lon="6.13278">
        <ele>528.891422</ele>
        <time>2025-04-25T08:04:54.000Z</time>
      </trkpt>
      <trkpt lat="43.35983" lon="6.13278">
        <ele>528.891422</ele>
        <time>2025-04-25T08:04:54.000Z</time>
      </trkpt>
      <trkpt lat="43.35983" lon="6.13281">
        <ele>529.132752</ele>
        <time>2025-04-25T08:04:55.000Z</time>
      </trkpt>
      <trkpt lat="43.35983" lon="6.13281">
        <ele>529.132752</ele>
        <time>2025-04-25T08:04:55.000Z</time>
      </trkpt>
      <trkpt lat="43.35983" lon="6.13283">
        <ele>529.322649</ele>
        <time>2025-04-25T08:04:56.000Z</time>
      </trkpt>
      <trkpt lat="43.35983" lon="6.13283">
        <ele>529.322649</ele>
        <time>2025-04-25T08:04:56.000Z</time>
      </trkpt>
      <trkpt lat="43.35982" lon="6.13285">
        <ele>529.505524</ele>
        <time>2025-04-25T08:04:57.000Z</time>
      </trkpt>
      <trkpt lat="43.35982" lon="6.13285">
        <ele>529.505524</ele>
        <time>2025-04-25T08:04:57.000Z</time>
      </trkpt>
      <trkpt lat="43.35981" lon="6.13288">
        <ele>529.721207</ele>
        <time>2025-04-25T08:04:58.000Z</time>
      </trkpt>
      <trkpt lat="43.35981" lon="6.13288">
        <ele>529.721207</ele>
        <time>2025-04-25T08:04:58.000Z</time>
      </trkpt>
      <trkpt lat="43.35981" lon="6.13291">
        <ele>529.940142</ele>
        <time>2025-04-25T08:04:59.000Z</time>
      </trkpt>
      <trkpt lat="43.35981" lon="6.13291">
        <ele>529.940142</ele>
        <time>2025-04-25T08:04:59.000Z</time>
      </trkpt>
      <trkpt lat="43.3598" lon="6.13294">
        <ele>530.127727</ele>
        <time>2025-04-25T08:05:00.000Z</time>
      </trkpt>
      <trkpt lat="43.3598" lon="6.13296">
        <ele>530.25478</ele>
        <time>2025-04-25T08:05:01.000Z</time>
      </trkpt>
      <trkpt lat="43.3598" lon="6.13296">
        <ele>530.25478</ele>
        <time>2025-04-25T08:05:01.000Z</time>
      </trkpt>
      <trkpt lat="43.3598" lon="6.13299">
        <ele>530.497421</ele>
        <time>2025-04-25T08:05:02.000Z</time>
      </trkpt>
      <trkpt lat="43.3598" lon="6.13299">
        <ele>530.497421</ele>
        <time>2025-04-25T08:05:02.000Z</time>
      </trkpt>
      <trkpt lat="43.35979" lon="6.13302">
        <ele>530.72961</ele>
        <time>2025-04-25T08:05:03.000Z</time>
      </trkpt>
      <trkpt lat="43.35979" lon="6.13302">
        <ele>530.72961</ele>
        <time>2025-04-25T08:05:03.000Z</time>
      </trkpt>
      <trkpt lat="43.35978" lon="6.13305">
        <ele>530.955159</ele>
        <time>2025-04-25T08:05:03.000Z</time>
      </trkpt>
      <trkpt lat="43.35977" lon="6.13308">
        <ele>531.184282</ele>
        <time>2025-04-25T08:05:05.000Z</time>
      </trkpt>
      <trkpt lat="43.35977" lon="6.13308">
        <ele>531.184282</ele>
        <time>2025-04-25T08:05:05.000Z</time>
      </trkpt>
      <trkpt lat="43.35976" lon="6.13311">
        <ele>531.416471</ele>
        <time>2025-04-25T08:05:06.000Z</time>
      </trkpt>
      <trkpt lat="43.35976" lon="6.13311">
        <ele>531.416471</ele>
        <time>2025-04-25T08:05:06.000Z</time>
      </trkpt>
      <trkpt lat="43.35976" lon="6.13313">
        <ele>531.57654</ele>
        <time>2025-04-25T08:05:07.000Z</time>
      </trkpt>
      <trkpt lat="43.35976" lon="6.13313">
        <ele>531.57654</ele>
        <time>2025-04-25T08:05:07.000Z</time>
      </trkpt>
      <trkpt lat="43.35975" lon="6.13317">
        <ele>531.825965</ele>
        <time>2025-04-25T08:05:08.000Z</time>
      </trkpt>
      <trkpt lat="43.35975" lon="6.13317">
        <ele>531.825965</ele>
        <time>2025-04-25T08:05:08.000Z</time>
      </trkpt>
      <trkpt lat="43.35975" lon="6.1332">
        <ele>532.078209</ele>
        <time>2025-04-25T08:05:08.000Z</time>
      </trkpt>
      <trkpt lat="43.35975" lon="6.1332">
        <ele>532.078209</ele>
        <time>2025-04-25T08:05:08.000Z</time>
      </trkpt>
      <trkpt lat="43.35974" lon="6.13323">
        <ele>532.258894</ele>
        <time>2025-04-25T08:05:10.000Z</time>
      </trkpt>
      <trkpt lat="43.35974" lon="6.13323">
        <ele>532.258894</ele>
        <time>2025-04-25T08:05:10.000Z</time>
      </trkpt>
      <trkpt lat="43.35974" lon="6.13325">
        <ele>532.439579</ele>
        <time>2025-04-25T08:05:11.000Z</time>
      </trkpt>
      <trkpt lat="43.35974" lon="6.13325">
        <ele>532.439579</ele>
        <time>2025-04-25T08:05:11.000Z</time>
      </trkpt>
      <trkpt lat="43.35973" lon="6.13328">
        <ele>532.632371</ele>
        <time>2025-04-25T08:05:12.000Z</time>
      </trkpt>
      <trkpt lat="43.35973" lon="6.13328">
        <ele>532.632371</ele>
        <time>2025-04-25T08:05:12.000Z</time>
      </trkpt>
      <trkpt lat="43.35973" lon="6.13331">
        <ele>532.886478</ele>
        <time>2025-04-25T08:05:13.000Z</time>
      </trkpt>
      <trkpt lat="43.35973" lon="6.13331">
        <ele>532.886478</ele>
        <time>2025-04-25T08:05:13.000Z</time>
      </trkpt>
      <trkpt lat="43.35973" lon="6.13335">
        <ele>533.115664</ele>
        <time>2025-04-25T08:05:14.000Z</time>
      </trkpt>
      <trkpt lat="43.35973" lon="6.13335">
        <ele>533.115664</ele>
        <time>2025-04-25T08:05:14.000Z</time>
      </trkpt>
      <trkpt lat="43.35973" lon="6.13338">
        <ele>533.351809</ele>
        <time>2025-04-25T08:05:15.000Z</time>
      </trkpt>
      <trkpt lat="43.35973" lon="6.13338">
        <ele>533.351809</ele>
        <time>2025-04-25T08:05:15.000Z</time>
      </trkpt>
      <trkpt lat="43.35972" lon="6.1334">
        <ele>533.525608</ele>
        <time>2025-04-25T08:05:16.000Z</time>
      </trkpt>
      <trkpt lat="43.35972" lon="6.1334">
        <ele>533.525608</ele>
        <time>2025-04-25T08:05:16.000Z</time>
      </trkpt>
      <trkpt lat="43.35972" lon="6.13343">
        <ele>533.695012</ele>
        <time>2025-04-25T08:05:17.000Z</time>
      </trkpt>
      <trkpt lat="43.35972" lon="6.13343">
        <ele>533.695012</ele>
        <time>2025-04-25T08:05:17.000Z</time>
      </trkpt>
      <trkpt lat="43.35973" lon="6.13346">
        <ele>533.896429</ele>
        <time>2025-04-25T08:05:17.000Z</time>
      </trkpt>
      <trkpt lat="43.35973" lon="6.13346">
        <ele>533.896429</ele>
        <time>2025-04-25T08:05:17.000Z</time>
      </trkpt>
      <trkpt lat="43.35973" lon="6.13348">
        <ele>534.094067</ele>
        <time>2025-04-25T08:05:18.000Z</time>
      </trkpt>
      <trkpt lat="43.35973" lon="6.13348">
        <ele>534.094067</ele>
        <time>2025-04-25T08:05:18.000Z</time>
      </trkpt>
      <trkpt lat="43.35972" lon="6.13352">
        <ele>534.351124</ele>
        <time>2025-04-25T08:05:20.000Z</time>
      </trkpt>
      <trkpt lat="43.35972" lon="6.13352">
        <ele>534.351124</ele>
        <time>2025-04-25T08:05:20.000Z</time>
      </trkpt>
      <trkpt lat="43.35972" lon="6.13354">
        <ele>534.520528</ele>
        <time>2025-04-25T08:05:21.000Z</time>
      </trkpt>
      <trkpt lat="43.35972" lon="6.13354">
        <ele>534.520528</ele>
        <time>2025-04-25T08:05:21.000Z</time>
      </trkpt>
      <trkpt lat="43.35973" lon="6.13358">
        <ele>534.749714</ele>
        <time>2025-04-25T08:05:22.000Z</time>
      </trkpt>
      <trkpt lat="43.35973" lon="6.13358">
        <ele>534.749714</ele>
        <time>2025-04-25T08:05:22.000Z</time>
      </trkpt>
      <trkpt lat="43.35972" lon="6.13361">
        <ele>535.01375</ele>
        <time>2025-04-25T08:05:23.000Z</time>
      </trkpt>
      <trkpt lat="43.35972" lon="6.13361">
        <ele>535.01375</ele>
        <time>2025-04-25T08:05:23.000Z</time>
      </trkpt>
      <trkpt lat="43.35972" lon="6.13364">
        <ele>535.229037</ele>
        <time>2025-04-25T08:05:24.000Z</time>
      </trkpt>
      <trkpt lat="43.35972" lon="6.13364">
        <ele>535.229037</ele>
        <time>2025-04-25T08:05:24.000Z</time>
      </trkpt>
      <trkpt lat="43.35972" lon="6.13368">
        <ele>535.470787</ele>
        <time>2025-04-25T08:05:25.000Z</time>
      </trkpt>
      <trkpt lat="43.35972" lon="6.13368">
        <ele>535.470787</ele>
        <time>2025-04-25T08:05:25.000Z</time>
      </trkpt>
      <trkpt lat="43.35971" lon="6.13371">
        <ele>535.699973</ele>
        <time>2025-04-25T08:05:25.000Z</time>
      </trkpt>
      <trkpt lat="43.35971" lon="6.13371">
        <ele>535.699973</ele>
        <time>2025-04-25T08:05:25.000Z</time>
      </trkpt>
      <trkpt lat="43.35971" lon="6.13374">
        <ele>535.911728</ele>
        <time>2025-04-25T08:05:27.000Z</time>
      </trkpt>
      <trkpt lat="43.35971" lon="6.13374">
        <ele>535.911728</ele>
        <time>2025-04-25T08:05:27.000Z</time>
      </trkpt>
      <trkpt lat="43.35971" lon="6.13377">
        <ele>536.161809</ele>
        <time>2025-04-25T08:05:28.000Z</time>
      </trkpt>
      <trkpt lat="43.35971" lon="6.13377">
        <ele>536.161809</ele>
        <time>2025-04-25T08:05:28.000Z</time>
      </trkpt>
      <trkpt lat="43.3597" lon="6.13382">
        <ele>536.4678</ele>
        <time>2025-04-25T08:05:29.000Z</time>
      </trkpt>
      <trkpt lat="43.3597" lon="6.13382">
        <ele>536.4678</ele>
        <time>2025-04-25T08:05:29.000Z</time>
      </trkpt>
      <trkpt lat="43.3597" lon="6.13385">
        <ele>536.747041</ele>
        <time>2025-04-25T08:05:30.000Z</time>
      </trkpt>
      <trkpt lat="43.3597" lon="6.13385">
        <ele>536.747041</ele>
        <time>2025-04-25T08:05:30.000Z</time>
      </trkpt>
      <trkpt lat="43.35969" lon="6.13389">
        <ele>536.967785</ele>
        <time>2025-04-25T08:05:31.000Z</time>
      </trkpt>
      <trkpt lat="43.35969" lon="6.13389">
        <ele>536.967785</ele>
        <time>2025-04-25T08:05:31.000Z</time>
      </trkpt>
      <trkpt lat="43.35968" lon="6.13392">
        <ele>537.206637</ele>
        <time>2025-04-25T08:05:32.000Z</time>
      </trkpt>
      <trkpt lat="43.35968" lon="6.13392">
        <ele>537.206637</ele>
        <time>2025-04-25T08:05:32.000Z</time>
      </trkpt>
      <trkpt lat="43.35968" lon="6.13394">
        <ele>537.405916</ele>
        <time>2025-04-25T08:05:32.000Z</time>
      </trkpt>
      <trkpt lat="43.35968" lon="6.13394">
        <ele>537.405916</ele>
        <time>2025-04-25T08:05:32.000Z</time>
      </trkpt>
      <trkpt lat="43.35967" lon="6.13397">
        <ele>537.601616</ele>
        <time>2025-04-25T08:05:34.000Z</time>
      </trkpt>
      <trkpt lat="43.35967" lon="6.13397">
        <ele>537.601616</ele>
        <time>2025-04-25T08:05:34.000Z</time>
      </trkpt>
      <trkpt lat="43.35966" lon="6.13399">
        <ele>537.801437</ele>
        <time>2025-04-25T08:05:35.000Z</time>
      </trkpt>
      <trkpt lat="43.35966" lon="6.13399">
        <ele>537.801437</ele>
        <time>2025-04-25T08:05:35.000Z</time>
      </trkpt>
      <trkpt lat="43.35965" lon="6.13401">
        <ele>537.964502</ele>
        <time>2025-04-25T08:05:35.000Z</time>
      </trkpt>
      <trkpt lat="43.35965" lon="6.13401">
        <ele>537.964502</ele>
        <time>2025-04-25T08:05:35.000Z</time>
      </trkpt>
      <trkpt lat="43.35964" lon="6.13404">
        <ele>538.138129</ele>
        <time>2025-04-25T08:05:37.000Z</time>
      </trkpt>
      <trkpt lat="43.35964" lon="6.13404">
        <ele>538.138129</ele>
        <time>2025-04-25T08:05:37.000Z</time>
      </trkpt>
      <trkpt lat="43.35963" lon="6.13407">
        <ele>538.375288</ele>
        <time>2025-04-25T08:05:38.000Z</time>
      </trkpt>
      <trkpt lat="43.35963" lon="6.13407">
        <ele>538.375288</ele>
        <time>2025-04-25T08:05:38.000Z</time>
      </trkpt>
      <trkpt lat="43.35962" lon="6.13408">
        <ele>538.547668</ele>
        <time>2025-04-25T08:05:39.000Z</time>
      </trkpt>
      <trkpt lat="43.35962" lon="6.13408">
        <ele>538.547668</ele>
        <time>2025-04-25T08:05:39.000Z</time>
      </trkpt>
      <trkpt lat="43.35961" lon="6.13411">
        <ele>538.753929</ele>
        <time>2025-04-25T08:05:40.000Z</time>
      </trkpt>
      <trkpt lat="43.35961" lon="6.13411">
        <ele>538.753929</ele>
        <time>2025-04-25T08:05:40.000Z</time>
      </trkpt>
      <trkpt lat="43.3596" lon="6.13413">
        <ele>538.96538</ele>
        <time>2025-04-25T08:05:41.000Z</time>
      </trkpt>
      <trkpt lat="43.3596" lon="6.13413">
        <ele>538.96538</ele>
        <time>2025-04-25T08:05:41.000Z</time>
      </trkpt>
      <trkpt lat="43.35959" lon="6.13416">
        <ele>539.134887</ele>
        <time>2025-04-25T08:05:42.000Z</time>
      </trkpt>
      <trkpt lat="43.35959" lon="6.13416">
        <ele>539.134887</ele>
        <time>2025-04-25T08:05:42.000Z</time>
      </trkpt>
      <trkpt lat="43.35958" lon="6.13419">
        <ele>539.393856</ele>
        <time>2025-04-25T08:05:43.000Z</time>
      </trkpt>
      <trkpt lat="43.35958" lon="6.13419">
        <ele>539.393856</ele>
        <time>2025-04-25T08:05:43.000Z</time>
      </trkpt>
      <trkpt lat="43.35958" lon="6.13422">
        <ele>539.595273</ele>
        <time>2025-04-25T08:05:44.000Z</time>
      </trkpt>
      <trkpt lat="43.35958" lon="6.13422">
        <ele>539.595273</ele>
        <time>2025-04-25T08:05:44.000Z</time>
      </trkpt>
      <trkpt lat="43.35957" lon="6.13425">
        <ele>539.803622</ele>
        <time>2025-04-25T08:05:45.000Z</time>
      </trkpt>
      <trkpt lat="43.35957" lon="6.13425">
        <ele>539.803622</ele>
        <time>2025-04-25T08:05:45.000Z</time>
      </trkpt>
      <trkpt lat="43.35957" lon="6.13428">
        <ele>540.01038</ele>
        <time>2025-04-25T08:05:45.000Z</time>
      </trkpt>
      <trkpt lat="43.35957" lon="6.13428">
        <ele>540.01038</ele>
        <time>2025-04-25T08:05:45.000Z</time>
      </trkpt>
      <trkpt lat="43.35957" lon="6.1343">
        <ele>540.203173</ele>
        <time>2025-04-25T08:05:47.000Z</time>
      </trkpt>
      <trkpt lat="43.35957" lon="6.1343">
        <ele>540.203173</ele>
        <time>2025-04-25T08:05:47.000Z</time>
      </trkpt>
      <trkpt lat="43.35958" lon="6.13433">
        <ele>540.404591</ele>
        <time>2025-04-25T08:05:48.000Z</time>
      </trkpt>
      <trkpt lat="43.35958" lon="6.13433">
        <ele>540.404591</ele>
        <time>2025-04-25T08:05:48.000Z</time>
      </trkpt>
      <trkpt lat="43.35958" lon="6.13438">
        <ele>540.752632</ele>
        <time>2025-04-25T08:05:49.000Z</time>
      </trkpt>
      <trkpt lat="43.35958" lon="6.13438">
        <ele>540.752632</ele>
        <time>2025-04-25T08:05:49.000Z</time>
      </trkpt>
      <trkpt lat="43.35959" lon="6.13441">
        <ele>540.984821</ele>
        <time>2025-04-25T08:05:50.000Z</time>
      </trkpt>
      <trkpt lat="43.35959" lon="6.13441">
        <ele>540.984821</ele>
        <time>2025-04-25T08:05:50.000Z</time>
      </trkpt>
      <trkpt lat="43.3596" lon="6.13445">
        <ele>541.260456</ele>
        <time>2025-04-25T08:05:51.000Z</time>
      </trkpt>
      <trkpt lat="43.3596" lon="6.13445">
        <ele>541.260456</ele>
        <time>2025-04-25T08:05:51.000Z</time>
      </trkpt>
      <trkpt lat="43.35961" lon="6.13448">
        <ele>541.520896</ele>
        <time>2025-04-25T08:05:52.000Z</time>
      </trkpt>
      <trkpt lat="43.35962" lon="6.13452">
        <ele>541.783934</ele>
        <time>2025-04-25T08:05:53.000Z</time>
      </trkpt>
      <trkpt lat="43.35962" lon="6.13452">
        <ele>541.783934</ele>
        <time>2025-04-25T08:05:53.000Z</time>
      </trkpt>
      <trkpt lat="43.35963" lon="6.13454">
        <ele>541.996285</ele>
        <time>2025-04-25T08:05:54.000Z</time>
      </trkpt>
      <trkpt lat="43.35963" lon="6.13454">
        <ele>541.996285</ele>
        <time>2025-04-25T08:05:54.000Z</time>
      </trkpt>
      <trkpt lat="43.35963" lon="6.13458">
        <ele>542.259322</ele>
        <time>2025-04-25T08:05:55.000Z</time>
      </trkpt>
      <trkpt lat="43.35963" lon="6.13458">
        <ele>542.259322</ele>
        <time>2025-04-25T08:05:55.000Z</time>
      </trkpt>
      <trkpt lat="43.35965" lon="6.13461">
        <ele>542.526094</ele>
        <time>2025-04-25T08:05:56.000Z</time>
      </trkpt>
      <trkpt lat="43.35965" lon="6.13461">
        <ele>542.526094</ele>
        <time>2025-04-25T08:05:56.000Z</time>
      </trkpt>
      <trkpt lat="43.35965" lon="6.13465">
        <ele>542.778338</ele>
        <time>2025-04-25T08:05:57.000Z</time>
      </trkpt>
      <trkpt lat="43.35965" lon="6.13465">
        <ele>542.778338</ele>
        <time>2025-04-25T08:05:57.000Z</time>
      </trkpt>
      <trkpt lat="43.35966" lon="6.13467">
        <ele>542.935014</ele>
        <time>2025-04-25T08:05:58.000Z</time>
      </trkpt>
      <trkpt lat="43.35966" lon="6.13467">
        <ele>542.935014</ele>
        <time>2025-04-25T08:05:58.000Z</time>
      </trkpt>
      <trkpt lat="43.35967" lon="6.13469">
        <ele>543.134293</ele>
        <time>2025-04-25T08:05:59.000Z</time>
      </trkpt>
      <trkpt lat="43.35967" lon="6.13469">
        <ele>543.134293</ele>
        <time>2025-04-25T08:05:59.000Z</time>
      </trkpt>
      <trkpt lat="43.35968" lon="6.13472">
        <ele>543.310289</ele>
        <time>2025-04-25T08:06:00.000Z</time>
      </trkpt>
      <trkpt lat="43.35968" lon="6.13472">
        <ele>543.310289</ele>
        <time>2025-04-25T08:06:00.000Z</time>
      </trkpt>
      <trkpt lat="43.35968" lon="6.13474">
        <ele>543.503087</ele>
        <time>2025-04-25T08:06:00.000Z</time>
      </trkpt>
      <trkpt lat="43.35968" lon="6.13474">
        <ele>543.503087</ele>
        <time>2025-04-25T08:06:00.000Z</time>
      </trkpt>
      <trkpt lat="43.35969" lon="6.13476">
        <ele>543.651999</ele>
        <time>2025-04-25T08:06:02.000Z</time>
      </trkpt>
      <trkpt lat="43.35969" lon="6.13476">
        <ele>543.651999</ele>
        <time>2025-04-25T08:06:02.000Z</time>
      </trkpt>
      <trkpt lat="43.3597" lon="6.13478">
        <ele>543.817971</ele>
        <time>2025-04-25T08:06:03.000Z</time>
      </trkpt>
      <trkpt lat="43.35972" lon="6.13481">
        <ele>544.059658</ele>
        <time>2025-04-25T08:06:04.000Z</time>
      </trkpt>
      <trkpt lat="43.35972" lon="6.13481">
        <ele>544.059658</ele>
        <time>2025-04-25T08:06:04.000Z</time>
      </trkpt>
      <trkpt lat="43.35973" lon="6.13483">
        <ele>544.277747</ele>
        <time>2025-04-25T08:06:05.000Z</time>
      </trkpt>
      <trkpt lat="43.35973" lon="6.13483">
        <ele>544.277747</ele>
        <time>2025-04-25T08:06:05.000Z</time>
      </trkpt>
      <trkpt lat="43.35974" lon="6.13485">
        <ele>544.44372</ele>
        <time>2025-04-25T08:06:06.000Z</time>
      </trkpt>
      <trkpt lat="43.35974" lon="6.13485">
        <ele>544.44372</ele>
        <time>2025-04-25T08:06:06.000Z</time>
      </trkpt>
      <trkpt lat="43.35977" lon="6.13487">
        <ele>544.755821</ele>
        <time>2025-04-25T08:06:07.000Z</time>
      </trkpt>
      <trkpt lat="43.35977" lon="6.13487">
        <ele>544.755821</ele>
        <time>2025-04-25T08:06:07.000Z</time>
      </trkpt>
      <trkpt lat="43.35978" lon="6.13489">
        <ele>544.935867</ele>
        <time>2025-04-25T08:06:08.000Z</time>
      </trkpt>
      <trkpt lat="43.35978" lon="6.13489">
        <ele>544.935867</ele>
        <time>2025-04-25T08:06:08.000Z</time>
      </trkpt>
      <trkpt lat="43.35981" lon="6.13491">
        <ele>545.192774</ele>
        <time>2025-04-25T08:06:09.000Z</time>
      </trkpt>
      <trkpt lat="43.35981" lon="6.13491">
        <ele>545.192774</ele>
        <time>2025-04-25T08:06:09.000Z</time>
      </trkpt>
      <trkpt lat="43.35983" lon="6.13493">
        <ele>545.521058</ele>
        <time>2025-04-25T08:06:10.000Z</time>
      </trkpt>
      <trkpt lat="43.35983" lon="6.13493">
        <ele>545.521058</ele>
        <time>2025-04-25T08:06:10.000Z</time>
      </trkpt>
      <trkpt lat="43.35986" lon="6.13496">
        <ele>545.814622</ele>
        <time>2025-04-25T08:06:11.000Z</time>
      </trkpt>
      <trkpt lat="43.35986" lon="6.13496">
        <ele>545.814622</ele>
        <time>2025-04-25T08:06:11.000Z</time>
      </trkpt>
      <trkpt lat="43.35988" lon="6.13498">
        <ele>546.090692</ele>
        <time>2025-04-25T08:06:12.000Z</time>
      </trkpt>
      <trkpt lat="43.35988" lon="6.13498">
        <ele>546.090692</ele>
        <time>2025-04-25T08:06:12.000Z</time>
      </trkpt>
      <trkpt lat="43.3599" lon="6.135">
        <ele>546.310745</ele>
        <time>2025-04-25T08:06:12.000Z</time>
      </trkpt>
      <trkpt lat="43.3599" lon="6.135">
        <ele>546.310745</ele>
        <time>2025-04-25T08:06:12.000Z</time>
      </trkpt>
      <trkpt lat="43.35991" lon="6.13503">
        <ele>546.534138</ele>
        <time>2025-04-25T08:06:14.000Z</time>
      </trkpt>
      <trkpt lat="43.35991" lon="6.13503">
        <ele>546.534138</ele>
        <time>2025-04-25T08:06:14.000Z</time>
      </trkpt>
      <trkpt lat="43.35993" lon="6.13505">
        <ele>546.768416</ele>
        <time>2025-04-25T08:06:15.000Z</time>
      </trkpt>
      <trkpt lat="43.35993" lon="6.13505">
        <ele>546.768416</ele>
        <time>2025-04-25T08:06:15.000Z</time>
      </trkpt>
      <trkpt lat="43.35995" lon="6.13508">
        <ele>546.968056</ele>
        <time>2025-04-25T08:06:16.000Z</time>
      </trkpt>
      <trkpt lat="43.35995" lon="6.13508">
        <ele>546.968056</ele>
        <time>2025-04-25T08:06:16.000Z</time>
      </trkpt>
      <trkpt lat="43.35997" lon="6.13512">
        <ele>547.112605</ele>
        <time>2025-04-25T08:06:17.000Z</time>
      </trkpt>
      <trkpt lat="43.35997" lon="6.13512">
        <ele>547.112605</ele>
        <time>2025-04-25T08:06:17.000Z</time>
      </trkpt>
      <trkpt lat="43.35998" lon="6.13515">
        <ele>547.251063</ele>
        <time>2025-04-25T08:06:18.000Z</time>
      </trkpt>
      <trkpt lat="43.35998" lon="6.13515">
        <ele>547.251063</ele>
        <time>2025-04-25T08:06:18.000Z</time>
      </trkpt>
      <trkpt lat="43.35999" lon="6.13516">
        <ele>547.303097</ele>
        <time>2025-04-25T08:06:20.000Z</time>
      </trkpt>
      <trkpt lat="43.35999" lon="6.13516">
        <ele>547.303097</ele>
        <time>2025-04-25T08:06:20.000Z</time>
      </trkpt>
      <trkpt lat="43.36" lon="6.13518">
        <ele>547.392823</ele>
        <time>2025-04-25T08:06:21.000Z</time>
      </trkpt>
      <trkpt lat="43.36" lon="6.13518">
        <ele>547.392823</ele>
        <time>2025-04-25T08:06:21.000Z</time>
      </trkpt>
      <trkpt lat="43.36001" lon="6.1352">
        <ele>547.493968</ele>
        <time>2025-04-25T08:06:22.000Z</time>
      </trkpt>
      <trkpt lat="43.36001" lon="6.1352">
        <ele>547.493968</ele>
        <time>2025-04-25T08:06:22.000Z</time>
      </trkpt>
      <trkpt lat="43.36002" lon="6.13523">
        <ele>547.606787</ele>
        <time>2025-04-25T08:06:22.000Z</time>
      </trkpt>
      <trkpt lat="43.36002" lon="6.13523">
        <ele>547.606787</ele>
        <time>2025-04-25T08:06:22.000Z</time>
      </trkpt>
      <trkpt lat="43.36003" lon="6.13525">
        <ele>547.704934</ele>
        <time>2025-04-25T08:06:24.000Z</time>
      </trkpt>
      <trkpt lat="43.36003" lon="6.13525">
        <ele>547.704934</ele>
        <time>2025-04-25T08:06:24.000Z</time>
      </trkpt>
      <trkpt lat="43.36004" lon="6.13527">
        <ele>547.797381</ele>
        <time>2025-04-25T08:06:24.000Z</time>
      </trkpt>
      <trkpt lat="43.36004" lon="6.13527">
        <ele>547.797381</ele>
        <time>2025-04-25T08:06:24.000Z</time>
      </trkpt>
      <trkpt lat="43.36005" lon="6.1353">
        <ele>547.907722</ele>
        <time>2025-04-25T08:06:26.000Z</time>
      </trkpt>
      <trkpt lat="43.36005" lon="6.1353">
        <ele>547.907722</ele>
        <time>2025-04-25T08:06:26.000Z</time>
      </trkpt>
      <trkpt lat="43.36006" lon="6.13532">
        <ele>547.989102</ele>
        <time>2025-04-25T08:06:26.000Z</time>
      </trkpt>
      <trkpt lat="43.36006" lon="6.13532">
        <ele>547.989102</ele>
        <time>2025-04-25T08:06:26.000Z</time>
      </trkpt>
      <trkpt lat="43.36007" lon="6.13535">
        <ele>548.101429</ele>
        <time>2025-04-25T08:06:28.000Z</time>
      </trkpt>
      <trkpt lat="43.36007" lon="6.13535">
        <ele>548.101429</ele>
        <time>2025-04-25T08:06:28.000Z</time>
      </trkpt>
      <trkpt lat="43.36008" lon="6.13538">
        <ele>548.211221</ele>
        <time>2025-04-25T08:06:28.000Z</time>
      </trkpt>
      <trkpt lat="43.36008" lon="6.13538">
        <ele>548.211221</ele>
        <time>2025-04-25T08:06:28.000Z</time>
      </trkpt>
      <trkpt lat="43.36009" lon="6.13541">
        <ele>548.323547</ele>
        <time>2025-04-25T08:06:30.000Z</time>
      </trkpt>
      <trkpt lat="43.3601" lon="6.13544">
        <ele>548.437468</ele>
        <time>2025-04-25T08:06:31.000Z</time>
      </trkpt>
      <trkpt lat="43.3601" lon="6.13544">
        <ele>548.437468</ele>
        <time>2025-04-25T08:06:31.000Z</time>
      </trkpt>
      <trkpt lat="43.3601" lon="6.13547">
        <ele>548.546205</ele>
        <time>2025-04-25T08:06:32.000Z</time>
      </trkpt>
      <trkpt lat="43.3601" lon="6.13547">
        <ele>548.546205</ele>
        <time>2025-04-25T08:06:32.000Z</time>
      </trkpt>
      <trkpt lat="43.36011" lon="6.13551">
        <ele>548.692022</ele>
        <time>2025-04-25T08:06:33.000Z</time>
      </trkpt>
      <trkpt lat="43.36011" lon="6.13551">
        <ele>548.692022</ele>
        <time>2025-04-25T08:06:33.000Z</time>
      </trkpt>
      <trkpt lat="43.36012" lon="6.13554">
        <ele>548.826227</ele>
        <time>2025-04-25T08:06:34.000Z</time>
      </trkpt>
      <trkpt lat="43.36012" lon="6.13554">
        <ele>548.826227</ele>
        <time>2025-04-25T08:06:34.000Z</time>
      </trkpt>
      <trkpt lat="43.36013" lon="6.13557">
        <ele>548.925071</ele>
        <time>2025-04-25T08:06:35.000Z</time>
      </trkpt>
      <trkpt lat="43.36013" lon="6.13557">
        <ele>548.925071</ele>
        <time>2025-04-25T08:06:35.000Z</time>
      </trkpt>
      <trkpt lat="43.36013" lon="6.13559">
        <ele>549.019198</ele>
        <time>2025-04-25T08:06:36.000Z</time>
      </trkpt>
      <trkpt lat="43.36013" lon="6.13559">
        <ele>549.019198</ele>
        <time>2025-04-25T08:06:36.000Z</time>
      </trkpt>
      <trkpt lat="43.36014" lon="6.13562">
        <ele>549.113324</ele>
        <time>2025-04-25T08:06:37.000Z</time>
      </trkpt>
      <trkpt lat="43.36014" lon="6.13562">
        <ele>549.113324</ele>
        <time>2025-04-25T08:06:37.000Z</time>
      </trkpt>
      <trkpt lat="43.36015" lon="6.13564">
        <ele>549.202216</ele>
        <time>2025-04-25T08:06:38.000Z</time>
      </trkpt>
      <trkpt lat="43.36015" lon="6.13564">
        <ele>549.202216</ele>
        <time>2025-04-25T08:06:38.000Z</time>
      </trkpt>
      <trkpt lat="43.36016" lon="6.13566">
        <ele>549.283597</ele>
        <time>2025-04-25T08:06:39.000Z</time>
      </trkpt>
      <trkpt lat="43.36016" lon="6.13566">
        <ele>549.283597</ele>
        <time>2025-04-25T08:06:39.000Z</time>
      </trkpt>
      <trkpt lat="43.36017" lon="6.13569">
        <ele>549.40474</ele>
        <time>2025-04-25T08:06:39.000Z</time>
      </trkpt>
      <trkpt lat="43.36017" lon="6.13569">
        <ele>549.40474</ele>
        <time>2025-04-25T08:06:39.000Z</time>
      </trkpt>
      <trkpt lat="43.36019" lon="6.13572">
        <ele>549.557621</ele>
        <time>2025-04-25T08:06:41.000Z</time>
      </trkpt>
      <trkpt lat="43.36019" lon="6.13572">
        <ele>549.557621</ele>
        <time>2025-04-25T08:06:41.000Z</time>
      </trkpt>
      <trkpt lat="43.3602" lon="6.13575">
        <ele>549.670439</ele>
        <time>2025-04-25T08:06:42.000Z</time>
      </trkpt>
      <trkpt lat="43.3602" lon="6.13575">
        <ele>549.670439</ele>
        <time>2025-04-25T08:06:42.000Z</time>
      </trkpt>
      <trkpt lat="43.36022" lon="6.13579">
        <ele>549.84078</ele>
        <time>2025-04-25T08:06:43.000Z</time>
      </trkpt>
      <trkpt lat="43.36022" lon="6.13579">
        <ele>549.84078</ele>
        <time>2025-04-25T08:06:43.000Z</time>
      </trkpt>
      <trkpt lat="43.36024" lon="6.13582">
        <ele>549.988706</ele>
        <time>2025-04-25T08:06:45.000Z</time>
      </trkpt>
      <trkpt lat="43.36024" lon="6.13582">
        <ele>549.988706</ele>
        <time>2025-04-25T08:06:45.000Z</time>
      </trkpt>
      <trkpt lat="43.36024" lon="6.13584">
        <ele>550.059226</ele>
        <time>2025-04-25T08:06:46.000Z</time>
      </trkpt>
      <trkpt lat="43.36024" lon="6.13584">
        <ele>550.059226</ele>
        <time>2025-04-25T08:06:46.000Z</time>
      </trkpt>
      <trkpt lat="43.36025" lon="6.13588">
        <ele>550.201736</ele>
        <time>2025-04-25T08:06:47.000Z</time>
      </trkpt>
      <trkpt lat="43.36025" lon="6.13588">
        <ele>550.201736</ele>
        <time>2025-04-25T08:06:47.000Z</time>
      </trkpt>
      <trkpt lat="43.36026" lon="6.1359">
        <ele>550.292634</ele>
        <time>2025-04-25T08:06:48.000Z</time>
      </trkpt>
      <trkpt lat="43.36026" lon="6.1359">
        <ele>550.292634</ele>
        <time>2025-04-25T08:06:48.000Z</time>
      </trkpt>
      <trkpt lat="43.36027" lon="6.13594">
        <ele>550.438451</ele>
        <time>2025-04-25T08:06:49.000Z</time>
      </trkpt>
      <trkpt lat="43.36027" lon="6.13594">
        <ele>550.438451</ele>
        <time>2025-04-25T08:06:49.000Z</time>
      </trkpt>
      <trkpt lat="43.36028" lon="6.13597">
        <ele>550.565854</ele>
        <time>2025-04-25T08:06:50.000Z</time>
      </trkpt>
      <trkpt lat="43.36028" lon="6.13597">
        <ele>550.565854</ele>
        <time>2025-04-25T08:06:50.000Z</time>
      </trkpt>
      <trkpt lat="43.36029" lon="6.13601">
        <ele>550.710292</ele>
        <time>2025-04-25T08:06:51.000Z</time>
      </trkpt>
      <trkpt lat="43.36029" lon="6.13601">
        <ele>550.710292</ele>
        <time>2025-04-25T08:06:51.000Z</time>
      </trkpt>
      <trkpt lat="43.3603" lon="6.13605">
        <ele>550.862756</ele>
        <time>2025-04-25T08:06:52.000Z</time>
      </trkpt>
      <trkpt lat="43.3603" lon="6.13605">
        <ele>550.862756</ele>
        <time>2025-04-25T08:06:52.000Z</time>
      </trkpt>
      <trkpt lat="43.36031" lon="6.13608">
        <ele>550.985734</ele>
        <time>2025-04-25T08:06:53.000Z</time>
      </trkpt>
      <trkpt lat="43.36033" lon="6.13612">
        <ele>551.140001</ele>
        <time>2025-04-25T08:06:54.000Z</time>
      </trkpt>
      <trkpt lat="43.36033" lon="6.13612">
        <ele>551.140001</ele>
        <time>2025-04-25T08:06:54.000Z</time>
      </trkpt>
      <trkpt lat="43.36034" lon="6.13616">
        <ele>551.282511</ele>
        <time>2025-04-25T08:06:55.000Z</time>
      </trkpt>
      <trkpt lat="43.36034" lon="6.13616">
        <ele>551.282511</ele>
        <time>2025-04-25T08:06:55.000Z</time>
      </trkpt>
      <trkpt lat="43.36035" lon="6.13619">
        <ele>551.401471</ele>
        <time>2025-04-25T08:06:56.000Z</time>
      </trkpt>
      <trkpt lat="43.36035" lon="6.13619">
        <ele>551.401471</ele>
        <time>2025-04-25T08:06:56.000Z</time>
      </trkpt>
      <trkpt lat="43.36037" lon="6.13623">
        <ele>551.565889</ele>
        <time>2025-04-25T08:06:57.000Z</time>
      </trkpt>
      <trkpt lat="43.36038" lon="6.13625">
        <ele>551.676228</ele>
        <time>2025-04-25T08:06:58.000Z</time>
      </trkpt>
      <trkpt lat="43.36038" lon="6.13625">
        <ele>551.676228</ele>
        <time>2025-04-25T08:06:58.000Z</time>
      </trkpt>
      <trkpt lat="43.36039" lon="6.13628">
        <ele>551.801435</ele>
        <time>2025-04-25T08:06:59.000Z</time>
      </trkpt>
      <trkpt lat="43.36039" lon="6.13628">
        <ele>551.801435</ele>
        <time>2025-04-25T08:06:59.000Z</time>
      </trkpt>
      <trkpt lat="43.3604" lon="6.13631">
        <ele>551.914898</ele>
        <time>2025-04-25T08:07:00.000Z</time>
      </trkpt>
      <trkpt lat="43.36041" lon="6.13635">
        <ele>552.049639</ele>
        <time>2025-04-25T08:07:01.000Z</time>
      </trkpt>
      <trkpt lat="43.36042" lon="6.13638">
        <ele>552.175618</ele>
        <time>2025-04-25T08:07:02.000Z</time>
      </trkpt>
      <trkpt lat="43.36043" lon="6.13641">
        <ele>552.297689</ele>
        <time>2025-04-25T08:07:03.000Z</time>
      </trkpt>
      <trkpt lat="43.36043" lon="6.13641">
        <ele>552.297689</ele>
        <time>2025-04-25T08:07:03.000Z</time>
      </trkpt>
      <trkpt lat="43.36045" lon="6.13645">
        <ele>552.448718</ele>
        <time>2025-04-25T08:07:04.000Z</time>
      </trkpt>
      <trkpt lat="43.36046" lon="6.13649">
        <ele>552.609173</ele>
        <time>2025-04-25T08:07:04.000Z</time>
      </trkpt>
      <trkpt lat="43.36048" lon="6.13653">
        <ele>552.769628</ele>
        <time>2025-04-25T08:07:05.000Z</time>
      </trkpt>
      <trkpt lat="43.3605" lon="6.13658">
        <ele>552.969963</ele>
        <time>2025-04-25T08:07:06.000Z</time>
      </trkpt>
      <trkpt lat="43.36051" lon="6.13661">
        <ele>553.1059</ele>
        <time>2025-04-25T08:07:08.000Z</time>
      </trkpt>
      <trkpt lat="43.36052" lon="6.13665">
        <ele>553.258363</ele>
        <time>2025-04-25T08:07:08.000Z</time>
      </trkpt>
      <trkpt lat="43.36053" lon="6.13669">
        <ele>553.39632</ele>
        <time>2025-04-25T08:07:09.000Z</time>
      </trkpt>
      <trkpt lat="43.36054" lon="6.13672">
        <ele>553.505056</ele>
        <time>2025-04-25T08:07:11.000Z</time>
      </trkpt>
      <trkpt lat="43.36054" lon="6.13674">
        <ele>553.603899</ele>
        <time>2025-04-25T08:07:12.000Z</time>
      </trkpt>
      <trkpt lat="43.36055" lon="6.13677">
        <ele>553.719656</ele>
        <time>2025-04-25T08:07:13.000Z</time>
      </trkpt>
      <trkpt lat="43.36055" lon="6.13677">
        <ele>553.719656</ele>
        <time>2025-04-25T08:07:13.000Z</time>
      </trkpt>
      <trkpt lat="43.36055" lon="6.13681">
        <ele>553.855129</ele>
        <time>2025-04-25T08:07:14.000Z</time>
      </trkpt>
      <trkpt lat="43.36055" lon="6.13684">
        <ele>553.967374</ele>
        <time>2025-04-25T08:07:15.000Z</time>
      </trkpt>
      <trkpt lat="43.36055" lon="6.13687">
        <ele>554.08313</ele>
        <time>2025-04-25T08:07:16.000Z</time>
      </trkpt>
      <trkpt lat="43.36054" lon="6.13693">
        <ele>554.269549</ele>
        <time>2025-04-25T08:07:17.000Z</time>
      </trkpt>
      <trkpt lat="43.36054" lon="6.13696">
        <ele>554.405023</ele>
        <time>2025-04-25T08:07:18.000Z</time>
      </trkpt>
      <trkpt lat="43.36054" lon="6.13701">
        <ele>554.554756</ele>
        <time>2025-04-25T08:07:18.000Z</time>
      </trkpt>
      <trkpt lat="43.36055" lon="6.13705">
        <ele>554.695171</ele>
        <time>2025-04-25T08:07:20.000Z</time>
      </trkpt>
      <trkpt lat="43.36055" lon="6.13708">
        <ele>554.819187</ele>
        <time>2025-04-25T08:07:21.000Z</time>
      </trkpt>
      <trkpt lat="43.36057" lon="6.13711">
        <ele>554.958403</ele>
        <time>2025-04-25T08:07:21.000Z</time>
      </trkpt>
      <trkpt lat="43.36058" lon="6.13715">
        <ele>555.115698</ele>
        <time>2025-04-25T08:07:23.000Z</time>
      </trkpt>
      <trkpt lat="43.36058" lon="6.13715">
        <ele>555.115698</ele>
        <time>2025-04-25T08:07:23.000Z</time>
      </trkpt>
      <trkpt lat="43.3606" lon="6.1372">
        <ele>555.291088</ele>
        <time>2025-04-25T08:07:24.000Z</time>
      </trkpt>
      <trkpt lat="43.3606" lon="6.1372">
        <ele>555.291088</ele>
        <time>2025-04-25T08:07:25.000Z</time>
      </trkpt>
      <trkpt lat="43.36058" lon="6.13729">
        <ele>555.634844</ele>
        <time>2025-04-25T08:07:26.000Z</time>
      </trkpt>
      <trkpt lat="43.36058" lon="6.13729">
        <ele>555.634844</ele>
        <time>2025-04-25T08:07:26.000Z</time>
      </trkpt>
      <trkpt lat="43.36058" lon="6.13732">
        <ele>555.67733</ele>
        <time>2025-04-25T08:07:27.000Z</time>
      </trkpt>
      <trkpt lat="43.36058" lon="6.13735">
        <ele>555.65517</ele>
        <time>2025-04-25T08:07:28.000Z</time>
      </trkpt>
      <trkpt lat="43.36058" lon="6.13735">
        <ele>555.65517</ele>
        <time>2025-04-25T08:07:28.000Z</time>
      </trkpt>
      <trkpt lat="43.36058" lon="6.13737">
        <ele>555.633797</ele>
        <time>2025-04-25T08:07:29.000Z</time>
      </trkpt>
      <trkpt lat="43.36058" lon="6.13739">
        <ele>555.618945</ele>
        <time>2025-04-25T08:07:30.000Z</time>
      </trkpt>
      <trkpt lat="43.36058" lon="6.13739">
        <ele>555.618945</ele>
        <time>2025-04-25T08:07:30.000Z</time>
      </trkpt>
      <trkpt lat="43.36057" lon="6.13741">
        <ele>555.603037</ele>
        <time>2025-04-25T08:07:31.000Z</time>
      </trkpt>
      <trkpt lat="43.36057" lon="6.13743">
        <ele>555.590188</ele>
        <time>2025-04-25T08:07:32.000Z</time>
      </trkpt>
      <trkpt lat="43.36056" lon="6.13744">
        <ele>555.57361</ele>
        <time>2025-04-25T08:07:33.000Z</time>
      </trkpt>
      <trkpt lat="43.36056" lon="6.13744">
        <ele>555.57361</ele>
        <time>2025-04-25T08:07:33.000Z</time>
      </trkpt>
      <trkpt lat="43.36055" lon="6.13745">
        <ele>555.563531</ele>
        <time>2025-04-25T08:07:34.000Z</time>
      </trkpt>
      <trkpt lat="43.36054" lon="6.13745">
        <ele>555.54878</ele>
        <time>2025-04-25T08:07:35.000Z</time>
      </trkpt>
      <trkpt lat="43.36052" lon="6.13746">
        <ele>555.527625</ele>
        <time>2025-04-25T08:07:36.000Z</time>
      </trkpt>
      <trkpt lat="43.36052" lon="6.13746">
        <ele>555.527625</ele>
        <time>2025-04-25T08:07:36.000Z</time>
      </trkpt>
      <trkpt lat="43.36049" lon="6.13746">
        <ele>555.498819</ele>
        <time>2025-04-25T08:07:36.000Z</time>
      </trkpt>
      <trkpt lat="43.36047" lon="6.13746">
        <ele>555.473062</ele>
        <time>2025-04-25T08:07:38.000Z</time>
      </trkpt>
      <trkpt lat="43.36046" lon="6.13747">
        <ele>555.455266</ele>
        <time>2025-04-25T08:07:39.000Z</time>
      </trkpt>
      <trkpt lat="43.36043" lon="6.13749">
        <ele>555.425994</ele>
        <time>2025-04-25T08:07:40.000Z</time>
      </trkpt>
      <trkpt lat="43.36041" lon="6.13751">
        <ele>555.393474</ele>
        <time>2025-04-25T08:07:41.000Z</time>
      </trkpt>
      <trkpt lat="43.36041" lon="6.13751">
        <ele>555.393474</ele>
        <time>2025-04-25T08:07:41.000Z</time>
      </trkpt>
      <trkpt lat="43.36037" lon="6.13752">
        <ele>555.352879</ele>
        <time>2025-04-25T08:07:42.000Z</time>
      </trkpt>
      <trkpt lat="43.36034" lon="6.13754">
        <ele>555.317465</ele>
        <time>2025-04-25T08:07:43.000Z</time>
      </trkpt>
      <trkpt lat="43.36034" lon="6.13754">
        <ele>555.317465</ele>
        <time>2025-04-25T08:07:44.000Z</time>
      </trkpt>
      <trkpt lat="43.36028" lon="6.13757">
        <ele>555.24874</ele>
        <time>2025-04-25T08:07:45.000Z</time>
      </trkpt>
      <trkpt lat="43.36028" lon="6.13757">
        <ele>555.24874</ele>
        <time>2025-04-25T08:07:45.000Z</time>
      </trkpt>
      <trkpt lat="43.36028" lon="6.13758">
        <ele>555.238123</ele>
        <time>2025-04-25T08:07:46.000Z</time>
      </trkpt>
      <trkpt lat="43.36028" lon="6.13758">
        <ele>555.238123</ele>
        <time>2025-04-25T08:07:47.000Z</time>
      </trkpt>
      <trkpt lat="43.36026" lon="6.13762">
        <ele>555.199697</ele>
        <time>2025-04-25T08:07:48.000Z</time>
      </trkpt>
      <trkpt lat="43.36026" lon="6.13762">
        <ele>555.199697</ele>
        <time>2025-04-25T08:07:48.000Z</time>
      </trkpt>
      <trkpt lat="43.36025" lon="6.13765">
        <ele>555.169076</ele>
        <time>2025-04-25T08:07:50.000Z</time>
      </trkpt>
      <trkpt lat="43.36025" lon="6.13766">
        <ele>555.161838</ele>
        <time>2025-04-25T08:07:51.000Z</time>
      </trkpt>
      <trkpt lat="43.36024" lon="6.13768">
        <ele>555.148988</ele>
        <time>2025-04-25T08:07:52.000Z</time>
      </trkpt>
      <trkpt lat="43.36024" lon="6.13768">
        <ele>555.148988</ele>
        <time>2025-04-25T08:07:53.000Z</time>
      </trkpt>
      <trkpt lat="43.36023" lon="6.13772">
        <ele>555.110167</ele>
        <time>2025-04-25T08:07:54.000Z</time>
      </trkpt>
      <trkpt lat="43.36024" lon="6.13774">
        <ele>555.09503</ele>
        <time>2025-04-25T08:07:55.000Z</time>
      </trkpt>
      <trkpt lat="43.36024" lon="6.13776">
        <ele>555.082181</ele>
        <time>2025-04-25T08:07:55.000Z</time>
      </trkpt>
      <trkpt lat="43.36024" lon="6.13776">
        <ele>555.082181</ele>
        <time>2025-04-25T08:07:59.000Z</time>
      </trkpt>
      <trkpt lat="43.36025" lon="6.13777">
        <ele>555.070083</ele>
        <time>2025-04-25T08:08:01.000Z</time>
      </trkpt>
      <trkpt lat="43.36024" lon="6.13779">
        <ele>555.052624</ele>
        <time>2025-04-25T08:08:06.000Z</time>
      </trkpt>
      <trkpt lat="43.36024" lon="6.13781">
        <ele>555.040527</ele>
        <time>2025-04-25T08:08:08.000Z</time>
      </trkpt>
      <trkpt lat="43.36024" lon="6.13783">
        <ele>555.021225</ele>
        <time>2025-04-25T08:08:10.000Z</time>
      </trkpt>
      <trkpt lat="43.36024" lon="6.13784">
        <ele>555.013183</ele>
        <time>2025-04-25T08:08:10.000Z</time>
      </trkpt>
      <trkpt lat="43.36024" lon="6.13788">
        <ele>554.981507</ele>
        <time>2025-04-25T08:08:13.000Z</time>
      </trkpt>
      <trkpt lat="43.36024" lon="6.13788">
        <ele>554.981507</ele>
        <time>2025-04-25T08:08:13.000Z</time>
      </trkpt>
      <trkpt lat="43.36025" lon="6.1379">
        <ele>554.963849</ele>
        <time>2025-04-25T08:08:13.000Z</time>
      </trkpt>
      <trkpt lat="43.36026" lon="6.13793">
        <ele>554.940796</ele>
        <time>2025-04-25T08:08:14.000Z</time>
      </trkpt>
      <trkpt lat="43.36027" lon="6.13796">
        <ele>554.913258</ele>
        <time>2025-04-25T08:08:15.000Z</time>
      </trkpt>
      <trkpt lat="43.36028" lon="6.13801">
        <ele>554.867518</ele>
        <time>2025-04-25T08:08:18.000Z</time>
      </trkpt>
      <trkpt lat="43.36029" lon="6.13804">
        <ele>554.841212</ele>
        <time>2025-04-25T08:08:19.000Z</time>
      </trkpt>
      <trkpt lat="43.36031" lon="6.13807">
        <ele>554.81129</ele>
        <time>2025-04-25T08:08:19.000Z</time>
      </trkpt>
      <trkpt lat="43.36032" lon="6.1381">
        <ele>554.784268</ele>
        <time>2025-04-25T08:08:22.000Z</time>
      </trkpt>
      <trkpt lat="43.36036" lon="6.13815">
        <ele>554.727197</ele>
        <time>2025-04-25T08:08:23.000Z</time>
      </trkpt>
      <trkpt lat="43.36036" lon="6.13815">
        <ele>554.727197</ele>
        <time>2025-04-25T08:08:23.000Z</time>
      </trkpt>
      <trkpt lat="43.36038" lon="6.13818">
        <ele>554.692135</ele>
        <time>2025-04-25T08:08:26.000Z</time>
      </trkpt>
      <trkpt lat="43.36041" lon="6.1382">
        <ele>554.659203</ele>
        <time>2025-04-25T08:08:26.000Z</time>
      </trkpt>
      <trkpt lat="43.36041" lon="6.13821">
        <ele>554.650719</ele>
        <time>2025-04-25T08:08:28.000Z</time>
      </trkpt>
      <trkpt lat="43.36042" lon="6.13822">
        <ele>554.632617</ele>
        <time>2025-04-25T08:08:29.000Z</time>
      </trkpt>
      <trkpt lat="43.36044" lon="6.13824">
        <ele>554.605655</ele>
        <time>2025-04-25T08:08:30.000Z</time>
      </trkpt>
      <trkpt lat="43.36046" lon="6.13827">
        <ele>554.576569</ele>
        <time>2025-04-25T08:08:31.000Z</time>
      </trkpt>
      <trkpt lat="43.3605" lon="6.13831">
        <ele>554.522645</ele>
        <time>2025-04-25T08:08:33.000Z</time>
      </trkpt>
      <trkpt lat="43.36052" lon="6.13832">
        <ele>554.494489</ele>
        <time>2025-04-25T08:08:35.000Z</time>
      </trkpt>
      <trkpt lat="43.36052" lon="6.13832">
        <ele>554.494489</ele>
        <time>2025-04-25T08:08:35.000Z</time>
      </trkpt>
      <trkpt lat="43.36054" lon="6.13833">
        <ele>554.471686</ele>
        <time>2025-04-25T08:08:36.000Z</time>
      </trkpt>
      <trkpt lat="43.36057" lon="6.13835">
        <ele>554.443529</ele>
        <time>2025-04-25T08:08:37.000Z</time>
      </trkpt>
      <trkpt lat="43.36057" lon="6.13835">
        <ele>554.443529</ele>
        <time>2025-04-25T08:08:37.000Z</time>
      </trkpt>
      <trkpt lat="43.3606" lon="6.13839">
        <ele>554.391559</ele>
        <time>2025-04-25T08:08:39.000Z</time>
      </trkpt>
      <trkpt lat="43.36062" lon="6.13842">
        <ele>554.358951</ele>
        <time>2025-04-25T08:08:40.000Z</time>
      </trkpt>
      <trkpt lat="43.36062" lon="6.13842">
        <ele>554.358951</ele>
        <time>2025-04-25T08:08:40.000Z</time>
      </trkpt>
      <trkpt lat="43.36064" lon="6.13845">
        <ele>554.327718</ele>
        <time>2025-04-25T08:08:41.000Z</time>
      </trkpt>
      <trkpt lat="43.36064" lon="6.13845">
        <ele>554.327718</ele>
        <time>2025-04-25T08:08:41.000Z</time>
      </trkpt>
      <trkpt lat="43.36065" lon="6.13849">
        <ele>554.296191</ele>
        <time>2025-04-25T08:08:41.000Z</time>
      </trkpt>
      <trkpt lat="43.36065" lon="6.13852">
        <ele>554.269285</ele>
        <time>2025-04-25T08:08:43.000Z</time>
      </trkpt>
      <trkpt lat="43.36065" lon="6.13855">
        <ele>554.245547</ele>
        <time>2025-04-25T08:08:44.000Z</time>
      </trkpt>
      <trkpt lat="43.36066" lon="6.13857">
        <ele>554.224313</ele>
        <time>2025-04-25T08:08:45.000Z</time>
      </trkpt>
      <trkpt lat="43.36066" lon="6.13857">
        <ele>554.224313</ele>
        <time>2025-04-25T08:08:45.000Z</time>
      </trkpt>
      <trkpt lat="43.36066" lon="6.1386">
        <ele>554.205012</ele>
        <time>2025-04-25T08:08:46.000Z</time>
      </trkpt>
      <trkpt lat="43.36066" lon="6.13863">
        <ele>554.178106</ele>
        <time>2025-04-25T08:08:47.000Z</time>
      </trkpt>
      <trkpt lat="43.36066" lon="6.13863">
        <ele>554.178106</ele>
        <time>2025-04-25T08:08:47.000Z</time>
      </trkpt>
      <trkpt lat="43.36065" lon="6.13866">
        <ele>554.154367</ele>
        <time>2025-04-25T08:08:48.000Z</time>
      </trkpt>
      <trkpt lat="43.36065" lon="6.13868">
        <ele>554.13587</ele>
        <time>2025-04-25T08:08:49.000Z</time>
      </trkpt>
      <trkpt lat="43.36065" lon="6.13868">
        <ele>554.13587</ele>
        <time>2025-04-25T08:08:49.000Z</time>
      </trkpt>
      <trkpt lat="43.36065" lon="6.13872">
        <ele>554.104505</ele>
        <time>2025-04-25T08:08:51.000Z</time>
      </trkpt>
      <trkpt lat="43.36065" lon="6.13872">
        <ele>554.104505</ele>
        <time>2025-04-25T08:08:51.000Z</time>
      </trkpt>
      <trkpt lat="43.36065" lon="6.13873">
        <ele>554.097267</ele>
        <time>2025-04-25T08:08:52.000Z</time>
      </trkpt>
      <trkpt lat="43.36065" lon="6.13873">
        <ele>554.097267</ele>
        <time>2025-04-25T08:08:52.000Z</time>
      </trkpt>
      <trkpt lat="43.36066" lon="6.13874">
        <ele>554.085914</ele>
        <time>2025-04-25T08:08:53.000Z</time>
      </trkpt>
      <trkpt lat="43.36066" lon="6.13876">
        <ele>554.068784</ele>
        <time>2025-04-25T08:08:54.000Z</time>
      </trkpt>
      <trkpt lat="43.36066" lon="6.13876">
        <ele>554.068784</ele>
        <time>2025-04-25T08:08:54.000Z</time>
      </trkpt>
      <trkpt lat="43.36069" lon="6.13882">
        <ele>554.013396</ele>
        <time>2025-04-25T08:08:56.000Z</time>
      </trkpt>
      <trkpt lat="43.36072" lon="6.13888">
        <ele>553.956149</ele>
        <time>2025-04-25T08:08:59.000Z</time>
      </trkpt>
      <trkpt lat="43.36072" lon="6.13888">
        <ele>553.956149</ele>
        <time>2025-04-25T08:08:59.000Z</time>
      </trkpt>
      <trkpt lat="43.36073" lon="6.1389">
        <ele>553.936836</ele>
        <time>2025-04-25T08:09:01.000Z</time>
      </trkpt>
      <trkpt lat="43.36073" lon="6.1389">
        <ele>553.936836</ele>
        <time>2025-04-25T08:09:01.000Z</time>
      </trkpt>
      <trkpt lat="43.36074" lon="6.13891">
        <ele>553.924323</ele>
        <time>2025-04-25T08:09:02.000Z</time>
      </trkpt>
      <trkpt lat="43.36075" lon="6.13893">
        <ele>553.903507</ele>
        <time>2025-04-25T08:09:03.000Z</time>
      </trkpt>
      <trkpt lat="43.36076" lon="6.13895">
        <ele>553.881389</ele>
        <time>2025-04-25T08:09:04.000Z</time>
      </trkpt>
      <trkpt lat="43.36076" lon="6.13895">
        <ele>553.881389</ele>
        <time>2025-04-25T08:09:04.000Z</time>
      </trkpt>
      <trkpt lat="43.36078" lon="6.13898">
        <ele>553.851441</ele>
        <time>2025-04-25T08:09:05.000Z</time>
      </trkpt>
      <trkpt lat="43.36079" lon="6.13901">
        <ele>553.82655</ele>
        <time>2025-04-25T08:09:06.000Z</time>
      </trkpt>
      <trkpt lat="43.36079" lon="6.13905">
        <ele>553.797044</ele>
        <time>2025-04-25T08:09:07.000Z</time>
      </trkpt>
      <trkpt lat="43.36079" lon="6.13905">
        <ele>553.797044</ele>
        <time>2025-04-25T08:09:07.000Z</time>
      </trkpt>
      <trkpt lat="43.3608" lon="6.13908">
        <ele>553.766769</ele>
        <time>2025-04-25T08:09:08.000Z</time>
      </trkpt>
      <trkpt lat="43.36081" lon="6.13912">
        <ele>553.733681</ele>
        <time>2025-04-25T08:09:09.000Z</time>
      </trkpt>
      <trkpt lat="43.36081" lon="6.13912">
        <ele>553.733681</ele>
        <time>2025-04-25T08:09:09.000Z</time>
      </trkpt>
      <trkpt lat="43.36081" lon="6.13915">
        <ele>553.711521</ele>
        <time>2025-04-25T08:09:10.000Z</time>
      </trkpt>
      <trkpt lat="43.36081" lon="6.13915">
        <ele>553.711521</ele>
        <time>2025-04-25T08:09:10.000Z</time>
      </trkpt>
      <trkpt lat="43.36082" lon="6.13918">
        <ele>553.632397</ele>
        <time>2025-04-25T08:09:11.000Z</time>
      </trkpt>
      <trkpt lat="43.36083" lon="6.1392">
        <ele>553.464678</ele>
        <time>2025-04-25T08:09:12.000Z</time>
      </trkpt>
      <trkpt lat="43.36083" lon="6.1392">
        <ele>553.464678</ele>
        <time>2025-04-25T08:09:12.000Z</time>
      </trkpt>
      <trkpt lat="43.36085" lon="6.13923">
        <ele>553.258663</ele>
        <time>2025-04-25T08:09:13.000Z</time>
      </trkpt>
      <trkpt lat="43.36085" lon="6.13923">
        <ele>553.258663</ele>
        <time>2025-04-25T08:09:13.000Z</time>
      </trkpt>
      <trkpt lat="43.36086" lon="6.13926">
        <ele>553.083011</ele>
        <time>2025-04-25T08:09:14.000Z</time>
      </trkpt>
      <trkpt lat="43.36086" lon="6.13926">
        <ele>553.083011</ele>
        <time>2025-04-25T08:09:14.000Z</time>
      </trkpt>
      <trkpt lat="43.36088" lon="6.13929">
        <ele>552.890148</ele>
        <time>2025-04-25T08:09:15.000Z</time>
      </trkpt>
      <trkpt lat="43.36088" lon="6.13929">
        <ele>552.890148</ele>
        <time>2025-04-25T08:09:15.000Z</time>
      </trkpt>
      <trkpt lat="43.36089" lon="6.13931">
        <ele>552.722429</ele>
        <time>2025-04-25T08:09:16.000Z</time>
      </trkpt>
      <trkpt lat="43.36089" lon="6.13931">
        <ele>552.722429</ele>
        <time>2025-04-25T08:09:16.000Z</time>
      </trkpt>
      <trkpt lat="43.3609" lon="6.13934">
        <ele>552.559401</ele>
        <time>2025-04-25T08:09:17.000Z</time>
      </trkpt>
      <trkpt lat="43.3609" lon="6.13934">
        <ele>552.559401</ele>
        <time>2025-04-25T08:09:17.000Z</time>
      </trkpt>
      <trkpt lat="43.36091" lon="6.13937">
        <ele>552.401404</ele>
        <time>2025-04-25T08:09:18.000Z</time>
      </trkpt>
      <trkpt lat="43.36091" lon="6.13937">
        <ele>552.401404</ele>
        <time>2025-04-25T08:09:18.000Z</time>
      </trkpt>
      <trkpt lat="43.36092" lon="6.13939">
        <ele>552.247661</ele>
        <time>2025-04-25T08:09:19.000Z</time>
      </trkpt>
      <trkpt lat="43.36092" lon="6.13939">
        <ele>552.247661</ele>
        <time>2025-04-25T08:09:19.000Z</time>
      </trkpt>
      <trkpt lat="43.36092" lon="6.13941">
        <ele>552.12868</ele>
        <time>2025-04-25T08:09:20.000Z</time>
      </trkpt>
      <trkpt lat="43.36092" lon="6.13941">
        <ele>552.12868</ele>
        <time>2025-04-25T08:09:20.000Z</time>
      </trkpt>
      <trkpt lat="43.36093" lon="6.13943">
        <ele>552.008396</ele>
        <time>2025-04-25T08:09:21.000Z</time>
      </trkpt>
      <trkpt lat="43.36093" lon="6.13943">
        <ele>552.008396</ele>
        <time>2025-04-25T08:09:21.000Z</time>
      </trkpt>
      <trkpt lat="43.36094" lon="6.13945">
        <ele>551.875097</ele>
        <time>2025-04-25T08:09:22.000Z</time>
      </trkpt>
      <trkpt lat="43.36094" lon="6.13945">
        <ele>551.875097</ele>
        <time>2025-04-25T08:09:22.000Z</time>
      </trkpt>
      <trkpt lat="43.36094" lon="6.13948">
        <ele>551.709816</ele>
        <time>2025-04-25T08:09:23.000Z</time>
      </trkpt>
      <trkpt lat="43.36094" lon="6.13948">
        <ele>551.709816</ele>
        <time>2025-04-25T08:09:23.000Z</time>
      </trkpt>
      <trkpt lat="43.36095" lon="6.13952">
        <ele>551.523533</ele>
        <time>2025-04-25T08:09:24.000Z</time>
      </trkpt>
      <trkpt lat="43.36095" lon="6.13952">
        <ele>551.523533</ele>
        <time>2025-04-25T08:09:24.000Z</time>
      </trkpt>
      <trkpt lat="43.36096" lon="6.13955">
        <ele>551.319539</ele>
        <time>2025-04-25T08:09:25.000Z</time>
      </trkpt>
      <trkpt lat="43.36096" lon="6.13955">
        <ele>551.319539</ele>
        <time>2025-04-25T08:09:25.000Z</time>
      </trkpt>
      <trkpt lat="43.36097" lon="6.13959">
        <ele>551.099948</ele>
        <time>2025-04-25T08:09:26.000Z</time>
      </trkpt>
      <trkpt lat="43.36097" lon="6.13959">
        <ele>551.099948</ele>
        <time>2025-04-25T08:09:26.000Z</time>
      </trkpt>
      <trkpt lat="43.36097" lon="6.13964">
        <ele>550.834416</ele>
        <time>2025-04-25T08:09:27.000Z</time>
      </trkpt>
      <trkpt lat="43.36097" lon="6.13964">
        <ele>550.834416</ele>
        <time>2025-04-25T08:09:27.000Z</time>
      </trkpt>
      <trkpt lat="43.36097" lon="6.13969">
        <ele>550.59598</ele>
        <time>2025-04-25T08:09:28.000Z</time>
      </trkpt>
      <trkpt lat="43.36097" lon="6.13969">
        <ele>550.59598</ele>
        <time>2025-04-25T08:09:28.000Z</time>
      </trkpt>
      <trkpt lat="43.36096" lon="6.13975">
        <ele>550.222695</ele>
        <time>2025-04-25T08:09:30.000Z</time>
      </trkpt>
      <trkpt lat="43.36096" lon="6.13975">
        <ele>550.222695</ele>
        <time>2025-04-25T08:09:30.000Z</time>
      </trkpt>
      <trkpt lat="43.36096" lon="6.13978">
        <ele>550.070963</ele>
        <time>2025-04-25T08:09:31.000Z</time>
      </trkpt>
      <trkpt lat="43.36096" lon="6.13981">
        <ele>549.913812</ele>
        <time>2025-04-25T08:09:32.000Z</time>
      </trkpt>
      <trkpt lat="43.36096" lon="6.13981">
        <ele>549.913812</ele>
        <time>2025-04-25T08:09:32.000Z</time>
      </trkpt>
      <trkpt lat="43.36096" lon="6.13984">
        <ele>549.751241</ele>
        <time>2025-04-25T08:09:33.000Z</time>
      </trkpt>
      <trkpt lat="43.36096" lon="6.13989">
        <ele>549.500191</ele>
        <time>2025-04-25T08:09:36.000Z</time>
      </trkpt>
      <trkpt lat="43.36096" lon="6.13989">
        <ele>549.500191</ele>
        <time>2025-04-25T08:09:36.000Z</time>
      </trkpt>
      <trkpt lat="43.36097" lon="6.13991">
        <ele>549.387785</ele>
        <time>2025-04-25T08:09:42.000Z</time>
      </trkpt>
      <trkpt lat="43.36097" lon="6.13991">
        <ele>549.387785</ele>
        <time>2025-04-25T08:09:43.000Z</time>
      </trkpt>
      <trkpt lat="43.36098" lon="6.14">
        <ele>548.893231</ele>
        <time>2025-04-25T08:09:43.000Z</time>
      </trkpt>
      <trkpt lat="43.36099" lon="6.14001">
        <ele>548.79242</ele>
        <time>2025-04-25T08:09:45.000Z</time>
      </trkpt>
      <trkpt lat="43.36099" lon="6.14001">
        <ele>548.79242</ele>
        <time>2025-04-25T08:09:46.000Z</time>
      </trkpt>
      <trkpt lat="43.361" lon="6.14006">
        <ele>548.529074</ele>
        <time>2025-04-25T08:09:47.000Z</time>
      </trkpt>
      <trkpt lat="43.361" lon="6.14007">
        <ele>548.432246</ele>
        <time>2025-04-25T08:09:48.000Z</time>
      </trkpt>
      <trkpt lat="43.361" lon="6.14007">
        <ele>548.432246</ele>
        <time>2025-04-25T08:09:48.000Z</time>
      </trkpt>
      <trkpt lat="43.361" lon="6.14009">
        <ele>548.308546</ele>
        <time>2025-04-25T08:09:49.000Z</time>
      </trkpt>
      <trkpt lat="43.361" lon="6.14009">
        <ele>548.308546</ele>
        <time>2025-04-25T08:09:49.000Z</time>
      </trkpt>
      <trkpt lat="43.361" lon="6.14012">
        <ele>548.151395</ele>
        <time>2025-04-25T08:09:50.000Z</time>
      </trkpt>
      <trkpt lat="43.361" lon="6.14012">
        <ele>548.151395</ele>
        <time>2025-04-25T08:09:50.000Z</time>
      </trkpt>
      <trkpt lat="43.36099" lon="6.14015">
        <ele>547.975443</ele>
        <time>2025-04-25T08:09:51.000Z</time>
      </trkpt>
      <trkpt lat="43.36099" lon="6.14015">
        <ele>547.975443</ele>
        <time>2025-04-25T08:09:51.000Z</time>
      </trkpt>
      <trkpt lat="43.36099" lon="6.14018">
        <ele>547.807454</ele>
        <time>2025-04-25T08:09:52.000Z</time>
      </trkpt>
      <trkpt lat="43.36099" lon="6.14018">
        <ele>547.807454</ele>
        <time>2025-04-25T08:09:52.000Z</time>
      </trkpt>
      <trkpt lat="43.361" lon="6.14022">
        <ele>547.610105</ele>
        <time>2025-04-25T08:09:53.000Z</time>
      </trkpt>
      <trkpt lat="43.361" lon="6.14022">
        <ele>547.610105</ele>
        <time>2025-04-25T08:09:53.000Z</time>
      </trkpt>
      <trkpt lat="43.36101" lon="6.14027">
        <ele>547.34527</ele>
        <time>2025-04-25T08:09:54.000Z</time>
      </trkpt>
      <trkpt lat="43.36101" lon="6.14027">
        <ele>547.34527</ele>
        <time>2025-04-25T08:09:54.000Z</time>
      </trkpt>
      <trkpt lat="43.36102" lon="6.14032">
        <ele>547.069342</ele>
        <time>2025-04-25T08:09:55.000Z</time>
      </trkpt>
      <trkpt lat="43.36102" lon="6.14032">
        <ele>547.069342</ele>
        <time>2025-04-25T08:09:55.000Z</time>
      </trkpt>
      <trkpt lat="43.36102" lon="6.14037">
        <ele>546.754757</ele>
        <time>2025-04-25T08:09:56.000Z</time>
      </trkpt>
      <trkpt lat="43.36102" lon="6.14037">
        <ele>546.754757</ele>
        <time>2025-04-25T08:09:56.000Z</time>
      </trkpt>
      <trkpt lat="43.36103" lon="6.14043">
        <ele>546.44549</ele>
        <time>2025-04-25T08:09:57.000Z</time>
      </trkpt>
      <trkpt lat="43.36103" lon="6.14043">
        <ele>546.44549</ele>
        <time>2025-04-25T08:09:57.000Z</time>
      </trkpt>
      <trkpt lat="43.36105" lon="6.14049">
        <ele>546.086253</ele>
        <time>2025-04-25T08:09:58.000Z</time>
      </trkpt>
      <trkpt lat="43.36105" lon="6.14049">
        <ele>546.086253</ele>
        <time>2025-04-25T08:09:58.000Z</time>
      </trkpt>
      <trkpt lat="43.36107" lon="6.14054">
        <ele>545.79956</ele>
        <time>2025-04-25T08:09:59.000Z</time>
      </trkpt>
      <trkpt lat="43.36107" lon="6.14054">
        <ele>545.79956</ele>
        <time>2025-04-25T08:09:59.000Z</time>
      </trkpt>
      <trkpt lat="43.3611" lon="6.14063">
        <ele>545.220895</ele>
        <time>2025-04-25T08:10:00.000Z</time>
      </trkpt>
      <trkpt lat="43.3611" lon="6.14063">
        <ele>545.220895</ele>
        <time>2025-04-25T08:10:00.000Z</time>
      </trkpt>
      <trkpt lat="43.36112" lon="6.1407">
        <ele>544.809559</ele>
        <time>2025-04-25T08:10:01.000Z</time>
      </trkpt>
      <trkpt lat="43.36112" lon="6.1407">
        <ele>544.809559</ele>
        <time>2025-04-25T08:10:01.000Z</time>
      </trkpt>
      <trkpt lat="43.36114" lon="6.14076">
        <ele>544.501359</ele>
        <time>2025-04-25T08:10:02.000Z</time>
      </trkpt>
      <trkpt lat="43.36114" lon="6.14076">
        <ele>544.501359</ele>
        <time>2025-04-25T08:10:02.000Z</time>
      </trkpt>
      <trkpt lat="43.36115" lon="6.1408">
        <ele>544.236525</ele>
        <time>2025-04-25T08:10:03.000Z</time>
      </trkpt>
      <trkpt lat="43.36115" lon="6.1408">
        <ele>544.236525</ele>
        <time>2025-04-25T08:10:03.000Z</time>
      </trkpt>
      <trkpt lat="43.36117" lon="6.14084">
        <ele>543.991053</ele>
        <time>2025-04-25T08:10:04.000Z</time>
      </trkpt>
      <trkpt lat="43.36117" lon="6.14084">
        <ele>543.991053</ele>
        <time>2025-04-25T08:10:04.000Z</time>
      </trkpt>
      <trkpt lat="43.36119" lon="6.14087">
        <ele>543.771336</ele>
        <time>2025-04-25T08:10:05.000Z</time>
      </trkpt>
      <trkpt lat="43.36119" lon="6.14087">
        <ele>543.771336</ele>
        <time>2025-04-25T08:10:05.000Z</time>
      </trkpt>
      <trkpt lat="43.36121" lon="6.1409">
        <ele>543.545957</ele>
        <time>2025-04-25T08:10:06.000Z</time>
      </trkpt>
      <trkpt lat="43.36121" lon="6.1409">
        <ele>543.545957</ele>
        <time>2025-04-25T08:10:06.000Z</time>
      </trkpt>
      <trkpt lat="43.36123" lon="6.14093">
        <ele>543.313396</ele>
        <time>2025-04-25T08:10:07.000Z</time>
      </trkpt>
      <trkpt lat="43.36123" lon="6.14093">
        <ele>543.313396</ele>
        <time>2025-04-25T08:10:07.000Z</time>
      </trkpt>
      <trkpt lat="43.36126" lon="6.14096">
        <ele>543.061733</ele>
        <time>2025-04-25T08:10:08.000Z</time>
      </trkpt>
      <trkpt lat="43.36126" lon="6.14096">
        <ele>543.061733</ele>
        <time>2025-04-25T08:10:08.000Z</time>
      </trkpt>
      <trkpt lat="43.36127" lon="6.14099">
        <ele>542.90338</ele>
        <time>2025-04-25T08:10:09.000Z</time>
      </trkpt>
      <trkpt lat="43.36127" lon="6.14099">
        <ele>542.90338</ele>
        <time>2025-04-25T08:10:09.000Z</time>
      </trkpt>
      <trkpt lat="43.36129" lon="6.14102">
        <ele>542.64898</ele>
        <time>2025-04-25T08:10:10.000Z</time>
      </trkpt>
      <trkpt lat="43.36129" lon="6.14102">
        <ele>542.64898</ele>
        <time>2025-04-25T08:10:10.000Z</time>
      </trkpt>
      <trkpt lat="43.3613" lon="6.14106">
        <ele>542.453864</ele>
        <time>2025-04-25T08:10:11.000Z</time>
      </trkpt>
      <trkpt lat="43.3613" lon="6.14106">
        <ele>542.453864</ele>
        <time>2025-04-25T08:10:11.000Z</time>
      </trkpt>
      <trkpt lat="43.36131" lon="6.14109">
        <ele>542.237247</ele>
        <time>2025-04-25T08:10:12.000Z</time>
      </trkpt>
      <trkpt lat="43.36131" lon="6.14109">
        <ele>542.237247</ele>
        <time>2025-04-25T08:10:12.000Z</time>
      </trkpt>
      <trkpt lat="43.36132" lon="6.14113">
        <ele>542.021734</ele>
        <time>2025-04-25T08:10:13.000Z</time>
      </trkpt>
      <trkpt lat="43.36132" lon="6.14113">
        <ele>542.021734</ele>
        <time>2025-04-25T08:10:13.000Z</time>
      </trkpt>
      <trkpt lat="43.36134" lon="6.14117">
        <ele>541.783773</ele>
        <time>2025-04-25T08:10:14.000Z</time>
      </trkpt>
      <trkpt lat="43.36134" lon="6.14117">
        <ele>541.783773</ele>
        <time>2025-04-25T08:10:14.000Z</time>
      </trkpt>
      <trkpt lat="43.36135" lon="6.14119">
        <ele>541.62076</ele>
        <time>2025-04-25T08:10:15.000Z</time>
      </trkpt>
      <trkpt lat="43.36135" lon="6.14119">
        <ele>541.62076</ele>
        <time>2025-04-25T08:10:15.000Z</time>
      </trkpt>
      <trkpt lat="43.36136" lon="6.14122">
        <ele>541.457748</ele>
        <time>2025-04-25T08:10:16.000Z</time>
      </trkpt>
      <trkpt lat="43.36136" lon="6.14122">
        <ele>541.457748</ele>
        <time>2025-04-25T08:10:16.000Z</time>
      </trkpt>
      <trkpt lat="43.36137" lon="6.14125">
        <ele>541.284589</ele>
        <time>2025-04-25T08:10:17.000Z</time>
      </trkpt>
      <trkpt lat="43.36137" lon="6.14125">
        <ele>541.284589</ele>
        <time>2025-04-25T08:10:17.000Z</time>
      </trkpt>
      <trkpt lat="43.36139" lon="6.14128">
        <ele>541.082798</ele>
        <time>2025-04-25T08:10:18.000Z</time>
      </trkpt>
      <trkpt lat="43.36139" lon="6.14128">
        <ele>541.082798</ele>
        <time>2025-04-25T08:10:18.000Z</time>
      </trkpt>
      <trkpt lat="43.3614" lon="6.14131">
        <ele>540.885521</ele>
        <time>2025-04-25T08:10:19.000Z</time>
      </trkpt>
      <trkpt lat="43.3614" lon="6.14131">
        <ele>540.885521</ele>
        <time>2025-04-25T08:10:19.000Z</time>
      </trkpt>
      <trkpt lat="43.36142" lon="6.14135">
        <ele>540.603529</ele>
        <time>2025-04-25T08:10:20.000Z</time>
      </trkpt>
      <trkpt lat="43.36142" lon="6.14135">
        <ele>540.603529</ele>
        <time>2025-04-25T08:10:20.000Z</time>
      </trkpt>
      <trkpt lat="43.36143" lon="6.14139">
        <ele>540.396902</ele>
        <time>2025-04-25T08:10:21.000Z</time>
      </trkpt>
      <trkpt lat="43.36143" lon="6.14139">
        <ele>540.396902</ele>
        <time>2025-04-25T08:10:21.000Z</time>
      </trkpt>
      <trkpt lat="43.36144" lon="6.14142">
        <ele>540.091234</ele>
        <time>2025-04-25T08:10:22.000Z</time>
      </trkpt>
      <trkpt lat="43.36144" lon="6.14142">
        <ele>540.091234</ele>
        <time>2025-04-25T08:10:22.000Z</time>
      </trkpt>
      <trkpt lat="43.36145" lon="6.14145">
        <ele>539.708536</ele>
        <time>2025-04-25T08:10:22.000Z</time>
      </trkpt>
      <trkpt lat="43.36147" lon="6.14147">
        <ele>539.397307</ele>
        <time>2025-04-25T08:10:23.000Z</time>
      </trkpt>
      <trkpt lat="43.36147" lon="6.14147">
        <ele>539.397307</ele>
        <time>2025-04-25T08:10:23.000Z</time>
      </trkpt>
      <trkpt lat="43.36148" lon="6.14149">
        <ele>539.094673</ele>
        <time>2025-04-25T08:10:25.000Z</time>
      </trkpt>
      <trkpt lat="43.36148" lon="6.14149">
        <ele>539.094673</ele>
        <time>2025-04-25T08:10:25.000Z</time>
      </trkpt>
      <trkpt lat="43.36149" lon="6.14151">
        <ele>538.740678</ele>
        <time>2025-04-25T08:10:26.000Z</time>
      </trkpt>
      <trkpt lat="43.36149" lon="6.14151">
        <ele>538.740678</ele>
        <time>2025-04-25T08:10:26.000Z</time>
      </trkpt>
      <trkpt lat="43.3615" lon="6.14153">
        <ele>538.447016</ele>
        <time>2025-04-25T08:10:27.000Z</time>
      </trkpt>
      <trkpt lat="43.36152" lon="6.14156">
        <ele>538.009204</ele>
        <time>2025-04-25T08:10:28.000Z</time>
      </trkpt>
      <trkpt lat="43.36152" lon="6.14156">
        <ele>538.009204</ele>
        <time>2025-04-25T08:10:28.000Z</time>
      </trkpt>
      <trkpt lat="43.36154" lon="6.14158">
        <ele>537.574326</ele>
        <time>2025-04-25T08:10:29.000Z</time>
      </trkpt>
      <trkpt lat="43.36154" lon="6.14158">
        <ele>537.574326</ele>
        <time>2025-04-25T08:10:29.000Z</time>
      </trkpt>
      <trkpt lat="43.36156" lon="6.14161">
        <ele>537.113774</ele>
        <time>2025-04-25T08:10:30.000Z</time>
      </trkpt>
      <trkpt lat="43.36156" lon="6.14161">
        <ele>537.113774</ele>
        <time>2025-04-25T08:10:30.000Z</time>
      </trkpt>
      <trkpt lat="43.36157" lon="6.14163">
        <ele>536.768255</ele>
        <time>2025-04-25T08:10:31.000Z</time>
      </trkpt>
      <trkpt lat="43.3616" lon="6.14165">
        <ele>536.304912</ele>
        <time>2025-04-25T08:10:32.000Z</time>
      </trkpt>
      <trkpt lat="43.3616" lon="6.14165">
        <ele>536.304912</ele>
        <time>2025-04-25T08:10:32.000Z</time>
      </trkpt>
      <trkpt lat="43.36161" lon="6.14167">
        <ele>536.0051</ele>
        <time>2025-04-25T08:10:33.000Z</time>
      </trkpt>
      <trkpt lat="43.36161" lon="6.14167">
        <ele>536.0051</ele>
        <time>2025-04-25T08:10:33.000Z</time>
      </trkpt>
      <trkpt lat="43.36163" lon="6.14169">
        <ele>535.541757</ele>
        <time>2025-04-25T08:10:34.000Z</time>
      </trkpt>
      <trkpt lat="43.36163" lon="6.14169">
        <ele>535.541757</ele>
        <time>2025-04-25T08:10:34.000Z</time>
      </trkpt>
      <trkpt lat="43.36165" lon="6.14171">
        <ele>535.098483</ele>
        <time>2025-04-25T08:10:35.000Z</time>
      </trkpt>
      <trkpt lat="43.36165" lon="6.14171">
        <ele>535.098483</ele>
        <time>2025-04-25T08:10:35.000Z</time>
      </trkpt>
      <trkpt lat="43.36167" lon="6.14175">
        <ele>534.573247</ele>
        <time>2025-04-25T08:10:36.000Z</time>
      </trkpt>
      <trkpt lat="43.36167" lon="6.14175">
        <ele>534.573247</ele>
        <time>2025-04-25T08:10:36.000Z</time>
      </trkpt>
      <trkpt lat="43.36167" lon="6.14175">
        <ele>534.573247</ele>
        <time>2025-04-25T08:10:37.000Z</time>
      </trkpt>
      <trkpt lat="43.3617" lon="6.14184">
        <ele>533.391401</ele>
        <time>2025-04-25T08:10:38.000Z</time>
      </trkpt>
      <trkpt lat="43.3617" lon="6.14184">
        <ele>533.391401</ele>
        <time>2025-04-25T08:10:38.000Z</time>
      </trkpt>
      <trkpt lat="43.36171" lon="6.14185">
        <ele>533.146021</ele>
        <time>2025-04-25T08:10:39.000Z</time>
      </trkpt>
      <trkpt lat="43.36173" lon="6.14187">
        <ele>532.757503</ele>
        <time>2025-04-25T08:10:40.000Z</time>
      </trkpt>
      <trkpt lat="43.36173" lon="6.14187">
        <ele>532.757503</ele>
        <time>2025-04-25T08:10:40.000Z</time>
      </trkpt>
      <trkpt lat="43.36174" lon="6.14189">
        <ele>532.42827</ele>
        <time>2025-04-25T08:10:41.000Z</time>
      </trkpt>
      <trkpt lat="43.36176" lon="6.14191">
        <ele>532.02514</ele>
        <time>2025-04-25T08:10:41.000Z</time>
      </trkpt>
      <trkpt lat="43.36176" lon="6.14191">
        <ele>532.02514</ele>
        <time>2025-04-25T08:10:41.000Z</time>
      </trkpt>
      <trkpt lat="43.36178" lon="6.14193">
        <ele>531.606527</ele>
        <time>2025-04-25T08:10:43.000Z</time>
      </trkpt>
      <trkpt lat="43.3618" lon="6.14194">
        <ele>531.344549</ele>
        <time>2025-04-25T08:10:44.000Z</time>
      </trkpt>
      <trkpt lat="43.3618" lon="6.14194">
        <ele>531.344549</ele>
        <time>2025-04-25T08:10:44.000Z</time>
      </trkpt>
      <trkpt lat="43.36181" lon="6.14194">
        <ele>531.075586</ele>
        <time>2025-04-25T08:10:45.000Z</time>
      </trkpt>
      <trkpt lat="43.36181" lon="6.14194">
        <ele>531.075586</ele>
        <time>2025-04-25T08:10:45.000Z</time>
      </trkpt>
      <trkpt lat="43.36182" lon="6.14194">
        <ele>530.893258</ele>
        <time>2025-04-25T08:10:46.000Z</time>
      </trkpt>
      <trkpt lat="43.36182" lon="6.14193">
        <ele>530.797062</ele>
        <time>2025-04-25T08:10:47.000Z</time>
      </trkpt>
      <trkpt lat="43.36182" lon="6.14192">
        <ele>530.652768</ele>
        <time>2025-04-25T08:10:47.000Z</time>
      </trkpt>
      <trkpt lat="43.36182" lon="6.14192">
        <ele>530.652768</ele>
        <time>2025-04-25T08:10:47.000Z</time>
      </trkpt>
      <trkpt lat="43.36182" lon="6.1419">
        <ele>530.400253</ele>
        <time>2025-04-25T08:10:49.000Z</time>
      </trkpt>
      <trkpt lat="43.36182" lon="6.1419">
        <ele>530.400253</ele>
        <time>2025-04-25T08:10:49.000Z</time>
      </trkpt>
      <trkpt lat="43.36183" lon="6.14187">
        <ele>530.045322</ele>
        <time>2025-04-25T08:10:50.000Z</time>
      </trkpt>
      <trkpt lat="43.36183" lon="6.14187">
        <ele>530.045322</ele>
        <time>2025-04-25T08:10:50.000Z</time>
      </trkpt>
      <trkpt lat="43.36183" lon="6.14184">
        <ele>529.672562</ele>
        <time>2025-04-25T08:10:51.000Z</time>
      </trkpt>
      <trkpt lat="43.36183" lon="6.14184">
        <ele>529.672562</ele>
        <time>2025-04-25T08:10:51.000Z</time>
      </trkpt>
      <trkpt lat="43.36183" lon="6.14181">
        <ele>529.25841</ele>
        <time>2025-04-25T08:10:52.000Z</time>
      </trkpt>
      <trkpt lat="43.36183" lon="6.14181">
        <ele>529.25841</ele>
        <time>2025-04-25T08:10:52.000Z</time>
      </trkpt>
      <trkpt lat="43.36184" lon="6.14176">
        <ele>528.72701</ele>
        <time>2025-04-25T08:10:53.000Z</time>
      </trkpt>
      <trkpt lat="43.36184" lon="6.14176">
        <ele>528.72701</ele>
        <time>2025-04-25T08:10:53.000Z</time>
      </trkpt>
      <trkpt lat="43.36184" lon="6.14172">
        <ele>528.146576</ele>
        <time>2025-04-25T08:10:54.000Z</time>
      </trkpt>
      <trkpt lat="43.36184" lon="6.14172">
        <ele>528.146576</ele>
        <time>2025-04-25T08:10:54.000Z</time>
      </trkpt>
      <trkpt lat="43.36186" lon="6.14169">
        <ele>527.747465</ele>
        <time>2025-04-25T08:10:55.000Z</time>
      </trkpt>
      <trkpt lat="43.36186" lon="6.14169">
        <ele>527.747465</ele>
        <time>2025-04-25T08:10:55.000Z</time>
      </trkpt>
      <trkpt lat="43.36188" lon="6.14167">
        <ele>527.290881</ele>
        <time>2025-04-25T08:10:56.000Z</time>
      </trkpt>
      <trkpt lat="43.36188" lon="6.14167">
        <ele>527.290881</ele>
        <time>2025-04-25T08:10:56.000Z</time>
      </trkpt>
      <trkpt lat="43.3619" lon="6.14164">
        <ele>526.798492</ele>
        <time>2025-04-25T08:10:57.000Z</time>
      </trkpt>
      <trkpt lat="43.3619" lon="6.14164">
        <ele>526.798492</ele>
        <time>2025-04-25T08:10:57.000Z</time>
      </trkpt>
      <trkpt lat="43.36192" lon="6.14162">
        <ele>526.426962</ele>
        <time>2025-04-25T08:10:58.000Z</time>
      </trkpt>
      <trkpt lat="43.36192" lon="6.14162">
        <ele>526.426962</ele>
        <time>2025-04-25T08:10:58.000Z</time>
      </trkpt>
      <trkpt lat="43.36193" lon="6.14159">
        <ele>526.004659</ele>
        <time>2025-04-25T08:10:58.000Z</time>
      </trkpt>
      <trkpt lat="43.36193" lon="6.14159">
        <ele>526.004659</ele>
        <time>2025-04-25T08:10:58.000Z</time>
      </trkpt>
      <trkpt lat="43.36194" lon="6.14156">
        <ele>525.602373</ele>
        <time>2025-04-25T08:11:00.000Z</time>
      </trkpt>
      <trkpt lat="43.36194" lon="6.14156">
        <ele>525.602373</ele>
        <time>2025-04-25T08:11:00.000Z</time>
      </trkpt>
      <trkpt lat="43.36194" lon="6.14153">
        <ele>525.229614</ele>
        <time>2025-04-25T08:11:01.000Z</time>
      </trkpt>
      <trkpt lat="43.36194" lon="6.14153">
        <ele>525.229614</ele>
        <time>2025-04-25T08:11:01.000Z</time>
      </trkpt>
      <trkpt lat="43.36193" lon="6.14149">
        <ele>524.803589</ele>
        <time>2025-04-25T08:11:02.000Z</time>
      </trkpt>
      <trkpt lat="43.36193" lon="6.14149">
        <ele>524.803589</ele>
        <time>2025-04-25T08:11:02.000Z</time>
      </trkpt>
      <trkpt lat="43.36194" lon="6.14145">
        <ele>524.28232</ele>
        <time>2025-04-25T08:11:03.000Z</time>
      </trkpt>
      <trkpt lat="43.36194" lon="6.14145">
        <ele>524.28232</ele>
        <time>2025-04-25T08:11:03.000Z</time>
      </trkpt>
      <trkpt lat="43.36194" lon="6.14141">
        <ele>523.789316</ele>
        <time>2025-04-25T08:11:04.000Z</time>
      </trkpt>
      <trkpt lat="43.36194" lon="6.14141">
        <ele>523.789316</ele>
        <time>2025-04-25T08:11:04.000Z</time>
      </trkpt>
      <trkpt lat="43.36194" lon="6.14135">
        <ele>523.162076</ele>
        <time>2025-04-25T08:11:05.000Z</time>
      </trkpt>
      <trkpt lat="43.36194" lon="6.14135">
        <ele>523.162076</ele>
        <time>2025-04-25T08:11:05.000Z</time>
      </trkpt>
      <trkpt lat="43.36195" lon="6.14131">
        <ele>522.569929</ele>
        <time>2025-04-25T08:11:06.000Z</time>
      </trkpt>
      <trkpt lat="43.36195" lon="6.14131">
        <ele>522.569929</ele>
        <time>2025-04-25T08:11:06.000Z</time>
      </trkpt>
      <trkpt lat="43.36195" lon="6.14128">
        <ele>522.174383</ele>
        <time>2025-04-25T08:11:07.000Z</time>
      </trkpt>
      <trkpt lat="43.36195" lon="6.14128">
        <ele>522.174383</ele>
        <time>2025-04-25T08:11:07.000Z</time>
      </trkpt>
      <trkpt lat="43.36195" lon="6.14125">
        <ele>521.837698</ele>
        <time>2025-04-25T08:11:08.000Z</time>
      </trkpt>
      <trkpt lat="43.36195" lon="6.14125">
        <ele>521.837698</ele>
        <time>2025-04-25T08:11:08.000Z</time>
      </trkpt>
      <trkpt lat="43.36195" lon="6.14122">
        <ele>521.506364</ele>
        <time>2025-04-25T08:11:09.000Z</time>
      </trkpt>
      <trkpt lat="43.36195" lon="6.14122">
        <ele>521.506364</ele>
        <time>2025-04-25T08:11:09.000Z</time>
      </trkpt>
      <trkpt lat="43.36194" lon="6.1412">
        <ele>521.212703</ele>
        <time>2025-04-25T08:11:10.000Z</time>
      </trkpt>
      <trkpt lat="43.36194" lon="6.1412">
        <ele>521.212703</ele>
        <time>2025-04-25T08:11:10.000Z</time>
      </trkpt>
      <trkpt lat="43.36192" lon="6.14118">
        <ele>520.740725</ele>
        <time>2025-04-25T08:11:11.000Z</time>
      </trkpt>
      <trkpt lat="43.36192" lon="6.14118">
        <ele>520.740725</ele>
        <time>2025-04-25T08:11:11.000Z</time>
      </trkpt>
      <trkpt lat="43.36192" lon="6.14118">
        <ele>520.740725</ele>
        <time>2025-04-25T08:11:12.000Z</time>
      </trkpt>
      <trkpt lat="43.36189" lon="6.14111">
        <ele>519.798493</ele>
        <time>2025-04-25T08:11:13.000Z</time>
      </trkpt>
      <trkpt lat="43.36189" lon="6.14111">
        <ele>519.798493</ele>
        <time>2025-04-25T08:11:13.000Z</time>
      </trkpt>
      <trkpt lat="43.36189" lon="6.14109">
        <ele>519.594077</ele>
        <time>2025-04-25T08:11:13.000Z</time>
      </trkpt>
      <trkpt lat="43.36189" lon="6.14107">
        <ele>519.356225</ele>
        <time>2025-04-25T08:11:15.000Z</time>
      </trkpt>
      <trkpt lat="43.36188" lon="6.14105">
        <ele>519.036665</ele>
        <time>2025-04-25T08:11:16.000Z</time>
      </trkpt>
      <trkpt lat="43.36188" lon="6.14101">
        <ele>518.574969</ele>
        <time>2025-04-25T08:11:17.000Z</time>
      </trkpt>
      <trkpt lat="43.36188" lon="6.14101">
        <ele>518.574969</ele>
        <time>2025-04-25T08:11:17.000Z</time>
      </trkpt>
      <trkpt lat="43.36188" lon="6.14097">
        <ele>518.081965</ele>
        <time>2025-04-25T08:11:18.000Z</time>
      </trkpt>
      <trkpt lat="43.36188" lon="6.14097">
        <ele>518.081965</ele>
        <time>2025-04-25T08:11:18.000Z</time>
      </trkpt>
      <trkpt lat="43.36187" lon="6.14092">
        <ele>517.454725</ele>
        <time>2025-04-25T08:11:19.000Z</time>
      </trkpt>
      <trkpt lat="43.36187" lon="6.14092">
        <ele>517.454725</ele>
        <time>2025-04-25T08:11:19.000Z</time>
      </trkpt>
      <trkpt lat="43.36187" lon="6.14087">
        <ele>516.945381</ele>
        <time>2025-04-25T08:11:20.000Z</time>
      </trkpt>
      <trkpt lat="43.36187" lon="6.14087">
        <ele>516.945381</ele>
        <time>2025-04-25T08:11:20.000Z</time>
      </trkpt>
      <trkpt lat="43.36187" lon="6.14083">
        <ele>516.471781</ele>
        <time>2025-04-25T08:11:21.000Z</time>
      </trkpt>
      <trkpt lat="43.36187" lon="6.14083">
        <ele>516.471781</ele>
        <time>2025-04-25T08:11:21.000Z</time>
      </trkpt>
      <trkpt lat="43.36187" lon="6.1408">
        <ele>516.062948</ele>
        <time>2025-04-25T08:11:22.000Z</time>
      </trkpt>
      <trkpt lat="43.36187" lon="6.1408">
        <ele>516.062948</ele>
        <time>2025-04-25T08:11:22.000Z</time>
      </trkpt>
      <trkpt lat="43.36186" lon="6.14075">
        <ele>515.505878</ele>
        <time>2025-04-25T08:11:23.000Z</time>
      </trkpt>
      <trkpt lat="43.36186" lon="6.14075">
        <ele>515.505878</ele>
        <time>2025-04-25T08:11:23.000Z</time>
      </trkpt>
      <trkpt lat="43.36187" lon="6.1407">
        <ele>514.88907</ele>
        <time>2025-04-25T08:11:24.000Z</time>
      </trkpt>
      <trkpt lat="43.36187" lon="6.1407">
        <ele>514.88907</ele>
        <time>2025-04-25T08:11:24.000Z</time>
      </trkpt>
      <trkpt lat="43.36188" lon="6.14065">
        <ele>514.205186</ele>
        <time>2025-04-25T08:11:25.000Z</time>
      </trkpt>
      <trkpt lat="43.36188" lon="6.14065">
        <ele>514.205186</ele>
        <time>2025-04-25T08:11:25.000Z</time>
      </trkpt>
      <trkpt lat="43.3619" lon="6.14061">
        <ele>513.54375</ele>
        <time>2025-04-25T08:11:26.000Z</time>
      </trkpt>
      <trkpt lat="43.3619" lon="6.14061">
        <ele>513.54375</ele>
        <time>2025-04-25T08:11:26.000Z</time>
      </trkpt>
      <trkpt lat="43.36193" lon="6.14055">
        <ele>512.775388</ele>
        <time>2025-04-25T08:11:27.000Z</time>
      </trkpt>
      <trkpt lat="43.36193" lon="6.14055">
        <ele>512.775388</ele>
        <time>2025-04-25T08:11:27.000Z</time>
      </trkpt>
      <trkpt lat="43.36195" lon="6.1405">
        <ele>512.053737</ele>
        <time>2025-04-25T08:11:28.000Z</time>
      </trkpt>
      <trkpt lat="43.36195" lon="6.1405">
        <ele>512.053737</ele>
        <time>2025-04-25T08:11:28.000Z</time>
      </trkpt>
      <trkpt lat="43.36198" lon="6.14046">
        <ele>511.362573</ele>
        <time>2025-04-25T08:11:29.000Z</time>
      </trkpt>
      <trkpt lat="43.36198" lon="6.14046">
        <ele>511.362573</ele>
        <time>2025-04-25T08:11:29.000Z</time>
      </trkpt>
      <trkpt lat="43.36201" lon="6.14042">
        <ele>510.723668</ele>
        <time>2025-04-25T08:11:30.000Z</time>
      </trkpt>
      <trkpt lat="43.36201" lon="6.14042">
        <ele>510.723668</ele>
        <time>2025-04-25T08:11:30.000Z</time>
      </trkpt>
      <trkpt lat="43.36205" lon="6.14038">
        <ele>509.538183</ele>
        <time>2025-04-25T08:11:31.000Z</time>
      </trkpt>
      <trkpt lat="43.36205" lon="6.14038">
        <ele>509.538183</ele>
        <time>2025-04-25T08:11:31.000Z</time>
      </trkpt>
      <trkpt lat="43.36209" lon="6.14034">
        <ele>508.338834</ele>
        <time>2025-04-25T08:11:32.000Z</time>
      </trkpt>
      <trkpt lat="43.36209" lon="6.14034">
        <ele>508.338834</ele>
        <time>2025-04-25T08:11:32.000Z</time>
      </trkpt>
      <trkpt lat="43.36214" lon="6.14031">
        <ele>507.105043</ele>
        <time>2025-04-25T08:11:33.000Z</time>
      </trkpt>
      <trkpt lat="43.36214" lon="6.14031">
        <ele>507.105043</ele>
        <time>2025-04-25T08:11:33.000Z</time>
      </trkpt>
      <trkpt lat="43.36217" lon="6.14029">
        <ele>506.297084</ele>
        <time>2025-04-25T08:11:34.000Z</time>
      </trkpt>
      <trkpt lat="43.36217" lon="6.14029">
        <ele>506.297084</ele>
        <time>2025-04-25T08:11:34.000Z</time>
      </trkpt>
      <trkpt lat="43.3622" lon="6.14027">
        <ele>505.378561</ele>
        <time>2025-04-25T08:11:35.000Z</time>
      </trkpt>
      <trkpt lat="43.3622" lon="6.14027">
        <ele>505.378561</ele>
        <time>2025-04-25T08:11:35.000Z</time>
      </trkpt>
      <trkpt lat="43.36223" lon="6.14026">
        <ele>504.761665</ele>
        <time>2025-04-25T08:11:36.000Z</time>
      </trkpt>
      <trkpt lat="43.36223" lon="6.14026">
        <ele>504.761665</ele>
        <time>2025-04-25T08:11:36.000Z</time>
      </trkpt>
      <trkpt lat="43.36224" lon="6.14024">
        <ele>504.247369</ele>
        <time>2025-04-25T08:11:37.000Z</time>
      </trkpt>
      <trkpt lat="43.36227" lon="6.14023">
        <ele>503.622722</ele>
        <time>2025-04-25T08:11:38.000Z</time>
      </trkpt>
      <trkpt lat="43.36227" lon="6.14021">
        <ele>503.337684</ele>
        <time>2025-04-25T08:11:39.000Z</time>
      </trkpt>
      <trkpt lat="43.36229" lon="6.14018">
        <ele>502.696152</ele>
        <time>2025-04-25T08:11:40.000Z</time>
      </trkpt>
      <trkpt lat="43.36231" lon="6.14015">
        <ele>501.954453</ele>
        <time>2025-04-25T08:11:41.000Z</time>
      </trkpt>
      <trkpt lat="43.36231" lon="6.14015">
        <ele>501.954453</ele>
        <time>2025-04-25T08:11:41.000Z</time>
      </trkpt>
      <trkpt lat="43.36232" lon="6.14011">
        <ele>501.211009</ele>
        <time>2025-04-25T08:11:42.000Z</time>
      </trkpt>
      <trkpt lat="43.36232" lon="6.14011">
        <ele>501.211009</ele>
        <time>2025-04-25T08:11:42.000Z</time>
      </trkpt>
      <trkpt lat="43.36234" lon="6.14009">
        <ele>500.598188</ele>
        <time>2025-04-25T08:11:43.000Z</time>
      </trkpt>
      <trkpt lat="43.36234" lon="6.14009">
        <ele>500.598188</ele>
        <time>2025-04-25T08:11:43.000Z</time>
      </trkpt>
      <trkpt lat="43.36235" lon="6.14006">
        <ele>500.098297</ele>
        <time>2025-04-25T08:11:44.000Z</time>
      </trkpt>
      <trkpt lat="43.36235" lon="6.14006">
        <ele>500.098297</ele>
        <time>2025-04-25T08:11:44.000Z</time>
      </trkpt>
      <trkpt lat="43.36236" lon="6.14005">
        <ele>499.693261</ele>
        <time>2025-04-25T08:11:45.000Z</time>
      </trkpt>
      <trkpt lat="43.36237" lon="6.14004">
        <ele>499.391701</ele>
        <time>2025-04-25T08:11:46.000Z</time>
      </trkpt>
      <trkpt lat="43.36239" lon="6.14004">
        <ele>499.00035</ele>
        <time>2025-04-25T08:11:47.000Z</time>
      </trkpt>
      <trkpt lat="43.36241" lon="6.14005">
        <ele>498.412876</ele>
        <time>2025-04-25T08:11:48.000Z</time>
      </trkpt>
      <trkpt lat="43.36248" lon="6.1401">
        <ele>496.480134</ele>
        <time>2025-04-25T08:11:50.000Z</time>
      </trkpt>
      <trkpt lat="43.36248" lon="6.1401">
        <ele>496.480134</ele>
        <time>2025-04-25T08:11:50.000Z</time>
      </trkpt>
      <trkpt lat="43.36251" lon="6.1401">
        <ele>495.824833</ele>
        <time>2025-04-25T08:11:51.000Z</time>
      </trkpt>
      <trkpt lat="43.36251" lon="6.1401">
        <ele>495.824833</ele>
        <time>2025-04-25T08:11:51.000Z</time>
      </trkpt>
      <trkpt lat="43.36254" lon="6.14011">
        <ele>494.988863</ele>
        <time>2025-04-25T08:11:52.000Z</time>
      </trkpt>
      <trkpt lat="43.36254" lon="6.14011">
        <ele>494.988863</ele>
        <time>2025-04-25T08:11:52.000Z</time>
      </trkpt>
      <trkpt lat="43.36258" lon="6.14013">
        <ele>494.014841</ele>
        <time>2025-04-25T08:11:53.000Z</time>
      </trkpt>
      <trkpt lat="43.36258" lon="6.14013">
        <ele>494.014841</ele>
        <time>2025-04-25T08:11:53.000Z</time>
      </trkpt>
      <trkpt lat="43.36262" lon="6.14015">
        <ele>492.94332</ele>
        <time>2025-04-25T08:11:54.000Z</time>
      </trkpt>
      <trkpt lat="43.36262" lon="6.14015">
        <ele>492.94332</ele>
        <time>2025-04-25T08:11:54.000Z</time>
      </trkpt>
      <trkpt lat="43.36267" lon="6.14017">
        <ele>491.784261</ele>
        <time>2025-04-25T08:11:55.000Z</time>
      </trkpt>
      <trkpt lat="43.36267" lon="6.14017">
        <ele>491.784261</ele>
        <time>2025-04-25T08:11:55.000Z</time>
      </trkpt>
      <trkpt lat="43.36271" lon="6.14018">
        <ele>490.736915</ele>
        <time>2025-04-25T08:11:56.000Z</time>
      </trkpt>
      <trkpt lat="43.36271" lon="6.14018">
        <ele>490.736915</ele>
        <time>2025-04-25T08:11:56.000Z</time>
      </trkpt>
      <trkpt lat="43.36271" lon="6.14018">
        <ele>490.736915</ele>
        <time>2025-04-25T08:11:57.000Z</time>
      </trkpt>
      <trkpt lat="43.36279" lon="6.14018">
        <ele>488.893685</ele>
        <time>2025-04-25T08:11:58.000Z</time>
      </trkpt>
      <trkpt lat="43.36279" lon="6.14018">
        <ele>488.893685</ele>
        <time>2025-04-25T08:11:58.000Z</time>
      </trkpt>
      <trkpt lat="43.36279" lon="6.14018">
        <ele>488.893685</ele>
        <time>2025-04-25T08:11:59.000Z</time>
      </trkpt>
      <trkpt lat="43.36279" lon="6.14018">
        <ele>488.893685</ele>
        <time>2025-04-25T08:12:00.000Z</time>
      </trkpt>
      <trkpt lat="43.36284" lon="6.14018">
        <ele>487.584504</ele>
        <time>2025-04-25T08:12:09.000Z</time>
      </trkpt>
      <trkpt lat="43.36284" lon="6.14018">
        <ele>487.584504</ele>
        <time>2025-04-25T08:12:09.000Z</time>
      </trkpt>
      <trkpt lat="43.36284" lon="6.14015">
        <ele>487.038298</ele>
        <time>2025-04-25T08:12:10.000Z</time>
      </trkpt>
      <trkpt lat="43.36284" lon="6.14015">
        <ele>487.038298</ele>
        <time>2025-04-25T08:12:10.000Z</time>
      </trkpt>
      <trkpt lat="43.36284" lon="6.14016">
        <ele>486.881424</ele>
        <time>2025-04-25T08:12:12.000Z</time>
      </trkpt>
      <trkpt lat="43.36286" lon="6.14017">
        <ele>486.359044</ele>
        <time>2025-04-25T08:12:12.000Z</time>
      </trkpt>
      <trkpt lat="43.36286" lon="6.14017">
        <ele>486.359044</ele>
        <time>2025-04-25T08:12:12.000Z</time>
      </trkpt>
      <trkpt lat="43.36289" lon="6.14019">
        <ele>485.619243</ele>
        <time>2025-04-25T08:12:14.000Z</time>
      </trkpt>
      <trkpt lat="43.36289" lon="6.14019">
        <ele>485.619243</ele>
        <time>2025-04-25T08:12:14.000Z</time>
      </trkpt>
      <trkpt lat="43.36292" lon="6.14022">
        <ele>484.655207</ele>
        <time>2025-04-25T08:12:14.000Z</time>
      </trkpt>
      <trkpt lat="43.36292" lon="6.14022">
        <ele>484.655207</ele>
        <time>2025-04-25T08:12:14.000Z</time>
      </trkpt>
      <trkpt lat="43.36297" lon="6.14025">
        <ele>483.47231</ele>
        <time>2025-04-25T08:12:15.000Z</time>
      </trkpt>
      <trkpt lat="43.36297" lon="6.14025">
        <ele>483.47231</ele>
        <time>2025-04-25T08:12:15.000Z</time>
      </trkpt>
      <trkpt lat="43.36301" lon="6.14027">
        <ele>482.450735</ele>
        <time>2025-04-25T08:12:17.000Z</time>
      </trkpt>
      <trkpt lat="43.36301" lon="6.14027">
        <ele>482.450735</ele>
        <time>2025-04-25T08:12:17.000Z</time>
      </trkpt>
      <trkpt lat="43.36301" lon="6.14027">
        <ele>482.450735</ele>
        <time>2025-04-25T08:12:17.000Z</time>
      </trkpt>
      <trkpt lat="43.36301" lon="6.14027">
        <ele>482.450735</ele>
        <time>2025-04-25T08:12:19.000Z</time>
      </trkpt>
      <trkpt lat="43.36307" lon="6.1403">
        <ele>480.868513</ele>
        <time>2025-04-25T08:12:24.000Z</time>
      </trkpt>
      <trkpt lat="43.36307" lon="6.1403">
        <ele>480.868513</ele>
        <time>2025-04-25T08:12:24.000Z</time>
      </trkpt>
      <trkpt lat="43.36307" lon="6.14033">
        <ele>480.392787</ele>
        <time>2025-04-25T08:12:26.000Z</time>
      </trkpt>
      <trkpt lat="43.36307" lon="6.14033">
        <ele>480.392787</ele>
        <time>2025-04-25T08:12:26.000Z</time>
      </trkpt>
      <trkpt lat="43.36306" lon="6.14032">
        <ele>480.235913</ele>
        <time>2025-04-25T08:12:27.000Z</time>
      </trkpt>
      <trkpt lat="43.36306" lon="6.1403">
        <ele>479.921085</ele>
        <time>2025-04-25T08:12:28.000Z</time>
      </trkpt>
      <trkpt lat="43.36306" lon="6.1403">
        <ele>479.921085</ele>
        <time>2025-04-25T08:12:28.000Z</time>
      </trkpt>
      <trkpt lat="43.36305" lon="6.14028">
        <ele>479.391056</ele>
        <time>2025-04-25T08:12:29.000Z</time>
      </trkpt>
      <trkpt lat="43.36305" lon="6.14028">
        <ele>479.391056</ele>
        <time>2025-04-25T08:12:29.000Z</time>
      </trkpt>
      <trkpt lat="43.36303" lon="6.14024">
        <ele>478.662593</ele>
        <time>2025-04-25T08:12:30.000Z</time>
      </trkpt>
      <trkpt lat="43.36303" lon="6.14024">
        <ele>478.662593</ele>
        <time>2025-04-25T08:12:30.000Z</time>
      </trkpt>
      <trkpt lat="43.36302" lon="6.14021">
        <ele>478.117263</ele>
        <time>2025-04-25T08:12:31.000Z</time>
      </trkpt>
      <trkpt lat="43.36302" lon="6.14021">
        <ele>478.117263</ele>
        <time>2025-04-25T08:12:31.000Z</time>
      </trkpt>
      <trkpt lat="43.36301" lon="6.14018">
        <ele>477.435445</ele>
        <time>2025-04-25T08:12:32.000Z</time>
      </trkpt>
      <trkpt lat="43.36301" lon="6.14018">
        <ele>477.435445</ele>
        <time>2025-04-25T08:12:32.000Z</time>
      </trkpt>
      <trkpt lat="43.363" lon="6.14014">
        <ele>476.731122</ele>
        <time>2025-04-25T08:12:32.000Z</time>
      </trkpt>
      <trkpt lat="43.363" lon="6.14014">
        <ele>476.731122</ele>
        <time>2025-04-25T08:12:32.000Z</time>
      </trkpt>
      <trkpt lat="43.36298" lon="6.1401">
        <ele>475.906633</ele>
        <time>2025-04-25T08:12:34.000Z</time>
      </trkpt>
      <trkpt lat="43.36298" lon="6.1401">
        <ele>475.906633</ele>
        <time>2025-04-25T08:12:34.000Z</time>
      </trkpt>
      <trkpt lat="43.36298" lon="6.14006">
        <ele>475.107499</ele>
        <time>2025-04-25T08:12:35.000Z</time>
      </trkpt>
      <trkpt lat="43.36298" lon="6.14006">
        <ele>475.107499</ele>
        <time>2025-04-25T08:12:35.000Z</time>
      </trkpt>
      <trkpt lat="43.36297" lon="6.14001">
        <ele>474.188225</ele>
        <time>2025-04-25T08:12:36.000Z</time>
      </trkpt>
      <trkpt lat="43.36297" lon="6.14001">
        <ele>474.188225</ele>
        <time>2025-04-25T08:12:36.000Z</time>
      </trkpt>
      <trkpt lat="43.36297" lon="6.13995">
        <ele>473.284416</ele>
        <time>2025-04-25T08:12:37.000Z</time>
      </trkpt>
      <trkpt lat="43.36297" lon="6.13995">
        <ele>473.284416</ele>
        <time>2025-04-25T08:12:37.000Z</time>
      </trkpt>
      <trkpt lat="43.36298" lon="6.13991">
        <ele>472.373394</ele>
        <time>2025-04-25T08:12:38.000Z</time>
      </trkpt>
      <trkpt lat="43.36298" lon="6.13991">
        <ele>472.373394</ele>
        <time>2025-04-25T08:12:38.000Z</time>
      </trkpt>
      <trkpt lat="43.363" lon="6.13985">
        <ele>471.387695</ele>
        <time>2025-04-25T08:12:39.000Z</time>
      </trkpt>
      <trkpt lat="43.363" lon="6.13985">
        <ele>471.387695</ele>
        <time>2025-04-25T08:12:39.000Z</time>
      </trkpt>
      <trkpt lat="43.36303" lon="6.1398">
        <ele>470.218053</ele>
        <time>2025-04-25T08:12:40.000Z</time>
      </trkpt>
      <trkpt lat="43.36303" lon="6.1398">
        <ele>470.218053</ele>
        <time>2025-04-25T08:12:40.000Z</time>
      </trkpt>
      <trkpt lat="43.36306" lon="6.13974">
        <ele>468.889955</ele>
        <time>2025-04-25T08:12:41.000Z</time>
      </trkpt>
      <trkpt lat="43.36306" lon="6.13974">
        <ele>468.889955</ele>
        <time>2025-04-25T08:12:41.000Z</time>
      </trkpt>
      <trkpt lat="43.36309" lon="6.13969">
        <ele>467.678462</ele>
        <time>2025-04-25T08:12:42.000Z</time>
      </trkpt>
      <trkpt lat="43.36309" lon="6.13969">
        <ele>467.678462</ele>
        <time>2025-04-25T08:12:42.000Z</time>
      </trkpt>
      <trkpt lat="43.36313" lon="6.13964">
        <ele>466.611303</ele>
        <time>2025-04-25T08:12:43.000Z</time>
      </trkpt>
      <trkpt lat="43.36313" lon="6.13964">
        <ele>466.611303</ele>
        <time>2025-04-25T08:12:43.000Z</time>
      </trkpt>
      <trkpt lat="43.36316" lon="6.13958">
        <ele>465.682297</ele>
        <time>2025-04-25T08:12:44.000Z</time>
      </trkpt>
      <trkpt lat="43.36316" lon="6.13958">
        <ele>465.682297</ele>
        <time>2025-04-25T08:12:44.000Z</time>
      </trkpt>
      <trkpt lat="43.36317" lon="6.13955">
        <ele>465.100639</ele>
        <time>2025-04-25T08:12:45.000Z</time>
      </trkpt>
      <trkpt lat="43.36317" lon="6.13955">
        <ele>465.100639</ele>
        <time>2025-04-25T08:12:45.000Z</time>
      </trkpt>
      <trkpt lat="43.36319" lon="6.13951">
        <ele>464.586207</ele>
        <time>2025-04-25T08:12:46.000Z</time>
      </trkpt>
      <trkpt lat="43.36319" lon="6.13951">
        <ele>464.586207</ele>
        <time>2025-04-25T08:12:46.000Z</time>
      </trkpt>
      <trkpt lat="43.3632" lon="6.13948">
        <ele>464.071775</ele>
        <time>2025-04-25T08:12:47.000Z</time>
      </trkpt>
      <trkpt lat="43.3632" lon="6.13948">
        <ele>464.071775</ele>
        <time>2025-04-25T08:12:47.000Z</time>
      </trkpt>
      <trkpt lat="43.36322" lon="6.13945">
        <ele>463.544323</ele>
        <time>2025-04-25T08:12:48.000Z</time>
      </trkpt>
      <trkpt lat="43.36322" lon="6.13945">
        <ele>463.544323</ele>
        <time>2025-04-25T08:12:48.000Z</time>
      </trkpt>
      <trkpt lat="43.36324" lon="6.13942">
        <ele>462.986102</ele>
        <time>2025-04-25T08:12:49.000Z</time>
      </trkpt>
      <trkpt lat="43.36324" lon="6.13942">
        <ele>462.986102</ele>
        <time>2025-04-25T08:12:49.000Z</time>
      </trkpt>
      <trkpt lat="43.36326" lon="6.13939">
        <ele>462.494228</ele>
        <time>2025-04-25T08:12:50.000Z</time>
      </trkpt>
      <trkpt lat="43.36326" lon="6.13939">
        <ele>462.494228</ele>
        <time>2025-04-25T08:12:50.000Z</time>
      </trkpt>
      <trkpt lat="43.36327" lon="6.13936">
        <ele>462.024304</ele>
        <time>2025-04-25T08:12:51.000Z</time>
      </trkpt>
      <trkpt lat="43.36327" lon="6.13936">
        <ele>462.024304</ele>
        <time>2025-04-25T08:12:51.000Z</time>
      </trkpt>
      <trkpt lat="43.36329" lon="6.13934">
        <ele>461.506811</ele>
        <time>2025-04-25T08:12:52.000Z</time>
      </trkpt>
      <trkpt lat="43.36329" lon="6.13934">
        <ele>461.506811</ele>
        <time>2025-04-25T08:12:52.000Z</time>
      </trkpt>
      <trkpt lat="43.36331" lon="6.13931">
        <ele>460.999111</ele>
        <time>2025-04-25T08:12:52.000Z</time>
      </trkpt>
      <trkpt lat="43.36331" lon="6.13931">
        <ele>460.999111</ele>
        <time>2025-04-25T08:12:52.000Z</time>
      </trkpt>
      <trkpt lat="43.36333" lon="6.13928">
        <ele>460.501031</ele>
        <time>2025-04-25T08:12:54.000Z</time>
      </trkpt>
      <trkpt lat="43.36333" lon="6.13928">
        <ele>460.501031</ele>
        <time>2025-04-25T08:12:54.000Z</time>
      </trkpt>
      <trkpt lat="43.36334" lon="6.13926">
        <ele>460.052575</ele>
        <time>2025-04-25T08:12:55.000Z</time>
      </trkpt>
      <trkpt lat="43.36334" lon="6.13926">
        <ele>460.052575</ele>
        <time>2025-04-25T08:12:55.000Z</time>
      </trkpt>
      <trkpt lat="43.36334" lon="6.13926">
        <ele>460.052575</ele>
        <time>2025-04-25T08:12:56.000Z</time>
      </trkpt>
      <trkpt lat="43.36337" lon="6.1392">
        <ele>459.08767</ele>
        <time>2025-04-25T08:12:57.000Z</time>
      </trkpt>
      <trkpt lat="43.36337" lon="6.1392">
        <ele>459.08767</ele>
        <time>2025-04-25T08:12:57.000Z</time>
      </trkpt>
      <trkpt lat="43.36337" lon="6.13918">
        <ele>458.896943</ele>
        <time>2025-04-25T08:12:58.000Z</time>
      </trkpt>
      <trkpt lat="43.36338" lon="6.13917">
        <ele>458.67837</ele>
        <time>2025-04-25T08:12:59.000Z</time>
      </trkpt>
      <trkpt lat="43.36339" lon="6.13916">
        <ele>458.385943</ele>
        <time>2025-04-25T08:12:59.000Z</time>
      </trkpt>
      <trkpt lat="43.36342" lon="6.13916">
        <ele>457.826942</ele>
        <time>2025-04-25T08:13:21.000Z</time>
      </trkpt>
      <trkpt lat="43.36346" lon="6.1392">
        <ele>456.845792</ele>
        <time>2025-04-25T08:13:23.000Z</time>
      </trkpt>
      <trkpt lat="43.36348" lon="6.13922">
        <ele>456.485945</ele>
        <time>2025-04-25T08:13:24.000Z</time>
      </trkpt>
      <trkpt lat="43.3635" lon="6.13923">
        <ele>456.149064</ele>
        <time>2025-04-25T08:13:25.000Z</time>
      </trkpt>
      <trkpt lat="43.36352" lon="6.13925">
        <ele>455.663821</ele>
        <time>2025-04-25T08:13:26.000Z</time>
      </trkpt>
      <trkpt lat="43.36355" lon="6.13927">
        <ele>454.971175</ele>
        <time>2025-04-25T08:13:27.000Z</time>
      </trkpt>
      <trkpt lat="43.36355" lon="6.13927">
        <ele>454.971175</ele>
        <time>2025-04-25T08:13:27.000Z</time>
      </trkpt>
      <trkpt lat="43.36359" lon="6.13928">
        <ele>454.334129</ele>
        <time>2025-04-25T08:13:28.000Z</time>
      </trkpt>
      <trkpt lat="43.36359" lon="6.13928">
        <ele>454.334129</ele>
        <time>2025-04-25T08:13:28.000Z</time>
      </trkpt>
      <trkpt lat="43.36361" lon="6.13927">
        <ele>453.817829</ele>
        <time>2025-04-25T08:13:29.000Z</time>
      </trkpt>
      <trkpt lat="43.36361" lon="6.13927">
        <ele>453.817829</ele>
        <time>2025-04-25T08:13:29.000Z</time>
      </trkpt>
      <trkpt lat="43.36364" lon="6.13925">
        <ele>453.29051</ele>
        <time>2025-04-25T08:13:30.000Z</time>
      </trkpt>
      <trkpt lat="43.36364" lon="6.13925">
        <ele>453.29051</ele>
        <time>2025-04-25T08:13:30.000Z</time>
      </trkpt>
      <trkpt lat="43.36366" lon="6.13924">
        <ele>452.817459</ele>
        <time>2025-04-25T08:13:31.000Z</time>
      </trkpt>
      <trkpt lat="43.36366" lon="6.13924">
        <ele>452.817459</ele>
        <time>2025-04-25T08:13:31.000Z</time>
      </trkpt>
      <trkpt lat="43.36369" lon="6.13922">
        <ele>452.318857</ele>
        <time>2025-04-25T08:13:32.000Z</time>
      </trkpt>
      <trkpt lat="43.36369" lon="6.13922">
        <ele>452.318857</ele>
        <time>2025-04-25T08:13:32.000Z</time>
      </trkpt>
      <trkpt lat="43.36371" lon="6.1392">
        <ele>451.72931</ele>
        <time>2025-04-25T08:13:33.000Z</time>
      </trkpt>
      <trkpt lat="43.36371" lon="6.1392">
        <ele>451.72931</ele>
        <time>2025-04-25T08:13:33.000Z</time>
      </trkpt>
      <trkpt lat="43.36374" lon="6.13917">
        <ele>451.108943</ele>
        <time>2025-04-25T08:13:34.000Z</time>
      </trkpt>
      <trkpt lat="43.36374" lon="6.13917">
        <ele>451.108943</ele>
        <time>2025-04-25T08:13:34.000Z</time>
      </trkpt>
      <trkpt lat="43.36377" lon="6.13914">
        <ele>450.427046</ele>
        <time>2025-04-25T08:13:35.000Z</time>
      </trkpt>
      <trkpt lat="43.36377" lon="6.13914">
        <ele>450.427046</ele>
        <time>2025-04-25T08:13:35.000Z</time>
      </trkpt>
      <trkpt lat="43.3638" lon="6.13912">
        <ele>449.837499</ele>
        <time>2025-04-25T08:13:36.000Z</time>
      </trkpt>
      <trkpt lat="43.3638" lon="6.13912">
        <ele>449.837499</ele>
        <time>2025-04-25T08:13:36.000Z</time>
      </trkpt>
      <trkpt lat="43.3638" lon="6.13912">
        <ele>449.837499</ele>
        <time>2025-04-25T08:13:37.000Z</time>
      </trkpt>
      <trkpt lat="43.36383" lon="6.13906">
        <ele>448.812353</ele>
        <time>2025-04-25T08:13:38.000Z</time>
      </trkpt>
      <trkpt lat="43.36383" lon="6.13906">
        <ele>448.812353</ele>
        <time>2025-04-25T08:13:38.000Z</time>
      </trkpt>
      <trkpt lat="43.36384" lon="6.13905">
        <ele>448.602134</ele>
        <time>2025-04-25T08:13:39.000Z</time>
      </trkpt>
      <trkpt lat="43.36385" lon="6.13904">
        <ele>448.323621</ele>
        <time>2025-04-25T08:13:40.000Z</time>
      </trkpt>
      <trkpt lat="43.36386" lon="6.13903">
        <ele>448.154282</ele>
        <time>2025-04-25T08:13:41.000Z</time>
      </trkpt>
      <trkpt lat="43.36387" lon="6.13901">
        <ele>447.834142</ele>
        <time>2025-04-25T08:13:55.000Z</time>
      </trkpt>
      <trkpt lat="43.36388" lon="6.13899">
        <ele>447.558231</ele>
        <time>2025-04-25T08:13:57.000Z</time>
      </trkpt>
      <trkpt lat="43.36388" lon="6.13899">
        <ele>447.374419</ele>
        <time>2025-04-25T08:13:58.000Z</time>
      </trkpt>
      <trkpt lat="43.36389" lon="6.13898">
        <ele>447.190606</ele>
        <time>2025-04-25T08:13:58.000Z</time>
      </trkpt>
      <trkpt lat="43.36391" lon="6.13897">
        <ele>446.886475</ele>
        <time>2025-04-25T08:14:00.000Z</time>
      </trkpt>
      <trkpt lat="43.36392" lon="6.13896">
        <ele>446.592104</ele>
        <time>2025-04-25T08:14:01.000Z</time>
      </trkpt>
      <trkpt lat="43.36395" lon="6.13895">
        <ele>446.151211</ele>
        <time>2025-04-25T08:14:02.000Z</time>
      </trkpt>
      <trkpt lat="43.364" lon="6.13893">
        <ele>445.13334</ele>
        <time>2025-04-25T08:14:04.000Z</time>
      </trkpt>
      <trkpt lat="43.364" lon="6.13895">
        <ele>444.879036</ele>
        <time>2025-04-25T08:14:21.000Z</time>
      </trkpt>
      <trkpt lat="43.36401" lon="6.13895">
        <ele>444.727926</ele>
        <time>2025-04-25T08:14:22.000Z</time>
      </trkpt>
      <trkpt lat="43.36402" lon="6.13895">
        <ele>444.597136</ele>
        <time>2025-04-25T08:14:22.000Z</time>
      </trkpt>
      <trkpt lat="43.36403" lon="6.13895">
        <ele>444.299787</ele>
        <time>2025-04-25T08:14:24.000Z</time>
      </trkpt>
      <trkpt lat="43.36405" lon="6.13895">
        <ele>443.946427</ele>
        <time>2025-04-25T08:14:25.000Z</time>
      </trkpt>
      <trkpt lat="43.36407" lon="6.13895">
        <ele>443.591006</ele>
        <time>2025-04-25T08:14:25.000Z</time>
      </trkpt>
      <trkpt lat="43.36409" lon="6.13896">
        <ele>443.162714</ele>
        <time>2025-04-25T08:14:27.000Z</time>
      </trkpt>
      <trkpt lat="43.36411" lon="6.13896">
        <ele>442.809612</ele>
        <time>2025-04-25T08:14:27.000Z</time>
      </trkpt>
      <trkpt lat="43.36416" lon="6.13896">
        <ele>441.954307</ele>
        <time>2025-04-25T08:14:29.000Z</time>
      </trkpt>
      <trkpt lat="43.36424" lon="6.13901">
        <ele>440.298195</ele>
        <time>2025-04-25T08:14:51.000Z</time>
      </trkpt>
      <trkpt lat="43.36425" lon="6.13903">
        <ele>440.057372</ele>
        <time>2025-04-25T08:14:54.000Z</time>
      </trkpt>
      <trkpt lat="43.36425" lon="6.13903">
        <ele>440.043862</ele>
        <time>2025-04-25T08:14:55.000Z</time>
      </trkpt>
      <trkpt lat="43.36425" lon="6.13902">
        <ele>439.912679</ele>
        <time>2025-04-25T08:14:56.000Z</time>
      </trkpt>
      <trkpt lat="43.36427" lon="6.13898">
        <ele>439.300648</ele>
        <time>2025-04-25T08:14:58.000Z</time>
      </trkpt>
      <trkpt lat="43.36427" lon="6.13897">
        <ele>439.109924</ele>
        <time>2025-04-25T08:14:58.000Z</time>
      </trkpt>
      <trkpt lat="43.36428" lon="6.13895">
        <ele>438.879807</ele>
        <time>2025-04-25T08:14:59.000Z</time>
      </trkpt>
      <trkpt lat="43.36428" lon="6.13894">
        <ele>438.650122</ele>
        <time>2025-04-25T08:15:00.000Z</time>
      </trkpt>
      <trkpt lat="43.36429" lon="6.13892">
        <ele>438.343729</ele>
        <time>2025-04-25T08:15:01.000Z</time>
      </trkpt>
      <trkpt lat="43.36429" lon="6.1389">
        <ele>438.073512</ele>
        <time>2025-04-25T08:15:03.000Z</time>
      </trkpt>
      <trkpt lat="43.36428" lon="6.13888">
        <ele>437.895152</ele>
        <time>2025-04-25T08:15:04.000Z</time>
      </trkpt>
      <trkpt lat="43.36427" lon="6.13882">
        <ele>436.94234</ele>
        <time>2025-04-25T08:15:06.000Z</time>
      </trkpt>
      <trkpt lat="43.36425" lon="6.13876">
        <ele>436.143939</ele>
        <time>2025-04-25T08:15:08.000Z</time>
      </trkpt>
      <trkpt lat="43.36424" lon="6.13874">
        <ele>435.81492</ele>
        <time>2025-04-25T08:15:09.000Z</time>
      </trkpt>
      <trkpt lat="43.36424" lon="6.13869">
        <ele>435.206932</ele>
        <time>2025-04-25T08:15:10.000Z</time>
      </trkpt>
      <trkpt lat="43.36426" lon="6.13865">
        <ele>434.586799</ele>
        <time>2025-04-25T08:15:11.000Z</time>
      </trkpt>
      <trkpt lat="43.36429" lon="6.1386">
        <ele>433.734406</ele>
        <time>2025-04-25T08:15:12.000Z</time>
      </trkpt>
      <trkpt lat="43.36432" lon="6.13855">
        <ele>432.417059</ele>
        <time>2025-04-25T08:15:13.000Z</time>
      </trkpt>
      <trkpt lat="43.36436" lon="6.1385">
        <ele>431.19963</ele>
        <time>2025-04-25T08:15:14.000Z</time>
      </trkpt>
      <trkpt lat="43.36442" lon="6.13843">
        <ele>429.098617</ele>
        <time>2025-04-25T08:15:16.000Z</time>
      </trkpt>
      <trkpt lat="43.36445" lon="6.13836">
        <ele>427.676931</ele>
        <time>2025-04-25T08:15:27.000Z</time>
      </trkpt>
      <trkpt lat="43.36447" lon="6.1383">
        <ele>426.459387</ele>
        <time>2025-04-25T08:15:30.000Z</time>
      </trkpt>
      <trkpt lat="43.3645" lon="6.13827">
        <ele>425.573358</ele>
        <time>2025-04-25T08:15:34.000Z</time>
      </trkpt>
      <trkpt lat="43.36451" lon="6.13826">
        <ele>425.242882</ele>
        <time>2025-04-25T08:15:35.000Z</time>
      </trkpt>
      <trkpt lat="43.36451" lon="6.13824">
        <ele>424.864035</ele>
        <time>2025-04-25T08:15:35.000Z</time>
      </trkpt>
      <trkpt lat="43.36453" lon="6.13823">
        <ele>424.359061</ele>
        <time>2025-04-25T08:15:37.000Z</time>
      </trkpt>
      <trkpt lat="43.36455" lon="6.13821">
        <ele>423.759403</ele>
        <time>2025-04-25T08:15:37.000Z</time>
      </trkpt>
      <trkpt lat="43.36457" lon="6.1382">
        <ele>423.240083</ele>
        <time>2025-04-25T08:15:39.000Z</time>
      </trkpt>
      <trkpt lat="43.36459" lon="6.13818">
        <ele>422.496739</ele>
        <time>2025-04-25T08:15:40.000Z</time>
      </trkpt>
      <trkpt lat="43.36463" lon="6.13816">
        <ele>421.537558</ele>
        <time>2025-04-25T08:15:40.000Z</time>
      </trkpt>
      <trkpt lat="43.36466" lon="6.13812">
        <ele>420.577643</ele>
        <time>2025-04-25T08:15:41.000Z</time>
      </trkpt>
      <trkpt lat="43.36466" lon="6.13812">
        <ele>420.577643</ele>
        <time>2025-04-25T08:15:41.000Z</time>
      </trkpt>
      <trkpt lat="43.36469" lon="6.1381">
        <ele>419.641609</ele>
        <time>2025-04-25T08:15:42.000Z</time>
      </trkpt>
      <trkpt lat="43.36469" lon="6.1381">
        <ele>419.641609</ele>
        <time>2025-04-25T08:15:42.000Z</time>
      </trkpt>
      <trkpt lat="43.36471" lon="6.13806">
        <ele>418.681694</ele>
        <time>2025-04-25T08:15:43.000Z</time>
      </trkpt>
      <trkpt lat="43.36471" lon="6.13806">
        <ele>418.681694</ele>
        <time>2025-04-25T08:15:43.000Z</time>
      </trkpt>
      <trkpt lat="43.36474" lon="6.13802">
        <ele>417.671991</ele>
        <time>2025-04-25T08:15:44.000Z</time>
      </trkpt>
      <trkpt lat="43.36474" lon="6.13802">
        <ele>417.671991</ele>
        <time>2025-04-25T08:15:44.000Z</time>
      </trkpt>
      <trkpt lat="43.36477" lon="6.13797">
        <ele>416.589162</ele>
        <time>2025-04-25T08:15:45.000Z</time>
      </trkpt>
      <trkpt lat="43.36477" lon="6.13797">
        <ele>416.589162</ele>
        <time>2025-04-25T08:15:45.000Z</time>
      </trkpt>
      <trkpt lat="43.3648" lon="6.13793">
        <ele>415.447058</ele>
        <time>2025-04-25T08:15:47.000Z</time>
      </trkpt>
      <trkpt lat="43.3648" lon="6.13793">
        <ele>415.447058</ele>
        <time>2025-04-25T08:15:47.000Z</time>
      </trkpt>
      <trkpt lat="43.36483" lon="6.1379">
        <ele>414.394314</ele>
        <time>2025-04-25T08:15:47.000Z</time>
      </trkpt>
      <trkpt lat="43.36483" lon="6.1379">
        <ele>414.394314</ele>
        <time>2025-04-25T08:15:47.000Z</time>
      </trkpt>
      <trkpt lat="43.36486" lon="6.13788">
        <ele>413.535018</ele>
        <time>2025-04-25T08:15:48.000Z</time>
      </trkpt>
      <trkpt lat="43.36486" lon="6.13788">
        <ele>413.535018</ele>
        <time>2025-04-25T08:15:48.000Z</time>
      </trkpt>
      <trkpt lat="43.36489" lon="6.13787">
        <ele>412.791675</ele>
        <time>2025-04-25T08:15:50.000Z</time>
      </trkpt>
      <trkpt lat="43.36489" lon="6.13787">
        <ele>412.791675</ele>
        <time>2025-04-25T08:15:50.000Z</time>
      </trkpt>
      <trkpt lat="43.36492" lon="6.13785">
        <ele>411.901197</ele>
        <time>2025-04-25T08:15:51.000Z</time>
      </trkpt>
      <trkpt lat="43.36492" lon="6.13785">
        <ele>411.901197</ele>
        <time>2025-04-25T08:15:51.000Z</time>
      </trkpt>
      <trkpt lat="43.36496" lon="6.13781">
        <ele>410.77337</ele>
        <time>2025-04-25T08:15:52.000Z</time>
      </trkpt>
      <trkpt lat="43.36496" lon="6.13781">
        <ele>410.77337</ele>
        <time>2025-04-25T08:15:52.000Z</time>
      </trkpt>
      <trkpt lat="43.365" lon="6.13779">
        <ele>409.713556</ele>
        <time>2025-04-25T08:15:53.000Z</time>
      </trkpt>
      <trkpt lat="43.365" lon="6.13779">
        <ele>409.713556</ele>
        <time>2025-04-25T08:15:53.000Z</time>
      </trkpt>
      <trkpt lat="43.36503" lon="6.13779">
        <ele>408.845613</ele>
        <time>2025-04-25T08:15:54.000Z</time>
      </trkpt>
      <trkpt lat="43.36503" lon="6.13779">
        <ele>408.845613</ele>
        <time>2025-04-25T08:15:54.000Z</time>
      </trkpt>
      <trkpt lat="43.36507" lon="6.13779">
        <ele>407.950408</ele>
        <time>2025-04-25T08:15:54.000Z</time>
      </trkpt>
      <trkpt lat="43.36507" lon="6.13779">
        <ele>407.950408</ele>
        <time>2025-04-25T08:15:54.000Z</time>
      </trkpt>
      <trkpt lat="43.36511" lon="6.13779">
        <ele>406.876798</ele>
        <time>2025-04-25T08:15:56.000Z</time>
      </trkpt>
      <trkpt lat="43.36511" lon="6.13779">
        <ele>406.876798</ele>
        <time>2025-04-25T08:15:56.000Z</time>
      </trkpt>
      <trkpt lat="43.36515" lon="6.13779">
        <ele>405.905147</ele>
        <time>2025-04-25T08:15:57.000Z</time>
      </trkpt>
      <trkpt lat="43.36515" lon="6.13779">
        <ele>405.905147</ele>
        <time>2025-04-25T08:15:57.000Z</time>
      </trkpt>
      <trkpt lat="43.36517" lon="6.13777">
        <ele>405.1259</ele>
        <time>2025-04-25T08:15:58.000Z</time>
      </trkpt>
      <trkpt lat="43.36517" lon="6.13777">
        <ele>405.1259</ele>
        <time>2025-04-25T08:15:58.000Z</time>
      </trkpt>
      <trkpt lat="43.36519" lon="6.13773">
        <ele>404.359131</ele>
        <time>2025-04-25T08:15:59.000Z</time>
      </trkpt>
      <trkpt lat="43.36519" lon="6.13773">
        <ele>404.359131</ele>
        <time>2025-04-25T08:15:59.000Z</time>
      </trkpt>
      <trkpt lat="43.36521" lon="6.13769">
        <ele>403.395989</ele>
        <time>2025-04-25T08:16:00.000Z</time>
      </trkpt>
      <trkpt lat="43.36521" lon="6.13769">
        <ele>403.395989</ele>
        <time>2025-04-25T08:16:00.000Z</time>
      </trkpt>
      <trkpt lat="43.36522" lon="6.13764">
        <ele>402.357756</ele>
        <time>2025-04-25T08:16:01.000Z</time>
      </trkpt>
      <trkpt lat="43.36522" lon="6.13764">
        <ele>402.357756</ele>
        <time>2025-04-25T08:16:01.000Z</time>
      </trkpt>
      <trkpt lat="43.36523" lon="6.1376">
        <ele>401.581412</ele>
        <time>2025-04-25T08:16:01.000Z</time>
      </trkpt>
      <trkpt lat="43.36523" lon="6.1376">
        <ele>401.581412</ele>
        <time>2025-04-25T08:16:01.000Z</time>
      </trkpt>
      <trkpt lat="43.36525" lon="6.13755">
        <ele>400.709271</ele>
        <time>2025-04-25T08:16:02.000Z</time>
      </trkpt>
      <trkpt lat="43.36525" lon="6.13755">
        <ele>400.709271</ele>
        <time>2025-04-25T08:16:02.000Z</time>
      </trkpt>
      <trkpt lat="43.36526" lon="6.13751">
        <ele>399.857456</ele>
        <time>2025-04-25T08:16:04.000Z</time>
      </trkpt>
      <trkpt lat="43.36526" lon="6.13751">
        <ele>399.857456</ele>
        <time>2025-04-25T08:16:04.000Z</time>
      </trkpt>
      <trkpt lat="43.36528" lon="6.13748">
        <ele>399.060973</ele>
        <time>2025-04-25T08:16:04.000Z</time>
      </trkpt>
      <trkpt lat="43.36528" lon="6.13748">
        <ele>399.060973</ele>
        <time>2025-04-25T08:16:04.000Z</time>
      </trkpt>
      <trkpt lat="43.36531" lon="6.13747">
        <ele>398.302949</ele>
        <time>2025-04-25T08:16:06.000Z</time>
      </trkpt>
      <trkpt lat="43.36531" lon="6.13747">
        <ele>398.302949</ele>
        <time>2025-04-25T08:16:06.000Z</time>
      </trkpt>
      <trkpt lat="43.36534" lon="6.13746">
        <ele>397.638968</ele>
        <time>2025-04-25T08:16:07.000Z</time>
      </trkpt>
      <trkpt lat="43.36534" lon="6.13746">
        <ele>397.638968</ele>
        <time>2025-04-25T08:16:07.000Z</time>
      </trkpt>
      <trkpt lat="43.36536" lon="6.13748">
        <ele>396.920122</ele>
        <time>2025-04-25T08:16:07.000Z</time>
      </trkpt>
      <trkpt lat="43.36536" lon="6.13748">
        <ele>396.920122</ele>
        <time>2025-04-25T08:16:07.000Z</time>
      </trkpt>
      <trkpt lat="43.3654" lon="6.13748">
        <ele>396.114955</ele>
        <time>2025-04-25T08:16:09.000Z</time>
      </trkpt>
      <trkpt lat="43.3654" lon="6.13748">
        <ele>396.114955</ele>
        <time>2025-04-25T08:16:09.000Z</time>
      </trkpt>
      <trkpt lat="43.36543" lon="6.13749">
        <ele>395.34107</ele>
        <time>2025-04-25T08:16:10.000Z</time>
      </trkpt>
      <trkpt lat="43.36543" lon="6.13749">
        <ele>395.34107</ele>
        <time>2025-04-25T08:16:10.000Z</time>
      </trkpt>
      <trkpt lat="43.36545" lon="6.13749">
        <ele>394.746644</ele>
        <time>2025-04-25T08:16:11.000Z</time>
      </trkpt>
      <trkpt lat="43.36545" lon="6.13749">
        <ele>394.746644</ele>
        <time>2025-04-25T08:16:11.000Z</time>
      </trkpt>
      <trkpt lat="43.36545" lon="6.13749">
        <ele>394.746644</ele>
        <time>2025-04-25T08:16:12.000Z</time>
      </trkpt>
      <trkpt lat="43.36545" lon="6.1375">
        <ele>393.450563</ele>
        <time>2025-04-25T08:16:19.000Z</time>
      </trkpt>
      <trkpt lat="43.36545" lon="6.13752">
        <ele>393.005162</ele>
        <time>2025-04-25T08:16:20.000Z</time>
      </trkpt>
      <trkpt lat="43.36546" lon="6.13755">
        <ele>392.398117</ele>
        <time>2025-04-25T08:16:20.000Z</time>
      </trkpt>
      <trkpt lat="43.36548" lon="6.13758">
        <ele>391.857541</ele>
        <time>2025-04-25T08:16:22.000Z</time>
      </trkpt>
      <trkpt lat="43.36548" lon="6.13758">
        <ele>391.857541</ele>
        <time>2025-04-25T08:16:22.000Z</time>
      </trkpt>
      <trkpt lat="43.36549" lon="6.13761">
        <ele>391.217359</ele>
        <time>2025-04-25T08:16:22.000Z</time>
      </trkpt>
      <trkpt lat="43.36549" lon="6.13764">
        <ele>390.571779</ele>
        <time>2025-04-25T08:16:23.000Z</time>
      </trkpt>
      <trkpt lat="43.36549" lon="6.13764">
        <ele>390.571779</ele>
        <time>2025-04-25T08:16:23.000Z</time>
      </trkpt>
      <trkpt lat="43.3655" lon="6.13768">
        <ele>389.790184</ele>
        <time>2025-04-25T08:16:25.000Z</time>
      </trkpt>
      <trkpt lat="43.36551" lon="6.13772">
        <ele>389.022469</ele>
        <time>2025-04-25T08:16:25.000Z</time>
      </trkpt>
      <trkpt lat="43.3655" lon="6.13776">
        <ele>388.273144</ele>
        <time>2025-04-25T08:16:26.000Z</time>
      </trkpt>
      <trkpt lat="43.36549" lon="6.1378">
        <ele>387.616417</ele>
        <time>2025-04-25T08:16:27.000Z</time>
      </trkpt>
      <trkpt lat="43.36549" lon="6.13784">
        <ele>387.654019</ele>
        <time>2025-04-25T08:16:29.000Z</time>
      </trkpt>
      <trkpt lat="43.36548" lon="6.13788">
        <ele>387.696737</ele>
        <time>2025-04-25T08:16:30.000Z</time>
      </trkpt>
      <trkpt lat="43.36548" lon="6.13788">
        <ele>387.696737</ele>
        <time>2025-04-25T08:16:30.000Z</time>
      </trkpt>
      <trkpt lat="43.36546" lon="6.13792">
        <ele>387.739961</ele>
        <time>2025-04-25T08:16:31.000Z</time>
      </trkpt>
      <trkpt lat="43.36546" lon="6.13796">
        <ele>387.778314</ele>
        <time>2025-04-25T08:16:32.000Z</time>
      </trkpt>
      <trkpt lat="43.36545" lon="6.138">
        <ele>387.827634</ele>
        <time>2025-04-25T08:16:33.000Z</time>
      </trkpt>
      <trkpt lat="43.36544" lon="6.13804">
        <ele>387.867966</ele>
        <time>2025-04-25T08:16:34.000Z</time>
      </trkpt>
      <trkpt lat="43.36544" lon="6.13804">
        <ele>387.867966</ele>
        <time>2025-04-25T08:16:34.000Z</time>
      </trkpt>
      <trkpt lat="43.36544" lon="6.13809">
        <ele>387.916867</ele>
        <time>2025-04-25T08:16:35.000Z</time>
      </trkpt>
      <trkpt lat="43.36543" lon="6.13814">
        <ele>387.963143</ele>
        <time>2025-04-25T08:16:36.000Z</time>
      </trkpt>
      <trkpt lat="43.36543" lon="6.13818">
        <ele>388.009092</ele>
        <time>2025-04-25T08:16:37.000Z</time>
      </trkpt>
      <trkpt lat="43.36543" lon="6.13824">
        <ele>388.065119</ele>
        <time>2025-04-25T08:16:38.000Z</time>
      </trkpt>
      <trkpt lat="43.36543" lon="6.13824">
        <ele>388.065119</ele>
        <time>2025-04-25T08:16:38.000Z</time>
      </trkpt>
      <trkpt lat="43.36542" lon="6.13829">
        <ele>388.115283</ele>
        <time>2025-04-25T08:16:39.000Z</time>
      </trkpt>
      <trkpt lat="43.36541" lon="6.13834">
        <ele>388.168384</ele>
        <time>2025-04-25T08:16:40.000Z</time>
      </trkpt>
      <trkpt lat="43.36541" lon="6.13839">
        <ele>388.216645</ele>
        <time>2025-04-25T08:16:41.000Z</time>
      </trkpt>
      <trkpt lat="43.36541" lon="6.13839">
        <ele>388.216645</ele>
        <time>2025-04-25T08:16:41.000Z</time>
      </trkpt>
      <trkpt lat="43.3654" lon="6.13844">
        <ele>388.267784</ele>
        <time>2025-04-25T08:16:41.000Z</time>
      </trkpt>
      <trkpt lat="43.3654" lon="6.13849">
        <ele>388.324985</ele>
        <time>2025-04-25T08:16:43.000Z</time>
      </trkpt>
      <trkpt lat="43.36539" lon="6.13854">
        <ele>388.375847</ele>
        <time>2025-04-25T08:16:44.000Z</time>
      </trkpt>
      <trkpt lat="43.36539" lon="6.13854">
        <ele>388.375847</ele>
        <time>2025-04-25T08:16:44.000Z</time>
      </trkpt>
      <trkpt lat="43.36539" lon="6.13859">
        <ele>388.423115</ele>
        <time>2025-04-25T08:16:45.000Z</time>
      </trkpt>
      <trkpt lat="43.36539" lon="6.13859">
        <ele>388.423115</ele>
        <time>2025-04-25T08:16:45.000Z</time>
      </trkpt>
      <trkpt lat="43.36538" lon="6.13864">
        <ele>388.477185</ele>
        <time>2025-04-25T08:16:46.000Z</time>
      </trkpt>
      <trkpt lat="43.36537" lon="6.13869">
        <ele>388.528046</ele>
        <time>2025-04-25T08:16:47.000Z</time>
      </trkpt>
      <trkpt lat="43.36537" lon="6.13869">
        <ele>388.528046</ele>
        <time>2025-04-25T08:16:47.000Z</time>
      </trkpt>
      <trkpt lat="43.36536" lon="6.13875">
        <ele>388.581139</ele>
        <time>2025-04-25T08:16:48.000Z</time>
      </trkpt>
      <trkpt lat="43.36535" lon="6.1388">
        <ele>388.636195</ele>
        <time>2025-04-25T08:16:49.000Z</time>
      </trkpt>
      <trkpt lat="43.36535" lon="6.1388">
        <ele>388.636195</ele>
        <time>2025-04-25T08:16:49.000Z</time>
      </trkpt>
      <trkpt lat="43.36534" lon="6.13886">
        <ele>388.69547</ele>
        <time>2025-04-25T08:16:50.000Z</time>
      </trkpt>
      <trkpt lat="43.36534" lon="6.13886">
        <ele>388.69547</ele>
        <time>2025-04-25T08:16:50.000Z</time>
      </trkpt>
      <trkpt lat="43.36533" lon="6.13892">
        <ele>388.755184</ele>
        <time>2025-04-25T08:16:51.000Z</time>
      </trkpt>
      <trkpt lat="43.36533" lon="6.13897">
        <ele>388.813172</ele>
        <time>2025-04-25T08:16:52.000Z</time>
      </trkpt>
      <trkpt lat="43.36533" lon="6.13897">
        <ele>388.813172</ele>
        <time>2025-04-25T08:16:52.000Z</time>
      </trkpt>
      <trkpt lat="43.36532" lon="6.13903">
        <ele>388.872361</ele>
        <time>2025-04-25T08:16:53.000Z</time>
      </trkpt>
      <trkpt lat="43.36532" lon="6.13903">
        <ele>388.872361</ele>
        <time>2025-04-25T08:16:53.000Z</time>
      </trkpt>
      <trkpt lat="43.36531" lon="6.1391">
        <ele>388.939198</ele>
        <time>2025-04-25T08:16:54.000Z</time>
      </trkpt>
      <trkpt lat="43.36531" lon="6.1391">
        <ele>388.939198</ele>
        <time>2025-04-25T08:16:54.000Z</time>
      </trkpt>
      <trkpt lat="43.36531" lon="6.13916">
        <ele>389.003126</ele>
        <time>2025-04-25T08:16:55.000Z</time>
      </trkpt>
      <trkpt lat="43.36531" lon="6.13922">
        <ele>389.064058</ele>
        <time>2025-04-25T08:16:56.000Z</time>
      </trkpt>
      <trkpt lat="43.36531" lon="6.13922">
        <ele>389.064058</ele>
        <time>2025-04-25T08:16:56.000Z</time>
      </trkpt>
      <trkpt lat="43.36531" lon="6.13928">
        <ele>389.121993</ele>
        <time>2025-04-25T08:16:57.000Z</time>
      </trkpt>
      <trkpt lat="43.36531" lon="6.13928">
        <ele>389.121993</ele>
        <time>2025-04-25T08:16:57.000Z</time>
      </trkpt>
      <trkpt lat="43.36531" lon="6.13933">
        <ele>389.171938</ele>
        <time>2025-04-25T08:16:58.000Z</time>
      </trkpt>
      <trkpt lat="43.36531" lon="6.13933">
        <ele>389.171938</ele>
        <time>2025-04-25T08:16:58.000Z</time>
      </trkpt>
      <trkpt lat="43.36532" lon="6.13938">
        <ele>389.226157</ele>
        <time>2025-04-25T08:16:59.000Z</time>
      </trkpt>
      <trkpt lat="43.36532" lon="6.13938">
        <ele>389.226157</ele>
        <time>2025-04-25T08:16:59.000Z</time>
      </trkpt>
      <trkpt lat="43.36532" lon="6.13943">
        <ele>389.276402</ele>
        <time>2025-04-25T08:17:00.000Z</time>
      </trkpt>
      <trkpt lat="43.36532" lon="6.13943">
        <ele>389.276402</ele>
        <time>2025-04-25T08:17:00.000Z</time>
      </trkpt>
      <trkpt lat="43.36533" lon="6.13949">
        <ele>389.335592</ele>
        <time>2025-04-25T08:17:01.000Z</time>
      </trkpt>
      <trkpt lat="43.36533" lon="6.13949">
        <ele>389.335592</ele>
        <time>2025-04-25T08:17:01.000Z</time>
      </trkpt>
      <trkpt lat="43.36533" lon="6.13954">
        <ele>389.385838</ele>
        <time>2025-04-25T08:17:02.000Z</time>
      </trkpt>
      <trkpt lat="43.36533" lon="6.13954">
        <ele>389.385838</ele>
        <time>2025-04-25T08:17:02.000Z</time>
      </trkpt>
      <trkpt lat="43.36534" lon="6.13959">
        <ele>389.438976</ele>
        <time>2025-04-25T08:17:03.000Z</time>
      </trkpt>
      <trkpt lat="43.36535" lon="6.13965">
        <ele>389.494024</ele>
        <time>2025-04-25T08:17:04.000Z</time>
      </trkpt>
      <trkpt lat="43.36535" lon="6.13965">
        <ele>389.494024</ele>
        <time>2025-04-25T08:17:04.000Z</time>
      </trkpt>
      <trkpt lat="43.36536" lon="6.13971">
        <ele>389.560648</ele>
        <time>2025-04-25T08:17:05.000Z</time>
      </trkpt>
      <trkpt lat="43.36536" lon="6.13971">
        <ele>389.560648</ele>
        <time>2025-04-25T08:17:05.000Z</time>
      </trkpt>
      <trkpt lat="43.36536" lon="6.13979">
        <ele>389.637758</ele>
        <time>2025-04-25T08:17:06.000Z</time>
      </trkpt>
      <trkpt lat="43.36536" lon="6.13979">
        <ele>389.637758</ele>
        <time>2025-04-25T08:17:06.000Z</time>
      </trkpt>
      <trkpt lat="43.36537" lon="6.13995">
        <ele>389.792467</ele>
        <time>2025-04-25T08:17:07.000Z</time>
      </trkpt>
      <trkpt lat="43.36537" lon="6.13995">
        <ele>389.792467</ele>
        <time>2025-04-25T08:17:07.000Z</time>
      </trkpt>
      <trkpt lat="43.36537" lon="6.13999">
        <ele>389.840727</ele>
        <time>2025-04-25T08:17:09.000Z</time>
      </trkpt>
      <trkpt lat="43.36537" lon="6.13999">
        <ele>389.840727</ele>
        <time>2025-04-25T08:17:09.000Z</time>
      </trkpt>
      <trkpt lat="43.36536" lon="6.14005">
        <ele>389.903851</ele>
        <time>2025-04-25T08:17:10.000Z</time>
      </trkpt>
      <trkpt lat="43.36536" lon="6.14005">
        <ele>389.903851</ele>
        <time>2025-04-25T08:17:10.000Z</time>
      </trkpt>
      <trkpt lat="43.36535" lon="6.14012">
        <ele>389.975387</ele>
        <time>2025-04-25T08:17:11.000Z</time>
      </trkpt>
      <trkpt lat="43.36535" lon="6.14012">
        <ele>389.975387</ele>
        <time>2025-04-25T08:17:11.000Z</time>
      </trkpt>
      <trkpt lat="43.36533" lon="6.14018">
        <ele>390.032367</ele>
        <time>2025-04-25T08:17:12.000Z</time>
      </trkpt>
      <trkpt lat="43.36533" lon="6.14018">
        <ele>390.032367</ele>
        <time>2025-04-25T08:17:12.000Z</time>
      </trkpt>
      <trkpt lat="43.36533" lon="6.14025">
        <ele>390.15062</ele>
        <time>2025-04-25T08:17:13.000Z</time>
      </trkpt>
      <trkpt lat="43.36533" lon="6.14025">
        <ele>390.15062</ele>
        <time>2025-04-25T08:17:13.000Z</time>
      </trkpt>
      <trkpt lat="43.36533" lon="6.14031">
        <ele>390.356599</ele>
        <time>2025-04-25T08:17:14.000Z</time>
      </trkpt>
      <trkpt lat="43.36533" lon="6.14031">
        <ele>390.356599</ele>
        <time>2025-04-25T08:17:14.000Z</time>
      </trkpt>
      <trkpt lat="43.36532" lon="6.14038">
        <ele>390.582584</ele>
        <time>2025-04-25T08:17:15.000Z</time>
      </trkpt>
      <trkpt lat="43.36532" lon="6.14038">
        <ele>390.582584</ele>
        <time>2025-04-25T08:17:15.000Z</time>
      </trkpt>
      <trkpt lat="43.36533" lon="6.14045">
        <ele>390.808569</ele>
        <time>2025-04-25T08:17:16.000Z</time>
      </trkpt>
      <trkpt lat="43.36533" lon="6.14045">
        <ele>390.808569</ele>
        <time>2025-04-25T08:17:16.000Z</time>
      </trkpt>
      <trkpt lat="43.36533" lon="6.14053">
        <ele>391.04418</ele>
        <time>2025-04-25T08:17:17.000Z</time>
      </trkpt>
      <trkpt lat="43.36534" lon="6.14059">
        <ele>391.262107</ele>
        <time>2025-04-25T08:17:18.000Z</time>
      </trkpt>
      <trkpt lat="43.36534" lon="6.14059">
        <ele>391.262107</ele>
        <time>2025-04-25T08:17:18.000Z</time>
      </trkpt>
      <trkpt lat="43.36536" lon="6.14066">
        <ele>391.478526</ele>
        <time>2025-04-25T08:17:19.000Z</time>
      </trkpt>
      <trkpt lat="43.36536" lon="6.14066">
        <ele>391.478526</ele>
        <time>2025-04-25T08:17:19.000Z</time>
      </trkpt>
      <trkpt lat="43.36537" lon="6.14072">
        <ele>391.705496</ele>
        <time>2025-04-25T08:17:20.000Z</time>
      </trkpt>
      <trkpt lat="43.36537" lon="6.14072">
        <ele>391.705496</ele>
        <time>2025-04-25T08:17:20.000Z</time>
      </trkpt>
      <trkpt lat="43.36539" lon="6.14079">
        <ele>391.921915</ele>
        <time>2025-04-25T08:17:21.000Z</time>
      </trkpt>
      <trkpt lat="43.36539" lon="6.14079">
        <ele>391.921915</ele>
        <time>2025-04-25T08:17:21.000Z</time>
      </trkpt>
      <trkpt lat="43.3654" lon="6.14084">
        <ele>392.113991</ele>
        <time>2025-04-25T08:17:22.000Z</time>
      </trkpt>
      <trkpt lat="43.3654" lon="6.14084">
        <ele>392.113991</ele>
        <time>2025-04-25T08:17:22.000Z</time>
      </trkpt>
      <trkpt lat="43.36542" lon="6.1409">
        <ele>392.315155</ele>
        <time>2025-04-25T08:17:23.000Z</time>
      </trkpt>
      <trkpt lat="43.36542" lon="6.1409">
        <ele>392.315155</ele>
        <time>2025-04-25T08:17:23.000Z</time>
      </trkpt>
      <trkpt lat="43.36543" lon="6.14097">
        <ele>392.529932</ele>
        <time>2025-04-25T08:17:24.000Z</time>
      </trkpt>
      <trkpt lat="43.36543" lon="6.14097">
        <ele>392.529932</ele>
        <time>2025-04-25T08:17:24.000Z</time>
      </trkpt>
      <trkpt lat="43.36544" lon="6.14103">
        <ele>392.725508</ele>
        <time>2025-04-25T08:17:25.000Z</time>
      </trkpt>
      <trkpt lat="43.36544" lon="6.14103">
        <ele>392.725508</ele>
        <time>2025-04-25T08:17:25.000Z</time>
      </trkpt>
      <trkpt lat="43.36545" lon="6.14109">
        <ele>392.935112</ele>
        <time>2025-04-25T08:17:26.000Z</time>
      </trkpt>
      <trkpt lat="43.36545" lon="6.14109">
        <ele>392.935112</ele>
        <time>2025-04-25T08:17:26.000Z</time>
      </trkpt>
      <trkpt lat="43.36546" lon="6.14115">
        <ele>393.137385</ele>
        <time>2025-04-25T08:17:27.000Z</time>
      </trkpt>
      <trkpt lat="43.36546" lon="6.14115">
        <ele>393.137385</ele>
        <time>2025-04-25T08:17:27.000Z</time>
      </trkpt>
      <trkpt lat="43.36547" lon="6.14121">
        <ele>393.340046</ele>
        <time>2025-04-25T08:17:28.000Z</time>
      </trkpt>
      <trkpt lat="43.36548" lon="6.14127">
        <ele>393.529849</ele>
        <time>2025-04-25T08:17:29.000Z</time>
      </trkpt>
      <trkpt lat="43.36548" lon="6.14127">
        <ele>393.529849</ele>
        <time>2025-04-25T08:17:29.000Z</time>
      </trkpt>
      <trkpt lat="43.3655" lon="6.14133">
        <ele>393.73856</ele>
        <time>2025-04-25T08:17:30.000Z</time>
      </trkpt>
      <trkpt lat="43.3655" lon="6.14133">
        <ele>393.73856</ele>
        <time>2025-04-25T08:17:30.000Z</time>
      </trkpt>
      <trkpt lat="43.36551" lon="6.14139">
        <ele>393.927783</ele>
        <time>2025-04-25T08:17:31.000Z</time>
      </trkpt>
      <trkpt lat="43.36551" lon="6.14139">
        <ele>393.927783</ele>
        <time>2025-04-25T08:17:31.000Z</time>
      </trkpt>
      <trkpt lat="43.36551" lon="6.14145">
        <ele>394.127276</ele>
        <time>2025-04-25T08:17:32.000Z</time>
      </trkpt>
      <trkpt lat="43.36551" lon="6.14145">
        <ele>394.127276</ele>
        <time>2025-04-25T08:17:32.000Z</time>
      </trkpt>
      <trkpt lat="43.36552" lon="6.14151">
        <ele>394.320191</ele>
        <time>2025-04-25T08:17:33.000Z</time>
      </trkpt>
      <trkpt lat="43.36552" lon="6.14151">
        <ele>394.320191</ele>
        <time>2025-04-25T08:17:33.000Z</time>
      </trkpt>
      <trkpt lat="43.36553" lon="6.14157">
        <ele>394.510902</ele>
        <time>2025-04-25T08:17:34.000Z</time>
      </trkpt>
      <trkpt lat="43.36553" lon="6.14157">
        <ele>394.510902</ele>
        <time>2025-04-25T08:17:34.000Z</time>
      </trkpt>
      <trkpt lat="43.36553" lon="6.14163">
        <ele>394.71764</ele>
        <time>2025-04-25T08:17:35.000Z</time>
      </trkpt>
      <trkpt lat="43.36553" lon="6.14163">
        <ele>394.71764</ele>
        <time>2025-04-25T08:17:35.000Z</time>
      </trkpt>
      <trkpt lat="43.36554" lon="6.14169">
        <ele>394.917966</ele>
        <time>2025-04-25T08:17:36.000Z</time>
      </trkpt>
      <trkpt lat="43.36554" lon="6.14169">
        <ele>394.917966</ele>
        <time>2025-04-25T08:17:36.000Z</time>
      </trkpt>
      <trkpt lat="43.36554" lon="6.14175">
        <ele>395.104635</ele>
        <time>2025-04-25T08:17:37.000Z</time>
      </trkpt>
      <trkpt lat="43.36554" lon="6.14175">
        <ele>395.104635</ele>
        <time>2025-04-25T08:17:37.000Z</time>
      </trkpt>
      <trkpt lat="43.36554" lon="6.14181">
        <ele>395.292141</ele>
        <time>2025-04-25T08:17:38.000Z</time>
      </trkpt>
      <trkpt lat="43.36554" lon="6.14181">
        <ele>395.292141</ele>
        <time>2025-04-25T08:17:38.000Z</time>
      </trkpt>
      <trkpt lat="43.36554" lon="6.14186">
        <ele>395.463233</ele>
        <time>2025-04-25T08:17:39.000Z</time>
      </trkpt>
      <trkpt lat="43.36554" lon="6.14186">
        <ele>395.463233</ele>
        <time>2025-04-25T08:17:39.000Z</time>
      </trkpt>
      <trkpt lat="43.36554" lon="6.14192">
        <ele>395.659556</ele>
        <time>2025-04-25T08:17:40.000Z</time>
      </trkpt>
      <trkpt lat="43.36554" lon="6.14192">
        <ele>395.659556</ele>
        <time>2025-04-25T08:17:40.000Z</time>
      </trkpt>
      <trkpt lat="43.36555" lon="6.14198">
        <ele>395.831049</ele>
        <time>2025-04-25T08:17:41.000Z</time>
      </trkpt>
      <trkpt lat="43.36555" lon="6.14198">
        <ele>395.831049</ele>
        <time>2025-04-25T08:17:41.000Z</time>
      </trkpt>
      <trkpt lat="43.36555" lon="6.14203">
        <ele>396.014499</ele>
        <time>2025-04-25T08:17:42.000Z</time>
      </trkpt>
      <trkpt lat="43.36555" lon="6.14203">
        <ele>396.014499</ele>
        <time>2025-04-25T08:17:42.000Z</time>
      </trkpt>
      <trkpt lat="43.36555" lon="6.14209">
        <ele>396.197948</ele>
        <time>2025-04-25T08:17:43.000Z</time>
      </trkpt>
      <trkpt lat="43.36555" lon="6.14209">
        <ele>396.197948</ele>
        <time>2025-04-25T08:17:43.000Z</time>
      </trkpt>
      <trkpt lat="43.36555" lon="6.14215">
        <ele>396.381398</ele>
        <time>2025-04-25T08:17:44.000Z</time>
      </trkpt>
      <trkpt lat="43.36555" lon="6.14215">
        <ele>396.381398</ele>
        <time>2025-04-25T08:17:44.000Z</time>
      </trkpt>
      <trkpt lat="43.36554" lon="6.14221">
        <ele>396.572108</ele>
        <time>2025-04-25T08:17:45.000Z</time>
      </trkpt>
      <trkpt lat="43.36554" lon="6.14221">
        <ele>396.572108</ele>
        <time>2025-04-25T08:17:45.000Z</time>
      </trkpt>
      <trkpt lat="43.36554" lon="6.14226">
        <ele>396.756038</ele>
        <time>2025-04-25T08:17:46.000Z</time>
      </trkpt>
      <trkpt lat="43.36554" lon="6.14226">
        <ele>396.756038</ele>
        <time>2025-04-25T08:17:46.000Z</time>
      </trkpt>
      <trkpt lat="43.36553" lon="6.14232">
        <ele>396.958699</ele>
        <time>2025-04-25T08:17:47.000Z</time>
      </trkpt>
      <trkpt lat="43.36553" lon="6.14232">
        <ele>396.958699</ele>
        <time>2025-04-25T08:17:47.000Z</time>
      </trkpt>
      <trkpt lat="43.36552" lon="6.14238">
        <ele>397.132913</ele>
        <time>2025-04-25T08:17:48.000Z</time>
      </trkpt>
      <trkpt lat="43.36552" lon="6.14238">
        <ele>397.132913</ele>
        <time>2025-04-25T08:17:48.000Z</time>
      </trkpt>
      <trkpt lat="43.36552" lon="6.14243">
        <ele>397.318961</ele>
        <time>2025-04-25T08:17:48.000Z</time>
      </trkpt>
      <trkpt lat="43.36552" lon="6.14243">
        <ele>397.318961</ele>
        <time>2025-04-25T08:17:48.000Z</time>
      </trkpt>
      <trkpt lat="43.36551" lon="6.1425">
        <ele>397.521622</ele>
        <time>2025-04-25T08:17:50.000Z</time>
      </trkpt>
      <trkpt lat="43.36551" lon="6.1425">
        <ele>397.521622</ele>
        <time>2025-04-25T08:17:50.000Z</time>
      </trkpt>
      <trkpt lat="43.3655" lon="6.14255">
        <ele>397.714538</ele>
        <time>2025-04-25T08:17:51.000Z</time>
      </trkpt>
      <trkpt lat="43.3655" lon="6.14255">
        <ele>397.714538</ele>
        <time>2025-04-25T08:17:51.000Z</time>
      </trkpt>
      <trkpt lat="43.36549" lon="6.14261">
        <ele>397.901375</ele>
        <time>2025-04-25T08:17:51.000Z</time>
      </trkpt>
      <trkpt lat="43.36549" lon="6.14261">
        <ele>397.901375</ele>
        <time>2025-04-25T08:17:51.000Z</time>
      </trkpt>
      <trkpt lat="43.36548" lon="6.14266">
        <ele>398.064204</ele>
        <time>2025-04-25T08:17:53.000Z</time>
      </trkpt>
      <trkpt lat="43.36548" lon="6.14266">
        <ele>398.064204</ele>
        <time>2025-04-25T08:17:53.000Z</time>
      </trkpt>
      <trkpt lat="43.36547" lon="6.14271">
        <ele>398.200412</ele>
        <time>2025-04-25T08:17:54.000Z</time>
      </trkpt>
      <trkpt lat="43.36547" lon="6.14271">
        <ele>398.200412</ele>
        <time>2025-04-25T08:17:54.000Z</time>
      </trkpt>
      <trkpt lat="43.36545" lon="6.14276">
        <ele>398.342484</ele>
        <time>2025-04-25T08:17:55.000Z</time>
      </trkpt>
      <trkpt lat="43.36545" lon="6.14276">
        <ele>398.342484</ele>
        <time>2025-04-25T08:17:55.000Z</time>
      </trkpt>
      <trkpt lat="43.36543" lon="6.14281">
        <ele>398.481023</ele>
        <time>2025-04-25T08:17:56.000Z</time>
      </trkpt>
      <trkpt lat="43.36543" lon="6.14281">
        <ele>398.481023</ele>
        <time>2025-04-25T08:17:56.000Z</time>
      </trkpt>
      <trkpt lat="43.36542" lon="6.14286">
        <ele>398.609435</ele>
        <time>2025-04-25T08:17:57.000Z</time>
      </trkpt>
      <trkpt lat="43.36542" lon="6.14286">
        <ele>398.609435</ele>
        <time>2025-04-25T08:17:57.000Z</time>
      </trkpt>
      <trkpt lat="43.3654" lon="6.1429">
        <ele>398.729537</ele>
        <time>2025-04-25T08:17:57.000Z</time>
      </trkpt>
      <trkpt lat="43.3654" lon="6.1429">
        <ele>398.729537</ele>
        <time>2025-04-25T08:17:57.000Z</time>
      </trkpt>
      <trkpt lat="43.36538" lon="6.14294">
        <ele>398.855996</ele>
        <time>2025-04-25T08:17:59.000Z</time>
      </trkpt>
      <trkpt lat="43.36538" lon="6.14294">
        <ele>398.855996</ele>
        <time>2025-04-25T08:17:59.000Z</time>
      </trkpt>
      <trkpt lat="43.36536" lon="6.14298">
        <ele>398.967103</ele>
        <time>2025-04-25T08:18:00.000Z</time>
      </trkpt>
      <trkpt lat="43.36536" lon="6.14298">
        <ele>398.967103</ele>
        <time>2025-04-25T08:18:00.000Z</time>
      </trkpt>
      <trkpt lat="43.36535" lon="6.14302">
        <ele>399.085324</ele>
        <time>2025-04-25T08:18:01.000Z</time>
      </trkpt>
      <trkpt lat="43.36535" lon="6.14302">
        <ele>399.085324</ele>
        <time>2025-04-25T08:18:01.000Z</time>
      </trkpt>
      <trkpt lat="43.36532" lon="6.14307">
        <ele>399.252444</ele>
        <time>2025-04-25T08:18:02.000Z</time>
      </trkpt>
      <trkpt lat="43.36532" lon="6.14307">
        <ele>399.252444</ele>
        <time>2025-04-25T08:18:02.000Z</time>
      </trkpt>
      <trkpt lat="43.36527" lon="6.14316">
        <ele>399.53635</ele>
        <time>2025-04-25T08:18:03.000Z</time>
      </trkpt>
      <trkpt lat="43.36527" lon="6.14316">
        <ele>399.53635</ele>
        <time>2025-04-25T08:18:03.000Z</time>
      </trkpt>
      <trkpt lat="43.36525" lon="6.14319">
        <ele>399.634658</ele>
        <time>2025-04-25T08:18:05.000Z</time>
      </trkpt>
      <trkpt lat="43.36525" lon="6.14319">
        <ele>399.634658</ele>
        <time>2025-04-25T08:18:05.000Z</time>
      </trkpt>
      <trkpt lat="43.36523" lon="6.14323">
        <ele>399.74873</ele>
        <time>2025-04-25T08:18:06.000Z</time>
      </trkpt>
      <trkpt lat="43.36523" lon="6.14323">
        <ele>399.74873</ele>
        <time>2025-04-25T08:18:06.000Z</time>
      </trkpt>
      <trkpt lat="43.36521" lon="6.14327">
        <ele>399.875444</ele>
        <time>2025-04-25T08:18:06.000Z</time>
      </trkpt>
      <trkpt lat="43.36521" lon="6.14327">
        <ele>399.875444</ele>
        <time>2025-04-25T08:18:06.000Z</time>
      </trkpt>
      <trkpt lat="43.36519" lon="6.14331">
        <ele>399.990412</ele>
        <time>2025-04-25T08:18:08.000Z</time>
      </trkpt>
      <trkpt lat="43.36519" lon="6.14336">
        <ele>400.111225</ele>
        <time>2025-04-25T08:18:09.000Z</time>
      </trkpt>
      <trkpt lat="43.36519" lon="6.14336">
        <ele>400.111225</ele>
        <time>2025-04-25T08:18:09.000Z</time>
      </trkpt>
      <trkpt lat="43.36518" lon="6.14341">
        <ele>400.235391</ele>
        <time>2025-04-25T08:18:10.000Z</time>
      </trkpt>
      <trkpt lat="43.36518" lon="6.14341">
        <ele>400.235391</ele>
        <time>2025-04-25T08:18:10.000Z</time>
      </trkpt>
      <trkpt lat="43.36519" lon="6.14346">
        <ele>400.367068</ele>
        <time>2025-04-25T08:18:11.000Z</time>
      </trkpt>
      <trkpt lat="43.3652" lon="6.14351">
        <ele>400.510714</ele>
        <time>2025-04-25T08:18:12.000Z</time>
      </trkpt>
      <trkpt lat="43.3652" lon="6.14351">
        <ele>400.510714</ele>
        <time>2025-04-25T08:18:12.000Z</time>
      </trkpt>
      <trkpt lat="43.36521" lon="6.14357">
        <ele>400.653934</ele>
        <time>2025-04-25T08:18:13.000Z</time>
      </trkpt>
      <trkpt lat="43.36523" lon="6.14362">
        <ele>400.798448</ele>
        <time>2025-04-25T08:18:14.000Z</time>
      </trkpt>
      <trkpt lat="43.36523" lon="6.14362">
        <ele>400.798448</ele>
        <time>2025-04-25T08:18:14.000Z</time>
      </trkpt>
      <trkpt lat="43.36525" lon="6.14367">
        <ele>400.953882</ele>
        <time>2025-04-25T08:18:15.000Z</time>
      </trkpt>
      <trkpt lat="43.36525" lon="6.14367">
        <ele>400.953882</ele>
        <time>2025-04-25T08:18:15.000Z</time>
      </trkpt>
      <trkpt lat="43.36527" lon="6.14372">
        <ele>401.100436</ele>
        <time>2025-04-25T08:18:16.000Z</time>
      </trkpt>
      <trkpt lat="43.36528" lon="6.14378">
        <ele>401.248361</ele>
        <time>2025-04-25T08:18:16.000Z</time>
      </trkpt>
      <trkpt lat="43.36528" lon="6.14378">
        <ele>401.248361</ele>
        <time>2025-04-25T08:18:16.000Z</time>
      </trkpt>
      <trkpt lat="43.3653" lon="6.14383">
        <ele>401.403981</ele>
        <time>2025-04-25T08:18:17.000Z</time>
      </trkpt>
      <trkpt lat="43.36532" lon="6.14389">
        <ele>401.547201</ele>
        <time>2025-04-25T08:18:19.000Z</time>
      </trkpt>
      <trkpt lat="43.36532" lon="6.14389">
        <ele>401.547201</ele>
        <time>2025-04-25T08:18:19.000Z</time>
      </trkpt>
      <trkpt lat="43.36533" lon="6.14394">
        <ele>401.687077</ele>
        <time>2025-04-25T08:18:19.000Z</time>
      </trkpt>
      <trkpt lat="43.36533" lon="6.14394">
        <ele>401.687077</ele>
        <time>2025-04-25T08:18:19.000Z</time>
      </trkpt>
      <trkpt lat="43.36535" lon="6.144">
        <ele>401.844982</ele>
        <time>2025-04-25T08:18:21.000Z</time>
      </trkpt>
      <trkpt lat="43.36537" lon="6.14406">
        <ele>402.009784</ele>
        <time>2025-04-25T08:18:22.000Z</time>
      </trkpt>
      <trkpt lat="43.36537" lon="6.14406">
        <ele>402.009784</ele>
        <time>2025-04-25T08:18:22.000Z</time>
      </trkpt>
      <trkpt lat="43.36539" lon="6.14412">
        <ele>402.174586</ele>
        <time>2025-04-25T08:18:23.000Z</time>
      </trkpt>
      <trkpt lat="43.36541" lon="6.14418">
        <ele>402.339132</ele>
        <time>2025-04-25T08:18:24.000Z</time>
      </trkpt>
      <trkpt lat="43.36541" lon="6.14418">
        <ele>402.339132</ele>
        <time>2025-04-25T08:18:24.000Z</time>
      </trkpt>
      <trkpt lat="43.36542" lon="6.14424">
        <ele>402.50129</ele>
        <time>2025-04-25T08:18:25.000Z</time>
      </trkpt>
      <trkpt lat="43.36544" lon="6.14435">
        <ele>402.788451</ele>
        <time>2025-04-25T08:18:26.000Z</time>
      </trkpt>
      <trkpt lat="43.36544" lon="6.14435">
        <ele>402.788451</ele>
        <time>2025-04-25T08:18:26.000Z</time>
      </trkpt>
      <trkpt lat="43.36545" lon="6.14441">
        <ele>402.957328</ele>
        <time>2025-04-25T08:18:28.000Z</time>
      </trkpt>
      <trkpt lat="43.36545" lon="6.14441">
        <ele>402.957328</ele>
        <time>2025-04-25T08:18:28.000Z</time>
      </trkpt>
      <trkpt lat="43.36545" lon="6.14447">
        <ele>403.108418</ele>
        <time>2025-04-25T08:18:28.000Z</time>
      </trkpt>
      <trkpt lat="43.36545" lon="6.14447">
        <ele>403.108418</ele>
        <time>2025-04-25T08:18:28.000Z</time>
      </trkpt>
      <trkpt lat="43.36545" lon="6.14453">
        <ele>403.257635</ele>
        <time>2025-04-25T08:18:29.000Z</time>
      </trkpt>
      <trkpt lat="43.36545" lon="6.1446">
        <ele>403.41628</ele>
        <time>2025-04-25T08:18:30.000Z</time>
      </trkpt>
      <trkpt lat="43.36545" lon="6.1446">
        <ele>403.41628</ele>
        <time>2025-04-25T08:18:30.000Z</time>
      </trkpt>
      <trkpt lat="43.36544" lon="6.14466">
        <ele>403.569891</ele>
        <time>2025-04-25T08:18:32.000Z</time>
      </trkpt>
      <trkpt lat="43.36543" lon="6.14471">
        <ele>403.717816</ele>
        <time>2025-04-25T08:18:33.000Z</time>
      </trkpt>
      <trkpt lat="43.36543" lon="6.14471">
        <ele>403.717816</ele>
        <time>2025-04-25T08:18:33.000Z</time>
      </trkpt>
      <trkpt lat="43.36541" lon="6.14477">
        <ele>403.873436</ele>
        <time>2025-04-25T08:18:33.000Z</time>
      </trkpt>
      <trkpt lat="43.36538" lon="6.14483">
        <ele>404.048715</ele>
        <time>2025-04-25T08:18:35.000Z</time>
      </trkpt>
      <trkpt lat="43.36538" lon="6.14483">
        <ele>404.048715</ele>
        <time>2025-04-25T08:18:35.000Z</time>
      </trkpt>
      <trkpt lat="43.36536" lon="6.14489">
        <ele>404.220031</ele>
        <time>2025-04-25T08:18:35.000Z</time>
      </trkpt>
      <trkpt lat="43.36533" lon="6.14493">
        <ele>404.406505</ele>
        <time>2025-04-25T08:18:37.000Z</time>
      </trkpt>
      <trkpt lat="43.36533" lon="6.14493">
        <ele>404.406505</ele>
        <time>2025-04-25T08:18:37.000Z</time>
      </trkpt>
      <trkpt lat="43.36531" lon="6.14499">
        <ele>404.638055</ele>
        <time>2025-04-25T08:18:37.000Z</time>
      </trkpt>
      <trkpt lat="43.36531" lon="6.14504">
        <ele>404.86221</ele>
        <time>2025-04-25T08:18:38.000Z</time>
      </trkpt>
      <trkpt lat="43.36531" lon="6.14504">
        <ele>404.86221</ele>
        <time>2025-04-25T08:18:38.000Z</time>
      </trkpt>
      <trkpt lat="43.3653" lon="6.1451">
        <ele>405.068312</ele>
        <time>2025-04-25T08:18:39.000Z</time>
      </trkpt>
      <trkpt lat="43.3653" lon="6.1451">
        <ele>405.068312</ele>
        <time>2025-04-25T08:18:39.000Z</time>
      </trkpt>
      <trkpt lat="43.3653" lon="6.14516">
        <ele>405.328987</ele>
        <time>2025-04-25T08:18:40.000Z</time>
      </trkpt>
      <trkpt lat="43.3653" lon="6.14522">
        <ele>405.561644</ele>
        <time>2025-04-25T08:18:41.000Z</time>
      </trkpt>
      <trkpt lat="43.3653" lon="6.14522">
        <ele>405.561644</ele>
        <time>2025-04-25T08:18:41.000Z</time>
      </trkpt>
      <trkpt lat="43.3653" lon="6.14528">
        <ele>405.799139</ele>
        <time>2025-04-25T08:18:42.000Z</time>
      </trkpt>
      <trkpt lat="43.36531" lon="6.14534">
        <ele>406.031863</ele>
        <time>2025-04-25T08:18:44.000Z</time>
      </trkpt>
      <trkpt lat="43.36531" lon="6.14534">
        <ele>406.031863</ele>
        <time>2025-04-25T08:18:44.000Z</time>
      </trkpt>
      <trkpt lat="43.36532" lon="6.14539">
        <ele>406.241862</ele>
        <time>2025-04-25T08:18:44.000Z</time>
      </trkpt>
      <trkpt lat="43.36532" lon="6.14539">
        <ele>406.241862</ele>
        <time>2025-04-25T08:18:44.000Z</time>
      </trkpt>
      <trkpt lat="43.36533" lon="6.14544">
        <ele>406.436597</ele>
        <time>2025-04-25T08:18:46.000Z</time>
      </trkpt>
      <trkpt lat="43.36533" lon="6.14544">
        <ele>406.436597</ele>
        <time>2025-04-25T08:18:46.000Z</time>
      </trkpt>
      <trkpt lat="43.36533" lon="6.14549">
        <ele>406.631648</ele>
        <time>2025-04-25T08:18:46.000Z</time>
      </trkpt>
      <trkpt lat="43.36533" lon="6.14549">
        <ele>406.631648</ele>
        <time>2025-04-25T08:18:46.000Z</time>
      </trkpt>
      <trkpt lat="43.36534" lon="6.1456">
        <ele>407.06368</ele>
        <time>2025-04-25T08:18:48.000Z</time>
      </trkpt>
      <trkpt lat="43.36534" lon="6.1456">
        <ele>407.06368</ele>
        <time>2025-04-25T08:18:48.000Z</time>
      </trkpt>
      <trkpt lat="43.36534" lon="6.14566">
        <ele>407.273071</ele>
        <time>2025-04-25T08:18:49.000Z</time>
      </trkpt>
      <trkpt lat="43.36534" lon="6.14566">
        <ele>407.273071</ele>
        <time>2025-04-25T08:18:49.000Z</time>
      </trkpt>
      <trkpt lat="43.36533" lon="6.14572">
        <ele>407.502409</ele>
        <time>2025-04-25T08:18:50.000Z</time>
      </trkpt>
      <trkpt lat="43.36533" lon="6.14572">
        <ele>407.502409</ele>
        <time>2025-04-25T08:18:50.000Z</time>
      </trkpt>
      <trkpt lat="43.36533" lon="6.14578">
        <ele>407.739904</ele>
        <time>2025-04-25T08:18:51.000Z</time>
      </trkpt>
      <trkpt lat="43.36533" lon="6.14578">
        <ele>407.739904</ele>
        <time>2025-04-25T08:18:51.000Z</time>
      </trkpt>
      <trkpt lat="43.36533" lon="6.14583">
        <ele>407.933785</ele>
        <time>2025-04-25T08:18:52.000Z</time>
      </trkpt>
      <trkpt lat="43.36533" lon="6.14583">
        <ele>407.933785</ele>
        <time>2025-04-25T08:18:52.000Z</time>
      </trkpt>
      <trkpt lat="43.36533" lon="6.14588">
        <ele>408.131543</ele>
        <time>2025-04-25T08:18:53.000Z</time>
      </trkpt>
      <trkpt lat="43.36533" lon="6.14588">
        <ele>408.131543</ele>
        <time>2025-04-25T08:18:53.000Z</time>
      </trkpt>
      <trkpt lat="43.36533" lon="6.14593">
        <ele>408.311185</ele>
        <time>2025-04-25T08:18:54.000Z</time>
      </trkpt>
      <trkpt lat="43.36533" lon="6.14593">
        <ele>408.311185</ele>
        <time>2025-04-25T08:18:54.000Z</time>
      </trkpt>
      <trkpt lat="43.36533" lon="6.14601">
        <ele>408.652415</ele>
        <time>2025-04-25T08:18:56.000Z</time>
      </trkpt>
      <trkpt lat="43.36533" lon="6.14601">
        <ele>408.652415</ele>
        <time>2025-04-25T08:18:56.000Z</time>
      </trkpt>
      <trkpt lat="43.36532" lon="6.14606">
        <ele>408.843612</ele>
        <time>2025-04-25T08:18:57.000Z</time>
      </trkpt>
      <trkpt lat="43.36532" lon="6.14606">
        <ele>408.843612</ele>
        <time>2025-04-25T08:18:57.000Z</time>
      </trkpt>
      <trkpt lat="43.36531" lon="6.1461">
        <ele>409.008221</ele>
        <time>2025-04-25T08:18:58.000Z</time>
      </trkpt>
      <trkpt lat="43.36531" lon="6.1461">
        <ele>409.008221</ele>
        <time>2025-04-25T08:18:58.000Z</time>
      </trkpt>
      <trkpt lat="43.36531" lon="6.14615">
        <ele>409.198054</ele>
        <time>2025-04-25T08:18:59.000Z</time>
      </trkpt>
      <trkpt lat="43.36531" lon="6.14615">
        <ele>409.198054</ele>
        <time>2025-04-25T08:18:59.000Z</time>
      </trkpt>
      <trkpt lat="43.3653" lon="6.1462">
        <ele>409.394878</ele>
        <time>2025-04-25T08:19:00.000Z</time>
      </trkpt>
      <trkpt lat="43.3653" lon="6.1462">
        <ele>409.394878</ele>
        <time>2025-04-25T08:19:00.000Z</time>
      </trkpt>
      <trkpt lat="43.36529" lon="6.14624">
        <ele>409.565744</ele>
        <time>2025-04-25T08:19:01.000Z</time>
      </trkpt>
      <trkpt lat="43.36529" lon="6.14624">
        <ele>409.565744</ele>
        <time>2025-04-25T08:19:01.000Z</time>
      </trkpt>
      <trkpt lat="43.36528" lon="6.14629">
        <ele>409.745379</ele>
        <time>2025-04-25T08:19:02.000Z</time>
      </trkpt>
      <trkpt lat="43.36528" lon="6.14629">
        <ele>409.745379</ele>
        <time>2025-04-25T08:19:02.000Z</time>
      </trkpt>
      <trkpt lat="43.36526" lon="6.14638">
        <ele>410.129966</ele>
        <time>2025-04-25T08:19:04.000Z</time>
      </trkpt>
      <trkpt lat="43.36526" lon="6.14638">
        <ele>410.129966</ele>
        <time>2025-04-25T08:19:04.000Z</time>
      </trkpt>
      <trkpt lat="43.36525" lon="6.14643">
        <ele>410.312202</ele>
        <time>2025-04-25T08:19:05.000Z</time>
      </trkpt>
      <trkpt lat="43.36525" lon="6.14643">
        <ele>410.312202</ele>
        <time>2025-04-25T08:19:05.000Z</time>
      </trkpt>
      <trkpt lat="43.36524" lon="6.14647">
        <ele>410.498063</ele>
        <time>2025-04-25T08:19:06.000Z</time>
      </trkpt>
      <trkpt lat="43.36524" lon="6.14647">
        <ele>410.498063</ele>
        <time>2025-04-25T08:19:06.000Z</time>
      </trkpt>
      <trkpt lat="43.36523" lon="6.14651">
        <ele>410.653831</ele>
        <time>2025-04-25T08:19:07.000Z</time>
      </trkpt>
      <trkpt lat="43.36523" lon="6.14651">
        <ele>410.653831</ele>
        <time>2025-04-25T08:19:07.000Z</time>
      </trkpt>
      <trkpt lat="43.36522" lon="6.14655">
        <ele>410.822188</ele>
        <time>2025-04-25T08:19:08.000Z</time>
      </trkpt>
      <trkpt lat="43.36522" lon="6.14655">
        <ele>410.822188</ele>
        <time>2025-04-25T08:19:08.000Z</time>
      </trkpt>
      <trkpt lat="43.36522" lon="6.14662">
        <ele>411.090594</ele>
        <time>2025-04-25T08:19:10.000Z</time>
      </trkpt>
      <trkpt lat="43.36522" lon="6.14662">
        <ele>411.090594</ele>
        <time>2025-04-25T08:19:10.000Z</time>
      </trkpt>
      <trkpt lat="43.36522" lon="6.14666">
        <ele>411.230188</ele>
        <time>2025-04-25T08:19:11.000Z</time>
      </trkpt>
      <trkpt lat="43.36522" lon="6.14666">
        <ele>411.230188</ele>
        <time>2025-04-25T08:19:11.000Z</time>
      </trkpt>
      <trkpt lat="43.36522" lon="6.1467">
        <ele>411.398285</ele>
        <time>2025-04-25T08:19:12.000Z</time>
      </trkpt>
      <trkpt lat="43.36522" lon="6.1467">
        <ele>411.398285</ele>
        <time>2025-04-25T08:19:12.000Z</time>
      </trkpt>
      <trkpt lat="43.36523" lon="6.14675">
        <ele>411.581778</ele>
        <time>2025-04-25T08:19:13.000Z</time>
      </trkpt>
      <trkpt lat="43.36523" lon="6.14675">
        <ele>411.581778</ele>
        <time>2025-04-25T08:19:13.000Z</time>
      </trkpt>
      <trkpt lat="43.36524" lon="6.14681">
        <ele>411.829246</ele>
        <time>2025-04-25T08:19:15.000Z</time>
      </trkpt>
      <trkpt lat="43.36524" lon="6.14681">
        <ele>411.829246</ele>
        <time>2025-04-25T08:19:15.000Z</time>
      </trkpt>
      <trkpt lat="43.36525" lon="6.14684">
        <ele>411.967818</ele>
        <time>2025-04-25T08:19:16.000Z</time>
      </trkpt>
      <trkpt lat="43.36525" lon="6.14684">
        <ele>411.967818</ele>
        <time>2025-04-25T08:19:16.000Z</time>
      </trkpt>
      <trkpt lat="43.36526" lon="6.14693">
        <ele>412.294965</ele>
        <time>2025-04-25T08:19:18.000Z</time>
      </trkpt>
      <trkpt lat="43.36526" lon="6.14693">
        <ele>412.294965</ele>
        <time>2025-04-25T08:19:18.000Z</time>
      </trkpt>
      <trkpt lat="43.36526" lon="6.14698">
        <ele>412.486162</ele>
        <time>2025-04-25T08:19:19.000Z</time>
      </trkpt>
      <trkpt lat="43.36526" lon="6.14698">
        <ele>412.486162</ele>
        <time>2025-04-25T08:19:19.000Z</time>
      </trkpt>
      <trkpt lat="43.36527" lon="6.14702">
        <ele>412.638887</ele>
        <time>2025-04-25T08:19:20.000Z</time>
      </trkpt>
      <trkpt lat="43.36527" lon="6.14702">
        <ele>412.638887</ele>
        <time>2025-04-25T08:19:20.000Z</time>
      </trkpt>
      <trkpt lat="43.36527" lon="6.14705">
        <ele>412.766849</ele>
        <time>2025-04-25T08:19:21.000Z</time>
      </trkpt>
      <trkpt lat="43.36527" lon="6.14705">
        <ele>412.766849</ele>
        <time>2025-04-25T08:19:21.000Z</time>
      </trkpt>
      <trkpt lat="43.36527" lon="6.14709">
        <ele>412.934946</ele>
        <time>2025-04-25T08:19:22.000Z</time>
      </trkpt>
      <trkpt lat="43.36527" lon="6.14709">
        <ele>412.934946</ele>
        <time>2025-04-25T08:19:22.000Z</time>
      </trkpt>
      <trkpt lat="43.36527" lon="6.14713">
        <ele>413.09005</ele>
        <time>2025-04-25T08:19:22.000Z</time>
      </trkpt>
      <trkpt lat="43.36527" lon="6.14713">
        <ele>413.09005</ele>
        <time>2025-04-25T08:19:22.000Z</time>
      </trkpt>
      <trkpt lat="43.36527" lon="6.14717">
        <ele>413.25291</ele>
        <time>2025-04-25T08:19:24.000Z</time>
      </trkpt>
      <trkpt lat="43.36527" lon="6.14717">
        <ele>413.25291</ele>
        <time>2025-04-25T08:19:24.000Z</time>
      </trkpt>
      <trkpt lat="43.36527" lon="6.14722">
        <ele>413.41577</ele>
        <time>2025-04-25T08:19:25.000Z</time>
      </trkpt>
      <trkpt lat="43.36527" lon="6.14722">
        <ele>413.41577</ele>
        <time>2025-04-25T08:19:25.000Z</time>
      </trkpt>
      <trkpt lat="43.36527" lon="6.14725">
        <ele>413.556985</ele>
        <time>2025-04-25T08:19:26.000Z</time>
      </trkpt>
      <trkpt lat="43.36527" lon="6.14725">
        <ele>413.556985</ele>
        <time>2025-04-25T08:19:26.000Z</time>
      </trkpt>
      <trkpt lat="43.36527" lon="6.14729">
        <ele>413.704335</ele>
        <time>2025-04-25T08:19:26.000Z</time>
      </trkpt>
      <trkpt lat="43.36527" lon="6.14729">
        <ele>413.704335</ele>
        <time>2025-04-25T08:19:26.000Z</time>
      </trkpt>
      <trkpt lat="43.36527" lon="6.14732">
        <ele>413.82642</ele>
        <time>2025-04-25T08:19:28.000Z</time>
      </trkpt>
      <trkpt lat="43.36527" lon="6.14732">
        <ele>413.82642</ele>
        <time>2025-04-25T08:19:28.000Z</time>
      </trkpt>
      <trkpt lat="43.36527" lon="6.14736">
        <ele>413.995353</ele>
        <time>2025-04-25T08:19:29.000Z</time>
      </trkpt>
      <trkpt lat="43.36527" lon="6.14736">
        <ele>413.995353</ele>
        <time>2025-04-25T08:19:29.000Z</time>
      </trkpt>
      <trkpt lat="43.36528" lon="6.14739">
        <ele>414.150946</ele>
        <time>2025-04-25T08:19:30.000Z</time>
      </trkpt>
      <trkpt lat="43.36528" lon="6.14743">
        <ele>414.35493</ele>
        <time>2025-04-25T08:19:31.000Z</time>
      </trkpt>
      <trkpt lat="43.36528" lon="6.14743">
        <ele>414.35493</ele>
        <time>2025-04-25T08:19:31.000Z</time>
      </trkpt>
      <trkpt lat="43.36528" lon="6.14747">
        <ele>414.555814</ele>
        <time>2025-04-25T08:19:32.000Z</time>
      </trkpt>
      <trkpt lat="43.36528" lon="6.14747">
        <ele>414.555814</ele>
        <time>2025-04-25T08:19:32.000Z</time>
      </trkpt>
      <trkpt lat="43.36528" lon="6.14751">
        <ele>414.754823</ele>
        <time>2025-04-25T08:19:33.000Z</time>
      </trkpt>
      <trkpt lat="43.36528" lon="6.14751">
        <ele>414.754823</ele>
        <time>2025-04-25T08:19:33.000Z</time>
      </trkpt>
      <trkpt lat="43.36527" lon="6.14759">
        <ele>415.185367</ele>
        <time>2025-04-25T08:19:35.000Z</time>
      </trkpt>
      <trkpt lat="43.36527" lon="6.14759">
        <ele>415.185367</ele>
        <time>2025-04-25T08:19:35.000Z</time>
      </trkpt>
      <trkpt lat="43.36527" lon="6.14764">
        <ele>415.41102</ele>
        <time>2025-04-25T08:19:36.000Z</time>
      </trkpt>
      <trkpt lat="43.36526" lon="6.14768">
        <ele>415.616833</ele>
        <time>2025-04-25T08:19:37.000Z</time>
      </trkpt>
      <trkpt lat="43.36526" lon="6.14768">
        <ele>415.616833</ele>
        <time>2025-04-25T08:19:37.000Z</time>
      </trkpt>
      <trkpt lat="43.36526" lon="6.14772">
        <ele>415.798022</ele>
        <time>2025-04-25T08:19:38.000Z</time>
      </trkpt>
      <trkpt lat="43.36526" lon="6.14772">
        <ele>415.798022</ele>
        <time>2025-04-25T08:19:38.000Z</time>
      </trkpt>
      <trkpt lat="43.36526" lon="6.14776">
        <ele>416.002006</ele>
        <time>2025-04-25T08:19:39.000Z</time>
      </trkpt>
      <trkpt lat="43.36526" lon="6.14776">
        <ele>416.002006</ele>
        <time>2025-04-25T08:19:39.000Z</time>
      </trkpt>
      <trkpt lat="43.36526" lon="6.14779">
        <ele>416.188114</ele>
        <time>2025-04-25T08:19:40.000Z</time>
      </trkpt>
      <trkpt lat="43.36526" lon="6.14779">
        <ele>416.188114</ele>
        <time>2025-04-25T08:19:40.000Z</time>
      </trkpt>
      <trkpt lat="43.36527" lon="6.14783">
        <ele>416.393928</ele>
        <time>2025-04-25T08:19:41.000Z</time>
      </trkpt>
      <trkpt lat="43.36527" lon="6.14783">
        <ele>416.393928</ele>
        <time>2025-04-25T08:19:41.000Z</time>
      </trkpt>
      <trkpt lat="43.36527" lon="6.14787">
        <ele>416.580036</ele>
        <time>2025-04-25T08:19:42.000Z</time>
      </trkpt>
      <trkpt lat="43.36527" lon="6.14787">
        <ele>416.580036</ele>
        <time>2025-04-25T08:19:42.000Z</time>
      </trkpt>
      <trkpt lat="43.36528" lon="6.14791">
        <ele>416.792807</ele>
        <time>2025-04-25T08:19:43.000Z</time>
      </trkpt>
      <trkpt lat="43.36528" lon="6.14791">
        <ele>416.792807</ele>
        <time>2025-04-25T08:19:43.000Z</time>
      </trkpt>
      <trkpt lat="43.36529" lon="6.14795">
        <ele>416.989846</ele>
        <time>2025-04-25T08:19:44.000Z</time>
      </trkpt>
      <trkpt lat="43.36529" lon="6.14795">
        <ele>416.989846</ele>
        <time>2025-04-25T08:19:44.000Z</time>
      </trkpt>
      <trkpt lat="43.3653" lon="6.14798">
        <ele>417.188727</ele>
        <time>2025-04-25T08:19:45.000Z</time>
      </trkpt>
      <trkpt lat="43.3653" lon="6.14798">
        <ele>417.188727</ele>
        <time>2025-04-25T08:19:45.000Z</time>
      </trkpt>
      <trkpt lat="43.36531" lon="6.14802">
        <ele>417.350271</ele>
        <time>2025-04-25T08:19:46.000Z</time>
      </trkpt>
      <trkpt lat="43.36531" lon="6.14802">
        <ele>417.350271</ele>
        <time>2025-04-25T08:19:46.000Z</time>
      </trkpt>
      <trkpt lat="43.36532" lon="6.14806">
        <ele>417.581763</ele>
        <time>2025-04-25T08:19:47.000Z</time>
      </trkpt>
      <trkpt lat="43.36532" lon="6.14806">
        <ele>417.581763</ele>
        <time>2025-04-25T08:19:47.000Z</time>
      </trkpt>
      <trkpt lat="43.36533" lon="6.1481">
        <ele>417.807416</ele>
        <time>2025-04-25T08:19:48.000Z</time>
      </trkpt>
      <trkpt lat="43.36533" lon="6.1481">
        <ele>417.807416</ele>
        <time>2025-04-25T08:19:48.000Z</time>
      </trkpt>
      <trkpt lat="43.36534" lon="6.14816">
        <ele>418.081639</ele>
        <time>2025-04-25T08:19:49.000Z</time>
      </trkpt>
      <trkpt lat="43.36534" lon="6.14816">
        <ele>418.081639</ele>
        <time>2025-04-25T08:19:49.000Z</time>
      </trkpt>
      <trkpt lat="43.36535" lon="6.14819">
        <ele>418.254709</ele>
        <time>2025-04-25T08:19:50.000Z</time>
      </trkpt>
      <trkpt lat="43.36535" lon="6.14819">
        <ele>418.254709</ele>
        <time>2025-04-25T08:19:50.000Z</time>
      </trkpt>
      <trkpt lat="43.36536" lon="6.14823">
        <ele>418.476815</ele>
        <time>2025-04-25T08:19:51.000Z</time>
      </trkpt>
      <trkpt lat="43.36536" lon="6.14823">
        <ele>418.476815</ele>
        <time>2025-04-25T08:19:51.000Z</time>
      </trkpt>
      <trkpt lat="43.36537" lon="6.14828">
        <ele>418.710622</ele>
        <time>2025-04-25T08:19:52.000Z</time>
      </trkpt>
      <trkpt lat="43.36537" lon="6.14828">
        <ele>418.710622</ele>
        <time>2025-04-25T08:19:52.000Z</time>
      </trkpt>
      <trkpt lat="43.36538" lon="6.14831">
        <ele>418.896027</ele>
        <time>2025-04-25T08:19:53.000Z</time>
      </trkpt>
      <trkpt lat="43.36538" lon="6.14831">
        <ele>418.896027</ele>
        <time>2025-04-25T08:19:53.000Z</time>
      </trkpt>
      <trkpt lat="43.36538" lon="6.14835">
        <ele>419.10723</ele>
        <time>2025-04-25T08:19:54.000Z</time>
      </trkpt>
      <trkpt lat="43.36538" lon="6.14835">
        <ele>419.10723</ele>
        <time>2025-04-25T08:19:54.000Z</time>
      </trkpt>
      <trkpt lat="43.36539" lon="6.1484">
        <ele>419.337712</ele>
        <time>2025-04-25T08:19:55.000Z</time>
      </trkpt>
      <trkpt lat="43.36539" lon="6.1484">
        <ele>419.337712</ele>
        <time>2025-04-25T08:19:55.000Z</time>
      </trkpt>
      <trkpt lat="43.3654" lon="6.14844">
        <ele>419.561803</ele>
        <time>2025-04-25T08:19:56.000Z</time>
      </trkpt>
      <trkpt lat="43.3654" lon="6.14844">
        <ele>419.561803</ele>
        <time>2025-04-25T08:19:56.000Z</time>
      </trkpt>
      <trkpt lat="43.36541" lon="6.14849">
        <ele>419.806809</ele>
        <time>2025-04-25T08:19:57.000Z</time>
      </trkpt>
      <trkpt lat="43.36541" lon="6.14849">
        <ele>419.806809</ele>
        <time>2025-04-25T08:19:57.000Z</time>
      </trkpt>
      <trkpt lat="43.36541" lon="6.14853">
        <ele>420.013212</ele>
        <time>2025-04-25T08:19:58.000Z</time>
      </trkpt>
      <trkpt lat="43.36541" lon="6.14853">
        <ele>420.013212</ele>
        <time>2025-04-25T08:19:58.000Z</time>
      </trkpt>
      <trkpt lat="43.36542" lon="6.14858">
        <ele>420.25678</ele>
        <time>2025-04-25T08:19:59.000Z</time>
      </trkpt>
      <trkpt lat="43.36542" lon="6.14858">
        <ele>420.25678</ele>
        <time>2025-04-25T08:19:59.000Z</time>
      </trkpt>
      <trkpt lat="43.36543" lon="6.14862">
        <ele>420.495252</ele>
        <time>2025-04-25T08:20:00.000Z</time>
      </trkpt>
      <trkpt lat="43.36543" lon="6.14862">
        <ele>420.495252</ele>
        <time>2025-04-25T08:20:00.000Z</time>
      </trkpt>
      <trkpt lat="43.36544" lon="6.14866">
        <ele>420.699945</ele>
        <time>2025-04-25T08:20:01.000Z</time>
      </trkpt>
      <trkpt lat="43.36544" lon="6.14866">
        <ele>420.699945</ele>
        <time>2025-04-25T08:20:01.000Z</time>
      </trkpt>
      <trkpt lat="43.36545" lon="6.14871">
        <ele>420.938417</ele>
        <time>2025-04-25T08:20:02.000Z</time>
      </trkpt>
      <trkpt lat="43.36545" lon="6.14871">
        <ele>420.938417</ele>
        <time>2025-04-25T08:20:02.000Z</time>
      </trkpt>
      <trkpt lat="43.36546" lon="6.14875">
        <ele>421.138277</ele>
        <time>2025-04-25T08:20:03.000Z</time>
      </trkpt>
      <trkpt lat="43.36546" lon="6.14875">
        <ele>421.138277</ele>
        <time>2025-04-25T08:20:03.000Z</time>
      </trkpt>
      <trkpt lat="43.36546" lon="6.14879">
        <ele>421.373709</ele>
        <time>2025-04-25T08:20:04.000Z</time>
      </trkpt>
      <trkpt lat="43.36546" lon="6.14879">
        <ele>421.373709</ele>
        <time>2025-04-25T08:20:04.000Z</time>
      </trkpt>
      <trkpt lat="43.36547" lon="6.14883">
        <ele>421.556246</ele>
        <time>2025-04-25T08:20:05.000Z</time>
      </trkpt>
      <trkpt lat="43.36547" lon="6.14883">
        <ele>421.556246</ele>
        <time>2025-04-25T08:20:05.000Z</time>
      </trkpt>
      <trkpt lat="43.36548" lon="6.14887">
        <ele>421.76699</ele>
        <time>2025-04-25T08:20:06.000Z</time>
      </trkpt>
      <trkpt lat="43.36548" lon="6.14887">
        <ele>421.76699</ele>
        <time>2025-04-25T08:20:06.000Z</time>
      </trkpt>
      <trkpt lat="43.36548" lon="6.14891">
        <ele>421.962024</ele>
        <time>2025-04-25T08:20:07.000Z</time>
      </trkpt>
      <trkpt lat="43.36548" lon="6.14891">
        <ele>421.962024</ele>
        <time>2025-04-25T08:20:07.000Z</time>
      </trkpt>
      <trkpt lat="43.36548" lon="6.14896">
        <ele>422.195859</ele>
        <time>2025-04-25T08:20:08.000Z</time>
      </trkpt>
      <trkpt lat="43.36548" lon="6.14896">
        <ele>422.195859</ele>
        <time>2025-04-25T08:20:08.000Z</time>
      </trkpt>
      <trkpt lat="43.36549" lon="6.149">
        <ele>422.396742</ele>
        <time>2025-04-25T08:20:09.000Z</time>
      </trkpt>
      <trkpt lat="43.36549" lon="6.149">
        <ele>422.396742</ele>
        <time>2025-04-25T08:20:09.000Z</time>
      </trkpt>
      <trkpt lat="43.36549" lon="6.14904">
        <ele>422.607486</ele>
        <time>2025-04-25T08:20:10.000Z</time>
      </trkpt>
      <trkpt lat="43.36549" lon="6.14904">
        <ele>422.607486</ele>
        <time>2025-04-25T08:20:10.000Z</time>
      </trkpt>
      <trkpt lat="43.36549" lon="6.14907">
        <ele>422.788674</ele>
        <time>2025-04-25T08:20:11.000Z</time>
      </trkpt>
      <trkpt lat="43.36549" lon="6.14907">
        <ele>422.788674</ele>
        <time>2025-04-25T08:20:11.000Z</time>
      </trkpt>
      <trkpt lat="43.3655" lon="6.14912">
        <ele>422.994487</ele>
        <time>2025-04-25T08:20:12.000Z</time>
      </trkpt>
      <trkpt lat="43.3655" lon="6.14912">
        <ele>422.994487</ele>
        <time>2025-04-25T08:20:12.000Z</time>
      </trkpt>
      <trkpt lat="43.3655" lon="6.14915">
        <ele>423.174767</ele>
        <time>2025-04-25T08:20:13.000Z</time>
      </trkpt>
      <trkpt lat="43.3655" lon="6.14915">
        <ele>423.174767</ele>
        <time>2025-04-25T08:20:13.000Z</time>
      </trkpt>
      <trkpt lat="43.36551" lon="6.14919">
        <ele>423.39078</ele>
        <time>2025-04-25T08:20:14.000Z</time>
      </trkpt>
      <trkpt lat="43.36551" lon="6.14919">
        <ele>423.39078</ele>
        <time>2025-04-25T08:20:14.000Z</time>
      </trkpt>
      <trkpt lat="43.36552" lon="6.14924">
        <ele>423.640637</ele>
        <time>2025-04-25T08:20:15.000Z</time>
      </trkpt>
      <trkpt lat="43.36552" lon="6.14924">
        <ele>423.640637</ele>
        <time>2025-04-25T08:20:15.000Z</time>
      </trkpt>
      <trkpt lat="43.36552" lon="6.14928">
        <ele>423.826041</ele>
        <time>2025-04-25T08:20:16.000Z</time>
      </trkpt>
      <trkpt lat="43.36552" lon="6.14928">
        <ele>423.826041</ele>
        <time>2025-04-25T08:20:16.000Z</time>
      </trkpt>
      <trkpt lat="43.36554" lon="6.14932">
        <ele>424.045936</ele>
        <time>2025-04-25T08:20:17.000Z</time>
      </trkpt>
      <trkpt lat="43.36554" lon="6.14932">
        <ele>424.045936</ele>
        <time>2025-04-25T08:20:17.000Z</time>
      </trkpt>
      <trkpt lat="43.36554" lon="6.14936">
        <ele>424.260316</ele>
        <time>2025-04-25T08:20:18.000Z</time>
      </trkpt>
      <trkpt lat="43.36554" lon="6.14936">
        <ele>424.260316</ele>
        <time>2025-04-25T08:20:18.000Z</time>
      </trkpt>
      <trkpt lat="43.36555" lon="6.14941">
        <ele>424.510173</ele>
        <time>2025-04-25T08:20:19.000Z</time>
      </trkpt>
      <trkpt lat="43.36555" lon="6.14941">
        <ele>424.510173</ele>
        <time>2025-04-25T08:20:19.000Z</time>
      </trkpt>
      <trkpt lat="43.36556" lon="6.14947">
        <ele>424.793976</ele>
        <time>2025-04-25T08:20:20.000Z</time>
      </trkpt>
      <trkpt lat="43.36556" lon="6.14947">
        <ele>424.793976</ele>
        <time>2025-04-25T08:20:20.000Z</time>
      </trkpt>
      <trkpt lat="43.36557" lon="6.14952">
        <ele>425.044238</ele>
        <time>2025-04-25T08:20:21.000Z</time>
      </trkpt>
      <trkpt lat="43.36557" lon="6.14952">
        <ele>425.044238</ele>
        <time>2025-04-25T08:20:21.000Z</time>
      </trkpt>
      <trkpt lat="43.36557" lon="6.14957">
        <ele>425.294501</ele>
        <time>2025-04-25T08:20:22.000Z</time>
      </trkpt>
      <trkpt lat="43.36557" lon="6.14957">
        <ele>425.294501</ele>
        <time>2025-04-25T08:20:22.000Z</time>
      </trkpt>
      <trkpt lat="43.36557" lon="6.14962">
        <ele>425.564553</ele>
        <time>2025-04-25T08:20:23.000Z</time>
      </trkpt>
      <trkpt lat="43.36558" lon="6.14967">
        <ele>425.799985</ele>
        <time>2025-04-25T08:20:24.000Z</time>
      </trkpt>
      <trkpt lat="43.36558" lon="6.14967">
        <ele>425.799985</ele>
        <time>2025-04-25T08:20:24.000Z</time>
      </trkpt>
      <trkpt lat="43.36558" lon="6.14972">
        <ele>426.055193</ele>
        <time>2025-04-25T08:20:25.000Z</time>
      </trkpt>
      <trkpt lat="43.36558" lon="6.14972">
        <ele>426.055193</ele>
        <time>2025-04-25T08:20:25.000Z</time>
      </trkpt>
      <trkpt lat="43.36559" lon="6.14975">
        <ele>426.219878</ele>
        <time>2025-04-25T08:20:26.000Z</time>
      </trkpt>
      <trkpt lat="43.36559" lon="6.14975">
        <ele>426.219878</ele>
        <time>2025-04-25T08:20:26.000Z</time>
      </trkpt>
      <trkpt lat="43.36559" lon="6.14979">
        <ele>426.353205</ele>
        <time>2025-04-25T08:20:27.000Z</time>
      </trkpt>
      <trkpt lat="43.36559" lon="6.14984">
        <ele>426.523723</ele>
        <time>2025-04-25T08:20:28.000Z</time>
      </trkpt>
      <trkpt lat="43.36559" lon="6.14984">
        <ele>426.523723</ele>
        <time>2025-04-25T08:20:28.000Z</time>
      </trkpt>
      <trkpt lat="43.36559" lon="6.14988">
        <ele>426.669217</ele>
        <time>2025-04-25T08:20:29.000Z</time>
      </trkpt>
      <trkpt lat="43.36559" lon="6.14988">
        <ele>426.669217</ele>
        <time>2025-04-25T08:20:29.000Z</time>
      </trkpt>
      <trkpt lat="43.3656" lon="6.14992">
        <ele>426.832579</ele>
        <time>2025-04-25T08:20:30.000Z</time>
      </trkpt>
      <trkpt lat="43.3656" lon="6.14997">
        <ele>427.00194</ele>
        <time>2025-04-25T08:20:31.000Z</time>
      </trkpt>
      <trkpt lat="43.3656" lon="6.14997">
        <ele>427.00194</ele>
        <time>2025-04-25T08:20:31.000Z</time>
      </trkpt>
      <trkpt lat="43.3656" lon="6.15002">
        <ele>427.168879</ele>
        <time>2025-04-25T08:20:32.000Z</time>
      </trkpt>
      <trkpt lat="43.3656" lon="6.15006">
        <ele>427.320223</ele>
        <time>2025-04-25T08:20:33.000Z</time>
      </trkpt>
      <trkpt lat="43.3656" lon="6.15006">
        <ele>427.320223</ele>
        <time>2025-04-25T08:20:33.000Z</time>
      </trkpt>
      <trkpt lat="43.3656" lon="6.1501">
        <ele>427.457153</ele>
        <time>2025-04-25T08:20:34.000Z</time>
      </trkpt>
      <trkpt lat="43.3656" lon="6.1501">
        <ele>427.457153</ele>
        <time>2025-04-25T08:20:34.000Z</time>
      </trkpt>
      <trkpt lat="43.3656" lon="6.15015">
        <ele>427.670275</ele>
        <time>2025-04-25T08:20:35.000Z</time>
      </trkpt>
      <trkpt lat="43.36561" lon="6.1502">
        <ele>427.837214</ele>
        <time>2025-04-25T08:20:36.000Z</time>
      </trkpt>
      <trkpt lat="43.36561" lon="6.1502">
        <ele>427.837214</ele>
        <time>2025-04-25T08:20:36.000Z</time>
      </trkpt>
      <trkpt lat="43.36561" lon="6.15025">
        <ele>427.999368</ele>
        <time>2025-04-25T08:20:37.000Z</time>
      </trkpt>
      <trkpt lat="43.36561" lon="6.1503">
        <ele>428.204764</ele>
        <time>2025-04-25T08:20:38.000Z</time>
      </trkpt>
      <trkpt lat="43.36561" lon="6.1503">
        <ele>428.204764</ele>
        <time>2025-04-25T08:20:38.000Z</time>
      </trkpt>
      <trkpt lat="43.3656" lon="6.15036">
        <ele>428.396772</ele>
        <time>2025-04-25T08:20:39.000Z</time>
      </trkpt>
      <trkpt lat="43.3656" lon="6.15036">
        <ele>428.396772</ele>
        <time>2025-04-25T08:20:39.000Z</time>
      </trkpt>
      <trkpt lat="43.3656" lon="6.15041">
        <ele>428.580546</ele>
        <time>2025-04-25T08:20:40.000Z</time>
      </trkpt>
      <trkpt lat="43.3656" lon="6.15047">
        <ele>428.800355</ele>
        <time>2025-04-25T08:20:41.000Z</time>
      </trkpt>
      <trkpt lat="43.3656" lon="6.15047">
        <ele>428.800355</ele>
        <time>2025-04-25T08:20:41.000Z</time>
      </trkpt>
      <trkpt lat="43.36561" lon="6.15051">
        <ele>428.956566</ele>
        <time>2025-04-25T08:20:42.000Z</time>
      </trkpt>
      <trkpt lat="43.36561" lon="6.15056">
        <ele>429.143944</ele>
        <time>2025-04-25T08:20:43.000Z</time>
      </trkpt>
      <trkpt lat="43.36561" lon="6.15056">
        <ele>429.143944</ele>
        <time>2025-04-25T08:20:43.000Z</time>
      </trkpt>
      <trkpt lat="43.36561" lon="6.15062">
        <ele>429.350294</ele>
        <time>2025-04-25T08:20:44.000Z</time>
      </trkpt>
      <trkpt lat="43.36561" lon="6.15062">
        <ele>429.350294</ele>
        <time>2025-04-25T08:20:44.000Z</time>
      </trkpt>
      <trkpt lat="43.36562" lon="6.15067">
        <ele>429.527972</ele>
        <time>2025-04-25T08:20:45.000Z</time>
      </trkpt>
      <trkpt lat="43.36562" lon="6.15071">
        <ele>429.691334</ele>
        <time>2025-04-25T08:20:46.000Z</time>
      </trkpt>
      <trkpt lat="43.36562" lon="6.15071">
        <ele>429.691334</ele>
        <time>2025-04-25T08:20:46.000Z</time>
      </trkpt>
      <trkpt lat="43.36562" lon="6.15077">
        <ele>429.896729</ele>
        <time>2025-04-25T08:20:47.000Z</time>
      </trkpt>
      <trkpt lat="43.36562" lon="6.15082">
        <ele>430.062486</ele>
        <time>2025-04-25T08:20:48.000Z</time>
      </trkpt>
      <trkpt lat="43.36562" lon="6.15082">
        <ele>430.062486</ele>
        <time>2025-04-25T08:20:48.000Z</time>
      </trkpt>
      <trkpt lat="43.36562" lon="6.15087">
        <ele>430.264278</ele>
        <time>2025-04-25T08:20:49.000Z</time>
      </trkpt>
      <trkpt lat="43.36562" lon="6.15094">
        <ele>430.510112</ele>
        <time>2025-04-25T08:20:50.000Z</time>
      </trkpt>
      <trkpt lat="43.36562" lon="6.15094">
        <ele>430.510112</ele>
        <time>2025-04-25T08:20:50.000Z</time>
      </trkpt>
      <trkpt lat="43.36562" lon="6.15099">
        <ele>430.693887</ele>
        <time>2025-04-25T08:20:51.000Z</time>
      </trkpt>
      <trkpt lat="43.36562" lon="6.15099">
        <ele>430.693887</ele>
        <time>2025-04-25T08:20:51.000Z</time>
      </trkpt>
      <trkpt lat="43.36562" lon="6.15104">
        <ele>430.881265</ele>
        <time>2025-04-25T08:20:52.000Z</time>
      </trkpt>
      <trkpt lat="43.36562" lon="6.15104">
        <ele>430.881265</ele>
        <time>2025-04-25T08:20:52.000Z</time>
      </trkpt>
      <trkpt lat="43.36562" lon="6.1511">
        <ele>431.083057</ele>
        <time>2025-04-25T08:20:53.000Z</time>
      </trkpt>
      <trkpt lat="43.36561" lon="6.15117">
        <ele>431.336075</ele>
        <time>2025-04-25T08:20:54.000Z</time>
      </trkpt>
      <trkpt lat="43.36561" lon="6.15117">
        <ele>431.336075</ele>
        <time>2025-04-25T08:20:54.000Z</time>
      </trkpt>
      <trkpt lat="43.36561" lon="6.15123">
        <ele>431.546012</ele>
        <time>2025-04-25T08:20:55.000Z</time>
      </trkpt>
      <trkpt lat="43.36561" lon="6.15123">
        <ele>431.546012</ele>
        <time>2025-04-25T08:20:55.000Z</time>
      </trkpt>
      <trkpt lat="43.36561" lon="6.15128">
        <ele>431.726183</ele>
        <time>2025-04-25T08:20:56.000Z</time>
      </trkpt>
      <trkpt lat="43.36561" lon="6.15128">
        <ele>431.726183</ele>
        <time>2025-04-25T08:20:56.000Z</time>
      </trkpt>
      <trkpt lat="43.3656" lon="6.15133">
        <ele>431.918191</ele>
        <time>2025-04-25T08:20:57.000Z</time>
      </trkpt>
      <trkpt lat="43.3656" lon="6.15133">
        <ele>431.918191</ele>
        <time>2025-04-25T08:20:57.000Z</time>
      </trkpt>
      <trkpt lat="43.3656" lon="6.15138">
        <ele>432.105569</ele>
        <time>2025-04-25T08:20:58.000Z</time>
      </trkpt>
      <trkpt lat="43.3656" lon="6.15138">
        <ele>432.105569</ele>
        <time>2025-04-25T08:20:58.000Z</time>
      </trkpt>
      <trkpt lat="43.3656" lon="6.15144">
        <ele>432.297129</ele>
        <time>2025-04-25T08:20:59.000Z</time>
      </trkpt>
      <trkpt lat="43.3656" lon="6.15144">
        <ele>432.297129</ele>
        <time>2025-04-25T08:20:59.000Z</time>
      </trkpt>
      <trkpt lat="43.36561" lon="6.15149">
        <ele>432.505434</ele>
        <time>2025-04-25T08:21:00.000Z</time>
      </trkpt>
      <trkpt lat="43.36561" lon="6.15149">
        <ele>432.505434</ele>
        <time>2025-04-25T08:21:00.000Z</time>
      </trkpt>
      <trkpt lat="43.36562" lon="6.15156">
        <ele>432.752719</ele>
        <time>2025-04-25T08:21:02.000Z</time>
      </trkpt>
      <trkpt lat="43.36562" lon="6.15156">
        <ele>432.752719</ele>
        <time>2025-04-25T08:21:02.000Z</time>
      </trkpt>
      <trkpt lat="43.36563" lon="6.15161">
        <ele>432.932664</ele>
        <time>2025-04-25T08:21:03.000Z</time>
      </trkpt>
      <trkpt lat="43.36563" lon="6.15161">
        <ele>432.932664</ele>
        <time>2025-04-25T08:21:03.000Z</time>
      </trkpt>
      <trkpt lat="43.36564" lon="6.15167">
        <ele>433.160378</ele>
        <time>2025-04-25T08:21:04.000Z</time>
      </trkpt>
      <trkpt lat="43.36564" lon="6.15167">
        <ele>433.160378</ele>
        <time>2025-04-25T08:21:04.000Z</time>
      </trkpt>
      <trkpt lat="43.36564" lon="6.15174">
        <ele>433.405411</ele>
        <time>2025-04-25T08:21:05.000Z</time>
      </trkpt>
      <trkpt lat="43.36564" lon="6.15174">
        <ele>433.405411</ele>
        <time>2025-04-25T08:21:05.000Z</time>
      </trkpt>
      <trkpt lat="43.36564" lon="6.15177">
        <ele>433.547336</ele>
        <time>2025-04-25T08:21:06.000Z</time>
      </trkpt>
      <trkpt lat="43.36564" lon="6.15177">
        <ele>433.547336</ele>
        <time>2025-04-25T08:21:06.000Z</time>
      </trkpt>
      <trkpt lat="43.36563" lon="6.15184">
        <ele>433.799114</ele>
        <time>2025-04-25T08:21:07.000Z</time>
      </trkpt>
      <trkpt lat="43.36563" lon="6.15184">
        <ele>433.799114</ele>
        <time>2025-04-25T08:21:07.000Z</time>
      </trkpt>
      <trkpt lat="43.36562" lon="6.1519">
        <ele>433.997726</ele>
        <time>2025-04-25T08:21:08.000Z</time>
      </trkpt>
      <trkpt lat="43.36562" lon="6.1519">
        <ele>433.997726</ele>
        <time>2025-04-25T08:21:08.000Z</time>
      </trkpt>
      <trkpt lat="43.36561" lon="6.15194">
        <ele>434.143747</ele>
        <time>2025-04-25T08:21:09.000Z</time>
      </trkpt>
      <trkpt lat="43.36561" lon="6.15194">
        <ele>434.143747</ele>
        <time>2025-04-25T08:21:09.000Z</time>
      </trkpt>
      <trkpt lat="43.3656" lon="6.15198">
        <ele>434.309141</ele>
        <time>2025-04-25T08:21:10.000Z</time>
      </trkpt>
      <trkpt lat="43.3656" lon="6.15198">
        <ele>434.309141</ele>
        <time>2025-04-25T08:21:10.000Z</time>
      </trkpt>
      <trkpt lat="43.36558" lon="6.15201">
        <ele>434.475331</ele>
        <time>2025-04-25T08:21:11.000Z</time>
      </trkpt>
      <trkpt lat="43.36558" lon="6.15201">
        <ele>434.475331</ele>
        <time>2025-04-25T08:21:11.000Z</time>
      </trkpt>
      <trkpt lat="43.36555" lon="6.15205">
        <ele>434.651986</ele>
        <time>2025-04-25T08:21:12.000Z</time>
      </trkpt>
      <trkpt lat="43.36555" lon="6.15205">
        <ele>434.651986</ele>
        <time>2025-04-25T08:21:12.000Z</time>
      </trkpt>
      <trkpt lat="43.36553" lon="6.15207">
        <ele>434.79508</ele>
        <time>2025-04-25T08:21:13.000Z</time>
      </trkpt>
      <trkpt lat="43.36553" lon="6.15207">
        <ele>434.79508</ele>
        <time>2025-04-25T08:21:13.000Z</time>
      </trkpt>
      <trkpt lat="43.3655" lon="6.1521">
        <ele>434.976826</ele>
        <time>2025-04-25T08:21:14.000Z</time>
      </trkpt>
      <trkpt lat="43.3655" lon="6.1521">
        <ele>434.976826</ele>
        <time>2025-04-25T08:21:14.000Z</time>
      </trkpt>
      <trkpt lat="43.36546" lon="6.15213">
        <ele>435.198319</ele>
        <time>2025-04-25T08:21:15.000Z</time>
      </trkpt>
      <trkpt lat="43.36546" lon="6.15213">
        <ele>435.198319</ele>
        <time>2025-04-25T08:21:15.000Z</time>
      </trkpt>
      <trkpt lat="43.36543" lon="6.15216">
        <ele>435.345162</ele>
        <time>2025-04-25T08:21:15.000Z</time>
      </trkpt>
      <trkpt lat="43.36543" lon="6.15216">
        <ele>435.345162</ele>
        <time>2025-04-25T08:21:15.000Z</time>
      </trkpt>
      <trkpt lat="43.3654" lon="6.15218">
        <ele>435.513232</ele>
        <time>2025-04-25T08:21:17.000Z</time>
      </trkpt>
      <trkpt lat="43.3654" lon="6.15218">
        <ele>435.513232</ele>
        <time>2025-04-25T08:21:17.000Z</time>
      </trkpt>
      <trkpt lat="43.36538" lon="6.15222">
        <ele>435.678209</ele>
        <time>2025-04-25T08:21:18.000Z</time>
      </trkpt>
      <trkpt lat="43.36538" lon="6.15222">
        <ele>435.678209</ele>
        <time>2025-04-25T08:21:18.000Z</time>
      </trkpt>
      <trkpt lat="43.36536" lon="6.15226">
        <ele>435.818984</ele>
        <time>2025-04-25T08:21:19.000Z</time>
      </trkpt>
      <trkpt lat="43.36536" lon="6.15226">
        <ele>435.818984</ele>
        <time>2025-04-25T08:21:19.000Z</time>
      </trkpt>
      <trkpt lat="43.36536" lon="6.1523">
        <ele>435.964869</ele>
        <time>2025-04-25T08:21:20.000Z</time>
      </trkpt>
      <trkpt lat="43.36536" lon="6.1523">
        <ele>435.964869</ele>
        <time>2025-04-25T08:21:20.000Z</time>
      </trkpt>
      <trkpt lat="43.36535" lon="6.15233">
        <ele>436.070898</ele>
        <time>2025-04-25T08:21:21.000Z</time>
      </trkpt>
      <trkpt lat="43.36535" lon="6.15233">
        <ele>436.070898</ele>
        <time>2025-04-25T08:21:21.000Z</time>
      </trkpt>
      <trkpt lat="43.36534" lon="6.15236">
        <ele>436.195069</ele>
        <time>2025-04-25T08:21:22.000Z</time>
      </trkpt>
      <trkpt lat="43.36534" lon="6.15236">
        <ele>436.195069</ele>
        <time>2025-04-25T08:21:22.000Z</time>
      </trkpt>
      <trkpt lat="43.36532" lon="6.1524">
        <ele>436.353057</ele>
        <time>2025-04-25T08:21:23.000Z</time>
      </trkpt>
      <trkpt lat="43.36532" lon="6.1524">
        <ele>436.353057</ele>
        <time>2025-04-25T08:21:23.000Z</time>
      </trkpt>
      <trkpt lat="43.3653" lon="6.15244">
        <ele>436.511828</ele>
        <time>2025-04-25T08:21:24.000Z</time>
      </trkpt>
      <trkpt lat="43.3653" lon="6.15244">
        <ele>436.511828</ele>
        <time>2025-04-25T08:21:24.000Z</time>
      </trkpt>
      <trkpt lat="43.36527" lon="6.15247">
        <ele>436.680226</ele>
        <time>2025-04-25T08:21:25.000Z</time>
      </trkpt>
      <trkpt lat="43.36527" lon="6.15247">
        <ele>436.680226</ele>
        <time>2025-04-25T08:21:25.000Z</time>
      </trkpt>
      <trkpt lat="43.36524" lon="6.15251">
        <ele>436.865873</ele>
        <time>2025-04-25T08:21:26.000Z</time>
      </trkpt>
      <trkpt lat="43.36524" lon="6.15251">
        <ele>436.865873</ele>
        <time>2025-04-25T08:21:26.000Z</time>
      </trkpt>
      <trkpt lat="43.36522" lon="6.15254">
        <ele>437.026537</ele>
        <time>2025-04-25T08:21:27.000Z</time>
      </trkpt>
      <trkpt lat="43.36522" lon="6.15254">
        <ele>437.026537</ele>
        <time>2025-04-25T08:21:27.000Z</time>
      </trkpt>
      <trkpt lat="43.36519" lon="6.15257">
        <ele>437.18782</ele>
        <time>2025-04-25T08:21:28.000Z</time>
      </trkpt>
      <trkpt lat="43.36519" lon="6.15257">
        <ele>437.18782</ele>
        <time>2025-04-25T08:21:28.000Z</time>
      </trkpt>
      <trkpt lat="43.36517" lon="6.15261">
        <ele>437.346086</ele>
        <time>2025-04-25T08:21:29.000Z</time>
      </trkpt>
      <trkpt lat="43.36517" lon="6.15261">
        <ele>437.346086</ele>
        <time>2025-04-25T08:21:29.000Z</time>
      </trkpt>
      <trkpt lat="43.36515" lon="6.15264">
        <ele>437.501246</ele>
        <time>2025-04-25T08:21:30.000Z</time>
      </trkpt>
      <trkpt lat="43.36515" lon="6.15264">
        <ele>437.501246</ele>
        <time>2025-04-25T08:21:30.000Z</time>
      </trkpt>
      <trkpt lat="43.36512" lon="6.15269">
        <ele>437.686886</ele>
        <time>2025-04-25T08:21:31.000Z</time>
      </trkpt>
      <trkpt lat="43.3651" lon="6.15272">
        <ele>437.848169</ele>
        <time>2025-04-25T08:21:32.000Z</time>
      </trkpt>
      <trkpt lat="43.3651" lon="6.15272">
        <ele>437.848169</ele>
        <time>2025-04-25T08:21:32.000Z</time>
      </trkpt>
      <trkpt lat="43.36508" lon="6.15276">
        <ele>438.014639</ele>
        <time>2025-04-25T08:21:33.000Z</time>
      </trkpt>
      <trkpt lat="43.36508" lon="6.15276">
        <ele>438.014639</ele>
        <time>2025-04-25T08:21:33.000Z</time>
      </trkpt>
      <trkpt lat="43.36506" lon="6.15281">
        <ele>438.197013</ele>
        <time>2025-04-25T08:21:34.000Z</time>
      </trkpt>
      <trkpt lat="43.36506" lon="6.15281">
        <ele>438.197013</ele>
        <time>2025-04-25T08:21:34.000Z</time>
      </trkpt>
      <trkpt lat="43.36504" lon="6.15286">
        <ele>438.372836</ele>
        <time>2025-04-25T08:21:35.000Z</time>
      </trkpt>
      <trkpt lat="43.36503" lon="6.1529">
        <ele>438.55676</ele>
        <time>2025-04-25T08:21:36.000Z</time>
      </trkpt>
      <trkpt lat="43.36503" lon="6.1529">
        <ele>438.55676</ele>
        <time>2025-04-25T08:21:36.000Z</time>
      </trkpt>
      <trkpt lat="43.36501" lon="6.15295">
        <ele>438.708624</ele>
        <time>2025-04-25T08:21:37.000Z</time>
      </trkpt>
      <trkpt lat="43.36501" lon="6.15295">
        <ele>438.708624</ele>
        <time>2025-04-25T08:21:37.000Z</time>
      </trkpt>
      <trkpt lat="43.36499" lon="6.153">
        <ele>438.910593</ele>
        <time>2025-04-25T08:21:38.000Z</time>
      </trkpt>
      <trkpt lat="43.36499" lon="6.153">
        <ele>438.910593</ele>
        <time>2025-04-25T08:21:38.000Z</time>
      </trkpt>
      <trkpt lat="43.36497" lon="6.15305">
        <ele>439.094516</ele>
        <time>2025-04-25T08:21:39.000Z</time>
      </trkpt>
      <trkpt lat="43.36497" lon="6.15305">
        <ele>439.094516</ele>
        <time>2025-04-25T08:21:39.000Z</time>
      </trkpt>
      <trkpt lat="43.36495" lon="6.15308">
        <ele>439.263515</ele>
        <time>2025-04-25T08:21:40.000Z</time>
      </trkpt>
      <trkpt lat="43.36495" lon="6.15308">
        <ele>439.263515</ele>
        <time>2025-04-25T08:21:40.000Z</time>
      </trkpt>
      <trkpt lat="43.36493" lon="6.15312">
        <ele>439.432513</ele>
        <time>2025-04-25T08:21:41.000Z</time>
      </trkpt>
      <trkpt lat="43.36493" lon="6.15312">
        <ele>439.432513</ele>
        <time>2025-04-25T08:21:41.000Z</time>
      </trkpt>
      <trkpt lat="43.36491" lon="6.15315">
        <ele>439.566408</ele>
        <time>2025-04-25T08:21:42.000Z</time>
      </trkpt>
      <trkpt lat="43.36491" lon="6.15315">
        <ele>439.566408</ele>
        <time>2025-04-25T08:21:42.000Z</time>
      </trkpt>
      <trkpt lat="43.36489" lon="6.15319">
        <ele>439.697381</ele>
        <time>2025-04-25T08:21:43.000Z</time>
      </trkpt>
      <trkpt lat="43.36489" lon="6.15319">
        <ele>439.697381</ele>
        <time>2025-04-25T08:21:43.000Z</time>
      </trkpt>
      <trkpt lat="43.36487" lon="6.15321">
        <ele>439.826277</ele>
        <time>2025-04-25T08:21:44.000Z</time>
      </trkpt>
      <trkpt lat="43.36487" lon="6.15321">
        <ele>439.826277</ele>
        <time>2025-04-25T08:21:44.000Z</time>
      </trkpt>
      <trkpt lat="43.36485" lon="6.15324">
        <ele>439.957653</ele>
        <time>2025-04-25T08:21:45.000Z</time>
      </trkpt>
      <trkpt lat="43.36485" lon="6.15324">
        <ele>439.957653</ele>
        <time>2025-04-25T08:21:45.000Z</time>
      </trkpt>
      <trkpt lat="43.36485" lon="6.15326">
        <ele>440.002079</ele>
        <time>2025-04-25T08:21:46.000Z</time>
      </trkpt>
      <trkpt lat="43.36485" lon="6.15326">
        <ele>440.002079</ele>
        <time>2025-04-25T08:21:46.000Z</time>
      </trkpt>
      <trkpt lat="43.36484" lon="6.15328">
        <ele>440.09709</ele>
        <time>2025-04-25T08:21:47.000Z</time>
      </trkpt>
      <trkpt lat="43.36484" lon="6.15328">
        <ele>440.09709</ele>
        <time>2025-04-25T08:21:47.000Z</time>
      </trkpt>
      <trkpt lat="43.36484" lon="6.1533">
        <ele>440.175727</ele>
        <time>2025-04-25T08:21:48.000Z</time>
      </trkpt>
      <trkpt lat="43.36484" lon="6.1533">
        <ele>440.175727</ele>
        <time>2025-04-25T08:21:48.000Z</time>
      </trkpt>
      <trkpt lat="43.36483" lon="6.15334">
        <ele>440.28168</ele>
        <time>2025-04-25T08:21:49.000Z</time>
      </trkpt>
      <trkpt lat="43.36483" lon="6.15334">
        <ele>440.28168</ele>
        <time>2025-04-25T08:21:49.000Z</time>
      </trkpt>
      <trkpt lat="43.36487" lon="6.15338">
        <ele>440.505239</ele>
        <time>2025-04-25T08:21:50.000Z</time>
      </trkpt>
      <trkpt lat="43.36487" lon="6.15338">
        <ele>440.505239</ele>
        <time>2025-04-25T08:21:50.000Z</time>
      </trkpt>
      <trkpt lat="43.3649" lon="6.15342">
        <ele>440.679516</ele>
        <time>2025-04-25T08:21:51.000Z</time>
      </trkpt>
      <trkpt lat="43.3649" lon="6.15342">
        <ele>440.679516</ele>
        <time>2025-04-25T08:21:51.000Z</time>
      </trkpt>
      <trkpt lat="43.36493" lon="6.15349">
        <ele>440.976961</ele>
        <time>2025-04-25T08:21:52.000Z</time>
      </trkpt>
      <trkpt lat="43.36496" lon="6.15354">
        <ele>441.186563</ele>
        <time>2025-04-25T08:21:53.000Z</time>
      </trkpt>
      <trkpt lat="43.36496" lon="6.15354">
        <ele>441.186563</ele>
        <time>2025-04-25T08:21:53.000Z</time>
      </trkpt>
      <trkpt lat="43.36497" lon="6.15359">
        <ele>441.339966</ele>
        <time>2025-04-25T08:21:54.000Z</time>
      </trkpt>
      <trkpt lat="43.36498" lon="6.15363">
        <ele>441.517668</ele>
        <time>2025-04-25T08:21:55.000Z</time>
      </trkpt>
      <trkpt lat="43.36498" lon="6.15363">
        <ele>441.517668</ele>
        <time>2025-04-25T08:21:55.000Z</time>
      </trkpt>
      <trkpt lat="43.365" lon="6.15368">
        <ele>441.687005</ele>
        <time>2025-04-25T08:21:56.000Z</time>
      </trkpt>
      <trkpt lat="43.36503" lon="6.15372">
        <ele>441.869379</ele>
        <time>2025-04-25T08:21:57.000Z</time>
      </trkpt>
      <trkpt lat="43.36504" lon="6.15375">
        <ele>442.008419</ele>
        <time>2025-04-25T08:21:58.000Z</time>
      </trkpt>
      <trkpt lat="43.36504" lon="6.15375">
        <ele>442.008419</ele>
        <time>2025-04-25T08:21:58.000Z</time>
      </trkpt>
      <trkpt lat="43.36506" lon="6.15378">
        <ele>442.117503</ele>
        <time>2025-04-25T08:21:59.000Z</time>
      </trkpt>
      <trkpt lat="43.36507" lon="6.1538">
        <ele>442.229203</ele>
        <time>2025-04-25T08:22:12.000Z</time>
      </trkpt>
      <trkpt lat="43.36509" lon="6.15383">
        <ele>442.330704</ele>
        <time>2025-04-25T08:22:13.000Z</time>
      </trkpt>
      <trkpt lat="43.36509" lon="6.15384">
        <ele>442.394643</ele>
        <time>2025-04-25T08:22:14.000Z</time>
      </trkpt>
      <trkpt lat="43.36509" lon="6.15387">
        <ele>442.497285</ele>
        <time>2025-04-25T08:22:15.000Z</time>
      </trkpt>
      <trkpt lat="43.3651" lon="6.1539">
        <ele>442.596618</ele>
        <time>2025-04-25T08:22:16.000Z</time>
      </trkpt>
      <trkpt lat="43.36511" lon="6.15394">
        <ele>442.713682</ele>
        <time>2025-04-25T08:22:17.000Z</time>
      </trkpt>
      <trkpt lat="43.36511" lon="6.15394">
        <ele>442.713682</ele>
        <time>2025-04-25T08:22:17.000Z</time>
      </trkpt>
      <trkpt lat="43.36511" lon="6.15397">
        <ele>442.83909</ele>
        <time>2025-04-25T08:22:18.000Z</time>
      </trkpt>
      <trkpt lat="43.36512" lon="6.15402">
        <ele>442.997237</ele>
        <time>2025-04-25T08:22:19.000Z</time>
      </trkpt>
      <trkpt lat="43.36513" lon="6.15406">
        <ele>443.132422</ele>
        <time>2025-04-25T08:22:20.000Z</time>
      </trkpt>
      <trkpt lat="43.36514" lon="6.1541">
        <ele>443.301426</ele>
        <time>2025-04-25T08:22:21.000Z</time>
      </trkpt>
      <trkpt lat="43.36515" lon="6.15416">
        <ele>443.445648</ele>
        <time>2025-04-25T08:22:22.000Z</time>
      </trkpt>
      <trkpt lat="43.36515" lon="6.15416">
        <ele>443.445648</ele>
        <time>2025-04-25T08:22:22.000Z</time>
      </trkpt>
      <trkpt lat="43.36516" lon="6.15421">
        <ele>443.52613</ele>
        <time>2025-04-25T08:22:23.000Z</time>
      </trkpt>
      <trkpt lat="43.36517" lon="6.15427">
        <ele>443.611563</ele>
        <time>2025-04-25T08:22:24.000Z</time>
      </trkpt>
      <trkpt lat="43.36519" lon="6.15432">
        <ele>443.689426</ele>
        <time>2025-04-25T08:22:25.000Z</time>
      </trkpt>
      <trkpt lat="43.3652" lon="6.15437">
        <ele>443.761159</ele>
        <time>2025-04-25T08:22:26.000Z</time>
      </trkpt>
      <trkpt lat="43.36521" lon="6.15442">
        <ele>443.843837</ele>
        <time>2025-04-25T08:22:26.000Z</time>
      </trkpt>
      <trkpt lat="43.36523" lon="6.15448">
        <ele>443.93359</ele>
        <time>2025-04-25T08:22:28.000Z</time>
      </trkpt>
      <trkpt lat="43.36523" lon="6.15448">
        <ele>443.93359</ele>
        <time>2025-04-25T08:22:28.000Z</time>
      </trkpt>
      <trkpt lat="43.36524" lon="6.15454">
        <ele>444.017645</ele>
        <time>2025-04-25T08:22:29.000Z</time>
      </trkpt>
      <trkpt lat="43.36525" lon="6.15461">
        <ele>444.12154</ele>
        <time>2025-04-25T08:22:30.000Z</time>
      </trkpt>
      <trkpt lat="43.36526" lon="6.15466">
        <ele>444.197361</ele>
        <time>2025-04-25T08:22:31.000Z</time>
      </trkpt>
      <trkpt lat="43.36527" lon="6.15472">
        <ele>444.283311</ele>
        <time>2025-04-25T08:22:32.000Z</time>
      </trkpt>
      <trkpt lat="43.36528" lon="6.15477">
        <ele>444.359132</ele>
        <time>2025-04-25T08:22:33.000Z</time>
      </trkpt>
      <trkpt lat="43.36528" lon="6.15477">
        <ele>444.359132</ele>
        <time>2025-04-25T08:22:33.000Z</time>
      </trkpt>
      <trkpt lat="43.3653" lon="6.15482">
        <ele>444.441525</ele>
        <time>2025-04-25T08:22:34.000Z</time>
      </trkpt>
      <trkpt lat="43.36531" lon="6.15488">
        <ele>444.522588</ele>
        <time>2025-04-25T08:22:35.000Z</time>
      </trkpt>
      <trkpt lat="43.36533" lon="6.15493">
        <ele>444.605799</ele>
        <time>2025-04-25T08:22:36.000Z</time>
      </trkpt>
      <trkpt lat="43.36534" lon="6.15499">
        <ele>444.687102</ele>
        <time>2025-04-25T08:22:37.000Z</time>
      </trkpt>
      <trkpt lat="43.36535" lon="6.15504">
        <ele>444.768897</ele>
        <time>2025-04-25T08:22:38.000Z</time>
      </trkpt>
      <trkpt lat="43.36535" lon="6.15504">
        <ele>444.768897</ele>
        <time>2025-04-25T08:22:38.000Z</time>
      </trkpt>
      <trkpt lat="43.36536" lon="6.15509">
        <ele>444.843353</ele>
        <time>2025-04-25T08:22:39.000Z</time>
      </trkpt>
      <trkpt lat="43.36538" lon="6.15514">
        <ele>444.912372</ele>
        <time>2025-04-25T08:22:39.000Z</time>
      </trkpt>
      <trkpt lat="43.36539" lon="6.15518">
        <ele>444.979352</ele>
        <time>2025-04-25T08:22:41.000Z</time>
      </trkpt>
      <trkpt lat="43.36539" lon="6.15518">
        <ele>444.979352</ele>
        <time>2025-04-25T08:22:41.000Z</time>
      </trkpt>
      <trkpt lat="43.3654" lon="6.15523">
        <ele>445.049727</ele>
        <time>2025-04-25T08:22:42.000Z</time>
      </trkpt>
      <trkpt lat="43.36541" lon="6.15527">
        <ele>445.114371</ele>
        <time>2025-04-25T08:22:43.000Z</time>
      </trkpt>
      <trkpt lat="43.36541" lon="6.15527">
        <ele>445.114371</ele>
        <time>2025-04-25T08:22:43.000Z</time>
      </trkpt>
      <trkpt lat="43.36542" lon="6.15532">
        <ele>445.186103</ele>
        <time>2025-04-25T08:22:44.000Z</time>
      </trkpt>
      <trkpt lat="43.36543" lon="6.15537">
        <ele>445.258449</ele>
        <time>2025-04-25T08:22:45.000Z</time>
      </trkpt>
      <trkpt lat="43.36543" lon="6.15537">
        <ele>445.258449</ele>
        <time>2025-04-25T08:22:45.000Z</time>
      </trkpt>
      <trkpt lat="43.36544" lon="6.1554">
        <ele>445.314836</ele>
        <time>2025-04-25T08:22:46.000Z</time>
      </trkpt>
      <trkpt lat="43.36544" lon="6.1554">
        <ele>445.314836</ele>
        <time>2025-04-25T08:22:46.000Z</time>
      </trkpt>
      <trkpt lat="43.36544" lon="6.15545">
        <ele>445.379032</ele>
        <time>2025-04-25T08:22:47.000Z</time>
      </trkpt>
      <trkpt lat="43.36544" lon="6.15545">
        <ele>445.379032</ele>
        <time>2025-04-25T08:22:47.000Z</time>
      </trkpt>
      <trkpt lat="43.36545" lon="6.1555">
        <ele>445.449221</ele>
        <time>2025-04-25T08:22:48.000Z</time>
      </trkpt>
      <trkpt lat="43.36546" lon="6.15555">
        <ele>445.523677</ele>
        <time>2025-04-25T08:22:49.000Z</time>
      </trkpt>
      <trkpt lat="43.36546" lon="6.15555">
        <ele>445.523677</ele>
        <time>2025-04-25T08:22:49.000Z</time>
      </trkpt>
      <trkpt lat="43.36547" lon="6.1556">
        <ele>445.602224</ele>
        <time>2025-04-25T08:22:50.000Z</time>
      </trkpt>
      <trkpt lat="43.36547" lon="6.1556">
        <ele>445.602224</ele>
        <time>2025-04-25T08:22:50.000Z</time>
      </trkpt>
      <trkpt lat="43.36548" lon="6.15565">
        <ele>445.679588</ele>
        <time>2025-04-25T08:22:51.000Z</time>
      </trkpt>
      <trkpt lat="43.36548" lon="6.15565">
        <ele>445.679588</ele>
        <time>2025-04-25T08:22:51.000Z</time>
      </trkpt>
      <trkpt lat="43.36549" lon="6.15571">
        <ele>445.75541</ele>
        <time>2025-04-25T08:22:52.000Z</time>
      </trkpt>
      <trkpt lat="43.36549" lon="6.15571">
        <ele>445.75541</ele>
        <time>2025-04-25T08:22:52.000Z</time>
      </trkpt>
      <trkpt lat="43.36549" lon="6.15576">
        <ele>445.828521</ele>
        <time>2025-04-25T08:22:53.000Z</time>
      </trkpt>
      <trkpt lat="43.36551" lon="6.15581">
        <ele>445.909584</ele>
        <time>2025-04-25T08:22:54.000Z</time>
      </trkpt>
      <trkpt lat="43.36551" lon="6.15581">
        <ele>445.909584</ele>
        <time>2025-04-25T08:22:54.000Z</time>
      </trkpt>
      <trkpt lat="43.36552" lon="6.15586">
        <ele>445.98932</ele>
        <time>2025-04-25T08:22:55.000Z</time>
      </trkpt>
      <trkpt lat="43.36552" lon="6.15586">
        <ele>445.98932</ele>
        <time>2025-04-25T08:22:55.000Z</time>
      </trkpt>
      <trkpt lat="43.36553" lon="6.1559">
        <ele>446.054967</ele>
        <time>2025-04-25T08:22:56.000Z</time>
      </trkpt>
      <trkpt lat="43.36553" lon="6.1559">
        <ele>446.054967</ele>
        <time>2025-04-25T08:22:56.000Z</time>
      </trkpt>
      <trkpt lat="43.36554" lon="6.15594">
        <ele>446.104548</ele>
        <time>2025-04-25T08:22:57.000Z</time>
      </trkpt>
      <trkpt lat="43.36554" lon="6.15594">
        <ele>446.104548</ele>
        <time>2025-04-25T08:22:57.000Z</time>
      </trkpt>
      <trkpt lat="43.36556" lon="6.15598">
        <ele>446.173813</ele>
        <time>2025-04-25T08:22:58.000Z</time>
      </trkpt>
      <trkpt lat="43.36556" lon="6.15598">
        <ele>446.173813</ele>
        <time>2025-04-25T08:22:58.000Z</time>
      </trkpt>
      <trkpt lat="43.36557" lon="6.15604">
        <ele>446.253743</ele>
        <time>2025-04-25T08:22:59.000Z</time>
      </trkpt>
      <trkpt lat="43.36557" lon="6.15604">
        <ele>446.253743</ele>
        <time>2025-04-25T08:22:59.000Z</time>
      </trkpt>
      <trkpt lat="43.36558" lon="6.15608">
        <ele>446.324743</ele>
        <time>2025-04-25T08:23:00.000Z</time>
      </trkpt>
      <trkpt lat="43.36558" lon="6.15608">
        <ele>446.324743</ele>
        <time>2025-04-25T08:23:00.000Z</time>
      </trkpt>
      <trkpt lat="43.3656" lon="6.15613">
        <ele>446.405155</ele>
        <time>2025-04-25T08:23:01.000Z</time>
      </trkpt>
      <trkpt lat="43.3656" lon="6.15613">
        <ele>446.405155</ele>
        <time>2025-04-25T08:23:01.000Z</time>
      </trkpt>
      <trkpt lat="43.36561" lon="6.15619">
        <ele>446.483713</ele>
        <time>2025-04-25T08:23:02.000Z</time>
      </trkpt>
      <trkpt lat="43.36562" lon="6.15623">
        <ele>446.557682</ele>
        <time>2025-04-25T08:23:03.000Z</time>
      </trkpt>
      <trkpt lat="43.36562" lon="6.15623">
        <ele>446.557682</ele>
        <time>2025-04-25T08:23:03.000Z</time>
      </trkpt>
      <trkpt lat="43.36564" lon="6.15629">
        <ele>446.649655</ele>
        <time>2025-04-25T08:23:04.000Z</time>
      </trkpt>
      <trkpt lat="43.36564" lon="6.15629">
        <ele>446.649655</ele>
        <time>2025-04-25T08:23:04.000Z</time>
      </trkpt>
      <trkpt lat="43.36566" lon="6.15634">
        <ele>446.730717</ele>
        <time>2025-04-25T08:23:05.000Z</time>
      </trkpt>
      <trkpt lat="43.36567" lon="6.15641">
        <ele>446.821678</ele>
        <time>2025-04-25T08:23:06.000Z</time>
      </trkpt>
      <trkpt lat="43.36567" lon="6.15641">
        <ele>446.821678</ele>
        <time>2025-04-25T08:23:06.000Z</time>
      </trkpt>
      <trkpt lat="43.36568" lon="6.15647">
        <ele>446.918452</ele>
        <time>2025-04-25T08:23:07.000Z</time>
      </trkpt>
      <trkpt lat="43.36568" lon="6.15655">
        <ele>446.797065</ele>
        <time>2025-04-25T08:23:08.000Z</time>
      </trkpt>
      <trkpt lat="43.36568" lon="6.15655">
        <ele>446.797065</ele>
        <time>2025-04-25T08:23:08.000Z</time>
      </trkpt>
      <trkpt lat="43.36568" lon="6.15662">
        <ele>446.630834</ele>
        <time>2025-04-25T08:23:09.000Z</time>
      </trkpt>
      <trkpt lat="43.36568" lon="6.15669">
        <ele>446.439714</ele>
        <time>2025-04-25T08:23:10.000Z</time>
      </trkpt>
      <trkpt lat="43.36568" lon="6.15676">
        <ele>446.270944</ele>
        <time>2025-04-25T08:23:11.000Z</time>
      </trkpt>
      <trkpt lat="43.3657" lon="6.15682">
        <ele>446.104432</ele>
        <time>2025-04-25T08:23:12.000Z</time>
      </trkpt>
      <trkpt lat="43.36571" lon="6.15689">
        <ele>445.929398</ele>
        <time>2025-04-25T08:23:13.000Z</time>
      </trkpt>
      <trkpt lat="43.36572" lon="6.15694">
        <ele>445.780624</ele>
        <time>2025-04-25T08:23:14.000Z</time>
      </trkpt>
      <trkpt lat="43.36574" lon="6.157">
        <ele>445.623145</ele>
        <time>2025-04-25T08:23:15.000Z</time>
      </trkpt>
      <trkpt lat="43.36575" lon="6.15704">
        <ele>445.509384</ele>
        <time>2025-04-25T08:23:16.000Z</time>
      </trkpt>
      <trkpt lat="43.36575" lon="6.15704">
        <ele>445.509384</ele>
        <time>2025-04-25T08:23:16.000Z</time>
      </trkpt>
      <trkpt lat="43.36577" lon="6.15708">
        <ele>445.397481</ele>
        <time>2025-04-25T08:23:17.000Z</time>
      </trkpt>
      <trkpt lat="43.36578" lon="6.15712">
        <ele>445.275721</ele>
        <time>2025-04-25T08:23:18.000Z</time>
      </trkpt>
      <trkpt lat="43.36581" lon="6.15717">
        <ele>445.129225</ele>
        <time>2025-04-25T08:23:19.000Z</time>
      </trkpt>
      <trkpt lat="43.36583" lon="6.15721">
        <ele>444.988652</ele>
        <time>2025-04-25T08:23:20.000Z</time>
      </trkpt>
      <trkpt lat="43.36583" lon="6.15721">
        <ele>444.988652</ele>
        <time>2025-04-25T08:23:20.000Z</time>
      </trkpt>
      <trkpt lat="43.36587" lon="6.15724">
        <ele>444.841339</ele>
        <time>2025-04-25T08:23:21.000Z</time>
      </trkpt>
      <trkpt lat="43.36591" lon="6.15727">
        <ele>444.686476</ele>
        <time>2025-04-25T08:23:22.000Z</time>
      </trkpt>
      <trkpt lat="43.36595" lon="6.1573">
        <ele>444.521749</ele>
        <time>2025-04-25T08:23:23.000Z</time>
      </trkpt>
      <trkpt lat="43.36595" lon="6.1573">
        <ele>444.521749</ele>
        <time>2025-04-25T08:23:23.000Z</time>
      </trkpt>
      <trkpt lat="43.36599" lon="6.15734">
        <ele>444.339275</ele>
        <time>2025-04-25T08:23:24.000Z</time>
      </trkpt>
      <trkpt lat="43.36605" lon="6.15738">
        <ele>444.124291</ele>
        <time>2025-04-25T08:23:25.000Z</time>
      </trkpt>
      <trkpt lat="43.36605" lon="6.15738">
        <ele>444.124291</ele>
        <time>2025-04-25T08:23:25.000Z</time>
      </trkpt>
      <trkpt lat="43.36611" lon="6.15742">
        <ele>443.88518</ele>
        <time>2025-04-25T08:23:26.000Z</time>
      </trkpt>
      <trkpt lat="43.36611" lon="6.15742">
        <ele>443.88518</ele>
        <time>2025-04-25T08:23:26.000Z</time>
      </trkpt>
      <trkpt lat="43.36616" lon="6.15746">
        <ele>443.676845</ele>
        <time>2025-04-25T08:23:27.000Z</time>
      </trkpt>
      <trkpt lat="43.36616" lon="6.15746">
        <ele>443.676845</ele>
        <time>2025-04-25T08:23:27.000Z</time>
      </trkpt>
      <trkpt lat="43.36622" lon="6.1575">
        <ele>443.445891</ele>
        <time>2025-04-25T08:23:28.000Z</time>
      </trkpt>
      <trkpt lat="43.36622" lon="6.1575">
        <ele>443.445891</ele>
        <time>2025-04-25T08:23:28.000Z</time>
      </trkpt>
      <trkpt lat="43.36628" lon="6.15755">
        <ele>443.188825</ele>
        <time>2025-04-25T08:23:29.000Z</time>
      </trkpt>
      <trkpt lat="43.36632" lon="6.1576">
        <ele>443.011391</ele>
        <time>2025-04-25T08:23:30.000Z</time>
      </trkpt>
      <trkpt lat="43.36636" lon="6.15764">
        <ele>442.829378</ele>
        <time>2025-04-25T08:23:31.000Z</time>
      </trkpt>
      <trkpt lat="43.3664" lon="6.15769">
        <ele>442.650252</ele>
        <time>2025-04-25T08:23:32.000Z</time>
      </trkpt>
      <trkpt lat="43.36644" lon="6.15773">
        <ele>442.465196</ele>
        <time>2025-04-25T08:23:33.000Z</time>
      </trkpt>
      <trkpt lat="43.36647" lon="6.15776">
        <ele>442.333673</ele>
        <time>2025-04-25T08:23:34.000Z</time>
      </trkpt>
      <trkpt lat="43.36647" lon="6.15776">
        <ele>442.333673</ele>
        <time>2025-04-25T08:23:34.000Z</time>
      </trkpt>
      <trkpt lat="43.36647" lon="6.15776">
        <ele>442.333673</ele>
        <time>2025-04-25T08:23:35.000Z</time>
      </trkpt>
      <trkpt lat="43.36647" lon="6.15776">
        <ele>442.333673</ele>
        <time>2025-04-25T08:23:36.000Z</time>
      </trkpt>
      <trkpt lat="43.36647" lon="6.15776">
        <ele>442.333673</ele>
        <time>2025-04-25T08:23:37.000Z</time>
      </trkpt>
      <trkpt lat="43.36647" lon="6.15776">
        <ele>442.333673</ele>
        <time>2025-04-25T08:23:38.000Z</time>
      </trkpt>
      <trkpt lat="43.36647" lon="6.15776">
        <ele>442.333673</ele>
        <time>2025-04-25T08:23:40.000Z</time>
      </trkpt>
      <trkpt lat="43.36647" lon="6.15776">
        <ele>442.333673</ele>
        <time>2025-04-25T08:23:40.000Z</time>
      </trkpt>
      <trkpt lat="43.36647" lon="6.15776">
        <ele>442.333673</ele>
        <time>2025-04-25T08:23:41.000Z</time>
      </trkpt>
      <trkpt lat="43.36647" lon="6.15776">
        <ele>442.333673</ele>
        <time>2025-04-25T08:23:42.000Z</time>
      </trkpt>
      <trkpt lat="43.36647" lon="6.15776">
        <ele>442.333673</ele>
        <time>2025-04-25T08:23:43.000Z</time>
      </trkpt>
      <trkpt lat="43.36647" lon="6.15776">
        <ele>442.333673</ele>
        <time>2025-04-25T08:23:44.000Z</time>
      </trkpt>
      <trkpt lat="43.36647" lon="6.15776">
        <ele>442.333673</ele>
        <time>2025-04-25T08:23:45.000Z</time>
      </trkpt>
      <trkpt lat="43.3665" lon="6.15779">
        <ele>442.216664</ele>
        <time>2025-04-25T08:23:46.000Z</time>
      </trkpt>
      <trkpt lat="43.3665" lon="6.15779">
        <ele>442.216664</ele>
        <time>2025-04-25T08:23:46.000Z</time>
      </trkpt>
      <trkpt lat="43.3665" lon="6.15779">
        <ele>442.216664</ele>
        <time>2025-04-25T08:23:47.000Z</time>
      </trkpt>
      <trkpt lat="43.3665" lon="6.15779">
        <ele>442.216664</ele>
        <time>2025-04-25T08:23:48.000Z</time>
      </trkpt>
      <trkpt lat="43.36651" lon="6.1578">
        <ele>442.176782</ele>
        <time>2025-04-25T08:23:50.000Z</time>
      </trkpt>
      <trkpt lat="43.36651" lon="6.1578">
        <ele>442.176782</ele>
        <time>2025-04-25T08:23:50.000Z</time>
      </trkpt>
      <trkpt lat="43.36651" lon="6.15779">
        <ele>442.161864</ele>
        <time>2025-04-25T08:23:51.000Z</time>
      </trkpt>
      <trkpt lat="43.36652" lon="6.15779">
        <ele>442.133821</ele>
        <time>2025-04-25T08:23:53.000Z</time>
      </trkpt>
      <trkpt lat="43.36652" lon="6.15779">
        <ele>442.133821</ele>
        <time>2025-04-25T08:23:53.000Z</time>
      </trkpt>
      <trkpt lat="43.36654" lon="6.15779">
        <ele>442.081243</ele>
        <time>2025-04-25T08:23:54.000Z</time>
      </trkpt>
      <trkpt lat="43.36655" lon="6.15779">
        <ele>442.014594</ele>
        <time>2025-04-25T08:23:55.000Z</time>
      </trkpt>
      <trkpt lat="43.36658" lon="6.15779">
        <ele>441.919644</ele>
        <time>2025-04-25T08:23:56.000Z</time>
      </trkpt>
      <trkpt lat="43.3666" lon="6.15779">
        <ele>441.838862</ele>
        <time>2025-04-25T08:23:57.000Z</time>
      </trkpt>
      <trkpt lat="43.36663" lon="6.15778">
        <ele>441.75724</ele>
        <time>2025-04-25T08:23:57.000Z</time>
      </trkpt>
      <trkpt lat="43.36666" lon="6.15778">
        <ele>441.637626</ele>
        <time>2025-04-25T08:23:59.000Z</time>
      </trkpt>
      <trkpt lat="43.36666" lon="6.15778">
        <ele>441.637626</ele>
        <time>2025-04-25T08:23:59.000Z</time>
      </trkpt>
      <trkpt lat="43.36669" lon="6.15778">
        <ele>441.542437</ele>
        <time>2025-04-25T08:23:59.000Z</time>
      </trkpt>
      <trkpt lat="43.36672" lon="6.1578">
        <ele>441.420006</ele>
        <time>2025-04-25T08:24:00.000Z</time>
      </trkpt>
      <trkpt lat="43.36672" lon="6.1578">
        <ele>441.420006</ele>
        <time>2025-04-25T08:24:00.000Z</time>
      </trkpt>
      <trkpt lat="43.36681" lon="6.15785">
        <ele>441.096427</ele>
        <time>2025-04-25T08:24:03.000Z</time>
      </trkpt>
      <trkpt lat="43.36684" lon="6.15788">
        <ele>440.954837</ele>
        <time>2025-04-25T08:24:04.000Z</time>
      </trkpt>
      <trkpt lat="43.36688" lon="6.1579">
        <ele>440.814178</ele>
        <time>2025-04-25T08:24:05.000Z</time>
      </trkpt>
      <trkpt lat="43.36694" lon="6.15793">
        <ele>440.489526</ele>
        <time>2025-04-25T08:24:07.000Z</time>
      </trkpt>
      <trkpt lat="43.36698" lon="6.15793">
        <ele>440.244838</ele>
        <time>2025-04-25T08:24:08.000Z</time>
      </trkpt>
      <trkpt lat="43.36701" lon="6.15792">
        <ele>439.996934</ele>
        <time>2025-04-25T08:24:09.000Z</time>
      </trkpt>
      <trkpt lat="43.36701" lon="6.15792">
        <ele>439.996934</ele>
        <time>2025-04-25T08:24:09.000Z</time>
      </trkpt>
      <trkpt lat="43.36705" lon="6.15789">
        <ele>439.708951</ele>
        <time>2025-04-25T08:24:09.000Z</time>
      </trkpt>
      <trkpt lat="43.36705" lon="6.15789">
        <ele>439.708951</ele>
        <time>2025-04-25T08:24:09.000Z</time>
      </trkpt>
      <trkpt lat="43.36708" lon="6.15787">
        <ele>439.457944</ele>
        <time>2025-04-25T08:24:10.000Z</time>
      </trkpt>
      <trkpt lat="43.36712" lon="6.15784">
        <ele>439.146723</ele>
        <time>2025-04-25T08:24:12.000Z</time>
      </trkpt>
      <trkpt lat="43.36715" lon="6.15781">
        <ele>438.90968</ele>
        <time>2025-04-25T08:24:13.000Z</time>
      </trkpt>
      <trkpt lat="43.36715" lon="6.15781">
        <ele>438.90968</ele>
        <time>2025-04-25T08:24:13.000Z</time>
      </trkpt>
      <trkpt lat="43.36718" lon="6.15778">
        <ele>438.638954</ele>
        <time>2025-04-25T08:24:14.000Z</time>
      </trkpt>
      <trkpt lat="43.3672" lon="6.15774">
        <ele>438.390011</ele>
        <time>2025-04-25T08:24:15.000Z</time>
      </trkpt>
      <trkpt lat="43.36723" lon="6.15771">
        <ele>438.133891</ele>
        <time>2025-04-25T08:24:16.000Z</time>
      </trkpt>
      <trkpt lat="43.36726" lon="6.15769">
        <ele>437.880279</ele>
        <time>2025-04-25T08:24:17.000Z</time>
      </trkpt>
      <trkpt lat="43.3673" lon="6.15766">
        <ele>437.592518</ele>
        <time>2025-04-25T08:24:18.000Z</time>
      </trkpt>
      <trkpt lat="43.3673" lon="6.15766">
        <ele>437.592518</ele>
        <time>2025-04-25T08:24:18.000Z</time>
      </trkpt>
      <trkpt lat="43.36733" lon="6.15764">
        <ele>437.351148</ele>
        <time>2025-04-25T08:24:18.000Z</time>
      </trkpt>
      <trkpt lat="43.36736" lon="6.15763">
        <ele>437.137695</ele>
        <time>2025-04-25T08:24:20.000Z</time>
      </trkpt>
      <trkpt lat="43.36736" lon="6.15763">
        <ele>437.137695</ele>
        <time>2025-04-25T08:24:20.000Z</time>
      </trkpt>
      <trkpt lat="43.36739" lon="6.15763">
        <ele>436.94903</ele>
        <time>2025-04-25T08:24:21.000Z</time>
      </trkpt>
      <trkpt lat="43.36739" lon="6.15763">
        <ele>436.94903</ele>
        <time>2025-04-25T08:24:21.000Z</time>
      </trkpt>
      <trkpt lat="43.36741" lon="6.15763">
        <ele>436.788293</ele>
        <time>2025-04-25T08:24:22.000Z</time>
      </trkpt>
      <trkpt lat="43.36741" lon="6.15763">
        <ele>436.788293</ele>
        <time>2025-04-25T08:24:22.000Z</time>
      </trkpt>
      <trkpt lat="43.36743" lon="6.15763">
        <ele>436.625643</ele>
        <time>2025-04-25T08:24:23.000Z</time>
      </trkpt>
      <trkpt lat="43.36743" lon="6.15763">
        <ele>436.625643</ele>
        <time>2025-04-25T08:24:23.000Z</time>
      </trkpt>
      <trkpt lat="43.36746" lon="6.15764">
        <ele>436.413098</ele>
        <time>2025-04-25T08:24:24.000Z</time>
      </trkpt>
      <trkpt lat="43.36746" lon="6.15764">
        <ele>436.413098</ele>
        <time>2025-04-25T08:24:24.000Z</time>
      </trkpt>
      <trkpt lat="43.36746" lon="6.15764">
        <ele>436.413098</ele>
        <time>2025-04-25T08:24:25.000Z</time>
      </trkpt>
      <trkpt lat="43.36746" lon="6.15764">
        <ele>436.413098</ele>
        <time>2025-04-25T08:24:26.000Z</time>
      </trkpt>
      <trkpt lat="43.36755" lon="6.15764">
        <ele>435.798328</ele>
        <time>2025-04-25T08:24:27.000Z</time>
      </trkpt>
      <trkpt lat="43.36755" lon="6.15764">
        <ele>435.798328</ele>
        <time>2025-04-25T08:24:27.000Z</time>
      </trkpt>
      <trkpt lat="43.36757" lon="6.15764">
        <ele>435.664741</ele>
        <time>2025-04-25T08:24:27.000Z</time>
      </trkpt>
      <trkpt lat="43.36757" lon="6.15764">
        <ele>435.664741</ele>
        <time>2025-04-25T08:24:27.000Z</time>
      </trkpt>
      <trkpt lat="43.36759" lon="6.15765">
        <ele>435.514183</ele>
        <time>2025-04-25T08:24:29.000Z</time>
      </trkpt>
      <trkpt lat="43.36759" lon="6.15765">
        <ele>435.514183</ele>
        <time>2025-04-25T08:24:29.000Z</time>
      </trkpt>
      <trkpt lat="43.36762" lon="6.15766">
        <ele>435.31887</ele>
        <time>2025-04-25T08:24:30.000Z</time>
      </trkpt>
      <trkpt lat="43.36762" lon="6.15766">
        <ele>435.31887</ele>
        <time>2025-04-25T08:24:30.000Z</time>
      </trkpt>
      <trkpt lat="43.36766" lon="6.15768">
        <ele>434.990069</ele>
        <time>2025-04-25T08:24:31.000Z</time>
      </trkpt>
      <trkpt lat="43.36766" lon="6.15768">
        <ele>434.990069</ele>
        <time>2025-04-25T08:24:31.000Z</time>
      </trkpt>
      <trkpt lat="43.36773" lon="6.15771">
        <ele>434.512756</ele>
        <time>2025-04-25T08:24:31.000Z</time>
      </trkpt>
      <trkpt lat="43.36773" lon="6.15771">
        <ele>434.512756</ele>
        <time>2025-04-25T08:24:31.000Z</time>
      </trkpt>
      <trkpt lat="43.36779" lon="6.15775">
        <ele>434.045012</ele>
        <time>2025-04-25T08:24:33.000Z</time>
      </trkpt>
      <trkpt lat="43.36779" lon="6.15775">
        <ele>434.045012</ele>
        <time>2025-04-25T08:24:33.000Z</time>
      </trkpt>
      <trkpt lat="43.36784" lon="6.1578">
        <ele>433.61022</ele>
        <time>2025-04-25T08:24:34.000Z</time>
      </trkpt>
      <trkpt lat="43.36784" lon="6.1578">
        <ele>433.61022</ele>
        <time>2025-04-25T08:24:34.000Z</time>
      </trkpt>
      <trkpt lat="43.36787" lon="6.15786">
        <ele>433.2528</ele>
        <time>2025-04-25T08:24:35.000Z</time>
      </trkpt>
      <trkpt lat="43.36787" lon="6.15786">
        <ele>433.2528</ele>
        <time>2025-04-25T08:24:35.000Z</time>
      </trkpt>
      <trkpt lat="43.3679" lon="6.15791">
        <ele>432.899568</ele>
        <time>2025-04-25T08:24:35.000Z</time>
      </trkpt>
      <trkpt lat="43.3679" lon="6.15791">
        <ele>432.899568</ele>
        <time>2025-04-25T08:24:35.000Z</time>
      </trkpt>
      <trkpt lat="43.36792" lon="6.15797">
        <ele>432.572963</ele>
        <time>2025-04-25T08:24:36.000Z</time>
      </trkpt>
      <trkpt lat="43.36792" lon="6.15797">
        <ele>432.572963</ele>
        <time>2025-04-25T08:24:36.000Z</time>
      </trkpt>
      <trkpt lat="43.36795" lon="6.15802">
        <ele>432.260749</ele>
        <time>2025-04-25T08:24:37.000Z</time>
      </trkpt>
      <trkpt lat="43.36795" lon="6.15802">
        <ele>432.260749</ele>
        <time>2025-04-25T08:24:37.000Z</time>
      </trkpt>
      <trkpt lat="43.36797" lon="6.15807">
        <ele>431.969752</ele>
        <time>2025-04-25T08:24:39.000Z</time>
      </trkpt>
      <trkpt lat="43.36797" lon="6.15807">
        <ele>431.969752</ele>
        <time>2025-04-25T08:24:39.000Z</time>
      </trkpt>
      <trkpt lat="43.36798" lon="6.15812">
        <ele>431.676212</ele>
        <time>2025-04-25T08:24:39.000Z</time>
      </trkpt>
      <trkpt lat="43.36798" lon="6.15812">
        <ele>431.676212</ele>
        <time>2025-04-25T08:24:39.000Z</time>
      </trkpt>
      <trkpt lat="43.368" lon="6.15817">
        <ele>431.389724</ele>
        <time>2025-04-25T08:24:40.000Z</time>
      </trkpt>
      <trkpt lat="43.368" lon="6.15817">
        <ele>431.389724</ele>
        <time>2025-04-25T08:24:40.000Z</time>
      </trkpt>
      <trkpt lat="43.36802" lon="6.15822">
        <ele>431.110362</ele>
        <time>2025-04-25T08:24:41.000Z</time>
      </trkpt>
      <trkpt lat="43.36802" lon="6.15822">
        <ele>431.110362</ele>
        <time>2025-04-25T08:24:41.000Z</time>
      </trkpt>
      <trkpt lat="43.36803" lon="6.15827">
        <ele>430.837599</ele>
        <time>2025-04-25T08:24:42.000Z</time>
      </trkpt>
      <trkpt lat="43.36803" lon="6.15827">
        <ele>430.837599</ele>
        <time>2025-04-25T08:24:42.000Z</time>
      </trkpt>
      <trkpt lat="43.36805" lon="6.15832">
        <ele>430.562937</ele>
        <time>2025-04-25T08:24:43.000Z</time>
      </trkpt>
      <trkpt lat="43.36805" lon="6.15832">
        <ele>430.562937</ele>
        <time>2025-04-25T08:24:43.000Z</time>
      </trkpt>
      <trkpt lat="43.36806" lon="6.15837">
        <ele>430.292809</ele>
        <time>2025-04-25T08:24:44.000Z</time>
      </trkpt>
      <trkpt lat="43.36806" lon="6.15837">
        <ele>430.292809</ele>
        <time>2025-04-25T08:24:44.000Z</time>
      </trkpt>
      <trkpt lat="43.36807" lon="6.15843">
        <ele>430.007992</ele>
        <time>2025-04-25T08:24:45.000Z</time>
      </trkpt>
      <trkpt lat="43.36807" lon="6.15843">
        <ele>430.007992</ele>
        <time>2025-04-25T08:24:45.000Z</time>
      </trkpt>
      <trkpt lat="43.36807" lon="6.15849">
        <ele>429.71321</ele>
        <time>2025-04-25T08:24:46.000Z</time>
      </trkpt>
      <trkpt lat="43.36807" lon="6.15849">
        <ele>429.71321</ele>
        <time>2025-04-25T08:24:46.000Z</time>
      </trkpt>
      <trkpt lat="43.36808" lon="6.15855">
        <ele>429.389143</ele>
        <time>2025-04-25T08:24:47.000Z</time>
      </trkpt>
      <trkpt lat="43.36808" lon="6.15855">
        <ele>429.389143</ele>
        <time>2025-04-25T08:24:47.000Z</time>
      </trkpt>
      <trkpt lat="43.3681" lon="6.15861">
        <ele>429.084771</ele>
        <time>2025-04-25T08:24:48.000Z</time>
      </trkpt>
      <trkpt lat="43.3681" lon="6.15861">
        <ele>429.084771</ele>
        <time>2025-04-25T08:24:48.000Z</time>
      </trkpt>
      <trkpt lat="43.36811" lon="6.15867">
        <ele>428.76878</ele>
        <time>2025-04-25T08:24:49.000Z</time>
      </trkpt>
      <trkpt lat="43.36812" lon="6.15874">
        <ele>428.400157</ele>
        <time>2025-04-25T08:24:50.000Z</time>
      </trkpt>
      <trkpt lat="43.36812" lon="6.15874">
        <ele>428.400157</ele>
        <time>2025-04-25T08:24:50.000Z</time>
      </trkpt>
      <trkpt lat="43.36813" lon="6.15881">
        <ele>428.069174</ele>
        <time>2025-04-25T08:24:52.000Z</time>
      </trkpt>
      <trkpt lat="43.36813" lon="6.15881">
        <ele>428.069174</ele>
        <time>2025-04-25T08:24:52.000Z</time>
      </trkpt>
      <trkpt lat="43.36813" lon="6.15888">
        <ele>427.96149</ele>
        <time>2025-04-25T08:24:53.000Z</time>
      </trkpt>
      <trkpt lat="43.36814" lon="6.15896">
        <ele>427.861516</ele>
        <time>2025-04-25T08:24:53.000Z</time>
      </trkpt>
      <trkpt lat="43.36814" lon="6.15896">
        <ele>427.861516</ele>
        <time>2025-04-25T08:24:53.000Z</time>
      </trkpt>
      <trkpt lat="43.36815" lon="6.15903">
        <ele>427.751671</ele>
        <time>2025-04-25T08:24:54.000Z</time>
      </trkpt>
      <trkpt lat="43.36816" lon="6.15911">
        <ele>427.644805</ele>
        <time>2025-04-25T08:24:55.000Z</time>
      </trkpt>
      <trkpt lat="43.36816" lon="6.15911">
        <ele>427.644805</ele>
        <time>2025-04-25T08:24:55.000Z</time>
      </trkpt>
      <trkpt lat="43.36816" lon="6.15918">
        <ele>427.552658</ele>
        <time>2025-04-25T08:24:57.000Z</time>
      </trkpt>
      <trkpt lat="43.36817" lon="6.15928">
        <ele>427.407266</ele>
        <time>2025-04-25T08:24:57.000Z</time>
      </trkpt>
      <trkpt lat="43.36817" lon="6.15928">
        <ele>427.407266</ele>
        <time>2025-04-25T08:24:57.000Z</time>
      </trkpt>
      <trkpt lat="43.36818" lon="6.15936">
        <ele>427.299033</ele>
        <time>2025-04-25T08:24:59.000Z</time>
      </trkpt>
      <trkpt lat="43.36819" lon="6.15944">
        <ele>427.190551</ele>
        <time>2025-04-25T08:25:00.000Z</time>
      </trkpt>
      <trkpt lat="43.36819" lon="6.15944">
        <ele>427.190551</ele>
        <time>2025-04-25T08:25:00.000Z</time>
      </trkpt>
      <trkpt lat="43.3682" lon="6.15952">
        <ele>427.075248</ele>
        <time>2025-04-25T08:25:00.000Z</time>
      </trkpt>
      <trkpt lat="43.3682" lon="6.1596">
        <ele>426.963554</ele>
        <time>2025-04-25T08:25:02.000Z</time>
      </trkpt>
      <trkpt lat="43.36821" lon="6.15969">
        <ele>426.844154</ele>
        <time>2025-04-25T08:25:03.000Z</time>
      </trkpt>
      <trkpt lat="43.36821" lon="6.15969">
        <ele>426.844154</ele>
        <time>2025-04-25T08:25:03.000Z</time>
      </trkpt>
      <trkpt lat="43.36821" lon="6.15978">
        <ele>426.722965</ele>
        <time>2025-04-25T08:25:03.000Z</time>
      </trkpt>
      <trkpt lat="43.36821" lon="6.15986">
        <ele>426.604288</ele>
        <time>2025-04-25T08:25:04.000Z</time>
      </trkpt>
      <trkpt lat="43.36821" lon="6.15995">
        <ele>426.489734</ele>
        <time>2025-04-25T08:25:06.000Z</time>
      </trkpt>
      <trkpt lat="43.36822" lon="6.16003">
        <ele>426.37529</ele>
        <time>2025-04-25T08:25:07.000Z</time>
      </trkpt>
      <trkpt lat="43.36822" lon="6.16003">
        <ele>426.37529</ele>
        <time>2025-04-25T08:25:07.000Z</time>
      </trkpt>
      <trkpt lat="43.36823" lon="6.16011">
        <ele>426.25589</ele>
        <time>2025-04-25T08:25:08.000Z</time>
      </trkpt>
      <trkpt lat="43.36823" lon="6.1602">
        <ele>426.141951</ele>
        <time>2025-04-25T08:25:09.000Z</time>
      </trkpt>
      <trkpt lat="43.36824" lon="6.16028">
        <ele>426.030145</ele>
        <time>2025-04-25T08:25:10.000Z</time>
      </trkpt>
      <trkpt lat="43.36824" lon="6.16028">
        <ele>426.030145</ele>
        <time>2025-04-25T08:25:10.000Z</time>
      </trkpt>
      <trkpt lat="43.36824" lon="6.16036">
        <ele>425.922578</ele>
        <time>2025-04-25T08:25:11.000Z</time>
      </trkpt>
      <trkpt lat="43.36824" lon="6.16042">
        <ele>425.832743</ele>
        <time>2025-04-25T08:25:12.000Z</time>
      </trkpt>
      <trkpt lat="43.36824" lon="6.16049">
        <ele>425.73772</ele>
        <time>2025-04-25T08:25:13.000Z</time>
      </trkpt>
      <trkpt lat="43.36824" lon="6.16055">
        <ele>425.6606</ele>
        <time>2025-04-25T08:25:14.000Z</time>
      </trkpt>
      <trkpt lat="43.36825" lon="6.16061">
        <ele>425.574881</ele>
        <time>2025-04-25T08:25:15.000Z</time>
      </trkpt>
      <trkpt lat="43.36825" lon="6.16067">
        <ele>425.49363</ele>
        <time>2025-04-25T08:25:16.000Z</time>
      </trkpt>
      <trkpt lat="43.36825" lon="6.16067">
        <ele>425.49363</ele>
        <time>2025-04-25T08:25:16.000Z</time>
      </trkpt>
      <trkpt lat="43.36824" lon="6.16075">
        <ele>425.384571</ele>
        <time>2025-04-25T08:25:17.000Z</time>
      </trkpt>
      <trkpt lat="43.36824" lon="6.16082">
        <ele>425.282381</ele>
        <time>2025-04-25T08:25:18.000Z</time>
      </trkpt>
      <trkpt lat="43.36824" lon="6.16082">
        <ele>425.282381</ele>
        <time>2025-04-25T08:25:18.000Z</time>
      </trkpt>
      <trkpt lat="43.36824" lon="6.1609">
        <ele>425.174964</ele>
        <time>2025-04-25T08:25:19.000Z</time>
      </trkpt>
      <trkpt lat="43.36824" lon="6.16098">
        <ele>425.059284</ele>
        <time>2025-04-25T08:25:20.000Z</time>
      </trkpt>
      <trkpt lat="43.36824" lon="6.16107">
        <ele>424.940849</ele>
        <time>2025-04-25T08:25:21.000Z</time>
      </trkpt>
      <trkpt lat="43.36824" lon="6.16107">
        <ele>424.940849</ele>
        <time>2025-04-25T08:25:21.000Z</time>
      </trkpt>
      <trkpt lat="43.36824" lon="6.16115">
        <ele>424.831906</ele>
        <time>2025-04-25T08:25:22.000Z</time>
      </trkpt>
      <trkpt lat="43.36824" lon="6.16122">
        <ele>424.727243</ele>
        <time>2025-04-25T08:25:23.000Z</time>
      </trkpt>
      <trkpt lat="43.36823" lon="6.1613">
        <ele>424.61998</ele>
        <time>2025-04-25T08:25:24.000Z</time>
      </trkpt>
      <trkpt lat="43.36823" lon="6.1613">
        <ele>424.61998</ele>
        <time>2025-04-25T08:25:24.000Z</time>
      </trkpt>
      <trkpt lat="43.36824" lon="6.16137">
        <ele>424.514432</ele>
        <time>2025-04-25T08:25:24.000Z</time>
      </trkpt>
      <trkpt lat="43.36825" lon="6.16144">
        <ele>424.424859</ele>
        <time>2025-04-25T08:25:26.000Z</time>
      </trkpt>
      <trkpt lat="43.36826" lon="6.16151">
        <ele>424.323779</ele>
        <time>2025-04-25T08:25:27.000Z</time>
      </trkpt>
      <trkpt lat="43.36828" lon="6.16157">
        <ele>424.226751</ele>
        <time>2025-04-25T08:25:28.000Z</time>
      </trkpt>
      <trkpt lat="43.36828" lon="6.16157">
        <ele>424.226751</ele>
        <time>2025-04-25T08:25:28.000Z</time>
      </trkpt>
      <trkpt lat="43.36831" lon="6.16164">
        <ele>424.11429</ele>
        <time>2025-04-25T08:25:29.000Z</time>
      </trkpt>
      <trkpt lat="43.36834" lon="6.16171">
        <ele>424.000444</ele>
        <time>2025-04-25T08:25:30.000Z</time>
      </trkpt>
      <trkpt lat="43.36834" lon="6.16171">
        <ele>424.000444</ele>
        <time>2025-04-25T08:25:30.000Z</time>
      </trkpt>
      <trkpt lat="43.36838" lon="6.16179">
        <ele>423.866318</ele>
        <time>2025-04-25T08:25:31.000Z</time>
      </trkpt>
      <trkpt lat="43.36842" lon="6.16187">
        <ele>423.720995</ele>
        <time>2025-04-25T08:25:32.000Z</time>
      </trkpt>
      <trkpt lat="43.36842" lon="6.16187">
        <ele>423.720995</ele>
        <time>2025-04-25T08:25:32.000Z</time>
      </trkpt>
      <trkpt lat="43.36847" lon="6.16194">
        <ele>423.594686</ele>
        <time>2025-04-25T08:25:33.000Z</time>
      </trkpt>
      <trkpt lat="43.36852" lon="6.16202">
        <ele>423.446611</ele>
        <time>2025-04-25T08:25:34.000Z</time>
      </trkpt>
      <trkpt lat="43.36852" lon="6.16202">
        <ele>423.446611</ele>
        <time>2025-04-25T08:25:34.000Z</time>
      </trkpt>
      <trkpt lat="43.36855" lon="6.16209">
        <ele>423.326232</ele>
        <time>2025-04-25T08:25:35.000Z</time>
      </trkpt>
      <trkpt lat="43.36855" lon="6.16209">
        <ele>423.326232</ele>
        <time>2025-04-25T08:25:35.000Z</time>
      </trkpt>
      <trkpt lat="43.36859" lon="6.16216">
        <ele>423.201145</ele>
        <time>2025-04-25T08:25:36.000Z</time>
      </trkpt>
      <trkpt lat="43.36859" lon="6.16216">
        <ele>423.201145</ele>
        <time>2025-04-25T08:25:36.000Z</time>
      </trkpt>
      <trkpt lat="43.36861" lon="6.16224">
        <ele>423.09282</ele>
        <time>2025-04-25T08:25:37.000Z</time>
      </trkpt>
      <trkpt lat="43.36863" lon="6.1623">
        <ele>423.000482</ele>
        <time>2025-04-25T08:25:38.000Z</time>
      </trkpt>
      <trkpt lat="43.36863" lon="6.1623">
        <ele>423.000482</ele>
        <time>2025-04-25T08:25:38.000Z</time>
      </trkpt>
      <trkpt lat="43.36864" lon="6.16238">
        <ele>422.880689</ele>
        <time>2025-04-25T08:25:39.000Z</time>
      </trkpt>
      <trkpt lat="43.36864" lon="6.16238">
        <ele>422.880689</ele>
        <time>2025-04-25T08:25:39.000Z</time>
      </trkpt>
      <trkpt lat="43.36865" lon="6.16247">
        <ele>422.760394</ele>
        <time>2025-04-25T08:25:40.000Z</time>
      </trkpt>
      <trkpt lat="43.36865" lon="6.16247">
        <ele>422.760394</ele>
        <time>2025-04-25T08:25:40.000Z</time>
      </trkpt>
      <trkpt lat="43.36864" lon="6.16255">
        <ele>422.638044</ele>
        <time>2025-04-25T08:25:41.000Z</time>
      </trkpt>
      <trkpt lat="43.36864" lon="6.16255">
        <ele>422.638044</ele>
        <time>2025-04-25T08:25:41.000Z</time>
      </trkpt>
      <trkpt lat="43.36864" lon="6.16266">
        <ele>422.489071</ele>
        <time>2025-04-25T08:25:42.000Z</time>
      </trkpt>
      <trkpt lat="43.36864" lon="6.16266">
        <ele>422.489071</ele>
        <time>2025-04-25T08:25:42.000Z</time>
      </trkpt>
      <trkpt lat="43.36864" lon="6.16274">
        <ele>422.382404</ele>
        <time>2025-04-25T08:25:43.000Z</time>
      </trkpt>
      <trkpt lat="43.36863" lon="6.16282">
        <ele>422.262109</ele>
        <time>2025-04-25T08:25:44.000Z</time>
      </trkpt>
      <trkpt lat="43.36863" lon="6.16282">
        <ele>422.262109</ele>
        <time>2025-04-25T08:25:44.000Z</time>
      </trkpt>
      <trkpt lat="43.36863" lon="6.16291">
        <ele>422.141268</ele>
        <time>2025-04-25T08:25:45.000Z</time>
      </trkpt>
      <trkpt lat="43.36863" lon="6.16291">
        <ele>422.141268</ele>
        <time>2025-04-25T08:25:45.000Z</time>
      </trkpt>
      <trkpt lat="43.36861" lon="6.16298">
        <ele>422.029368</ele>
        <time>2025-04-25T08:25:45.000Z</time>
      </trkpt>
      <trkpt lat="43.36861" lon="6.16298">
        <ele>422.029368</ele>
        <time>2025-04-25T08:25:45.000Z</time>
      </trkpt>
      <trkpt lat="43.36861" lon="6.16307">
        <ele>421.905122</ele>
        <time>2025-04-25T08:25:47.000Z</time>
      </trkpt>
      <trkpt lat="43.3686" lon="6.16314">
        <ele>421.807055</ele>
        <time>2025-04-25T08:25:48.000Z</time>
      </trkpt>
      <trkpt lat="43.3686" lon="6.16314">
        <ele>421.807055</ele>
        <time>2025-04-25T08:25:48.000Z</time>
      </trkpt>
      <trkpt lat="43.36859" lon="6.16321">
        <ele>421.70242</ele>
        <time>2025-04-25T08:25:49.000Z</time>
      </trkpt>
      <trkpt lat="43.36859" lon="6.16321">
        <ele>421.70242</ele>
        <time>2025-04-25T08:25:49.000Z</time>
      </trkpt>
      <trkpt lat="43.36857" lon="6.16329">
        <ele>421.594063</ele>
        <time>2025-04-25T08:25:50.000Z</time>
      </trkpt>
      <trkpt lat="43.36856" lon="6.16336">
        <ele>421.493548</ele>
        <time>2025-04-25T08:25:51.000Z</time>
      </trkpt>
      <trkpt lat="43.36856" lon="6.16336">
        <ele>421.493548</ele>
        <time>2025-04-25T08:25:51.000Z</time>
      </trkpt>
      <trkpt lat="43.36855" lon="6.16343">
        <ele>421.387076</ele>
        <time>2025-04-25T08:25:52.000Z</time>
      </trkpt>
      <trkpt lat="43.36853" lon="6.16351">
        <ele>421.274677</ele>
        <time>2025-04-25T08:25:53.000Z</time>
      </trkpt>
      <trkpt lat="43.36853" lon="6.16351">
        <ele>421.274677</ele>
        <time>2025-04-25T08:25:53.000Z</time>
      </trkpt>
      <trkpt lat="43.36851" lon="6.16359">
        <ele>421.160164</ele>
        <time>2025-04-25T08:25:54.000Z</time>
      </trkpt>
      <trkpt lat="43.36849" lon="6.16368">
        <ele>421.054174</ele>
        <time>2025-04-25T08:25:55.000Z</time>
      </trkpt>
      <trkpt lat="43.36849" lon="6.16368">
        <ele>421.054174</ele>
        <time>2025-04-25T08:25:55.000Z</time>
      </trkpt>
      <trkpt lat="43.36846" lon="6.16377">
        <ele>420.933359</ele>
        <time>2025-04-25T08:25:56.000Z</time>
      </trkpt>
      <trkpt lat="43.36844" lon="6.16386">
        <ele>420.826082</ele>
        <time>2025-04-25T08:25:56.000Z</time>
      </trkpt>
      <trkpt lat="43.36844" lon="6.16386">
        <ele>420.826082</ele>
        <time>2025-04-25T08:25:56.000Z</time>
      </trkpt>
      <trkpt lat="43.36842" lon="6.16396">
        <ele>420.708256</ele>
        <time>2025-04-25T08:25:58.000Z</time>
      </trkpt>
      <trkpt lat="43.3684" lon="6.16405">
        <ele>420.59424</ele>
        <time>2025-04-25T08:25:59.000Z</time>
      </trkpt>
      <trkpt lat="43.3684" lon="6.16405">
        <ele>420.59424</ele>
        <time>2025-04-25T08:25:59.000Z</time>
      </trkpt>
      <trkpt lat="43.36838" lon="6.16413">
        <ele>420.491528</ele>
        <time>2025-04-25T08:26:00.000Z</time>
      </trkpt>
      <trkpt lat="43.36836" lon="6.16422">
        <ele>420.384251</ele>
        <time>2025-04-25T08:26:01.000Z</time>
      </trkpt>
      <trkpt lat="43.36836" lon="6.16422">
        <ele>420.384251</ele>
        <time>2025-04-25T08:26:01.000Z</time>
      </trkpt>
      <trkpt lat="43.36835" lon="6.1643">
        <ele>420.292547</ele>
        <time>2025-04-25T08:26:02.000Z</time>
      </trkpt>
      <trkpt lat="43.36834" lon="6.16437">
        <ele>420.213201</ele>
        <time>2025-04-25T08:26:03.000Z</time>
      </trkpt>
      <trkpt lat="43.36833" lon="6.16444">
        <ele>420.128366</ele>
        <time>2025-04-25T08:26:04.000Z</time>
      </trkpt>
      <trkpt lat="43.36833" lon="6.16444">
        <ele>420.128366</ele>
        <time>2025-04-25T08:26:04.000Z</time>
      </trkpt>
      <trkpt lat="43.36832" lon="6.1645">
        <ele>420.050173</ele>
        <time>2025-04-25T08:26:05.000Z</time>
      </trkpt>
      <trkpt lat="43.36832" lon="6.16457">
        <ele>419.970708</ele>
        <time>2025-04-25T08:26:06.000Z</time>
      </trkpt>
      <trkpt lat="43.36832" lon="6.16457">
        <ele>419.970708</ele>
        <time>2025-04-25T08:26:06.000Z</time>
      </trkpt>
      <trkpt lat="43.36833" lon="6.16466">
        <ele>419.861837</ele>
        <time>2025-04-25T08:26:07.000Z</time>
      </trkpt>
      <trkpt lat="43.36834" lon="6.16474">
        <ele>419.772061</ele>
        <time>2025-04-25T08:26:07.000Z</time>
      </trkpt>
      <trkpt lat="43.36834" lon="6.16474">
        <ele>419.772061</ele>
        <time>2025-04-25T08:26:07.000Z</time>
      </trkpt>
      <trkpt lat="43.36837" lon="6.1648">
        <ele>419.686529</ele>
        <time>2025-04-25T08:26:09.000Z</time>
      </trkpt>
      <trkpt lat="43.3684" lon="6.16486">
        <ele>419.601108</ele>
        <time>2025-04-25T08:26:10.000Z</time>
      </trkpt>
      <trkpt lat="43.36844" lon="6.1649">
        <ele>419.524189</ele>
        <time>2025-04-25T08:26:11.000Z</time>
      </trkpt>
      <trkpt lat="43.36844" lon="6.1649">
        <ele>419.524189</ele>
        <time>2025-04-25T08:26:11.000Z</time>
      </trkpt>
      <trkpt lat="43.36849" lon="6.16493">
        <ele>419.439684</ele>
        <time>2025-04-25T08:26:12.000Z</time>
      </trkpt>
      <trkpt lat="43.36854" lon="6.16496">
        <ele>419.35069</ele>
        <time>2025-04-25T08:26:13.000Z</time>
      </trkpt>
      <trkpt lat="43.36854" lon="6.16496">
        <ele>419.35069</ele>
        <time>2025-04-25T08:26:13.000Z</time>
      </trkpt>
      <trkpt lat="43.36858" lon="6.16498">
        <ele>419.273137</ele>
        <time>2025-04-25T08:26:14.000Z</time>
      </trkpt>
      <trkpt lat="43.36863" lon="6.16499">
        <ele>419.20242</ele>
        <time>2025-04-25T08:26:15.000Z</time>
      </trkpt>
      <trkpt lat="43.36867" lon="6.16501">
        <ele>419.131346</ele>
        <time>2025-04-25T08:26:16.000Z</time>
      </trkpt>
      <trkpt lat="43.36867" lon="6.16501">
        <ele>419.131346</ele>
        <time>2025-04-25T08:26:16.000Z</time>
      </trkpt>
      <trkpt lat="43.36871" lon="6.16503">
        <ele>419.066349</ele>
        <time>2025-04-25T08:26:17.000Z</time>
      </trkpt>
      <trkpt lat="43.36876" lon="6.16506">
        <ele>418.982736</ele>
        <time>2025-04-25T08:26:18.000Z</time>
      </trkpt>
      <trkpt lat="43.36876" lon="6.16506">
        <ele>418.982736</ele>
        <time>2025-04-25T08:26:18.000Z</time>
      </trkpt>
      <trkpt lat="43.3688" lon="6.16509">
        <ele>418.90666</ele>
        <time>2025-04-25T08:26:19.000Z</time>
      </trkpt>
      <trkpt lat="43.36884" lon="6.16513">
        <ele>418.819177</ele>
        <time>2025-04-25T08:26:20.000Z</time>
      </trkpt>
      <trkpt lat="43.36884" lon="6.16513">
        <ele>418.819177</ele>
        <time>2025-04-25T08:26:20.000Z</time>
      </trkpt>
      <trkpt lat="43.36888" lon="6.16517">
        <ele>418.737806</ele>
        <time>2025-04-25T08:26:21.000Z</time>
      </trkpt>
      <trkpt lat="43.36892" lon="6.16523">
        <ele>418.647907</ele>
        <time>2025-04-25T08:26:22.000Z</time>
      </trkpt>
      <trkpt lat="43.36892" lon="6.16523">
        <ele>418.647907</ele>
        <time>2025-04-25T08:26:22.000Z</time>
      </trkpt>
      <trkpt lat="43.36894" lon="6.16531">
        <ele>418.551775</ele>
        <time>2025-04-25T08:26:23.000Z</time>
      </trkpt>
      <trkpt lat="43.36895" lon="6.16537">
        <ele>418.47606</ele>
        <time>2025-04-25T08:26:24.000Z</time>
      </trkpt>
      <trkpt lat="43.36895" lon="6.16537">
        <ele>418.47606</ele>
        <time>2025-04-25T08:26:24.000Z</time>
      </trkpt>
      <trkpt lat="43.36895" lon="6.16549">
        <ele>418.343384</ele>
        <time>2025-04-25T08:26:25.000Z</time>
      </trkpt>
      <trkpt lat="43.36895" lon="6.16558">
        <ele>418.235339</ele>
        <time>2025-04-25T08:26:26.000Z</time>
      </trkpt>
      <trkpt lat="43.36895" lon="6.16568">
        <ele>418.12992</ele>
        <time>2025-04-25T08:26:27.000Z</time>
      </trkpt>
      <trkpt lat="43.36894" lon="6.16578">
        <ele>418.017523</ele>
        <time>2025-04-25T08:26:28.000Z</time>
      </trkpt>
      <trkpt lat="43.36894" lon="6.16578">
        <ele>418.017523</ele>
        <time>2025-04-25T08:26:28.000Z</time>
      </trkpt>
      <trkpt lat="43.36893" lon="6.16588">
        <ele>417.912836</ele>
        <time>2025-04-25T08:26:29.000Z</time>
      </trkpt>
      <trkpt lat="43.36893" lon="6.16596">
        <ele>417.820413</ele>
        <time>2025-04-25T08:26:30.000Z</time>
      </trkpt>
      <trkpt lat="43.36893" lon="6.16596">
        <ele>417.820413</ele>
        <time>2025-04-25T08:26:30.000Z</time>
      </trkpt>
      <trkpt lat="43.36892" lon="6.16605">
        <ele>417.730156</ele>
        <time>2025-04-25T08:26:31.000Z</time>
      </trkpt>
      <trkpt lat="43.36892" lon="6.16614">
        <ele>417.632501</ele>
        <time>2025-04-25T08:26:31.000Z</time>
      </trkpt>
      <trkpt lat="43.36892" lon="6.16614">
        <ele>417.632501</ele>
        <time>2025-04-25T08:26:31.000Z</time>
      </trkpt>
      <trkpt lat="43.36892" lon="6.16623">
        <ele>417.532676</ele>
        <time>2025-04-25T08:26:33.000Z</time>
      </trkpt>
      <trkpt lat="43.36892" lon="6.16632">
        <ele>417.435021</ele>
        <time>2025-04-25T08:26:34.000Z</time>
      </trkpt>
      <trkpt lat="43.36892" lon="6.16632">
        <ele>417.435021</ele>
        <time>2025-04-25T08:26:34.000Z</time>
      </trkpt>
      <trkpt lat="43.36893" lon="6.1664">
        <ele>417.348012</ele>
        <time>2025-04-25T08:26:35.000Z</time>
      </trkpt>
      <trkpt lat="43.36894" lon="6.16649">
        <ele>417.246846</ele>
        <time>2025-04-25T08:26:36.000Z</time>
      </trkpt>
      <trkpt lat="43.36894" lon="6.16649">
        <ele>417.246846</ele>
        <time>2025-04-25T08:26:36.000Z</time>
      </trkpt>
      <trkpt lat="43.36895" lon="6.16658">
        <ele>417.154922</ele>
        <time>2025-04-25T08:26:37.000Z</time>
      </trkpt>
      <trkpt lat="43.36895" lon="6.16658">
        <ele>417.154922</ele>
        <time>2025-04-25T08:26:37.000Z</time>
      </trkpt>
      <trkpt lat="43.36895" lon="6.16666">
        <ele>417.063583</ele>
        <time>2025-04-25T08:26:38.000Z</time>
      </trkpt>
      <trkpt lat="43.36895" lon="6.16675">
        <ele>416.964662</ele>
        <time>2025-04-25T08:26:39.000Z</time>
      </trkpt>
      <trkpt lat="43.36896" lon="6.16684">
        <ele>416.872324</ele>
        <time>2025-04-25T08:26:40.000Z</time>
      </trkpt>
      <trkpt lat="43.36896" lon="6.16684">
        <ele>416.872324</ele>
        <time>2025-04-25T08:26:40.000Z</time>
      </trkpt>
      <trkpt lat="43.36896" lon="6.16691">
        <ele>416.786397</ele>
        <time>2025-04-25T08:26:41.000Z</time>
      </trkpt>
      <trkpt lat="43.36896" lon="6.16699">
        <ele>416.705882</ele>
        <time>2025-04-25T08:26:42.000Z</time>
      </trkpt>
      <trkpt lat="43.36896" lon="6.16699">
        <ele>416.705882</ele>
        <time>2025-04-25T08:26:42.000Z</time>
      </trkpt>
      <trkpt lat="43.36895" lon="6.16706">
        <ele>416.628713</ele>
        <time>2025-04-25T08:26:42.000Z</time>
      </trkpt>
      <trkpt lat="43.36895" lon="6.16713">
        <ele>416.546463</ele>
        <time>2025-04-25T08:26:43.000Z</time>
      </trkpt>
      <trkpt lat="43.36895" lon="6.16713">
        <ele>416.546463</ele>
        <time>2025-04-25T08:26:43.000Z</time>
      </trkpt>
      <trkpt lat="43.36893" lon="6.16721">
        <ele>416.458917</ele>
        <time>2025-04-25T08:26:45.000Z</time>
      </trkpt>
      <trkpt lat="43.36891" lon="6.16728">
        <ele>416.376553</ele>
        <time>2025-04-25T08:26:46.000Z</time>
      </trkpt>
      <trkpt lat="43.36891" lon="6.16728">
        <ele>416.376553</ele>
        <time>2025-04-25T08:26:46.000Z</time>
      </trkpt>
      <trkpt lat="43.36888" lon="6.16736">
        <ele>416.281994</ele>
        <time>2025-04-25T08:26:47.000Z</time>
      </trkpt>
      <trkpt lat="43.36885" lon="6.16743">
        <ele>416.195685</ele>
        <time>2025-04-25T08:26:47.000Z</time>
      </trkpt>
      <trkpt lat="43.36881" lon="6.1675">
        <ele>416.098263</ele>
        <time>2025-04-25T08:26:49.000Z</time>
      </trkpt>
      <trkpt lat="43.36881" lon="6.1675">
        <ele>416.098263</ele>
        <time>2025-04-25T08:26:49.000Z</time>
      </trkpt>
      <trkpt lat="43.36878" lon="6.16756">
        <ele>416.015716</ele>
        <time>2025-04-25T08:26:49.000Z</time>
      </trkpt>
      <trkpt lat="43.36874" lon="6.16764">
        <ele>415.91741</ele>
        <time>2025-04-25T08:26:51.000Z</time>
      </trkpt>
      <trkpt lat="43.36874" lon="6.16764">
        <ele>415.91741</ele>
        <time>2025-04-25T08:26:51.000Z</time>
      </trkpt>
      <trkpt lat="43.3687" lon="6.16771">
        <ele>415.816426</ele>
        <time>2025-04-25T08:26:51.000Z</time>
      </trkpt>
      <trkpt lat="43.36867" lon="6.16778">
        <ele>415.725628</ele>
        <time>2025-04-25T08:26:53.000Z</time>
      </trkpt>
      <trkpt lat="43.36867" lon="6.16778">
        <ele>415.725628</ele>
        <time>2025-04-25T08:26:53.000Z</time>
      </trkpt>
      <trkpt lat="43.36865" lon="6.16784">
        <ele>415.654642</ele>
        <time>2025-04-25T08:26:53.000Z</time>
      </trkpt>
      <trkpt lat="43.36861" lon="6.16793">
        <ele>415.550885</ele>
        <time>2025-04-25T08:26:55.000Z</time>
      </trkpt>
      <trkpt lat="43.36861" lon="6.16793">
        <ele>415.550885</ele>
        <time>2025-04-25T08:26:55.000Z</time>
      </trkpt>
      <trkpt lat="43.36858" lon="6.16801">
        <ele>415.472848</ele>
        <time>2025-04-25T08:26:56.000Z</time>
      </trkpt>
      <trkpt lat="43.36855" lon="6.16808">
        <ele>415.399925</ele>
        <time>2025-04-25T08:26:56.000Z</time>
      </trkpt>
      <trkpt lat="43.36855" lon="6.16808">
        <ele>415.399925</ele>
        <time>2025-04-25T08:26:56.000Z</time>
      </trkpt>
      <trkpt lat="43.36852" lon="6.16816">
        <ele>415.316156</ele>
        <time>2025-04-25T08:26:58.000Z</time>
      </trkpt>
      <trkpt lat="43.36849" lon="6.16825">
        <ele>415.216698</ele>
        <time>2025-04-25T08:26:58.000Z</time>
      </trkpt>
      <trkpt lat="43.36849" lon="6.16825">
        <ele>415.216698</ele>
        <time>2025-04-25T08:26:58.000Z</time>
      </trkpt>
      <trkpt lat="43.36846" lon="6.16835">
        <ele>415.115646</ele>
        <time>2025-04-25T08:27:00.000Z</time>
      </trkpt>
      <trkpt lat="43.36842" lon="6.16845">
        <ele>415.012362</ele>
        <time>2025-04-25T08:27:01.000Z</time>
      </trkpt>
      <trkpt lat="43.36842" lon="6.16845">
        <ele>415.012362</ele>
        <time>2025-04-25T08:27:01.000Z</time>
      </trkpt>
      <trkpt lat="43.3684" lon="6.16853">
        <ele>414.932509</ele>
        <time>2025-04-25T08:27:02.000Z</time>
      </trkpt>
      <trkpt lat="43.36836" lon="6.16863">
        <ele>414.833397</ele>
        <time>2025-04-25T08:27:03.000Z</time>
      </trkpt>
      <trkpt lat="43.36834" lon="6.16871">
        <ele>414.749291</ele>
        <time>2025-04-25T08:27:04.000Z</time>
      </trkpt>
      <trkpt lat="43.36834" lon="6.16871">
        <ele>414.749291</ele>
        <time>2025-04-25T08:27:04.000Z</time>
      </trkpt>
      <trkpt lat="43.36831" lon="6.16879">
        <ele>414.664889</ele>
        <time>2025-04-25T08:27:04.000Z</time>
      </trkpt>
      <trkpt lat="43.36829" lon="6.16887">
        <ele>414.586558</ele>
        <time>2025-04-25T08:27:06.000Z</time>
      </trkpt>
      <trkpt lat="43.36827" lon="6.16895">
        <ele>414.508238</ele>
        <time>2025-04-25T08:27:07.000Z</time>
      </trkpt>
      <trkpt lat="43.36827" lon="6.16895">
        <ele>414.508238</ele>
        <time>2025-04-25T08:27:07.000Z</time>
      </trkpt>
      <trkpt lat="43.36825" lon="6.16904">
        <ele>414.42013</ele>
        <time>2025-04-25T08:27:08.000Z</time>
      </trkpt>
      <trkpt lat="43.36824" lon="6.16911">
        <ele>414.35489</ele>
        <time>2025-04-25T08:27:09.000Z</time>
      </trkpt>
      <trkpt lat="43.36822" lon="6.16918">
        <ele>414.289262</ele>
        <time>2025-04-25T08:27:10.000Z</time>
      </trkpt>
      <trkpt lat="43.36821" lon="6.16925">
        <ele>414.21777</ele>
        <time>2025-04-25T08:27:11.000Z</time>
      </trkpt>
      <trkpt lat="43.36821" lon="6.16925">
        <ele>414.21777</ele>
        <time>2025-04-25T08:27:11.000Z</time>
      </trkpt>
      <trkpt lat="43.36819" lon="6.16933">
        <ele>414.141217</ele>
        <time>2025-04-25T08:27:12.000Z</time>
      </trkpt>
      <trkpt lat="43.36817" lon="6.16942">
        <ele>414.054003</ele>
        <time>2025-04-25T08:27:13.000Z</time>
      </trkpt>
      <trkpt lat="43.36815" lon="6.16952">
        <ele>413.956015</ele>
        <time>2025-04-25T08:27:14.000Z</time>
      </trkpt>
      <trkpt lat="43.36814" lon="6.16961">
        <ele>413.875436</ele>
        <time>2025-04-25T08:27:15.000Z</time>
      </trkpt>
      <trkpt lat="43.36814" lon="6.16961">
        <ele>413.875436</ele>
        <time>2025-04-25T08:27:15.000Z</time>
      </trkpt>
      <trkpt lat="43.36812" lon="6.1697">
        <ele>413.787694</ele>
        <time>2025-04-25T08:27:16.000Z</time>
      </trkpt>
      <trkpt lat="43.36811" lon="6.16978">
        <ele>413.707933</ele>
        <time>2025-04-25T08:27:17.000Z</time>
      </trkpt>
      <trkpt lat="43.36811" lon="6.16978">
        <ele>413.707933</ele>
        <time>2025-04-25T08:27:17.000Z</time>
      </trkpt>
      <trkpt lat="43.3681" lon="6.16986">
        <ele>413.632165</ele>
        <time>2025-04-25T08:27:18.000Z</time>
      </trkpt>
      <trkpt lat="43.3681" lon="6.16995">
        <ele>413.553827</ele>
        <time>2025-04-25T08:27:19.000Z</time>
      </trkpt>
      <trkpt lat="43.3681" lon="6.16995">
        <ele>413.553827</ele>
        <time>2025-04-25T08:27:19.000Z</time>
      </trkpt>
      <trkpt lat="43.3681" lon="6.17002">
        <ele>413.488685</ele>
        <time>2025-04-25T08:27:20.000Z</time>
      </trkpt>
      <trkpt lat="43.3681" lon="6.17002">
        <ele>413.488685</ele>
        <time>2025-04-25T08:27:20.000Z</time>
      </trkpt>
      <trkpt lat="43.3681" lon="6.1701">
        <ele>413.41499</ele>
        <time>2025-04-25T08:27:21.000Z</time>
      </trkpt>
      <trkpt lat="43.36809" lon="6.17018">
        <ele>413.339513</ele>
        <time>2025-04-25T08:27:22.000Z</time>
      </trkpt>
      <trkpt lat="43.36809" lon="6.17018">
        <ele>413.339513</ele>
        <time>2025-04-25T08:27:22.000Z</time>
      </trkpt>
      <trkpt lat="43.36809" lon="6.17027">
        <ele>413.249303</ele>
        <time>2025-04-25T08:27:23.000Z</time>
      </trkpt>
      <trkpt lat="43.36809" lon="6.17036">
        <ele>413.157217</ele>
        <time>2025-04-25T08:27:24.000Z</time>
      </trkpt>
      <trkpt lat="43.36809" lon="6.17036">
        <ele>413.157217</ele>
        <time>2025-04-25T08:27:24.000Z</time>
      </trkpt>
      <trkpt lat="43.36809" lon="6.17046">
        <ele>413.063017</ele>
        <time>2025-04-25T08:27:25.000Z</time>
      </trkpt>
      <trkpt lat="43.3681" lon="6.17056">
        <ele>412.963012</ele>
        <time>2025-04-25T08:27:26.000Z</time>
      </trkpt>
      <trkpt lat="43.3681" lon="6.17056">
        <ele>412.963012</ele>
        <time>2025-04-25T08:27:26.000Z</time>
      </trkpt>
      <trkpt lat="43.3681" lon="6.17065">
        <ele>412.877614</ele>
        <time>2025-04-25T08:27:27.000Z</time>
      </trkpt>
      <trkpt lat="43.36811" lon="6.17074">
        <ele>412.790864</ele>
        <time>2025-04-25T08:27:28.000Z</time>
      </trkpt>
      <trkpt lat="43.36811" lon="6.17074">
        <ele>412.790864</ele>
        <time>2025-04-25T08:27:28.000Z</time>
      </trkpt>
      <trkpt lat="43.36812" lon="6.17082">
        <ele>412.707063</ele>
        <time>2025-04-25T08:27:29.000Z</time>
      </trkpt>
      <trkpt lat="43.36813" lon="6.17091">
        <ele>412.619149</ele>
        <time>2025-04-25T08:27:29.000Z</time>
      </trkpt>
      <trkpt lat="43.36813" lon="6.17091">
        <ele>412.619149</ele>
        <time>2025-04-25T08:27:29.000Z</time>
      </trkpt>
      <trkpt lat="43.36815" lon="6.171">
        <ele>412.531676</ele>
        <time>2025-04-25T08:27:31.000Z</time>
      </trkpt>
      <trkpt lat="43.36816" lon="6.17108">
        <ele>412.441746</ele>
        <time>2025-04-25T08:27:32.000Z</time>
      </trkpt>
      <trkpt lat="43.36816" lon="6.17108">
        <ele>412.441746</ele>
        <time>2025-04-25T08:27:32.000Z</time>
      </trkpt>
      <trkpt lat="43.36818" lon="6.17116">
        <ele>412.361023</ele>
        <time>2025-04-25T08:27:32.000Z</time>
      </trkpt>
      <trkpt lat="43.36819" lon="6.17125">
        <ele>412.278795</ele>
        <time>2025-04-25T08:27:34.000Z</time>
      </trkpt>
      <trkpt lat="43.36821" lon="6.17133">
        <ele>412.190862</ele>
        <time>2025-04-25T08:27:35.000Z</time>
      </trkpt>
      <trkpt lat="43.36824" lon="6.1714">
        <ele>412.111226</ele>
        <time>2025-04-25T08:27:36.000Z</time>
      </trkpt>
      <trkpt lat="43.36824" lon="6.1714">
        <ele>412.111226</ele>
        <time>2025-04-25T08:27:36.000Z</time>
      </trkpt>
      <trkpt lat="43.36827" lon="6.17147">
        <ele>412.030929</ele>
        <time>2025-04-25T08:27:37.000Z</time>
      </trkpt>
      <trkpt lat="43.36831" lon="6.17154">
        <ele>411.950078</ele>
        <time>2025-04-25T08:27:38.000Z</time>
      </trkpt>
      <trkpt lat="43.36831" lon="6.17154">
        <ele>411.950078</ele>
        <time>2025-04-25T08:27:38.000Z</time>
      </trkpt>
      <trkpt lat="43.36834" lon="6.1716">
        <ele>411.869883</ele>
        <time>2025-04-25T08:27:39.000Z</time>
      </trkpt>
      <trkpt lat="43.36838" lon="6.17166">
        <ele>411.793754</ele>
        <time>2025-04-25T08:27:40.000Z</time>
      </trkpt>
      <trkpt lat="43.36841" lon="6.17171">
        <ele>411.730244</ele>
        <time>2025-04-25T08:27:41.000Z</time>
      </trkpt>
      <trkpt lat="43.36841" lon="6.17171">
        <ele>411.730244</ele>
        <time>2025-04-25T08:27:41.000Z</time>
      </trkpt>
      <trkpt lat="43.36844" lon="6.17177">
        <ele>411.663596</ele>
        <time>2025-04-25T08:27:42.000Z</time>
      </trkpt>
      <trkpt lat="43.36846" lon="6.17182">
        <ele>411.603967</ele>
        <time>2025-04-25T08:27:43.000Z</time>
      </trkpt>
      <trkpt lat="43.36846" lon="6.17182">
        <ele>411.603967</ele>
        <time>2025-04-25T08:27:43.000Z</time>
      </trkpt>
      <trkpt lat="43.36848" lon="6.17188">
        <ele>411.539855</ele>
        <time>2025-04-25T08:27:43.000Z</time>
      </trkpt>
      <trkpt lat="43.36849" lon="6.17195">
        <ele>411.476383</ele>
        <time>2025-04-25T08:27:44.000Z</time>
      </trkpt>
      <trkpt lat="43.36849" lon="6.17201">
        <ele>411.414534</ele>
        <time>2025-04-25T08:27:46.000Z</time>
      </trkpt>
      <trkpt lat="43.36849" lon="6.17201">
        <ele>411.414534</ele>
        <time>2025-04-25T08:27:46.000Z</time>
      </trkpt>
      <trkpt lat="43.36847" lon="6.17208">
        <ele>411.34265</ele>
        <time>2025-04-25T08:27:46.000Z</time>
      </trkpt>
      <trkpt lat="43.36845" lon="6.17216">
        <ele>411.259283</ele>
        <time>2025-04-25T08:27:47.000Z</time>
      </trkpt>
      <trkpt lat="43.36842" lon="6.17224">
        <ele>411.171969</ele>
        <time>2025-04-25T08:27:49.000Z</time>
      </trkpt>
      <trkpt lat="43.36842" lon="6.17224">
        <ele>411.171969</ele>
        <time>2025-04-25T08:27:49.000Z</time>
      </trkpt>
      <trkpt lat="43.36839" lon="6.17232">
        <ele>411.084022</ele>
        <time>2025-04-25T08:27:50.000Z</time>
      </trkpt>
      <trkpt lat="43.36835" lon="6.1724">
        <ele>410.990405</ele>
        <time>2025-04-25T08:27:51.000Z</time>
      </trkpt>
      <trkpt lat="43.36831" lon="6.17247">
        <ele>410.902984</ele>
        <time>2025-04-25T08:27:52.000Z</time>
      </trkpt>
      <trkpt lat="43.36831" lon="6.17247">
        <ele>410.902984</ele>
        <time>2025-04-25T08:27:52.000Z</time>
      </trkpt>
      <trkpt lat="43.36828" lon="6.17254">
        <ele>410.856379</ele>
        <time>2025-04-25T08:27:52.000Z</time>
      </trkpt>
      <trkpt lat="43.36823" lon="6.17262">
        <ele>410.807603</ele>
        <time>2025-04-25T08:27:53.000Z</time>
      </trkpt>
      <trkpt lat="43.36823" lon="6.17262">
        <ele>410.807603</ele>
        <time>2025-04-25T08:27:53.000Z</time>
      </trkpt>
      <trkpt lat="43.36819" lon="6.1727">
        <ele>410.754854</ele>
        <time>2025-04-25T08:27:54.000Z</time>
      </trkpt>
      <trkpt lat="43.36813" lon="6.17279">
        <ele>410.697535</ele>
        <time>2025-04-25T08:27:56.000Z</time>
      </trkpt>
      <trkpt lat="43.36809" lon="6.17286">
        <ele>410.651622</ele>
        <time>2025-04-25T08:27:56.000Z</time>
      </trkpt>
      <trkpt lat="43.36809" lon="6.17286">
        <ele>410.651622</ele>
        <time>2025-04-25T08:27:56.000Z</time>
      </trkpt>
      <trkpt lat="43.36806" lon="6.17293">
        <ele>410.608178</ele>
        <time>2025-04-25T08:27:58.000Z</time>
      </trkpt>
      <trkpt lat="43.36802" lon="6.17299">
        <ele>410.570021</ele>
        <time>2025-04-25T08:27:58.000Z</time>
      </trkpt>
      <trkpt lat="43.36802" lon="6.17299">
        <ele>410.570021</ele>
        <time>2025-04-25T08:27:58.000Z</time>
      </trkpt>
      <trkpt lat="43.36799" lon="6.17305">
        <ele>410.532649</ele>
        <time>2025-04-25T08:27:59.000Z</time>
      </trkpt>
      <trkpt lat="43.36795" lon="6.17312">
        <ele>410.488413</ele>
        <time>2025-04-25T08:28:00.000Z</time>
      </trkpt>
      <trkpt lat="43.3679" lon="6.1732">
        <ele>410.436706</ele>
        <time>2025-04-25T08:28:02.000Z</time>
      </trkpt>
      <trkpt lat="43.3679" lon="6.1732">
        <ele>410.436706</ele>
        <time>2025-04-25T08:28:02.000Z</time>
      </trkpt>
      <trkpt lat="43.36786" lon="6.17327">
        <ele>410.390793</ele>
        <time>2025-04-25T08:28:02.000Z</time>
      </trkpt>
      <trkpt lat="43.36782" lon="6.17334">
        <ele>410.345268</ele>
        <time>2025-04-25T08:28:03.000Z</time>
      </trkpt>
      <trkpt lat="43.36778" lon="6.17341">
        <ele>410.298573</ele>
        <time>2025-04-25T08:28:05.000Z</time>
      </trkpt>
      <trkpt lat="43.36778" lon="6.17341">
        <ele>410.298573</ele>
        <time>2025-04-25T08:28:05.000Z</time>
      </trkpt>
      <trkpt lat="43.36774" lon="6.17347">
        <ele>410.261201</ele>
        <time>2025-04-25T08:28:05.000Z</time>
      </trkpt>
      <trkpt lat="43.3677" lon="6.17355">
        <ele>410.212917</ele>
        <time>2025-04-25T08:28:06.000Z</time>
      </trkpt>
      <trkpt lat="43.36766" lon="6.17362">
        <ele>410.167477</ele>
        <time>2025-04-25T08:28:08.000Z</time>
      </trkpt>
      <trkpt lat="43.36762" lon="6.17371">
        <ele>410.115706</ele>
        <time>2025-04-25T08:28:08.000Z</time>
      </trkpt>
      <trkpt lat="43.36762" lon="6.17371">
        <ele>410.115706</ele>
        <time>2025-04-25T08:28:08.000Z</time>
      </trkpt>
      <trkpt lat="43.36759" lon="6.1738">
        <ele>410.0665</ele>
        <time>2025-04-25T08:28:09.000Z</time>
      </trkpt>
      <trkpt lat="43.36757" lon="6.17389">
        <ele>410.021416</ele>
        <time>2025-04-25T08:28:10.000Z</time>
      </trkpt>
      <trkpt lat="43.36756" lon="6.17397">
        <ele>409.979491</ele>
        <time>2025-04-25T08:28:12.000Z</time>
      </trkpt>
      <trkpt lat="43.36755" lon="6.17404">
        <ele>409.943772</ele>
        <time>2025-04-25T08:28:12.000Z</time>
      </trkpt>
      <trkpt lat="43.36756" lon="6.17411">
        <ele>409.908053</ele>
        <time>2025-04-25T08:28:13.000Z</time>
      </trkpt>
      <trkpt lat="43.36756" lon="6.17411">
        <ele>409.908053</ele>
        <time>2025-04-25T08:28:13.000Z</time>
      </trkpt>
      <trkpt lat="43.36756" lon="6.17417">
        <ele>409.874884</ele>
        <time>2025-04-25T08:28:15.000Z</time>
      </trkpt>
      <trkpt lat="43.36757" lon="6.17424">
        <ele>409.839786</ele>
        <time>2025-04-25T08:28:15.000Z</time>
      </trkpt>
      <trkpt lat="43.36758" lon="6.17432">
        <ele>409.800863</ele>
        <time>2025-04-25T08:28:17.000Z</time>
      </trkpt>
      <trkpt lat="43.36758" lon="6.17432">
        <ele>409.800863</ele>
        <time>2025-04-25T08:28:17.000Z</time>
      </trkpt>
      <trkpt lat="43.36759" lon="6.1744">
        <ele>409.760873</ele>
        <time>2025-04-25T08:28:18.000Z</time>
      </trkpt>
      <trkpt lat="43.3676" lon="6.17448">
        <ele>409.721152</ele>
        <time>2025-04-25T08:28:18.000Z</time>
      </trkpt>
      <trkpt lat="43.3676" lon="6.17455">
        <ele>409.684035</ele>
        <time>2025-04-25T08:28:19.000Z</time>
      </trkpt>
      <trkpt lat="43.36759" lon="6.17463">
        <ele>409.654457</ele>
        <time>2025-04-25T08:28:21.000Z</time>
      </trkpt>
      <trkpt lat="43.36758" lon="6.1747">
        <ele>409.653674</ele>
        <time>2025-04-25T08:28:21.000Z</time>
      </trkpt>
      <trkpt lat="43.36757" lon="6.17477">
        <ele>409.653015</ele>
        <time>2025-04-25T08:28:22.000Z</time>
      </trkpt>
      <trkpt lat="43.36755" lon="6.17484">
        <ele>409.652258</ele>
        <time>2025-04-25T08:28:24.000Z</time>
      </trkpt>
      <trkpt lat="43.36755" lon="6.17484">
        <ele>409.652258</ele>
        <time>2025-04-25T08:28:24.000Z</time>
      </trkpt>
      <trkpt lat="43.36753" lon="6.17491">
        <ele>409.651503</ele>
        <time>2025-04-25T08:28:24.000Z</time>
      </trkpt>
      <trkpt lat="43.36752" lon="6.17499">
        <ele>409.650699</ele>
        <time>2025-04-25T08:28:26.000Z</time>
      </trkpt>
      <trkpt lat="43.36749" lon="6.17508">
        <ele>409.649785</ele>
        <time>2025-04-25T08:28:26.000Z</time>
      </trkpt>
      <trkpt lat="43.36747" lon="6.17515">
        <ele>409.648993</ele>
        <time>2025-04-25T08:28:27.000Z</time>
      </trkpt>
      <trkpt lat="43.36745" lon="6.17522">
        <ele>409.648208</ele>
        <time>2025-04-25T08:28:28.000Z</time>
      </trkpt>
      <trkpt lat="43.36742" lon="6.1753">
        <ele>409.647382</ele>
        <time>2025-04-25T08:28:29.000Z</time>
      </trkpt>
      <trkpt lat="43.36739" lon="6.17537">
        <ele>409.646555</ele>
        <time>2025-04-25T08:28:30.000Z</time>
      </trkpt>
      <trkpt lat="43.36739" lon="6.17537">
        <ele>409.646555</ele>
        <time>2025-04-25T08:28:30.000Z</time>
      </trkpt>
      <trkpt lat="43.36737" lon="6.17544">
        <ele>409.645807</ele>
        <time>2025-04-25T08:28:31.000Z</time>
      </trkpt>
      <trkpt lat="43.36735" lon="6.17551">
        <ele>409.645022</ele>
        <time>2025-04-25T08:28:32.000Z</time>
      </trkpt>
      <trkpt lat="43.36733" lon="6.17559">
        <ele>409.644214</ele>
        <time>2025-04-25T08:28:33.000Z</time>
      </trkpt>
      <trkpt lat="43.36733" lon="6.17565">
        <ele>409.643544</ele>
        <time>2025-04-25T08:28:34.000Z</time>
      </trkpt>
      <trkpt lat="43.36734" lon="6.17574">
        <ele>409.642683</ele>
        <time>2025-04-25T08:28:35.000Z</time>
      </trkpt>
      <trkpt lat="43.36735" lon="6.1758">
        <ele>409.642034</ele>
        <time>2025-04-25T08:28:36.000Z</time>
      </trkpt>
      <trkpt lat="43.36736" lon="6.17587">
        <ele>409.641378</ele>
        <time>2025-04-25T08:28:37.000Z</time>
      </trkpt>
      <trkpt lat="43.36738" lon="6.17594">
        <ele>409.640659</ele>
        <time>2025-04-25T08:28:39.000Z</time>
      </trkpt>
      <trkpt lat="43.36738" lon="6.176">
        <ele>409.639979</ele>
        <time>2025-04-25T08:28:39.000Z</time>
      </trkpt>
      <trkpt lat="43.36738" lon="6.17609">
        <ele>409.639129</ele>
        <time>2025-04-25T08:28:40.000Z</time>
      </trkpt>
      <trkpt lat="43.36736" lon="6.17616">
        <ele>409.638382</ele>
        <time>2025-04-25T08:28:42.000Z</time>
      </trkpt>
      <trkpt lat="43.36734" lon="6.17624">
        <ele>409.637529</ele>
        <time>2025-04-25T08:28:42.000Z</time>
      </trkpt>
      <trkpt lat="43.36731" lon="6.17631">
        <ele>409.636684</ele>
        <time>2025-04-25T08:28:43.000Z</time>
      </trkpt>
      <trkpt lat="43.36727" lon="6.17639">
        <ele>409.635748</ele>
        <time>2025-04-25T08:28:44.000Z</time>
      </trkpt>
      <trkpt lat="43.36723" lon="6.17645">
        <ele>409.634957</ele>
        <time>2025-04-25T08:28:45.000Z</time>
      </trkpt>
      <trkpt lat="43.36723" lon="6.17645">
        <ele>409.634957</ele>
        <time>2025-04-25T08:28:45.000Z</time>
      </trkpt>
      <trkpt lat="43.3672" lon="6.17652">
        <ele>409.634142</ele>
        <time>2025-04-25T08:28:46.000Z</time>
      </trkpt>
      <trkpt lat="43.36715" lon="6.17659">
        <ele>409.633171</ele>
        <time>2025-04-25T08:28:48.000Z</time>
      </trkpt>
      <trkpt lat="43.36711" lon="6.17666">
        <ele>409.632266</ele>
        <time>2025-04-25T08:28:48.000Z</time>
      </trkpt>
      <trkpt lat="43.36706" lon="6.17671">
        <ele>409.631435</ele>
        <time>2025-04-25T08:28:50.000Z</time>
      </trkpt>
      <trkpt lat="43.367" lon="6.17675">
        <ele>409.630593</ele>
        <time>2025-04-25T08:28:51.000Z</time>
      </trkpt>
      <trkpt lat="43.36695" lon="6.17678">
        <ele>409.625944</ele>
        <time>2025-04-25T08:28:51.000Z</time>
      </trkpt>
      <trkpt lat="43.36695" lon="6.17678">
        <ele>409.625944</ele>
        <time>2025-04-25T08:28:51.000Z</time>
      </trkpt>
      <trkpt lat="43.36689" lon="6.1768">
        <ele>409.610121</ele>
        <time>2025-04-25T08:28:53.000Z</time>
      </trkpt>
      <trkpt lat="43.36683" lon="6.17682">
        <ele>409.594562</ele>
        <time>2025-04-25T08:28:54.000Z</time>
      </trkpt>
      <trkpt lat="43.36677" lon="6.17684">
        <ele>409.580948</ele>
        <time>2025-04-25T08:28:55.000Z</time>
      </trkpt>
      <trkpt lat="43.36671" lon="6.17686">
        <ele>409.564412</ele>
        <time>2025-04-25T08:28:55.000Z</time>
      </trkpt>
      <trkpt lat="43.36664" lon="6.17688">
        <ele>409.547761</ele>
        <time>2025-04-25T08:28:56.000Z</time>
      </trkpt>
      <trkpt lat="43.36657" lon="6.1769">
        <ele>409.528955</ele>
        <time>2025-04-25T08:28:58.000Z</time>
      </trkpt>
      <trkpt lat="43.3665" lon="6.17693">
        <ele>409.511401</ele>
        <time>2025-04-25T08:28:58.000Z</time>
      </trkpt>
      <trkpt lat="43.36644" lon="6.17695">
        <ele>409.496535</ele>
        <time>2025-04-25T08:28:59.000Z</time>
      </trkpt>
      <trkpt lat="43.36638" lon="6.17698">
        <ele>409.479378</ele>
        <time>2025-04-25T08:29:00.000Z</time>
      </trkpt>
      <trkpt lat="43.36633" lon="6.17702">
        <ele>409.464413</ele>
        <time>2025-04-25T08:29:02.000Z</time>
      </trkpt>
      <trkpt lat="43.36627" lon="6.17707">
        <ele>409.448588</ele>
        <time>2025-04-25T08:29:03.000Z</time>
      </trkpt>
      <trkpt lat="43.36623" lon="6.17713">
        <ele>409.433148</ele>
        <time>2025-04-25T08:29:04.000Z</time>
      </trkpt>
      <trkpt lat="43.36623" lon="6.17713">
        <ele>409.433148</ele>
        <time>2025-04-25T08:29:04.000Z</time>
      </trkpt>
      <trkpt lat="43.36619" lon="6.17719">
        <ele>409.417598</ele>
        <time>2025-04-25T08:29:05.000Z</time>
      </trkpt>
      <trkpt lat="43.36616" lon="6.17726">
        <ele>409.404025</ele>
        <time>2025-04-25T08:29:06.000Z</time>
      </trkpt>
      <trkpt lat="43.36614" lon="6.17733">
        <ele>409.389767</ele>
        <time>2025-04-25T08:29:07.000Z</time>
      </trkpt>
      <trkpt lat="43.36612" lon="6.17739">
        <ele>409.377234</ele>
        <time>2025-04-25T08:29:07.000Z</time>
      </trkpt>
      <trkpt lat="43.3661" lon="6.17746">
        <ele>409.364177</ele>
        <time>2025-04-25T08:29:09.000Z</time>
      </trkpt>
      <trkpt lat="43.3661" lon="6.17746">
        <ele>409.364177</ele>
        <time>2025-04-25T08:29:09.000Z</time>
      </trkpt>
      <trkpt lat="43.36609" lon="6.17753">
        <ele>409.351466</ele>
        <time>2025-04-25T08:29:10.000Z</time>
      </trkpt>
      <trkpt lat="43.36607" lon="6.1776">
        <ele>409.338089</ele>
        <time>2025-04-25T08:29:10.000Z</time>
      </trkpt>
      <trkpt lat="43.36605" lon="6.17768">
        <ele>409.323519</ele>
        <time>2025-04-25T08:29:11.000Z</time>
      </trkpt>
      <trkpt lat="43.36602" lon="6.17775">
        <ele>409.307402</ele>
        <time>2025-04-25T08:29:13.000Z</time>
      </trkpt>
      <trkpt lat="43.36599" lon="6.17782">
        <ele>409.29267</ele>
        <time>2025-04-25T08:29:14.000Z</time>
      </trkpt>
      <trkpt lat="43.36595" lon="6.17789">
        <ele>409.277249</ele>
        <time>2025-04-25T08:29:15.000Z</time>
      </trkpt>
      <trkpt lat="43.36591" lon="6.17795">
        <ele>409.261919</ele>
        <time>2025-04-25T08:29:16.000Z</time>
      </trkpt>
      <trkpt lat="43.36585" lon="6.17802">
        <ele>409.242914</ele>
        <time>2025-04-25T08:29:17.000Z</time>
      </trkpt>
      <trkpt lat="43.3658" lon="6.17807">
        <ele>409.227698</ele>
        <time>2025-04-25T08:29:18.000Z</time>
      </trkpt>
      <trkpt lat="43.36575" lon="6.17812">
        <ele>409.212282</ele>
        <time>2025-04-25T08:29:19.000Z</time>
      </trkpt>
      <trkpt lat="43.3657" lon="6.17817">
        <ele>409.195801</ele>
        <time>2025-04-25T08:29:20.000Z</time>
      </trkpt>
      <trkpt lat="43.36565" lon="6.17821">
        <ele>409.184505</ele>
        <time>2025-04-25T08:29:21.000Z</time>
      </trkpt>
      <trkpt lat="43.36559" lon="6.17824">
        <ele>409.550423</ele>
        <time>2025-04-25T08:29:21.000Z</time>
      </trkpt>
      <trkpt lat="43.36555" lon="6.17828">
        <ele>409.876254</ele>
        <time>2025-04-25T08:29:23.000Z</time>
      </trkpt>
      <trkpt lat="43.3655" lon="6.17833">
        <ele>410.223774</ele>
        <time>2025-04-25T08:29:24.000Z</time>
      </trkpt>
      <trkpt lat="43.36546" lon="6.17838">
        <ele>410.585607</ele>
        <time>2025-04-25T08:29:25.000Z</time>
      </trkpt>
      <trkpt lat="43.36541" lon="6.17844">
        <ele>410.994833</ele>
        <time>2025-04-25T08:29:26.000Z</time>
      </trkpt>
      <trkpt lat="43.36536" lon="6.17852">
        <ele>411.451355</ele>
        <time>2025-04-25T08:29:27.000Z</time>
      </trkpt>
      <trkpt lat="43.36532" lon="6.17861">
        <ele>411.918784</ele>
        <time>2025-04-25T08:29:28.000Z</time>
      </trkpt>
      <trkpt lat="43.36529" lon="6.17869">
        <ele>412.341295</ele>
        <time>2025-04-25T08:29:29.000Z</time>
      </trkpt>
      <trkpt lat="43.36527" lon="6.17876">
        <ele>412.654858</ele>
        <time>2025-04-25T08:29:30.000Z</time>
      </trkpt>
      <trkpt lat="43.36526" lon="6.17882">
        <ele>412.963702</ele>
        <time>2025-04-25T08:29:31.000Z</time>
      </trkpt>
      <trkpt lat="43.36525" lon="6.17887">
        <ele>413.179947</ele>
        <time>2025-04-25T08:29:32.000Z</time>
      </trkpt>
      <trkpt lat="43.36526" lon="6.1789">
        <ele>413.325274</ele>
        <time>2025-04-25T08:29:33.000Z</time>
      </trkpt>
      <trkpt lat="43.36526" lon="6.1789">
        <ele>413.325274</ele>
        <time>2025-04-25T08:29:33.000Z</time>
      </trkpt>
      <trkpt lat="43.36527" lon="6.17893">
        <ele>413.463115</ele>
        <time>2025-04-25T08:29:34.000Z</time>
      </trkpt>
      <trkpt lat="43.36528" lon="6.17895">
        <ele>413.568362</ele>
        <time>2025-04-25T08:29:35.000Z</time>
      </trkpt>
      <trkpt lat="43.36528" lon="6.17895">
        <ele>414.38416</ele>
        <time>2025-04-25T08:29:44.000Z</time>
      </trkpt>
      <trkpt lat="43.3653" lon="6.17892">
        <ele>414.558355</ele>
        <time>2025-04-25T08:29:44.000Z</time>
      </trkpt>
      <trkpt lat="43.3653" lon="6.17892">
        <ele>414.558355</ele>
        <time>2025-04-25T08:29:44.000Z</time>
      </trkpt>
      <trkpt lat="43.36531" lon="6.17889">
        <ele>414.710819</ele>
        <time>2025-04-25T08:29:46.000Z</time>
      </trkpt>
      <trkpt lat="43.36531" lon="6.17889">
        <ele>414.710819</ele>
        <time>2025-04-25T08:29:46.000Z</time>
      </trkpt>
      <trkpt lat="43.36533" lon="6.17887">
        <ele>414.839432</ele>
        <time>2025-04-25T08:29:47.000Z</time>
      </trkpt>
      <trkpt lat="43.36534" lon="6.17885">
        <ele>414.974429</ele>
        <time>2025-04-25T08:29:47.000Z</time>
      </trkpt>
      <trkpt lat="43.36534" lon="6.17885">
        <ele>414.974429</ele>
        <time>2025-04-25T08:29:47.000Z</time>
      </trkpt>
      <trkpt lat="43.36536" lon="6.17882">
        <ele>415.169571</ele>
        <time>2025-04-25T08:29:49.000Z</time>
      </trkpt>
      <trkpt lat="43.36536" lon="6.17882">
        <ele>415.169571</ele>
        <time>2025-04-25T08:29:49.000Z</time>
      </trkpt>
      <trkpt lat="43.36538" lon="6.17879">
        <ele>415.307866</ele>
        <time>2025-04-25T08:29:49.000Z</time>
      </trkpt>
      <trkpt lat="43.36538" lon="6.17879">
        <ele>415.307866</ele>
        <time>2025-04-25T08:29:49.000Z</time>
      </trkpt>
      <trkpt lat="43.3654" lon="6.17876">
        <ele>415.499806</ele>
        <time>2025-04-25T08:29:50.000Z</time>
      </trkpt>
      <trkpt lat="43.3654" lon="6.17876">
        <ele>415.499806</ele>
        <time>2025-04-25T08:29:50.000Z</time>
      </trkpt>
      <trkpt lat="43.36541" lon="6.17873">
        <ele>415.677342</ele>
        <time>2025-04-25T08:29:51.000Z</time>
      </trkpt>
      <trkpt lat="43.36541" lon="6.17873">
        <ele>415.677342</ele>
        <time>2025-04-25T08:29:51.000Z</time>
      </trkpt>
      <trkpt lat="43.36543" lon="6.1787">
        <ele>415.836639</ele>
        <time>2025-04-25T08:29:53.000Z</time>
      </trkpt>
      <trkpt lat="43.36543" lon="6.1787">
        <ele>415.836639</ele>
        <time>2025-04-25T08:29:53.000Z</time>
      </trkpt>
      <trkpt lat="43.36545" lon="6.17866">
        <ele>416.032147</ele>
        <time>2025-04-25T08:29:54.000Z</time>
      </trkpt>
      <trkpt lat="43.36545" lon="6.17866">
        <ele>416.032147</ele>
        <time>2025-04-25T08:29:54.000Z</time>
      </trkpt>
      <trkpt lat="43.36546" lon="6.17864">
        <ele>416.180708</ele>
        <time>2025-04-25T08:29:55.000Z</time>
      </trkpt>
      <trkpt lat="43.36546" lon="6.17864">
        <ele>416.180708</ele>
        <time>2025-04-25T08:29:55.000Z</time>
      </trkpt>
      <trkpt lat="43.36548" lon="6.17861">
        <ele>416.347239</ele>
        <time>2025-04-25T08:29:55.000Z</time>
      </trkpt>
      <trkpt lat="43.36548" lon="6.17861">
        <ele>416.347239</ele>
        <time>2025-04-25T08:29:55.000Z</time>
      </trkpt>
      <trkpt lat="43.36549" lon="6.17858">
        <ele>416.517655</ele>
        <time>2025-04-25T08:29:56.000Z</time>
      </trkpt>
      <trkpt lat="43.36549" lon="6.17858">
        <ele>416.517655</ele>
        <time>2025-04-25T08:29:56.000Z</time>
      </trkpt>
      <trkpt lat="43.36551" lon="6.17854">
        <ele>416.699133</ele>
        <time>2025-04-25T08:29:57.000Z</time>
      </trkpt>
      <trkpt lat="43.36551" lon="6.17854">
        <ele>416.699133</ele>
        <time>2025-04-25T08:29:57.000Z</time>
      </trkpt>
      <trkpt lat="43.36554" lon="6.17851">
        <ele>416.927544</ele>
        <time>2025-04-25T08:29:59.000Z</time>
      </trkpt>
      <trkpt lat="43.36554" lon="6.17851">
        <ele>416.927544</ele>
        <time>2025-04-25T08:29:59.000Z</time>
      </trkpt>
      <trkpt lat="43.36558" lon="6.1785">
        <ele>417.169741</ele>
        <time>2025-04-25T08:30:00.000Z</time>
      </trkpt>
      <trkpt lat="43.36558" lon="6.1785">
        <ele>417.169741</ele>
        <time>2025-04-25T08:30:00.000Z</time>
      </trkpt>
      <trkpt lat="43.3656" lon="6.17851">
        <ele>417.338583</ele>
        <time>2025-04-25T08:30:01.000Z</time>
      </trkpt>
      <trkpt lat="43.3656" lon="6.17851">
        <ele>417.338583</ele>
        <time>2025-04-25T08:30:01.000Z</time>
      </trkpt>
      <trkpt lat="43.36563" lon="6.17853">
        <ele>417.513649</ele>
        <time>2025-04-25T08:30:03.000Z</time>
      </trkpt>
      <trkpt lat="43.36563" lon="6.17853">
        <ele>417.513649</ele>
        <time>2025-04-25T08:30:03.000Z</time>
      </trkpt>
      <trkpt lat="43.36564" lon="6.17856">
        <ele>417.65667</ele>
        <time>2025-04-25T08:30:04.000Z</time>
      </trkpt>
      <trkpt lat="43.36564" lon="6.17856">
        <ele>417.65667</ele>
        <time>2025-04-25T08:30:04.000Z</time>
      </trkpt>
      <trkpt lat="43.36564" lon="6.1786">
        <ele>417.841822</ele>
        <time>2025-04-25T08:30:04.000Z</time>
      </trkpt>
      <trkpt lat="43.36564" lon="6.1786">
        <ele>417.841822</ele>
        <time>2025-04-25T08:30:04.000Z</time>
      </trkpt>
      <trkpt lat="43.36562" lon="6.17866">
        <ele>418.147095</ele>
        <time>2025-04-25T08:30:06.000Z</time>
      </trkpt>
      <trkpt lat="43.36562" lon="6.17866">
        <ele>418.147095</ele>
        <time>2025-04-25T08:30:06.000Z</time>
      </trkpt>
      <trkpt lat="43.36559" lon="6.17873">
        <ele>418.513953</ele>
        <time>2025-04-25T08:30:08.000Z</time>
      </trkpt>
      <trkpt lat="43.36559" lon="6.17873">
        <ele>418.513953</ele>
        <time>2025-04-25T08:30:08.000Z</time>
      </trkpt>
      <trkpt lat="43.36557" lon="6.1788">
        <ele>418.83349</ele>
        <time>2025-04-25T08:30:10.000Z</time>
      </trkpt>
      <trkpt lat="43.36557" lon="6.1788">
        <ele>418.83349</ele>
        <time>2025-04-25T08:30:10.000Z</time>
      </trkpt>
      <trkpt lat="43.36556" lon="6.17886">
        <ele>419.123482</ele>
        <time>2025-04-25T08:30:12.000Z</time>
      </trkpt>
      <trkpt lat="43.36556" lon="6.17886">
        <ele>419.123482</ele>
        <time>2025-04-25T08:30:12.000Z</time>
      </trkpt>
      <trkpt lat="43.36556" lon="6.1789">
        <ele>419.298037</ele>
        <time>2025-04-25T08:30:13.000Z</time>
      </trkpt>
      <trkpt lat="43.36556" lon="6.1789">
        <ele>419.298037</ele>
        <time>2025-04-25T08:30:13.000Z</time>
      </trkpt>
      <trkpt lat="43.36556" lon="6.17897">
        <ele>419.620292</ele>
        <time>2025-04-25T08:30:15.000Z</time>
      </trkpt>
      <trkpt lat="43.36556" lon="6.17897">
        <ele>419.620292</ele>
        <time>2025-04-25T08:30:15.000Z</time>
      </trkpt>
      <trkpt lat="43.36556" lon="6.17904">
        <ele>419.907798</ele>
        <time>2025-04-25T08:30:17.000Z</time>
      </trkpt>
      <trkpt lat="43.36556" lon="6.17904">
        <ele>419.907798</ele>
        <time>2025-04-25T08:30:17.000Z</time>
      </trkpt>
      <trkpt lat="43.36557" lon="6.17907">
        <ele>420.065959</ele>
        <time>2025-04-25T08:30:18.000Z</time>
      </trkpt>
      <trkpt lat="43.36557" lon="6.17907">
        <ele>420.065959</ele>
        <time>2025-04-25T08:30:18.000Z</time>
      </trkpt>
      <trkpt lat="43.36558" lon="6.1791">
        <ele>420.231106</ele>
        <time>2025-04-25T08:30:19.000Z</time>
      </trkpt>
      <trkpt lat="43.36558" lon="6.1791">
        <ele>420.231106</ele>
        <time>2025-04-25T08:30:19.000Z</time>
      </trkpt>
      <trkpt lat="43.3656" lon="6.17916">
        <ele>420.868651</ele>
        <time>2025-04-25T08:30:21.000Z</time>
      </trkpt>
      <trkpt lat="43.3656" lon="6.17916">
        <ele>420.868651</ele>
        <time>2025-04-25T08:30:21.000Z</time>
      </trkpt>
      <trkpt lat="43.36563" lon="6.17923">
        <ele>421.637423</ele>
        <time>2025-04-25T08:30:23.000Z</time>
      </trkpt>
      <trkpt lat="43.36563" lon="6.17923">
        <ele>421.637423</ele>
        <time>2025-04-25T08:30:23.000Z</time>
      </trkpt>
      <trkpt lat="43.36564" lon="6.17925">
        <ele>421.960459</ele>
        <time>2025-04-25T08:30:24.000Z</time>
      </trkpt>
      <trkpt lat="43.36564" lon="6.17925">
        <ele>421.960459</ele>
        <time>2025-04-25T08:30:24.000Z</time>
      </trkpt>
      <trkpt lat="43.36565" lon="6.17927">
        <ele>422.216459</ele>
        <time>2025-04-25T08:30:25.000Z</time>
      </trkpt>
      <trkpt lat="43.36565" lon="6.17927">
        <ele>422.216459</ele>
        <time>2025-04-25T08:30:25.000Z</time>
      </trkpt>
      <trkpt lat="43.36566" lon="6.17929">
        <ele>422.489117</ele>
        <time>2025-04-25T08:30:26.000Z</time>
      </trkpt>
      <trkpt lat="43.36566" lon="6.17929">
        <ele>422.489117</ele>
        <time>2025-04-25T08:30:26.000Z</time>
      </trkpt>
      <trkpt lat="43.36568" lon="6.17932">
        <ele>422.835992</ele>
        <time>2025-04-25T08:30:27.000Z</time>
      </trkpt>
      <trkpt lat="43.36568" lon="6.17932">
        <ele>422.835992</ele>
        <time>2025-04-25T08:30:27.000Z</time>
      </trkpt>
      <trkpt lat="43.36569" lon="6.17936">
        <ele>423.220258</ele>
        <time>2025-04-25T08:30:28.000Z</time>
      </trkpt>
      <trkpt lat="43.36569" lon="6.17936">
        <ele>423.220258</ele>
        <time>2025-04-25T08:30:28.000Z</time>
      </trkpt>
      <trkpt lat="43.36569" lon="6.17939">
        <ele>423.561375</ele>
        <time>2025-04-25T08:30:29.000Z</time>
      </trkpt>
      <trkpt lat="43.36569" lon="6.17939">
        <ele>423.561375</ele>
        <time>2025-04-25T08:30:29.000Z</time>
      </trkpt>
      <trkpt lat="43.36569" lon="6.17942">
        <ele>423.847194</ele>
        <time>2025-04-25T08:30:30.000Z</time>
      </trkpt>
      <trkpt lat="43.36569" lon="6.17942">
        <ele>423.847194</ele>
        <time>2025-04-25T08:30:30.000Z</time>
      </trkpt>
      <trkpt lat="43.3657" lon="6.17945">
        <ele>424.208855</ele>
        <time>2025-04-25T08:30:31.000Z</time>
      </trkpt>
      <trkpt lat="43.3657" lon="6.17945">
        <ele>424.208855</ele>
        <time>2025-04-25T08:30:31.000Z</time>
      </trkpt>
      <trkpt lat="43.36569" lon="6.17949">
        <ele>424.560436</ele>
        <time>2025-04-25T08:30:32.000Z</time>
      </trkpt>
      <trkpt lat="43.36569" lon="6.17949">
        <ele>424.560436</ele>
        <time>2025-04-25T08:30:32.000Z</time>
      </trkpt>
      <trkpt lat="43.36569" lon="6.17952">
        <ele>424.891879</ele>
        <time>2025-04-25T08:30:33.000Z</time>
      </trkpt>
      <trkpt lat="43.36569" lon="6.17952">
        <ele>424.891879</ele>
        <time>2025-04-25T08:30:33.000Z</time>
      </trkpt>
      <trkpt lat="43.36569" lon="6.17955">
        <ele>425.177698</ele>
        <time>2025-04-25T08:30:34.000Z</time>
      </trkpt>
      <trkpt lat="43.36569" lon="6.17955">
        <ele>425.177698</ele>
        <time>2025-04-25T08:30:34.000Z</time>
      </trkpt>
      <trkpt lat="43.36569" lon="6.17958">
        <ele>425.507053</ele>
        <time>2025-04-25T08:30:35.000Z</time>
      </trkpt>
      <trkpt lat="43.36569" lon="6.17958">
        <ele>425.507053</ele>
        <time>2025-04-25T08:30:35.000Z</time>
      </trkpt>
      <trkpt lat="43.36568" lon="6.17961">
        <ele>425.788329</ele>
        <time>2025-04-25T08:30:36.000Z</time>
      </trkpt>
      <trkpt lat="43.36568" lon="6.17961">
        <ele>425.788329</ele>
        <time>2025-04-25T08:30:36.000Z</time>
      </trkpt>
      <trkpt lat="43.36567" lon="6.17963">
        <ele>426.067153</ele>
        <time>2025-04-25T08:30:37.000Z</time>
      </trkpt>
      <trkpt lat="43.36567" lon="6.17963">
        <ele>426.067153</ele>
        <time>2025-04-25T08:30:37.000Z</time>
      </trkpt>
      <trkpt lat="43.36566" lon="6.17966">
        <ele>426.40105</ele>
        <time>2025-04-25T08:30:38.000Z</time>
      </trkpt>
      <trkpt lat="43.36566" lon="6.17966">
        <ele>426.40105</ele>
        <time>2025-04-25T08:30:38.000Z</time>
      </trkpt>
      <trkpt lat="43.36566" lon="6.17969">
        <ele>426.692336</ele>
        <time>2025-04-25T08:30:39.000Z</time>
      </trkpt>
      <trkpt lat="43.36566" lon="6.17969">
        <ele>426.692336</ele>
        <time>2025-04-25T08:30:39.000Z</time>
      </trkpt>
      <trkpt lat="43.36565" lon="6.17971">
        <ele>426.934348</ele>
        <time>2025-04-25T08:30:40.000Z</time>
      </trkpt>
      <trkpt lat="43.36565" lon="6.17971">
        <ele>426.934348</ele>
        <time>2025-04-25T08:30:40.000Z</time>
      </trkpt>
      <trkpt lat="43.36564" lon="6.17973">
        <ele>427.217367</ele>
        <time>2025-04-25T08:30:41.000Z</time>
      </trkpt>
      <trkpt lat="43.36564" lon="6.17973">
        <ele>427.217367</ele>
        <time>2025-04-25T08:30:41.000Z</time>
      </trkpt>
      <trkpt lat="43.36564" lon="6.17976">
        <ele>427.543554</ele>
        <time>2025-04-25T08:30:42.000Z</time>
      </trkpt>
      <trkpt lat="43.36564" lon="6.17976">
        <ele>427.543554</ele>
        <time>2025-04-25T08:30:42.000Z</time>
      </trkpt>
      <trkpt lat="43.36563" lon="6.17979">
        <ele>427.841177</ele>
        <time>2025-04-25T08:30:43.000Z</time>
      </trkpt>
      <trkpt lat="43.36563" lon="6.17979">
        <ele>427.841177</ele>
        <time>2025-04-25T08:30:43.000Z</time>
      </trkpt>
      <trkpt lat="43.36562" lon="6.17982">
        <ele>428.124196</ele>
        <time>2025-04-25T08:30:44.000Z</time>
      </trkpt>
      <trkpt lat="43.36562" lon="6.17982">
        <ele>428.124196</ele>
        <time>2025-04-25T08:30:44.000Z</time>
      </trkpt>
      <trkpt lat="43.36561" lon="6.17985">
        <ele>428.450382</ele>
        <time>2025-04-25T08:30:45.000Z</time>
      </trkpt>
      <trkpt lat="43.36561" lon="6.17985">
        <ele>428.450382</ele>
        <time>2025-04-25T08:30:45.000Z</time>
      </trkpt>
      <trkpt lat="43.3656" lon="6.17988">
        <ele>428.767005</ele>
        <time>2025-04-25T08:30:46.000Z</time>
      </trkpt>
      <trkpt lat="43.3656" lon="6.17988">
        <ele>428.767005</ele>
        <time>2025-04-25T08:30:46.000Z</time>
      </trkpt>
      <trkpt lat="43.3656" lon="6.17994">
        <ele>429.407477</ele>
        <time>2025-04-25T08:30:48.000Z</time>
      </trkpt>
      <trkpt lat="43.3656" lon="6.17994">
        <ele>429.407477</ele>
        <time>2025-04-25T08:30:48.000Z</time>
      </trkpt>
      <trkpt lat="43.3656" lon="6.17997">
        <ele>429.72392</ele>
        <time>2025-04-25T08:30:49.000Z</time>
      </trkpt>
      <trkpt lat="43.3656" lon="6.17997">
        <ele>429.72392</ele>
        <time>2025-04-25T08:30:49.000Z</time>
      </trkpt>
      <trkpt lat="43.36559" lon="6.18">
        <ele>430.025228</ele>
        <time>2025-04-25T08:30:50.000Z</time>
      </trkpt>
      <trkpt lat="43.36559" lon="6.18">
        <ele>430.025228</ele>
        <time>2025-04-25T08:30:50.000Z</time>
      </trkpt>
      <trkpt lat="43.36559" lon="6.18003">
        <ele>430.311047</ele>
        <time>2025-04-25T08:30:51.000Z</time>
      </trkpt>
      <trkpt lat="43.36559" lon="6.18003">
        <ele>430.311047</ele>
        <time>2025-04-25T08:30:51.000Z</time>
      </trkpt>
      <trkpt lat="43.36559" lon="6.18005">
        <ele>430.596867</ele>
        <time>2025-04-25T08:30:52.000Z</time>
      </trkpt>
      <trkpt lat="43.36559" lon="6.18005">
        <ele>430.596867</ele>
        <time>2025-04-25T08:30:52.000Z</time>
      </trkpt>
      <trkpt lat="43.36559" lon="6.18008">
        <ele>430.852062</ele>
        <time>2025-04-25T08:30:53.000Z</time>
      </trkpt>
      <trkpt lat="43.36559" lon="6.18008">
        <ele>430.852062</ele>
        <time>2025-04-25T08:30:53.000Z</time>
      </trkpt>
      <trkpt lat="43.36559" lon="6.18011">
        <ele>431.117466</ele>
        <time>2025-04-25T08:30:54.000Z</time>
      </trkpt>
      <trkpt lat="43.36559" lon="6.18011">
        <ele>431.117466</ele>
        <time>2025-04-25T08:30:54.000Z</time>
      </trkpt>
      <trkpt lat="43.36559" lon="6.18014">
        <ele>431.438854</ele>
        <time>2025-04-25T08:30:55.000Z</time>
      </trkpt>
      <trkpt lat="43.36559" lon="6.18014">
        <ele>431.438854</ele>
        <time>2025-04-25T08:30:55.000Z</time>
      </trkpt>
      <trkpt lat="43.36559" lon="6.18016">
        <ele>431.724674</ele>
        <time>2025-04-25T08:30:55.000Z</time>
      </trkpt>
      <trkpt lat="43.36559" lon="6.18016">
        <ele>431.724674</ele>
        <time>2025-04-25T08:30:55.000Z</time>
      </trkpt>
      <trkpt lat="43.36559" lon="6.18019">
        <ele>432.000285</ele>
        <time>2025-04-25T08:30:57.000Z</time>
      </trkpt>
      <trkpt lat="43.36559" lon="6.18019">
        <ele>432.000285</ele>
        <time>2025-04-25T08:30:57.000Z</time>
      </trkpt>
      <trkpt lat="43.36559" lon="6.18022">
        <ele>432.29157</ele>
        <time>2025-04-25T08:30:57.000Z</time>
      </trkpt>
      <trkpt lat="43.36559" lon="6.18022">
        <ele>432.29157</ele>
        <time>2025-04-25T08:30:57.000Z</time>
      </trkpt>
      <trkpt lat="43.36559" lon="6.18025">
        <ele>432.587597</ele>
        <time>2025-04-25T08:30:59.000Z</time>
      </trkpt>
      <trkpt lat="43.36559" lon="6.18025">
        <ele>432.587597</ele>
        <time>2025-04-25T08:30:59.000Z</time>
      </trkpt>
      <trkpt lat="43.36559" lon="6.18028">
        <ele>432.878883</ele>
        <time>2025-04-25T08:31:00.000Z</time>
      </trkpt>
      <trkpt lat="43.36559" lon="6.18028">
        <ele>432.878883</ele>
        <time>2025-04-25T08:31:00.000Z</time>
      </trkpt>
      <trkpt lat="43.36559" lon="6.1803">
        <ele>433.123871</ele>
        <time>2025-04-25T08:31:01.000Z</time>
      </trkpt>
      <trkpt lat="43.36559" lon="6.1803">
        <ele>433.123871</ele>
        <time>2025-04-25T08:31:01.000Z</time>
      </trkpt>
      <trkpt lat="43.36559" lon="6.18033">
        <ele>433.450521</ele>
        <time>2025-04-25T08:31:01.000Z</time>
      </trkpt>
      <trkpt lat="43.36559" lon="6.18033">
        <ele>433.450521</ele>
        <time>2025-04-25T08:31:01.000Z</time>
      </trkpt>
      <trkpt lat="43.3656" lon="6.18036">
        <ele>433.748145</ele>
        <time>2025-04-25T08:31:03.000Z</time>
      </trkpt>
      <trkpt lat="43.3656" lon="6.18036">
        <ele>433.748145</ele>
        <time>2025-04-25T08:31:03.000Z</time>
      </trkpt>
      <trkpt lat="43.3656" lon="6.18038">
        <ele>433.993284</ele>
        <time>2025-04-25T08:31:03.000Z</time>
      </trkpt>
      <trkpt lat="43.3656" lon="6.18038">
        <ele>433.993284</ele>
        <time>2025-04-25T08:31:03.000Z</time>
      </trkpt>
      <trkpt lat="43.36561" lon="6.1804">
        <ele>434.226303</ele>
        <time>2025-04-25T08:31:05.000Z</time>
      </trkpt>
      <trkpt lat="43.36561" lon="6.1804">
        <ele>434.226303</ele>
        <time>2025-04-25T08:31:05.000Z</time>
      </trkpt>
      <trkpt lat="43.36562" lon="6.18042">
        <ele>434.450433</ele>
        <time>2025-04-25T08:31:06.000Z</time>
      </trkpt>
      <trkpt lat="43.36562" lon="6.18042">
        <ele>434.450433</ele>
        <time>2025-04-25T08:31:06.000Z</time>
      </trkpt>
      <trkpt lat="43.36563" lon="6.18044">
        <ele>434.714645</ele>
        <time>2025-04-25T08:31:07.000Z</time>
      </trkpt>
      <trkpt lat="43.36563" lon="6.18044">
        <ele>434.714645</ele>
        <time>2025-04-25T08:31:07.000Z</time>
      </trkpt>
      <trkpt lat="43.36564" lon="6.18047">
        <ele>434.99347</ele>
        <time>2025-04-25T08:31:08.000Z</time>
      </trkpt>
      <trkpt lat="43.36564" lon="6.18047">
        <ele>434.99347</ele>
        <time>2025-04-25T08:31:08.000Z</time>
      </trkpt>
      <trkpt lat="43.36565" lon="6.18049">
        <ele>435.274499</ele>
        <time>2025-04-25T08:31:09.000Z</time>
      </trkpt>
      <trkpt lat="43.36565" lon="6.18049">
        <ele>435.274499</ele>
        <time>2025-04-25T08:31:09.000Z</time>
      </trkpt>
      <trkpt lat="43.36566" lon="6.18051">
        <ele>435.525598</ele>
        <time>2025-04-25T08:31:10.000Z</time>
      </trkpt>
      <trkpt lat="43.36566" lon="6.18051">
        <ele>435.525598</ele>
        <time>2025-04-25T08:31:10.000Z</time>
      </trkpt>
      <trkpt lat="43.36567" lon="6.18054">
        <ele>435.789567</ele>
        <time>2025-04-25T08:31:11.000Z</time>
      </trkpt>
      <trkpt lat="43.36567" lon="6.18054">
        <ele>435.789567</ele>
        <time>2025-04-25T08:31:11.000Z</time>
      </trkpt>
      <trkpt lat="43.36567" lon="6.18056">
        <ele>436.049835</ele>
        <time>2025-04-25T08:31:12.000Z</time>
      </trkpt>
      <trkpt lat="43.36567" lon="6.18056">
        <ele>436.049835</ele>
        <time>2025-04-25T08:31:12.000Z</time>
      </trkpt>
      <trkpt lat="43.36569" lon="6.18058">
        <ele>436.355638</ele>
        <time>2025-04-25T08:31:13.000Z</time>
      </trkpt>
      <trkpt lat="43.36569" lon="6.18058">
        <ele>436.355638</ele>
        <time>2025-04-25T08:31:13.000Z</time>
      </trkpt>
      <trkpt lat="43.36569" lon="6.18061">
        <ele>436.648251</ele>
        <time>2025-04-25T08:31:14.000Z</time>
      </trkpt>
      <trkpt lat="43.36569" lon="6.18061">
        <ele>436.648251</ele>
        <time>2025-04-25T08:31:14.000Z</time>
      </trkpt>
      <trkpt lat="43.3657" lon="6.18064">
        <ele>436.927075</ele>
        <time>2025-04-25T08:31:15.000Z</time>
      </trkpt>
      <trkpt lat="43.3657" lon="6.18064">
        <ele>436.927075</ele>
        <time>2025-04-25T08:31:15.000Z</time>
      </trkpt>
      <trkpt lat="43.36572" lon="6.18066">
        <ele>437.25796</ele>
        <time>2025-04-25T08:31:16.000Z</time>
      </trkpt>
      <trkpt lat="43.36572" lon="6.18066">
        <ele>437.25796</ele>
        <time>2025-04-25T08:31:16.000Z</time>
      </trkpt>
      <trkpt lat="43.36573" lon="6.18069">
        <ele>437.588845</ele>
        <time>2025-04-25T08:31:17.000Z</time>
      </trkpt>
      <trkpt lat="43.36573" lon="6.18069">
        <ele>437.588845</ele>
        <time>2025-04-25T08:31:17.000Z</time>
      </trkpt>
      <trkpt lat="43.36574" lon="6.18071">
        <ele>437.867669</ele>
        <time>2025-04-25T08:31:18.000Z</time>
      </trkpt>
      <trkpt lat="43.36574" lon="6.18071">
        <ele>437.867669</ele>
        <time>2025-04-25T08:31:18.000Z</time>
      </trkpt>
      <trkpt lat="43.36575" lon="6.18074">
        <ele>438.174743</ele>
        <time>2025-04-25T08:31:19.000Z</time>
      </trkpt>
      <trkpt lat="43.36575" lon="6.18074">
        <ele>438.174743</ele>
        <time>2025-04-25T08:31:19.000Z</time>
      </trkpt>
      <trkpt lat="43.36576" lon="6.18076">
        <ele>438.506531</ele>
        <time>2025-04-25T08:31:20.000Z</time>
      </trkpt>
      <trkpt lat="43.36576" lon="6.18076">
        <ele>438.506531</ele>
        <time>2025-04-25T08:31:20.000Z</time>
      </trkpt>
      <trkpt lat="43.36577" lon="6.18079">
        <ele>438.75167</ele>
        <time>2025-04-25T08:31:21.000Z</time>
      </trkpt>
      <trkpt lat="43.36577" lon="6.18079">
        <ele>438.75167</ele>
        <time>2025-04-25T08:31:21.000Z</time>
      </trkpt>
      <trkpt lat="43.36579" lon="6.18081">
        <ele>439.124338</ele>
        <time>2025-04-25T08:31:22.000Z</time>
      </trkpt>
      <trkpt lat="43.36579" lon="6.18081">
        <ele>439.124338</ele>
        <time>2025-04-25T08:31:22.000Z</time>
      </trkpt>
      <trkpt lat="43.3658" lon="6.18083">
        <ele>439.417664</ele>
        <time>2025-04-25T08:31:22.000Z</time>
      </trkpt>
      <trkpt lat="43.3658" lon="6.18083">
        <ele>439.417664</ele>
        <time>2025-04-25T08:31:22.000Z</time>
      </trkpt>
      <trkpt lat="43.36582" lon="6.18085">
        <ele>439.733071</ele>
        <time>2025-04-25T08:31:24.000Z</time>
      </trkpt>
      <trkpt lat="43.36582" lon="6.18085">
        <ele>439.733071</ele>
        <time>2025-04-25T08:31:24.000Z</time>
      </trkpt>
      <trkpt lat="43.36583" lon="6.18088">
        <ele>440.002583</ele>
        <time>2025-04-25T08:31:25.000Z</time>
      </trkpt>
      <trkpt lat="43.36583" lon="6.18088">
        <ele>440.002583</ele>
        <time>2025-04-25T08:31:25.000Z</time>
      </trkpt>
      <trkpt lat="43.36585" lon="6.18093">
        <ele>440.623913</ele>
        <time>2025-04-25T08:31:27.000Z</time>
      </trkpt>
      <trkpt lat="43.36585" lon="6.18093">
        <ele>440.623913</ele>
        <time>2025-04-25T08:31:27.000Z</time>
      </trkpt>
      <trkpt lat="43.36586" lon="6.18095">
        <ele>440.897381</ele>
        <time>2025-04-25T08:31:28.000Z</time>
      </trkpt>
      <trkpt lat="43.36586" lon="6.18095">
        <ele>440.897381</ele>
        <time>2025-04-25T08:31:28.000Z</time>
      </trkpt>
      <trkpt lat="43.36586" lon="6.18098">
        <ele>441.166893</ele>
        <time>2025-04-25T08:31:29.000Z</time>
      </trkpt>
      <trkpt lat="43.36586" lon="6.18098">
        <ele>441.166893</ele>
        <time>2025-04-25T08:31:29.000Z</time>
      </trkpt>
      <trkpt lat="43.36587" lon="6.181">
        <ele>441.412031</ele>
        <time>2025-04-25T08:31:30.000Z</time>
      </trkpt>
      <trkpt lat="43.36587" lon="6.181">
        <ele>441.412031</ele>
        <time>2025-04-25T08:31:30.000Z</time>
      </trkpt>
      <trkpt lat="43.36588" lon="6.18102">
        <ele>441.633631</ele>
        <time>2025-04-25T08:31:31.000Z</time>
      </trkpt>
      <trkpt lat="43.36588" lon="6.18102">
        <ele>441.633631</ele>
        <time>2025-04-25T08:31:31.000Z</time>
      </trkpt>
      <trkpt lat="43.36588" lon="6.18104">
        <ele>441.865119</ele>
        <time>2025-04-25T08:31:32.000Z</time>
      </trkpt>
      <trkpt lat="43.36588" lon="6.18104">
        <ele>441.865119</ele>
        <time>2025-04-25T08:31:32.000Z</time>
      </trkpt>
      <trkpt lat="43.36588" lon="6.18106">
        <ele>442.067035</ele>
        <time>2025-04-25T08:31:33.000Z</time>
      </trkpt>
      <trkpt lat="43.36588" lon="6.18106">
        <ele>442.067035</ele>
        <time>2025-04-25T08:31:33.000Z</time>
      </trkpt>
      <trkpt lat="43.36589" lon="6.18108">
        <ele>442.268952</ele>
        <time>2025-04-25T08:31:34.000Z</time>
      </trkpt>
      <trkpt lat="43.36589" lon="6.18108">
        <ele>442.268952</ele>
        <time>2025-04-25T08:31:34.000Z</time>
      </trkpt>
      <trkpt lat="43.36589" lon="6.1811">
        <ele>442.457459</ele>
        <time>2025-04-25T08:31:35.000Z</time>
      </trkpt>
      <trkpt lat="43.36589" lon="6.1811">
        <ele>442.457459</ele>
        <time>2025-04-25T08:31:35.000Z</time>
      </trkpt>
      <trkpt lat="43.3659" lon="6.18112">
        <ele>442.722166</ele>
        <time>2025-04-25T08:31:35.000Z</time>
      </trkpt>
      <trkpt lat="43.3659" lon="6.18112">
        <ele>442.722166</ele>
        <time>2025-04-25T08:31:35.000Z</time>
      </trkpt>
      <trkpt lat="43.36591" lon="6.18114">
        <ele>442.943765</ele>
        <time>2025-04-25T08:31:37.000Z</time>
      </trkpt>
      <trkpt lat="43.36591" lon="6.18114">
        <ele>442.943765</ele>
        <time>2025-04-25T08:31:37.000Z</time>
      </trkpt>
      <trkpt lat="43.36592" lon="6.18116">
        <ele>443.224794</ele>
        <time>2025-04-25T08:31:38.000Z</time>
      </trkpt>
      <trkpt lat="43.36592" lon="6.18116">
        <ele>443.224794</ele>
        <time>2025-04-25T08:31:38.000Z</time>
      </trkpt>
      <trkpt lat="43.36593" lon="6.18119">
        <ele>443.513778</ele>
        <time>2025-04-25T08:31:39.000Z</time>
      </trkpt>
      <trkpt lat="43.36593" lon="6.18119">
        <ele>443.513778</ele>
        <time>2025-04-25T08:31:39.000Z</time>
      </trkpt>
      <trkpt lat="43.36593" lon="6.18119">
        <ele>443.513778</ele>
        <time>2025-04-25T08:31:40.000Z</time>
      </trkpt>
      <trkpt lat="43.36595" lon="6.18125">
        <ele>444.208866</ele>
        <time>2025-04-25T08:31:41.000Z</time>
      </trkpt>
      <trkpt lat="43.36595" lon="6.18125">
        <ele>444.208866</ele>
        <time>2025-04-25T08:31:41.000Z</time>
      </trkpt>
      <trkpt lat="43.36595" lon="6.18126">
        <ele>444.37219</ele>
        <time>2025-04-25T08:31:42.000Z</time>
      </trkpt>
      <trkpt lat="43.36595" lon="6.18126">
        <ele>444.37219</ele>
        <time>2025-04-25T08:31:42.000Z</time>
      </trkpt>
      <trkpt lat="43.36596" lon="6.18128">
        <ele>444.562092</ele>
        <time>2025-04-25T08:31:43.000Z</time>
      </trkpt>
      <trkpt lat="43.36596" lon="6.18128">
        <ele>444.562092</ele>
        <time>2025-04-25T08:31:43.000Z</time>
      </trkpt>
      <trkpt lat="43.36597" lon="6.1813">
        <ele>444.786221</ele>
        <time>2025-04-25T08:31:44.000Z</time>
      </trkpt>
      <trkpt lat="43.36597" lon="6.1813">
        <ele>444.786221</ele>
        <time>2025-04-25T08:31:44.000Z</time>
      </trkpt>
      <trkpt lat="43.36598" lon="6.18132">
        <ele>445.06725</ele>
        <time>2025-04-25T08:31:44.000Z</time>
      </trkpt>
      <trkpt lat="43.36598" lon="6.18132">
        <ele>445.06725</ele>
        <time>2025-04-25T08:31:44.000Z</time>
      </trkpt>
      <trkpt lat="43.36599" lon="6.18134">
        <ele>445.327517</ele>
        <time>2025-04-25T08:31:46.000Z</time>
      </trkpt>
      <trkpt lat="43.36599" lon="6.18134">
        <ele>445.327517</ele>
        <time>2025-04-25T08:31:46.000Z</time>
      </trkpt>
      <trkpt lat="43.36599" lon="6.18137">
        <ele>445.589875</ele>
        <time>2025-04-25T08:31:47.000Z</time>
      </trkpt>
      <trkpt lat="43.36599" lon="6.18137">
        <ele>445.589875</ele>
        <time>2025-04-25T08:31:47.000Z</time>
      </trkpt>
      <trkpt lat="43.36601" lon="6.18139">
        <ele>445.829173</ele>
        <time>2025-04-25T08:31:48.000Z</time>
      </trkpt>
      <trkpt lat="43.36601" lon="6.18139">
        <ele>445.829173</ele>
        <time>2025-04-25T08:31:48.000Z</time>
      </trkpt>
      <trkpt lat="43.36601" lon="6.18141">
        <ele>446.015007</ele>
        <time>2025-04-25T08:31:49.000Z</time>
      </trkpt>
      <trkpt lat="43.36601" lon="6.18141">
        <ele>446.015007</ele>
        <time>2025-04-25T08:31:49.000Z</time>
      </trkpt>
      <trkpt lat="43.36601" lon="6.18143">
        <ele>446.226875</ele>
        <time>2025-04-25T08:31:50.000Z</time>
      </trkpt>
      <trkpt lat="43.36601" lon="6.18143">
        <ele>446.226875</ele>
        <time>2025-04-25T08:31:50.000Z</time>
      </trkpt>
      <trkpt lat="43.36601" lon="6.18143">
        <ele>446.226875</ele>
        <time>2025-04-25T08:31:51.000Z</time>
      </trkpt>
      <trkpt lat="43.36604" lon="6.18149">
        <ele>446.773644</ele>
        <time>2025-04-25T08:31:52.000Z</time>
      </trkpt>
      <trkpt lat="43.36604" lon="6.18149">
        <ele>446.773644</ele>
        <time>2025-04-25T08:31:52.000Z</time>
      </trkpt>
      <trkpt lat="43.36604" lon="6.1815">
        <ele>446.933176</ele>
        <time>2025-04-25T08:31:53.000Z</time>
      </trkpt>
      <trkpt lat="43.36604" lon="6.1815">
        <ele>446.933176</ele>
        <time>2025-04-25T08:31:53.000Z</time>
      </trkpt>
      <trkpt lat="43.36605" lon="6.18152">
        <ele>447.093255</ele>
        <time>2025-04-25T08:31:54.000Z</time>
      </trkpt>
      <trkpt lat="43.36605" lon="6.18152">
        <ele>447.093255</ele>
        <time>2025-04-25T08:31:54.000Z</time>
      </trkpt>
      <trkpt lat="43.36606" lon="6.18154">
        <ele>447.317933</ele>
        <time>2025-04-25T08:31:55.000Z</time>
      </trkpt>
      <trkpt lat="43.36606" lon="6.18154">
        <ele>447.317933</ele>
        <time>2025-04-25T08:31:55.000Z</time>
      </trkpt>
      <trkpt lat="43.36607" lon="6.18156">
        <ele>447.564337</ele>
        <time>2025-04-25T08:31:56.000Z</time>
      </trkpt>
      <trkpt lat="43.36607" lon="6.18156">
        <ele>447.564337</ele>
        <time>2025-04-25T08:31:56.000Z</time>
      </trkpt>
      <trkpt lat="43.36608" lon="6.18158">
        <ele>447.789014</ele>
        <time>2025-04-25T08:31:57.000Z</time>
      </trkpt>
      <trkpt lat="43.36608" lon="6.18158">
        <ele>447.789014</ele>
        <time>2025-04-25T08:31:57.000Z</time>
      </trkpt>
      <trkpt lat="43.36609" lon="6.18159">
        <ele>447.97725</ele>
        <time>2025-04-25T08:31:58.000Z</time>
      </trkpt>
      <trkpt lat="43.36609" lon="6.18159">
        <ele>447.97725</ele>
        <time>2025-04-25T08:31:58.000Z</time>
      </trkpt>
      <trkpt lat="43.36609" lon="6.18159">
        <ele>447.97725</ele>
        <time>2025-04-25T08:31:59.000Z</time>
      </trkpt>
      <trkpt lat="43.36612" lon="6.18164">
        <ele>448.499258</ele>
        <time>2025-04-25T08:32:00.000Z</time>
      </trkpt>
      <trkpt lat="43.36612" lon="6.18164">
        <ele>448.499258</ele>
        <time>2025-04-25T08:32:00.000Z</time>
      </trkpt>
      <trkpt lat="43.36613" lon="6.18165">
        <ele>448.693165</ele>
        <time>2025-04-25T08:32:01.000Z</time>
      </trkpt>
      <trkpt lat="43.36613" lon="6.18165">
        <ele>448.693165</ele>
        <time>2025-04-25T08:32:01.000Z</time>
      </trkpt>
      <trkpt lat="43.36614" lon="6.18166">
        <ele>448.819632</ele>
        <time>2025-04-25T08:32:02.000Z</time>
      </trkpt>
      <trkpt lat="43.36614" lon="6.18166">
        <ele>448.819632</ele>
        <time>2025-04-25T08:32:02.000Z</time>
      </trkpt>
      <trkpt lat="43.36614" lon="6.18168">
        <ele>448.98985</ele>
        <time>2025-04-25T08:32:03.000Z</time>
      </trkpt>
      <trkpt lat="43.36614" lon="6.18168">
        <ele>448.98985</ele>
        <time>2025-04-25T08:32:03.000Z</time>
      </trkpt>
      <trkpt lat="43.36614" lon="6.1817">
        <ele>449.188711</ele>
        <time>2025-04-25T08:32:04.000Z</time>
      </trkpt>
      <trkpt lat="43.36614" lon="6.1817">
        <ele>449.188711</ele>
        <time>2025-04-25T08:32:04.000Z</time>
      </trkpt>
      <trkpt lat="43.36614" lon="6.1817">
        <ele>449.188711</ele>
        <time>2025-04-25T08:32:05.000Z</time>
      </trkpt>
      <trkpt lat="43.36616" lon="6.18175">
        <ele>449.661784</ele>
        <time>2025-04-25T08:32:06.000Z</time>
      </trkpt>
      <trkpt lat="43.36616" lon="6.18175">
        <ele>449.661784</ele>
        <time>2025-04-25T08:32:06.000Z</time>
      </trkpt>
      <trkpt lat="43.36616" lon="6.18177">
        <ele>449.823043</ele>
        <time>2025-04-25T08:32:07.000Z</time>
      </trkpt>
      <trkpt lat="43.36617" lon="6.18179">
        <ele>450.005925</ele>
        <time>2025-04-25T08:32:08.000Z</time>
      </trkpt>
      <trkpt lat="43.36617" lon="6.18179">
        <ele>450.005925</ele>
        <time>2025-04-25T08:32:08.000Z</time>
      </trkpt>
      <trkpt lat="43.36617" lon="6.18181">
        <ele>450.242462</ele>
        <time>2025-04-25T08:32:09.000Z</time>
      </trkpt>
      <trkpt lat="43.36617" lon="6.18181">
        <ele>450.242462</ele>
        <time>2025-04-25T08:32:09.000Z</time>
      </trkpt>
      <trkpt lat="43.36618" lon="6.18184">
        <ele>450.482471</ele>
        <time>2025-04-25T08:32:10.000Z</time>
      </trkpt>
      <trkpt lat="43.36618" lon="6.18184">
        <ele>450.482471</ele>
        <time>2025-04-25T08:32:10.000Z</time>
      </trkpt>
      <trkpt lat="43.36619" lon="6.18186">
        <ele>450.727179</ele>
        <time>2025-04-25T08:32:11.000Z</time>
      </trkpt>
      <trkpt lat="43.36619" lon="6.18186">
        <ele>450.727179</ele>
        <time>2025-04-25T08:32:11.000Z</time>
      </trkpt>
      <trkpt lat="43.36619" lon="6.18189">
        <ele>450.956511</ele>
        <time>2025-04-25T08:32:12.000Z</time>
      </trkpt>
      <trkpt lat="43.36619" lon="6.18189">
        <ele>450.956511</ele>
        <time>2025-04-25T08:32:12.000Z</time>
      </trkpt>
      <trkpt lat="43.3662" lon="6.18191">
        <ele>451.193047</ele>
        <time>2025-04-25T08:32:12.000Z</time>
      </trkpt>
      <trkpt lat="43.3662" lon="6.18191">
        <ele>451.193047</ele>
        <time>2025-04-25T08:32:12.000Z</time>
      </trkpt>
      <trkpt lat="43.36621" lon="6.18193">
        <ele>451.439692</ele>
        <time>2025-04-25T08:32:14.000Z</time>
      </trkpt>
      <trkpt lat="43.36621" lon="6.18193">
        <ele>451.439692</ele>
        <time>2025-04-25T08:32:14.000Z</time>
      </trkpt>
      <trkpt lat="43.36623" lon="6.18196">
        <ele>451.716508</ele>
        <time>2025-04-25T08:32:15.000Z</time>
      </trkpt>
      <trkpt lat="43.36623" lon="6.18196">
        <ele>451.716508</ele>
        <time>2025-04-25T08:32:15.000Z</time>
      </trkpt>
      <trkpt lat="43.36624" lon="6.18198">
        <ele>451.948829</ele>
        <time>2025-04-25T08:32:15.000Z</time>
      </trkpt>
      <trkpt lat="43.36624" lon="6.18198">
        <ele>451.948829</ele>
        <time>2025-04-25T08:32:15.000Z</time>
      </trkpt>
      <trkpt lat="43.36625" lon="6.182">
        <ele>452.21258</ele>
        <time>2025-04-25T08:32:17.000Z</time>
      </trkpt>
      <trkpt lat="43.36625" lon="6.182">
        <ele>452.21258</ele>
        <time>2025-04-25T08:32:17.000Z</time>
      </trkpt>
      <trkpt lat="43.36627" lon="6.18202">
        <ele>452.470017</ele>
        <time>2025-04-25T08:32:18.000Z</time>
      </trkpt>
      <trkpt lat="43.36627" lon="6.18202">
        <ele>452.470017</ele>
        <time>2025-04-25T08:32:18.000Z</time>
      </trkpt>
      <trkpt lat="43.36628" lon="6.18203">
        <ele>452.682299</ele>
        <time>2025-04-25T08:32:19.000Z</time>
      </trkpt>
      <trkpt lat="43.36628" lon="6.18203">
        <ele>452.682299</ele>
        <time>2025-04-25T08:32:19.000Z</time>
      </trkpt>
      <trkpt lat="43.36629" lon="6.18206">
        <ele>452.92151</ele>
        <time>2025-04-25T08:32:20.000Z</time>
      </trkpt>
      <trkpt lat="43.36629" lon="6.18206">
        <ele>452.92151</ele>
        <time>2025-04-25T08:32:20.000Z</time>
      </trkpt>
      <trkpt lat="43.3663" lon="6.18208">
        <ele>453.15383</ele>
        <time>2025-04-25T08:32:21.000Z</time>
      </trkpt>
      <trkpt lat="43.3663" lon="6.18208">
        <ele>453.15383</ele>
        <time>2025-04-25T08:32:21.000Z</time>
      </trkpt>
      <trkpt lat="43.36632" lon="6.1821">
        <ele>453.411267</ele>
        <time>2025-04-25T08:32:22.000Z</time>
      </trkpt>
      <trkpt lat="43.36632" lon="6.1821">
        <ele>453.411267</ele>
        <time>2025-04-25T08:32:22.000Z</time>
      </trkpt>
      <trkpt lat="43.36633" lon="6.18212">
        <ele>453.657911</ele>
        <time>2025-04-25T08:32:23.000Z</time>
      </trkpt>
      <trkpt lat="43.36633" lon="6.18212">
        <ele>453.657911</ele>
        <time>2025-04-25T08:32:23.000Z</time>
      </trkpt>
      <trkpt lat="43.36634" lon="6.18214">
        <ele>453.918868</ele>
        <time>2025-04-25T08:32:24.000Z</time>
      </trkpt>
      <trkpt lat="43.36634" lon="6.18214">
        <ele>453.918868</ele>
        <time>2025-04-25T08:32:24.000Z</time>
      </trkpt>
      <trkpt lat="43.36635" lon="6.18216">
        <ele>454.136468</ele>
        <time>2025-04-25T08:32:25.000Z</time>
      </trkpt>
      <trkpt lat="43.36635" lon="6.18216">
        <ele>454.136468</ele>
        <time>2025-04-25T08:32:25.000Z</time>
      </trkpt>
      <trkpt lat="43.36636" lon="6.18219">
        <ele>454.390094</ele>
        <time>2025-04-25T08:32:26.000Z</time>
      </trkpt>
      <trkpt lat="43.36636" lon="6.18219">
        <ele>454.390094</ele>
        <time>2025-04-25T08:32:26.000Z</time>
      </trkpt>
      <trkpt lat="43.36638" lon="6.18221">
        <ele>454.653844</ele>
        <time>2025-04-25T08:32:27.000Z</time>
      </trkpt>
      <trkpt lat="43.36638" lon="6.18221">
        <ele>454.653844</ele>
        <time>2025-04-25T08:32:27.000Z</time>
      </trkpt>
      <trkpt lat="43.36639" lon="6.18222">
        <ele>454.899148</ele>
        <time>2025-04-25T08:32:28.000Z</time>
      </trkpt>
      <trkpt lat="43.36639" lon="6.18222">
        <ele>454.899148</ele>
        <time>2025-04-25T08:32:28.000Z</time>
      </trkpt>
      <trkpt lat="43.36641" lon="6.18224">
        <ele>455.150432</ele>
        <time>2025-04-25T08:32:29.000Z</time>
      </trkpt>
      <trkpt lat="43.36641" lon="6.18224">
        <ele>455.150432</ele>
        <time>2025-04-25T08:32:29.000Z</time>
      </trkpt>
      <trkpt lat="43.36642" lon="6.18226">
        <ele>455.344338</ele>
        <time>2025-04-25T08:32:30.000Z</time>
      </trkpt>
      <trkpt lat="43.36642" lon="6.18226">
        <ele>455.344338</ele>
        <time>2025-04-25T08:32:30.000Z</time>
      </trkpt>
      <trkpt lat="43.36644" lon="6.18227">
        <ele>455.562818</ele>
        <time>2025-04-25T08:32:31.000Z</time>
      </trkpt>
      <trkpt lat="43.36644" lon="6.18227">
        <ele>455.562818</ele>
        <time>2025-04-25T08:32:31.000Z</time>
      </trkpt>
      <trkpt lat="43.36645" lon="6.18228">
        <ele>455.764488</ele>
        <time>2025-04-25T08:32:32.000Z</time>
      </trkpt>
      <trkpt lat="43.36645" lon="6.18228">
        <ele>455.764488</ele>
        <time>2025-04-25T08:32:32.000Z</time>
      </trkpt>
      <trkpt lat="43.36647" lon="6.18228">
        <ele>455.951282</ele>
        <time>2025-04-25T08:32:33.000Z</time>
      </trkpt>
      <trkpt lat="43.36647" lon="6.18228">
        <ele>455.951282</ele>
        <time>2025-04-25T08:32:33.000Z</time>
      </trkpt>
      <trkpt lat="43.36649" lon="6.18227">
        <ele>456.24854</ele>
        <time>2025-04-25T08:32:34.000Z</time>
      </trkpt>
      <trkpt lat="43.36649" lon="6.18227">
        <ele>456.24854</ele>
        <time>2025-04-25T08:32:34.000Z</time>
      </trkpt>
      <trkpt lat="43.36651" lon="6.18225">
        <ele>456.518507</ele>
        <time>2025-04-25T08:32:34.000Z</time>
      </trkpt>
      <trkpt lat="43.36651" lon="6.18225">
        <ele>456.518507</ele>
        <time>2025-04-25T08:32:34.000Z</time>
      </trkpt>
      <trkpt lat="43.36652" lon="6.18224">
        <ele>456.752191</ele>
        <time>2025-04-25T08:32:36.000Z</time>
      </trkpt>
      <trkpt lat="43.36652" lon="6.18224">
        <ele>456.752191</ele>
        <time>2025-04-25T08:32:36.000Z</time>
      </trkpt>
      <trkpt lat="43.36654" lon="6.18222">
        <ele>456.95608</ele>
        <time>2025-04-25T08:32:37.000Z</time>
      </trkpt>
      <trkpt lat="43.36654" lon="6.18222">
        <ele>456.95608</ele>
        <time>2025-04-25T08:32:37.000Z</time>
      </trkpt>
      <trkpt lat="43.36655" lon="6.1822">
        <ele>457.174878</ele>
        <time>2025-04-25T08:32:37.000Z</time>
      </trkpt>
      <trkpt lat="43.36655" lon="6.1822">
        <ele>457.174878</ele>
        <time>2025-04-25T08:32:37.000Z</time>
      </trkpt>
      <trkpt lat="43.36655" lon="6.1822">
        <ele>457.174878</ele>
        <time>2025-04-25T08:32:39.000Z</time>
      </trkpt>
      <trkpt lat="43.36658" lon="6.18215">
        <ele>457.821672</ele>
        <time>2025-04-25T08:32:40.000Z</time>
      </trkpt>
      <trkpt lat="43.36658" lon="6.18215">
        <ele>457.821672</ele>
        <time>2025-04-25T08:32:40.000Z</time>
      </trkpt>
      <trkpt lat="43.36659" lon="6.18213">
        <ele>458.032337</ele>
        <time>2025-04-25T08:32:40.000Z</time>
      </trkpt>
      <trkpt lat="43.36659" lon="6.18213">
        <ele>458.032337</ele>
        <time>2025-04-25T08:32:40.000Z</time>
      </trkpt>
      <trkpt lat="43.36661" lon="6.18211">
        <ele>458.29876</ele>
        <time>2025-04-25T08:32:42.000Z</time>
      </trkpt>
      <trkpt lat="43.36661" lon="6.18211">
        <ele>458.29876</ele>
        <time>2025-04-25T08:32:42.000Z</time>
      </trkpt>
      <trkpt lat="43.36662" lon="6.18209">
        <ele>458.552935</ele>
        <time>2025-04-25T08:32:43.000Z</time>
      </trkpt>
      <trkpt lat="43.36662" lon="6.18209">
        <ele>458.552935</ele>
        <time>2025-04-25T08:32:43.000Z</time>
      </trkpt>
      <trkpt lat="43.36663" lon="6.18206">
        <ele>458.828841</ele>
        <time>2025-04-25T08:32:43.000Z</time>
      </trkpt>
      <trkpt lat="43.36663" lon="6.18206">
        <ele>458.828841</ele>
        <time>2025-04-25T08:32:43.000Z</time>
      </trkpt>
      <trkpt lat="43.36664" lon="6.18204">
        <ele>459.027701</ele>
        <time>2025-04-25T08:32:44.000Z</time>
      </trkpt>
      <trkpt lat="43.36664" lon="6.18204">
        <ele>459.027701</ele>
        <time>2025-04-25T08:32:44.000Z</time>
      </trkpt>
      <trkpt lat="43.36665" lon="6.18202">
        <ele>459.281326</ele>
        <time>2025-04-25T08:32:45.000Z</time>
      </trkpt>
      <trkpt lat="43.36665" lon="6.18202">
        <ele>459.281326</ele>
        <time>2025-04-25T08:32:45.000Z</time>
      </trkpt>
      <trkpt lat="43.36666" lon="6.182">
        <ele>459.478613</ele>
        <time>2025-04-25T08:32:46.000Z</time>
      </trkpt>
      <trkpt lat="43.36666" lon="6.182">
        <ele>459.478613</ele>
        <time>2025-04-25T08:32:46.000Z</time>
      </trkpt>
      <trkpt lat="43.36666" lon="6.182">
        <ele>459.478613</ele>
        <time>2025-04-25T08:32:48.000Z</time>
      </trkpt>
      <trkpt lat="43.36668" lon="6.18197">
        <ele>459.855741</ele>
        <time>2025-04-25T08:32:49.000Z</time>
      </trkpt>
      <trkpt lat="43.36668" lon="6.18197">
        <ele>459.855741</ele>
        <time>2025-04-25T08:32:49.000Z</time>
      </trkpt>
      <trkpt lat="43.36668" lon="6.18197">
        <ele>459.855741</ele>
        <time>2025-04-25T08:32:50.000Z</time>
      </trkpt>
      <trkpt lat="43.36668" lon="6.18197">
        <ele>459.855741</ele>
        <time>2025-04-25T08:32:50.000Z</time>
      </trkpt>
      <trkpt lat="43.36667" lon="6.18198">
        <ele>460.065219</ele>
        <time>2025-04-25T08:33:16.000Z</time>
      </trkpt>
      <trkpt lat="43.36667" lon="6.18198">
        <ele>460.065219</ele>
        <time>2025-04-25T08:33:16.000Z</time>
      </trkpt>
      <trkpt lat="43.36667" lon="6.18197">
        <ele>460.217808</ele>
        <time>2025-04-25T08:33:20.000Z</time>
      </trkpt>
      <trkpt lat="43.36667" lon="6.18192">
        <ele>460.632848</ele>
        <time>2025-04-25T08:33:22.000Z</time>
      </trkpt>
      <trkpt lat="43.36667" lon="6.18192">
        <ele>460.632848</ele>
        <time>2025-04-25T08:33:22.000Z</time>
      </trkpt>
      <trkpt lat="43.36667" lon="6.18192">
        <ele>460.632848</ele>
        <time>2025-04-25T08:33:25.000Z</time>
      </trkpt>
      <trkpt lat="43.36667" lon="6.18192">
        <ele>460.632848</ele>
        <time>2025-04-25T08:33:27.000Z</time>
      </trkpt>
      <trkpt lat="43.36667" lon="6.18192">
        <ele>460.632848</ele>
        <time>2025-04-25T08:33:31.000Z</time>
      </trkpt>
      <trkpt lat="43.36667" lon="6.18192">
        <ele>460.632848</ele>
        <time>2025-04-25T08:33:34.000Z</time>
      </trkpt>
      <trkpt lat="43.36667" lon="6.18189">
        <ele>460.906094</ele>
        <time>2025-04-25T08:33:35.000Z</time>
      </trkpt>
      <trkpt lat="43.36668" lon="6.18188">
        <ele>461.011347</ele>
        <time>2025-04-25T08:33:37.000Z</time>
      </trkpt>
      <trkpt lat="43.36668" lon="6.18188">
        <ele>461.011347</ele>
        <time>2025-04-25T08:33:37.000Z</time>
      </trkpt>
      <trkpt lat="43.36669" lon="6.18186">
        <ele>461.230145</ele>
        <time>2025-04-25T08:33:38.000Z</time>
      </trkpt>
      <trkpt lat="43.36671" lon="6.18184">
        <ele>461.536199</ele>
        <time>2025-04-25T08:33:39.000Z</time>
      </trkpt>
      <trkpt lat="43.36671" lon="6.18184">
        <ele>461.536199</ele>
        <time>2025-04-25T08:33:39.000Z</time>
      </trkpt>
      <trkpt lat="43.36672" lon="6.18182">
        <ele>461.813014</ele>
        <time>2025-04-25T08:33:39.000Z</time>
      </trkpt>
      <trkpt lat="43.36672" lon="6.18182">
        <ele>461.813014</ele>
        <time>2025-04-25T08:33:39.000Z</time>
      </trkpt>
      <trkpt lat="43.36674" lon="6.18179">
        <ele>462.169464</ele>
        <time>2025-04-25T08:33:41.000Z</time>
      </trkpt>
      <trkpt lat="43.36674" lon="6.18179">
        <ele>462.169464</ele>
        <time>2025-04-25T08:33:41.000Z</time>
      </trkpt>
      <trkpt lat="43.36676" lon="6.18176">
        <ele>462.459863</ele>
        <time>2025-04-25T08:33:42.000Z</time>
      </trkpt>
      <trkpt lat="43.36676" lon="6.18176">
        <ele>462.459863</ele>
        <time>2025-04-25T08:33:42.000Z</time>
      </trkpt>
      <trkpt lat="43.36677" lon="6.18173">
        <ele>462.771931</ele>
        <time>2025-04-25T08:33:43.000Z</time>
      </trkpt>
      <trkpt lat="43.36678" lon="6.18171">
        <ele>463.033728</ele>
        <time>2025-04-25T08:33:44.000Z</time>
      </trkpt>
      <trkpt lat="43.36678" lon="6.18171">
        <ele>463.033728</ele>
        <time>2025-04-25T08:33:44.000Z</time>
      </trkpt>
      <trkpt lat="43.36679" lon="6.18167">
        <ele>463.370974</ele>
        <time>2025-04-25T08:33:45.000Z</time>
      </trkpt>
      <trkpt lat="43.36679" lon="6.18167">
        <ele>463.370974</ele>
        <time>2025-04-25T08:33:45.000Z</time>
      </trkpt>
      <trkpt lat="43.3668" lon="6.18164">
        <ele>463.626617</ele>
        <time>2025-04-25T08:33:46.000Z</time>
      </trkpt>
      <trkpt lat="43.3668" lon="6.18164">
        <ele>463.626617</ele>
        <time>2025-04-25T08:33:46.000Z</time>
      </trkpt>
      <trkpt lat="43.3668" lon="6.18162">
        <ele>463.866623</ele>
        <time>2025-04-25T08:33:47.000Z</time>
      </trkpt>
      <trkpt lat="43.3668" lon="6.18162">
        <ele>463.866623</ele>
        <time>2025-04-25T08:33:47.000Z</time>
      </trkpt>
      <trkpt lat="43.36681" lon="6.18159">
        <ele>464.136146</ele>
        <time>2025-04-25T08:33:47.000Z</time>
      </trkpt>
      <trkpt lat="43.36681" lon="6.18159">
        <ele>464.136146</ele>
        <time>2025-04-25T08:33:47.000Z</time>
      </trkpt>
      <trkpt lat="43.36682" lon="6.18156">
        <ele>464.439304</ele>
        <time>2025-04-25T08:33:49.000Z</time>
      </trkpt>
      <trkpt lat="43.36682" lon="6.18156">
        <ele>464.439304</ele>
        <time>2025-04-25T08:33:49.000Z</time>
      </trkpt>
      <trkpt lat="43.36682" lon="6.18153">
        <ele>464.666303</ele>
        <time>2025-04-25T08:33:49.000Z</time>
      </trkpt>
      <trkpt lat="43.36682" lon="6.18153">
        <ele>464.666303</ele>
        <time>2025-04-25T08:33:49.000Z</time>
      </trkpt>
      <trkpt lat="43.36683" lon="6.18151">
        <ele>464.895632</ele>
        <time>2025-04-25T08:33:50.000Z</time>
      </trkpt>
      <trkpt lat="43.36683" lon="6.18151">
        <ele>464.895632</ele>
        <time>2025-04-25T08:33:50.000Z</time>
      </trkpt>
      <trkpt lat="43.36683" lon="6.18148">
        <ele>465.204192</ele>
        <time>2025-04-25T08:33:51.000Z</time>
      </trkpt>
      <trkpt lat="43.36683" lon="6.18148">
        <ele>465.204192</ele>
        <time>2025-04-25T08:33:51.000Z</time>
      </trkpt>
      <trkpt lat="43.36683" lon="6.18145">
        <ele>465.451049</ele>
        <time>2025-04-25T08:33:53.000Z</time>
      </trkpt>
      <trkpt lat="43.36683" lon="6.18145">
        <ele>465.451049</ele>
        <time>2025-04-25T08:33:53.000Z</time>
      </trkpt>
      <trkpt lat="43.36684" lon="6.18141">
        <ele>465.759609</ele>
        <time>2025-04-25T08:33:53.000Z</time>
      </trkpt>
      <trkpt lat="43.36684" lon="6.18141">
        <ele>465.759609</ele>
        <time>2025-04-25T08:33:53.000Z</time>
      </trkpt>
      <trkpt lat="43.36684" lon="6.18138">
        <ele>466.055247</ele>
        <time>2025-04-25T08:33:55.000Z</time>
      </trkpt>
      <trkpt lat="43.36684" lon="6.18138">
        <ele>466.055247</ele>
        <time>2025-04-25T08:33:55.000Z</time>
      </trkpt>
      <trkpt lat="43.36684" lon="6.18135">
        <ele>466.32654</ele>
        <time>2025-04-25T08:33:55.000Z</time>
      </trkpt>
      <trkpt lat="43.36684" lon="6.18135">
        <ele>466.32654</ele>
        <time>2025-04-25T08:33:55.000Z</time>
      </trkpt>
      <trkpt lat="43.36685" lon="6.18131">
        <ele>466.672364</ele>
        <time>2025-04-25T08:33:57.000Z</time>
      </trkpt>
      <trkpt lat="43.36685" lon="6.18131">
        <ele>466.672364</ele>
        <time>2025-04-25T08:33:57.000Z</time>
      </trkpt>
      <trkpt lat="43.36685" lon="6.18128">
        <ele>466.998624</ele>
        <time>2025-04-25T08:33:58.000Z</time>
      </trkpt>
      <trkpt lat="43.36685" lon="6.18128">
        <ele>466.998624</ele>
        <time>2025-04-25T08:33:58.000Z</time>
      </trkpt>
      <trkpt lat="43.36686" lon="6.18124">
        <ele>467.348468</ele>
        <time>2025-04-25T08:33:58.000Z</time>
      </trkpt>
      <trkpt lat="43.36686" lon="6.18121">
        <ele>467.670982</ele>
        <time>2025-04-25T08:33:59.000Z</time>
      </trkpt>
      <trkpt lat="43.36686" lon="6.18121">
        <ele>467.670982</ele>
        <time>2025-04-25T08:33:59.000Z</time>
      </trkpt>
      <trkpt lat="43.36687" lon="6.18117">
        <ele>467.710266</ele>
        <time>2025-04-25T08:34:01.000Z</time>
      </trkpt>
      <trkpt lat="43.36687" lon="6.18117">
        <ele>467.710266</ele>
        <time>2025-04-25T08:34:01.000Z</time>
      </trkpt>
      <trkpt lat="43.36688" lon="6.18113">
        <ele>467.743807</ele>
        <time>2025-04-25T08:34:02.000Z</time>
      </trkpt>
      <trkpt lat="43.36688" lon="6.18113">
        <ele>467.743807</ele>
        <time>2025-04-25T08:34:02.000Z</time>
      </trkpt>
      <trkpt lat="43.36688" lon="6.1811">
        <ele>467.774429</ele>
        <time>2025-04-25T08:34:02.000Z</time>
      </trkpt>
      <trkpt lat="43.36688" lon="6.1811">
        <ele>467.774429</ele>
        <time>2025-04-25T08:34:02.000Z</time>
      </trkpt>
      <trkpt lat="43.36689" lon="6.18106">
        <ele>467.806931</ele>
        <time>2025-04-25T08:34:04.000Z</time>
      </trkpt>
      <trkpt lat="43.36689" lon="6.18106">
        <ele>467.806931</ele>
        <time>2025-04-25T08:34:04.000Z</time>
      </trkpt>
      <trkpt lat="43.36689" lon="6.18103">
        <ele>467.834288</ele>
        <time>2025-04-25T08:34:04.000Z</time>
      </trkpt>
      <trkpt lat="43.36689" lon="6.18103">
        <ele>467.834288</ele>
        <time>2025-04-25T08:34:04.000Z</time>
      </trkpt>
      <trkpt lat="43.36689" lon="6.18099">
        <ele>467.867651</ele>
        <time>2025-04-25T08:34:06.000Z</time>
      </trkpt>
      <trkpt lat="43.3669" lon="6.18095">
        <ele>467.904456</ele>
        <time>2025-04-25T08:34:06.000Z</time>
      </trkpt>
      <trkpt lat="43.3669" lon="6.18095">
        <ele>467.904456</ele>
        <time>2025-04-25T08:34:06.000Z</time>
      </trkpt>
      <trkpt lat="43.3669" lon="6.18092">
        <ele>467.930523</ele>
        <time>2025-04-25T08:34:07.000Z</time>
      </trkpt>
      <trkpt lat="43.3669" lon="6.18092">
        <ele>467.930523</ele>
        <time>2025-04-25T08:34:07.000Z</time>
      </trkpt>
      <trkpt lat="43.3669" lon="6.18087">
        <ele>467.968922</ele>
        <time>2025-04-25T08:34:09.000Z</time>
      </trkpt>
      <trkpt lat="43.3669" lon="6.18087">
        <ele>467.968922</ele>
        <time>2025-04-25T08:34:09.000Z</time>
      </trkpt>
      <trkpt lat="43.36691" lon="6.18083">
        <ele>468.010902</ele>
        <time>2025-04-25T08:34:10.000Z</time>
      </trkpt>
      <trkpt lat="43.36691" lon="6.18078">
        <ele>468.054347</ele>
        <time>2025-04-25T08:34:11.000Z</time>
      </trkpt>
      <trkpt lat="43.36691" lon="6.18078">
        <ele>468.054347</ele>
        <time>2025-04-25T08:34:11.000Z</time>
      </trkpt>
      <trkpt lat="43.36691" lon="6.18072">
        <ele>468.102375</ele>
        <time>2025-04-25T08:34:12.000Z</time>
      </trkpt>
      <trkpt lat="43.36691" lon="6.18072">
        <ele>468.102375</ele>
        <time>2025-04-25T08:34:12.000Z</time>
      </trkpt>
      <trkpt lat="43.36692" lon="6.18066">
        <ele>468.151964</ele>
        <time>2025-04-25T08:34:13.000Z</time>
      </trkpt>
      <trkpt lat="43.36692" lon="6.18061">
        <ele>468.200622</ele>
        <time>2025-04-25T08:34:14.000Z</time>
      </trkpt>
      <trkpt lat="43.36692" lon="6.18061">
        <ele>468.200622</ele>
        <time>2025-04-25T08:34:14.000Z</time>
      </trkpt>
      <trkpt lat="43.36692" lon="6.18056">
        <ele>468.242329</ele>
        <time>2025-04-25T08:34:15.000Z</time>
      </trkpt>
      <trkpt lat="43.36692" lon="6.1805">
        <ele>468.292725</ele>
        <time>2025-04-25T08:34:15.000Z</time>
      </trkpt>
      <trkpt lat="43.36692" lon="6.1805">
        <ele>468.292725</ele>
        <time>2025-04-25T08:34:15.000Z</time>
      </trkpt>
      <trkpt lat="43.36692" lon="6.18043">
        <ele>468.351918</ele>
        <time>2025-04-25T08:34:17.000Z</time>
      </trkpt>
      <trkpt lat="43.36692" lon="6.18037">
        <ele>468.411003</ele>
        <time>2025-04-25T08:34:18.000Z</time>
      </trkpt>
      <trkpt lat="43.36693" lon="6.1803">
        <ele>468.472573</ele>
        <time>2025-04-25T08:34:19.000Z</time>
      </trkpt>
      <trkpt lat="43.36693" lon="6.18024">
        <ele>468.521231</ele>
        <time>2025-04-25T08:34:20.000Z</time>
      </trkpt>
      <trkpt lat="43.36693" lon="6.18024">
        <ele>468.521231</ele>
        <time>2025-04-25T08:34:20.000Z</time>
      </trkpt>
      <trkpt lat="43.36694" lon="6.18018">
        <ele>468.577657</ele>
        <time>2025-04-25T08:34:21.000Z</time>
      </trkpt>
      <trkpt lat="43.36694" lon="6.18011">
        <ele>468.638191</ele>
        <time>2025-04-25T08:34:22.000Z</time>
      </trkpt>
      <trkpt lat="43.36695" lon="6.18005">
        <ele>468.69034</ele>
        <time>2025-04-25T08:34:23.000Z</time>
      </trkpt>
      <trkpt lat="43.36695" lon="6.18005">
        <ele>468.69034</ele>
        <time>2025-04-25T08:34:23.000Z</time>
      </trkpt>
      <trkpt lat="43.36696" lon="6.17998">
        <ele>468.746155</ele>
        <time>2025-04-25T08:34:24.000Z</time>
      </trkpt>
      <trkpt lat="43.36696" lon="6.17992">
        <ele>468.800238</ele>
        <time>2025-04-25T08:34:25.000Z</time>
      </trkpt>
      <trkpt lat="43.36697" lon="6.17987">
        <ele>468.848754</ele>
        <time>2025-04-25T08:34:26.000Z</time>
      </trkpt>
      <trkpt lat="43.36698" lon="6.1798">
        <ele>468.912091</ele>
        <time>2025-04-25T08:34:27.000Z</time>
      </trkpt>
      <trkpt lat="43.36699" lon="6.17972">
        <ele>468.978842</ele>
        <time>2025-04-25T08:34:28.000Z</time>
      </trkpt>
      <trkpt lat="43.367" lon="6.17965">
        <ele>469.039553</ele>
        <time>2025-04-25T08:34:29.000Z</time>
      </trkpt>
      <trkpt lat="43.36701" lon="6.17957">
        <ele>469.109444</ele>
        <time>2025-04-25T08:34:30.000Z</time>
      </trkpt>
      <trkpt lat="43.36702" lon="6.17951">
        <ele>469.169297</ele>
        <time>2025-04-25T08:34:31.000Z</time>
      </trkpt>
      <trkpt lat="43.36702" lon="6.17951">
        <ele>469.169297</ele>
        <time>2025-04-25T08:34:31.000Z</time>
      </trkpt>
      <trkpt lat="43.36704" lon="6.17943">
        <ele>469.238562</ele>
        <time>2025-04-25T08:34:32.000Z</time>
      </trkpt>
      <trkpt lat="43.36705" lon="6.17937">
        <ele>469.295705</ele>
        <time>2025-04-25T08:34:33.000Z</time>
      </trkpt>
      <trkpt lat="43.36705" lon="6.17937">
        <ele>469.295705</ele>
        <time>2025-04-25T08:34:33.000Z</time>
      </trkpt>
      <trkpt lat="43.36706" lon="6.1793">
        <ele>469.35735</ele>
        <time>2025-04-25T08:34:34.000Z</time>
      </trkpt>
      <trkpt lat="43.36707" lon="6.17923">
        <ele>469.414445</ele>
        <time>2025-04-25T08:34:35.000Z</time>
      </trkpt>
      <trkpt lat="43.36707" lon="6.17923">
        <ele>469.414445</ele>
        <time>2025-04-25T08:34:35.000Z</time>
      </trkpt>
      <trkpt lat="43.36707" lon="6.17917">
        <ele>469.47087</ele>
        <time>2025-04-25T08:34:36.000Z</time>
      </trkpt>
      <trkpt lat="43.36708" lon="6.17911">
        <ele>469.520627</ele>
        <time>2025-04-25T08:34:37.000Z</time>
      </trkpt>
      <trkpt lat="43.36708" lon="6.17911">
        <ele>469.520627</ele>
        <time>2025-04-25T08:34:37.000Z</time>
      </trkpt>
      <trkpt lat="43.36708" lon="6.17906">
        <ele>469.569143</ele>
        <time>2025-04-25T08:34:38.000Z</time>
      </trkpt>
      <trkpt lat="43.3671" lon="6.17901">
        <ele>469.614894</ele>
        <time>2025-04-25T08:34:39.000Z</time>
      </trkpt>
      <trkpt lat="43.3671" lon="6.17901">
        <ele>469.614894</ele>
        <time>2025-04-25T08:34:39.000Z</time>
      </trkpt>
      <trkpt lat="43.3671" lon="6.17896">
        <ele>469.65853</ele>
        <time>2025-04-25T08:34:40.000Z</time>
      </trkpt>
      <trkpt lat="43.36711" lon="6.17891">
        <ele>469.701068</ele>
        <time>2025-04-25T08:34:40.000Z</time>
      </trkpt>
      <trkpt lat="43.36711" lon="6.17891">
        <ele>469.701068</ele>
        <time>2025-04-25T08:34:40.000Z</time>
      </trkpt>
      <trkpt lat="43.36712" lon="6.17885">
        <ele>469.748953</ele>
        <time>2025-04-25T08:34:41.000Z</time>
      </trkpt>
      <trkpt lat="43.36712" lon="6.17885">
        <ele>469.748953</ele>
        <time>2025-04-25T08:34:41.000Z</time>
      </trkpt>
      <trkpt lat="43.36713" lon="6.1788">
        <ele>469.797562</ele>
        <time>2025-04-25T08:34:42.000Z</time>
      </trkpt>
      <trkpt lat="43.36715" lon="6.17875">
        <ele>469.711417</ele>
        <time>2025-04-25T08:34:44.000Z</time>
      </trkpt>
      <trkpt lat="43.36715" lon="6.17875">
        <ele>469.711417</ele>
        <time>2025-04-25T08:34:44.000Z</time>
      </trkpt>
      <trkpt lat="43.36718" lon="6.17869">
        <ele>469.414994</ele>
        <time>2025-04-25T08:34:44.000Z</time>
      </trkpt>
      <trkpt lat="43.3672" lon="6.17863">
        <ele>469.147206</ele>
        <time>2025-04-25T08:34:45.000Z</time>
      </trkpt>
      <trkpt lat="43.3672" lon="6.17863">
        <ele>469.147206</ele>
        <time>2025-04-25T08:34:45.000Z</time>
      </trkpt>
      <trkpt lat="43.36723" lon="6.17857">
        <ele>468.858687</ele>
        <time>2025-04-25T08:34:46.000Z</time>
      </trkpt>
      <trkpt lat="43.36723" lon="6.17857">
        <ele>468.858687</ele>
        <time>2025-04-25T08:34:46.000Z</time>
      </trkpt>
      <trkpt lat="43.36726" lon="6.17852">
        <ele>468.586113</ele>
        <time>2025-04-25T08:34:47.000Z</time>
      </trkpt>
      <trkpt lat="43.36726" lon="6.17852">
        <ele>468.586113</ele>
        <time>2025-04-25T08:34:47.000Z</time>
      </trkpt>
      <trkpt lat="43.3673" lon="6.17846">
        <ele>468.299611</ele>
        <time>2025-04-25T08:34:48.000Z</time>
      </trkpt>
      <trkpt lat="43.3673" lon="6.17846">
        <ele>468.299611</ele>
        <time>2025-04-25T08:34:48.000Z</time>
      </trkpt>
      <trkpt lat="43.36733" lon="6.17841">
        <ele>468.01753</ele>
        <time>2025-04-25T08:34:50.000Z</time>
      </trkpt>
      <trkpt lat="43.36733" lon="6.17841">
        <ele>468.01753</ele>
        <time>2025-04-25T08:34:50.000Z</time>
      </trkpt>
      <trkpt lat="43.36736" lon="6.17836">
        <ele>467.748457</ele>
        <time>2025-04-25T08:34:50.000Z</time>
      </trkpt>
      <trkpt lat="43.36736" lon="6.17836">
        <ele>467.748457</ele>
        <time>2025-04-25T08:34:50.000Z</time>
      </trkpt>
      <trkpt lat="43.36739" lon="6.1783">
        <ele>467.442931</ele>
        <time>2025-04-25T08:34:51.000Z</time>
      </trkpt>
      <trkpt lat="43.36739" lon="6.1783">
        <ele>467.442931</ele>
        <time>2025-04-25T08:34:51.000Z</time>
      </trkpt>
      <trkpt lat="43.36743" lon="6.17825">
        <ele>467.153378</ele>
        <time>2025-04-25T08:34:52.000Z</time>
      </trkpt>
      <trkpt lat="43.36743" lon="6.17825">
        <ele>467.153378</ele>
        <time>2025-04-25T08:34:52.000Z</time>
      </trkpt>
      <trkpt lat="43.36747" lon="6.17819">
        <ele>466.857373</ele>
        <time>2025-04-25T08:34:53.000Z</time>
      </trkpt>
      <trkpt lat="43.36747" lon="6.17819">
        <ele>466.857373</ele>
        <time>2025-04-25T08:34:53.000Z</time>
      </trkpt>
      <trkpt lat="43.3675" lon="6.17814">
        <ele>466.561369</ele>
        <time>2025-04-25T08:34:55.000Z</time>
      </trkpt>
      <trkpt lat="43.3675" lon="6.17814">
        <ele>466.561369</ele>
        <time>2025-04-25T08:34:55.000Z</time>
      </trkpt>
      <trkpt lat="43.36754" lon="6.17809">
        <ele>466.26252</ele>
        <time>2025-04-25T08:34:55.000Z</time>
      </trkpt>
      <trkpt lat="43.36754" lon="6.17809">
        <ele>466.26252</ele>
        <time>2025-04-25T08:34:55.000Z</time>
      </trkpt>
      <trkpt lat="43.36757" lon="6.17804">
        <ele>466.005296</ele>
        <time>2025-04-25T08:34:57.000Z</time>
      </trkpt>
      <trkpt lat="43.36757" lon="6.17804">
        <ele>466.005296</ele>
        <time>2025-04-25T08:34:57.000Z</time>
      </trkpt>
      <trkpt lat="43.36761" lon="6.17798">
        <ele>465.687271</ele>
        <time>2025-04-25T08:34:57.000Z</time>
      </trkpt>
      <trkpt lat="43.36761" lon="6.17798">
        <ele>465.687271</ele>
        <time>2025-04-25T08:34:57.000Z</time>
      </trkpt>
      <trkpt lat="43.36764" lon="6.17792">
        <ele>465.385277</ele>
        <time>2025-04-25T08:34:58.000Z</time>
      </trkpt>
      <trkpt lat="43.36764" lon="6.17792">
        <ele>465.385277</ele>
        <time>2025-04-25T08:34:58.000Z</time>
      </trkpt>
      <trkpt lat="43.36768" lon="6.17786">
        <ele>465.06206</ele>
        <time>2025-04-25T08:35:00.000Z</time>
      </trkpt>
      <trkpt lat="43.36768" lon="6.17786">
        <ele>465.06206</ele>
        <time>2025-04-25T08:35:00.000Z</time>
      </trkpt>
      <trkpt lat="43.36772" lon="6.1778">
        <ele>464.736456</ele>
        <time>2025-04-25T08:35:01.000Z</time>
      </trkpt>
      <trkpt lat="43.36772" lon="6.1778">
        <ele>464.736456</ele>
        <time>2025-04-25T08:35:01.000Z</time>
      </trkpt>
      <trkpt lat="43.36776" lon="6.17774">
        <ele>464.410852</ele>
        <time>2025-04-25T08:35:02.000Z</time>
      </trkpt>
      <trkpt lat="43.36776" lon="6.17774">
        <ele>464.410852</ele>
        <time>2025-04-25T08:35:02.000Z</time>
      </trkpt>
      <trkpt lat="43.36779" lon="6.17768">
        <ele>464.092828</ele>
        <time>2025-04-25T08:35:03.000Z</time>
      </trkpt>
      <trkpt lat="43.36779" lon="6.17768">
        <ele>464.092828</ele>
        <time>2025-04-25T08:35:03.000Z</time>
      </trkpt>
      <trkpt lat="43.36783" lon="6.17762">
        <ele>463.777852</ele>
        <time>2025-04-25T08:35:03.000Z</time>
      </trkpt>
      <trkpt lat="43.36783" lon="6.17762">
        <ele>463.777852</ele>
        <time>2025-04-25T08:35:03.000Z</time>
      </trkpt>
      <trkpt lat="43.36786" lon="6.17756">
        <ele>463.479002</ele>
        <time>2025-04-25T08:35:04.000Z</time>
      </trkpt>
      <trkpt lat="43.36786" lon="6.17756">
        <ele>463.479002</ele>
        <time>2025-04-25T08:35:04.000Z</time>
      </trkpt>
      <trkpt lat="43.36789" lon="6.1775">
        <ele>463.173843</ele>
        <time>2025-04-25T08:35:05.000Z</time>
      </trkpt>
      <trkpt lat="43.36789" lon="6.1775">
        <ele>463.173843</ele>
        <time>2025-04-25T08:35:05.000Z</time>
      </trkpt>
      <trkpt lat="43.36793" lon="6.17744">
        <ele>462.838913</ele>
        <time>2025-04-25T08:35:06.000Z</time>
      </trkpt>
      <trkpt lat="43.36793" lon="6.17744">
        <ele>462.838913</ele>
        <time>2025-04-25T08:35:06.000Z</time>
      </trkpt>
      <trkpt lat="43.36797" lon="6.17738">
        <ele>462.509654</ele>
        <time>2025-04-25T08:35:07.000Z</time>
      </trkpt>
      <trkpt lat="43.36797" lon="6.17738">
        <ele>462.509654</ele>
        <time>2025-04-25T08:35:07.000Z</time>
      </trkpt>
      <trkpt lat="43.368" lon="6.17732">
        <ele>462.207661</ele>
        <time>2025-04-25T08:35:08.000Z</time>
      </trkpt>
      <trkpt lat="43.368" lon="6.17732">
        <ele>462.207661</ele>
        <time>2025-04-25T08:35:08.000Z</time>
      </trkpt>
      <trkpt lat="43.36804" lon="6.17725">
        <ele>461.866415</ele>
        <time>2025-04-25T08:35:09.000Z</time>
      </trkpt>
      <trkpt lat="43.36804" lon="6.17725">
        <ele>461.866415</ele>
        <time>2025-04-25T08:35:09.000Z</time>
      </trkpt>
      <trkpt lat="43.36808" lon="6.1772">
        <ele>461.570688</ele>
        <time>2025-04-25T08:35:10.000Z</time>
      </trkpt>
      <trkpt lat="43.36808" lon="6.1772">
        <ele>461.570688</ele>
        <time>2025-04-25T08:35:10.000Z</time>
      </trkpt>
      <trkpt lat="43.36811" lon="6.17714">
        <ele>461.272334</ele>
        <time>2025-04-25T08:35:11.000Z</time>
      </trkpt>
      <trkpt lat="43.36811" lon="6.17714">
        <ele>461.272334</ele>
        <time>2025-04-25T08:35:11.000Z</time>
      </trkpt>
      <trkpt lat="43.36814" lon="6.17708">
        <ele>460.973828</ele>
        <time>2025-04-25T08:35:12.000Z</time>
      </trkpt>
      <trkpt lat="43.36814" lon="6.17708">
        <ele>460.973828</ele>
        <time>2025-04-25T08:35:12.000Z</time>
      </trkpt>
      <trkpt lat="43.36816" lon="6.17702">
        <ele>460.704836</ele>
        <time>2025-04-25T08:35:13.000Z</time>
      </trkpt>
      <trkpt lat="43.36816" lon="6.17702">
        <ele>460.704836</ele>
        <time>2025-04-25T08:35:13.000Z</time>
      </trkpt>
      <trkpt lat="43.3682" lon="6.17696">
        <ele>460.399839</ele>
        <time>2025-04-25T08:35:15.000Z</time>
      </trkpt>
      <trkpt lat="43.3682" lon="6.17696">
        <ele>460.399839</ele>
        <time>2025-04-25T08:35:15.000Z</time>
      </trkpt>
      <trkpt lat="43.36823" lon="6.1769">
        <ele>460.108011</ele>
        <time>2025-04-25T08:35:16.000Z</time>
      </trkpt>
      <trkpt lat="43.36823" lon="6.1769">
        <ele>460.108011</ele>
        <time>2025-04-25T08:35:16.000Z</time>
      </trkpt>
      <trkpt lat="43.36825" lon="6.17684">
        <ele>459.818545</ele>
        <time>2025-04-25T08:35:17.000Z</time>
      </trkpt>
      <trkpt lat="43.36825" lon="6.17684">
        <ele>459.818545</ele>
        <time>2025-04-25T08:35:17.000Z</time>
      </trkpt>
      <trkpt lat="43.36828" lon="6.17678">
        <ele>460.014353</ele>
        <time>2025-04-25T08:35:18.000Z</time>
      </trkpt>
      <trkpt lat="43.36828" lon="6.17678">
        <ele>460.014353</ele>
        <time>2025-04-25T08:35:18.000Z</time>
      </trkpt>
      <trkpt lat="43.36831" lon="6.17672">
        <ele>460.256461</ele>
        <time>2025-04-25T08:35:19.000Z</time>
      </trkpt>
      <trkpt lat="43.36835" lon="6.17666">
        <ele>460.496067</ele>
        <time>2025-04-25T08:35:20.000Z</time>
      </trkpt>
      <trkpt lat="43.36835" lon="6.17666">
        <ele>460.496067</ele>
        <time>2025-04-25T08:35:20.000Z</time>
      </trkpt>
      <trkpt lat="43.36838" lon="6.1766">
        <ele>460.725171</ele>
        <time>2025-04-25T08:35:20.000Z</time>
      </trkpt>
      <trkpt lat="43.36838" lon="6.1766">
        <ele>460.725171</ele>
        <time>2025-04-25T08:35:20.000Z</time>
      </trkpt>
      <trkpt lat="43.36841" lon="6.17655">
        <ele>460.938943</ele>
        <time>2025-04-25T08:35:22.000Z</time>
      </trkpt>
      <trkpt lat="43.36844" lon="6.1765">
        <ele>461.148079</ele>
        <time>2025-04-25T08:35:23.000Z</time>
      </trkpt>
      <trkpt lat="43.36844" lon="6.1765">
        <ele>461.148079</ele>
        <time>2025-04-25T08:35:23.000Z</time>
      </trkpt>
      <trkpt lat="43.36847" lon="6.17645">
        <ele>461.32364</ele>
        <time>2025-04-25T08:35:23.000Z</time>
      </trkpt>
      <trkpt lat="43.3685" lon="6.17641">
        <ele>461.520939</ele>
        <time>2025-04-25T08:35:25.000Z</time>
      </trkpt>
      <trkpt lat="43.36852" lon="6.17637">
        <ele>461.701765</ele>
        <time>2025-04-25T08:35:26.000Z</time>
      </trkpt>
      <trkpt lat="43.36852" lon="6.17637">
        <ele>461.701765</ele>
        <time>2025-04-25T08:35:26.000Z</time>
      </trkpt>
      <trkpt lat="43.36855" lon="6.17632">
        <ele>461.879761</ele>
        <time>2025-04-25T08:35:26.000Z</time>
      </trkpt>
      <trkpt lat="43.36858" lon="6.17628">
        <ele>462.07249</ele>
        <time>2025-04-25T08:35:28.000Z</time>
      </trkpt>
      <trkpt lat="43.36861" lon="6.17624">
        <ele>462.237102</ele>
        <time>2025-04-25T08:35:29.000Z</time>
      </trkpt>
      <trkpt lat="43.36861" lon="6.17624">
        <ele>462.237102</ele>
        <time>2025-04-25T08:35:29.000Z</time>
      </trkpt>
      <trkpt lat="43.36863" lon="6.1762">
        <ele>462.407867</ele>
        <time>2025-04-25T08:35:30.000Z</time>
      </trkpt>
      <trkpt lat="43.36866" lon="6.17617">
        <ele>462.57028</ele>
        <time>2025-04-25T08:35:31.000Z</time>
      </trkpt>
      <trkpt lat="43.36866" lon="6.17617">
        <ele>462.57028</ele>
        <time>2025-04-25T08:35:31.000Z</time>
      </trkpt>
      <trkpt lat="43.36869" lon="6.17613">
        <ele>462.741675</ele>
        <time>2025-04-25T08:35:32.000Z</time>
      </trkpt>
      <trkpt lat="43.36871" lon="6.17609">
        <ele>462.91008</ele>
        <time>2025-04-25T08:35:33.000Z</time>
      </trkpt>
      <trkpt lat="43.36871" lon="6.17609">
        <ele>462.91008</ele>
        <time>2025-04-25T08:35:33.000Z</time>
      </trkpt>
      <trkpt lat="43.36874" lon="6.17606">
        <ele>463.055571</ele>
        <time>2025-04-25T08:35:34.000Z</time>
      </trkpt>
      <trkpt lat="43.36874" lon="6.17606">
        <ele>463.055571</ele>
        <time>2025-04-25T08:35:34.000Z</time>
      </trkpt>
      <trkpt lat="43.36876" lon="6.17602">
        <ele>463.213688</ele>
        <time>2025-04-25T08:35:35.000Z</time>
      </trkpt>
      <trkpt lat="43.36876" lon="6.17602">
        <ele>463.213688</ele>
        <time>2025-04-25T08:35:35.000Z</time>
      </trkpt>
      <trkpt lat="43.36879" lon="6.17599">
        <ele>463.3783</ele>
        <time>2025-04-25T08:35:35.000Z</time>
      </trkpt>
      <trkpt lat="43.36879" lon="6.17599">
        <ele>463.3783</ele>
        <time>2025-04-25T08:35:35.000Z</time>
      </trkpt>
      <trkpt lat="43.36882" lon="6.17595">
        <ele>463.537556</ele>
        <time>2025-04-25T08:35:37.000Z</time>
      </trkpt>
      <trkpt lat="43.36882" lon="6.17595">
        <ele>463.537556</ele>
        <time>2025-04-25T08:35:37.000Z</time>
      </trkpt>
      <trkpt lat="43.36884" lon="6.17592">
        <ele>463.685361</ele>
        <time>2025-04-25T08:35:38.000Z</time>
      </trkpt>
      <trkpt lat="43.36884" lon="6.17592">
        <ele>463.685361</ele>
        <time>2025-04-25T08:35:38.000Z</time>
      </trkpt>
      <trkpt lat="43.36887" lon="6.17589">
        <ele>463.841381</ele>
        <time>2025-04-25T08:35:39.000Z</time>
      </trkpt>
      <trkpt lat="43.36887" lon="6.17589">
        <ele>463.841381</ele>
        <time>2025-04-25T08:35:39.000Z</time>
      </trkpt>
      <trkpt lat="43.36889" lon="6.17585">
        <ele>463.989186</ele>
        <time>2025-04-25T08:35:40.000Z</time>
      </trkpt>
      <trkpt lat="43.36889" lon="6.17585">
        <ele>463.989186</ele>
        <time>2025-04-25T08:35:40.000Z</time>
      </trkpt>
      <trkpt lat="43.36891" lon="6.17582">
        <ele>464.113429</ele>
        <time>2025-04-25T08:35:41.000Z</time>
      </trkpt>
      <trkpt lat="43.36891" lon="6.17582">
        <ele>464.113429</ele>
        <time>2025-04-25T08:35:41.000Z</time>
      </trkpt>
      <trkpt lat="43.36893" lon="6.17579">
        <ele>464.270791</ele>
        <time>2025-04-25T08:35:42.000Z</time>
      </trkpt>
      <trkpt lat="43.36893" lon="6.17579">
        <ele>464.270791</ele>
        <time>2025-04-25T08:35:42.000Z</time>
      </trkpt>
      <trkpt lat="43.36895" lon="6.17575">
        <ele>464.425722</ele>
        <time>2025-04-25T08:35:43.000Z</time>
      </trkpt>
      <trkpt lat="43.36895" lon="6.17575">
        <ele>464.425722</ele>
        <time>2025-04-25T08:35:43.000Z</time>
      </trkpt>
      <trkpt lat="43.36898" lon="6.17571">
        <ele>464.580652</ele>
        <time>2025-04-25T08:35:44.000Z</time>
      </trkpt>
      <trkpt lat="43.36898" lon="6.17571">
        <ele>464.580652</ele>
        <time>2025-04-25T08:35:44.000Z</time>
      </trkpt>
      <trkpt lat="43.369" lon="6.17567">
        <ele>464.758647</ele>
        <time>2025-04-25T08:35:45.000Z</time>
      </trkpt>
      <trkpt lat="43.369" lon="6.17567">
        <ele>464.758647</ele>
        <time>2025-04-25T08:35:45.000Z</time>
      </trkpt>
      <trkpt lat="43.36902" lon="6.17563">
        <ele>464.902813</ele>
        <time>2025-04-25T08:35:46.000Z</time>
      </trkpt>
      <trkpt lat="43.36902" lon="6.17563">
        <ele>464.902813</ele>
        <time>2025-04-25T08:35:46.000Z</time>
      </trkpt>
      <trkpt lat="43.36904" lon="6.1756">
        <ele>465.046978</ele>
        <time>2025-04-25T08:35:47.000Z</time>
      </trkpt>
      <trkpt lat="43.36904" lon="6.1756">
        <ele>465.046978</ele>
        <time>2025-04-25T08:35:47.000Z</time>
      </trkpt>
      <trkpt lat="43.36907" lon="6.17555">
        <ele>465.230224</ele>
        <time>2025-04-25T08:35:48.000Z</time>
      </trkpt>
      <trkpt lat="43.36907" lon="6.17555">
        <ele>465.230224</ele>
        <time>2025-04-25T08:35:48.000Z</time>
      </trkpt>
      <trkpt lat="43.3691" lon="6.17551">
        <ele>465.401618</ele>
        <time>2025-04-25T08:35:49.000Z</time>
      </trkpt>
      <trkpt lat="43.3691" lon="6.17551">
        <ele>465.401618</ele>
        <time>2025-04-25T08:35:49.000Z</time>
      </trkpt>
      <trkpt lat="43.36912" lon="6.17548">
        <ele>465.540374</ele>
        <time>2025-04-25T08:35:50.000Z</time>
      </trkpt>
      <trkpt lat="43.36912" lon="6.17548">
        <ele>465.540374</ele>
        <time>2025-04-25T08:35:50.000Z</time>
      </trkpt>
      <trkpt lat="43.36914" lon="6.17546">
        <ele>465.682989</ele>
        <time>2025-04-25T08:35:51.000Z</time>
      </trkpt>
      <trkpt lat="43.36914" lon="6.17546">
        <ele>465.682989</ele>
        <time>2025-04-25T08:35:51.000Z</time>
      </trkpt>
      <trkpt lat="43.36918" lon="6.17542">
        <ele>465.870566</ele>
        <time>2025-04-25T08:35:52.000Z</time>
      </trkpt>
      <trkpt lat="43.36918" lon="6.17542">
        <ele>465.870566</ele>
        <time>2025-04-25T08:35:52.000Z</time>
      </trkpt>
      <trkpt lat="43.3692" lon="6.17539">
        <ele>466.011531</ele>
        <time>2025-04-25T08:35:53.000Z</time>
      </trkpt>
      <trkpt lat="43.3692" lon="6.17539">
        <ele>466.011531</ele>
        <time>2025-04-25T08:35:53.000Z</time>
      </trkpt>
      <trkpt lat="43.36923" lon="6.17535">
        <ele>466.182294</ele>
        <time>2025-04-25T08:35:54.000Z</time>
      </trkpt>
      <trkpt lat="43.36923" lon="6.17535">
        <ele>466.182294</ele>
        <time>2025-04-25T08:35:54.000Z</time>
      </trkpt>
      <trkpt lat="43.36925" lon="6.17532">
        <ele>466.321309</ele>
        <time>2025-04-25T08:35:55.000Z</time>
      </trkpt>
      <trkpt lat="43.36925" lon="6.17532">
        <ele>466.321309</ele>
        <time>2025-04-25T08:35:55.000Z</time>
      </trkpt>
      <trkpt lat="43.36927" lon="6.17528">
        <ele>466.492703</ele>
        <time>2025-04-25T08:35:55.000Z</time>
      </trkpt>
      <trkpt lat="43.36927" lon="6.17528">
        <ele>466.492703</ele>
        <time>2025-04-25T08:35:55.000Z</time>
      </trkpt>
      <trkpt lat="43.36929" lon="6.17524">
        <ele>466.634281</ele>
        <time>2025-04-25T08:35:57.000Z</time>
      </trkpt>
      <trkpt lat="43.36929" lon="6.17524">
        <ele>466.634281</ele>
        <time>2025-04-25T08:35:57.000Z</time>
      </trkpt>
      <trkpt lat="43.36932" lon="6.1752">
        <ele>466.794102</ele>
        <time>2025-04-25T08:35:58.000Z</time>
      </trkpt>
      <trkpt lat="43.36932" lon="6.1752">
        <ele>466.794102</ele>
        <time>2025-04-25T08:35:58.000Z</time>
      </trkpt>
      <trkpt lat="43.36934" lon="6.17517">
        <ele>466.933117</ele>
        <time>2025-04-25T08:35:59.000Z</time>
      </trkpt>
      <trkpt lat="43.36934" lon="6.17517">
        <ele>466.933117</ele>
        <time>2025-04-25T08:35:59.000Z</time>
      </trkpt>
      <trkpt lat="43.36935" lon="6.17513">
        <ele>467.072131</ele>
        <time>2025-04-25T08:36:00.000Z</time>
      </trkpt>
      <trkpt lat="43.36935" lon="6.17513">
        <ele>467.072131</ele>
        <time>2025-04-25T08:36:00.000Z</time>
      </trkpt>
      <trkpt lat="43.36938" lon="6.1751">
        <ele>467.232378</ele>
        <time>2025-04-25T08:36:01.000Z</time>
      </trkpt>
      <trkpt lat="43.36938" lon="6.1751">
        <ele>467.232378</ele>
        <time>2025-04-25T08:36:01.000Z</time>
      </trkpt>
      <trkpt lat="43.3694" lon="6.17506">
        <ele>467.368857</ele>
        <time>2025-04-25T08:36:02.000Z</time>
      </trkpt>
      <trkpt lat="43.3694" lon="6.17506">
        <ele>467.368857</ele>
        <time>2025-04-25T08:36:02.000Z</time>
      </trkpt>
      <trkpt lat="43.36942" lon="6.17503">
        <ele>467.498157</ele>
        <time>2025-04-25T08:36:03.000Z</time>
      </trkpt>
      <trkpt lat="43.36942" lon="6.17503">
        <ele>467.498157</ele>
        <time>2025-04-25T08:36:03.000Z</time>
      </trkpt>
      <trkpt lat="43.36944" lon="6.17499">
        <ele>467.6655</ele>
        <time>2025-04-25T08:36:04.000Z</time>
      </trkpt>
      <trkpt lat="43.36944" lon="6.17499">
        <ele>467.6655</ele>
        <time>2025-04-25T08:36:04.000Z</time>
      </trkpt>
      <trkpt lat="43.36946" lon="6.17496">
        <ele>467.799784</ele>
        <time>2025-04-25T08:36:04.000Z</time>
      </trkpt>
      <trkpt lat="43.36946" lon="6.17496">
        <ele>467.799784</ele>
        <time>2025-04-25T08:36:04.000Z</time>
      </trkpt>
      <trkpt lat="43.36948" lon="6.17493">
        <ele>467.942398</ele>
        <time>2025-04-25T08:36:06.000Z</time>
      </trkpt>
      <trkpt lat="43.36948" lon="6.17493">
        <ele>467.942398</ele>
        <time>2025-04-25T08:36:06.000Z</time>
      </trkpt>
      <trkpt lat="43.36949" lon="6.1749">
        <ele>468.0548</ele>
        <time>2025-04-25T08:36:07.000Z</time>
      </trkpt>
      <trkpt lat="43.36949" lon="6.1749">
        <ele>468.0548</ele>
        <time>2025-04-25T08:36:07.000Z</time>
      </trkpt>
      <trkpt lat="43.36951" lon="6.17487">
        <ele>468.204336</ele>
        <time>2025-04-25T08:36:07.000Z</time>
      </trkpt>
      <trkpt lat="43.36951" lon="6.17487">
        <ele>468.204336</ele>
        <time>2025-04-25T08:36:07.000Z</time>
      </trkpt>
      <trkpt lat="43.36953" lon="6.17484">
        <ele>468.324573</ele>
        <time>2025-04-25T08:36:08.000Z</time>
      </trkpt>
      <trkpt lat="43.36953" lon="6.17484">
        <ele>468.324573</ele>
        <time>2025-04-25T08:36:08.000Z</time>
      </trkpt>
      <trkpt lat="43.36955" lon="6.17481">
        <ele>468.464531</ele>
        <time>2025-04-25T08:36:10.000Z</time>
      </trkpt>
      <trkpt lat="43.36955" lon="6.17481">
        <ele>468.464531</ele>
        <time>2025-04-25T08:36:10.000Z</time>
      </trkpt>
      <trkpt lat="43.36957" lon="6.17478">
        <ele>468.610363</ele>
        <time>2025-04-25T08:36:10.000Z</time>
      </trkpt>
      <trkpt lat="43.36957" lon="6.17478">
        <ele>468.610363</ele>
        <time>2025-04-25T08:36:10.000Z</time>
      </trkpt>
      <trkpt lat="43.3696" lon="6.17475">
        <ele>468.76569</ele>
        <time>2025-04-25T08:36:12.000Z</time>
      </trkpt>
      <trkpt lat="43.3696" lon="6.17475">
        <ele>468.76569</ele>
        <time>2025-04-25T08:36:12.000Z</time>
      </trkpt>
      <trkpt lat="43.36961" lon="6.17472">
        <ele>468.897899</ele>
        <time>2025-04-25T08:36:13.000Z</time>
      </trkpt>
      <trkpt lat="43.36961" lon="6.17472">
        <ele>468.897899</ele>
        <time>2025-04-25T08:36:13.000Z</time>
      </trkpt>
      <trkpt lat="43.36963" lon="6.1747">
        <ele>469.01582</ele>
        <time>2025-04-25T08:36:14.000Z</time>
      </trkpt>
      <trkpt lat="43.36963" lon="6.1747">
        <ele>469.01582</ele>
        <time>2025-04-25T08:36:14.000Z</time>
      </trkpt>
      <trkpt lat="43.36966" lon="6.17468">
        <ele>469.141465</ele>
        <time>2025-04-25T08:36:15.000Z</time>
      </trkpt>
      <trkpt lat="43.36966" lon="6.17468">
        <ele>469.141465</ele>
        <time>2025-04-25T08:36:15.000Z</time>
      </trkpt>
      <trkpt lat="43.36968" lon="6.17467">
        <ele>469.240734</ele>
        <time>2025-04-25T08:36:15.000Z</time>
      </trkpt>
      <trkpt lat="43.36968" lon="6.17467">
        <ele>469.240734</ele>
        <time>2025-04-25T08:36:15.000Z</time>
      </trkpt>
      <trkpt lat="43.3697" lon="6.17466">
        <ele>469.361594</ele>
        <time>2025-04-25T08:36:16.000Z</time>
      </trkpt>
      <trkpt lat="43.3697" lon="6.17466">
        <ele>469.361594</ele>
        <time>2025-04-25T08:36:16.000Z</time>
      </trkpt>
      <trkpt lat="43.36972" lon="6.17465">
        <ele>469.468813</ele>
        <time>2025-04-25T08:36:17.000Z</time>
      </trkpt>
      <trkpt lat="43.36972" lon="6.17465">
        <ele>469.468813</ele>
        <time>2025-04-25T08:36:17.000Z</time>
      </trkpt>
      <trkpt lat="43.36975" lon="6.17464">
        <ele>469.617457</ele>
        <time>2025-04-25T08:36:19.000Z</time>
      </trkpt>
      <trkpt lat="43.36975" lon="6.17464">
        <ele>469.617457</ele>
        <time>2025-04-25T08:36:19.000Z</time>
      </trkpt>
      <trkpt lat="43.36977" lon="6.17464">
        <ele>469.707936</ele>
        <time>2025-04-25T08:36:20.000Z</time>
      </trkpt>
      <trkpt lat="43.36977" lon="6.17464">
        <ele>469.707936</ele>
        <time>2025-04-25T08:36:20.000Z</time>
      </trkpt>
      <trkpt lat="43.3698" lon="6.17464">
        <ele>469.855776</ele>
        <time>2025-04-25T08:36:21.000Z</time>
      </trkpt>
      <trkpt lat="43.3698" lon="6.17464">
        <ele>469.855776</ele>
        <time>2025-04-25T08:36:21.000Z</time>
      </trkpt>
      <trkpt lat="43.36983" lon="6.17464">
        <ele>469.998598</ele>
        <time>2025-04-25T08:36:22.000Z</time>
      </trkpt>
      <trkpt lat="43.36983" lon="6.17464">
        <ele>469.998598</ele>
        <time>2025-04-25T08:36:22.000Z</time>
      </trkpt>
      <trkpt lat="43.36985" lon="6.17463">
        <ele>470.108025</ele>
        <time>2025-04-25T08:36:23.000Z</time>
      </trkpt>
      <trkpt lat="43.36985" lon="6.17463">
        <ele>470.108025</ele>
        <time>2025-04-25T08:36:23.000Z</time>
      </trkpt>
      <trkpt lat="43.36988" lon="6.17463">
        <ele>470.250847</ele>
        <time>2025-04-25T08:36:24.000Z</time>
      </trkpt>
      <trkpt lat="43.36988" lon="6.17463">
        <ele>470.250847</ele>
        <time>2025-04-25T08:36:24.000Z</time>
      </trkpt>
      <trkpt lat="43.36991" lon="6.17463">
        <ele>470.379789</ele>
        <time>2025-04-25T08:36:24.000Z</time>
      </trkpt>
      <trkpt lat="43.36991" lon="6.17463">
        <ele>470.379789</ele>
        <time>2025-04-25T08:36:24.000Z</time>
      </trkpt>
      <trkpt lat="43.36994" lon="6.17462">
        <ele>470.527347</ele>
        <time>2025-04-25T08:36:25.000Z</time>
      </trkpt>
      <trkpt lat="43.36994" lon="6.17462">
        <ele>470.527347</ele>
        <time>2025-04-25T08:36:25.000Z</time>
      </trkpt>
      <trkpt lat="43.36997" lon="6.17462">
        <ele>470.669835</ele>
        <time>2025-04-25T08:36:27.000Z</time>
      </trkpt>
      <trkpt lat="43.36997" lon="6.17462">
        <ele>470.669835</ele>
        <time>2025-04-25T08:36:27.000Z</time>
      </trkpt>
      <trkpt lat="43.37" lon="6.17463">
        <ele>470.817393</ele>
        <time>2025-04-25T08:36:27.000Z</time>
      </trkpt>
      <trkpt lat="43.37" lon="6.17463">
        <ele>470.817393</ele>
        <time>2025-04-25T08:36:27.000Z</time>
      </trkpt>
      <trkpt lat="43.37003" lon="6.17463">
        <ele>470.943188</ele>
        <time>2025-04-25T08:36:29.000Z</time>
      </trkpt>
      <trkpt lat="43.37003" lon="6.17463">
        <ele>470.943188</ele>
        <time>2025-04-25T08:36:29.000Z</time>
      </trkpt>
      <trkpt lat="43.37005" lon="6.17464">
        <ele>471.058809</ele>
        <time>2025-04-25T08:36:29.000Z</time>
      </trkpt>
      <trkpt lat="43.37005" lon="6.17464">
        <ele>471.058809</ele>
        <time>2025-04-25T08:36:29.000Z</time>
      </trkpt>
      <trkpt lat="43.37008" lon="6.17465">
        <ele>471.171454</ele>
        <time>2025-04-25T08:36:31.000Z</time>
      </trkpt>
      <trkpt lat="43.37008" lon="6.17465">
        <ele>471.171454</ele>
        <time>2025-04-25T08:36:31.000Z</time>
      </trkpt>
      <trkpt lat="43.37009" lon="6.17466">
        <ele>471.270724</ele>
        <time>2025-04-25T08:36:32.000Z</time>
      </trkpt>
      <trkpt lat="43.37009" lon="6.17466">
        <ele>471.270724</ele>
        <time>2025-04-25T08:36:32.000Z</time>
      </trkpt>
      <trkpt lat="43.37012" lon="6.17468">
        <ele>471.390146</ele>
        <time>2025-04-25T08:36:33.000Z</time>
      </trkpt>
      <trkpt lat="43.37012" lon="6.17468">
        <ele>471.390146</ele>
        <time>2025-04-25T08:36:33.000Z</time>
      </trkpt>
      <trkpt lat="43.37014" lon="6.1747">
        <ele>471.52516</ele>
        <time>2025-04-25T08:36:33.000Z</time>
      </trkpt>
      <trkpt lat="43.37014" lon="6.1747">
        <ele>471.52516</ele>
        <time>2025-04-25T08:36:33.000Z</time>
      </trkpt>
      <trkpt lat="43.37016" lon="6.17473">
        <ele>471.664346</ele>
        <time>2025-04-25T08:36:34.000Z</time>
      </trkpt>
      <trkpt lat="43.37016" lon="6.17473">
        <ele>471.664346</ele>
        <time>2025-04-25T08:36:34.000Z</time>
      </trkpt>
      <trkpt lat="43.37019" lon="6.17475">
        <ele>471.803531</ele>
        <time>2025-04-25T08:36:36.000Z</time>
      </trkpt>
      <trkpt lat="43.37019" lon="6.17475">
        <ele>471.803531</ele>
        <time>2025-04-25T08:36:36.000Z</time>
      </trkpt>
      <trkpt lat="43.37021" lon="6.17477">
        <ele>471.92601</ele>
        <time>2025-04-25T08:36:37.000Z</time>
      </trkpt>
      <trkpt lat="43.37021" lon="6.17477">
        <ele>471.92601</ele>
        <time>2025-04-25T08:36:37.000Z</time>
      </trkpt>
      <trkpt lat="43.37023" lon="6.1748">
        <ele>472.084505</ele>
        <time>2025-04-25T08:36:38.000Z</time>
      </trkpt>
      <trkpt lat="43.37023" lon="6.1748">
        <ele>472.084505</ele>
        <time>2025-04-25T08:36:38.000Z</time>
      </trkpt>
      <trkpt lat="43.37026" lon="6.17483">
        <ele>472.233176</ele>
        <time>2025-04-25T08:36:39.000Z</time>
      </trkpt>
      <trkpt lat="43.37026" lon="6.17483">
        <ele>472.233176</ele>
        <time>2025-04-25T08:36:39.000Z</time>
      </trkpt>
      <trkpt lat="43.37028" lon="6.17485">
        <ele>472.370248</ele>
        <time>2025-04-25T08:36:39.000Z</time>
      </trkpt>
      <trkpt lat="43.37028" lon="6.17485">
        <ele>472.370248</ele>
        <time>2025-04-25T08:36:39.000Z</time>
      </trkpt>
      <trkpt lat="43.37031" lon="6.17488">
        <ele>472.532898</ele>
        <time>2025-04-25T08:36:40.000Z</time>
      </trkpt>
      <trkpt lat="43.37033" lon="6.1749">
        <ele>472.672083</ele>
        <time>2025-04-25T08:36:42.000Z</time>
      </trkpt>
      <trkpt lat="43.37033" lon="6.1749">
        <ele>472.672083</ele>
        <time>2025-04-25T08:36:42.000Z</time>
      </trkpt>
      <trkpt lat="43.37036" lon="6.17492">
        <ele>472.830375</ele>
        <time>2025-04-25T08:36:42.000Z</time>
      </trkpt>
      <trkpt lat="43.37036" lon="6.17492">
        <ele>472.830375</ele>
        <time>2025-04-25T08:36:42.000Z</time>
      </trkpt>
      <trkpt lat="43.37038" lon="6.17495">
        <ele>472.965389</ele>
        <time>2025-04-25T08:36:44.000Z</time>
      </trkpt>
      <trkpt lat="43.37042" lon="6.17497">
        <ele>473.136012</ele>
        <time>2025-04-25T08:36:45.000Z</time>
      </trkpt>
      <trkpt lat="43.37042" lon="6.17497">
        <ele>473.136012</ele>
        <time>2025-04-25T08:36:45.000Z</time>
      </trkpt>
      <trkpt lat="43.37044" lon="6.175">
        <ele>473.284682</ele>
        <time>2025-04-25T08:36:46.000Z</time>
      </trkpt>
      <trkpt lat="43.37047" lon="6.17502">
        <ele>473.443177</ele>
        <time>2025-04-25T08:36:46.000Z</time>
      </trkpt>
      <trkpt lat="43.37047" lon="6.17502">
        <ele>473.443177</ele>
        <time>2025-04-25T08:36:46.000Z</time>
      </trkpt>
      <trkpt lat="43.3705" lon="6.17505">
        <ele>473.627203</ele>
        <time>2025-04-25T08:36:48.000Z</time>
      </trkpt>
      <trkpt lat="43.37052" lon="6.17507">
        <ele>473.7564</ele>
        <time>2025-04-25T08:36:49.000Z</time>
      </trkpt>
      <trkpt lat="43.37055" lon="6.1751">
        <ele>473.911079</ele>
        <time>2025-04-25T08:36:49.000Z</time>
      </trkpt>
      <trkpt lat="43.37057" lon="6.17513">
        <ele>474.048151</ele>
        <time>2025-04-25T08:36:50.000Z</time>
      </trkpt>
      <trkpt lat="43.37057" lon="6.17513">
        <ele>474.048151</ele>
        <time>2025-04-25T08:36:50.000Z</time>
      </trkpt>
      <trkpt lat="43.3706" lon="6.17515">
        <ele>474.198942</ele>
        <time>2025-04-25T08:36:52.000Z</time>
      </trkpt>
      <trkpt lat="43.37063" lon="6.17517">
        <ele>474.349733</ele>
        <time>2025-04-25T08:36:52.000Z</time>
      </trkpt>
      <trkpt lat="43.37065" lon="6.17519">
        <ele>474.483603</ele>
        <time>2025-04-25T08:36:53.000Z</time>
      </trkpt>
      <trkpt lat="43.37069" lon="6.1752">
        <ele>474.654874</ele>
        <time>2025-04-25T08:36:54.000Z</time>
      </trkpt>
      <trkpt lat="43.37069" lon="6.1752">
        <ele>474.654874</ele>
        <time>2025-04-25T08:36:54.000Z</time>
      </trkpt>
      <trkpt lat="43.37072" lon="6.17521">
        <ele>474.819274</ele>
        <time>2025-04-25T08:36:55.000Z</time>
      </trkpt>
      <trkpt lat="43.37076" lon="6.17521">
        <ele>475.019444</ele>
        <time>2025-04-25T08:36:56.000Z</time>
      </trkpt>
      <trkpt lat="43.3708" lon="6.17522">
        <ele>475.20253</ele>
        <time>2025-04-25T08:36:58.000Z</time>
      </trkpt>
      <trkpt lat="43.3708" lon="6.17522">
        <ele>475.20253</ele>
        <time>2025-04-25T08:36:58.000Z</time>
      </trkpt>
      <trkpt lat="43.37084" lon="6.17523">
        <ele>475.388457</ele>
        <time>2025-04-25T08:36:58.000Z</time>
      </trkpt>
      <trkpt lat="43.37087" lon="6.17525">
        <ele>475.565878</ele>
        <time>2025-04-25T08:36:59.000Z</time>
      </trkpt>
      <trkpt lat="43.3709" lon="6.17528">
        <ele>475.739976</ele>
        <time>2025-04-25T08:37:00.000Z</time>
      </trkpt>
      <trkpt lat="43.3709" lon="6.17528">
        <ele>475.739976</ele>
        <time>2025-04-25T08:37:00.000Z</time>
      </trkpt>
      <trkpt lat="43.37093" lon="6.17531">
        <ele>475.877047</ele>
        <time>2025-04-25T08:37:01.000Z</time>
      </trkpt>
      <trkpt lat="43.37095" lon="6.17533">
        <ele>476.006244</ele>
        <time>2025-04-25T08:37:02.000Z</time>
      </trkpt>
      <trkpt lat="43.37096" lon="6.17533">
        <ele>476.082632</ele>
        <time>2025-04-25T08:37:03.000Z</time>
      </trkpt>
      <trkpt lat="43.37096" lon="6.17533">
        <ele>476.082632</ele>
        <time>2025-04-25T08:37:03.000Z</time>
      </trkpt>
      <trkpt lat="43.37097" lon="6.17533">
        <ele>476.12124</ele>
        <time>2025-04-25T08:37:04.000Z</time>
      </trkpt>
      <trkpt lat="43.37098" lon="6.17531">
        <ele>476.210581</ele>
        <time>2025-04-25T08:37:05.000Z</time>
      </trkpt>
      <trkpt lat="43.37098" lon="6.17531">
        <ele>476.210581</ele>
        <time>2025-04-25T08:37:05.000Z</time>
      </trkpt>
      <trkpt lat="43.37099" lon="6.17528">
        <ele>476.169021</ele>
        <time>2025-04-25T08:37:06.000Z</time>
      </trkpt>
      <trkpt lat="43.371" lon="6.17526">
        <ele>476.124833</ele>
        <time>2025-04-25T08:37:07.000Z</time>
      </trkpt>
      <trkpt lat="43.371" lon="6.17526">
        <ele>476.124833</ele>
        <time>2025-04-25T08:37:07.000Z</time>
      </trkpt>
      <trkpt lat="43.37103" lon="6.17519">
        <ele>476.012793</ele>
        <time>2025-04-25T08:37:10.000Z</time>
      </trkpt>
      <trkpt lat="43.37103" lon="6.17519">
        <ele>476.012793</ele>
        <time>2025-04-25T08:37:10.000Z</time>
      </trkpt>
      <trkpt lat="43.37103" lon="6.17517">
        <ele>475.980891</ele>
        <time>2025-04-25T08:37:12.000Z</time>
      </trkpt>
      <trkpt lat="43.37103" lon="6.17517">
        <ele>475.980891</ele>
        <time>2025-04-25T08:37:12.000Z</time>
      </trkpt>
      <trkpt lat="43.37104" lon="6.17516">
        <ele>475.950022</ele>
        <time>2025-04-25T08:37:12.000Z</time>
      </trkpt>
      <trkpt lat="43.37104" lon="6.17516">
        <ele>475.950022</ele>
        <time>2025-04-25T08:37:12.000Z</time>
      </trkpt>
      <trkpt lat="43.37104" lon="6.17516">
        <ele>475.950022</ele>
        <time>2025-04-25T08:37:13.000Z</time>
      </trkpt>
      <trkpt lat="43.37104" lon="6.17516">
        <ele>475.950022</ele>
        <time>2025-04-25T08:37:22.000Z</time>
      </trkpt>
      <trkpt lat="43.37106" lon="6.17512">
        <ele>475.887545</ele>
        <time>2025-04-25T08:37:24.000Z</time>
      </trkpt>
      <trkpt lat="43.37106" lon="6.17512">
        <ele>475.887545</ele>
        <time>2025-04-25T08:37:24.000Z</time>
      </trkpt>
      <trkpt lat="43.37105" lon="6.17511">
        <ele>475.857379</ele>
        <time>2025-04-25T08:37:24.000Z</time>
      </trkpt>
      <trkpt lat="43.37104" lon="6.1751">
        <ele>475.832759</ele>
        <time>2025-04-25T08:37:26.000Z</time>
      </trkpt>
      <trkpt lat="43.37104" lon="6.1751">
        <ele>475.832759</ele>
        <time>2025-04-25T08:37:26.000Z</time>
      </trkpt>
      <trkpt lat="43.37103" lon="6.17508">
        <ele>475.799458</ele>
        <time>2025-04-25T08:37:27.000Z</time>
      </trkpt>
      <trkpt lat="43.37099" lon="6.17502">
        <ele>475.67131</ele>
        <time>2025-04-25T08:37:29.000Z</time>
      </trkpt>
      <trkpt lat="43.37097" lon="6.17499">
        <ele>475.609996</ele>
        <time>2025-04-25T08:37:29.000Z</time>
      </trkpt>
      <trkpt lat="43.37096" lon="6.17496">
        <ele>475.552845</ele>
        <time>2025-04-25T08:37:30.000Z</time>
      </trkpt>
      <trkpt lat="43.37096" lon="6.17496">
        <ele>475.552845</ele>
        <time>2025-04-25T08:37:30.000Z</time>
      </trkpt>
      <trkpt lat="43.37094" lon="6.17491">
        <ele>475.479359</ele>
        <time>2025-04-25T08:37:31.000Z</time>
      </trkpt>
      <trkpt lat="43.37093" lon="6.17488">
        <ele>475.425925</ele>
        <time>2025-04-25T08:37:32.000Z</time>
      </trkpt>
      <trkpt lat="43.37093" lon="6.17485">
        <ele>475.376827</ele>
        <time>2025-04-25T08:37:33.000Z</time>
      </trkpt>
      <trkpt lat="43.37093" lon="6.17481">
        <ele>475.323903</ele>
        <time>2025-04-25T08:37:35.000Z</time>
      </trkpt>
      <trkpt lat="43.37093" lon="6.17477">
        <ele>475.254346</ele>
        <time>2025-04-25T08:37:36.000Z</time>
      </trkpt>
      <trkpt lat="43.37094" lon="6.17473">
        <ele>475.192134</ele>
        <time>2025-04-25T08:37:37.000Z</time>
      </trkpt>
      <trkpt lat="43.37095" lon="6.17468">
        <ele>475.116195</ele>
        <time>2025-04-25T08:37:38.000Z</time>
      </trkpt>
      <trkpt lat="43.37096" lon="6.17462">
        <ele>475.029938</ele>
        <time>2025-04-25T08:37:39.000Z</time>
      </trkpt>
      <trkpt lat="43.37096" lon="6.17462">
        <ele>475.029938</ele>
        <time>2025-04-25T08:37:39.000Z</time>
      </trkpt>
      <trkpt lat="43.37096" lon="6.17458">
        <ele>474.961356</ele>
        <time>2025-04-25T08:37:40.000Z</time>
      </trkpt>
      <trkpt lat="43.37097" lon="6.17453">
        <ele>474.886892</ele>
        <time>2025-04-25T08:37:41.000Z</time>
      </trkpt>
      <trkpt lat="43.37097" lon="6.17453">
        <ele>474.886892</ele>
        <time>2025-04-25T08:37:41.000Z</time>
      </trkpt>
      <trkpt lat="43.37098" lon="6.17448">
        <ele>474.806319</ele>
        <time>2025-04-25T08:37:42.000Z</time>
      </trkpt>
      <trkpt lat="43.37098" lon="6.17443">
        <ele>474.728949</ele>
        <time>2025-04-25T08:37:43.000Z</time>
      </trkpt>
      <trkpt lat="43.37098" lon="6.17437">
        <ele>474.644271</ele>
        <time>2025-04-25T08:37:44.000Z</time>
      </trkpt>
      <trkpt lat="43.37098" lon="6.17437">
        <ele>474.644271</ele>
        <time>2025-04-25T08:37:44.000Z</time>
      </trkpt>
      <trkpt lat="43.37098" lon="6.17432">
        <ele>474.568209</ele>
        <time>2025-04-25T08:37:45.000Z</time>
      </trkpt>
      <trkpt lat="43.37098" lon="6.17432">
        <ele>474.568209</ele>
        <time>2025-04-25T08:37:45.000Z</time>
      </trkpt>
      <trkpt lat="43.37098" lon="6.17427">
        <ele>474.498652</ele>
        <time>2025-04-25T08:37:46.000Z</time>
      </trkpt>
      <trkpt lat="43.37098" lon="6.17423">
        <ele>474.435144</ele>
        <time>2025-04-25T08:37:47.000Z</time>
      </trkpt>
      <trkpt lat="43.37098" lon="6.17419">
        <ele>474.371635</ele>
        <time>2025-04-25T08:37:48.000Z</time>
      </trkpt>
      <trkpt lat="43.37098" lon="6.17419">
        <ele>474.371635</ele>
        <time>2025-04-25T08:37:48.000Z</time>
      </trkpt>
      <trkpt lat="43.37098" lon="6.17415">
        <ele>474.305103</ele>
        <time>2025-04-25T08:37:49.000Z</time>
      </trkpt>
      <trkpt lat="43.37099" lon="6.17411">
        <ele>474.247043</ele>
        <time>2025-04-25T08:37:50.000Z</time>
      </trkpt>
      <trkpt lat="43.37099" lon="6.17407">
        <ele>474.186559</ele>
        <time>2025-04-25T08:37:51.000Z</time>
      </trkpt>
      <trkpt lat="43.37099" lon="6.174">
        <ele>474.089427</ele>
        <time>2025-04-25T08:37:52.000Z</time>
      </trkpt>
      <trkpt lat="43.37099" lon="6.17396">
        <ele>474.023876</ele>
        <time>2025-04-25T08:37:53.000Z</time>
      </trkpt>
      <trkpt lat="43.37099" lon="6.17391">
        <ele>473.941799</ele>
        <time>2025-04-25T08:37:54.000Z</time>
      </trkpt>
      <trkpt lat="43.371" lon="6.17386">
        <ele>473.863319</ele>
        <time>2025-04-25T08:37:55.000Z</time>
      </trkpt>
      <trkpt lat="43.371" lon="6.17386">
        <ele>473.863319</ele>
        <time>2025-04-25T08:37:55.000Z</time>
      </trkpt>
      <trkpt lat="43.37101" lon="6.17382">
        <ele>473.804949</ele>
        <time>2025-04-25T08:37:56.000Z</time>
      </trkpt>
      <trkpt lat="43.37101" lon="6.17378">
        <ele>473.748026</ele>
        <time>2025-04-25T08:37:57.000Z</time>
      </trkpt>
      <trkpt lat="43.37102" lon="6.17374">
        <ele>473.684343</ele>
        <time>2025-04-25T08:37:58.000Z</time>
      </trkpt>
      <trkpt lat="43.37102" lon="6.17374">
        <ele>473.684343</ele>
        <time>2025-04-25T08:37:58.000Z</time>
      </trkpt>
      <trkpt lat="43.37104" lon="6.17365">
        <ele>473.548644</ele>
        <time>2025-04-25T08:38:00.000Z</time>
      </trkpt>
      <trkpt lat="43.37105" lon="6.1736">
        <ele>473.463845</ele>
        <time>2025-04-25T08:38:01.000Z</time>
      </trkpt>
      <trkpt lat="43.37106" lon="6.17355">
        <ele>473.380654</ele>
        <time>2025-04-25T08:38:02.000Z</time>
      </trkpt>
      <trkpt lat="43.37108" lon="6.1735">
        <ele>473.29527</ele>
        <time>2025-04-25T08:38:03.000Z</time>
      </trkpt>
      <trkpt lat="43.37109" lon="6.17344">
        <ele>473.200757</ele>
        <time>2025-04-25T08:38:04.000Z</time>
      </trkpt>
      <trkpt lat="43.37111" lon="6.17338">
        <ele>473.110513</ele>
        <time>2025-04-25T08:38:05.000Z</time>
      </trkpt>
      <trkpt lat="43.37112" lon="6.17332">
        <ele>473.016</ele>
        <time>2025-04-25T08:38:06.000Z</time>
      </trkpt>
      <trkpt lat="43.37114" lon="6.17327">
        <ele>472.925016</ele>
        <time>2025-04-25T08:38:07.000Z</time>
      </trkpt>
      <trkpt lat="43.37116" lon="6.17321">
        <ele>472.832937</ele>
        <time>2025-04-25T08:38:08.000Z</time>
      </trkpt>
      <trkpt lat="43.37117" lon="6.17316">
        <ele>472.746936</ele>
        <time>2025-04-25T08:38:09.000Z</time>
      </trkpt>
      <trkpt lat="43.37118" lon="6.17311">
        <ele>472.666495</ele>
        <time>2025-04-25T08:38:10.000Z</time>
      </trkpt>
      <trkpt lat="43.37118" lon="6.17311">
        <ele>472.666495</ele>
        <time>2025-04-25T08:38:10.000Z</time>
      </trkpt>
      <trkpt lat="43.37119" lon="6.17305">
        <ele>472.584644</ele>
        <time>2025-04-25T08:38:11.000Z</time>
      </trkpt>
      <trkpt lat="43.3712" lon="6.17301">
        <ele>472.511653</ele>
        <time>2025-04-25T08:38:12.000Z</time>
      </trkpt>
      <trkpt lat="43.37121" lon="6.17295">
        <ele>472.259947</ele>
        <time>2025-04-25T08:38:13.000Z</time>
      </trkpt>
      <trkpt lat="43.37122" lon="6.17291">
        <ele>471.897041</ele>
        <time>2025-04-25T08:38:14.000Z</time>
      </trkpt>
      <trkpt lat="43.37124" lon="6.17288">
        <ele>471.557968</ele>
        <time>2025-04-25T08:38:15.000Z</time>
      </trkpt>
      <trkpt lat="43.37124" lon="6.17288">
        <ele>471.557968</ele>
        <time>2025-04-25T08:38:15.000Z</time>
      </trkpt>
      <trkpt lat="43.37127" lon="6.17284">
        <ele>471.1609</ele>
        <time>2025-04-25T08:38:16.000Z</time>
      </trkpt>
      <trkpt lat="43.37129" lon="6.1728">
        <ele>470.769942</ele>
        <time>2025-04-25T08:38:17.000Z</time>
      </trkpt>
      <trkpt lat="43.37129" lon="6.1728">
        <ele>470.769942</ele>
        <time>2025-04-25T08:38:17.000Z</time>
      </trkpt>
      <trkpt lat="43.37131" lon="6.17278">
        <ele>470.489382</ele>
        <time>2025-04-25T08:38:18.000Z</time>
      </trkpt>
      <trkpt lat="43.37131" lon="6.17278">
        <ele>470.489382</ele>
        <time>2025-04-25T08:38:18.000Z</time>
      </trkpt>
      <trkpt lat="43.37133" lon="6.17275">
        <ele>470.162703</ele>
        <time>2025-04-25T08:38:19.000Z</time>
      </trkpt>
      <trkpt lat="43.37135" lon="6.17271">
        <ele>469.801238</ele>
        <time>2025-04-25T08:38:20.000Z</time>
      </trkpt>
      <trkpt lat="43.37135" lon="6.17271">
        <ele>469.801238</ele>
        <time>2025-04-25T08:38:20.000Z</time>
      </trkpt>
      <trkpt lat="43.37137" lon="6.17269">
        <ele>469.536145</ele>
        <time>2025-04-25T08:38:21.000Z</time>
      </trkpt>
      <trkpt lat="43.37137" lon="6.17269">
        <ele>469.536145</ele>
        <time>2025-04-25T08:38:21.000Z</time>
      </trkpt>
      <trkpt lat="43.37138" lon="6.17267">
        <ele>469.295619</ele>
        <time>2025-04-25T08:38:22.000Z</time>
      </trkpt>
      <trkpt lat="43.37138" lon="6.17267">
        <ele>469.295619</ele>
        <time>2025-04-25T08:38:22.000Z</time>
      </trkpt>
      <trkpt lat="43.3714" lon="6.17265">
        <ele>469.057137</ele>
        <time>2025-04-25T08:38:23.000Z</time>
      </trkpt>
      <trkpt lat="43.3714" lon="6.17265">
        <ele>469.057137</ele>
        <time>2025-04-25T08:38:23.000Z</time>
      </trkpt>
      <trkpt lat="43.37142" lon="6.17261">
        <ele>468.666179</ele>
        <time>2025-04-25T08:38:24.000Z</time>
      </trkpt>
      <trkpt lat="43.37142" lon="6.17261">
        <ele>468.666179</ele>
        <time>2025-04-25T08:38:24.000Z</time>
      </trkpt>
      <trkpt lat="43.37145" lon="6.17257">
        <ele>468.269112</ele>
        <time>2025-04-25T08:38:25.000Z</time>
      </trkpt>
      <trkpt lat="43.37145" lon="6.17257">
        <ele>468.269112</ele>
        <time>2025-04-25T08:38:25.000Z</time>
      </trkpt>
      <trkpt lat="43.37147" lon="6.17253">
        <ele>467.826895</ele>
        <time>2025-04-25T08:38:26.000Z</time>
      </trkpt>
      <trkpt lat="43.37147" lon="6.17253">
        <ele>467.826895</ele>
        <time>2025-04-25T08:38:26.000Z</time>
      </trkpt>
      <trkpt lat="43.3715" lon="6.17249">
        <ele>467.377645</ele>
        <time>2025-04-25T08:38:27.000Z</time>
      </trkpt>
      <trkpt lat="43.3715" lon="6.17249">
        <ele>467.377645</ele>
        <time>2025-04-25T08:38:27.000Z</time>
      </trkpt>
      <trkpt lat="43.37152" lon="6.17244">
        <ele>466.979788</ele>
        <time>2025-04-25T08:38:28.000Z</time>
      </trkpt>
      <trkpt lat="43.37152" lon="6.17244">
        <ele>466.979788</ele>
        <time>2025-04-25T08:38:28.000Z</time>
      </trkpt>
      <trkpt lat="43.37154" lon="6.17239">
        <ele>466.44849</ele>
        <time>2025-04-25T08:38:29.000Z</time>
      </trkpt>
      <trkpt lat="43.37154" lon="6.17239">
        <ele>466.44849</ele>
        <time>2025-04-25T08:38:29.000Z</time>
      </trkpt>
      <trkpt lat="43.37157" lon="6.17233">
        <ele>465.960457</ele>
        <time>2025-04-25T08:38:30.000Z</time>
      </trkpt>
      <trkpt lat="43.37157" lon="6.17233">
        <ele>465.960457</ele>
        <time>2025-04-25T08:38:30.000Z</time>
      </trkpt>
      <trkpt lat="43.37159" lon="6.17229">
        <ele>465.505916</ele>
        <time>2025-04-25T08:38:31.000Z</time>
      </trkpt>
      <trkpt lat="43.37159" lon="6.17229">
        <ele>465.505916</ele>
        <time>2025-04-25T08:38:31.000Z</time>
      </trkpt>
      <trkpt lat="43.37162" lon="6.17224">
        <ele>465.013409</ele>
        <time>2025-04-25T08:38:32.000Z</time>
      </trkpt>
      <trkpt lat="43.37162" lon="6.17224">
        <ele>465.013409</ele>
        <time>2025-04-25T08:38:32.000Z</time>
      </trkpt>
      <trkpt lat="43.37164" lon="6.17219">
        <ele>464.533546</ele>
        <time>2025-04-25T08:38:33.000Z</time>
      </trkpt>
      <trkpt lat="43.37164" lon="6.17219">
        <ele>464.533546</ele>
        <time>2025-04-25T08:38:33.000Z</time>
      </trkpt>
      <trkpt lat="43.37167" lon="6.17214">
        <ele>464.019954</ele>
        <time>2025-04-25T08:38:34.000Z</time>
      </trkpt>
      <trkpt lat="43.37167" lon="6.17214">
        <ele>464.019954</ele>
        <time>2025-04-25T08:38:34.000Z</time>
      </trkpt>
      <trkpt lat="43.37171" lon="6.17208">
        <ele>463.408459</ele>
        <time>2025-04-25T08:38:35.000Z</time>
      </trkpt>
      <trkpt lat="43.37171" lon="6.17208">
        <ele>463.408459</ele>
        <time>2025-04-25T08:38:35.000Z</time>
      </trkpt>
      <trkpt lat="43.37175" lon="6.17202">
        <ele>462.749882</ele>
        <time>2025-04-25T08:38:36.000Z</time>
      </trkpt>
      <trkpt lat="43.37175" lon="6.17202">
        <ele>462.749882</ele>
        <time>2025-04-25T08:38:36.000Z</time>
      </trkpt>
      <trkpt lat="43.37179" lon="6.17197">
        <ele>462.161307</ele>
        <time>2025-04-25T08:38:37.000Z</time>
      </trkpt>
      <trkpt lat="43.37179" lon="6.17197">
        <ele>462.161307</ele>
        <time>2025-04-25T08:38:37.000Z</time>
      </trkpt>
      <trkpt lat="43.37183" lon="6.17191">
        <ele>461.536035</ele>
        <time>2025-04-25T08:38:38.000Z</time>
      </trkpt>
      <trkpt lat="43.37183" lon="6.17191">
        <ele>461.536035</ele>
        <time>2025-04-25T08:38:38.000Z</time>
      </trkpt>
      <trkpt lat="43.37186" lon="6.17186">
        <ele>461.011153</ele>
        <time>2025-04-25T08:38:39.000Z</time>
      </trkpt>
      <trkpt lat="43.37186" lon="6.17186">
        <ele>461.011153</ele>
        <time>2025-04-25T08:38:39.000Z</time>
      </trkpt>
      <trkpt lat="43.37189" lon="6.17181">
        <ele>460.54333</ele>
        <time>2025-04-25T08:38:40.000Z</time>
      </trkpt>
      <trkpt lat="43.37189" lon="6.17181">
        <ele>460.54333</ele>
        <time>2025-04-25T08:38:40.000Z</time>
      </trkpt>
      <trkpt lat="43.37191" lon="6.17177">
        <ele>460.138698</ele>
        <time>2025-04-25T08:38:41.000Z</time>
      </trkpt>
      <trkpt lat="43.37191" lon="6.17177">
        <ele>460.138698</ele>
        <time>2025-04-25T08:38:41.000Z</time>
      </trkpt>
      <trkpt lat="43.37192" lon="6.17173">
        <ele>459.78463</ele>
        <time>2025-04-25T08:38:42.000Z</time>
      </trkpt>
      <trkpt lat="43.37192" lon="6.17173">
        <ele>459.78463</ele>
        <time>2025-04-25T08:38:42.000Z</time>
      </trkpt>
      <trkpt lat="43.37193" lon="6.1717">
        <ele>459.504764</ele>
        <time>2025-04-25T08:38:43.000Z</time>
      </trkpt>
      <trkpt lat="43.37193" lon="6.1717">
        <ele>459.504764</ele>
        <time>2025-04-25T08:38:43.000Z</time>
      </trkpt>
      <trkpt lat="43.37195" lon="6.17166">
        <ele>459.169809</ele>
        <time>2025-04-25T08:38:44.000Z</time>
      </trkpt>
      <trkpt lat="43.37195" lon="6.17166">
        <ele>459.169809</ele>
        <time>2025-04-25T08:38:44.000Z</time>
      </trkpt>
      <trkpt lat="43.37196" lon="6.17162">
        <ele>458.801888</ele>
        <time>2025-04-25T08:38:45.000Z</time>
      </trkpt>
      <trkpt lat="43.37196" lon="6.17162">
        <ele>458.801888</ele>
        <time>2025-04-25T08:38:45.000Z</time>
      </trkpt>
      <trkpt lat="43.37198" lon="6.17157">
        <ele>458.366908</ele>
        <time>2025-04-25T08:38:46.000Z</time>
      </trkpt>
      <trkpt lat="43.37198" lon="6.17157">
        <ele>458.366908</ele>
        <time>2025-04-25T08:38:46.000Z</time>
      </trkpt>
      <trkpt lat="43.37199" lon="6.17152">
        <ele>457.931126</ele>
        <time>2025-04-25T08:38:47.000Z</time>
      </trkpt>
      <trkpt lat="43.37199" lon="6.17152">
        <ele>457.931126</ele>
        <time>2025-04-25T08:38:47.000Z</time>
      </trkpt>
      <trkpt lat="43.37201" lon="6.17146">
        <ele>457.451841</ele>
        <time>2025-04-25T08:38:48.000Z</time>
      </trkpt>
      <trkpt lat="43.37201" lon="6.17146">
        <ele>457.451841</ele>
        <time>2025-04-25T08:38:48.000Z</time>
      </trkpt>
      <trkpt lat="43.37201" lon="6.1714">
        <ele>456.98509</ele>
        <time>2025-04-25T08:38:49.000Z</time>
      </trkpt>
      <trkpt lat="43.37201" lon="6.1714">
        <ele>456.98509</ele>
        <time>2025-04-25T08:38:49.000Z</time>
      </trkpt>
      <trkpt lat="43.37202" lon="6.17135">
        <ele>456.595243</ele>
        <time>2025-04-25T08:38:50.000Z</time>
      </trkpt>
      <trkpt lat="43.37202" lon="6.17135">
        <ele>456.595243</ele>
        <time>2025-04-25T08:38:50.000Z</time>
      </trkpt>
      <trkpt lat="43.37202" lon="6.17131">
        <ele>456.228958</ele>
        <time>2025-04-25T08:38:51.000Z</time>
      </trkpt>
      <trkpt lat="43.37202" lon="6.17131">
        <ele>456.228958</ele>
        <time>2025-04-25T08:38:51.000Z</time>
      </trkpt>
      <trkpt lat="43.37203" lon="6.17126">
        <ele>455.831254</ele>
        <time>2025-04-25T08:38:52.000Z</time>
      </trkpt>
      <trkpt lat="43.37203" lon="6.17126">
        <ele>455.831254</ele>
        <time>2025-04-25T08:38:52.000Z</time>
      </trkpt>
      <trkpt lat="43.37203" lon="6.17121">
        <ele>455.507094</ele>
        <time>2025-04-25T08:38:53.000Z</time>
      </trkpt>
      <trkpt lat="43.37203" lon="6.17121">
        <ele>455.507094</ele>
        <time>2025-04-25T08:38:53.000Z</time>
      </trkpt>
      <trkpt lat="43.37203" lon="6.17117">
        <ele>455.119682</ele>
        <time>2025-04-25T08:38:54.000Z</time>
      </trkpt>
      <trkpt lat="43.37203" lon="6.17117">
        <ele>455.119682</ele>
        <time>2025-04-25T08:38:54.000Z</time>
      </trkpt>
      <trkpt lat="43.37203" lon="6.17112">
        <ele>454.771803</ele>
        <time>2025-04-25T08:38:55.000Z</time>
      </trkpt>
      <trkpt lat="43.37203" lon="6.17108">
        <ele>454.400227</ele>
        <time>2025-04-25T08:38:56.000Z</time>
      </trkpt>
      <trkpt lat="43.37203" lon="6.17108">
        <ele>454.400227</ele>
        <time>2025-04-25T08:38:56.000Z</time>
      </trkpt>
      <trkpt lat="43.37204" lon="6.17103">
        <ele>454.021256</ele>
        <time>2025-04-25T08:38:57.000Z</time>
      </trkpt>
      <trkpt lat="43.37204" lon="6.17103">
        <ele>454.021256</ele>
        <time>2025-04-25T08:38:57.000Z</time>
      </trkpt>
      <trkpt lat="43.37206" lon="6.17098">
        <ele>453.586277</ele>
        <time>2025-04-25T08:38:58.000Z</time>
      </trkpt>
      <trkpt lat="43.37206" lon="6.17098">
        <ele>453.586277</ele>
        <time>2025-04-25T08:38:58.000Z</time>
      </trkpt>
      <trkpt lat="43.37208" lon="6.17092">
        <ele>453.090492</ele>
        <time>2025-04-25T08:38:59.000Z</time>
      </trkpt>
      <trkpt lat="43.3721" lon="6.17088">
        <ele>452.651689</ele>
        <time>2025-04-25T08:39:00.000Z</time>
      </trkpt>
      <trkpt lat="43.3721" lon="6.17088">
        <ele>452.651689</ele>
        <time>2025-04-25T08:39:00.000Z</time>
      </trkpt>
      <trkpt lat="43.37212" lon="6.17084">
        <ele>452.170997</ele>
        <time>2025-04-25T08:39:01.000Z</time>
      </trkpt>
      <trkpt lat="43.37212" lon="6.17084">
        <ele>452.170997</ele>
        <time>2025-04-25T08:39:01.000Z</time>
      </trkpt>
      <trkpt lat="43.37215" lon="6.17082">
        <ele>451.695909</ele>
        <time>2025-04-25T08:39:02.000Z</time>
      </trkpt>
      <trkpt lat="43.37215" lon="6.17082">
        <ele>451.695909</ele>
        <time>2025-04-25T08:39:02.000Z</time>
      </trkpt>
      <trkpt lat="43.37218" lon="6.17079">
        <ele>451.289302</ele>
        <time>2025-04-25T08:39:03.000Z</time>
      </trkpt>
      <trkpt lat="43.37218" lon="6.17079">
        <ele>451.289302</ele>
        <time>2025-04-25T08:39:03.000Z</time>
      </trkpt>
      <trkpt lat="43.37221" lon="6.17076">
        <ele>450.808737</ele>
        <time>2025-04-25T08:39:04.000Z</time>
      </trkpt>
      <trkpt lat="43.37221" lon="6.17076">
        <ele>450.808737</ele>
        <time>2025-04-25T08:39:04.000Z</time>
      </trkpt>
      <trkpt lat="43.37223" lon="6.17074">
        <ele>450.434689</ele>
        <time>2025-04-25T08:39:05.000Z</time>
      </trkpt>
      <trkpt lat="43.37223" lon="6.17074">
        <ele>450.434689</ele>
        <time>2025-04-25T08:39:05.000Z</time>
      </trkpt>
      <trkpt lat="43.37226" lon="6.17071">
        <ele>449.984985</ele>
        <time>2025-04-25T08:39:06.000Z</time>
      </trkpt>
      <trkpt lat="43.37226" lon="6.17071">
        <ele>449.984985</ele>
        <time>2025-04-25T08:39:06.000Z</time>
      </trkpt>
      <trkpt lat="43.37228" lon="6.17068">
        <ele>449.62421</ele>
        <time>2025-04-25T08:39:07.000Z</time>
      </trkpt>
      <trkpt lat="43.37228" lon="6.17068">
        <ele>449.62421</ele>
        <time>2025-04-25T08:39:07.000Z</time>
      </trkpt>
      <trkpt lat="43.3723" lon="6.17065">
        <ele>449.206997</ele>
        <time>2025-04-25T08:39:08.000Z</time>
      </trkpt>
      <trkpt lat="43.3723" lon="6.17065">
        <ele>449.206997</ele>
        <time>2025-04-25T08:39:08.000Z</time>
      </trkpt>
      <trkpt lat="43.37232" lon="6.17062">
        <ele>448.859754</ele>
        <time>2025-04-25T08:39:09.000Z</time>
      </trkpt>
      <trkpt lat="43.37232" lon="6.17062">
        <ele>448.859754</ele>
        <time>2025-04-25T08:39:09.000Z</time>
      </trkpt>
      <trkpt lat="43.37234" lon="6.1706">
        <ele>448.519088</ele>
        <time>2025-04-25T08:39:10.000Z</time>
      </trkpt>
      <trkpt lat="43.37234" lon="6.1706">
        <ele>448.519088</ele>
        <time>2025-04-25T08:39:10.000Z</time>
      </trkpt>
      <trkpt lat="43.37236" lon="6.17057">
        <ele>448.108412</ele>
        <time>2025-04-25T08:39:11.000Z</time>
      </trkpt>
      <trkpt lat="43.37236" lon="6.17057">
        <ele>448.108412</ele>
        <time>2025-04-25T08:39:11.000Z</time>
      </trkpt>
      <trkpt lat="43.37239" lon="6.17053">
        <ele>447.621213</ele>
        <time>2025-04-25T08:39:12.000Z</time>
      </trkpt>
      <trkpt lat="43.37239" lon="6.17053">
        <ele>447.621213</ele>
        <time>2025-04-25T08:39:12.000Z</time>
      </trkpt>
      <trkpt lat="43.37242" lon="6.17049">
        <ele>447.108749</ele>
        <time>2025-04-25T08:39:13.000Z</time>
      </trkpt>
      <trkpt lat="43.37242" lon="6.17049">
        <ele>447.108749</ele>
        <time>2025-04-25T08:39:13.000Z</time>
      </trkpt>
      <trkpt lat="43.37244" lon="6.17045">
        <ele>446.594618</ele>
        <time>2025-04-25T08:39:14.000Z</time>
      </trkpt>
      <trkpt lat="43.37244" lon="6.17045">
        <ele>446.594618</ele>
        <time>2025-04-25T08:39:14.000Z</time>
      </trkpt>
      <trkpt lat="43.37247" lon="6.17041">
        <ele>446.087348</ele>
        <time>2025-04-25T08:39:15.000Z</time>
      </trkpt>
      <trkpt lat="43.37247" lon="6.17041">
        <ele>446.087348</ele>
        <time>2025-04-25T08:39:15.000Z</time>
      </trkpt>
      <trkpt lat="43.3725" lon="6.17038">
        <ele>445.625577</ele>
        <time>2025-04-25T08:39:16.000Z</time>
      </trkpt>
      <trkpt lat="43.3725" lon="6.17038">
        <ele>445.625577</ele>
        <time>2025-04-25T08:39:16.000Z</time>
      </trkpt>
      <trkpt lat="43.37252" lon="6.17035">
        <ele>445.243569</ele>
        <time>2025-04-25T08:39:17.000Z</time>
      </trkpt>
      <trkpt lat="43.37252" lon="6.17035">
        <ele>445.243569</ele>
        <time>2025-04-25T08:39:17.000Z</time>
      </trkpt>
      <trkpt lat="43.37255" lon="6.17033">
        <ele>444.777965</ele>
        <time>2025-04-25T08:39:18.000Z</time>
      </trkpt>
      <trkpt lat="43.37255" lon="6.17033">
        <ele>444.777965</ele>
        <time>2025-04-25T08:39:18.000Z</time>
      </trkpt>
      <trkpt lat="43.37259" lon="6.1703">
        <ele>444.173227</ele>
        <time>2025-04-25T08:39:19.000Z</time>
      </trkpt>
      <trkpt lat="43.37259" lon="6.1703">
        <ele>444.173227</ele>
        <time>2025-04-25T08:39:19.000Z</time>
      </trkpt>
      <trkpt lat="43.37263" lon="6.17028">
        <ele>443.697721</ele>
        <time>2025-04-25T08:39:20.000Z</time>
      </trkpt>
      <trkpt lat="43.37263" lon="6.17028">
        <ele>443.697721</ele>
        <time>2025-04-25T08:39:20.000Z</time>
      </trkpt>
      <trkpt lat="43.37266" lon="6.17026">
        <ele>443.195134</ele>
        <time>2025-04-25T08:39:21.000Z</time>
      </trkpt>
      <trkpt lat="43.37266" lon="6.17026">
        <ele>443.195134</ele>
        <time>2025-04-25T08:39:21.000Z</time>
      </trkpt>
      <trkpt lat="43.37268" lon="6.17024">
        <ele>442.860909</ele>
        <time>2025-04-25T08:39:22.000Z</time>
      </trkpt>
      <trkpt lat="43.37268" lon="6.17024">
        <ele>442.860909</ele>
        <time>2025-04-25T08:39:22.000Z</time>
      </trkpt>
      <trkpt lat="43.3727" lon="6.1702">
        <ele>442.437053</ele>
        <time>2025-04-25T08:39:23.000Z</time>
      </trkpt>
      <trkpt lat="43.3727" lon="6.1702">
        <ele>442.437053</ele>
        <time>2025-04-25T08:39:23.000Z</time>
      </trkpt>
      <trkpt lat="43.37272" lon="6.17018">
        <ele>442.116981</ele>
        <time>2025-04-25T08:39:23.000Z</time>
      </trkpt>
      <trkpt lat="43.37272" lon="6.17018">
        <ele>442.116981</ele>
        <time>2025-04-25T08:39:23.000Z</time>
      </trkpt>
      <trkpt lat="43.37273" lon="6.17015">
        <ele>441.86465</ele>
        <time>2025-04-25T08:39:25.000Z</time>
      </trkpt>
      <trkpt lat="43.37273" lon="6.17015">
        <ele>441.86465</ele>
        <time>2025-04-25T08:39:25.000Z</time>
      </trkpt>
      <trkpt lat="43.37274" lon="6.17012">
        <ele>441.550354</ele>
        <time>2025-04-25T08:39:26.000Z</time>
      </trkpt>
      <trkpt lat="43.37274" lon="6.17012">
        <ele>441.550354</ele>
        <time>2025-04-25T08:39:26.000Z</time>
      </trkpt>
      <trkpt lat="43.37274" lon="6.1701">
        <ele>441.290823</ele>
        <time>2025-04-25T08:39:27.000Z</time>
      </trkpt>
      <trkpt lat="43.37274" lon="6.1701">
        <ele>441.290823</ele>
        <time>2025-04-25T08:39:27.000Z</time>
      </trkpt>
      <trkpt lat="43.37275" lon="6.17006">
        <ele>440.9385</ele>
        <time>2025-04-25T08:39:28.000Z</time>
      </trkpt>
      <trkpt lat="43.37275" lon="6.17006">
        <ele>440.9385</ele>
        <time>2025-04-25T08:39:28.000Z</time>
      </trkpt>
      <trkpt lat="43.37275" lon="6.17003">
        <ele>440.625263</ele>
        <time>2025-04-25T08:39:29.000Z</time>
      </trkpt>
      <trkpt lat="43.37275" lon="6.17003">
        <ele>440.625263</ele>
        <time>2025-04-25T08:39:29.000Z</time>
      </trkpt>
      <trkpt lat="43.37275" lon="6.16999">
        <ele>440.263622</ele>
        <time>2025-04-25T08:39:30.000Z</time>
      </trkpt>
      <trkpt lat="43.37275" lon="6.16999">
        <ele>440.263622</ele>
        <time>2025-04-25T08:39:30.000Z</time>
      </trkpt>
      <trkpt lat="43.37277" lon="6.16994">
        <ele>439.820993</ele>
        <time>2025-04-25T08:39:31.000Z</time>
      </trkpt>
      <trkpt lat="43.37277" lon="6.16994">
        <ele>439.820993</ele>
        <time>2025-04-25T08:39:31.000Z</time>
      </trkpt>
      <trkpt lat="43.37278" lon="6.1699">
        <ele>439.355937</ele>
        <time>2025-04-25T08:39:32.000Z</time>
      </trkpt>
      <trkpt lat="43.37278" lon="6.1699">
        <ele>439.355937</ele>
        <time>2025-04-25T08:39:32.000Z</time>
      </trkpt>
      <trkpt lat="43.37278" lon="6.16985">
        <ele>438.913261</ele>
        <time>2025-04-25T08:39:33.000Z</time>
      </trkpt>
      <trkpt lat="43.37278" lon="6.16985">
        <ele>438.913261</ele>
        <time>2025-04-25T08:39:33.000Z</time>
      </trkpt>
      <trkpt lat="43.37278" lon="6.1698">
        <ele>438.461166</ele>
        <time>2025-04-25T08:39:34.000Z</time>
      </trkpt>
      <trkpt lat="43.37278" lon="6.1698">
        <ele>438.461166</ele>
        <time>2025-04-25T08:39:34.000Z</time>
      </trkpt>
      <trkpt lat="43.37277" lon="6.16975">
        <ele>437.940554</ele>
        <time>2025-04-25T08:39:35.000Z</time>
      </trkpt>
      <trkpt lat="43.37277" lon="6.16975">
        <ele>437.940554</ele>
        <time>2025-04-25T08:39:35.000Z</time>
      </trkpt>
      <trkpt lat="43.37277" lon="6.16969">
        <ele>437.442457</ele>
        <time>2025-04-25T08:39:36.000Z</time>
      </trkpt>
      <trkpt lat="43.37277" lon="6.16969">
        <ele>437.442457</ele>
        <time>2025-04-25T08:39:36.000Z</time>
      </trkpt>
      <trkpt lat="43.37277" lon="6.16964">
        <ele>436.905595</ele>
        <time>2025-04-25T08:39:37.000Z</time>
      </trkpt>
      <trkpt lat="43.37277" lon="6.16964">
        <ele>436.905595</ele>
        <time>2025-04-25T08:39:37.000Z</time>
      </trkpt>
      <trkpt lat="43.37277" lon="6.16959">
        <ele>436.433061</ele>
        <time>2025-04-25T08:39:38.000Z</time>
      </trkpt>
      <trkpt lat="43.37277" lon="6.16959">
        <ele>436.433061</ele>
        <time>2025-04-25T08:39:38.000Z</time>
      </trkpt>
      <trkpt lat="43.37277" lon="6.16955">
        <ele>436.056315</ele>
        <time>2025-04-25T08:39:39.000Z</time>
      </trkpt>
      <trkpt lat="43.37277" lon="6.16955">
        <ele>436.056315</ele>
        <time>2025-04-25T08:39:39.000Z</time>
      </trkpt>
      <trkpt lat="43.37277" lon="6.16951">
        <ele>435.668199</ele>
        <time>2025-04-25T08:39:40.000Z</time>
      </trkpt>
      <trkpt lat="43.37277" lon="6.16951">
        <ele>435.668199</ele>
        <time>2025-04-25T08:39:40.000Z</time>
      </trkpt>
      <trkpt lat="43.37277" lon="6.16947">
        <ele>435.280084</ele>
        <time>2025-04-25T08:39:41.000Z</time>
      </trkpt>
      <trkpt lat="43.37277" lon="6.16947">
        <ele>435.280084</ele>
        <time>2025-04-25T08:39:41.000Z</time>
      </trkpt>
      <trkpt lat="43.37277" lon="6.16943">
        <ele>434.955683</ele>
        <time>2025-04-25T08:39:42.000Z</time>
      </trkpt>
      <trkpt lat="43.37277" lon="6.16943">
        <ele>434.955683</ele>
        <time>2025-04-25T08:39:42.000Z</time>
      </trkpt>
      <trkpt lat="43.37278" lon="6.16939">
        <ele>434.592103</ele>
        <time>2025-04-25T08:39:43.000Z</time>
      </trkpt>
      <trkpt lat="43.37278" lon="6.16939">
        <ele>434.592103</ele>
        <time>2025-04-25T08:39:43.000Z</time>
      </trkpt>
      <trkpt lat="43.37278" lon="6.16939">
        <ele>434.592103</ele>
        <time>2025-04-25T08:39:44.000Z</time>
      </trkpt>
      <trkpt lat="43.3728" lon="6.16933">
        <ele>433.932246</ele>
        <time>2025-04-25T08:39:45.000Z</time>
      </trkpt>
      <trkpt lat="43.3728" lon="6.16933">
        <ele>433.932246</ele>
        <time>2025-04-25T08:39:45.000Z</time>
      </trkpt>
      <trkpt lat="43.3728" lon="6.16931">
        <ele>433.727777</ele>
        <time>2025-04-25T08:39:46.000Z</time>
      </trkpt>
      <trkpt lat="43.3728" lon="6.16931">
        <ele>433.727777</ele>
        <time>2025-04-25T08:39:46.000Z</time>
      </trkpt>
      <trkpt lat="43.37281" lon="6.16928">
        <ele>433.403998</ele>
        <time>2025-04-25T08:39:47.000Z</time>
      </trkpt>
      <trkpt lat="43.37281" lon="6.16928">
        <ele>433.403998</ele>
        <time>2025-04-25T08:39:47.000Z</time>
      </trkpt>
      <trkpt lat="43.37282" lon="6.16924">
        <ele>433.005118</ele>
        <time>2025-04-25T08:39:48.000Z</time>
      </trkpt>
      <trkpt lat="43.37282" lon="6.16924">
        <ele>433.005118</ele>
        <time>2025-04-25T08:39:48.000Z</time>
      </trkpt>
      <trkpt lat="43.37284" lon="6.1692">
        <ele>432.606094</ele>
        <time>2025-04-25T08:39:49.000Z</time>
      </trkpt>
      <trkpt lat="43.37284" lon="6.1692">
        <ele>432.606094</ele>
        <time>2025-04-25T08:39:49.000Z</time>
      </trkpt>
      <trkpt lat="43.37286" lon="6.16916">
        <ele>432.154671</ele>
        <time>2025-04-25T08:39:50.000Z</time>
      </trkpt>
      <trkpt lat="43.37286" lon="6.16916">
        <ele>432.154671</ele>
        <time>2025-04-25T08:39:50.000Z</time>
      </trkpt>
      <trkpt lat="43.37288" lon="6.16914">
        <ele>431.842031</ele>
        <time>2025-04-25T08:39:50.000Z</time>
      </trkpt>
      <trkpt lat="43.37288" lon="6.16914">
        <ele>431.842031</ele>
        <time>2025-04-25T08:39:50.000Z</time>
      </trkpt>
      <trkpt lat="43.37288" lon="6.16911">
        <ele>431.568891</ele>
        <time>2025-04-25T08:39:52.000Z</time>
      </trkpt>
      <trkpt lat="43.37288" lon="6.16911">
        <ele>431.568891</ele>
        <time>2025-04-25T08:39:52.000Z</time>
      </trkpt>
      <trkpt lat="43.37288" lon="6.16908">
        <ele>431.30936</ele>
        <time>2025-04-25T08:39:53.000Z</time>
      </trkpt>
      <trkpt lat="43.37288" lon="6.16908">
        <ele>431.30936</ele>
        <time>2025-04-25T08:39:53.000Z</time>
      </trkpt>
      <trkpt lat="43.37288" lon="6.16906">
        <ele>431.104891</ele>
        <time>2025-04-25T08:39:54.000Z</time>
      </trkpt>
      <trkpt lat="43.37288" lon="6.16906">
        <ele>431.104891</ele>
        <time>2025-04-25T08:39:54.000Z</time>
      </trkpt>
      <trkpt lat="43.37289" lon="6.16903">
        <ele>430.780491</ele>
        <time>2025-04-25T08:39:55.000Z</time>
      </trkpt>
      <trkpt lat="43.37289" lon="6.16903">
        <ele>430.780491</ele>
        <time>2025-04-25T08:39:55.000Z</time>
      </trkpt>
      <trkpt lat="43.37289" lon="6.169">
        <ele>430.492685</ele>
        <time>2025-04-25T08:39:56.000Z</time>
      </trkpt>
      <trkpt lat="43.37289" lon="6.169">
        <ele>430.492685</ele>
        <time>2025-04-25T08:39:56.000Z</time>
      </trkpt>
      <trkpt lat="43.3729" lon="6.16896">
        <ele>430.093722</ele>
        <time>2025-04-25T08:39:57.000Z</time>
      </trkpt>
      <trkpt lat="43.3729" lon="6.16896">
        <ele>430.093722</ele>
        <time>2025-04-25T08:39:57.000Z</time>
      </trkpt>
      <trkpt lat="43.37291" lon="6.16891">
        <ele>429.677431</ele>
        <time>2025-04-25T08:39:58.000Z</time>
      </trkpt>
      <trkpt lat="43.37292" lon="6.16888">
        <ele>429.336499</ele>
        <time>2025-04-25T08:39:59.000Z</time>
      </trkpt>
      <trkpt lat="43.37292" lon="6.16888">
        <ele>429.336499</ele>
        <time>2025-04-25T08:39:59.000Z</time>
      </trkpt>
      <trkpt lat="43.37293" lon="6.16883">
        <ele>428.933204</ele>
        <time>2025-04-25T08:40:00.000Z</time>
      </trkpt>
      <trkpt lat="43.37293" lon="6.16883">
        <ele>428.933204</ele>
        <time>2025-04-25T08:40:00.000Z</time>
      </trkpt>
      <trkpt lat="43.37294" lon="6.16878">
        <ele>428.517169</ele>
        <time>2025-04-25T08:40:01.000Z</time>
      </trkpt>
      <trkpt lat="43.37296" lon="6.16874">
        <ele>428.101857</ele>
        <time>2025-04-25T08:40:02.000Z</time>
      </trkpt>
      <trkpt lat="43.37296" lon="6.16874">
        <ele>428.101857</ele>
        <time>2025-04-25T08:40:02.000Z</time>
      </trkpt>
      <trkpt lat="43.37297" lon="6.1687">
        <ele>427.732312</ele>
        <time>2025-04-25T08:40:03.000Z</time>
      </trkpt>
      <trkpt lat="43.37297" lon="6.1687">
        <ele>427.732312</ele>
        <time>2025-04-25T08:40:03.000Z</time>
      </trkpt>
      <trkpt lat="43.37299" lon="6.16865">
        <ele>427.277929</ele>
        <time>2025-04-25T08:40:04.000Z</time>
      </trkpt>
      <trkpt lat="43.37303" lon="6.1686">
        <ele>426.716894</ele>
        <time>2025-04-25T08:40:05.000Z</time>
      </trkpt>
      <trkpt lat="43.37303" lon="6.1686">
        <ele>426.716894</ele>
        <time>2025-04-25T08:40:05.000Z</time>
      </trkpt>
      <trkpt lat="43.37307" lon="6.16856">
        <ele>426.066418</ele>
        <time>2025-04-25T08:40:06.000Z</time>
      </trkpt>
      <trkpt lat="43.37307" lon="6.16856">
        <ele>426.066418</ele>
        <time>2025-04-25T08:40:06.000Z</time>
      </trkpt>
      <trkpt lat="43.37315" lon="6.16843">
        <ele>424.727988</ele>
        <time>2025-04-25T08:40:08.000Z</time>
      </trkpt>
      <trkpt lat="43.37315" lon="6.16843">
        <ele>424.727988</ele>
        <time>2025-04-25T08:40:08.000Z</time>
      </trkpt>
      <trkpt lat="43.37317" lon="6.16839">
        <ele>424.313565</ele>
        <time>2025-04-25T08:40:09.000Z</time>
      </trkpt>
      <trkpt lat="43.37317" lon="6.16839">
        <ele>424.313565</ele>
        <time>2025-04-25T08:40:09.000Z</time>
      </trkpt>
      <trkpt lat="43.3732" lon="6.16833">
        <ele>423.761107</ele>
        <time>2025-04-25T08:40:10.000Z</time>
      </trkpt>
      <trkpt lat="43.3732" lon="6.16833">
        <ele>423.761107</ele>
        <time>2025-04-25T08:40:10.000Z</time>
      </trkpt>
      <trkpt lat="43.37322" lon="6.16827">
        <ele>423.179351</ele>
        <time>2025-04-25T08:40:11.000Z</time>
      </trkpt>
      <trkpt lat="43.37322" lon="6.16827">
        <ele>423.179351</ele>
        <time>2025-04-25T08:40:11.000Z</time>
      </trkpt>
      <trkpt lat="43.37324" lon="6.16822">
        <ele>422.728338</ele>
        <time>2025-04-25T08:40:12.000Z</time>
      </trkpt>
      <trkpt lat="43.37324" lon="6.16822">
        <ele>422.728338</ele>
        <time>2025-04-25T08:40:12.000Z</time>
      </trkpt>
      <trkpt lat="43.37325" lon="6.16818">
        <ele>422.328737</ele>
        <time>2025-04-25T08:40:13.000Z</time>
      </trkpt>
      <trkpt lat="43.37325" lon="6.16818">
        <ele>422.328737</ele>
        <time>2025-04-25T08:40:13.000Z</time>
      </trkpt>
      <trkpt lat="43.37325" lon="6.16818">
        <ele>422.328737</ele>
        <time>2025-04-25T08:40:14.000Z</time>
      </trkpt>
      <trkpt lat="43.37325" lon="6.16818">
        <ele>422.328737</ele>
        <time>2025-04-25T08:40:15.000Z</time>
      </trkpt>
      <trkpt lat="43.37325" lon="6.16818">
        <ele>422.328737</ele>
        <time>2025-04-25T08:40:17.000Z</time>
      </trkpt>
      <trkpt lat="43.37326" lon="6.16814">
        <ele>421.994404</ele>
        <time>2025-04-25T08:40:20.000Z</time>
      </trkpt>
      <trkpt lat="43.37326" lon="6.16814">
        <ele>421.994404</ele>
        <time>2025-04-25T08:40:20.000Z</time>
      </trkpt>
      <trkpt lat="43.37326" lon="6.16814">
        <ele>421.994404</ele>
        <time>2025-04-25T08:40:20.000Z</time>
      </trkpt>
      <trkpt lat="43.37326" lon="6.16813">
        <ele>421.892908</ele>
        <time>2025-04-25T08:40:22.000Z</time>
      </trkpt>
      <trkpt lat="43.37326" lon="6.16813">
        <ele>421.892908</ele>
        <time>2025-04-25T08:40:22.000Z</time>
      </trkpt>
      <trkpt lat="43.37325" lon="6.16812">
        <ele>421.77559</ele>
        <time>2025-04-25T08:40:23.000Z</time>
      </trkpt>
      <trkpt lat="43.37325" lon="6.16812">
        <ele>421.77559</ele>
        <time>2025-04-25T08:40:23.000Z</time>
      </trkpt>
      <trkpt lat="43.37324" lon="6.1681">
        <ele>421.599763</ele>
        <time>2025-04-25T08:40:23.000Z</time>
      </trkpt>
      <trkpt lat="43.37323" lon="6.16809">
        <ele>421.40422</ele>
        <time>2025-04-25T08:40:25.000Z</time>
      </trkpt>
      <trkpt lat="43.37323" lon="6.16809">
        <ele>421.40422</ele>
        <time>2025-04-25T08:40:26.000Z</time>
      </trkpt>
      <trkpt lat="43.3732" lon="6.16805">
        <ele>420.983074</ele>
        <time>2025-04-25T08:40:26.000Z</time>
      </trkpt>
      <trkpt lat="43.37319" lon="6.16804">
        <ele>420.833397</ele>
        <time>2025-04-25T08:40:28.000Z</time>
      </trkpt>
      <trkpt lat="43.37317" lon="6.16801">
        <ele>420.517312</ele>
        <time>2025-04-25T08:40:30.000Z</time>
      </trkpt>
      <trkpt lat="43.37315" lon="6.16798">
        <ele>420.19614</ele>
        <time>2025-04-25T08:40:32.000Z</time>
      </trkpt>
      <trkpt lat="43.37315" lon="6.16798">
        <ele>420.19614</ele>
        <time>2025-04-25T08:40:32.000Z</time>
      </trkpt>
      <trkpt lat="43.37314" lon="6.16796">
        <ele>419.941995</ele>
        <time>2025-04-25T08:40:35.000Z</time>
      </trkpt>
      <trkpt lat="43.37314" lon="6.16795">
        <ele>419.833227</ele>
        <time>2025-04-25T08:40:36.000Z</time>
      </trkpt>
      <trkpt lat="43.37313" lon="6.16793">
        <ele>419.679705</ele>
        <time>2025-04-25T08:40:36.000Z</time>
      </trkpt>
      <trkpt lat="43.37312" lon="6.16791">
        <ele>419.484058</ele>
        <time>2025-04-25T08:40:38.000Z</time>
      </trkpt>
      <trkpt lat="43.37312" lon="6.16788">
        <ele>419.261256</ele>
        <time>2025-04-25T08:40:39.000Z</time>
      </trkpt>
      <trkpt lat="43.37312" lon="6.16788">
        <ele>419.261256</ele>
        <time>2025-04-25T08:40:39.000Z</time>
      </trkpt>
      <trkpt lat="43.37312" lon="6.16785">
        <ele>418.970437</ele>
        <time>2025-04-25T08:40:40.000Z</time>
      </trkpt>
      <trkpt lat="43.37312" lon="6.16781">
        <ele>418.671422</ele>
        <time>2025-04-25T08:40:41.000Z</time>
      </trkpt>
      <trkpt lat="43.37312" lon="6.16781">
        <ele>418.671422</ele>
        <time>2025-04-25T08:40:41.000Z</time>
      </trkpt>
      <trkpt lat="43.37312" lon="6.16777">
        <ele>418.308337</ele>
        <time>2025-04-25T08:40:42.000Z</time>
      </trkpt>
      <trkpt lat="43.37312" lon="6.16777">
        <ele>418.308337</ele>
        <time>2025-04-25T08:40:42.000Z</time>
      </trkpt>
      <trkpt lat="43.37313" lon="6.16771">
        <ele>417.845483</ele>
        <time>2025-04-25T08:40:43.000Z</time>
      </trkpt>
      <trkpt lat="43.37313" lon="6.16771">
        <ele>417.845483</ele>
        <time>2025-04-25T08:40:43.000Z</time>
      </trkpt>
      <trkpt lat="43.37314" lon="6.16766">
        <ele>417.422295</ele>
        <time>2025-04-25T08:40:44.000Z</time>
      </trkpt>
      <trkpt lat="43.37314" lon="6.16766">
        <ele>417.422295</ele>
        <time>2025-04-25T08:40:44.000Z</time>
      </trkpt>
      <trkpt lat="43.37315" lon="6.16761">
        <ele>416.975613</ele>
        <time>2025-04-25T08:40:45.000Z</time>
      </trkpt>
      <trkpt lat="43.37315" lon="6.16761">
        <ele>416.975613</ele>
        <time>2025-04-25T08:40:45.000Z</time>
      </trkpt>
      <trkpt lat="43.37315" lon="6.16756">
        <ele>416.51276</ele>
        <time>2025-04-25T08:40:46.000Z</time>
      </trkpt>
      <trkpt lat="43.37315" lon="6.16756">
        <ele>416.51276</ele>
        <time>2025-04-25T08:40:46.000Z</time>
      </trkpt>
      <trkpt lat="43.37316" lon="6.1675">
        <ele>416.035734</ele>
        <time>2025-04-25T08:40:47.000Z</time>
      </trkpt>
      <trkpt lat="43.37316" lon="6.1675">
        <ele>416.035734</ele>
        <time>2025-04-25T08:40:47.000Z</time>
      </trkpt>
      <trkpt lat="43.37317" lon="6.16746">
        <ele>415.694371</ele>
        <time>2025-04-25T08:40:48.000Z</time>
      </trkpt>
      <trkpt lat="43.37317" lon="6.16746">
        <ele>415.694371</ele>
        <time>2025-04-25T08:40:48.000Z</time>
      </trkpt>
      <trkpt lat="43.37318" lon="6.16741">
        <ele>415.298835</ele>
        <time>2025-04-25T08:40:49.000Z</time>
      </trkpt>
      <trkpt lat="43.37318" lon="6.16741">
        <ele>415.298835</ele>
        <time>2025-04-25T08:40:49.000Z</time>
      </trkpt>
      <trkpt lat="43.37318" lon="6.16737">
        <ele>414.919091</ele>
        <time>2025-04-25T08:40:50.000Z</time>
      </trkpt>
      <trkpt lat="43.37318" lon="6.16737">
        <ele>414.919091</ele>
        <time>2025-04-25T08:40:50.000Z</time>
      </trkpt>
      <trkpt lat="43.37319" lon="6.16731">
        <ele>414.464327</ele>
        <time>2025-04-25T08:40:51.000Z</time>
      </trkpt>
      <trkpt lat="43.37319" lon="6.16731">
        <ele>414.464327</ele>
        <time>2025-04-25T08:40:51.000Z</time>
      </trkpt>
      <trkpt lat="43.3732" lon="6.16726">
        <ele>413.961704</ele>
        <time>2025-04-25T08:40:52.000Z</time>
      </trkpt>
      <trkpt lat="43.3732" lon="6.16726">
        <ele>413.961704</ele>
        <time>2025-04-25T08:40:52.000Z</time>
      </trkpt>
      <trkpt lat="43.37322" lon="6.1672">
        <ele>413.466642</ele>
        <time>2025-04-25T08:40:53.000Z</time>
      </trkpt>
      <trkpt lat="43.37322" lon="6.1672">
        <ele>413.466642</ele>
        <time>2025-04-25T08:40:53.000Z</time>
      </trkpt>
      <trkpt lat="43.37323" lon="6.16715">
        <ele>413.016437</ele>
        <time>2025-04-25T08:40:54.000Z</time>
      </trkpt>
      <trkpt lat="43.37323" lon="6.16715">
        <ele>413.016437</ele>
        <time>2025-04-25T08:40:54.000Z</time>
      </trkpt>
      <trkpt lat="43.37324" lon="6.1671">
        <ele>412.62054</ele>
        <time>2025-04-25T08:40:55.000Z</time>
      </trkpt>
      <trkpt lat="43.37324" lon="6.1671">
        <ele>412.62054</ele>
        <time>2025-04-25T08:40:55.000Z</time>
      </trkpt>
      <trkpt lat="43.37325" lon="6.16706">
        <ele>412.230238</ele>
        <time>2025-04-25T08:40:56.000Z</time>
      </trkpt>
      <trkpt lat="43.37325" lon="6.16706">
        <ele>412.230238</ele>
        <time>2025-04-25T08:40:56.000Z</time>
      </trkpt>
      <trkpt lat="43.37325" lon="6.16703">
        <ele>411.978551</ele>
        <time>2025-04-25T08:40:57.000Z</time>
      </trkpt>
      <trkpt lat="43.37325" lon="6.16703">
        <ele>411.978551</ele>
        <time>2025-04-25T08:40:57.000Z</time>
      </trkpt>
      <trkpt lat="43.37326" lon="6.16699">
        <ele>411.636208</ele>
        <time>2025-04-25T08:40:58.000Z</time>
      </trkpt>
      <trkpt lat="43.37326" lon="6.16699">
        <ele>411.636208</ele>
        <time>2025-04-25T08:40:58.000Z</time>
      </trkpt>
      <trkpt lat="43.37327" lon="6.16694">
        <ele>411.280634</ele>
        <time>2025-04-25T08:40:59.000Z</time>
      </trkpt>
      <trkpt lat="43.37327" lon="6.16694">
        <ele>411.280634</ele>
        <time>2025-04-25T08:40:59.000Z</time>
      </trkpt>
      <trkpt lat="43.37327" lon="6.1669">
        <ele>410.947449</ele>
        <time>2025-04-25T08:41:00.000Z</time>
      </trkpt>
      <trkpt lat="43.37327" lon="6.1669">
        <ele>410.947449</ele>
        <time>2025-04-25T08:41:00.000Z</time>
      </trkpt>
      <trkpt lat="43.37328" lon="6.16686">
        <ele>410.565169</ele>
        <time>2025-04-25T08:41:01.000Z</time>
      </trkpt>
      <trkpt lat="43.37328" lon="6.16686">
        <ele>410.565169</ele>
        <time>2025-04-25T08:41:01.000Z</time>
      </trkpt>
      <trkpt lat="43.37329" lon="6.16681">
        <ele>410.15309</ele>
        <time>2025-04-25T08:41:02.000Z</time>
      </trkpt>
      <trkpt lat="43.37329" lon="6.16681">
        <ele>410.15309</ele>
        <time>2025-04-25T08:41:02.000Z</time>
      </trkpt>
      <trkpt lat="43.37329" lon="6.16676">
        <ele>409.738003</ele>
        <time>2025-04-25T08:41:03.000Z</time>
      </trkpt>
      <trkpt lat="43.37329" lon="6.16676">
        <ele>409.738003</ele>
        <time>2025-04-25T08:41:03.000Z</time>
      </trkpt>
      <trkpt lat="43.3733" lon="6.16671">
        <ele>409.28324</ele>
        <time>2025-04-25T08:41:04.000Z</time>
      </trkpt>
      <trkpt lat="43.3733" lon="6.16671">
        <ele>409.28324</ele>
        <time>2025-04-25T08:41:04.000Z</time>
      </trkpt>
      <trkpt lat="43.37331" lon="6.16665">
        <ele>408.754064</ele>
        <time>2025-04-25T08:41:05.000Z</time>
      </trkpt>
      <trkpt lat="43.37331" lon="6.16665">
        <ele>408.754064</ele>
        <time>2025-04-25T08:41:05.000Z</time>
      </trkpt>
      <trkpt lat="43.37332" lon="6.16659">
        <ele>408.181763</ele>
        <time>2025-04-25T08:41:06.000Z</time>
      </trkpt>
      <trkpt lat="43.37332" lon="6.16659">
        <ele>408.181763</ele>
        <time>2025-04-25T08:41:06.000Z</time>
      </trkpt>
      <trkpt lat="43.37333" lon="6.16653">
        <ele>407.631984</ele>
        <time>2025-04-25T08:41:07.000Z</time>
      </trkpt>
      <trkpt lat="43.37333" lon="6.16653">
        <ele>407.631984</ele>
        <time>2025-04-25T08:41:07.000Z</time>
      </trkpt>
      <trkpt lat="43.37333" lon="6.16647">
        <ele>407.034763</ele>
        <time>2025-04-25T08:41:08.000Z</time>
      </trkpt>
      <trkpt lat="43.37333" lon="6.16647">
        <ele>407.034763</ele>
        <time>2025-04-25T08:41:08.000Z</time>
      </trkpt>
      <trkpt lat="43.37334" lon="6.16641">
        <ele>406.491843</ele>
        <time>2025-04-25T08:41:09.000Z</time>
      </trkpt>
      <trkpt lat="43.37334" lon="6.16641">
        <ele>406.491843</ele>
        <time>2025-04-25T08:41:09.000Z</time>
      </trkpt>
      <trkpt lat="43.37335" lon="6.16636">
        <ele>406.023563</ele>
        <time>2025-04-25T08:41:10.000Z</time>
      </trkpt>
      <trkpt lat="43.37335" lon="6.16636">
        <ele>406.023563</ele>
        <time>2025-04-25T08:41:10.000Z</time>
      </trkpt>
      <trkpt lat="43.37336" lon="6.16631">
        <ele>405.534747</ele>
        <time>2025-04-25T08:41:11.000Z</time>
      </trkpt>
      <trkpt lat="43.37336" lon="6.16631">
        <ele>405.534747</ele>
        <time>2025-04-25T08:41:11.000Z</time>
      </trkpt>
      <trkpt lat="43.37336" lon="6.16625">
        <ele>405.054924</ele>
        <time>2025-04-25T08:41:12.000Z</time>
      </trkpt>
      <trkpt lat="43.37336" lon="6.16625">
        <ele>405.054924</ele>
        <time>2025-04-25T08:41:12.000Z</time>
      </trkpt>
      <trkpt lat="43.37337" lon="6.1662">
        <ele>404.55686</ele>
        <time>2025-04-25T08:41:13.000Z</time>
      </trkpt>
      <trkpt lat="43.37337" lon="6.1662">
        <ele>404.55686</ele>
        <time>2025-04-25T08:41:13.000Z</time>
      </trkpt>
      <trkpt lat="43.37337" lon="6.16615">
        <ele>404.112533</ele>
        <time>2025-04-25T08:41:14.000Z</time>
      </trkpt>
      <trkpt lat="43.37337" lon="6.16615">
        <ele>404.112533</ele>
        <time>2025-04-25T08:41:14.000Z</time>
      </trkpt>
      <trkpt lat="43.37338" lon="6.1661">
        <ele>403.623717</ele>
        <time>2025-04-25T08:41:15.000Z</time>
      </trkpt>
      <trkpt lat="43.37338" lon="6.1661">
        <ele>403.623717</ele>
        <time>2025-04-25T08:41:15.000Z</time>
      </trkpt>
      <trkpt lat="43.37339" lon="6.16606">
        <ele>403.227438</ele>
        <time>2025-04-25T08:41:16.000Z</time>
      </trkpt>
      <trkpt lat="43.37339" lon="6.16606">
        <ele>403.227438</ele>
        <time>2025-04-25T08:41:16.000Z</time>
      </trkpt>
      <trkpt lat="43.37339" lon="6.16601">
        <ele>402.819636</ele>
        <time>2025-04-25T08:41:17.000Z</time>
      </trkpt>
      <trkpt lat="43.37339" lon="6.16601">
        <ele>402.819636</ele>
        <time>2025-04-25T08:41:17.000Z</time>
      </trkpt>
      <trkpt lat="43.3734" lon="6.16598">
        <ele>402.490979</ele>
        <time>2025-04-25T08:41:18.000Z</time>
      </trkpt>
      <trkpt lat="43.3734" lon="6.16598">
        <ele>402.490979</ele>
        <time>2025-04-25T08:41:18.000Z</time>
      </trkpt>
      <trkpt lat="43.37341" lon="6.16595">
        <ele>402.22735</ele>
        <time>2025-04-25T08:41:19.000Z</time>
      </trkpt>
      <trkpt lat="43.37341" lon="6.16595">
        <ele>402.22735</ele>
        <time>2025-04-25T08:41:19.000Z</time>
      </trkpt>
      <trkpt lat="43.37341" lon="6.16595">
        <ele>402.22735</ele>
        <time>2025-04-25T08:41:20.000Z</time>
      </trkpt>
      <trkpt lat="43.37341" lon="6.16595">
        <ele>402.22735</ele>
        <time>2025-04-25T08:41:21.000Z</time>
      </trkpt>
      <trkpt lat="43.37342" lon="6.16593">
        <ele>401.959936</ele>
        <time>2025-04-25T08:41:33.000Z</time>
      </trkpt>
      <trkpt lat="43.37342" lon="6.16593">
        <ele>401.959936</ele>
        <time>2025-04-25T08:41:33.000Z</time>
      </trkpt>
      <trkpt lat="43.37342" lon="6.16593">
        <ele>401.959936</ele>
        <time>2025-04-25T08:41:34.000Z</time>
      </trkpt>
      <trkpt lat="43.37345" lon="6.1659">
        <ele>401.479654</ele>
        <time>2025-04-25T08:41:35.000Z</time>
      </trkpt>
      <trkpt lat="43.37345" lon="6.1659">
        <ele>401.479654</ele>
        <time>2025-04-25T08:41:35.000Z</time>
      </trkpt>
      <trkpt lat="43.37346" lon="6.16588">
        <ele>401.211511</ele>
        <time>2025-04-25T08:41:36.000Z</time>
      </trkpt>
      <trkpt lat="43.37346" lon="6.16588">
        <ele>401.211511</ele>
        <time>2025-04-25T08:41:36.000Z</time>
      </trkpt>
      <trkpt lat="43.37347" lon="6.16583">
        <ele>400.809588</ele>
        <time>2025-04-25T08:41:37.000Z</time>
      </trkpt>
      <trkpt lat="43.37347" lon="6.16583">
        <ele>400.809588</ele>
        <time>2025-04-25T08:41:37.000Z</time>
      </trkpt>
      <trkpt lat="43.37348" lon="6.16578">
        <ele>400.299072</ele>
        <time>2025-04-25T08:41:38.000Z</time>
      </trkpt>
      <trkpt lat="43.37348" lon="6.16578">
        <ele>400.299072</ele>
        <time>2025-04-25T08:41:38.000Z</time>
      </trkpt>
      <trkpt lat="43.37349" lon="6.16572">
        <ele>399.721076</ele>
        <time>2025-04-25T08:41:39.000Z</time>
      </trkpt>
      <trkpt lat="43.37349" lon="6.16572">
        <ele>399.721076</ele>
        <time>2025-04-25T08:41:39.000Z</time>
      </trkpt>
      <trkpt lat="43.37351" lon="6.16566">
        <ele>399.127614</ele>
        <time>2025-04-25T08:41:40.000Z</time>
      </trkpt>
      <trkpt lat="43.37351" lon="6.16566">
        <ele>399.127614</ele>
        <time>2025-04-25T08:41:40.000Z</time>
      </trkpt>
      <trkpt lat="43.37354" lon="6.1656">
        <ele>398.439118</ele>
        <time>2025-04-25T08:41:41.000Z</time>
      </trkpt>
      <trkpt lat="43.37354" lon="6.1656">
        <ele>398.439118</ele>
        <time>2025-04-25T08:41:41.000Z</time>
      </trkpt>
      <trkpt lat="43.37357" lon="6.16553">
        <ele>397.715427</ele>
        <time>2025-04-25T08:41:42.000Z</time>
      </trkpt>
      <trkpt lat="43.37357" lon="6.16553">
        <ele>397.715427</ele>
        <time>2025-04-25T08:41:42.000Z</time>
      </trkpt>
      <trkpt lat="43.3736" lon="6.16546">
        <ele>396.978514</ele>
        <time>2025-04-25T08:41:43.000Z</time>
      </trkpt>
      <trkpt lat="43.3736" lon="6.16546">
        <ele>396.978514</ele>
        <time>2025-04-25T08:41:43.000Z</time>
      </trkpt>
      <trkpt lat="43.37362" lon="6.1654">
        <ele>396.370902</ele>
        <time>2025-04-25T08:41:44.000Z</time>
      </trkpt>
      <trkpt lat="43.37362" lon="6.1654">
        <ele>396.370902</ele>
        <time>2025-04-25T08:41:44.000Z</time>
      </trkpt>
      <trkpt lat="43.37363" lon="6.16536">
        <ele>395.948778</ele>
        <time>2025-04-25T08:41:45.000Z</time>
      </trkpt>
      <trkpt lat="43.37363" lon="6.16536">
        <ele>395.948778</ele>
        <time>2025-04-25T08:41:45.000Z</time>
      </trkpt>
      <trkpt lat="43.37364" lon="6.16533">
        <ele>395.637569</ele>
        <time>2025-04-25T08:41:46.000Z</time>
      </trkpt>
      <trkpt lat="43.37364" lon="6.16533">
        <ele>395.637569</ele>
        <time>2025-04-25T08:41:46.000Z</time>
      </trkpt>
      <trkpt lat="43.37363" lon="6.1653">
        <ele>395.343693</ele>
        <time>2025-04-25T08:41:47.000Z</time>
      </trkpt>
      <trkpt lat="43.37363" lon="6.1653">
        <ele>395.343693</ele>
        <time>2025-04-25T08:41:47.000Z</time>
      </trkpt>
      <trkpt lat="43.37363" lon="6.16527">
        <ele>395.113779</ele>
        <time>2025-04-25T08:41:48.000Z</time>
      </trkpt>
      <trkpt lat="43.37363" lon="6.16527">
        <ele>395.113779</ele>
        <time>2025-04-25T08:41:48.000Z</time>
      </trkpt>
      <trkpt lat="43.37363" lon="6.16525">
        <ele>394.874669</ele>
        <time>2025-04-25T08:41:49.000Z</time>
      </trkpt>
      <trkpt lat="43.37363" lon="6.1652">
        <ele>394.470022</ele>
        <time>2025-04-25T08:41:50.000Z</time>
      </trkpt>
      <trkpt lat="43.37363" lon="6.1652">
        <ele>394.470022</ele>
        <time>2025-04-25T08:41:50.000Z</time>
      </trkpt>
      <trkpt lat="43.37363" lon="6.16516">
        <ele>394.037784</ele>
        <time>2025-04-25T08:41:51.000Z</time>
      </trkpt>
      <trkpt lat="43.37363" lon="6.16516">
        <ele>394.037784</ele>
        <time>2025-04-25T08:41:51.000Z</time>
      </trkpt>
      <trkpt lat="43.37364" lon="6.16511">
        <ele>393.648228</ele>
        <time>2025-04-25T08:41:52.000Z</time>
      </trkpt>
      <trkpt lat="43.37364" lon="6.16508">
        <ele>393.295114</ele>
        <time>2025-04-25T08:41:53.000Z</time>
      </trkpt>
      <trkpt lat="43.37364" lon="6.16508">
        <ele>393.295114</ele>
        <time>2025-04-25T08:41:53.000Z</time>
      </trkpt>
      <trkpt lat="43.37365" lon="6.16504">
        <ele>392.918954</ele>
        <time>2025-04-25T08:41:54.000Z</time>
      </trkpt>
      <trkpt lat="43.37367" lon="6.165">
        <ele>392.517218</ele>
        <time>2025-04-25T08:41:55.000Z</time>
      </trkpt>
      <trkpt lat="43.37367" lon="6.165">
        <ele>392.517218</ele>
        <time>2025-04-25T08:41:55.000Z</time>
      </trkpt>
      <trkpt lat="43.3737" lon="6.16496">
        <ele>392.06246</ele>
        <time>2025-04-25T08:41:56.000Z</time>
      </trkpt>
      <trkpt lat="43.3737" lon="6.16496">
        <ele>392.06246</ele>
        <time>2025-04-25T08:41:56.000Z</time>
      </trkpt>
      <trkpt lat="43.37373" lon="6.16493">
        <ele>391.555081</ele>
        <time>2025-04-25T08:41:57.000Z</time>
      </trkpt>
      <trkpt lat="43.37373" lon="6.16493">
        <ele>391.555081</ele>
        <time>2025-04-25T08:41:57.000Z</time>
      </trkpt>
      <trkpt lat="43.37376" lon="6.1649">
        <ele>391.023281</ele>
        <time>2025-04-25T08:41:58.000Z</time>
      </trkpt>
      <trkpt lat="43.37376" lon="6.1649">
        <ele>391.023281</ele>
        <time>2025-04-25T08:41:58.000Z</time>
      </trkpt>
      <trkpt lat="43.3738" lon="6.16486">
        <ele>390.423463</ele>
        <time>2025-04-25T08:41:59.000Z</time>
      </trkpt>
      <trkpt lat="43.3738" lon="6.16486">
        <ele>390.423463</ele>
        <time>2025-04-25T08:41:59.000Z</time>
      </trkpt>
      <trkpt lat="43.37384" lon="6.16482">
        <ele>389.802464</ele>
        <time>2025-04-25T08:42:00.000Z</time>
      </trkpt>
      <trkpt lat="43.37384" lon="6.16482">
        <ele>389.802464</ele>
        <time>2025-04-25T08:42:00.000Z</time>
      </trkpt>
      <trkpt lat="43.37388" lon="6.16478">
        <ele>389.228957</ele>
        <time>2025-04-25T08:42:01.000Z</time>
      </trkpt>
      <trkpt lat="43.37388" lon="6.16478">
        <ele>389.228957</ele>
        <time>2025-04-25T08:42:01.000Z</time>
      </trkpt>
      <trkpt lat="43.37392" lon="6.16477">
        <ele>388.597591</ele>
        <time>2025-04-25T08:42:02.000Z</time>
      </trkpt>
      <trkpt lat="43.37392" lon="6.16477">
        <ele>388.597591</ele>
        <time>2025-04-25T08:42:02.000Z</time>
      </trkpt>
      <trkpt lat="43.37397" lon="6.16476">
        <ele>388.008383</ele>
        <time>2025-04-25T08:42:03.000Z</time>
      </trkpt>
      <trkpt lat="43.37397" lon="6.16476">
        <ele>388.008383</ele>
        <time>2025-04-25T08:42:03.000Z</time>
      </trkpt>
      <trkpt lat="43.37401" lon="6.16474">
        <ele>387.50283</ele>
        <time>2025-04-25T08:42:04.000Z</time>
      </trkpt>
      <trkpt lat="43.37401" lon="6.16474">
        <ele>387.50283</ele>
        <time>2025-04-25T08:42:04.000Z</time>
      </trkpt>
      <trkpt lat="43.37404" lon="6.16472">
        <ele>387.003886</ele>
        <time>2025-04-25T08:42:05.000Z</time>
      </trkpt>
      <trkpt lat="43.37404" lon="6.16472">
        <ele>387.003886</ele>
        <time>2025-04-25T08:42:05.000Z</time>
      </trkpt>
      <trkpt lat="43.37408" lon="6.16469">
        <ele>386.511733</ele>
        <time>2025-04-25T08:42:06.000Z</time>
      </trkpt>
      <trkpt lat="43.37408" lon="6.16469">
        <ele>386.511733</ele>
        <time>2025-04-25T08:42:06.000Z</time>
      </trkpt>
      <trkpt lat="43.37412" lon="6.16466">
        <ele>386.0743</ele>
        <time>2025-04-25T08:42:07.000Z</time>
      </trkpt>
      <trkpt lat="43.37412" lon="6.16466">
        <ele>386.0743</ele>
        <time>2025-04-25T08:42:07.000Z</time>
      </trkpt>
      <trkpt lat="43.37415" lon="6.16462">
        <ele>385.611316</ele>
        <time>2025-04-25T08:42:08.000Z</time>
      </trkpt>
      <trkpt lat="43.37415" lon="6.16462">
        <ele>385.611316</ele>
        <time>2025-04-25T08:42:08.000Z</time>
      </trkpt>
      <trkpt lat="43.37418" lon="6.16457">
        <ele>385.213764</ele>
        <time>2025-04-25T08:42:09.000Z</time>
      </trkpt>
      <trkpt lat="43.37418" lon="6.16457">
        <ele>385.213764</ele>
        <time>2025-04-25T08:42:09.000Z</time>
      </trkpt>
      <trkpt lat="43.37421" lon="6.16452">
        <ele>384.727903</ele>
        <time>2025-04-25T08:42:10.000Z</time>
      </trkpt>
      <trkpt lat="43.37421" lon="6.16452">
        <ele>384.727903</ele>
        <time>2025-04-25T08:42:10.000Z</time>
      </trkpt>
      <trkpt lat="43.37423" lon="6.16446">
        <ele>384.301232</ele>
        <time>2025-04-25T08:42:11.000Z</time>
      </trkpt>
      <trkpt lat="43.37423" lon="6.16446">
        <ele>384.301232</ele>
        <time>2025-04-25T08:42:11.000Z</time>
      </trkpt>
      <trkpt lat="43.37425" lon="6.1644">
        <ele>383.839011</ele>
        <time>2025-04-25T08:42:12.000Z</time>
      </trkpt>
      <trkpt lat="43.37425" lon="6.1644">
        <ele>383.839011</ele>
        <time>2025-04-25T08:42:12.000Z</time>
      </trkpt>
      <trkpt lat="43.37428" lon="6.16435">
        <ele>383.44209</ele>
        <time>2025-04-25T08:42:13.000Z</time>
      </trkpt>
      <trkpt lat="43.37428" lon="6.16435">
        <ele>383.44209</ele>
        <time>2025-04-25T08:42:13.000Z</time>
      </trkpt>
      <trkpt lat="43.37429" lon="6.16431">
        <ele>383.064744</ele>
        <time>2025-04-25T08:42:14.000Z</time>
      </trkpt>
      <trkpt lat="43.37429" lon="6.16431">
        <ele>383.064744</ele>
        <time>2025-04-25T08:42:14.000Z</time>
      </trkpt>
      <trkpt lat="43.37431" lon="6.16425">
        <ele>382.638074</ele>
        <time>2025-04-25T08:42:15.000Z</time>
      </trkpt>
      <trkpt lat="43.37431" lon="6.16425">
        <ele>382.638074</ele>
        <time>2025-04-25T08:42:15.000Z</time>
      </trkpt>
      <trkpt lat="43.37434" lon="6.1642">
        <ele>382.246899</ele>
        <time>2025-04-25T08:42:16.000Z</time>
      </trkpt>
      <trkpt lat="43.37434" lon="6.1642">
        <ele>382.246899</ele>
        <time>2025-04-25T08:42:16.000Z</time>
      </trkpt>
      <trkpt lat="43.37436" lon="6.16416">
        <ele>381.869554</ele>
        <time>2025-04-25T08:42:17.000Z</time>
      </trkpt>
      <trkpt lat="43.37436" lon="6.16416">
        <ele>381.869554</ele>
        <time>2025-04-25T08:42:17.000Z</time>
      </trkpt>
      <trkpt lat="43.37437" lon="6.1641">
        <ele>381.467738</ele>
        <time>2025-04-25T08:42:18.000Z</time>
      </trkpt>
      <trkpt lat="43.37437" lon="6.1641">
        <ele>381.467738</ele>
        <time>2025-04-25T08:42:18.000Z</time>
      </trkpt>
      <trkpt lat="43.37439" lon="6.16405">
        <ele>381.084315</ele>
        <time>2025-04-25T08:42:19.000Z</time>
      </trkpt>
      <trkpt lat="43.37439" lon="6.16405">
        <ele>381.084315</ele>
        <time>2025-04-25T08:42:19.000Z</time>
      </trkpt>
      <trkpt lat="43.37441" lon="6.16401">
        <ele>380.713451</ele>
        <time>2025-04-25T08:42:20.000Z</time>
      </trkpt>
      <trkpt lat="43.37441" lon="6.16401">
        <ele>380.713451</ele>
        <time>2025-04-25T08:42:20.000Z</time>
      </trkpt>
      <trkpt lat="43.37443" lon="6.16395">
        <ele>380.311636</ele>
        <time>2025-04-25T08:42:21.000Z</time>
      </trkpt>
      <trkpt lat="43.37443" lon="6.16395">
        <ele>380.311636</ele>
        <time>2025-04-25T08:42:21.000Z</time>
      </trkpt>
      <trkpt lat="43.37444" lon="6.1639">
        <ele>379.906066</ele>
        <time>2025-04-25T08:42:22.000Z</time>
      </trkpt>
      <trkpt lat="43.37444" lon="6.1639">
        <ele>379.906066</ele>
        <time>2025-04-25T08:42:22.000Z</time>
      </trkpt>
      <trkpt lat="43.37446" lon="6.16384">
        <ele>379.491867</ele>
        <time>2025-04-25T08:42:23.000Z</time>
      </trkpt>
      <trkpt lat="43.37446" lon="6.16384">
        <ele>379.491867</ele>
        <time>2025-04-25T08:42:23.000Z</time>
      </trkpt>
      <trkpt lat="43.37447" lon="6.16379">
        <ele>379.115199</ele>
        <time>2025-04-25T08:42:24.000Z</time>
      </trkpt>
      <trkpt lat="43.37447" lon="6.16379">
        <ele>379.115199</ele>
        <time>2025-04-25T08:42:24.000Z</time>
      </trkpt>
      <trkpt lat="43.37449" lon="6.16374">
        <ele>378.696673</ele>
        <time>2025-04-25T08:42:25.000Z</time>
      </trkpt>
      <trkpt lat="43.37449" lon="6.16374">
        <ele>378.696673</ele>
        <time>2025-04-25T08:42:25.000Z</time>
      </trkpt>
      <trkpt lat="43.3745" lon="6.16368">
        <ele>378.27165</ele>
        <time>2025-04-25T08:42:26.000Z</time>
      </trkpt>
      <trkpt lat="43.3745" lon="6.16368">
        <ele>378.27165</ele>
        <time>2025-04-25T08:42:26.000Z</time>
      </trkpt>
      <trkpt lat="43.37452" lon="6.16362">
        <ele>377.833592</ele>
        <time>2025-04-25T08:42:27.000Z</time>
      </trkpt>
      <trkpt lat="43.37452" lon="6.16362">
        <ele>377.833592</ele>
        <time>2025-04-25T08:42:27.000Z</time>
      </trkpt>
      <trkpt lat="43.37454" lon="6.16356">
        <ele>377.398829</ele>
        <time>2025-04-25T08:42:28.000Z</time>
      </trkpt>
      <trkpt lat="43.37454" lon="6.16356">
        <ele>377.398829</ele>
        <time>2025-04-25T08:42:28.000Z</time>
      </trkpt>
      <trkpt lat="43.37456" lon="6.1635">
        <ele>376.951641</ele>
        <time>2025-04-25T08:42:29.000Z</time>
      </trkpt>
      <trkpt lat="43.37456" lon="6.1635">
        <ele>376.951641</ele>
        <time>2025-04-25T08:42:29.000Z</time>
      </trkpt>
      <trkpt lat="43.37459" lon="6.16343">
        <ele>376.349966</ele>
        <time>2025-04-25T08:42:30.000Z</time>
      </trkpt>
      <trkpt lat="43.37459" lon="6.16343">
        <ele>376.349966</ele>
        <time>2025-04-25T08:42:30.000Z</time>
      </trkpt>
      <trkpt lat="43.37461" lon="6.16336">
        <ele>375.872547</ele>
        <time>2025-04-25T08:42:31.000Z</time>
      </trkpt>
      <trkpt lat="43.37461" lon="6.16336">
        <ele>375.872547</ele>
        <time>2025-04-25T08:42:31.000Z</time>
      </trkpt>
      <trkpt lat="43.37463" lon="6.16329">
        <ele>375.363134</ele>
        <time>2025-04-25T08:42:32.000Z</time>
      </trkpt>
      <trkpt lat="43.37463" lon="6.16329">
        <ele>375.363134</ele>
        <time>2025-04-25T08:42:32.000Z</time>
      </trkpt>
      <trkpt lat="43.37464" lon="6.16323">
        <ele>374.898876</ele>
        <time>2025-04-25T08:42:33.000Z</time>
      </trkpt>
      <trkpt lat="43.37464" lon="6.16323">
        <ele>374.898876</ele>
        <time>2025-04-25T08:42:33.000Z</time>
      </trkpt>
      <trkpt lat="43.37465" lon="6.1632">
        <ele>374.678257</ele>
        <time>2025-04-25T08:42:34.000Z</time>
      </trkpt>
      <trkpt lat="43.37465" lon="6.1632">
        <ele>374.678257</ele>
        <time>2025-04-25T08:42:34.000Z</time>
      </trkpt>
      <trkpt lat="43.37468" lon="6.16309">
        <ele>373.863591</ele>
        <time>2025-04-25T08:42:35.000Z</time>
      </trkpt>
      <trkpt lat="43.37468" lon="6.16309">
        <ele>373.863591</ele>
        <time>2025-04-25T08:42:35.000Z</time>
      </trkpt>
      <trkpt lat="43.37469" lon="6.16303">
        <ele>373.419001</ele>
        <time>2025-04-25T08:42:36.000Z</time>
      </trkpt>
      <trkpt lat="43.37469" lon="6.16303">
        <ele>373.419001</ele>
        <time>2025-04-25T08:42:36.000Z</time>
      </trkpt>
      <trkpt lat="43.3747" lon="6.16298">
        <ele>373.078107</ele>
        <time>2025-04-25T08:42:37.000Z</time>
      </trkpt>
      <trkpt lat="43.3747" lon="6.16298">
        <ele>373.078107</ele>
        <time>2025-04-25T08:42:37.000Z</time>
      </trkpt>
      <trkpt lat="43.37472" lon="6.16289">
        <ele>372.408523</ele>
        <time>2025-04-25T08:42:38.000Z</time>
      </trkpt>
      <trkpt lat="43.37472" lon="6.16289">
        <ele>372.408523</ele>
        <time>2025-04-25T08:42:38.000Z</time>
      </trkpt>
      <trkpt lat="43.37473" lon="6.16283">
        <ele>371.988002</ele>
        <time>2025-04-25T08:42:39.000Z</time>
      </trkpt>
      <trkpt lat="43.37473" lon="6.16283">
        <ele>371.988002</ele>
        <time>2025-04-25T08:42:39.000Z</time>
      </trkpt>
      <trkpt lat="43.37474" lon="6.16277">
        <ele>371.560058</ele>
        <time>2025-04-25T08:42:40.000Z</time>
      </trkpt>
      <trkpt lat="43.37474" lon="6.16277">
        <ele>371.560058</ele>
        <time>2025-04-25T08:42:40.000Z</time>
      </trkpt>
      <trkpt lat="43.37475" lon="6.16271">
        <ele>371.133698</ele>
        <time>2025-04-25T08:42:41.000Z</time>
      </trkpt>
      <trkpt lat="43.37475" lon="6.16271">
        <ele>371.133698</ele>
        <time>2025-04-25T08:42:41.000Z</time>
      </trkpt>
      <trkpt lat="43.37476" lon="6.16263">
        <ele>370.62323</ele>
        <time>2025-04-25T08:42:42.000Z</time>
      </trkpt>
      <trkpt lat="43.37476" lon="6.16263">
        <ele>370.62323</ele>
        <time>2025-04-25T08:42:42.000Z</time>
      </trkpt>
      <trkpt lat="43.37478" lon="6.16258">
        <ele>370.23338</ele>
        <time>2025-04-25T08:42:43.000Z</time>
      </trkpt>
      <trkpt lat="43.37478" lon="6.16258">
        <ele>370.23338</ele>
        <time>2025-04-25T08:42:43.000Z</time>
      </trkpt>
      <trkpt lat="43.37479" lon="6.16253">
        <ele>369.847136</ele>
        <time>2025-04-25T08:42:44.000Z</time>
      </trkpt>
      <trkpt lat="43.37479" lon="6.16253">
        <ele>369.847136</ele>
        <time>2025-04-25T08:42:44.000Z</time>
      </trkpt>
      <trkpt lat="43.37481" lon="6.16248">
        <ele>369.432768</ele>
        <time>2025-04-25T08:42:45.000Z</time>
      </trkpt>
      <trkpt lat="43.37481" lon="6.16248">
        <ele>369.432768</ele>
        <time>2025-04-25T08:42:45.000Z</time>
      </trkpt>
      <trkpt lat="43.37484" lon="6.16242">
        <ele>368.914102</ele>
        <time>2025-04-25T08:42:46.000Z</time>
      </trkpt>
      <trkpt lat="43.37484" lon="6.16242">
        <ele>368.914102</ele>
        <time>2025-04-25T08:42:46.000Z</time>
      </trkpt>
      <trkpt lat="43.37485" lon="6.16238">
        <ele>368.544142</ele>
        <time>2025-04-25T08:42:47.000Z</time>
      </trkpt>
      <trkpt lat="43.37485" lon="6.16238">
        <ele>368.544142</ele>
        <time>2025-04-25T08:42:47.000Z</time>
      </trkpt>
      <trkpt lat="43.37486" lon="6.16234">
        <ele>368.196039</ele>
        <time>2025-04-25T08:42:48.000Z</time>
      </trkpt>
      <trkpt lat="43.37486" lon="6.16234">
        <ele>368.196039</ele>
        <time>2025-04-25T08:42:48.000Z</time>
      </trkpt>
      <trkpt lat="43.37488" lon="6.16231">
        <ele>367.862071</ele>
        <time>2025-04-25T08:42:49.000Z</time>
      </trkpt>
      <trkpt lat="43.37488" lon="6.16231">
        <ele>367.862071</ele>
        <time>2025-04-25T08:42:49.000Z</time>
      </trkpt>
      <trkpt lat="43.37489" lon="6.16228">
        <ele>367.621866</ele>
        <time>2025-04-25T08:42:50.000Z</time>
      </trkpt>
      <trkpt lat="43.37489" lon="6.16228">
        <ele>367.621866</ele>
        <time>2025-04-25T08:42:50.000Z</time>
      </trkpt>
      <trkpt lat="43.3749" lon="6.16225">
        <ele>367.382207</ele>
        <time>2025-04-25T08:42:51.000Z</time>
      </trkpt>
      <trkpt lat="43.3749" lon="6.16225">
        <ele>367.382207</ele>
        <time>2025-04-25T08:42:51.000Z</time>
      </trkpt>
      <trkpt lat="43.37491" lon="6.16223">
        <ele>367.148994</ele>
        <time>2025-04-25T08:42:52.000Z</time>
      </trkpt>
      <trkpt lat="43.37491" lon="6.16223">
        <ele>367.148994</ele>
        <time>2025-04-25T08:42:52.000Z</time>
      </trkpt>
      <trkpt lat="43.37492" lon="6.1622">
        <ele>366.901704</ele>
        <time>2025-04-25T08:42:53.000Z</time>
      </trkpt>
      <trkpt lat="43.37492" lon="6.1622">
        <ele>366.901704</ele>
        <time>2025-04-25T08:42:53.000Z</time>
      </trkpt>
      <trkpt lat="43.37492" lon="6.16217">
        <ele>366.639046</ele>
        <time>2025-04-25T08:42:54.000Z</time>
      </trkpt>
      <trkpt lat="43.37492" lon="6.16217">
        <ele>366.639046</ele>
        <time>2025-04-25T08:42:54.000Z</time>
      </trkpt>
      <trkpt lat="43.37494" lon="6.16214">
        <ele>366.333147</ele>
        <time>2025-04-25T08:42:55.000Z</time>
      </trkpt>
      <trkpt lat="43.37494" lon="6.16214">
        <ele>366.333147</ele>
        <time>2025-04-25T08:42:55.000Z</time>
      </trkpt>
      <trkpt lat="43.37495" lon="6.1621">
        <ele>365.962213</ele>
        <time>2025-04-25T08:42:56.000Z</time>
      </trkpt>
      <trkpt lat="43.37495" lon="6.1621">
        <ele>365.962213</ele>
        <time>2025-04-25T08:42:56.000Z</time>
      </trkpt>
      <trkpt lat="43.37496" lon="6.16206">
        <ele>365.613984</ele>
        <time>2025-04-25T08:42:57.000Z</time>
      </trkpt>
      <trkpt lat="43.37496" lon="6.16206">
        <ele>365.613984</ele>
        <time>2025-04-25T08:42:57.000Z</time>
      </trkpt>
      <trkpt lat="43.37498" lon="6.16202">
        <ele>365.214318</ele>
        <time>2025-04-25T08:42:58.000Z</time>
      </trkpt>
      <trkpt lat="43.37498" lon="6.16202">
        <ele>365.214318</ele>
        <time>2025-04-25T08:42:58.000Z</time>
      </trkpt>
      <trkpt lat="43.375" lon="6.16197">
        <ele>364.743266</ele>
        <time>2025-04-25T08:42:59.000Z</time>
      </trkpt>
      <trkpt lat="43.375" lon="6.16197">
        <ele>364.743266</ele>
        <time>2025-04-25T08:42:59.000Z</time>
      </trkpt>
      <trkpt lat="43.37502" lon="6.16192">
        <ele>364.294018</ele>
        <time>2025-04-25T08:43:00.000Z</time>
      </trkpt>
      <trkpt lat="43.37502" lon="6.16192">
        <ele>364.294018</ele>
        <time>2025-04-25T08:43:00.000Z</time>
      </trkpt>
      <trkpt lat="43.37504" lon="6.16187">
        <ele>363.830266</ele>
        <time>2025-04-25T08:43:01.000Z</time>
      </trkpt>
      <trkpt lat="43.37504" lon="6.16187">
        <ele>363.830266</ele>
        <time>2025-04-25T08:43:01.000Z</time>
      </trkpt>
      <trkpt lat="43.37505" lon="6.16182">
        <ele>363.385659</ele>
        <time>2025-04-25T08:43:02.000Z</time>
      </trkpt>
      <trkpt lat="43.37505" lon="6.16182">
        <ele>363.385659</ele>
        <time>2025-04-25T08:43:02.000Z</time>
      </trkpt>
      <trkpt lat="43.37507" lon="6.16176">
        <ele>362.889988</ele>
        <time>2025-04-25T08:43:03.000Z</time>
      </trkpt>
      <trkpt lat="43.37507" lon="6.16176">
        <ele>362.889988</ele>
        <time>2025-04-25T08:43:03.000Z</time>
      </trkpt>
      <trkpt lat="43.37508" lon="6.16171">
        <ele>362.413181</ele>
        <time>2025-04-25T08:43:04.000Z</time>
      </trkpt>
      <trkpt lat="43.37508" lon="6.16171">
        <ele>362.413181</ele>
        <time>2025-04-25T08:43:04.000Z</time>
      </trkpt>
      <trkpt lat="43.37509" lon="6.16164">
        <ele>361.849105</ele>
        <time>2025-04-25T08:43:05.000Z</time>
      </trkpt>
      <trkpt lat="43.37509" lon="6.16164">
        <ele>361.849105</ele>
        <time>2025-04-25T08:43:05.000Z</time>
      </trkpt>
      <trkpt lat="43.3751" lon="6.16158">
        <ele>361.316542</ele>
        <time>2025-04-25T08:43:06.000Z</time>
      </trkpt>
      <trkpt lat="43.3751" lon="6.16158">
        <ele>361.316542</ele>
        <time>2025-04-25T08:43:06.000Z</time>
      </trkpt>
      <trkpt lat="43.37511" lon="6.16152">
        <ele>360.855503</ele>
        <time>2025-04-25T08:43:07.000Z</time>
      </trkpt>
      <trkpt lat="43.37511" lon="6.16152">
        <ele>360.855503</ele>
        <time>2025-04-25T08:43:07.000Z</time>
      </trkpt>
      <trkpt lat="43.37511" lon="6.16147">
        <ele>360.434935</ele>
        <time>2025-04-25T08:43:08.000Z</time>
      </trkpt>
      <trkpt lat="43.37511" lon="6.16147">
        <ele>360.434935</ele>
        <time>2025-04-25T08:43:08.000Z</time>
      </trkpt>
      <trkpt lat="43.37512" lon="6.16141">
        <ele>359.949693</ele>
        <time>2025-04-25T08:43:09.000Z</time>
      </trkpt>
      <trkpt lat="43.37512" lon="6.16141">
        <ele>359.949693</ele>
        <time>2025-04-25T08:43:09.000Z</time>
      </trkpt>
      <trkpt lat="43.37513" lon="6.16135">
        <ele>359.422323</ele>
        <time>2025-04-25T08:43:10.000Z</time>
      </trkpt>
      <trkpt lat="43.37513" lon="6.16135">
        <ele>359.422323</ele>
        <time>2025-04-25T08:43:10.000Z</time>
      </trkpt>
      <trkpt lat="43.37515" lon="6.16131">
        <ele>359.039869</ele>
        <time>2025-04-25T08:43:11.000Z</time>
      </trkpt>
      <trkpt lat="43.37515" lon="6.16131">
        <ele>359.039869</ele>
        <time>2025-04-25T08:43:11.000Z</time>
      </trkpt>
      <trkpt lat="43.37516" lon="6.16126">
        <ele>358.626186</ele>
        <time>2025-04-25T08:43:12.000Z</time>
      </trkpt>
      <trkpt lat="43.37516" lon="6.16126">
        <ele>358.626186</ele>
        <time>2025-04-25T08:43:12.000Z</time>
      </trkpt>
      <trkpt lat="43.37517" lon="6.16121">
        <ele>358.2322</ele>
        <time>2025-04-25T08:43:13.000Z</time>
      </trkpt>
      <trkpt lat="43.37517" lon="6.16121">
        <ele>358.2322</ele>
        <time>2025-04-25T08:43:13.000Z</time>
      </trkpt>
      <trkpt lat="43.37518" lon="6.16117">
        <ele>357.810671</ele>
        <time>2025-04-25T08:43:14.000Z</time>
      </trkpt>
      <trkpt lat="43.37518" lon="6.16117">
        <ele>357.810671</ele>
        <time>2025-04-25T08:43:14.000Z</time>
      </trkpt>
      <trkpt lat="43.37519" lon="6.1611">
        <ele>357.251467</ele>
        <time>2025-04-25T08:43:15.000Z</time>
      </trkpt>
      <trkpt lat="43.37519" lon="6.1611">
        <ele>357.251467</ele>
        <time>2025-04-25T08:43:15.000Z</time>
      </trkpt>
      <trkpt lat="43.37521" lon="6.16103">
        <ele>356.659496</ele>
        <time>2025-04-25T08:43:16.000Z</time>
      </trkpt>
      <trkpt lat="43.37521" lon="6.16103">
        <ele>356.659496</ele>
        <time>2025-04-25T08:43:16.000Z</time>
      </trkpt>
      <trkpt lat="43.37522" lon="6.16098">
        <ele>356.199652</ele>
        <time>2025-04-25T08:43:17.000Z</time>
      </trkpt>
      <trkpt lat="43.37522" lon="6.16098">
        <ele>356.199652</ele>
        <time>2025-04-25T08:43:17.000Z</time>
      </trkpt>
      <trkpt lat="43.37524" lon="6.16094">
        <ele>355.83869</ele>
        <time>2025-04-25T08:43:18.000Z</time>
      </trkpt>
      <trkpt lat="43.37524" lon="6.16094">
        <ele>355.83869</ele>
        <time>2025-04-25T08:43:18.000Z</time>
      </trkpt>
      <trkpt lat="43.37525" lon="6.16091">
        <ele>355.584279</ele>
        <time>2025-04-25T08:43:19.000Z</time>
      </trkpt>
      <trkpt lat="43.37525" lon="6.16091">
        <ele>355.584279</ele>
        <time>2025-04-25T08:43:19.000Z</time>
      </trkpt>
      <trkpt lat="43.37526" lon="6.16089">
        <ele>355.304953</ele>
        <time>2025-04-25T08:43:20.000Z</time>
      </trkpt>
      <trkpt lat="43.37526" lon="6.16089">
        <ele>355.304953</ele>
        <time>2025-04-25T08:43:20.000Z</time>
      </trkpt>
      <trkpt lat="43.37528" lon="6.16087">
        <ele>355.110174</ele>
        <time>2025-04-25T08:43:21.000Z</time>
      </trkpt>
      <trkpt lat="43.37528" lon="6.16087">
        <ele>355.110174</ele>
        <time>2025-04-25T08:43:21.000Z</time>
      </trkpt>
      <trkpt lat="43.37529" lon="6.16085">
        <ele>354.935034</ele>
        <time>2025-04-25T08:43:22.000Z</time>
      </trkpt>
      <trkpt lat="43.37529" lon="6.16085">
        <ele>354.935034</ele>
        <time>2025-04-25T08:43:22.000Z</time>
      </trkpt>
      <trkpt lat="43.3753" lon="6.16084">
        <ele>354.767277</ele>
        <time>2025-04-25T08:43:24.000Z</time>
      </trkpt>
      <trkpt lat="43.3753" lon="6.16084">
        <ele>354.767277</ele>
        <time>2025-04-25T08:43:24.000Z</time>
      </trkpt>
      <trkpt lat="43.37531" lon="6.16083">
        <ele>354.592137</ele>
        <time>2025-04-25T08:43:24.000Z</time>
      </trkpt>
      <trkpt lat="43.37532" lon="6.1608">
        <ele>354.338147</ele>
        <time>2025-04-25T08:43:25.000Z</time>
      </trkpt>
      <trkpt lat="43.37532" lon="6.1608">
        <ele>354.338147</ele>
        <time>2025-04-25T08:43:25.000Z</time>
      </trkpt>
      <trkpt lat="43.37533" lon="6.16078">
        <ele>354.135951</ele>
        <time>2025-04-25T08:43:26.000Z</time>
      </trkpt>
      <trkpt lat="43.37535" lon="6.16076">
        <ele>353.83865</ele>
        <time>2025-04-25T08:43:27.000Z</time>
      </trkpt>
      <trkpt lat="43.37535" lon="6.16076">
        <ele>353.83865</ele>
        <time>2025-04-25T08:43:27.000Z</time>
      </trkpt>
      <trkpt lat="43.37538" lon="6.16073">
        <ele>353.440975</ele>
        <time>2025-04-25T08:43:28.000Z</time>
      </trkpt>
      <trkpt lat="43.37541" lon="6.16069">
        <ele>352.979842</ele>
        <time>2025-04-25T08:43:29.000Z</time>
      </trkpt>
      <trkpt lat="43.37541" lon="6.16069">
        <ele>352.979842</ele>
        <time>2025-04-25T08:43:29.000Z</time>
      </trkpt>
      <trkpt lat="43.37544" lon="6.16065">
        <ele>352.493575</ele>
        <time>2025-04-25T08:43:30.000Z</time>
      </trkpt>
      <trkpt lat="43.37544" lon="6.16065">
        <ele>352.493575</ele>
        <time>2025-04-25T08:43:30.000Z</time>
      </trkpt>
      <trkpt lat="43.37548" lon="6.1606">
        <ele>351.891596</ele>
        <time>2025-04-25T08:43:31.000Z</time>
      </trkpt>
      <trkpt lat="43.37548" lon="6.1606">
        <ele>351.891596</ele>
        <time>2025-04-25T08:43:31.000Z</time>
      </trkpt>
      <trkpt lat="43.37552" lon="6.16055">
        <ele>351.25265</ele>
        <time>2025-04-25T08:43:32.000Z</time>
      </trkpt>
      <trkpt lat="43.37557" lon="6.1605">
        <ele>350.596953</ele>
        <time>2025-04-25T08:43:33.000Z</time>
      </trkpt>
      <trkpt lat="43.37557" lon="6.1605">
        <ele>350.596953</ele>
        <time>2025-04-25T08:43:33.000Z</time>
      </trkpt>
      <trkpt lat="43.3756" lon="6.16044">
        <ele>350.028142</ele>
        <time>2025-04-25T08:43:34.000Z</time>
      </trkpt>
      <trkpt lat="43.3756" lon="6.16044">
        <ele>350.028142</ele>
        <time>2025-04-25T08:43:34.000Z</time>
      </trkpt>
      <trkpt lat="43.37565" lon="6.16037">
        <ele>349.197335</ele>
        <time>2025-04-25T08:43:35.000Z</time>
      </trkpt>
      <trkpt lat="43.37565" lon="6.16037">
        <ele>349.197335</ele>
        <time>2025-04-25T08:43:35.000Z</time>
      </trkpt>
      <trkpt lat="43.37568" lon="6.16031">
        <ele>348.835778</ele>
        <time>2025-04-25T08:43:37.000Z</time>
      </trkpt>
      <trkpt lat="43.37568" lon="6.16031">
        <ele>348.835778</ele>
        <time>2025-04-25T08:43:37.000Z</time>
      </trkpt>
      <trkpt lat="43.37572" lon="6.16024">
        <ele>348.577709</ele>
        <time>2025-04-25T08:43:38.000Z</time>
      </trkpt>
      <trkpt lat="43.37572" lon="6.16024">
        <ele>348.577709</ele>
        <time>2025-04-25T08:43:38.000Z</time>
      </trkpt>
      <trkpt lat="43.37576" lon="6.16019">
        <ele>348.354333</ele>
        <time>2025-04-25T08:43:38.000Z</time>
      </trkpt>
      <trkpt lat="43.37576" lon="6.16019">
        <ele>348.354333</ele>
        <time>2025-04-25T08:43:38.000Z</time>
      </trkpt>
      <trkpt lat="43.3758" lon="6.16014">
        <ele>348.121932</ele>
        <time>2025-04-25T08:43:39.000Z</time>
      </trkpt>
      <trkpt lat="43.3758" lon="6.16014">
        <ele>348.121932</ele>
        <time>2025-04-25T08:43:39.000Z</time>
      </trkpt>
      <trkpt lat="43.37584" lon="6.16008">
        <ele>347.870824</ele>
        <time>2025-04-25T08:43:41.000Z</time>
      </trkpt>
      <trkpt lat="43.37584" lon="6.16008">
        <ele>347.870824</ele>
        <time>2025-04-25T08:43:41.000Z</time>
      </trkpt>
      <trkpt lat="43.37588" lon="6.16004">
        <ele>347.649145</ele>
        <time>2025-04-25T08:43:41.000Z</time>
      </trkpt>
      <trkpt lat="43.37588" lon="6.16004">
        <ele>347.649145</ele>
        <time>2025-04-25T08:43:41.000Z</time>
      </trkpt>
      <trkpt lat="43.3759" lon="6.16">
        <ele>347.497461</ele>
        <time>2025-04-25T08:43:42.000Z</time>
      </trkpt>
      <trkpt lat="43.3759" lon="6.16">
        <ele>347.497461</ele>
        <time>2025-04-25T08:43:42.000Z</time>
      </trkpt>
      <trkpt lat="43.37597" lon="6.15993">
        <ele>347.151304</ele>
        <time>2025-04-25T08:43:43.000Z</time>
      </trkpt>
      <trkpt lat="43.37597" lon="6.15993">
        <ele>347.151304</ele>
        <time>2025-04-25T08:43:43.000Z</time>
      </trkpt>
      <trkpt lat="43.376" lon="6.15988">
        <ele>346.93173</ele>
        <time>2025-04-25T08:43:44.000Z</time>
      </trkpt>
      <trkpt lat="43.376" lon="6.15988">
        <ele>346.93173</ele>
        <time>2025-04-25T08:43:44.000Z</time>
      </trkpt>
      <trkpt lat="43.37604" lon="6.15982">
        <ele>346.698511</ele>
        <time>2025-04-25T08:43:45.000Z</time>
      </trkpt>
      <trkpt lat="43.37604" lon="6.15982">
        <ele>346.698511</ele>
        <time>2025-04-25T08:43:45.000Z</time>
      </trkpt>
      <trkpt lat="43.37608" lon="6.15976">
        <ele>346.454629</ele>
        <time>2025-04-25T08:43:46.000Z</time>
      </trkpt>
      <trkpt lat="43.37608" lon="6.15976">
        <ele>346.454629</ele>
        <time>2025-04-25T08:43:46.000Z</time>
      </trkpt>
      <trkpt lat="43.37611" lon="6.15971">
        <ele>346.228674</ele>
        <time>2025-04-25T08:43:47.000Z</time>
      </trkpt>
      <trkpt lat="43.37611" lon="6.15971">
        <ele>346.228674</ele>
        <time>2025-04-25T08:43:47.000Z</time>
      </trkpt>
      <trkpt lat="43.37615" lon="6.15967">
        <ele>346.019252</ele>
        <time>2025-04-25T08:43:48.000Z</time>
      </trkpt>
      <trkpt lat="43.37615" lon="6.15967">
        <ele>346.019252</ele>
        <time>2025-04-25T08:43:48.000Z</time>
      </trkpt>
      <trkpt lat="43.3762" lon="6.15963">
        <ele>345.780789</ele>
        <time>2025-04-25T08:43:49.000Z</time>
      </trkpt>
      <trkpt lat="43.3762" lon="6.15963">
        <ele>345.780789</ele>
        <time>2025-04-25T08:43:49.000Z</time>
      </trkpt>
      <trkpt lat="43.37625" lon="6.15958">
        <ele>345.531735</ele>
        <time>2025-04-25T08:43:50.000Z</time>
      </trkpt>
      <trkpt lat="43.37625" lon="6.15958">
        <ele>345.531735</ele>
        <time>2025-04-25T08:43:50.000Z</time>
      </trkpt>
      <trkpt lat="43.37627" lon="6.15953">
        <ele>345.334028</ele>
        <time>2025-04-25T08:43:51.000Z</time>
      </trkpt>
      <trkpt lat="43.37627" lon="6.15953">
        <ele>345.334028</ele>
        <time>2025-04-25T08:43:51.000Z</time>
      </trkpt>
      <trkpt lat="43.3763" lon="6.15947">
        <ele>345.135032</ele>
        <time>2025-04-25T08:43:52.000Z</time>
      </trkpt>
      <trkpt lat="43.3763" lon="6.15947">
        <ele>345.135032</ele>
        <time>2025-04-25T08:43:52.000Z</time>
      </trkpt>
      <trkpt lat="43.37632" lon="6.15941">
        <ele>344.916712</ele>
        <time>2025-04-25T08:43:53.000Z</time>
      </trkpt>
      <trkpt lat="43.37632" lon="6.15941">
        <ele>344.916712</ele>
        <time>2025-04-25T08:43:53.000Z</time>
      </trkpt>
      <trkpt lat="43.37635" lon="6.15935">
        <ele>344.700602</ele>
        <time>2025-04-25T08:43:54.000Z</time>
      </trkpt>
      <trkpt lat="43.37635" lon="6.15935">
        <ele>344.700602</ele>
        <time>2025-04-25T08:43:54.000Z</time>
      </trkpt>
      <trkpt lat="43.37638" lon="6.15932">
        <ele>344.523879</ele>
        <time>2025-04-25T08:43:56.000Z</time>
      </trkpt>
      <trkpt lat="43.37638" lon="6.15932">
        <ele>344.523879</ele>
        <time>2025-04-25T08:43:56.000Z</time>
      </trkpt>
      <trkpt lat="43.37642" lon="6.15927">
        <ele>344.325201</ele>
        <time>2025-04-25T08:43:57.000Z</time>
      </trkpt>
      <trkpt lat="43.37642" lon="6.15927">
        <ele>344.325201</ele>
        <time>2025-04-25T08:43:57.000Z</time>
      </trkpt>
      <trkpt lat="43.37644" lon="6.15925">
        <ele>344.190034</ele>
        <time>2025-04-25T08:43:57.000Z</time>
      </trkpt>
      <trkpt lat="43.37644" lon="6.15925">
        <ele>344.190034</ele>
        <time>2025-04-25T08:43:57.000Z</time>
      </trkpt>
      <trkpt lat="43.37648" lon="6.15923">
        <ele>344.03806</ele>
        <time>2025-04-25T08:43:58.000Z</time>
      </trkpt>
      <trkpt lat="43.37648" lon="6.15923">
        <ele>344.03806</ele>
        <time>2025-04-25T08:43:58.000Z</time>
      </trkpt>
      <trkpt lat="43.37651" lon="6.15922">
        <ele>343.893612</ele>
        <time>2025-04-25T08:44:00.000Z</time>
      </trkpt>
      <trkpt lat="43.37651" lon="6.15922">
        <ele>343.893612</ele>
        <time>2025-04-25T08:44:00.000Z</time>
      </trkpt>
      <trkpt lat="43.37655" lon="6.1592">
        <ele>343.726172</ele>
        <time>2025-04-25T08:44:01.000Z</time>
      </trkpt>
      <trkpt lat="43.37655" lon="6.1592">
        <ele>343.726172</ele>
        <time>2025-04-25T08:44:01.000Z</time>
      </trkpt>
      <trkpt lat="43.37658" lon="6.15918">
        <ele>343.555113</ele>
        <time>2025-04-25T08:44:02.000Z</time>
      </trkpt>
      <trkpt lat="43.37658" lon="6.15918">
        <ele>343.555113</ele>
        <time>2025-04-25T08:44:02.000Z</time>
      </trkpt>
      <trkpt lat="43.37662" lon="6.15917">
        <ele>343.385036</ele>
        <time>2025-04-25T08:44:02.000Z</time>
      </trkpt>
      <trkpt lat="43.37662" lon="6.15917">
        <ele>343.385036</ele>
        <time>2025-04-25T08:44:02.000Z</time>
      </trkpt>
      <trkpt lat="43.37665" lon="6.15915">
        <ele>343.239301</ele>
        <time>2025-04-25T08:44:03.000Z</time>
      </trkpt>
      <trkpt lat="43.37665" lon="6.15915">
        <ele>343.239301</ele>
        <time>2025-04-25T08:44:03.000Z</time>
      </trkpt>
      <trkpt lat="43.37668" lon="6.15913">
        <ele>343.11807</ele>
        <time>2025-04-25T08:44:05.000Z</time>
      </trkpt>
      <trkpt lat="43.37668" lon="6.15913">
        <ele>343.11807</ele>
        <time>2025-04-25T08:44:05.000Z</time>
      </trkpt>
      <trkpt lat="43.3767" lon="6.15911">
        <ele>342.998839</ele>
        <time>2025-04-25T08:44:06.000Z</time>
      </trkpt>
      <trkpt lat="43.3767" lon="6.15911">
        <ele>342.998839</ele>
        <time>2025-04-25T08:44:06.000Z</time>
      </trkpt>
      <trkpt lat="43.37672" lon="6.15909">
        <ele>342.883028</ele>
        <time>2025-04-25T08:44:07.000Z</time>
      </trkpt>
      <trkpt lat="43.37672" lon="6.15909">
        <ele>342.883028</ele>
        <time>2025-04-25T08:44:07.000Z</time>
      </trkpt>
      <trkpt lat="43.37676" lon="6.15906">
        <ele>342.726864</ele>
        <time>2025-04-25T08:44:08.000Z</time>
      </trkpt>
      <trkpt lat="43.37676" lon="6.15906">
        <ele>342.726864</ele>
        <time>2025-04-25T08:44:08.000Z</time>
      </trkpt>
      <trkpt lat="43.37678" lon="6.15904">
        <ele>342.60016</ele>
        <time>2025-04-25T08:44:09.000Z</time>
      </trkpt>
      <trkpt lat="43.3768" lon="6.15901">
        <ele>342.469442</ele>
        <time>2025-04-25T08:44:10.000Z</time>
      </trkpt>
      <trkpt lat="43.3768" lon="6.15901">
        <ele>342.469442</ele>
        <time>2025-04-25T08:44:10.000Z</time>
      </trkpt>
      <trkpt lat="43.37682" lon="6.15897">
        <ele>342.330908</ele>
        <time>2025-04-25T08:44:10.000Z</time>
      </trkpt>
      <trkpt lat="43.37682" lon="6.15897">
        <ele>342.330908</ele>
        <time>2025-04-25T08:44:10.000Z</time>
      </trkpt>
      <trkpt lat="43.37685" lon="6.15894">
        <ele>342.182625</ele>
        <time>2025-04-25T08:44:12.000Z</time>
      </trkpt>
      <trkpt lat="43.37687" lon="6.15891">
        <ele>342.054794</ele>
        <time>2025-04-25T08:44:12.000Z</time>
      </trkpt>
      <trkpt lat="43.37689" lon="6.15887">
        <ele>341.888166</ele>
        <time>2025-04-25T08:44:14.000Z</time>
      </trkpt>
      <trkpt lat="43.37691" lon="6.15883">
        <ele>341.75979</ele>
        <time>2025-04-25T08:44:14.000Z</time>
      </trkpt>
      <trkpt lat="43.37693" lon="6.15879">
        <ele>341.589598</ele>
        <time>2025-04-25T08:44:16.000Z</time>
      </trkpt>
      <trkpt lat="43.37695" lon="6.15874">
        <ele>341.426911</ele>
        <time>2025-04-25T08:44:16.000Z</time>
      </trkpt>
      <trkpt lat="43.37698" lon="6.1587">
        <ele>341.448089</ele>
        <time>2025-04-25T08:44:18.000Z</time>
      </trkpt>
      <trkpt lat="43.377" lon="6.15866">
        <ele>341.596942</ele>
        <time>2025-04-25T08:44:18.000Z</time>
      </trkpt>
      <trkpt lat="43.37701" lon="6.15863">
        <ele>341.704152</ele>
        <time>2025-04-25T08:44:20.000Z</time>
      </trkpt>
      <trkpt lat="43.37704" lon="6.1586">
        <ele>341.863017</ele>
        <time>2025-04-25T08:44:21.000Z</time>
      </trkpt>
      <trkpt lat="43.37704" lon="6.1586">
        <ele>341.863017</ele>
        <time>2025-04-25T08:44:21.000Z</time>
      </trkpt>
      <trkpt lat="43.37706" lon="6.15857">
        <ele>341.992219</ele>
        <time>2025-04-25T08:44:22.000Z</time>
      </trkpt>
      <trkpt lat="43.37709" lon="6.15855">
        <ele>342.127628</ele>
        <time>2025-04-25T08:44:23.000Z</time>
      </trkpt>
      <trkpt lat="43.3771" lon="6.15852">
        <ele>342.225274</ele>
        <time>2025-04-25T08:44:24.000Z</time>
      </trkpt>
      <trkpt lat="43.37711" lon="6.15849">
        <ele>342.317468</ele>
        <time>2025-04-25T08:44:24.000Z</time>
      </trkpt>
      <trkpt lat="43.37711" lon="6.15849">
        <ele>342.317468</ele>
        <time>2025-04-25T08:44:24.000Z</time>
      </trkpt>
      <trkpt lat="43.37712" lon="6.15847">
        <ele>342.397907</ele>
        <time>2025-04-25T08:44:26.000Z</time>
      </trkpt>
      <trkpt lat="43.37711" lon="6.15845">
        <ele>342.467178</ele>
        <time>2025-04-25T08:44:27.000Z</time>
      </trkpt>
      <trkpt lat="43.37709" lon="6.15844">
        <ele>342.544124</ele>
        <time>2025-04-25T08:44:28.000Z</time>
      </trkpt>
      <trkpt lat="43.37709" lon="6.15844">
        <ele>342.544124</ele>
        <time>2025-04-25T08:44:28.000Z</time>
      </trkpt>
      <trkpt lat="43.37708" lon="6.15843">
        <ele>342.628734</ele>
        <time>2025-04-25T08:44:29.000Z</time>
      </trkpt>
      <trkpt lat="43.37705" lon="6.15843">
        <ele>342.729356</ele>
        <time>2025-04-25T08:44:30.000Z</time>
      </trkpt>
      <trkpt lat="43.37704" lon="6.15842">
        <ele>342.796344</ele>
        <time>2025-04-25T08:44:30.000Z</time>
      </trkpt>
      <trkpt lat="43.37704" lon="6.15842">
        <ele>342.796344</ele>
        <time>2025-04-25T08:44:30.000Z</time>
      </trkpt>
      <trkpt lat="43.37701" lon="6.15841">
        <ele>342.917704</ele>
        <time>2025-04-25T08:44:32.000Z</time>
      </trkpt>
      <trkpt lat="43.37699" lon="6.1584">
        <ele>343.007174</ele>
        <time>2025-04-25T08:44:33.000Z</time>
      </trkpt>
      <trkpt lat="43.37699" lon="6.1584">
        <ele>343.007174</ele>
        <time>2025-04-25T08:44:33.000Z</time>
      </trkpt>
      <trkpt lat="43.37697" lon="6.15838">
        <ele>343.126984</ele>
        <time>2025-04-25T08:44:34.000Z</time>
      </trkpt>
      <trkpt lat="43.37695" lon="6.15836">
        <ele>343.236827</ele>
        <time>2025-04-25T08:44:35.000Z</time>
      </trkpt>
      <trkpt lat="43.37695" lon="6.15836">
        <ele>343.236827</ele>
        <time>2025-04-25T08:44:35.000Z</time>
      </trkpt>
      <trkpt lat="43.37693" lon="6.15833">
        <ele>343.370125</ele>
        <time>2025-04-25T08:44:36.000Z</time>
      </trkpt>
      <trkpt lat="43.37691" lon="6.1583">
        <ele>343.482413</ele>
        <time>2025-04-25T08:44:36.000Z</time>
      </trkpt>
      <trkpt lat="43.37691" lon="6.1583">
        <ele>343.482413</ele>
        <time>2025-04-25T08:44:36.000Z</time>
      </trkpt>
      <trkpt lat="43.37688" lon="6.15824">
        <ele>343.722426</ele>
        <time>2025-04-25T08:44:39.000Z</time>
      </trkpt>
      <trkpt lat="43.37687" lon="6.15822">
        <ele>343.797185</ele>
        <time>2025-04-25T08:44:40.000Z</time>
      </trkpt>
      <trkpt lat="43.37687" lon="6.15822">
        <ele>343.797185</ele>
        <time>2025-04-25T08:44:40.000Z</time>
      </trkpt>
      <trkpt lat="43.37685" lon="6.1582">
        <ele>343.894671</ele>
        <time>2025-04-25T08:44:40.000Z</time>
      </trkpt>
      <trkpt lat="43.37685" lon="6.1582">
        <ele>343.894671</ele>
        <time>2025-04-25T08:44:40.000Z</time>
      </trkpt>
      <trkpt lat="43.37683" lon="6.15818">
        <ele>343.994797</ele>
        <time>2025-04-25T08:44:41.000Z</time>
      </trkpt>
      <trkpt lat="43.3768" lon="6.15816">
        <ele>344.127892</ele>
        <time>2025-04-25T08:44:42.000Z</time>
      </trkpt>
      <trkpt lat="43.3768" lon="6.15816">
        <ele>344.127892</ele>
        <time>2025-04-25T08:44:42.000Z</time>
      </trkpt>
      <trkpt lat="43.37677" lon="6.15815">
        <ele>344.286011</ele>
        <time>2025-04-25T08:44:44.000Z</time>
      </trkpt>
      <trkpt lat="43.37674" lon="6.15813">
        <ele>344.440983</ele>
        <time>2025-04-25T08:44:45.000Z</time>
      </trkpt>
      <trkpt lat="43.37674" lon="6.15813">
        <ele>344.440983</ele>
        <time>2025-04-25T08:44:45.000Z</time>
      </trkpt>
      <trkpt lat="43.3767" lon="6.15812">
        <ele>344.610938</ele>
        <time>2025-04-25T08:44:46.000Z</time>
      </trkpt>
      <trkpt lat="43.3767" lon="6.15812">
        <ele>344.610938</ele>
        <time>2025-04-25T08:44:46.000Z</time>
      </trkpt>
      <trkpt lat="43.37666" lon="6.1581">
        <ele>344.768287</ele>
        <time>2025-04-25T08:44:47.000Z</time>
      </trkpt>
      <trkpt lat="43.37666" lon="6.1581">
        <ele>344.768287</ele>
        <time>2025-04-25T08:44:47.000Z</time>
      </trkpt>
      <trkpt lat="43.37663" lon="6.1581">
        <ele>344.917501</ele>
        <time>2025-04-25T08:44:47.000Z</time>
      </trkpt>
      <trkpt lat="43.3766" lon="6.15809">
        <ele>345.053851</ele>
        <time>2025-04-25T08:44:48.000Z</time>
      </trkpt>
      <trkpt lat="43.3766" lon="6.15809">
        <ele>345.053851</ele>
        <time>2025-04-25T08:44:48.000Z</time>
      </trkpt>
      <trkpt lat="43.37657" lon="6.15808">
        <ele>345.18712</ele>
        <time>2025-04-25T08:44:50.000Z</time>
      </trkpt>
      <trkpt lat="43.37657" lon="6.15808">
        <ele>345.18712</ele>
        <time>2025-04-25T08:44:50.000Z</time>
      </trkpt>
      <trkpt lat="43.37654" lon="6.15807">
        <ele>345.30637</ele>
        <time>2025-04-25T08:44:51.000Z</time>
      </trkpt>
      <trkpt lat="43.37654" lon="6.15807">
        <ele>345.30637</ele>
        <time>2025-04-25T08:44:51.000Z</time>
      </trkpt>
      <trkpt lat="43.37651" lon="6.15807">
        <ele>345.439003</ele>
        <time>2025-04-25T08:44:52.000Z</time>
      </trkpt>
      <trkpt lat="43.37651" lon="6.15807">
        <ele>345.439003</ele>
        <time>2025-04-25T08:44:52.000Z</time>
      </trkpt>
      <trkpt lat="43.37649" lon="6.15806">
        <ele>345.541971</ele>
        <time>2025-04-25T08:44:53.000Z</time>
      </trkpt>
      <trkpt lat="43.37649" lon="6.15806">
        <ele>345.541971</ele>
        <time>2025-04-25T08:44:53.000Z</time>
      </trkpt>
      <trkpt lat="43.37646" lon="6.15805">
        <ele>345.679484</ele>
        <time>2025-04-25T08:44:53.000Z</time>
      </trkpt>
      <trkpt lat="43.37646" lon="6.15805">
        <ele>345.679484</ele>
        <time>2025-04-25T08:44:53.000Z</time>
      </trkpt>
      <trkpt lat="43.37643" lon="6.15804">
        <ele>345.812753</ele>
        <time>2025-04-25T08:44:55.000Z</time>
      </trkpt>
      <trkpt lat="43.37643" lon="6.15804">
        <ele>345.812753</ele>
        <time>2025-04-25T08:44:55.000Z</time>
      </trkpt>
      <trkpt lat="43.3764" lon="6.15803">
        <ele>345.950951</ele>
        <time>2025-04-25T08:44:56.000Z</time>
      </trkpt>
      <trkpt lat="43.3764" lon="6.15803">
        <ele>345.950951</ele>
        <time>2025-04-25T08:44:56.000Z</time>
      </trkpt>
      <trkpt lat="43.37637" lon="6.15802">
        <ele>346.084928</ele>
        <time>2025-04-25T08:44:57.000Z</time>
      </trkpt>
      <trkpt lat="43.37637" lon="6.15802">
        <ele>346.084928</ele>
        <time>2025-04-25T08:44:57.000Z</time>
      </trkpt>
      <trkpt lat="43.37634" lon="6.15801">
        <ele>346.222441</ele>
        <time>2025-04-25T08:44:58.000Z</time>
      </trkpt>
      <trkpt lat="43.37634" lon="6.15801">
        <ele>346.222441</ele>
        <time>2025-04-25T08:44:58.000Z</time>
      </trkpt>
      <trkpt lat="43.3763" lon="6.158">
        <ele>346.374037</ele>
        <time>2025-04-25T08:44:59.000Z</time>
      </trkpt>
      <trkpt lat="43.3763" lon="6.158">
        <ele>346.374037</ele>
        <time>2025-04-25T08:44:59.000Z</time>
      </trkpt>
      <trkpt lat="43.37627" lon="6.15799">
        <ele>346.513811</ele>
        <time>2025-04-25T08:45:00.000Z</time>
      </trkpt>
      <trkpt lat="43.37627" lon="6.15799">
        <ele>346.513811</ele>
        <time>2025-04-25T08:45:00.000Z</time>
      </trkpt>
      <trkpt lat="43.37624" lon="6.15797">
        <ele>346.652352</ele>
        <time>2025-04-25T08:45:00.000Z</time>
      </trkpt>
      <trkpt lat="43.37624" lon="6.15797">
        <ele>346.652352</ele>
        <time>2025-04-25T08:45:00.000Z</time>
      </trkpt>
      <trkpt lat="43.37621" lon="6.15796">
        <ele>346.797197</ele>
        <time>2025-04-25T08:45:02.000Z</time>
      </trkpt>
      <trkpt lat="43.37621" lon="6.15796">
        <ele>346.797197</ele>
        <time>2025-04-25T08:45:02.000Z</time>
      </trkpt>
      <trkpt lat="43.37618" lon="6.15794">
        <ele>346.934693</ele>
        <time>2025-04-25T08:45:03.000Z</time>
      </trkpt>
      <trkpt lat="43.37618" lon="6.15794">
        <ele>346.934693</ele>
        <time>2025-04-25T08:45:03.000Z</time>
      </trkpt>
      <trkpt lat="43.37614" lon="6.15793">
        <ele>347.090517</ele>
        <time>2025-04-25T08:45:04.000Z</time>
      </trkpt>
      <trkpt lat="43.37614" lon="6.15793">
        <ele>347.090517</ele>
        <time>2025-04-25T08:45:04.000Z</time>
      </trkpt>
      <trkpt lat="43.37611" lon="6.15793">
        <ele>347.222095</ele>
        <time>2025-04-25T08:45:05.000Z</time>
      </trkpt>
      <trkpt lat="43.37611" lon="6.15793">
        <ele>347.222095</ele>
        <time>2025-04-25T08:45:05.000Z</time>
      </trkpt>
      <trkpt lat="43.37608" lon="6.15792">
        <ele>347.357235</ele>
        <time>2025-04-25T08:45:05.000Z</time>
      </trkpt>
      <trkpt lat="43.37608" lon="6.15792">
        <ele>347.357235</ele>
        <time>2025-04-25T08:45:05.000Z</time>
      </trkpt>
      <trkpt lat="43.37605" lon="6.15792">
        <ele>347.504839</ele>
        <time>2025-04-25T08:45:07.000Z</time>
      </trkpt>
      <trkpt lat="43.37605" lon="6.15792">
        <ele>347.504839</ele>
        <time>2025-04-25T08:45:07.000Z</time>
      </trkpt>
      <trkpt lat="43.37602" lon="6.15793">
        <ele>347.642352</ele>
        <time>2025-04-25T08:45:08.000Z</time>
      </trkpt>
      <trkpt lat="43.37602" lon="6.15793">
        <ele>347.642352</ele>
        <time>2025-04-25T08:45:08.000Z</time>
      </trkpt>
      <trkpt lat="43.376" lon="6.15794">
        <ele>347.747559</ele>
        <time>2025-04-25T08:45:09.000Z</time>
      </trkpt>
      <trkpt lat="43.376" lon="6.15794">
        <ele>347.747559</ele>
        <time>2025-04-25T08:45:09.000Z</time>
      </trkpt>
      <trkpt lat="43.37597" lon="6.15796">
        <ele>347.865655</ele>
        <time>2025-04-25T08:45:10.000Z</time>
      </trkpt>
      <trkpt lat="43.37597" lon="6.15796">
        <ele>347.865655</ele>
        <time>2025-04-25T08:45:10.000Z</time>
      </trkpt>
      <trkpt lat="43.37596" lon="6.15799">
        <ele>347.962818</ele>
        <time>2025-04-25T08:45:10.000Z</time>
      </trkpt>
      <trkpt lat="43.37596" lon="6.15799">
        <ele>347.962818</ele>
        <time>2025-04-25T08:45:10.000Z</time>
      </trkpt>
      <trkpt lat="43.37595" lon="6.15801">
        <ele>348.047338</ele>
        <time>2025-04-25T08:45:11.000Z</time>
      </trkpt>
      <trkpt lat="43.37595" lon="6.15801">
        <ele>348.047338</ele>
        <time>2025-04-25T08:45:11.000Z</time>
      </trkpt>
      <trkpt lat="43.37595" lon="6.15805">
        <ele>348.146666</ele>
        <time>2025-04-25T08:45:12.000Z</time>
      </trkpt>
      <trkpt lat="43.37595" lon="6.15805">
        <ele>348.146666</ele>
        <time>2025-04-25T08:45:12.000Z</time>
      </trkpt>
      <trkpt lat="43.37595" lon="6.15807">
        <ele>348.233597</ele>
        <time>2025-04-25T08:45:14.000Z</time>
      </trkpt>
      <trkpt lat="43.37595" lon="6.15807">
        <ele>348.233597</ele>
        <time>2025-04-25T08:45:14.000Z</time>
      </trkpt>
      <trkpt lat="43.37595" lon="6.1581">
        <ele>348.334551</ele>
        <time>2025-04-25T08:45:15.000Z</time>
      </trkpt>
      <trkpt lat="43.37595" lon="6.1581">
        <ele>348.334551</ele>
        <time>2025-04-25T08:45:15.000Z</time>
      </trkpt>
      <trkpt lat="43.37595" lon="6.15814">
        <ele>348.443211</ele>
        <time>2025-04-25T08:45:16.000Z</time>
      </trkpt>
      <trkpt lat="43.37595" lon="6.15814">
        <ele>348.443211</ele>
        <time>2025-04-25T08:45:16.000Z</time>
      </trkpt>
      <trkpt lat="43.37595" lon="6.15818">
        <ele>348.564344</ele>
        <time>2025-04-25T08:45:16.000Z</time>
      </trkpt>
      <trkpt lat="43.37595" lon="6.15818">
        <ele>348.564344</ele>
        <time>2025-04-25T08:45:16.000Z</time>
      </trkpt>
      <trkpt lat="43.37596" lon="6.15822">
        <ele>348.688069</ele>
        <time>2025-04-25T08:45:18.000Z</time>
      </trkpt>
      <trkpt lat="43.37596" lon="6.15822">
        <ele>348.688069</ele>
        <time>2025-04-25T08:45:18.000Z</time>
      </trkpt>
      <trkpt lat="43.37596" lon="6.15826">
        <ele>348.83319</ele>
        <time>2025-04-25T08:45:18.000Z</time>
      </trkpt>
      <trkpt lat="43.37596" lon="6.15826">
        <ele>348.83319</ele>
        <time>2025-04-25T08:45:18.000Z</time>
      </trkpt>
      <trkpt lat="43.37595" lon="6.15831">
        <ele>348.975752</ele>
        <time>2025-04-25T08:45:20.000Z</time>
      </trkpt>
      <trkpt lat="43.37595" lon="6.15831">
        <ele>348.975752</ele>
        <time>2025-04-25T08:45:20.000Z</time>
      </trkpt>
      <trkpt lat="43.37595" lon="6.15836">
        <ele>349.133493</ele>
        <time>2025-04-25T08:45:20.000Z</time>
      </trkpt>
      <trkpt lat="43.37595" lon="6.15836">
        <ele>349.133493</ele>
        <time>2025-04-25T08:45:20.000Z</time>
      </trkpt>
      <trkpt lat="43.37595" lon="6.1584">
        <ele>349.356333</ele>
        <time>2025-04-25T08:45:22.000Z</time>
      </trkpt>
      <trkpt lat="43.37595" lon="6.1584">
        <ele>349.356333</ele>
        <time>2025-04-25T08:45:22.000Z</time>
      </trkpt>
      <trkpt lat="43.37594" lon="6.15845">
        <ele>349.614194</ele>
        <time>2025-04-25T08:45:22.000Z</time>
      </trkpt>
      <trkpt lat="43.37592" lon="6.1585">
        <ele>349.84199</ele>
        <time>2025-04-25T08:45:24.000Z</time>
      </trkpt>
      <trkpt lat="43.37592" lon="6.1585">
        <ele>349.84199</ele>
        <time>2025-04-25T08:45:24.000Z</time>
      </trkpt>
      <trkpt lat="43.37591" lon="6.15855">
        <ele>350.095247</ele>
        <time>2025-04-25T08:45:24.000Z</time>
      </trkpt>
      <trkpt lat="43.37591" lon="6.15855">
        <ele>350.095247</ele>
        <time>2025-04-25T08:45:24.000Z</time>
      </trkpt>
      <trkpt lat="43.37589" lon="6.1586">
        <ele>350.357439</ele>
        <time>2025-04-25T08:45:25.000Z</time>
      </trkpt>
      <trkpt lat="43.37589" lon="6.1586">
        <ele>350.357439</ele>
        <time>2025-04-25T08:45:25.000Z</time>
      </trkpt>
      <trkpt lat="43.37588" lon="6.15864">
        <ele>350.600261</ele>
        <time>2025-04-25T08:45:26.000Z</time>
      </trkpt>
      <trkpt lat="43.37588" lon="6.15864">
        <ele>350.600261</ele>
        <time>2025-04-25T08:45:26.000Z</time>
      </trkpt>
      <trkpt lat="43.37587" lon="6.15869">
        <ele>350.839599</ele>
        <time>2025-04-25T08:45:28.000Z</time>
      </trkpt>
      <trkpt lat="43.37587" lon="6.15869">
        <ele>350.839599</ele>
        <time>2025-04-25T08:45:28.000Z</time>
      </trkpt>
      <trkpt lat="43.37585" lon="6.15873">
        <ele>351.087674</ele>
        <time>2025-04-25T08:45:29.000Z</time>
      </trkpt>
      <trkpt lat="43.37585" lon="6.15873">
        <ele>351.087674</ele>
        <time>2025-04-25T08:45:29.000Z</time>
      </trkpt>
      <trkpt lat="43.37583" lon="6.15878">
        <ele>351.323243</ele>
        <time>2025-04-25T08:45:30.000Z</time>
      </trkpt>
      <trkpt lat="43.37583" lon="6.15878">
        <ele>351.323243</ele>
        <time>2025-04-25T08:45:30.000Z</time>
      </trkpt>
      <trkpt lat="43.37581" lon="6.15882">
        <ele>351.571318</ele>
        <time>2025-04-25T08:45:31.000Z</time>
      </trkpt>
      <trkpt lat="43.37581" lon="6.15882">
        <ele>351.571318</ele>
        <time>2025-04-25T08:45:31.000Z</time>
      </trkpt>
      <trkpt lat="43.37579" lon="6.15886">
        <ele>351.822865</ele>
        <time>2025-04-25T08:45:32.000Z</time>
      </trkpt>
      <trkpt lat="43.37579" lon="6.15886">
        <ele>351.822865</ele>
        <time>2025-04-25T08:45:32.000Z</time>
      </trkpt>
      <trkpt lat="43.37575" lon="6.15896">
        <ele>352.368447</ele>
        <time>2025-04-25T08:45:34.000Z</time>
      </trkpt>
      <trkpt lat="43.37575" lon="6.15896">
        <ele>352.368447</ele>
        <time>2025-04-25T08:45:34.000Z</time>
      </trkpt>
      <trkpt lat="43.37573" lon="6.15899">
        <ele>352.560726</ele>
        <time>2025-04-25T08:45:35.000Z</time>
      </trkpt>
      <trkpt lat="43.37573" lon="6.15899">
        <ele>352.560726</ele>
        <time>2025-04-25T08:45:35.000Z</time>
      </trkpt>
      <trkpt lat="43.37572" lon="6.15903">
        <ele>352.774602</ele>
        <time>2025-04-25T08:45:36.000Z</time>
      </trkpt>
      <trkpt lat="43.37572" lon="6.15903">
        <ele>352.774602</ele>
        <time>2025-04-25T08:45:36.000Z</time>
      </trkpt>
      <trkpt lat="43.37569" lon="6.15908">
        <ele>353.049241</ele>
        <time>2025-04-25T08:45:37.000Z</time>
      </trkpt>
      <trkpt lat="43.37569" lon="6.15908">
        <ele>353.049241</ele>
        <time>2025-04-25T08:45:37.000Z</time>
      </trkpt>
      <trkpt lat="43.37568" lon="6.15912">
        <ele>353.289033</ele>
        <time>2025-04-25T08:45:38.000Z</time>
      </trkpt>
      <trkpt lat="43.37568" lon="6.15912">
        <ele>353.289033</ele>
        <time>2025-04-25T08:45:38.000Z</time>
      </trkpt>
      <trkpt lat="43.37565" lon="6.15917">
        <ele>353.559665</ele>
        <time>2025-04-25T08:45:39.000Z</time>
      </trkpt>
      <trkpt lat="43.37565" lon="6.15917">
        <ele>353.559665</ele>
        <time>2025-04-25T08:45:39.000Z</time>
      </trkpt>
      <trkpt lat="43.37563" lon="6.15921">
        <ele>353.791283</ele>
        <time>2025-04-25T08:45:40.000Z</time>
      </trkpt>
      <trkpt lat="43.37563" lon="6.15921">
        <ele>353.791283</ele>
        <time>2025-04-25T08:45:40.000Z</time>
      </trkpt>
      <trkpt lat="43.37561" lon="6.15925">
        <ele>354.042324</ele>
        <time>2025-04-25T08:45:40.000Z</time>
      </trkpt>
      <trkpt lat="43.37561" lon="6.15925">
        <ele>354.042324</ele>
        <time>2025-04-25T08:45:40.000Z</time>
      </trkpt>
      <trkpt lat="43.37559" lon="6.15928">
        <ele>354.277806</ele>
        <time>2025-04-25T08:45:41.000Z</time>
      </trkpt>
      <trkpt lat="43.37559" lon="6.15928">
        <ele>354.277806</ele>
        <time>2025-04-25T08:45:41.000Z</time>
      </trkpt>
      <trkpt lat="43.37556" lon="6.15933">
        <ele>354.545976</ele>
        <time>2025-04-25T08:45:43.000Z</time>
      </trkpt>
      <trkpt lat="43.37556" lon="6.15933">
        <ele>354.545976</ele>
        <time>2025-04-25T08:45:43.000Z</time>
      </trkpt>
      <trkpt lat="43.37554" lon="6.15936">
        <ele>354.761625</ele>
        <time>2025-04-25T08:45:44.000Z</time>
      </trkpt>
      <trkpt lat="43.37554" lon="6.15936">
        <ele>354.761625</ele>
        <time>2025-04-25T08:45:44.000Z</time>
      </trkpt>
      <trkpt lat="43.37552" lon="6.1594">
        <ele>354.997614</ele>
        <time>2025-04-25T08:45:45.000Z</time>
      </trkpt>
      <trkpt lat="43.37552" lon="6.1594">
        <ele>354.997614</ele>
        <time>2025-04-25T08:45:45.000Z</time>
      </trkpt>
      <trkpt lat="43.3755" lon="6.15944">
        <ele>355.233603</ele>
        <time>2025-04-25T08:45:46.000Z</time>
      </trkpt>
      <trkpt lat="43.3755" lon="6.15944">
        <ele>355.233603</ele>
        <time>2025-04-25T08:45:46.000Z</time>
      </trkpt>
      <trkpt lat="43.37547" lon="6.15948">
        <ele>355.505386</ele>
        <time>2025-04-25T08:45:47.000Z</time>
      </trkpt>
      <trkpt lat="43.37547" lon="6.15948">
        <ele>355.505386</ele>
        <time>2025-04-25T08:45:47.000Z</time>
      </trkpt>
      <trkpt lat="43.37545" lon="6.15951">
        <ele>355.730522</ele>
        <time>2025-04-25T08:45:48.000Z</time>
      </trkpt>
      <trkpt lat="43.37545" lon="6.15951">
        <ele>355.730522</ele>
        <time>2025-04-25T08:45:48.000Z</time>
      </trkpt>
      <trkpt lat="43.37542" lon="6.15955">
        <ele>355.977743</ele>
        <time>2025-04-25T08:45:49.000Z</time>
      </trkpt>
      <trkpt lat="43.37542" lon="6.15955">
        <ele>355.977743</ele>
        <time>2025-04-25T08:45:49.000Z</time>
      </trkpt>
      <trkpt lat="43.3754" lon="6.15958">
        <ele>356.187751</ele>
        <time>2025-04-25T08:45:50.000Z</time>
      </trkpt>
      <trkpt lat="43.3754" lon="6.15958">
        <ele>356.187751</ele>
        <time>2025-04-25T08:45:50.000Z</time>
      </trkpt>
      <trkpt lat="43.37537" lon="6.15962">
        <ele>356.428596</ele>
        <time>2025-04-25T08:45:51.000Z</time>
      </trkpt>
      <trkpt lat="43.37537" lon="6.15962">
        <ele>356.428596</ele>
        <time>2025-04-25T08:45:51.000Z</time>
      </trkpt>
      <trkpt lat="43.37535" lon="6.15964">
        <ele>356.633403</ele>
        <time>2025-04-25T08:45:52.000Z</time>
      </trkpt>
      <trkpt lat="43.37535" lon="6.15964">
        <ele>356.633403</ele>
        <time>2025-04-25T08:45:52.000Z</time>
      </trkpt>
      <trkpt lat="43.37532" lon="6.15968">
        <ele>356.903934</ele>
        <time>2025-04-25T08:45:53.000Z</time>
      </trkpt>
      <trkpt lat="43.37532" lon="6.15968">
        <ele>356.903934</ele>
        <time>2025-04-25T08:45:53.000Z</time>
      </trkpt>
      <trkpt lat="43.37529" lon="6.15971">
        <ele>357.130228</ele>
        <time>2025-04-25T08:45:54.000Z</time>
      </trkpt>
      <trkpt lat="43.37529" lon="6.15971">
        <ele>357.130228</ele>
        <time>2025-04-25T08:45:54.000Z</time>
      </trkpt>
      <trkpt lat="43.37527" lon="6.15974">
        <ele>357.364746</ele>
        <time>2025-04-25T08:45:55.000Z</time>
      </trkpt>
      <trkpt lat="43.37527" lon="6.15974">
        <ele>357.364746</ele>
        <time>2025-04-25T08:45:55.000Z</time>
      </trkpt>
      <trkpt lat="43.37523" lon="6.15978">
        <ele>357.650856</ele>
        <time>2025-04-25T08:45:56.000Z</time>
      </trkpt>
      <trkpt lat="43.37523" lon="6.15978">
        <ele>357.650856</ele>
        <time>2025-04-25T08:45:56.000Z</time>
      </trkpt>
      <trkpt lat="43.37521" lon="6.15981">
        <ele>357.879285</ele>
        <time>2025-04-25T08:45:56.000Z</time>
      </trkpt>
      <trkpt lat="43.37521" lon="6.15981">
        <ele>357.879285</ele>
        <time>2025-04-25T08:45:56.000Z</time>
      </trkpt>
      <trkpt lat="43.37518" lon="6.15984">
        <ele>358.116938</ele>
        <time>2025-04-25T08:45:58.000Z</time>
      </trkpt>
      <trkpt lat="43.37518" lon="6.15984">
        <ele>358.116938</ele>
        <time>2025-04-25T08:45:58.000Z</time>
      </trkpt>
      <trkpt lat="43.37515" lon="6.15987">
        <ele>358.379248</ele>
        <time>2025-04-25T08:45:59.000Z</time>
      </trkpt>
      <trkpt lat="43.37515" lon="6.15987">
        <ele>358.379248</ele>
        <time>2025-04-25T08:45:59.000Z</time>
      </trkpt>
      <trkpt lat="43.37512" lon="6.15991">
        <ele>358.646679</ele>
        <time>2025-04-25T08:46:00.000Z</time>
      </trkpt>
      <trkpt lat="43.37512" lon="6.15991">
        <ele>358.646679</ele>
        <time>2025-04-25T08:46:00.000Z</time>
      </trkpt>
      <trkpt lat="43.37509" lon="6.15994">
        <ele>358.872972</ele>
        <time>2025-04-25T08:46:01.000Z</time>
      </trkpt>
      <trkpt lat="43.37509" lon="6.15994">
        <ele>358.872972</ele>
        <time>2025-04-25T08:46:01.000Z</time>
      </trkpt>
      <trkpt lat="43.37507" lon="6.15997">
        <ele>359.084329</ele>
        <time>2025-04-25T08:46:02.000Z</time>
      </trkpt>
      <trkpt lat="43.37507" lon="6.15997">
        <ele>359.084329</ele>
        <time>2025-04-25T08:46:02.000Z</time>
      </trkpt>
      <trkpt lat="43.37504" lon="6.16">
        <ele>359.339899</ele>
        <time>2025-04-25T08:46:03.000Z</time>
      </trkpt>
      <trkpt lat="43.37504" lon="6.16">
        <ele>359.339899</ele>
        <time>2025-04-25T08:46:03.000Z</time>
      </trkpt>
      <trkpt lat="43.37502" lon="6.16003">
        <ele>359.544707</ele>
        <time>2025-04-25T08:46:04.000Z</time>
      </trkpt>
      <trkpt lat="43.37502" lon="6.16003">
        <ele>359.544707</ele>
        <time>2025-04-25T08:46:04.000Z</time>
      </trkpt>
      <trkpt lat="43.375" lon="6.16005">
        <ele>359.726868</ele>
        <time>2025-04-25T08:46:05.000Z</time>
      </trkpt>
      <trkpt lat="43.375" lon="6.16005">
        <ele>359.726868</ele>
        <time>2025-04-25T08:46:05.000Z</time>
      </trkpt>
      <trkpt lat="43.37497" lon="6.16009">
        <ele>359.980016</ele>
        <time>2025-04-25T08:46:06.000Z</time>
      </trkpt>
      <trkpt lat="43.37497" lon="6.16009">
        <ele>359.980016</ele>
        <time>2025-04-25T08:46:06.000Z</time>
      </trkpt>
      <trkpt lat="43.37495" lon="6.16011">
        <ele>360.16569</ele>
        <time>2025-04-25T08:46:07.000Z</time>
      </trkpt>
      <trkpt lat="43.37495" lon="6.16011">
        <ele>360.16569</ele>
        <time>2025-04-25T08:46:07.000Z</time>
      </trkpt>
      <trkpt lat="43.37492" lon="6.16014">
        <ele>360.370498</ele>
        <time>2025-04-25T08:46:08.000Z</time>
      </trkpt>
      <trkpt lat="43.37492" lon="6.16014">
        <ele>360.370498</ele>
        <time>2025-04-25T08:46:08.000Z</time>
      </trkpt>
      <trkpt lat="43.3749" lon="6.16017">
        <ele>360.584865</ele>
        <time>2025-04-25T08:46:09.000Z</time>
      </trkpt>
      <trkpt lat="43.3749" lon="6.16017">
        <ele>360.584865</ele>
        <time>2025-04-25T08:46:09.000Z</time>
      </trkpt>
      <trkpt lat="43.37487" lon="6.16019">
        <ele>360.780339</ele>
        <time>2025-04-25T08:46:10.000Z</time>
      </trkpt>
      <trkpt lat="43.37487" lon="6.16019">
        <ele>360.780339</ele>
        <time>2025-04-25T08:46:10.000Z</time>
      </trkpt>
      <trkpt lat="43.37484" lon="6.16021">
        <ele>361.009366</ele>
        <time>2025-04-25T08:46:11.000Z</time>
      </trkpt>
      <trkpt lat="43.37484" lon="6.16021">
        <ele>361.009366</ele>
        <time>2025-04-25T08:46:11.000Z</time>
      </trkpt>
      <trkpt lat="43.37482" lon="6.16024">
        <ele>361.217197</ele>
        <time>2025-04-25T08:46:12.000Z</time>
      </trkpt>
      <trkpt lat="43.37482" lon="6.16024">
        <ele>361.217197</ele>
        <time>2025-04-25T08:46:12.000Z</time>
      </trkpt>
      <trkpt lat="43.37479" lon="6.16026">
        <ele>361.410906</ele>
        <time>2025-04-25T08:46:13.000Z</time>
      </trkpt>
      <trkpt lat="43.37479" lon="6.16026">
        <ele>361.410906</ele>
        <time>2025-04-25T08:46:13.000Z</time>
      </trkpt>
      <trkpt lat="43.37476" lon="6.16029">
        <ele>361.602197</ele>
        <time>2025-04-25T08:46:14.000Z</time>
      </trkpt>
      <trkpt lat="43.37476" lon="6.16029">
        <ele>361.602197</ele>
        <time>2025-04-25T08:46:14.000Z</time>
      </trkpt>
      <trkpt lat="43.37473" lon="6.16031">
        <ele>361.806171</ele>
        <time>2025-04-25T08:46:15.000Z</time>
      </trkpt>
      <trkpt lat="43.37473" lon="6.16031">
        <ele>361.806171</ele>
        <time>2025-04-25T08:46:15.000Z</time>
      </trkpt>
      <trkpt lat="43.3747" lon="6.16033">
        <ele>362.009269</ele>
        <time>2025-04-25T08:46:16.000Z</time>
      </trkpt>
      <trkpt lat="43.3747" lon="6.16033">
        <ele>362.009269</ele>
        <time>2025-04-25T08:46:16.000Z</time>
      </trkpt>
      <trkpt lat="43.37468" lon="6.16035">
        <ele>362.176679</ele>
        <time>2025-04-25T08:46:17.000Z</time>
      </trkpt>
      <trkpt lat="43.37468" lon="6.16035">
        <ele>362.176679</ele>
        <time>2025-04-25T08:46:17.000Z</time>
      </trkpt>
      <trkpt lat="43.37464" lon="6.16037">
        <ele>362.412898</ele>
        <time>2025-04-25T08:46:18.000Z</time>
      </trkpt>
      <trkpt lat="43.37464" lon="6.16037">
        <ele>362.412898</ele>
        <time>2025-04-25T08:46:18.000Z</time>
      </trkpt>
      <trkpt lat="43.37461" lon="6.16038">
        <ele>362.602179</ele>
        <time>2025-04-25T08:46:19.000Z</time>
      </trkpt>
      <trkpt lat="43.37461" lon="6.16038">
        <ele>362.602179</ele>
        <time>2025-04-25T08:46:19.000Z</time>
      </trkpt>
      <trkpt lat="43.37458" lon="6.16039">
        <ele>362.782652</ele>
        <time>2025-04-25T08:46:20.000Z</time>
      </trkpt>
      <trkpt lat="43.37458" lon="6.16039">
        <ele>362.782652</ele>
        <time>2025-04-25T08:46:20.000Z</time>
      </trkpt>
      <trkpt lat="43.37454" lon="6.1604">
        <ele>362.98996</ele>
        <time>2025-04-25T08:46:21.000Z</time>
      </trkpt>
      <trkpt lat="43.37454" lon="6.1604">
        <ele>362.98996</ele>
        <time>2025-04-25T08:46:21.000Z</time>
      </trkpt>
      <trkpt lat="43.37451" lon="6.1604">
        <ele>363.190529</ele>
        <time>2025-04-25T08:46:22.000Z</time>
      </trkpt>
      <trkpt lat="43.37451" lon="6.1604">
        <ele>363.190529</ele>
        <time>2025-04-25T08:46:22.000Z</time>
      </trkpt>
      <trkpt lat="43.37448" lon="6.1604">
        <ele>363.372785</ele>
        <time>2025-04-25T08:46:23.000Z</time>
      </trkpt>
      <trkpt lat="43.37448" lon="6.1604">
        <ele>363.372785</ele>
        <time>2025-04-25T08:46:23.000Z</time>
      </trkpt>
      <trkpt lat="43.37445" lon="6.1604">
        <ele>363.525604</ele>
        <time>2025-04-25T08:46:24.000Z</time>
      </trkpt>
      <trkpt lat="43.37445" lon="6.1604">
        <ele>363.525604</ele>
        <time>2025-04-25T08:46:24.000Z</time>
      </trkpt>
      <trkpt lat="43.37442" lon="6.1604">
        <ele>363.731365</ele>
        <time>2025-04-25T08:46:25.000Z</time>
      </trkpt>
      <trkpt lat="43.37442" lon="6.1604">
        <ele>363.731365</ele>
        <time>2025-04-25T08:46:25.000Z</time>
      </trkpt>
      <trkpt lat="43.37438" lon="6.16039">
        <ele>363.934106</ele>
        <time>2025-04-25T08:46:26.000Z</time>
      </trkpt>
      <trkpt lat="43.37438" lon="6.16039">
        <ele>363.934106</ele>
        <time>2025-04-25T08:46:26.000Z</time>
      </trkpt>
      <trkpt lat="43.37435" lon="6.16039">
        <ele>364.135583</ele>
        <time>2025-04-25T08:46:27.000Z</time>
      </trkpt>
      <trkpt lat="43.37435" lon="6.16039">
        <ele>364.135583</ele>
        <time>2025-04-25T08:46:27.000Z</time>
      </trkpt>
      <trkpt lat="43.37432" lon="6.16038">
        <ele>364.319584</ele>
        <time>2025-04-25T08:46:28.000Z</time>
      </trkpt>
      <trkpt lat="43.37428" lon="6.16038">
        <ele>364.520153</ele>
        <time>2025-04-25T08:46:29.000Z</time>
      </trkpt>
      <trkpt lat="43.37428" lon="6.16038">
        <ele>364.520153</ele>
        <time>2025-04-25T08:46:29.000Z</time>
      </trkpt>
      <trkpt lat="43.37425" lon="6.16037">
        <ele>364.704797</ele>
        <time>2025-04-25T08:46:30.000Z</time>
      </trkpt>
      <trkpt lat="43.37425" lon="6.16037">
        <ele>364.704797</ele>
        <time>2025-04-25T08:46:30.000Z</time>
      </trkpt>
      <trkpt lat="43.37422" lon="6.16036">
        <ele>364.881953</ele>
        <time>2025-04-25T08:46:31.000Z</time>
      </trkpt>
      <trkpt lat="43.37422" lon="6.16036">
        <ele>364.881953</ele>
        <time>2025-04-25T08:46:31.000Z</time>
      </trkpt>
      <trkpt lat="43.3742" lon="6.16036">
        <ele>365.018214</ele>
        <time>2025-04-25T08:46:32.000Z</time>
      </trkpt>
      <trkpt lat="43.3742" lon="6.16036">
        <ele>365.018214</ele>
        <time>2025-04-25T08:46:32.000Z</time>
      </trkpt>
      <trkpt lat="43.37417" lon="6.16036">
        <ele>365.200871</ele>
        <time>2025-04-25T08:46:33.000Z</time>
      </trkpt>
      <trkpt lat="43.37417" lon="6.16036">
        <ele>365.200871</ele>
        <time>2025-04-25T08:46:33.000Z</time>
      </trkpt>
      <trkpt lat="43.37415" lon="6.16036">
        <ele>365.336326</ele>
        <time>2025-04-25T08:46:34.000Z</time>
      </trkpt>
      <trkpt lat="43.37415" lon="6.16036">
        <ele>365.336326</ele>
        <time>2025-04-25T08:46:34.000Z</time>
      </trkpt>
      <trkpt lat="43.37411" lon="6.16035">
        <ele>365.536211</ele>
        <time>2025-04-25T08:46:35.000Z</time>
      </trkpt>
      <trkpt lat="43.37408" lon="6.16035">
        <ele>365.71254</ele>
        <time>2025-04-25T08:46:35.000Z</time>
      </trkpt>
      <trkpt lat="43.37408" lon="6.16035">
        <ele>365.71254</ele>
        <time>2025-04-25T08:46:35.000Z</time>
      </trkpt>
      <trkpt lat="43.37405" lon="6.16036">
        <ele>365.918434</ele>
        <time>2025-04-25T08:46:37.000Z</time>
      </trkpt>
      <trkpt lat="43.37405" lon="6.16036">
        <ele>365.918434</ele>
        <time>2025-04-25T08:46:37.000Z</time>
      </trkpt>
      <trkpt lat="43.37402" lon="6.16036">
        <ele>366.094763</ele>
        <time>2025-04-25T08:46:38.000Z</time>
      </trkpt>
      <trkpt lat="43.37402" lon="6.16036">
        <ele>366.094763</ele>
        <time>2025-04-25T08:46:38.000Z</time>
      </trkpt>
      <trkpt lat="43.37398" lon="6.16036">
        <ele>366.300525</ele>
        <time>2025-04-25T08:46:39.000Z</time>
      </trkpt>
      <trkpt lat="43.37398" lon="6.16036">
        <ele>366.300525</ele>
        <time>2025-04-25T08:46:39.000Z</time>
      </trkpt>
      <trkpt lat="43.37396" lon="6.16036">
        <ele>366.453582</ele>
        <time>2025-04-25T08:46:40.000Z</time>
      </trkpt>
      <trkpt lat="43.37396" lon="6.16036">
        <ele>366.453582</ele>
        <time>2025-04-25T08:46:40.000Z</time>
      </trkpt>
      <trkpt lat="43.37393" lon="6.16036">
        <ele>366.612508</ele>
        <time>2025-04-25T08:46:41.000Z</time>
      </trkpt>
      <trkpt lat="43.37389" lon="6.16036">
        <ele>366.812393</ele>
        <time>2025-04-25T08:46:42.000Z</time>
      </trkpt>
      <trkpt lat="43.37389" lon="6.16036">
        <ele>366.812393</ele>
        <time>2025-04-25T08:46:42.000Z</time>
      </trkpt>
      <trkpt lat="43.37386" lon="6.16036">
        <ele>367.01811</ele>
        <time>2025-04-25T08:46:43.000Z</time>
      </trkpt>
      <trkpt lat="43.37386" lon="6.16036">
        <ele>367.01811</ele>
        <time>2025-04-25T08:46:43.000Z</time>
      </trkpt>
      <trkpt lat="43.37383" lon="6.16036">
        <ele>367.218132</ele>
        <time>2025-04-25T08:46:44.000Z</time>
      </trkpt>
      <trkpt lat="43.37383" lon="6.16036">
        <ele>367.218132</ele>
        <time>2025-04-25T08:46:44.000Z</time>
      </trkpt>
      <trkpt lat="43.37379" lon="6.16035">
        <ele>367.418701</ele>
        <time>2025-04-25T08:46:45.000Z</time>
      </trkpt>
      <trkpt lat="43.37379" lon="6.16035">
        <ele>367.418701</ele>
        <time>2025-04-25T08:46:45.000Z</time>
      </trkpt>
      <trkpt lat="43.37375" lon="6.16035">
        <ele>367.666484</ele>
        <time>2025-04-25T08:46:46.000Z</time>
      </trkpt>
      <trkpt lat="43.37372" lon="6.16034">
        <ele>367.851128</ele>
        <time>2025-04-25T08:46:47.000Z</time>
      </trkpt>
      <trkpt lat="43.37372" lon="6.16034">
        <ele>367.851128</ele>
        <time>2025-04-25T08:46:47.000Z</time>
      </trkpt>
      <trkpt lat="43.37368" lon="6.16033">
        <ele>368.053193</ele>
        <time>2025-04-25T08:46:48.000Z</time>
      </trkpt>
      <trkpt lat="43.37368" lon="6.16033">
        <ele>368.053193</ele>
        <time>2025-04-25T08:46:48.000Z</time>
      </trkpt>
      <trkpt lat="43.37365" lon="6.16033">
        <ele>368.237194</ele>
        <time>2025-04-25T08:46:49.000Z</time>
      </trkpt>
      <trkpt lat="43.37365" lon="6.16033">
        <ele>368.237194</ele>
        <time>2025-04-25T08:46:49.000Z</time>
      </trkpt>
      <trkpt lat="43.37362" lon="6.16032">
        <ele>368.461563</ele>
        <time>2025-04-25T08:46:49.000Z</time>
      </trkpt>
      <trkpt lat="43.37362" lon="6.16032">
        <ele>368.461563</ele>
        <time>2025-04-25T08:46:49.000Z</time>
      </trkpt>
      <trkpt lat="43.37358" lon="6.16032">
        <ele>368.662132</ele>
        <time>2025-04-25T08:46:51.000Z</time>
      </trkpt>
      <trkpt lat="43.37358" lon="6.16032">
        <ele>368.662132</ele>
        <time>2025-04-25T08:46:51.000Z</time>
      </trkpt>
      <trkpt lat="43.37355" lon="6.16032">
        <ele>368.862154</ele>
        <time>2025-04-25T08:46:52.000Z</time>
      </trkpt>
      <trkpt lat="43.37355" lon="6.16032">
        <ele>368.862154</ele>
        <time>2025-04-25T08:46:52.000Z</time>
      </trkpt>
      <trkpt lat="43.37351" lon="6.16031">
        <ele>369.068049</ele>
        <time>2025-04-25T08:46:53.000Z</time>
      </trkpt>
      <trkpt lat="43.37351" lon="6.16031">
        <ele>369.068049</ele>
        <time>2025-04-25T08:46:53.000Z</time>
      </trkpt>
      <trkpt lat="43.37347" lon="6.16031">
        <ele>369.314946</ele>
        <time>2025-04-25T08:46:54.000Z</time>
      </trkpt>
      <trkpt lat="43.37347" lon="6.16031">
        <ele>369.314946</ele>
        <time>2025-04-25T08:46:54.000Z</time>
      </trkpt>
      <trkpt lat="43.37344" lon="6.16032">
        <ele>369.491482</ele>
        <time>2025-04-25T08:46:55.000Z</time>
      </trkpt>
      <trkpt lat="43.37344" lon="6.16032">
        <ele>369.491482</ele>
        <time>2025-04-25T08:46:55.000Z</time>
      </trkpt>
      <trkpt lat="43.3734" lon="6.16032">
        <ele>369.738933</ele>
        <time>2025-04-25T08:46:56.000Z</time>
      </trkpt>
      <trkpt lat="43.3734" lon="6.16032">
        <ele>369.738933</ele>
        <time>2025-04-25T08:46:56.000Z</time>
      </trkpt>
      <trkpt lat="43.37335" lon="6.16033">
        <ele>370.010517</ele>
        <time>2025-04-25T08:46:57.000Z</time>
      </trkpt>
      <trkpt lat="43.37335" lon="6.16033">
        <ele>370.010517</ele>
        <time>2025-04-25T08:46:57.000Z</time>
      </trkpt>
      <trkpt lat="43.37331" lon="6.16033">
        <ele>370.235333</ele>
        <time>2025-04-25T08:46:58.000Z</time>
      </trkpt>
      <trkpt lat="43.37331" lon="6.16033">
        <ele>370.235333</ele>
        <time>2025-04-25T08:46:58.000Z</time>
      </trkpt>
      <trkpt lat="43.37328" lon="6.16034">
        <ele>370.439688</ele>
        <time>2025-04-25T08:46:59.000Z</time>
      </trkpt>
      <trkpt lat="43.37328" lon="6.16034">
        <ele>370.439688</ele>
        <time>2025-04-25T08:46:59.000Z</time>
      </trkpt>
      <trkpt lat="43.37324" lon="6.16035">
        <ele>370.688354</ele>
        <time>2025-04-25T08:47:00.000Z</time>
      </trkpt>
      <trkpt lat="43.37324" lon="6.16035">
        <ele>370.688354</ele>
        <time>2025-04-25T08:47:00.000Z</time>
      </trkpt>
      <trkpt lat="43.3732" lon="6.16035">
        <ele>370.89447</ele>
        <time>2025-04-25T08:47:01.000Z</time>
      </trkpt>
      <trkpt lat="43.3732" lon="6.16035">
        <ele>370.89447</ele>
        <time>2025-04-25T08:47:01.000Z</time>
      </trkpt>
      <trkpt lat="43.37317" lon="6.16035">
        <ele>371.118187</ele>
        <time>2025-04-25T08:47:02.000Z</time>
      </trkpt>
      <trkpt lat="43.37317" lon="6.16035">
        <ele>371.118187</ele>
        <time>2025-04-25T08:47:02.000Z</time>
      </trkpt>
      <trkpt lat="43.37313" lon="6.16036">
        <ele>371.34219</ele>
        <time>2025-04-25T08:47:03.000Z</time>
      </trkpt>
      <trkpt lat="43.37313" lon="6.16036">
        <ele>371.34219</ele>
        <time>2025-04-25T08:47:03.000Z</time>
      </trkpt>
      <trkpt lat="43.37309" lon="6.16036">
        <ele>371.566559</ele>
        <time>2025-04-25T08:47:04.000Z</time>
      </trkpt>
      <trkpt lat="43.37309" lon="6.16036">
        <ele>371.566559</ele>
        <time>2025-04-25T08:47:04.000Z</time>
      </trkpt>
      <trkpt lat="43.37305" lon="6.16037">
        <ele>371.826874</ele>
        <time>2025-04-25T08:47:05.000Z</time>
      </trkpt>
      <trkpt lat="43.37305" lon="6.16037">
        <ele>371.826874</ele>
        <time>2025-04-25T08:47:05.000Z</time>
      </trkpt>
      <trkpt lat="43.37302" lon="6.16037">
        <ele>372.008458</ele>
        <time>2025-04-25T08:47:06.000Z</time>
      </trkpt>
      <trkpt lat="43.37302" lon="6.16037">
        <ele>372.008458</ele>
        <time>2025-04-25T08:47:06.000Z</time>
      </trkpt>
      <trkpt lat="43.37298" lon="6.16038">
        <ele>372.26551</ele>
        <time>2025-04-25T08:47:07.000Z</time>
      </trkpt>
      <trkpt lat="43.37298" lon="6.16038">
        <ele>372.26551</ele>
        <time>2025-04-25T08:47:07.000Z</time>
      </trkpt>
      <trkpt lat="43.37295" lon="6.16038">
        <ele>372.473706</ele>
        <time>2025-04-25T08:47:08.000Z</time>
      </trkpt>
      <trkpt lat="43.37295" lon="6.16038">
        <ele>372.473706</ele>
        <time>2025-04-25T08:47:08.000Z</time>
      </trkpt>
      <trkpt lat="43.37291" lon="6.16039">
        <ele>372.748935</ele>
        <time>2025-04-25T08:47:09.000Z</time>
      </trkpt>
      <trkpt lat="43.37291" lon="6.16039">
        <ele>372.748935</ele>
        <time>2025-04-25T08:47:09.000Z</time>
      </trkpt>
      <trkpt lat="43.37288" lon="6.16039">
        <ele>372.983422</ele>
        <time>2025-04-25T08:47:09.000Z</time>
      </trkpt>
      <trkpt lat="43.37288" lon="6.16039">
        <ele>372.983422</ele>
        <time>2025-04-25T08:47:09.000Z</time>
      </trkpt>
      <trkpt lat="43.37284" lon="6.16039">
        <ele>373.237702</ele>
        <time>2025-04-25T08:47:11.000Z</time>
      </trkpt>
      <trkpt lat="43.37284" lon="6.16039">
        <ele>373.237702</ele>
        <time>2025-04-25T08:47:11.000Z</time>
      </trkpt>
      <trkpt lat="43.3728" lon="6.1604">
        <ele>373.51871</ele>
        <time>2025-04-25T08:47:12.000Z</time>
      </trkpt>
      <trkpt lat="43.3728" lon="6.1604">
        <ele>373.51871</ele>
        <time>2025-04-25T08:47:12.000Z</time>
      </trkpt>
      <trkpt lat="43.37276" lon="6.1604">
        <ele>373.772804</ele>
        <time>2025-04-25T08:47:13.000Z</time>
      </trkpt>
      <trkpt lat="43.37276" lon="6.1604">
        <ele>373.772804</ele>
        <time>2025-04-25T08:47:13.000Z</time>
      </trkpt>
      <trkpt lat="43.37271" lon="6.16039">
        <ele>374.081349</ele>
        <time>2025-04-25T08:47:14.000Z</time>
      </trkpt>
      <trkpt lat="43.37271" lon="6.16039">
        <ele>374.081349</ele>
        <time>2025-04-25T08:47:14.000Z</time>
      </trkpt>
      <trkpt lat="43.37268" lon="6.16039">
        <ele>374.282889</ele>
        <time>2025-04-25T08:47:15.000Z</time>
      </trkpt>
      <trkpt lat="43.37268" lon="6.16039">
        <ele>374.282889</ele>
        <time>2025-04-25T08:47:15.000Z</time>
      </trkpt>
      <trkpt lat="43.37265" lon="6.16038">
        <ele>374.492218</ele>
        <time>2025-04-25T08:47:16.000Z</time>
      </trkpt>
      <trkpt lat="43.37265" lon="6.16038">
        <ele>374.492218</ele>
        <time>2025-04-25T08:47:16.000Z</time>
      </trkpt>
      <trkpt lat="43.37262" lon="6.16038">
        <ele>374.72086</ele>
        <time>2025-04-25T08:47:17.000Z</time>
      </trkpt>
      <trkpt lat="43.37262" lon="6.16038">
        <ele>374.72086</ele>
        <time>2025-04-25T08:47:17.000Z</time>
      </trkpt>
      <trkpt lat="43.37258" lon="6.16037">
        <ele>374.977911</ele>
        <time>2025-04-25T08:47:18.000Z</time>
      </trkpt>
      <trkpt lat="43.37258" lon="6.16037">
        <ele>374.977911</ele>
        <time>2025-04-25T08:47:18.000Z</time>
      </trkpt>
      <trkpt lat="43.37255" lon="6.16036">
        <ele>375.189764</ele>
        <time>2025-04-25T08:47:19.000Z</time>
      </trkpt>
      <trkpt lat="43.37255" lon="6.16036">
        <ele>375.189764</ele>
        <time>2025-04-25T08:47:19.000Z</time>
      </trkpt>
      <trkpt lat="43.37251" lon="6.16035">
        <ele>375.447596</ele>
        <time>2025-04-25T08:47:20.000Z</time>
      </trkpt>
      <trkpt lat="43.37251" lon="6.16035">
        <ele>375.447596</ele>
        <time>2025-04-25T08:47:20.000Z</time>
      </trkpt>
      <trkpt lat="43.37248" lon="6.16034">
        <ele>375.660505</ele>
        <time>2025-04-25T08:47:21.000Z</time>
      </trkpt>
      <trkpt lat="43.37248" lon="6.16034">
        <ele>375.660505</ele>
        <time>2025-04-25T08:47:21.000Z</time>
      </trkpt>
      <trkpt lat="43.37244" lon="6.16033">
        <ele>375.896469</ele>
        <time>2025-04-25T08:47:22.000Z</time>
      </trkpt>
      <trkpt lat="43.37244" lon="6.16033">
        <ele>375.896469</ele>
        <time>2025-04-25T08:47:22.000Z</time>
      </trkpt>
      <trkpt lat="43.3724" lon="6.16031">
        <ele>376.187878</ele>
        <time>2025-04-25T08:47:22.000Z</time>
      </trkpt>
      <trkpt lat="43.3724" lon="6.16031">
        <ele>376.187878</ele>
        <time>2025-04-25T08:47:22.000Z</time>
      </trkpt>
      <trkpt lat="43.37237" lon="6.16029">
        <ele>376.428159</ele>
        <time>2025-04-25T08:47:23.000Z</time>
      </trkpt>
      <trkpt lat="43.37237" lon="6.16029">
        <ele>376.428159</ele>
        <time>2025-04-25T08:47:23.000Z</time>
      </trkpt>
      <trkpt lat="43.37233" lon="6.16028">
        <ele>376.698515</ele>
        <time>2025-04-25T08:47:24.000Z</time>
      </trkpt>
      <trkpt lat="43.37233" lon="6.16028">
        <ele>376.698515</ele>
        <time>2025-04-25T08:47:24.000Z</time>
      </trkpt>
      <trkpt lat="43.37229" lon="6.16026">
        <ele>376.970569</ele>
        <time>2025-04-25T08:47:25.000Z</time>
      </trkpt>
      <trkpt lat="43.37229" lon="6.16026">
        <ele>376.970569</ele>
        <time>2025-04-25T08:47:25.000Z</time>
      </trkpt>
      <trkpt lat="43.37226" lon="6.16024">
        <ele>377.195563</ele>
        <time>2025-04-25T08:47:26.000Z</time>
      </trkpt>
      <trkpt lat="43.37226" lon="6.16024">
        <ele>377.195563</ele>
        <time>2025-04-25T08:47:26.000Z</time>
      </trkpt>
      <trkpt lat="43.37222" lon="6.16021">
        <ele>377.499668</ele>
        <time>2025-04-25T08:47:27.000Z</time>
      </trkpt>
      <trkpt lat="43.37222" lon="6.16021">
        <ele>377.499668</ele>
        <time>2025-04-25T08:47:27.000Z</time>
      </trkpt>
      <trkpt lat="43.37219" lon="6.16019">
        <ele>377.726989</ele>
        <time>2025-04-25T08:47:29.000Z</time>
      </trkpt>
      <trkpt lat="43.37219" lon="6.16019">
        <ele>377.726989</ele>
        <time>2025-04-25T08:47:29.000Z</time>
      </trkpt>
      <trkpt lat="43.37215" lon="6.16017">
        <ele>377.98041</ele>
        <time>2025-04-25T08:47:30.000Z</time>
      </trkpt>
      <trkpt lat="43.37215" lon="6.16017">
        <ele>377.98041</ele>
        <time>2025-04-25T08:47:30.000Z</time>
      </trkpt>
      <trkpt lat="43.37212" lon="6.16015">
        <ele>378.231649</ele>
        <time>2025-04-25T08:47:31.000Z</time>
      </trkpt>
      <trkpt lat="43.37212" lon="6.16015">
        <ele>378.231649</ele>
        <time>2025-04-25T08:47:31.000Z</time>
      </trkpt>
      <trkpt lat="43.37209" lon="6.16013">
        <ele>378.478908</ele>
        <time>2025-04-25T08:47:32.000Z</time>
      </trkpt>
      <trkpt lat="43.37209" lon="6.16013">
        <ele>378.478908</ele>
        <time>2025-04-25T08:47:32.000Z</time>
      </trkpt>
      <trkpt lat="43.37206" lon="6.16011">
        <ele>378.709963</ele>
        <time>2025-04-25T08:47:33.000Z</time>
      </trkpt>
      <trkpt lat="43.37206" lon="6.16011">
        <ele>378.709963</ele>
        <time>2025-04-25T08:47:33.000Z</time>
      </trkpt>
      <trkpt lat="43.37202" lon="6.16009">
        <ele>378.985641</ele>
        <time>2025-04-25T08:47:34.000Z</time>
      </trkpt>
      <trkpt lat="43.37202" lon="6.16009">
        <ele>378.985641</ele>
        <time>2025-04-25T08:47:34.000Z</time>
      </trkpt>
      <trkpt lat="43.37198" lon="6.16006">
        <ele>379.261319</ele>
        <time>2025-04-25T08:47:35.000Z</time>
      </trkpt>
      <trkpt lat="43.37198" lon="6.16006">
        <ele>379.261319</ele>
        <time>2025-04-25T08:47:35.000Z</time>
      </trkpt>
      <trkpt lat="43.37195" lon="6.16005">
        <ele>379.484469</ele>
        <time>2025-04-25T08:47:36.000Z</time>
      </trkpt>
      <trkpt lat="43.37195" lon="6.16005">
        <ele>379.484469</ele>
        <time>2025-04-25T08:47:36.000Z</time>
      </trkpt>
      <trkpt lat="43.37192" lon="6.16003">
        <ele>379.705306</ele>
        <time>2025-04-25T08:47:37.000Z</time>
      </trkpt>
      <trkpt lat="43.37192" lon="6.16003">
        <ele>379.705306</ele>
        <time>2025-04-25T08:47:37.000Z</time>
      </trkpt>
      <trkpt lat="43.37189" lon="6.16001">
        <ele>379.930301</ele>
        <time>2025-04-25T08:47:38.000Z</time>
      </trkpt>
      <trkpt lat="43.37189" lon="6.16001">
        <ele>379.930301</ele>
        <time>2025-04-25T08:47:38.000Z</time>
      </trkpt>
      <trkpt lat="43.37186" lon="6.15999">
        <ele>380.153215</ele>
        <time>2025-04-25T08:47:39.000Z</time>
      </trkpt>
      <trkpt lat="43.37186" lon="6.15999">
        <ele>380.153215</ele>
        <time>2025-04-25T08:47:39.000Z</time>
      </trkpt>
      <trkpt lat="43.37183" lon="6.15997">
        <ele>380.363047</ele>
        <time>2025-04-25T08:47:39.000Z</time>
      </trkpt>
      <trkpt lat="43.37183" lon="6.15997">
        <ele>380.363047</ele>
        <time>2025-04-25T08:47:39.000Z</time>
      </trkpt>
      <trkpt lat="43.3718" lon="6.15995">
        <ele>380.598559</ele>
        <time>2025-04-25T08:47:41.000Z</time>
      </trkpt>
      <trkpt lat="43.3718" lon="6.15995">
        <ele>380.598559</ele>
        <time>2025-04-25T08:47:41.000Z</time>
      </trkpt>
      <trkpt lat="43.37177" lon="6.15991">
        <ele>380.871306</ele>
        <time>2025-04-25T08:47:42.000Z</time>
      </trkpt>
      <trkpt lat="43.37177" lon="6.15991">
        <ele>380.871306</ele>
        <time>2025-04-25T08:47:42.000Z</time>
      </trkpt>
      <trkpt lat="43.37174" lon="6.15989">
        <ele>381.094505</ele>
        <time>2025-04-25T08:47:43.000Z</time>
      </trkpt>
      <trkpt lat="43.37174" lon="6.15989">
        <ele>381.094505</ele>
        <time>2025-04-25T08:47:43.000Z</time>
      </trkpt>
      <trkpt lat="43.37172" lon="6.15986">
        <ele>381.305087</ele>
        <time>2025-04-25T08:47:43.000Z</time>
      </trkpt>
      <trkpt lat="43.37172" lon="6.15986">
        <ele>381.305087</ele>
        <time>2025-04-25T08:47:43.000Z</time>
      </trkpt>
      <trkpt lat="43.37169" lon="6.15982">
        <ele>381.579517</ele>
        <time>2025-04-25T08:47:45.000Z</time>
      </trkpt>
      <trkpt lat="43.37169" lon="6.15982">
        <ele>381.579517</ele>
        <time>2025-04-25T08:47:45.000Z</time>
      </trkpt>
      <trkpt lat="43.37166" lon="6.15979">
        <ele>381.801735</ele>
        <time>2025-04-25T08:47:46.000Z</time>
      </trkpt>
      <trkpt lat="43.37166" lon="6.15979">
        <ele>381.801735</ele>
        <time>2025-04-25T08:47:46.000Z</time>
      </trkpt>
      <trkpt lat="43.37163" lon="6.15975">
        <ele>382.071149</ele>
        <time>2025-04-25T08:47:47.000Z</time>
      </trkpt>
      <trkpt lat="43.37163" lon="6.15975">
        <ele>382.071149</ele>
        <time>2025-04-25T08:47:47.000Z</time>
      </trkpt>
      <trkpt lat="43.37161" lon="6.15972">
        <ele>382.289885</ele>
        <time>2025-04-25T08:47:48.000Z</time>
      </trkpt>
      <trkpt lat="43.37161" lon="6.15972">
        <ele>382.289885</ele>
        <time>2025-04-25T08:47:48.000Z</time>
      </trkpt>
      <trkpt lat="43.37158" lon="6.15968">
        <ele>382.551667</ele>
        <time>2025-04-25T08:47:49.000Z</time>
      </trkpt>
      <trkpt lat="43.37158" lon="6.15968">
        <ele>382.551667</ele>
        <time>2025-04-25T08:47:49.000Z</time>
      </trkpt>
      <trkpt lat="43.37156" lon="6.15964">
        <ele>382.775847</ele>
        <time>2025-04-25T08:47:50.000Z</time>
      </trkpt>
      <trkpt lat="43.37156" lon="6.15964">
        <ele>382.775847</ele>
        <time>2025-04-25T08:47:50.000Z</time>
      </trkpt>
      <trkpt lat="43.37154" lon="6.1596">
        <ele>383.012185</ele>
        <time>2025-04-25T08:47:51.000Z</time>
      </trkpt>
      <trkpt lat="43.37154" lon="6.1596">
        <ele>383.012185</ele>
        <time>2025-04-25T08:47:51.000Z</time>
      </trkpt>
      <trkpt lat="43.37153" lon="6.15955">
        <ele>383.273586</ele>
        <time>2025-04-25T08:47:52.000Z</time>
      </trkpt>
      <trkpt lat="43.37153" lon="6.15955">
        <ele>383.273586</ele>
        <time>2025-04-25T08:47:52.000Z</time>
      </trkpt>
      <trkpt lat="43.37151" lon="6.15951">
        <ele>383.497767</ele>
        <time>2025-04-25T08:47:53.000Z</time>
      </trkpt>
      <trkpt lat="43.37151" lon="6.15951">
        <ele>383.497767</ele>
        <time>2025-04-25T08:47:53.000Z</time>
      </trkpt>
      <trkpt lat="43.37149" lon="6.15948">
        <ele>383.721947</ele>
        <time>2025-04-25T08:47:54.000Z</time>
      </trkpt>
      <trkpt lat="43.37149" lon="6.15948">
        <ele>383.721947</ele>
        <time>2025-04-25T08:47:54.000Z</time>
      </trkpt>
      <trkpt lat="43.37147" lon="6.15944">
        <ele>384.133214</ele>
        <time>2025-04-25T08:47:55.000Z</time>
      </trkpt>
      <trkpt lat="43.37147" lon="6.15944">
        <ele>384.133214</ele>
        <time>2025-04-25T08:47:55.000Z</time>
      </trkpt>
      <trkpt lat="43.37145" lon="6.1594">
        <ele>384.556495</ele>
        <time>2025-04-25T08:47:56.000Z</time>
      </trkpt>
      <trkpt lat="43.37145" lon="6.1594">
        <ele>384.556495</ele>
        <time>2025-04-25T08:47:56.000Z</time>
      </trkpt>
      <trkpt lat="43.37143" lon="6.15936">
        <ele>385.068146</ele>
        <time>2025-04-25T08:47:57.000Z</time>
      </trkpt>
      <trkpt lat="43.37143" lon="6.15936">
        <ele>385.068146</ele>
        <time>2025-04-25T08:47:57.000Z</time>
      </trkpt>
      <trkpt lat="43.37142" lon="6.15932">
        <ele>385.497831</ele>
        <time>2025-04-25T08:47:58.000Z</time>
      </trkpt>
      <trkpt lat="43.37142" lon="6.15932">
        <ele>385.497831</ele>
        <time>2025-04-25T08:47:58.000Z</time>
      </trkpt>
      <trkpt lat="43.37141" lon="6.15927">
        <ele>386.002503</ele>
        <time>2025-04-25T08:47:59.000Z</time>
      </trkpt>
      <trkpt lat="43.37141" lon="6.15927">
        <ele>386.002503</ele>
        <time>2025-04-25T08:47:59.000Z</time>
      </trkpt>
      <trkpt lat="43.3714" lon="6.15922">
        <ele>386.553974</ele>
        <time>2025-04-25T08:48:00.000Z</time>
      </trkpt>
      <trkpt lat="43.3714" lon="6.15922">
        <ele>386.553974</ele>
        <time>2025-04-25T08:48:00.000Z</time>
      </trkpt>
      <trkpt lat="43.37139" lon="6.15917">
        <ele>386.980853</ele>
        <time>2025-04-25T08:48:01.000Z</time>
      </trkpt>
      <trkpt lat="43.37139" lon="6.15917">
        <ele>386.980853</ele>
        <time>2025-04-25T08:48:01.000Z</time>
      </trkpt>
      <trkpt lat="43.37138" lon="6.15913">
        <ele>387.392148</ele>
        <time>2025-04-25T08:48:02.000Z</time>
      </trkpt>
      <trkpt lat="43.37138" lon="6.15913">
        <ele>387.392148</ele>
        <time>2025-04-25T08:48:02.000Z</time>
      </trkpt>
      <trkpt lat="43.37137" lon="6.15909">
        <ele>387.835837</ele>
        <time>2025-04-25T08:48:03.000Z</time>
      </trkpt>
      <trkpt lat="43.37137" lon="6.15909">
        <ele>387.835837</ele>
        <time>2025-04-25T08:48:03.000Z</time>
      </trkpt>
      <trkpt lat="43.37136" lon="6.15906">
        <ele>388.183269</ele>
        <time>2025-04-25T08:48:04.000Z</time>
      </trkpt>
      <trkpt lat="43.37136" lon="6.15906">
        <ele>388.183269</ele>
        <time>2025-04-25T08:48:04.000Z</time>
      </trkpt>
      <trkpt lat="43.37135" lon="6.15902">
        <ele>388.572655</ele>
        <time>2025-04-25T08:48:05.000Z</time>
      </trkpt>
      <trkpt lat="43.37135" lon="6.15902">
        <ele>388.572655</ele>
        <time>2025-04-25T08:48:05.000Z</time>
      </trkpt>
      <trkpt lat="43.37134" lon="6.15898">
        <ele>388.986731</ele>
        <time>2025-04-25T08:48:06.000Z</time>
      </trkpt>
      <trkpt lat="43.37134" lon="6.15898">
        <ele>388.986731</ele>
        <time>2025-04-25T08:48:06.000Z</time>
      </trkpt>
      <trkpt lat="43.37133" lon="6.15894">
        <ele>389.457995</ele>
        <time>2025-04-25T08:48:07.000Z</time>
      </trkpt>
      <trkpt lat="43.37133" lon="6.15894">
        <ele>389.457995</ele>
        <time>2025-04-25T08:48:07.000Z</time>
      </trkpt>
      <trkpt lat="43.37132" lon="6.1589">
        <ele>389.872071</ele>
        <time>2025-04-25T08:48:08.000Z</time>
      </trkpt>
      <trkpt lat="43.37132" lon="6.1589">
        <ele>389.872071</ele>
        <time>2025-04-25T08:48:08.000Z</time>
      </trkpt>
      <trkpt lat="43.37131" lon="6.15886">
        <ele>390.270415</ele>
        <time>2025-04-25T08:48:08.000Z</time>
      </trkpt>
      <trkpt lat="43.37131" lon="6.15886">
        <ele>390.270415</ele>
        <time>2025-04-25T08:48:08.000Z</time>
      </trkpt>
      <trkpt lat="43.3713" lon="6.15884">
        <ele>390.532944</ele>
        <time>2025-04-25T08:48:09.000Z</time>
      </trkpt>
      <trkpt lat="43.3713" lon="6.15884">
        <ele>390.532944</ele>
        <time>2025-04-25T08:48:09.000Z</time>
      </trkpt>
      <trkpt lat="43.37128" lon="6.15881">
        <ele>390.838914</ele>
        <time>2025-04-25T08:48:10.000Z</time>
      </trkpt>
      <trkpt lat="43.37128" lon="6.15881">
        <ele>390.838914</ele>
        <time>2025-04-25T08:48:10.000Z</time>
      </trkpt>
      <trkpt lat="43.37127" lon="6.15879">
        <ele>391.121451</ele>
        <time>2025-04-25T08:48:12.000Z</time>
      </trkpt>
      <trkpt lat="43.37127" lon="6.15879">
        <ele>391.121451</ele>
        <time>2025-04-25T08:48:12.000Z</time>
      </trkpt>
      <trkpt lat="43.37124" lon="6.15877">
        <ele>391.647588</ele>
        <time>2025-04-25T08:48:14.000Z</time>
      </trkpt>
      <trkpt lat="43.37124" lon="6.15877">
        <ele>391.647588</ele>
        <time>2025-04-25T08:48:14.000Z</time>
      </trkpt>
      <trkpt lat="43.37122" lon="6.15877">
        <ele>391.81019</ele>
        <time>2025-04-25T08:48:15.000Z</time>
      </trkpt>
      <trkpt lat="43.37122" lon="6.15877">
        <ele>391.81019</ele>
        <time>2025-04-25T08:48:15.000Z</time>
      </trkpt>
      <trkpt lat="43.37121" lon="6.15877">
        <ele>392.016848</ele>
        <time>2025-04-25T08:48:15.000Z</time>
      </trkpt>
      <trkpt lat="43.37121" lon="6.15877">
        <ele>392.016848</ele>
        <time>2025-04-25T08:48:15.000Z</time>
      </trkpt>
      <trkpt lat="43.37119" lon="6.15878">
        <ele>392.291996</ele>
        <time>2025-04-25T08:48:17.000Z</time>
      </trkpt>
      <trkpt lat="43.37117" lon="6.1588">
        <ele>392.593304</ele>
        <time>2025-04-25T08:48:18.000Z</time>
      </trkpt>
      <trkpt lat="43.37117" lon="6.1588">
        <ele>392.593304</ele>
        <time>2025-04-25T08:48:18.000Z</time>
      </trkpt>
      <trkpt lat="43.37115" lon="6.15881">
        <ele>392.916728</ele>
        <time>2025-04-25T08:48:19.000Z</time>
      </trkpt>
      <trkpt lat="43.37113" lon="6.15881">
        <ele>393.173899</ele>
        <time>2025-04-25T08:48:20.000Z</time>
      </trkpt>
      <trkpt lat="43.37113" lon="6.15881">
        <ele>393.173899</ele>
        <time>2025-04-25T08:48:20.000Z</time>
      </trkpt>
      <trkpt lat="43.37111" lon="6.1588">
        <ele>393.442649</ele>
        <time>2025-04-25T08:48:21.000Z</time>
      </trkpt>
      <trkpt lat="43.37111" lon="6.15878">
        <ele>393.656089</ele>
        <time>2025-04-25T08:48:22.000Z</time>
      </trkpt>
      <trkpt lat="43.37111" lon="6.15878">
        <ele>393.656089</ele>
        <time>2025-04-25T08:48:22.000Z</time>
      </trkpt>
      <trkpt lat="43.37109" lon="6.15874">
        <ele>394.040036</ele>
        <time>2025-04-25T08:48:23.000Z</time>
      </trkpt>
      <trkpt lat="43.37109" lon="6.15874">
        <ele>394.040036</ele>
        <time>2025-04-25T08:48:23.000Z</time>
      </trkpt>
      <trkpt lat="43.37109" lon="6.15871">
        <ele>394.419567</ele>
        <time>2025-04-25T08:48:24.000Z</time>
      </trkpt>
      <trkpt lat="43.37109" lon="6.15871">
        <ele>394.419567</ele>
        <time>2025-04-25T08:48:24.000Z</time>
      </trkpt>
      <trkpt lat="43.37108" lon="6.15866">
        <ele>394.826289</ele>
        <time>2025-04-25T08:48:25.000Z</time>
      </trkpt>
      <trkpt lat="43.37109" lon="6.15863">
        <ele>395.164924</ele>
        <time>2025-04-25T08:48:26.000Z</time>
      </trkpt>
      <trkpt lat="43.37109" lon="6.15863">
        <ele>395.164924</ele>
        <time>2025-04-25T08:48:26.000Z</time>
      </trkpt>
      <trkpt lat="43.37109" lon="6.15858">
        <ele>395.668286</ele>
        <time>2025-04-25T08:48:27.000Z</time>
      </trkpt>
      <trkpt lat="43.37109" lon="6.15858">
        <ele>395.668286</ele>
        <time>2025-04-25T08:48:27.000Z</time>
      </trkpt>
      <trkpt lat="43.3711" lon="6.15854">
        <ele>396.111128</ele>
        <time>2025-04-25T08:48:28.000Z</time>
      </trkpt>
      <trkpt lat="43.3711" lon="6.15854">
        <ele>396.111128</ele>
        <time>2025-04-25T08:48:28.000Z</time>
      </trkpt>
      <trkpt lat="43.37111" lon="6.15849">
        <ele>396.537348</ele>
        <time>2025-04-25T08:48:29.000Z</time>
      </trkpt>
      <trkpt lat="43.37111" lon="6.15849">
        <ele>396.537348</ele>
        <time>2025-04-25T08:48:29.000Z</time>
      </trkpt>
      <trkpt lat="43.37111" lon="6.15846">
        <ele>396.885691</ele>
        <time>2025-04-25T08:48:29.000Z</time>
      </trkpt>
      <trkpt lat="43.37111" lon="6.15846">
        <ele>396.885691</ele>
        <time>2025-04-25T08:48:29.000Z</time>
      </trkpt>
      <trkpt lat="43.37111" lon="6.15842">
        <ele>397.259303</ele>
        <time>2025-04-25T08:48:31.000Z</time>
      </trkpt>
      <trkpt lat="43.37111" lon="6.15842">
        <ele>397.259303</ele>
        <time>2025-04-25T08:48:31.000Z</time>
      </trkpt>
      <trkpt lat="43.37111" lon="6.15838">
        <ele>397.623083</ele>
        <time>2025-04-25T08:48:31.000Z</time>
      </trkpt>
      <trkpt lat="43.37111" lon="6.15838">
        <ele>397.623083</ele>
        <time>2025-04-25T08:48:31.000Z</time>
      </trkpt>
      <trkpt lat="43.37111" lon="6.15834">
        <ele>398.098105</ele>
        <time>2025-04-25T08:48:33.000Z</time>
      </trkpt>
      <trkpt lat="43.37111" lon="6.15834">
        <ele>398.098105</ele>
        <time>2025-04-25T08:48:33.000Z</time>
      </trkpt>
      <trkpt lat="43.3711" lon="6.1583">
        <ele>398.456164</ele>
        <time>2025-04-25T08:48:34.000Z</time>
      </trkpt>
      <trkpt lat="43.3711" lon="6.1583">
        <ele>398.456164</ele>
        <time>2025-04-25T08:48:34.000Z</time>
      </trkpt>
      <trkpt lat="43.3711" lon="6.15826">
        <ele>398.869104</ele>
        <time>2025-04-25T08:48:34.000Z</time>
      </trkpt>
      <trkpt lat="43.3711" lon="6.15826">
        <ele>398.869104</ele>
        <time>2025-04-25T08:48:34.000Z</time>
      </trkpt>
      <trkpt lat="43.3711" lon="6.15822">
        <ele>399.274249</ele>
        <time>2025-04-25T08:48:36.000Z</time>
      </trkpt>
      <trkpt lat="43.3711" lon="6.15822">
        <ele>399.274249</ele>
        <time>2025-04-25T08:48:36.000Z</time>
      </trkpt>
      <trkpt lat="43.37109" lon="6.15819">
        <ele>399.52593</ele>
        <time>2025-04-25T08:48:37.000Z</time>
      </trkpt>
      <trkpt lat="43.37109" lon="6.15819">
        <ele>399.52593</ele>
        <time>2025-04-25T08:48:37.000Z</time>
      </trkpt>
      <trkpt lat="43.37109" lon="6.15815">
        <ele>399.899542</ele>
        <time>2025-04-25T08:48:37.000Z</time>
      </trkpt>
      <trkpt lat="43.37109" lon="6.15815">
        <ele>399.899542</ele>
        <time>2025-04-25T08:48:37.000Z</time>
      </trkpt>
      <trkpt lat="43.37109" lon="6.15812">
        <ele>400.267323</ele>
        <time>2025-04-25T08:48:39.000Z</time>
      </trkpt>
      <trkpt lat="43.37109" lon="6.15812">
        <ele>400.267323</ele>
        <time>2025-04-25T08:48:39.000Z</time>
      </trkpt>
      <trkpt lat="43.37109" lon="6.15809">
        <ele>400.522953</ele>
        <time>2025-04-25T08:48:39.000Z</time>
      </trkpt>
      <trkpt lat="43.37109" lon="6.15809">
        <ele>400.522953</ele>
        <time>2025-04-25T08:48:39.000Z</time>
      </trkpt>
      <trkpt lat="43.37109" lon="6.15807">
        <ele>400.690095</ele>
        <time>2025-04-25T08:48:41.000Z</time>
      </trkpt>
      <trkpt lat="43.37109" lon="6.15807">
        <ele>400.690095</ele>
        <time>2025-04-25T08:48:41.000Z</time>
      </trkpt>
      <trkpt lat="43.37109" lon="6.15805">
        <ele>400.92261</ele>
        <time>2025-04-25T08:48:42.000Z</time>
      </trkpt>
      <trkpt lat="43.37109" lon="6.15805">
        <ele>400.92261</ele>
        <time>2025-04-25T08:48:42.000Z</time>
      </trkpt>
      <trkpt lat="43.37108" lon="6.15803">
        <ele>401.126555</ele>
        <time>2025-04-25T08:48:43.000Z</time>
      </trkpt>
      <trkpt lat="43.37108" lon="6.15803">
        <ele>401.126555</ele>
        <time>2025-04-25T08:48:43.000Z</time>
      </trkpt>
      <trkpt lat="43.37108" lon="6.15801">
        <ele>401.293697</ele>
        <time>2025-04-25T08:48:44.000Z</time>
      </trkpt>
      <trkpt lat="43.37108" lon="6.15801">
        <ele>401.293697</ele>
        <time>2025-04-25T08:48:44.000Z</time>
      </trkpt>
      <trkpt lat="43.37108" lon="6.158">
        <ele>401.441176</ele>
        <time>2025-04-25T08:48:45.000Z</time>
      </trkpt>
      <trkpt lat="43.37109" lon="6.15798">
        <ele>401.683032</ele>
        <time>2025-04-25T08:48:46.000Z</time>
      </trkpt>
      <trkpt lat="43.37109" lon="6.15798">
        <ele>401.683032</ele>
        <time>2025-04-25T08:48:46.000Z</time>
      </trkpt>
      <trkpt lat="43.3711" lon="6.15792">
        <ele>402.215499</ele>
        <time>2025-04-25T08:48:47.000Z</time>
      </trkpt>
      <trkpt lat="43.3711" lon="6.15792">
        <ele>402.215499</ele>
        <time>2025-04-25T08:48:47.000Z</time>
      </trkpt>
      <trkpt lat="43.37111" lon="6.15789">
        <ele>402.557518</ele>
        <time>2025-04-25T08:48:48.000Z</time>
      </trkpt>
      <trkpt lat="43.37111" lon="6.15789">
        <ele>402.557518</ele>
        <time>2025-04-25T08:48:48.000Z</time>
      </trkpt>
      <trkpt lat="43.37111" lon="6.15787">
        <ele>402.790034</ele>
        <time>2025-04-25T08:48:49.000Z</time>
      </trkpt>
      <trkpt lat="43.37111" lon="6.15787">
        <ele>402.790034</ele>
        <time>2025-04-25T08:48:49.000Z</time>
      </trkpt>
      <trkpt lat="43.37112" lon="6.15785">
        <ele>403.012999</ele>
        <time>2025-04-25T08:48:50.000Z</time>
      </trkpt>
      <trkpt lat="43.37112" lon="6.15785">
        <ele>403.012999</ele>
        <time>2025-04-25T08:48:50.000Z</time>
      </trkpt>
      <trkpt lat="43.37112" lon="6.15782">
        <ele>403.239132</ele>
        <time>2025-04-25T08:48:50.000Z</time>
      </trkpt>
      <trkpt lat="43.37112" lon="6.15782">
        <ele>403.239132</ele>
        <time>2025-04-25T08:48:50.000Z</time>
      </trkpt>
      <trkpt lat="43.37112" lon="6.1578">
        <ele>403.43577</ele>
        <time>2025-04-25T08:48:51.000Z</time>
      </trkpt>
      <trkpt lat="43.37112" lon="6.1578">
        <ele>403.43577</ele>
        <time>2025-04-25T08:48:51.000Z</time>
      </trkpt>
      <trkpt lat="43.37112" lon="6.15777">
        <ele>403.811579</ele>
        <time>2025-04-25T08:48:52.000Z</time>
      </trkpt>
      <trkpt lat="43.37112" lon="6.15777">
        <ele>403.811579</ele>
        <time>2025-04-25T08:48:52.000Z</time>
      </trkpt>
      <trkpt lat="43.37112" lon="6.15777">
        <ele>403.811579</ele>
        <time>2025-04-25T08:48:53.000Z</time>
      </trkpt>
      <trkpt lat="43.37112" lon="6.15772">
        <ele>404.304846</ele>
        <time>2025-04-25T08:48:55.000Z</time>
      </trkpt>
      <trkpt lat="43.37112" lon="6.15772">
        <ele>404.304846</ele>
        <time>2025-04-25T08:48:55.000Z</time>
      </trkpt>
      <trkpt lat="43.37111" lon="6.15771">
        <ele>404.384889</ele>
        <time>2025-04-25T08:48:56.000Z</time>
      </trkpt>
      <trkpt lat="43.37111" lon="6.15769">
        <ele>404.567804</ele>
        <time>2025-04-25T08:48:57.000Z</time>
      </trkpt>
      <trkpt lat="43.3711" lon="6.15767">
        <ele>404.786048</ele>
        <time>2025-04-25T08:48:57.000Z</time>
      </trkpt>
      <trkpt lat="43.3711" lon="6.15767">
        <ele>404.786048</ele>
        <time>2025-04-25T08:48:57.000Z</time>
      </trkpt>
      <trkpt lat="43.37109" lon="6.15765">
        <ele>405.009013</ele>
        <time>2025-04-25T08:48:59.000Z</time>
      </trkpt>
      <trkpt lat="43.37109" lon="6.15765">
        <ele>405.009013</ele>
        <time>2025-04-25T08:48:59.000Z</time>
      </trkpt>
      <trkpt lat="43.37109" lon="6.15763">
        <ele>405.241528</ele>
        <time>2025-04-25T08:49:00.000Z</time>
      </trkpt>
      <trkpt lat="43.37109" lon="6.15763">
        <ele>405.241528</ele>
        <time>2025-04-25T08:49:00.000Z</time>
      </trkpt>
      <trkpt lat="43.37109" lon="6.15759">
        <ele>405.6643</ele>
        <time>2025-04-25T08:49:00.000Z</time>
      </trkpt>
      <trkpt lat="43.37109" lon="6.15759">
        <ele>405.6643</ele>
        <time>2025-04-25T08:49:00.000Z</time>
      </trkpt>
      <trkpt lat="43.37109" lon="6.15756">
        <ele>405.954512</ele>
        <time>2025-04-25T08:49:01.000Z</time>
      </trkpt>
      <trkpt lat="43.37109" lon="6.15756">
        <ele>405.954512</ele>
        <time>2025-04-25T08:49:01.000Z</time>
      </trkpt>
      <trkpt lat="43.3711" lon="6.15753">
        <ele>406.217914</ele>
        <time>2025-04-25T08:49:02.000Z</time>
      </trkpt>
      <trkpt lat="43.3711" lon="6.15753">
        <ele>406.217914</ele>
        <time>2025-04-25T08:49:02.000Z</time>
      </trkpt>
      <trkpt lat="43.3711" lon="6.15751">
        <ele>406.394888</ele>
        <time>2025-04-25T08:49:04.000Z</time>
      </trkpt>
      <trkpt lat="43.37111" lon="6.15747">
        <ele>406.884662</ele>
        <time>2025-04-25T08:49:06.000Z</time>
      </trkpt>
      <trkpt lat="43.37111" lon="6.15747">
        <ele>406.884662</ele>
        <time>2025-04-25T08:49:06.000Z</time>
      </trkpt>
      <trkpt lat="43.37111" lon="6.15745">
        <ele>407.012476</ele>
        <time>2025-04-25T08:49:06.000Z</time>
      </trkpt>
      <trkpt lat="43.37111" lon="6.15744">
        <ele>407.169787</ele>
        <time>2025-04-25T08:49:07.000Z</time>
      </trkpt>
      <trkpt lat="43.37111" lon="6.15742">
        <ele>407.346761</ele>
        <time>2025-04-25T08:49:09.000Z</time>
      </trkpt>
      <trkpt lat="43.37112" lon="6.1574">
        <ele>407.560201</ele>
        <time>2025-04-25T08:49:09.000Z</time>
      </trkpt>
      <trkpt lat="43.37114" lon="6.15727">
        <ele>409.00674</ele>
        <time>2025-04-25T08:49:44.000Z</time>
      </trkpt>
      <trkpt lat="43.37114" lon="6.15727">
        <ele>409.00674</ele>
        <time>2025-04-25T08:49:44.000Z</time>
      </trkpt>
      <trkpt lat="43.37114" lon="6.15726">
        <ele>409.105307</ele>
        <time>2025-04-25T08:49:45.000Z</time>
      </trkpt>
      <trkpt lat="43.37114" lon="6.15725">
        <ele>409.177077</ele>
        <time>2025-04-25T08:49:46.000Z</time>
      </trkpt>
      <trkpt lat="43.37114" lon="6.15725">
        <ele>409.177077</ele>
        <time>2025-04-25T08:49:46.000Z</time>
      </trkpt>
      <trkpt lat="43.37115" lon="6.15724">
        <ele>409.401263</ele>
        <time>2025-04-25T08:49:47.000Z</time>
      </trkpt>
      <trkpt lat="43.37116" lon="6.15722">
        <ele>409.567787</ele>
        <time>2025-04-25T08:49:48.000Z</time>
      </trkpt>
      <trkpt lat="43.37116" lon="6.15722">
        <ele>409.567787</ele>
        <time>2025-04-25T08:49:48.000Z</time>
      </trkpt>
      <trkpt lat="43.37116" lon="6.15721">
        <ele>409.678488</ele>
        <time>2025-04-25T08:49:48.000Z</time>
      </trkpt>
      <trkpt lat="43.37116" lon="6.15721">
        <ele>409.678488</ele>
        <time>2025-04-25T08:49:48.000Z</time>
      </trkpt>
      <trkpt lat="43.37116" lon="6.15721">
        <ele>409.777055</ele>
        <time>2025-04-25T08:49:49.000Z</time>
      </trkpt>
      <trkpt lat="43.37116" lon="6.15719">
        <ele>409.917534</ele>
        <time>2025-04-25T08:49:51.000Z</time>
      </trkpt>
      <trkpt lat="43.37116" lon="6.15719">
        <ele>409.917534</ele>
        <time>2025-04-25T08:49:51.000Z</time>
      </trkpt>
      <trkpt lat="43.37117" lon="6.15716">
        <ele>410.345923</ele>
        <time>2025-04-25T08:49:52.000Z</time>
      </trkpt>
      <trkpt lat="43.37117" lon="6.15716">
        <ele>410.345923</ele>
        <time>2025-04-25T08:49:52.000Z</time>
      </trkpt>
      <trkpt lat="43.37118" lon="6.15713">
        <ele>410.663258</ele>
        <time>2025-04-25T08:49:53.000Z</time>
      </trkpt>
      <trkpt lat="43.37118" lon="6.15713">
        <ele>410.663258</ele>
        <time>2025-04-25T08:49:53.000Z</time>
      </trkpt>
      <trkpt lat="43.37119" lon="6.1571">
        <ele>410.979151</ele>
        <time>2025-04-25T08:49:54.000Z</time>
      </trkpt>
      <trkpt lat="43.37119" lon="6.1571">
        <ele>410.979151</ele>
        <time>2025-04-25T08:49:54.000Z</time>
      </trkpt>
      <trkpt lat="43.37119" lon="6.1571">
        <ele>410.979151</ele>
        <time>2025-04-25T08:49:55.000Z</time>
      </trkpt>
      <trkpt lat="43.37118" lon="6.15706">
        <ele>411.437097</ele>
        <time>2025-04-25T08:49:56.000Z</time>
      </trkpt>
      <trkpt lat="43.37118" lon="6.15706">
        <ele>411.437097</ele>
        <time>2025-04-25T08:49:56.000Z</time>
      </trkpt>
      <trkpt lat="43.37118" lon="6.15706">
        <ele>411.514588</ele>
        <time>2025-04-25T08:49:57.000Z</time>
      </trkpt>
      <trkpt lat="43.37118" lon="6.15705">
        <ele>411.624194</ele>
        <time>2025-04-25T08:49:58.000Z</time>
      </trkpt>
      <trkpt lat="43.37117" lon="6.15703">
        <ele>411.804443</ele>
        <time>2025-04-25T08:49:59.000Z</time>
      </trkpt>
      <trkpt lat="43.37116" lon="6.15702">
        <ele>411.984692</ele>
        <time>2025-04-25T08:50:00.000Z</time>
      </trkpt>
      <trkpt lat="43.37115" lon="6.15701">
        <ele>412.228483</ele>
        <time>2025-04-25T08:50:01.000Z</time>
      </trkpt>
      <trkpt lat="43.37114" lon="6.15699">
        <ele>412.554405</ele>
        <time>2025-04-25T08:50:02.000Z</time>
      </trkpt>
      <trkpt lat="43.37112" lon="6.15696">
        <ele>412.931517</ele>
        <time>2025-04-25T08:50:03.000Z</time>
      </trkpt>
      <trkpt lat="43.37111" lon="6.15691">
        <ele>413.520423</ele>
        <time>2025-04-25T08:50:25.000Z</time>
      </trkpt>
      <trkpt lat="43.37111" lon="6.15691">
        <ele>413.520423</ele>
        <time>2025-04-25T08:50:25.000Z</time>
      </trkpt>
      <trkpt lat="43.37111" lon="6.15691">
        <ele>413.520423</ele>
        <time>2025-04-25T08:50:26.000Z</time>
      </trkpt>
      <trkpt lat="43.37111" lon="6.15691">
        <ele>413.520423</ele>
        <time>2025-04-25T08:50:27.000Z</time>
      </trkpt>
      <trkpt lat="43.37111" lon="6.15684">
        <ele>414.328545</ele>
        <time>2025-04-25T08:50:33.000Z</time>
      </trkpt>
      <trkpt lat="43.37111" lon="6.15684">
        <ele>414.328545</ele>
        <time>2025-04-25T08:50:33.000Z</time>
      </trkpt>
      <trkpt lat="43.37111" lon="6.15684">
        <ele>414.328545</ele>
        <time>2025-04-25T08:50:37.000Z</time>
      </trkpt>
      <trkpt lat="43.37111" lon="6.15684">
        <ele>414.328545</ele>
        <time>2025-04-25T08:50:39.000Z</time>
      </trkpt>
      <trkpt lat="43.37111" lon="6.15684">
        <ele>414.328545</ele>
        <time>2025-04-25T08:50:43.000Z</time>
      </trkpt>
      <trkpt lat="43.37112" lon="6.1568">
        <ele>414.787896</ele>
        <time>2025-04-25T08:50:45.000Z</time>
      </trkpt>
      <trkpt lat="43.37113" lon="6.15679">
        <ele>414.878021</ele>
        <time>2025-04-25T08:50:46.000Z</time>
      </trkpt>
      <trkpt lat="43.37113" lon="6.15679">
        <ele>414.878021</ele>
        <time>2025-04-25T08:50:46.000Z</time>
      </trkpt>
      <trkpt lat="43.37113" lon="6.15678">
        <ele>415.024163</ele>
        <time>2025-04-25T08:50:46.000Z</time>
      </trkpt>
      <trkpt lat="43.37113" lon="6.15678">
        <ele>415.024163</ele>
        <time>2025-04-25T08:50:46.000Z</time>
      </trkpt>
      <trkpt lat="43.37113" lon="6.15677">
        <ele>415.131652</ele>
        <time>2025-04-25T08:50:48.000Z</time>
      </trkpt>
      <trkpt lat="43.37113" lon="6.15677">
        <ele>415.131652</ele>
        <time>2025-04-25T08:50:48.000Z</time>
      </trkpt>
      <trkpt lat="43.37112" lon="6.15676">
        <ele>415.287925</ele>
        <time>2025-04-25T08:50:49.000Z</time>
      </trkpt>
      <trkpt lat="43.37112" lon="6.15676">
        <ele>415.287925</ele>
        <time>2025-04-25T08:50:49.000Z</time>
      </trkpt>
      <trkpt lat="43.37112" lon="6.15672">
        <ele>415.711165</ele>
        <time>2025-04-25T08:50:49.000Z</time>
      </trkpt>
      <trkpt lat="43.37112" lon="6.15672">
        <ele>415.711165</ele>
        <time>2025-04-25T08:50:49.000Z</time>
      </trkpt>
      <trkpt lat="43.37111" lon="6.1567">
        <ele>416.061499</ele>
        <time>2025-04-25T08:50:51.000Z</time>
      </trkpt>
      <trkpt lat="43.37111" lon="6.1567">
        <ele>416.061499</ele>
        <time>2025-04-25T08:50:51.000Z</time>
      </trkpt>
      <trkpt lat="43.3711" lon="6.15668">
        <ele>416.259305</ele>
        <time>2025-04-25T08:50:52.000Z</time>
      </trkpt>
      <trkpt lat="43.3711" lon="6.15668">
        <ele>416.259305</ele>
        <time>2025-04-25T08:50:52.000Z</time>
      </trkpt>
      <trkpt lat="43.3711" lon="6.15666">
        <ele>416.485373</ele>
        <time>2025-04-25T08:50:53.000Z</time>
      </trkpt>
      <trkpt lat="43.3711" lon="6.15666">
        <ele>416.485373</ele>
        <time>2025-04-25T08:50:53.000Z</time>
      </trkpt>
      <trkpt lat="43.37109" lon="6.15664">
        <ele>416.736419</ele>
        <time>2025-04-25T08:50:54.000Z</time>
      </trkpt>
      <trkpt lat="43.37109" lon="6.15664">
        <ele>416.736419</ele>
        <time>2025-04-25T08:50:54.000Z</time>
      </trkpt>
      <trkpt lat="43.37109" lon="6.15662">
        <ele>416.957822</ele>
        <time>2025-04-25T08:50:55.000Z</time>
      </trkpt>
      <trkpt lat="43.37109" lon="6.15662">
        <ele>416.957822</ele>
        <time>2025-04-25T08:50:55.000Z</time>
      </trkpt>
      <trkpt lat="43.37109" lon="6.15659">
        <ele>417.245646</ele>
        <time>2025-04-25T08:50:56.000Z</time>
      </trkpt>
      <trkpt lat="43.37109" lon="6.15659">
        <ele>417.245646</ele>
        <time>2025-04-25T08:50:56.000Z</time>
      </trkpt>
      <trkpt lat="43.37109" lon="6.15657">
        <ele>417.529025</ele>
        <time>2025-04-25T08:50:57.000Z</time>
      </trkpt>
      <trkpt lat="43.37109" lon="6.15657">
        <ele>417.529025</ele>
        <time>2025-04-25T08:50:57.000Z</time>
      </trkpt>
      <trkpt lat="43.37108" lon="6.15654">
        <ele>417.917824</ele>
        <time>2025-04-25T08:50:58.000Z</time>
      </trkpt>
      <trkpt lat="43.37108" lon="6.15654">
        <ele>417.917824</ele>
        <time>2025-04-25T08:50:58.000Z</time>
      </trkpt>
      <trkpt lat="43.37107" lon="6.15651">
        <ele>418.193853</ele>
        <time>2025-04-25T08:50:59.000Z</time>
      </trkpt>
      <trkpt lat="43.37107" lon="6.15651">
        <ele>418.193853</ele>
        <time>2025-04-25T08:50:59.000Z</time>
      </trkpt>
      <trkpt lat="43.37106" lon="6.15649">
        <ele>418.46617</ele>
        <time>2025-04-25T08:51:00.000Z</time>
      </trkpt>
      <trkpt lat="43.37106" lon="6.15649">
        <ele>418.46617</ele>
        <time>2025-04-25T08:51:00.000Z</time>
      </trkpt>
      <trkpt lat="43.37106" lon="6.15646">
        <ele>418.773101</ele>
        <time>2025-04-25T08:51:01.000Z</time>
      </trkpt>
      <trkpt lat="43.37106" lon="6.15646">
        <ele>418.773101</ele>
        <time>2025-04-25T08:51:01.000Z</time>
      </trkpt>
      <trkpt lat="43.37105" lon="6.15644">
        <ele>419.045417</ele>
        <time>2025-04-25T08:51:02.000Z</time>
      </trkpt>
      <trkpt lat="43.37105" lon="6.15644">
        <ele>419.045417</ele>
        <time>2025-04-25T08:51:02.000Z</time>
      </trkpt>
      <trkpt lat="43.37104" lon="6.15642">
        <ele>419.327678</ele>
        <time>2025-04-25T08:51:03.000Z</time>
      </trkpt>
      <trkpt lat="43.37104" lon="6.15642">
        <ele>419.327678</ele>
        <time>2025-04-25T08:51:03.000Z</time>
      </trkpt>
      <trkpt lat="43.37103" lon="6.15639">
        <ele>419.660701</ele>
        <time>2025-04-25T08:51:03.000Z</time>
      </trkpt>
      <trkpt lat="43.37103" lon="6.15639">
        <ele>419.660701</ele>
        <time>2025-04-25T08:51:03.000Z</time>
      </trkpt>
      <trkpt lat="43.37101" lon="6.15637">
        <ele>420.019553</ele>
        <time>2025-04-25T08:51:05.000Z</time>
      </trkpt>
      <trkpt lat="43.37101" lon="6.15637">
        <ele>420.019553</ele>
        <time>2025-04-25T08:51:05.000Z</time>
      </trkpt>
      <trkpt lat="43.37101" lon="6.15635">
        <ele>420.243739</ele>
        <time>2025-04-25T08:51:06.000Z</time>
      </trkpt>
      <trkpt lat="43.371" lon="6.15633">
        <ele>420.504061</ele>
        <time>2025-04-25T08:51:07.000Z</time>
      </trkpt>
      <trkpt lat="43.371" lon="6.15633">
        <ele>420.504061</ele>
        <time>2025-04-25T08:51:07.000Z</time>
      </trkpt>
      <trkpt lat="43.37098" lon="6.1563">
        <ele>420.907093</ele>
        <time>2025-04-25T08:51:07.000Z</time>
      </trkpt>
      <trkpt lat="43.37098" lon="6.1563">
        <ele>420.907093</ele>
        <time>2025-04-25T08:51:07.000Z</time>
      </trkpt>
      <trkpt lat="43.37098" lon="6.1563">
        <ele>420.907093</ele>
        <time>2025-04-25T08:51:09.000Z</time>
      </trkpt>
      <trkpt lat="43.37096" lon="6.15625">
        <ele>421.571498</ele>
        <time>2025-04-25T08:51:10.000Z</time>
      </trkpt>
      <trkpt lat="43.37096" lon="6.15625">
        <ele>421.571498</ele>
        <time>2025-04-25T08:51:10.000Z</time>
      </trkpt>
      <trkpt lat="43.37095" lon="6.15622">
        <ele>421.917701</ele>
        <time>2025-04-25T08:51:12.000Z</time>
      </trkpt>
      <trkpt lat="43.37095" lon="6.15622">
        <ele>421.917701</ele>
        <time>2025-04-25T08:51:12.000Z</time>
      </trkpt>
      <trkpt lat="43.37096" lon="6.15621">
        <ele>422.100621</ele>
        <time>2025-04-25T08:51:12.000Z</time>
      </trkpt>
      <trkpt lat="43.37096" lon="6.15621">
        <ele>422.100621</ele>
        <time>2025-04-25T08:51:12.000Z</time>
      </trkpt>
      <trkpt lat="43.37096" lon="6.15619">
        <ele>422.266674</ele>
        <time>2025-04-25T08:51:14.000Z</time>
      </trkpt>
      <trkpt lat="43.37096" lon="6.15619">
        <ele>422.266674</ele>
        <time>2025-04-25T08:51:14.000Z</time>
      </trkpt>
      <trkpt lat="43.37096" lon="6.15618">
        <ele>422.432727</ele>
        <time>2025-04-25T08:51:15.000Z</time>
      </trkpt>
      <trkpt lat="43.37096" lon="6.15618">
        <ele>422.432727</ele>
        <time>2025-04-25T08:51:15.000Z</time>
      </trkpt>
      <trkpt lat="43.37096" lon="6.15616">
        <ele>422.60985</ele>
        <time>2025-04-25T08:51:15.000Z</time>
      </trkpt>
      <trkpt lat="43.37095" lon="6.15615">
        <ele>422.76084</ele>
        <time>2025-04-25T08:51:17.000Z</time>
      </trkpt>
      <trkpt lat="43.37095" lon="6.15615">
        <ele>422.76084</ele>
        <time>2025-04-25T08:51:17.000Z</time>
      </trkpt>
      <trkpt lat="43.37095" lon="6.15613">
        <ele>422.949396</ele>
        <time>2025-04-25T08:51:18.000Z</time>
      </trkpt>
      <trkpt lat="43.37095" lon="6.15613">
        <ele>422.949396</ele>
        <time>2025-04-25T08:51:18.000Z</time>
      </trkpt>
      <trkpt lat="43.37094" lon="6.15612">
        <ele>423.137952</ele>
        <time>2025-04-25T08:51:19.000Z</time>
      </trkpt>
      <trkpt lat="43.37093" lon="6.15611">
        <ele>423.299529</ele>
        <time>2025-04-25T08:51:20.000Z</time>
      </trkpt>
      <trkpt lat="43.37093" lon="6.15611">
        <ele>423.299529</ele>
        <time>2025-04-25T08:51:20.000Z</time>
      </trkpt>
      <trkpt lat="43.37093" lon="6.15609">
        <ele>423.487722</ele>
        <time>2025-04-25T08:51:21.000Z</time>
      </trkpt>
      <trkpt lat="43.37093" lon="6.15609">
        <ele>423.487722</ele>
        <time>2025-04-25T08:51:21.000Z</time>
      </trkpt>
      <trkpt lat="43.37093" lon="6.15606">
        <ele>423.775547</ele>
        <time>2025-04-25T08:51:21.000Z</time>
      </trkpt>
      <trkpt lat="43.37093" lon="6.15606">
        <ele>423.775547</ele>
        <time>2025-04-25T08:51:21.000Z</time>
      </trkpt>
      <trkpt lat="43.37094" lon="6.15603">
        <ele>424.124342</ele>
        <time>2025-04-25T08:51:23.000Z</time>
      </trkpt>
      <trkpt lat="43.37095" lon="6.15601">
        <ele>424.386805</ele>
        <time>2025-04-25T08:51:24.000Z</time>
      </trkpt>
      <trkpt lat="43.37095" lon="6.15601">
        <ele>424.386805</ele>
        <time>2025-04-25T08:51:24.000Z</time>
      </trkpt>
      <trkpt lat="43.37095" lon="6.15599">
        <ele>424.641419</ele>
        <time>2025-04-25T08:51:25.000Z</time>
      </trkpt>
      <trkpt lat="43.37095" lon="6.15599">
        <ele>424.641419</ele>
        <time>2025-04-25T08:51:25.000Z</time>
      </trkpt>
      <trkpt lat="43.37095" lon="6.15596">
        <ele>424.935619</ele>
        <time>2025-04-25T08:51:26.000Z</time>
      </trkpt>
      <trkpt lat="43.37095" lon="6.15592">
        <ele>425.40454</ele>
        <time>2025-04-25T08:51:27.000Z</time>
      </trkpt>
      <trkpt lat="43.37095" lon="6.15592">
        <ele>425.40454</ele>
        <time>2025-04-25T08:51:27.000Z</time>
      </trkpt>
      <trkpt lat="43.37095" lon="6.15587">
        <ele>425.994414</ele>
        <time>2025-04-25T08:51:28.000Z</time>
      </trkpt>
      <trkpt lat="43.37095" lon="6.15587">
        <ele>425.994414</ele>
        <time>2025-04-25T08:51:28.000Z</time>
      </trkpt>
      <trkpt lat="43.37095" lon="6.15582">
        <ele>426.492572</ele>
        <time>2025-04-25T08:51:29.000Z</time>
      </trkpt>
      <trkpt lat="43.37095" lon="6.15582">
        <ele>426.492572</ele>
        <time>2025-04-25T08:51:29.000Z</time>
      </trkpt>
      <trkpt lat="43.37095" lon="6.1558">
        <ele>426.808466</ele>
        <time>2025-04-25T08:51:30.000Z</time>
      </trkpt>
      <trkpt lat="43.37095" lon="6.1558">
        <ele>426.808466</ele>
        <time>2025-04-25T08:51:30.000Z</time>
      </trkpt>
      <trkpt lat="43.37095" lon="6.15577">
        <ele>427.091846</ele>
        <time>2025-04-25T08:51:30.000Z</time>
      </trkpt>
      <trkpt lat="43.37095" lon="6.15575">
        <ele>427.3686</ele>
        <time>2025-04-25T08:51:32.000Z</time>
      </trkpt>
      <trkpt lat="43.37095" lon="6.15575">
        <ele>427.3686</ele>
        <time>2025-04-25T08:51:32.000Z</time>
      </trkpt>
      <trkpt lat="43.37094" lon="6.1557">
        <ele>427.837521</ele>
        <time>2025-04-25T08:51:33.000Z</time>
      </trkpt>
      <trkpt lat="43.37094" lon="6.1557">
        <ele>427.837521</ele>
        <time>2025-04-25T08:51:33.000Z</time>
      </trkpt>
      <trkpt lat="43.37094" lon="6.15567">
        <ele>428.213908</ele>
        <time>2025-04-25T08:51:34.000Z</time>
      </trkpt>
      <trkpt lat="43.37094" lon="6.15567">
        <ele>428.213908</ele>
        <time>2025-04-25T08:51:34.000Z</time>
      </trkpt>
      <trkpt lat="43.37094" lon="6.15564">
        <ele>428.551554</ele>
        <time>2025-04-25T08:51:35.000Z</time>
      </trkpt>
      <trkpt lat="43.37094" lon="6.15564">
        <ele>428.551554</ele>
        <time>2025-04-25T08:51:35.000Z</time>
      </trkpt>
      <trkpt lat="43.37093" lon="6.15562">
        <ele>428.799346</ele>
        <time>2025-04-25T08:51:36.000Z</time>
      </trkpt>
      <trkpt lat="43.37093" lon="6.15562">
        <ele>428.799346</ele>
        <time>2025-04-25T08:51:36.000Z</time>
      </trkpt>
      <trkpt lat="43.37093" lon="6.15559">
        <ele>429.147886</ele>
        <time>2025-04-25T08:51:37.000Z</time>
      </trkpt>
      <trkpt lat="43.37093" lon="6.15557">
        <ele>429.388209</ele>
        <time>2025-04-25T08:51:38.000Z</time>
      </trkpt>
      <trkpt lat="43.37093" lon="6.15557">
        <ele>429.388209</ele>
        <time>2025-04-25T08:51:38.000Z</time>
      </trkpt>
      <trkpt lat="43.37093" lon="6.15554">
        <ele>429.653893</ele>
        <time>2025-04-25T08:51:39.000Z</time>
      </trkpt>
      <trkpt lat="43.37093" lon="6.15554">
        <ele>429.653893</ele>
        <time>2025-04-25T08:51:39.000Z</time>
      </trkpt>
      <trkpt lat="43.37092" lon="6.15551">
        <ele>429.980657</ele>
        <time>2025-04-25T08:51:40.000Z</time>
      </trkpt>
      <trkpt lat="43.37092" lon="6.15551">
        <ele>429.980657</ele>
        <time>2025-04-25T08:51:40.000Z</time>
      </trkpt>
      <trkpt lat="43.37092" lon="6.15548">
        <ele>430.334903</ele>
        <time>2025-04-25T08:51:40.000Z</time>
      </trkpt>
      <trkpt lat="43.37092" lon="6.15548">
        <ele>430.334903</ele>
        <time>2025-04-25T08:51:40.000Z</time>
      </trkpt>
      <trkpt lat="43.37092" lon="6.15544">
        <ele>430.799851</ele>
        <time>2025-04-25T08:51:42.000Z</time>
      </trkpt>
      <trkpt lat="43.37092" lon="6.15544">
        <ele>430.799851</ele>
        <time>2025-04-25T08:51:42.000Z</time>
      </trkpt>
      <trkpt lat="43.37092" lon="6.15542">
        <ele>431.050897</ele>
        <time>2025-04-25T08:51:43.000Z</time>
      </trkpt>
      <trkpt lat="43.37091" lon="6.15539">
        <ele>431.33717</ele>
        <time>2025-04-25T08:51:43.000Z</time>
      </trkpt>
      <trkpt lat="43.37091" lon="6.15539">
        <ele>431.33717</ele>
        <time>2025-04-25T08:51:43.000Z</time>
      </trkpt>
      <trkpt lat="43.37089" lon="6.15536">
        <ele>431.82966</ele>
        <time>2025-04-25T08:51:45.000Z</time>
      </trkpt>
      <trkpt lat="43.37089" lon="6.15536">
        <ele>431.82966</ele>
        <time>2025-04-25T08:51:45.000Z</time>
      </trkpt>
      <trkpt lat="43.37088" lon="6.15532">
        <ele>432.3158</ele>
        <time>2025-04-25T08:51:46.000Z</time>
      </trkpt>
      <trkpt lat="43.37088" lon="6.15532">
        <ele>432.3158</ele>
        <time>2025-04-25T08:51:46.000Z</time>
      </trkpt>
      <trkpt lat="43.37087" lon="6.15529">
        <ele>432.654072</ele>
        <time>2025-04-25T08:51:47.000Z</time>
      </trkpt>
      <trkpt lat="43.37086" lon="6.15527">
        <ele>432.976538</ele>
        <time>2025-04-25T08:51:47.000Z</time>
      </trkpt>
      <trkpt lat="43.37086" lon="6.15527">
        <ele>432.976538</ele>
        <time>2025-04-25T08:51:47.000Z</time>
      </trkpt>
      <trkpt lat="43.37086" lon="6.15524">
        <ele>433.220082</ele>
        <time>2025-04-25T08:51:49.000Z</time>
      </trkpt>
      <trkpt lat="43.37086" lon="6.15524">
        <ele>433.220082</ele>
        <time>2025-04-25T08:51:49.000Z</time>
      </trkpt>
      <trkpt lat="43.37085" lon="6.15522">
        <ele>433.465813</ele>
        <time>2025-04-25T08:51:50.000Z</time>
      </trkpt>
      <trkpt lat="43.37085" lon="6.15522">
        <ele>433.465813</ele>
        <time>2025-04-25T08:51:50.000Z</time>
      </trkpt>
      <trkpt lat="43.37084" lon="6.1552">
        <ele>433.825639</ele>
        <time>2025-04-25T08:51:51.000Z</time>
      </trkpt>
      <trkpt lat="43.37084" lon="6.1552">
        <ele>433.825639</ele>
        <time>2025-04-25T08:51:51.000Z</time>
      </trkpt>
      <trkpt lat="43.37083" lon="6.15516">
        <ele>434.206192</ele>
        <time>2025-04-25T08:51:52.000Z</time>
      </trkpt>
      <trkpt lat="43.37083" lon="6.15516">
        <ele>434.206192</ele>
        <time>2025-04-25T08:51:52.000Z</time>
      </trkpt>
      <trkpt lat="43.37082" lon="6.15513">
        <ele>434.559939</ele>
        <time>2025-04-25T08:51:53.000Z</time>
      </trkpt>
      <trkpt lat="43.37082" lon="6.15513">
        <ele>434.559939</ele>
        <time>2025-04-25T08:51:53.000Z</time>
      </trkpt>
      <trkpt lat="43.37083" lon="6.15508">
        <ele>435.149814</ele>
        <time>2025-04-25T08:51:54.000Z</time>
      </trkpt>
      <trkpt lat="43.37083" lon="6.15508">
        <ele>435.149814</ele>
        <time>2025-04-25T08:51:54.000Z</time>
      </trkpt>
      <trkpt lat="43.37083" lon="6.15503">
        <ele>435.607624</ele>
        <time>2025-04-25T08:51:55.000Z</time>
      </trkpt>
      <trkpt lat="43.37083" lon="6.15503">
        <ele>435.607624</ele>
        <time>2025-04-25T08:51:55.000Z</time>
      </trkpt>
      <trkpt lat="43.37082" lon="6.15499">
        <ele>435.849907</ele>
        <time>2025-04-25T08:51:56.000Z</time>
      </trkpt>
      <trkpt lat="43.37082" lon="6.15499">
        <ele>435.849907</ele>
        <time>2025-04-25T08:51:56.000Z</time>
      </trkpt>
      <trkpt lat="43.37082" lon="6.15496">
        <ele>436.045633</ele>
        <time>2025-04-25T08:51:57.000Z</time>
      </trkpt>
      <trkpt lat="43.37082" lon="6.15496">
        <ele>436.045633</ele>
        <time>2025-04-25T08:51:57.000Z</time>
      </trkpt>
      <trkpt lat="43.37081" lon="6.15495">
        <ele>436.146452</ele>
        <time>2025-04-25T08:51:57.000Z</time>
      </trkpt>
      <trkpt lat="43.3708" lon="6.15492">
        <ele>436.327335</ele>
        <time>2025-04-25T08:51:59.000Z</time>
      </trkpt>
      <trkpt lat="43.3708" lon="6.15492">
        <ele>436.327335</ele>
        <time>2025-04-25T08:51:59.000Z</time>
      </trkpt>
      <trkpt lat="43.37079" lon="6.15489">
        <ele>436.537897</ele>
        <time>2025-04-25T08:52:00.000Z</time>
      </trkpt>
      <trkpt lat="43.37079" lon="6.15489">
        <ele>436.537897</ele>
        <time>2025-04-25T08:52:00.000Z</time>
      </trkpt>
      <trkpt lat="43.37078" lon="6.15487">
        <ele>436.737618</ele>
        <time>2025-04-25T08:52:01.000Z</time>
      </trkpt>
      <trkpt lat="43.37078" lon="6.15487">
        <ele>436.737618</ele>
        <time>2025-04-25T08:52:01.000Z</time>
      </trkpt>
      <trkpt lat="43.37077" lon="6.15485">
        <ele>436.863501</ele>
        <time>2025-04-25T08:52:02.000Z</time>
      </trkpt>
      <trkpt lat="43.37077" lon="6.15485">
        <ele>436.863501</ele>
        <time>2025-04-25T08:52:02.000Z</time>
      </trkpt>
      <trkpt lat="43.37075" lon="6.15484">
        <ele>436.988675</ele>
        <time>2025-04-25T08:52:03.000Z</time>
      </trkpt>
      <trkpt lat="43.37075" lon="6.15484">
        <ele>436.988675</ele>
        <time>2025-04-25T08:52:03.000Z</time>
      </trkpt>
      <trkpt lat="43.37074" lon="6.15483">
        <ele>437.142568</ele>
        <time>2025-04-25T08:52:04.000Z</time>
      </trkpt>
      <trkpt lat="43.37074" lon="6.15483">
        <ele>437.142568</ele>
        <time>2025-04-25T08:52:04.000Z</time>
      </trkpt>
      <trkpt lat="43.37071" lon="6.15481">
        <ele>437.400323</ele>
        <time>2025-04-25T08:52:05.000Z</time>
      </trkpt>
      <trkpt lat="43.37071" lon="6.15481">
        <ele>437.400323</ele>
        <time>2025-04-25T08:52:05.000Z</time>
      </trkpt>
      <trkpt lat="43.37068" lon="6.1548">
        <ele>437.666858</ele>
        <time>2025-04-25T08:52:06.000Z</time>
      </trkpt>
      <trkpt lat="43.37068" lon="6.1548">
        <ele>437.666858</ele>
        <time>2025-04-25T08:52:06.000Z</time>
      </trkpt>
      <trkpt lat="43.37066" lon="6.1548">
        <ele>437.832871</ele>
        <time>2025-04-25T08:52:07.000Z</time>
      </trkpt>
      <trkpt lat="43.37066" lon="6.1548">
        <ele>437.832871</ele>
        <time>2025-04-25T08:52:07.000Z</time>
      </trkpt>
      <trkpt lat="43.37064" lon="6.1548">
        <ele>438.068599</ele>
        <time>2025-04-25T08:52:08.000Z</time>
      </trkpt>
      <trkpt lat="43.37064" lon="6.1548">
        <ele>438.068599</ele>
        <time>2025-04-25T08:52:08.000Z</time>
      </trkpt>
      <trkpt lat="43.37061" lon="6.1548">
        <ele>438.33799</ele>
        <time>2025-04-25T08:52:09.000Z</time>
      </trkpt>
      <trkpt lat="43.37061" lon="6.1548">
        <ele>438.33799</ele>
        <time>2025-04-25T08:52:09.000Z</time>
      </trkpt>
      <trkpt lat="43.37058" lon="6.15479">
        <ele>438.600309</ele>
        <time>2025-04-25T08:52:10.000Z</time>
      </trkpt>
      <trkpt lat="43.37058" lon="6.15479">
        <ele>438.600309</ele>
        <time>2025-04-25T08:52:10.000Z</time>
      </trkpt>
      <trkpt lat="43.37056" lon="6.15477">
        <ele>438.793687</ele>
        <time>2025-04-25T08:52:10.000Z</time>
      </trkpt>
      <trkpt lat="43.37056" lon="6.15477">
        <ele>438.793687</ele>
        <time>2025-04-25T08:52:10.000Z</time>
      </trkpt>
      <trkpt lat="43.37054" lon="6.15475">
        <ele>438.972331</ele>
        <time>2025-04-25T08:52:12.000Z</time>
      </trkpt>
      <trkpt lat="43.37054" lon="6.15475">
        <ele>438.972331</ele>
        <time>2025-04-25T08:52:12.000Z</time>
      </trkpt>
      <trkpt lat="43.37054" lon="6.15473">
        <ele>439.132218</ele>
        <time>2025-04-25T08:52:12.000Z</time>
      </trkpt>
      <trkpt lat="43.37054" lon="6.15473">
        <ele>439.132218</ele>
        <time>2025-04-25T08:52:12.000Z</time>
      </trkpt>
      <trkpt lat="43.37054" lon="6.1547">
        <ele>439.279668</ele>
        <time>2025-04-25T08:52:14.000Z</time>
      </trkpt>
      <trkpt lat="43.37054" lon="6.1547">
        <ele>439.279668</ele>
        <time>2025-04-25T08:52:14.000Z</time>
      </trkpt>
      <trkpt lat="43.37055" lon="6.15467">
        <ele>439.490776</ele>
        <time>2025-04-25T08:52:15.000Z</time>
      </trkpt>
      <trkpt lat="43.37055" lon="6.15467">
        <ele>439.490776</ele>
        <time>2025-04-25T08:52:15.000Z</time>
      </trkpt>
      <trkpt lat="43.37055" lon="6.15464">
        <ele>439.667459</ele>
        <time>2025-04-25T08:52:16.000Z</time>
      </trkpt>
      <trkpt lat="43.37055" lon="6.15464">
        <ele>439.667459</ele>
        <time>2025-04-25T08:52:16.000Z</time>
      </trkpt>
      <trkpt lat="43.37054" lon="6.15461">
        <ele>439.878567</ele>
        <time>2025-04-25T08:52:17.000Z</time>
      </trkpt>
      <trkpt lat="43.37054" lon="6.15461">
        <ele>439.878567</ele>
        <time>2025-04-25T08:52:17.000Z</time>
      </trkpt>
      <trkpt lat="43.37053" lon="6.15458">
        <ele>440.09624</ele>
        <time>2025-04-25T08:52:18.000Z</time>
      </trkpt>
      <trkpt lat="43.37053" lon="6.15458">
        <ele>440.09624</ele>
        <time>2025-04-25T08:52:18.000Z</time>
      </trkpt>
      <trkpt lat="43.37052" lon="6.15455">
        <ele>440.319602</ele>
        <time>2025-04-25T08:52:19.000Z</time>
      </trkpt>
      <trkpt lat="43.37052" lon="6.15455">
        <ele>440.319602</ele>
        <time>2025-04-25T08:52:19.000Z</time>
      </trkpt>
      <trkpt lat="43.37051" lon="6.15451">
        <ele>440.558096</ele>
        <time>2025-04-25T08:52:20.000Z</time>
      </trkpt>
      <trkpt lat="43.37051" lon="6.15451">
        <ele>440.558096</ele>
        <time>2025-04-25T08:52:20.000Z</time>
      </trkpt>
      <trkpt lat="43.3705" lon="6.15449">
        <ele>440.737127</ele>
        <time>2025-04-25T08:52:20.000Z</time>
      </trkpt>
      <trkpt lat="43.37049" lon="6.15446">
        <ele>440.964335</ele>
        <time>2025-04-25T08:52:22.000Z</time>
      </trkpt>
      <trkpt lat="43.37049" lon="6.15446">
        <ele>440.964335</ele>
        <time>2025-04-25T08:52:22.000Z</time>
      </trkpt>
      <trkpt lat="43.37048" lon="6.15442">
        <ele>441.175203</ele>
        <time>2025-04-25T08:52:23.000Z</time>
      </trkpt>
      <trkpt lat="43.37048" lon="6.15442">
        <ele>441.175203</ele>
        <time>2025-04-25T08:52:23.000Z</time>
      </trkpt>
      <trkpt lat="43.37047" lon="6.1544">
        <ele>441.370929</ele>
        <time>2025-04-25T08:52:23.000Z</time>
      </trkpt>
      <trkpt lat="43.37047" lon="6.15437">
        <ele>441.56339</ele>
        <time>2025-04-25T08:52:25.000Z</time>
      </trkpt>
      <trkpt lat="43.37047" lon="6.15437">
        <ele>441.56339</ele>
        <time>2025-04-25T08:52:25.000Z</time>
      </trkpt>
      <trkpt lat="43.37046" lon="6.15434">
        <ele>441.738344</ele>
        <time>2025-04-25T08:52:26.000Z</time>
      </trkpt>
      <trkpt lat="43.37046" lon="6.15434">
        <ele>441.738344</ele>
        <time>2025-04-25T08:52:26.000Z</time>
      </trkpt>
      <trkpt lat="43.37045" lon="6.15431">
        <ele>441.938037</ele>
        <time>2025-04-25T08:52:27.000Z</time>
      </trkpt>
      <trkpt lat="43.37045" lon="6.15431">
        <ele>441.938037</ele>
        <time>2025-04-25T08:52:27.000Z</time>
      </trkpt>
      <trkpt lat="43.37044" lon="6.15428">
        <ele>442.138871</ele>
        <time>2025-04-25T08:52:28.000Z</time>
      </trkpt>
      <trkpt lat="43.37044" lon="6.15428">
        <ele>442.138871</ele>
        <time>2025-04-25T08:52:28.000Z</time>
      </trkpt>
      <trkpt lat="43.37043" lon="6.15426">
        <ele>442.349434</ele>
        <time>2025-04-25T08:52:29.000Z</time>
      </trkpt>
      <trkpt lat="43.37043" lon="6.15426">
        <ele>442.349434</ele>
        <time>2025-04-25T08:52:29.000Z</time>
      </trkpt>
      <trkpt lat="43.37042" lon="6.15422">
        <ele>442.590045</ele>
        <time>2025-04-25T08:52:30.000Z</time>
      </trkpt>
      <trkpt lat="43.37042" lon="6.15422">
        <ele>442.590045</ele>
        <time>2025-04-25T08:52:30.000Z</time>
      </trkpt>
      <trkpt lat="43.37041" lon="6.15419">
        <ele>442.815548</ele>
        <time>2025-04-25T08:52:31.000Z</time>
      </trkpt>
      <trkpt lat="43.37041" lon="6.15419">
        <ele>442.815548</ele>
        <time>2025-04-25T08:52:31.000Z</time>
      </trkpt>
      <trkpt lat="43.3704" lon="6.15414">
        <ele>443.121115</ele>
        <time>2025-04-25T08:52:32.000Z</time>
      </trkpt>
      <trkpt lat="43.3704" lon="6.15414">
        <ele>443.121115</ele>
        <time>2025-04-25T08:52:32.000Z</time>
      </trkpt>
      <trkpt lat="43.37038" lon="6.1541">
        <ele>443.394169</ele>
        <time>2025-04-25T08:52:33.000Z</time>
      </trkpt>
      <trkpt lat="43.37038" lon="6.1541">
        <ele>443.394169</ele>
        <time>2025-04-25T08:52:33.000Z</time>
      </trkpt>
      <trkpt lat="43.37038" lon="6.15406">
        <ele>443.63542</ele>
        <time>2025-04-25T08:52:33.000Z</time>
      </trkpt>
      <trkpt lat="43.37038" lon="6.15406">
        <ele>443.63542</ele>
        <time>2025-04-25T08:52:33.000Z</time>
      </trkpt>
      <trkpt lat="43.37037" lon="6.15404">
        <ele>443.813575</ele>
        <time>2025-04-25T08:52:35.000Z</time>
      </trkpt>
      <trkpt lat="43.37037" lon="6.15404">
        <ele>443.813575</ele>
        <time>2025-04-25T08:52:35.000Z</time>
      </trkpt>
      <trkpt lat="43.37036" lon="6.15401">
        <ele>444.003415</ele>
        <time>2025-04-25T08:52:36.000Z</time>
      </trkpt>
      <trkpt lat="43.37036" lon="6.15401">
        <ele>444.003415</ele>
        <time>2025-04-25T08:52:36.000Z</time>
      </trkpt>
      <trkpt lat="43.37036" lon="6.15398">
        <ele>444.167478</ele>
        <time>2025-04-25T08:52:36.000Z</time>
      </trkpt>
      <trkpt lat="43.37036" lon="6.15398">
        <ele>444.167478</ele>
        <time>2025-04-25T08:52:36.000Z</time>
      </trkpt>
      <trkpt lat="43.37036" lon="6.15395">
        <ele>444.364817</ele>
        <time>2025-04-25T08:52:38.000Z</time>
      </trkpt>
      <trkpt lat="43.37036" lon="6.15395">
        <ele>444.364817</ele>
        <time>2025-04-25T08:52:38.000Z</time>
      </trkpt>
      <trkpt lat="43.37036" lon="6.15392">
        <ele>444.554121</ele>
        <time>2025-04-25T08:52:39.000Z</time>
      </trkpt>
      <trkpt lat="43.37036" lon="6.15392">
        <ele>444.554121</ele>
        <time>2025-04-25T08:52:39.000Z</time>
      </trkpt>
      <trkpt lat="43.37035" lon="6.1539">
        <ele>444.727996</ele>
        <time>2025-04-25T08:52:40.000Z</time>
      </trkpt>
      <trkpt lat="43.37035" lon="6.1539">
        <ele>444.727996</ele>
        <time>2025-04-25T08:52:40.000Z</time>
      </trkpt>
      <trkpt lat="43.37034" lon="6.15386">
        <ele>444.96083</ele>
        <time>2025-04-25T08:52:41.000Z</time>
      </trkpt>
      <trkpt lat="43.37034" lon="6.15386">
        <ele>444.96083</ele>
        <time>2025-04-25T08:52:41.000Z</time>
      </trkpt>
      <trkpt lat="43.37034" lon="6.15383">
        <ele>445.147088</ele>
        <time>2025-04-25T08:52:42.000Z</time>
      </trkpt>
      <trkpt lat="43.37034" lon="6.15383">
        <ele>445.147088</ele>
        <time>2025-04-25T08:52:42.000Z</time>
      </trkpt>
      <trkpt lat="43.37034" lon="6.1538">
        <ele>445.363207</ele>
        <time>2025-04-25T08:52:43.000Z</time>
      </trkpt>
      <trkpt lat="43.37034" lon="6.1538">
        <ele>445.363207</ele>
        <time>2025-04-25T08:52:43.000Z</time>
      </trkpt>
      <trkpt lat="43.37033" lon="6.15377">
        <ele>445.576738</ele>
        <time>2025-04-25T08:52:44.000Z</time>
      </trkpt>
      <trkpt lat="43.37033" lon="6.15377">
        <ele>445.576738</ele>
        <time>2025-04-25T08:52:44.000Z</time>
      </trkpt>
      <trkpt lat="43.37032" lon="6.15374">
        <ele>445.772044</ele>
        <time>2025-04-25T08:52:45.000Z</time>
      </trkpt>
      <trkpt lat="43.37032" lon="6.15374">
        <ele>445.772044</ele>
        <time>2025-04-25T08:52:45.000Z</time>
      </trkpt>
      <trkpt lat="43.3703" lon="6.15372">
        <ele>445.982225</ele>
        <time>2025-04-25T08:52:46.000Z</time>
      </trkpt>
      <trkpt lat="43.3703" lon="6.15372">
        <ele>445.982225</ele>
        <time>2025-04-25T08:52:46.000Z</time>
      </trkpt>
      <trkpt lat="43.37029" lon="6.15369">
        <ele>446.150715</ele>
        <time>2025-04-25T08:52:47.000Z</time>
      </trkpt>
      <trkpt lat="43.37029" lon="6.15369">
        <ele>446.150715</ele>
        <time>2025-04-25T08:52:47.000Z</time>
      </trkpt>
      <trkpt lat="43.37027" lon="6.15367">
        <ele>446.350437</ele>
        <time>2025-04-25T08:52:48.000Z</time>
      </trkpt>
      <trkpt lat="43.37027" lon="6.15367">
        <ele>446.350437</ele>
        <time>2025-04-25T08:52:48.000Z</time>
      </trkpt>
      <trkpt lat="43.37026" lon="6.15364">
        <ele>446.60074</ele>
        <time>2025-04-25T08:52:49.000Z</time>
      </trkpt>
      <trkpt lat="43.37026" lon="6.15364">
        <ele>446.60074</ele>
        <time>2025-04-25T08:52:49.000Z</time>
      </trkpt>
      <trkpt lat="43.37025" lon="6.15361">
        <ele>446.818414</ele>
        <time>2025-04-25T08:52:50.000Z</time>
      </trkpt>
      <trkpt lat="43.37025" lon="6.15361">
        <ele>446.818414</ele>
        <time>2025-04-25T08:52:50.000Z</time>
      </trkpt>
      <trkpt lat="43.37023" lon="6.15357">
        <ele>447.079134</ele>
        <time>2025-04-25T08:52:51.000Z</time>
      </trkpt>
      <trkpt lat="43.37023" lon="6.15357">
        <ele>447.079134</ele>
        <time>2025-04-25T08:52:51.000Z</time>
      </trkpt>
      <trkpt lat="43.37021" lon="6.15354">
        <ele>447.354776</ele>
        <time>2025-04-25T08:52:52.000Z</time>
      </trkpt>
      <trkpt lat="43.37021" lon="6.15354">
        <ele>447.354776</ele>
        <time>2025-04-25T08:52:52.000Z</time>
      </trkpt>
      <trkpt lat="43.37019" lon="6.1535">
        <ele>447.648414</ele>
        <time>2025-04-25T08:52:53.000Z</time>
      </trkpt>
      <trkpt lat="43.37019" lon="6.1535">
        <ele>447.648414</ele>
        <time>2025-04-25T08:52:53.000Z</time>
      </trkpt>
      <trkpt lat="43.37019" lon="6.15346">
        <ele>447.920316</ele>
        <time>2025-04-25T08:52:54.000Z</time>
      </trkpt>
      <trkpt lat="43.37019" lon="6.15346">
        <ele>447.920316</ele>
        <time>2025-04-25T08:52:54.000Z</time>
      </trkpt>
      <trkpt lat="43.37018" lon="6.15342">
        <ele>448.150119</ele>
        <time>2025-04-25T08:52:55.000Z</time>
      </trkpt>
      <trkpt lat="43.37018" lon="6.15342">
        <ele>448.150119</ele>
        <time>2025-04-25T08:52:55.000Z</time>
      </trkpt>
      <trkpt lat="43.37018" lon="6.15338">
        <ele>448.398651</ele>
        <time>2025-04-25T08:52:56.000Z</time>
      </trkpt>
      <trkpt lat="43.37018" lon="6.15338">
        <ele>448.398651</ele>
        <time>2025-04-25T08:52:56.000Z</time>
      </trkpt>
      <trkpt lat="43.37018" lon="6.15333">
        <ele>448.734886</ele>
        <time>2025-04-25T08:52:57.000Z</time>
      </trkpt>
      <trkpt lat="43.37018" lon="6.15333">
        <ele>448.734886</ele>
        <time>2025-04-25T08:52:57.000Z</time>
      </trkpt>
      <trkpt lat="43.37018" lon="6.15329">
        <ele>448.999911</ele>
        <time>2025-04-25T08:52:58.000Z</time>
      </trkpt>
      <trkpt lat="43.37018" lon="6.15329">
        <ele>448.999911</ele>
        <time>2025-04-25T08:52:58.000Z</time>
      </trkpt>
      <trkpt lat="43.37018" lon="6.15324">
        <ele>449.258626</ele>
        <time>2025-04-25T08:52:59.000Z</time>
      </trkpt>
      <trkpt lat="43.37018" lon="6.15324">
        <ele>449.258626</ele>
        <time>2025-04-25T08:52:59.000Z</time>
      </trkpt>
      <trkpt lat="43.37018" lon="6.15321">
        <ele>449.485791</ele>
        <time>2025-04-25T08:53:00.000Z</time>
      </trkpt>
      <trkpt lat="43.37018" lon="6.15321">
        <ele>449.485791</ele>
        <time>2025-04-25T08:53:00.000Z</time>
      </trkpt>
      <trkpt lat="43.37019" lon="6.15318">
        <ele>449.684463</ele>
        <time>2025-04-25T08:53:01.000Z</time>
      </trkpt>
      <trkpt lat="43.37019" lon="6.15318">
        <ele>449.684463</ele>
        <time>2025-04-25T08:53:01.000Z</time>
      </trkpt>
      <trkpt lat="43.37019" lon="6.15314">
        <ele>449.905317</ele>
        <time>2025-04-25T08:53:02.000Z</time>
      </trkpt>
      <trkpt lat="43.37019" lon="6.15314">
        <ele>449.905317</ele>
        <time>2025-04-25T08:53:02.000Z</time>
      </trkpt>
      <trkpt lat="43.37019" lon="6.15311">
        <ele>450.107241</ele>
        <time>2025-04-25T08:53:03.000Z</time>
      </trkpt>
      <trkpt lat="43.37018" lon="6.15308">
        <ele>450.299703</ele>
        <time>2025-04-25T08:53:04.000Z</time>
      </trkpt>
      <trkpt lat="43.37018" lon="6.15308">
        <ele>450.299703</ele>
        <time>2025-04-25T08:53:04.000Z</time>
      </trkpt>
      <trkpt lat="43.37017" lon="6.15304">
        <ele>450.593309</ele>
        <time>2025-04-25T08:53:05.000Z</time>
      </trkpt>
      <trkpt lat="43.37017" lon="6.15304">
        <ele>450.593309</ele>
        <time>2025-04-25T08:53:05.000Z</time>
      </trkpt>
      <trkpt lat="43.37016" lon="6.15298">
        <ele>450.94962</ele>
        <time>2025-04-25T08:53:06.000Z</time>
      </trkpt>
      <trkpt lat="43.37016" lon="6.15298">
        <ele>450.94962</ele>
        <time>2025-04-25T08:53:06.000Z</time>
      </trkpt>
      <trkpt lat="43.37014" lon="6.15294">
        <ele>451.113248</ele>
        <time>2025-04-25T08:53:07.000Z</time>
      </trkpt>
      <trkpt lat="43.37013" lon="6.1529">
        <ele>451.161198</ele>
        <time>2025-04-25T08:53:08.000Z</time>
      </trkpt>
      <trkpt lat="43.37013" lon="6.1529">
        <ele>451.161198</ele>
        <time>2025-04-25T08:53:08.000Z</time>
      </trkpt>
      <trkpt lat="43.37011" lon="6.15285">
        <ele>451.218096</ele>
        <time>2025-04-25T08:53:09.000Z</time>
      </trkpt>
      <trkpt lat="43.37011" lon="6.15282">
        <ele>451.249145</ele>
        <time>2025-04-25T08:53:10.000Z</time>
      </trkpt>
      <trkpt lat="43.37011" lon="6.15282">
        <ele>451.249145</ele>
        <time>2025-04-25T08:53:10.000Z</time>
      </trkpt>
      <trkpt lat="43.3701" lon="6.15276">
        <ele>451.311476</ele>
        <time>2025-04-25T08:53:11.000Z</time>
      </trkpt>
      <trkpt lat="43.3701" lon="6.15276">
        <ele>451.311476</ele>
        <time>2025-04-25T08:53:11.000Z</time>
      </trkpt>
      <trkpt lat="43.3701" lon="6.1527">
        <ele>451.368278</ele>
        <time>2025-04-25T08:53:12.000Z</time>
      </trkpt>
      <trkpt lat="43.3701" lon="6.15266">
        <ele>451.411406</ele>
        <time>2025-04-25T08:53:13.000Z</time>
      </trkpt>
      <trkpt lat="43.3701" lon="6.15266">
        <ele>451.411406</ele>
        <time>2025-04-25T08:53:13.000Z</time>
      </trkpt>
      <trkpt lat="43.37011" lon="6.15261">
        <ele>451.465364</ele>
        <time>2025-04-25T08:53:14.000Z</time>
      </trkpt>
      <trkpt lat="43.37011" lon="6.15257">
        <ele>451.512699</ele>
        <time>2025-04-25T08:53:15.000Z</time>
      </trkpt>
      <trkpt lat="43.37011" lon="6.15257">
        <ele>451.512699</ele>
        <time>2025-04-25T08:53:15.000Z</time>
      </trkpt>
      <trkpt lat="43.37011" lon="6.15253">
        <ele>451.551619</ele>
        <time>2025-04-25T08:53:16.000Z</time>
      </trkpt>
      <trkpt lat="43.37011" lon="6.15253">
        <ele>451.551619</ele>
        <time>2025-04-25T08:53:16.000Z</time>
      </trkpt>
      <trkpt lat="43.37011" lon="6.15249">
        <ele>451.595133</ele>
        <time>2025-04-25T08:53:17.000Z</time>
      </trkpt>
      <trkpt lat="43.37011" lon="6.15245">
        <ele>451.633002</ele>
        <time>2025-04-25T08:53:18.000Z</time>
      </trkpt>
      <trkpt lat="43.37011" lon="6.15245">
        <ele>451.633002</ele>
        <time>2025-04-25T08:53:18.000Z</time>
      </trkpt>
      <trkpt lat="43.37011" lon="6.15243">
        <ele>451.659299</ele>
        <time>2025-04-25T08:53:19.000Z</time>
      </trkpt>
      <trkpt lat="43.37011" lon="6.15239">
        <ele>451.699688</ele>
        <time>2025-04-25T08:53:20.000Z</time>
      </trkpt>
      <trkpt lat="43.37011" lon="6.15239">
        <ele>451.699688</ele>
        <time>2025-04-25T08:53:20.000Z</time>
      </trkpt>
      <trkpt lat="43.3701" lon="6.15235">
        <ele>451.741302</ele>
        <time>2025-04-25T08:53:21.000Z</time>
      </trkpt>
      <trkpt lat="43.37009" lon="6.15231">
        <ele>451.79224</ele>
        <time>2025-04-25T08:53:22.000Z</time>
      </trkpt>
      <trkpt lat="43.37007" lon="6.15227">
        <ele>451.840265</ele>
        <time>2025-04-25T08:53:23.000Z</time>
      </trkpt>
      <trkpt lat="43.37007" lon="6.15227">
        <ele>451.840265</ele>
        <time>2025-04-25T08:53:23.000Z</time>
      </trkpt>
      <trkpt lat="43.37006" lon="6.15222">
        <ele>451.89234</ele>
        <time>2025-04-25T08:53:24.000Z</time>
      </trkpt>
      <trkpt lat="43.37004" lon="6.15218">
        <ele>451.939136</ele>
        <time>2025-04-25T08:53:25.000Z</time>
      </trkpt>
      <trkpt lat="43.37002" lon="6.15215">
        <ele>451.984621</ele>
        <time>2025-04-25T08:53:26.000Z</time>
      </trkpt>
      <trkpt lat="43.37001" lon="6.1521">
        <ele>452.033351</ele>
        <time>2025-04-25T08:53:27.000Z</time>
      </trkpt>
      <trkpt lat="43.37001" lon="6.15206">
        <ele>452.075607</ele>
        <time>2025-04-25T08:53:28.000Z</time>
      </trkpt>
      <trkpt lat="43.37" lon="6.15201">
        <ele>452.127474</ele>
        <time>2025-04-25T08:53:29.000Z</time>
      </trkpt>
      <trkpt lat="43.37" lon="6.15196">
        <ele>452.180301</ele>
        <time>2025-04-25T08:53:30.000Z</time>
      </trkpt>
      <trkpt lat="43.37" lon="6.15196">
        <ele>452.180301</ele>
        <time>2025-04-25T08:53:30.000Z</time>
      </trkpt>
      <trkpt lat="43.36999" lon="6.1519">
        <ele>452.249967</ele>
        <time>2025-04-25T08:53:31.000Z</time>
      </trkpt>
      <trkpt lat="43.36999" lon="6.15184">
        <ele>452.316489</ele>
        <time>2025-04-25T08:53:32.000Z</time>
      </trkpt>
      <trkpt lat="43.36998" lon="6.15178">
        <ele>452.379752</ele>
        <time>2025-04-25T08:53:33.000Z</time>
      </trkpt>
      <trkpt lat="43.36998" lon="6.15172">
        <ele>452.436554</ele>
        <time>2025-04-25T08:53:34.000Z</time>
      </trkpt>
      <trkpt lat="43.36998" lon="6.15172">
        <ele>452.436554</ele>
        <time>2025-04-25T08:53:34.000Z</time>
      </trkpt>
      <trkpt lat="43.37" lon="6.15167">
        <ele>452.494532</ele>
        <time>2025-04-25T08:53:35.000Z</time>
      </trkpt>
      <trkpt lat="43.37001" lon="6.15162">
        <ele>452.549919</ele>
        <time>2025-04-25T08:53:36.000Z</time>
      </trkpt>
      <trkpt lat="43.37002" lon="6.15157">
        <ele>452.599859</ele>
        <time>2025-04-25T08:53:37.000Z</time>
      </trkpt>
      <trkpt lat="43.37002" lon="6.15157">
        <ele>452.599859</ele>
        <time>2025-04-25T08:53:37.000Z</time>
      </trkpt>
      <trkpt lat="43.37002" lon="6.15153">
        <ele>452.650681</ele>
        <time>2025-04-25T08:53:38.000Z</time>
      </trkpt>
      <trkpt lat="43.37003" lon="6.15147">
        <ele>452.709415</ele>
        <time>2025-04-25T08:53:39.000Z</time>
      </trkpt>
      <trkpt lat="43.37003" lon="6.15147">
        <ele>452.709415</ele>
        <time>2025-04-25T08:53:39.000Z</time>
      </trkpt>
      <trkpt lat="43.37003" lon="6.15141">
        <ele>452.769652</ele>
        <time>2025-04-25T08:53:40.000Z</time>
      </trkpt>
      <trkpt lat="43.37005" lon="6.15136">
        <ele>452.829049</ele>
        <time>2025-04-25T08:53:41.000Z</time>
      </trkpt>
      <trkpt lat="43.37005" lon="6.15136">
        <ele>452.829049</ele>
        <time>2025-04-25T08:53:41.000Z</time>
      </trkpt>
      <trkpt lat="43.37007" lon="6.15132">
        <ele>452.880259</ele>
        <time>2025-04-25T08:53:42.000Z</time>
      </trkpt>
      <trkpt lat="43.37009" lon="6.1513">
        <ele>452.924429</ele>
        <time>2025-04-25T08:53:43.000Z</time>
      </trkpt>
      <trkpt lat="43.37013" lon="6.15129">
        <ele>452.977476</ele>
        <time>2025-04-25T08:53:44.000Z</time>
      </trkpt>
      <trkpt lat="43.37016" lon="6.15127">
        <ele>453.018273</ele>
        <time>2025-04-25T08:53:45.000Z</time>
      </trkpt>
      <trkpt lat="43.37018" lon="6.15126">
        <ele>453.058239</ele>
        <time>2025-04-25T08:53:46.000Z</time>
      </trkpt>
      <trkpt lat="43.37018" lon="6.15126">
        <ele>453.058239</ele>
        <time>2025-04-25T08:53:46.000Z</time>
      </trkpt>
      <trkpt lat="43.37021" lon="6.15127">
        <ele>453.091934</ele>
        <time>2025-04-25T08:53:47.000Z</time>
      </trkpt>
      <trkpt lat="43.37022" lon="6.15128">
        <ele>453.118768</ele>
        <time>2025-04-25T08:53:47.000Z</time>
      </trkpt>
      <trkpt lat="43.37022" lon="6.15128">
        <ele>453.118768</ele>
        <time>2025-04-25T08:53:47.000Z</time>
      </trkpt>
      <trkpt lat="43.37024" lon="6.15129">
        <ele>453.142048</ele>
        <time>2025-04-25T08:53:49.000Z</time>
      </trkpt>
      <trkpt lat="43.37024" lon="6.15129">
        <ele>453.142048</ele>
        <time>2025-04-25T08:53:49.000Z</time>
      </trkpt>
      <trkpt lat="43.37025" lon="6.1513">
        <ele>453.160191</ele>
        <time>2025-04-25T08:53:49.000Z</time>
      </trkpt>
      <trkpt lat="43.37025" lon="6.1513">
        <ele>453.160191</ele>
        <time>2025-04-25T08:53:51.000Z</time>
      </trkpt>
      <trkpt lat="43.37025" lon="6.15126">
        <ele>453.202663</ele>
        <time>2025-04-25T08:53:52.000Z</time>
      </trkpt>
      <trkpt lat="43.37025" lon="6.15126">
        <ele>453.202663</ele>
        <time>2025-04-25T08:53:52.000Z</time>
      </trkpt>
      <trkpt lat="43.37026" lon="6.15124">
        <ele>453.224483</ele>
        <time>2025-04-25T08:53:53.000Z</time>
      </trkpt>
      <trkpt lat="43.37026" lon="6.15124">
        <ele>453.224483</ele>
        <time>2025-04-25T08:53:53.000Z</time>
      </trkpt>
      <trkpt lat="43.37026" lon="6.1512">
        <ele>453.262599</ele>
        <time>2025-04-25T08:53:54.000Z</time>
      </trkpt>
      <trkpt lat="43.37026" lon="6.1512">
        <ele>453.262599</ele>
        <time>2025-04-25T08:53:54.000Z</time>
      </trkpt>
      <trkpt lat="43.37027" lon="6.15116">
        <ele>453.307146</ele>
        <time>2025-04-25T08:53:55.000Z</time>
      </trkpt>
      <trkpt lat="43.37028" lon="6.15112">
        <ele>453.346346</ele>
        <time>2025-04-25T08:53:56.000Z</time>
      </trkpt>
      <trkpt lat="43.37028" lon="6.15112">
        <ele>453.346346</ele>
        <time>2025-04-25T08:53:56.000Z</time>
      </trkpt>
      <trkpt lat="43.37029" lon="6.15109">
        <ele>453.384939</ele>
        <time>2025-04-25T08:53:57.000Z</time>
      </trkpt>
      <trkpt lat="43.3703" lon="6.15105">
        <ele>453.430888</ele>
        <time>2025-04-25T08:53:58.000Z</time>
      </trkpt>
      <trkpt lat="43.3703" lon="6.15105">
        <ele>453.430888</ele>
        <time>2025-04-25T08:53:58.000Z</time>
      </trkpt>
      <trkpt lat="43.37032" lon="6.15104">
        <ele>453.455008</ele>
        <time>2025-04-25T08:53:59.000Z</time>
      </trkpt>
      <trkpt lat="43.37032" lon="6.15104">
        <ele>453.455008</ele>
        <time>2025-04-25T08:53:59.000Z</time>
      </trkpt>
      <trkpt lat="43.37034" lon="6.15104">
        <ele>453.488555</ele>
        <time>2025-04-25T08:54:00.000Z</time>
      </trkpt>
      <trkpt lat="43.37037" lon="6.15103">
        <ele>453.529948</ele>
        <time>2025-04-25T08:54:01.000Z</time>
      </trkpt>
      <trkpt lat="43.37037" lon="6.15103">
        <ele>453.529948</ele>
        <time>2025-04-25T08:54:01.000Z</time>
      </trkpt>
      <trkpt lat="43.37038" lon="6.15102">
        <ele>453.549027</ele>
        <time>2025-04-25T08:54:02.000Z</time>
      </trkpt>
      <trkpt lat="43.37038" lon="6.15102">
        <ele>453.549027</ele>
        <time>2025-04-25T08:54:02.000Z</time>
      </trkpt>
      <trkpt lat="43.37038" lon="6.151">
        <ele>453.567823</ele>
        <time>2025-04-25T08:54:03.000Z</time>
      </trkpt>
      <trkpt lat="43.37038" lon="6.151">
        <ele>453.567823</ele>
        <time>2025-04-25T08:54:03.000Z</time>
      </trkpt>
      <trkpt lat="43.37038" lon="6.15097">
        <ele>453.59938</ele>
        <time>2025-04-25T08:54:04.000Z</time>
      </trkpt>
      <trkpt lat="43.37038" lon="6.15094">
        <ele>453.635144</ele>
        <time>2025-04-25T08:54:05.000Z</time>
      </trkpt>
      <trkpt lat="43.37038" lon="6.15094">
        <ele>453.635144</ele>
        <time>2025-04-25T08:54:05.000Z</time>
      </trkpt>
      <trkpt lat="43.37039" lon="6.15089">
        <ele>453.663763</ele>
        <time>2025-04-25T08:54:06.000Z</time>
      </trkpt>
      <trkpt lat="43.37039" lon="6.15085">
        <ele>453.261459</ele>
        <time>2025-04-25T08:54:07.000Z</time>
      </trkpt>
      <trkpt lat="43.3704" lon="6.15081">
        <ele>452.845573</ele>
        <time>2025-04-25T08:54:08.000Z</time>
      </trkpt>
      <trkpt lat="43.3704" lon="6.15081">
        <ele>452.845573</ele>
        <time>2025-04-25T08:54:08.000Z</time>
      </trkpt>
      <trkpt lat="43.3704" lon="6.15077">
        <ele>452.479356</ele>
        <time>2025-04-25T08:54:09.000Z</time>
      </trkpt>
      <trkpt lat="43.37042" lon="6.15075">
        <ele>452.215898</ele>
        <time>2025-04-25T08:54:10.000Z</time>
      </trkpt>
      <trkpt lat="43.37043" lon="6.15073">
        <ele>452.004953</ele>
        <time>2025-04-25T08:54:11.000Z</time>
      </trkpt>
      <trkpt lat="43.37043" lon="6.15071">
        <ele>451.794634</ele>
        <time>2025-04-25T08:54:12.000Z</time>
      </trkpt>
      <trkpt lat="43.37043" lon="6.15071">
        <ele>451.794634</ele>
        <time>2025-04-25T08:54:12.000Z</time>
      </trkpt>
      <trkpt lat="43.37045" lon="6.15068">
        <ele>451.461468</ele>
        <time>2025-04-25T08:54:13.000Z</time>
      </trkpt>
      <trkpt lat="43.37046" lon="6.15066">
        <ele>451.141835</ele>
        <time>2025-04-25T08:54:14.000Z</time>
      </trkpt>
      <trkpt lat="43.37047" lon="6.15062">
        <ele>450.802775</ele>
        <time>2025-04-25T08:54:15.000Z</time>
      </trkpt>
      <trkpt lat="43.37049" lon="6.1506">
        <ele>450.44964</ele>
        <time>2025-04-25T08:54:16.000Z</time>
      </trkpt>
      <trkpt lat="43.37049" lon="6.1506">
        <ele>450.44964</ele>
        <time>2025-04-25T08:54:16.000Z</time>
      </trkpt>
      <trkpt lat="43.37051" lon="6.15058">
        <ele>450.110025</ele>
        <time>2025-04-25T08:54:17.000Z</time>
      </trkpt>
      <trkpt lat="43.37053" lon="6.15056">
        <ele>449.834767</ele>
        <time>2025-04-25T08:54:18.000Z</time>
      </trkpt>
      <trkpt lat="43.37053" lon="6.15056">
        <ele>449.834767</ele>
        <time>2025-04-25T08:54:18.000Z</time>
      </trkpt>
      <trkpt lat="43.37055" lon="6.15055">
        <ele>449.499365</ele>
        <time>2025-04-25T08:54:19.000Z</time>
      </trkpt>
      <trkpt lat="43.37055" lon="6.15055">
        <ele>449.499365</ele>
        <time>2025-04-25T08:54:20.000Z</time>
      </trkpt>
      <trkpt lat="43.3706" lon="6.15053">
        <ele>448.825036</ele>
        <time>2025-04-25T08:54:21.000Z</time>
      </trkpt>
      <trkpt lat="43.3706" lon="6.15053">
        <ele>448.825036</ele>
        <time>2025-04-25T08:54:21.000Z</time>
      </trkpt>
      <trkpt lat="43.37063" lon="6.15052">
        <ele>448.475937</ele>
        <time>2025-04-25T08:54:22.000Z</time>
      </trkpt>
      <trkpt lat="43.37064" lon="6.15047">
        <ele>447.929274</ele>
        <time>2025-04-25T08:54:25.000Z</time>
      </trkpt>
      <trkpt lat="43.37064" lon="6.15047">
        <ele>447.929274</ele>
        <time>2025-04-25T08:54:25.000Z</time>
      </trkpt>
      <trkpt lat="43.37064" lon="6.15047">
        <ele>447.929274</ele>
        <time>2025-04-25T08:54:26.000Z</time>
      </trkpt>
      <trkpt lat="43.37066" lon="6.1504">
        <ele>447.267089</ele>
        <time>2025-04-25T08:54:33.000Z</time>
      </trkpt>
      <trkpt lat="43.37066" lon="6.1504">
        <ele>447.267089</ele>
        <time>2025-04-25T08:54:33.000Z</time>
      </trkpt>
      <trkpt lat="43.37066" lon="6.1504">
        <ele>447.267089</ele>
        <time>2025-04-25T08:54:35.000Z</time>
      </trkpt>
      <trkpt lat="43.37066" lon="6.1504">
        <ele>447.267089</ele>
        <time>2025-04-25T08:54:51.000Z</time>
      </trkpt>
      <trkpt lat="43.37069" lon="6.15037">
        <ele>446.732517</ele>
        <time>2025-04-25T08:54:52.000Z</time>
      </trkpt>
      <trkpt lat="43.37069" lon="6.15037">
        <ele>446.732517</ele>
        <time>2025-04-25T08:54:52.000Z</time>
      </trkpt>
      <trkpt lat="43.37074" lon="6.15031">
        <ele>445.848751</ele>
        <time>2025-04-25T08:55:14.000Z</time>
      </trkpt>
      <trkpt lat="43.37074" lon="6.15031">
        <ele>445.848751</ele>
        <time>2025-04-25T08:55:14.000Z</time>
      </trkpt>
      <trkpt lat="43.37074" lon="6.15031">
        <ele>445.848751</ele>
        <time>2025-04-25T08:55:15.000Z</time>
      </trkpt>
      <trkpt lat="43.37074" lon="6.15031">
        <ele>445.848751</ele>
        <time>2025-04-25T08:55:16.000Z</time>
      </trkpt>
      <trkpt lat="43.37082" lon="6.15019">
        <ele>444.216026</ele>
        <time>2025-04-25T08:55:22.000Z</time>
      </trkpt>
      <trkpt lat="43.37082" lon="6.15019">
        <ele>444.216026</ele>
        <time>2025-04-25T08:55:22.000Z</time>
      </trkpt>
      <trkpt lat="43.37083" lon="6.15011">
        <ele>443.454965</ele>
        <time>2025-04-25T08:55:30.000Z</time>
      </trkpt>
      <trkpt lat="43.37083" lon="6.15011">
        <ele>443.454965</ele>
        <time>2025-04-25T08:55:30.000Z</time>
      </trkpt>
      <trkpt lat="43.37083" lon="6.15011">
        <ele>443.454965</ele>
        <time>2025-04-25T08:55:31.000Z</time>
      </trkpt>
      <trkpt lat="43.37083" lon="6.15008">
        <ele>443.177186</ele>
        <time>2025-04-25T08:55:39.000Z</time>
      </trkpt>
      <trkpt lat="43.37083" lon="6.15008">
        <ele>443.177186</ele>
        <time>2025-04-25T08:55:39.000Z</time>
      </trkpt>
      <trkpt lat="43.37083" lon="6.15008">
        <ele>443.177186</ele>
        <time>2025-04-25T08:55:40.000Z</time>
      </trkpt>
      <trkpt lat="43.37083" lon="6.15008">
        <ele>443.177186</ele>
        <time>2025-04-25T08:55:41.000Z</time>
      </trkpt>
      <trkpt lat="43.37089" lon="6.15002">
        <ele>442.280302</ele>
        <time>2025-04-25T08:55:42.000Z</time>
      </trkpt>
      <trkpt lat="43.37089" lon="6.15002">
        <ele>442.280302</ele>
        <time>2025-04-25T08:55:42.000Z</time>
      </trkpt>
      <trkpt lat="43.37089" lon="6.15002">
        <ele>442.280302</ele>
        <time>2025-04-25T08:55:43.000Z</time>
      </trkpt>
      <trkpt lat="43.37091" lon="6.14996">
        <ele>441.670938</ele>
        <time>2025-04-25T08:55:44.000Z</time>
      </trkpt>
      <trkpt lat="43.37091" lon="6.14996">
        <ele>441.670938</ele>
        <time>2025-04-25T08:55:44.000Z</time>
      </trkpt>
      <trkpt lat="43.37092" lon="6.14995">
        <ele>441.479849</ele>
        <time>2025-04-25T08:55:45.000Z</time>
      </trkpt>
      <trkpt lat="43.37092" lon="6.14995">
        <ele>441.479849</ele>
        <time>2025-04-25T08:55:45.000Z</time>
      </trkpt>
      <trkpt lat="43.37094" lon="6.14994">
        <ele>441.204363</ele>
        <time>2025-04-25T08:55:46.000Z</time>
      </trkpt>
      <trkpt lat="43.37094" lon="6.14994">
        <ele>441.204363</ele>
        <time>2025-04-25T08:55:46.000Z</time>
      </trkpt>
      <trkpt lat="43.37096" lon="6.14992">
        <ele>440.840616</ele>
        <time>2025-04-25T08:55:47.000Z</time>
      </trkpt>
      <trkpt lat="43.37096" lon="6.14992">
        <ele>440.840616</ele>
        <time>2025-04-25T08:55:47.000Z</time>
      </trkpt>
      <trkpt lat="43.37098" lon="6.1499">
        <ele>440.513374</ele>
        <time>2025-04-25T08:55:48.000Z</time>
      </trkpt>
      <trkpt lat="43.37098" lon="6.1499">
        <ele>440.513374</ele>
        <time>2025-04-25T08:55:48.000Z</time>
      </trkpt>
      <trkpt lat="43.37098" lon="6.1499">
        <ele>440.513374</ele>
        <time>2025-04-25T08:55:49.000Z</time>
      </trkpt>
      <trkpt lat="43.37097" lon="6.14985">
        <ele>440.053829</ele>
        <time>2025-04-25T08:55:50.000Z</time>
      </trkpt>
      <trkpt lat="43.37097" lon="6.14985">
        <ele>440.053829</ele>
        <time>2025-04-25T08:55:50.000Z</time>
      </trkpt>
      <trkpt lat="43.37096" lon="6.14983">
        <ele>439.840179</ele>
        <time>2025-04-25T08:55:51.000Z</time>
      </trkpt>
      <trkpt lat="43.37096" lon="6.14983">
        <ele>439.840179</ele>
        <time>2025-04-25T08:55:51.000Z</time>
      </trkpt>
      <trkpt lat="43.37095" lon="6.14981">
        <ele>439.627558</ele>
        <time>2025-04-25T08:55:52.000Z</time>
      </trkpt>
      <trkpt lat="43.37095" lon="6.14981">
        <ele>439.627558</ele>
        <time>2025-04-25T08:55:52.000Z</time>
      </trkpt>
      <trkpt lat="43.37095" lon="6.14981">
        <ele>439.627558</ele>
        <time>2025-04-25T08:55:53.000Z</time>
      </trkpt>
      <trkpt lat="43.37093" lon="6.14976">
        <ele>439.087138</ele>
        <time>2025-04-25T08:55:54.000Z</time>
      </trkpt>
      <trkpt lat="43.37093" lon="6.14976">
        <ele>439.087138</ele>
        <time>2025-04-25T08:55:54.000Z</time>
      </trkpt>
      <trkpt lat="43.37093" lon="6.14974">
        <ele>438.876409</ele>
        <time>2025-04-25T08:55:55.000Z</time>
      </trkpt>
      <trkpt lat="43.37093" lon="6.14974">
        <ele>438.876409</ele>
        <time>2025-04-25T08:55:55.000Z</time>
      </trkpt>
      <trkpt lat="43.37093" lon="6.14974">
        <ele>438.876409</ele>
        <time>2025-04-25T08:55:56.000Z</time>
      </trkpt>
      <trkpt lat="43.37093" lon="6.14971">
        <ele>438.541159</ele>
        <time>2025-04-25T08:55:57.000Z</time>
      </trkpt>
      <trkpt lat="43.37093" lon="6.14971">
        <ele>438.541159</ele>
        <time>2025-04-25T08:55:57.000Z</time>
      </trkpt>
      <trkpt lat="43.37093" lon="6.1497">
        <ele>438.421095</ele>
        <time>2025-04-25T08:55:58.000Z</time>
      </trkpt>
      <trkpt lat="43.37093" lon="6.1497">
        <ele>438.421095</ele>
        <time>2025-04-25T08:55:58.000Z</time>
      </trkpt>
      <trkpt lat="43.37091" lon="6.14969">
        <ele>438.240999</ele>
        <time>2025-04-25T08:55:59.000Z</time>
      </trkpt>
      <trkpt lat="43.37091" lon="6.14969">
        <ele>438.240999</ele>
        <time>2025-04-25T08:55:59.000Z</time>
      </trkpt>
      <trkpt lat="43.37089" lon="6.14968">
        <ele>437.917456</ele>
        <time>2025-04-25T08:56:00.000Z</time>
      </trkpt>
      <trkpt lat="43.37089" lon="6.14968">
        <ele>437.917456</ele>
        <time>2025-04-25T08:56:00.000Z</time>
      </trkpt>
      <trkpt lat="43.37087" lon="6.14965">
        <ele>437.543501</ele>
        <time>2025-04-25T08:56:01.000Z</time>
      </trkpt>
      <trkpt lat="43.37087" lon="6.14965">
        <ele>437.543501</ele>
        <time>2025-04-25T08:56:01.000Z</time>
      </trkpt>
      <trkpt lat="43.37087" lon="6.14961">
        <ele>437.192068</ele>
        <time>2025-04-25T08:56:02.000Z</time>
      </trkpt>
      <trkpt lat="43.37087" lon="6.14961">
        <ele>437.192068</ele>
        <time>2025-04-25T08:56:02.000Z</time>
      </trkpt>
      <trkpt lat="43.37086" lon="6.14957">
        <ele>436.776829</ele>
        <time>2025-04-25T08:56:03.000Z</time>
      </trkpt>
      <trkpt lat="43.37086" lon="6.14957">
        <ele>436.776829</ele>
        <time>2025-04-25T08:56:03.000Z</time>
      </trkpt>
      <trkpt lat="43.37087" lon="6.14953">
        <ele>436.335641</ele>
        <time>2025-04-25T08:56:04.000Z</time>
      </trkpt>
      <trkpt lat="43.37087" lon="6.14953">
        <ele>436.335641</ele>
        <time>2025-04-25T08:56:04.000Z</time>
      </trkpt>
      <trkpt lat="43.37088" lon="6.14948">
        <ele>435.845535</ele>
        <time>2025-04-25T08:56:05.000Z</time>
      </trkpt>
      <trkpt lat="43.37088" lon="6.14948">
        <ele>435.845535</ele>
        <time>2025-04-25T08:56:05.000Z</time>
      </trkpt>
      <trkpt lat="43.37088" lon="6.14943">
        <ele>435.366606</ele>
        <time>2025-04-25T08:56:06.000Z</time>
      </trkpt>
      <trkpt lat="43.37088" lon="6.14943">
        <ele>435.366606</ele>
        <time>2025-04-25T08:56:06.000Z</time>
      </trkpt>
      <trkpt lat="43.37087" lon="6.14937">
        <ele>434.812889</ele>
        <time>2025-04-25T08:56:07.000Z</time>
      </trkpt>
      <trkpt lat="43.37087" lon="6.14937">
        <ele>434.812889</ele>
        <time>2025-04-25T08:56:07.000Z</time>
      </trkpt>
      <trkpt lat="43.37085" lon="6.14932">
        <ele>434.298361</ele>
        <time>2025-04-25T08:56:08.000Z</time>
      </trkpt>
      <trkpt lat="43.37085" lon="6.14932">
        <ele>434.298361</ele>
        <time>2025-04-25T08:56:08.000Z</time>
      </trkpt>
      <trkpt lat="43.37083" lon="6.14928">
        <ele>433.816359</ele>
        <time>2025-04-25T08:56:09.000Z</time>
      </trkpt>
      <trkpt lat="43.37083" lon="6.14928">
        <ele>433.816359</ele>
        <time>2025-04-25T08:56:09.000Z</time>
      </trkpt>
      <trkpt lat="43.37081" lon="6.14923">
        <ele>433.297247</ele>
        <time>2025-04-25T08:56:10.000Z</time>
      </trkpt>
      <trkpt lat="43.37081" lon="6.14923">
        <ele>433.297247</ele>
        <time>2025-04-25T08:56:10.000Z</time>
      </trkpt>
      <trkpt lat="43.3708" lon="6.14919">
        <ele>432.878629</ele>
        <time>2025-04-25T08:56:11.000Z</time>
      </trkpt>
      <trkpt lat="43.3708" lon="6.14919">
        <ele>432.878629</ele>
        <time>2025-04-25T08:56:11.000Z</time>
      </trkpt>
      <trkpt lat="43.37079" lon="6.14915">
        <ele>432.495726</ele>
        <time>2025-04-25T08:56:12.000Z</time>
      </trkpt>
      <trkpt lat="43.37079" lon="6.14915">
        <ele>432.495726</ele>
        <time>2025-04-25T08:56:12.000Z</time>
      </trkpt>
      <trkpt lat="43.37078" lon="6.14913">
        <ele>432.200725</ele>
        <time>2025-04-25T08:56:13.000Z</time>
      </trkpt>
      <trkpt lat="43.37078" lon="6.14913">
        <ele>432.200725</ele>
        <time>2025-04-25T08:56:13.000Z</time>
      </trkpt>
      <trkpt lat="43.37076" lon="6.14911">
        <ele>431.902068</ele>
        <time>2025-04-25T08:56:14.000Z</time>
      </trkpt>
      <trkpt lat="43.37076" lon="6.14911">
        <ele>431.902068</ele>
        <time>2025-04-25T08:56:14.000Z</time>
      </trkpt>
      <trkpt lat="43.37073" lon="6.14909">
        <ele>431.497993</ele>
        <time>2025-04-25T08:56:15.000Z</time>
      </trkpt>
      <trkpt lat="43.37073" lon="6.14909">
        <ele>431.497993</ele>
        <time>2025-04-25T08:56:15.000Z</time>
      </trkpt>
      <trkpt lat="43.37071" lon="6.14907">
        <ele>431.085413</ele>
        <time>2025-04-25T08:56:16.000Z</time>
      </trkpt>
      <trkpt lat="43.37071" lon="6.14907">
        <ele>431.085413</ele>
        <time>2025-04-25T08:56:16.000Z</time>
      </trkpt>
      <trkpt lat="43.37069" lon="6.14904">
        <ele>430.704289</ele>
        <time>2025-04-25T08:56:17.000Z</time>
      </trkpt>
      <trkpt lat="43.37069" lon="6.14904">
        <ele>430.704289</ele>
        <time>2025-04-25T08:56:17.000Z</time>
      </trkpt>
      <trkpt lat="43.37066" lon="6.149">
        <ele>430.223246</ele>
        <time>2025-04-25T08:56:18.000Z</time>
      </trkpt>
      <trkpt lat="43.37066" lon="6.149">
        <ele>430.223246</ele>
        <time>2025-04-25T08:56:18.000Z</time>
      </trkpt>
      <trkpt lat="43.37064" lon="6.14898">
        <ele>429.906114</ele>
        <time>2025-04-25T08:56:19.000Z</time>
      </trkpt>
      <trkpt lat="43.37064" lon="6.14898">
        <ele>429.906114</ele>
        <time>2025-04-25T08:56:19.000Z</time>
      </trkpt>
      <trkpt lat="43.37062" lon="6.14896">
        <ele>429.587908</ele>
        <time>2025-04-25T08:56:20.000Z</time>
      </trkpt>
      <trkpt lat="43.37062" lon="6.14896">
        <ele>429.587908</ele>
        <time>2025-04-25T08:56:20.000Z</time>
      </trkpt>
      <trkpt lat="43.3706" lon="6.14894">
        <ele>429.328955</ele>
        <time>2025-04-25T08:56:21.000Z</time>
      </trkpt>
      <trkpt lat="43.3706" lon="6.14894">
        <ele>429.328955</ele>
        <time>2025-04-25T08:56:21.000Z</time>
      </trkpt>
      <trkpt lat="43.37058" lon="6.14891">
        <ele>429.048911</ele>
        <time>2025-04-25T08:56:22.000Z</time>
      </trkpt>
      <trkpt lat="43.37058" lon="6.14891">
        <ele>429.048911</ele>
        <time>2025-04-25T08:56:22.000Z</time>
      </trkpt>
      <trkpt lat="43.37059" lon="6.14887">
        <ele>428.755699</ele>
        <time>2025-04-25T08:56:23.000Z</time>
      </trkpt>
      <trkpt lat="43.37059" lon="6.14887">
        <ele>428.755699</ele>
        <time>2025-04-25T08:56:23.000Z</time>
      </trkpt>
      <trkpt lat="43.37061" lon="6.14884">
        <ele>428.442768</ele>
        <time>2025-04-25T08:56:24.000Z</time>
      </trkpt>
      <trkpt lat="43.37061" lon="6.14884">
        <ele>428.442768</ele>
        <time>2025-04-25T08:56:24.000Z</time>
      </trkpt>
      <trkpt lat="43.37063" lon="6.1488">
        <ele>428.06078</ele>
        <time>2025-04-25T08:56:25.000Z</time>
      </trkpt>
      <trkpt lat="43.37063" lon="6.1488">
        <ele>428.06078</ele>
        <time>2025-04-25T08:56:25.000Z</time>
      </trkpt>
      <trkpt lat="43.37064" lon="6.14876">
        <ele>427.699632</ele>
        <time>2025-04-25T08:56:26.000Z</time>
      </trkpt>
      <trkpt lat="43.37064" lon="6.14876">
        <ele>427.699632</ele>
        <time>2025-04-25T08:56:26.000Z</time>
      </trkpt>
      <trkpt lat="43.37064" lon="6.14871">
        <ele>427.335117</ele>
        <time>2025-04-25T08:56:27.000Z</time>
      </trkpt>
      <trkpt lat="43.37064" lon="6.14871">
        <ele>427.335117</ele>
        <time>2025-04-25T08:56:27.000Z</time>
      </trkpt>
      <trkpt lat="43.37065" lon="6.14866">
        <ele>426.885458</ele>
        <time>2025-04-25T08:56:28.000Z</time>
      </trkpt>
      <trkpt lat="43.37065" lon="6.14866">
        <ele>426.885458</ele>
        <time>2025-04-25T08:56:28.000Z</time>
      </trkpt>
      <trkpt lat="43.37064" lon="6.14861">
        <ele>426.553404</ele>
        <time>2025-04-25T08:56:29.000Z</time>
      </trkpt>
      <trkpt lat="43.37064" lon="6.14861">
        <ele>426.553404</ele>
        <time>2025-04-25T08:56:29.000Z</time>
      </trkpt>
      <trkpt lat="43.37064" lon="6.14857">
        <ele>426.222941</ele>
        <time>2025-04-25T08:56:30.000Z</time>
      </trkpt>
      <trkpt lat="43.37064" lon="6.14857">
        <ele>426.222941</ele>
        <time>2025-04-25T08:56:30.000Z</time>
      </trkpt>
      <trkpt lat="43.37064" lon="6.14853">
        <ele>425.916083</ele>
        <time>2025-04-25T08:56:31.000Z</time>
      </trkpt>
      <trkpt lat="43.37064" lon="6.14853">
        <ele>425.916083</ele>
        <time>2025-04-25T08:56:31.000Z</time>
      </trkpt>
      <trkpt lat="43.37065" lon="6.14848">
        <ele>425.505652</ele>
        <time>2025-04-25T08:56:32.000Z</time>
      </trkpt>
      <trkpt lat="43.37065" lon="6.14848">
        <ele>425.505652</ele>
        <time>2025-04-25T08:56:32.000Z</time>
      </trkpt>
      <trkpt lat="43.37065" lon="6.14842">
        <ele>425.025695</ele>
        <time>2025-04-25T08:56:33.000Z</time>
      </trkpt>
      <trkpt lat="43.37065" lon="6.14842">
        <ele>425.025695</ele>
        <time>2025-04-25T08:56:33.000Z</time>
      </trkpt>
      <trkpt lat="43.37064" lon="6.14835">
        <ele>424.469737</ele>
        <time>2025-04-25T08:56:34.000Z</time>
      </trkpt>
      <trkpt lat="43.37064" lon="6.14835">
        <ele>424.469737</ele>
        <time>2025-04-25T08:56:34.000Z</time>
      </trkpt>
      <trkpt lat="43.37064" lon="6.14829">
        <ele>423.956477</ele>
        <time>2025-04-25T08:56:35.000Z</time>
      </trkpt>
      <trkpt lat="43.37064" lon="6.14829">
        <ele>423.956477</ele>
        <time>2025-04-25T08:56:35.000Z</time>
      </trkpt>
      <trkpt lat="43.37064" lon="6.14822">
        <ele>423.437768</ele>
        <time>2025-04-25T08:56:36.000Z</time>
      </trkpt>
      <trkpt lat="43.37064" lon="6.14822">
        <ele>423.437768</ele>
        <time>2025-04-25T08:56:36.000Z</time>
      </trkpt>
      <trkpt lat="43.37065" lon="6.14816">
        <ele>422.967405</ele>
        <time>2025-04-25T08:56:37.000Z</time>
      </trkpt>
      <trkpt lat="43.37065" lon="6.14816">
        <ele>422.967405</ele>
        <time>2025-04-25T08:56:37.000Z</time>
      </trkpt>
      <trkpt lat="43.37066" lon="6.14809">
        <ele>422.41764</ele>
        <time>2025-04-25T08:56:38.000Z</time>
      </trkpt>
      <trkpt lat="43.37066" lon="6.14809">
        <ele>422.41764</ele>
        <time>2025-04-25T08:56:38.000Z</time>
      </trkpt>
      <trkpt lat="43.37067" lon="6.14803">
        <ele>421.877195</ele>
        <time>2025-04-25T08:56:39.000Z</time>
      </trkpt>
      <trkpt lat="43.37067" lon="6.14803">
        <ele>421.877195</ele>
        <time>2025-04-25T08:56:39.000Z</time>
      </trkpt>
      <trkpt lat="43.37067" lon="6.14796">
        <ele>421.381502</ele>
        <time>2025-04-25T08:56:40.000Z</time>
      </trkpt>
      <trkpt lat="43.37067" lon="6.14796">
        <ele>421.381502</ele>
        <time>2025-04-25T08:56:40.000Z</time>
      </trkpt>
      <trkpt lat="43.37067" lon="6.14789">
        <ele>420.805497</ele>
        <time>2025-04-25T08:56:41.000Z</time>
      </trkpt>
      <trkpt lat="43.37067" lon="6.14789">
        <ele>420.805497</ele>
        <time>2025-04-25T08:56:41.000Z</time>
      </trkpt>
      <trkpt lat="43.37066" lon="6.14782">
        <ele>420.261624</ele>
        <time>2025-04-25T08:56:42.000Z</time>
      </trkpt>
      <trkpt lat="43.37066" lon="6.14782">
        <ele>420.261624</ele>
        <time>2025-04-25T08:56:42.000Z</time>
      </trkpt>
      <trkpt lat="43.37066" lon="6.14775">
        <ele>419.693465</ele>
        <time>2025-04-25T08:56:43.000Z</time>
      </trkpt>
      <trkpt lat="43.37066" lon="6.14775">
        <ele>419.693465</ele>
        <time>2025-04-25T08:56:43.000Z</time>
      </trkpt>
      <trkpt lat="43.37065" lon="6.14768">
        <ele>419.165799</ele>
        <time>2025-04-25T08:56:44.000Z</time>
      </trkpt>
      <trkpt lat="43.37065" lon="6.14768">
        <ele>419.165799</ele>
        <time>2025-04-25T08:56:44.000Z</time>
      </trkpt>
      <trkpt lat="43.37063" lon="6.14761">
        <ele>418.584045</ele>
        <time>2025-04-25T08:56:45.000Z</time>
      </trkpt>
      <trkpt lat="43.37063" lon="6.14761">
        <ele>418.584045</ele>
        <time>2025-04-25T08:56:45.000Z</time>
      </trkpt>
      <trkpt lat="43.37062" lon="6.14755">
        <ele>418.08954</ele>
        <time>2025-04-25T08:56:46.000Z</time>
      </trkpt>
      <trkpt lat="43.37062" lon="6.14755">
        <ele>418.08954</ele>
        <time>2025-04-25T08:56:46.000Z</time>
      </trkpt>
      <trkpt lat="43.37062" lon="6.14748">
        <ele>417.52138</ele>
        <time>2025-04-25T08:56:47.000Z</time>
      </trkpt>
      <trkpt lat="43.37062" lon="6.14748">
        <ele>417.52138</ele>
        <time>2025-04-25T08:56:47.000Z</time>
      </trkpt>
      <trkpt lat="43.37061" lon="6.1474">
        <ele>416.917163</ele>
        <time>2025-04-25T08:56:48.000Z</time>
      </trkpt>
      <trkpt lat="43.37061" lon="6.1474">
        <ele>416.917163</ele>
        <time>2025-04-25T08:56:48.000Z</time>
      </trkpt>
      <trkpt lat="43.37062" lon="6.14735">
        <ele>416.465343</ele>
        <time>2025-04-25T08:56:49.000Z</time>
      </trkpt>
      <trkpt lat="43.37062" lon="6.14735">
        <ele>416.465343</ele>
        <time>2025-04-25T08:56:49.000Z</time>
      </trkpt>
      <trkpt lat="43.37064" lon="6.14731">
        <ele>416.121641</ele>
        <time>2025-04-25T08:56:50.000Z</time>
      </trkpt>
      <trkpt lat="43.37064" lon="6.14731">
        <ele>416.121641</ele>
        <time>2025-04-25T08:56:50.000Z</time>
      </trkpt>
      <trkpt lat="43.37065" lon="6.14729">
        <ele>415.898404</ele>
        <time>2025-04-25T08:56:51.000Z</time>
      </trkpt>
      <trkpt lat="43.37065" lon="6.14729">
        <ele>415.898404</ele>
        <time>2025-04-25T08:56:51.000Z</time>
      </trkpt>
      <trkpt lat="43.37067" lon="6.14726">
        <ele>415.611913</ele>
        <time>2025-04-25T08:56:52.000Z</time>
      </trkpt>
      <trkpt lat="43.37067" lon="6.14726">
        <ele>415.611913</ele>
        <time>2025-04-25T08:56:52.000Z</time>
      </trkpt>
      <trkpt lat="43.37068" lon="6.14723">
        <ele>415.356167</ele>
        <time>2025-04-25T08:56:53.000Z</time>
      </trkpt>
      <trkpt lat="43.37068" lon="6.14723">
        <ele>415.356167</ele>
        <time>2025-04-25T08:56:53.000Z</time>
      </trkpt>
      <trkpt lat="43.37069" lon="6.14719">
        <ele>415.022832</ele>
        <time>2025-04-25T08:56:54.000Z</time>
      </trkpt>
      <trkpt lat="43.37069" lon="6.14719">
        <ele>415.022832</ele>
        <time>2025-04-25T08:56:54.000Z</time>
      </trkpt>
      <trkpt lat="43.37071" lon="6.14716">
        <ele>414.732508</ele>
        <time>2025-04-25T08:56:55.000Z</time>
      </trkpt>
      <trkpt lat="43.37071" lon="6.14716">
        <ele>414.732508</ele>
        <time>2025-04-25T08:56:55.000Z</time>
      </trkpt>
      <trkpt lat="43.37071" lon="6.14714">
        <ele>414.551541</ele>
        <time>2025-04-25T08:56:56.000Z</time>
      </trkpt>
      <trkpt lat="43.37071" lon="6.14714">
        <ele>414.551541</ele>
        <time>2025-04-25T08:56:56.000Z</time>
      </trkpt>
      <trkpt lat="43.37071" lon="6.14712">
        <ele>414.378441</ele>
        <time>2025-04-25T08:56:57.000Z</time>
      </trkpt>
      <trkpt lat="43.37071" lon="6.14712">
        <ele>414.378441</ele>
        <time>2025-04-25T08:56:57.000Z</time>
      </trkpt>
      <trkpt lat="43.3707" lon="6.1471">
        <ele>414.215231</ele>
        <time>2025-04-25T08:56:58.000Z</time>
      </trkpt>
      <trkpt lat="43.3707" lon="6.1471">
        <ele>414.215231</ele>
        <time>2025-04-25T08:56:58.000Z</time>
      </trkpt>
      <trkpt lat="43.37069" lon="6.14707">
        <ele>414.014614</ele>
        <time>2025-04-25T08:56:59.000Z</time>
      </trkpt>
      <trkpt lat="43.37069" lon="6.14707">
        <ele>414.014614</ele>
        <time>2025-04-25T08:56:59.000Z</time>
      </trkpt>
      <trkpt lat="43.37068" lon="6.14705">
        <ele>413.75956</ele>
        <time>2025-04-25T08:57:00.000Z</time>
      </trkpt>
      <trkpt lat="43.37068" lon="6.14705">
        <ele>413.75956</ele>
        <time>2025-04-25T08:57:00.000Z</time>
      </trkpt>
      <trkpt lat="43.37067" lon="6.14701">
        <ele>413.433576</ele>
        <time>2025-04-25T08:57:01.000Z</time>
      </trkpt>
      <trkpt lat="43.37067" lon="6.14701">
        <ele>413.433576</ele>
        <time>2025-04-25T08:57:01.000Z</time>
      </trkpt>
      <trkpt lat="43.37067" lon="6.14697">
        <ele>413.110982</ele>
        <time>2025-04-25T08:57:02.000Z</time>
      </trkpt>
      <trkpt lat="43.37067" lon="6.14697">
        <ele>413.110982</ele>
        <time>2025-04-25T08:57:02.000Z</time>
      </trkpt>
      <trkpt lat="43.37067" lon="6.14693">
        <ele>412.793292</ele>
        <time>2025-04-25T08:57:03.000Z</time>
      </trkpt>
      <trkpt lat="43.37067" lon="6.14693">
        <ele>412.793292</ele>
        <time>2025-04-25T08:57:03.000Z</time>
      </trkpt>
      <trkpt lat="43.37068" lon="6.14689">
        <ele>412.504614</ele>
        <time>2025-04-25T08:57:04.000Z</time>
      </trkpt>
      <trkpt lat="43.37068" lon="6.14689">
        <ele>412.504614</ele>
        <time>2025-04-25T08:57:04.000Z</time>
      </trkpt>
      <trkpt lat="43.37069" lon="6.14685">
        <ele>412.10947</ele>
        <time>2025-04-25T08:57:05.000Z</time>
      </trkpt>
      <trkpt lat="43.37069" lon="6.14685">
        <ele>412.10947</ele>
        <time>2025-04-25T08:57:05.000Z</time>
      </trkpt>
      <trkpt lat="43.37069" lon="6.1468">
        <ele>411.753917</ele>
        <time>2025-04-25T08:57:06.000Z</time>
      </trkpt>
      <trkpt lat="43.37069" lon="6.1468">
        <ele>411.753917</ele>
        <time>2025-04-25T08:57:06.000Z</time>
      </trkpt>
      <trkpt lat="43.37069" lon="6.14676">
        <ele>411.44402</ele>
        <time>2025-04-25T08:57:07.000Z</time>
      </trkpt>
      <trkpt lat="43.37069" lon="6.14676">
        <ele>411.44402</ele>
        <time>2025-04-25T08:57:07.000Z</time>
      </trkpt>
      <trkpt lat="43.37069" lon="6.14672">
        <ele>411.082085</ele>
        <time>2025-04-25T08:57:08.000Z</time>
      </trkpt>
      <trkpt lat="43.37069" lon="6.14672">
        <ele>411.082085</ele>
        <time>2025-04-25T08:57:08.000Z</time>
      </trkpt>
      <trkpt lat="43.37069" lon="6.14666">
        <ele>410.625732</ele>
        <time>2025-04-25T08:57:09.000Z</time>
      </trkpt>
      <trkpt lat="43.37069" lon="6.14666">
        <ele>410.625732</ele>
        <time>2025-04-25T08:57:09.000Z</time>
      </trkpt>
      <trkpt lat="43.3707" lon="6.14661">
        <ele>410.356734</ele>
        <time>2025-04-25T08:57:10.000Z</time>
      </trkpt>
      <trkpt lat="43.3707" lon="6.14661">
        <ele>410.356734</ele>
        <time>2025-04-25T08:57:10.000Z</time>
      </trkpt>
      <trkpt lat="43.37071" lon="6.14657">
        <ele>410.156943</ele>
        <time>2025-04-25T08:57:11.000Z</time>
      </trkpt>
      <trkpt lat="43.37071" lon="6.14657">
        <ele>410.156943</ele>
        <time>2025-04-25T08:57:11.000Z</time>
      </trkpt>
      <trkpt lat="43.37073" lon="6.14654">
        <ele>409.958879</ele>
        <time>2025-04-25T08:57:12.000Z</time>
      </trkpt>
      <trkpt lat="43.37075" lon="6.14652">
        <ele>409.784911</ele>
        <time>2025-04-25T08:57:13.000Z</time>
      </trkpt>
      <trkpt lat="43.37075" lon="6.14652">
        <ele>409.784911</ele>
        <time>2025-04-25T08:57:13.000Z</time>
      </trkpt>
      <trkpt lat="43.37075" lon="6.14649">
        <ele>409.65405</ele>
        <time>2025-04-25T08:57:14.000Z</time>
      </trkpt>
      <trkpt lat="43.37075" lon="6.14649">
        <ele>409.65405</ele>
        <time>2025-04-25T08:57:14.000Z</time>
      </trkpt>
      <trkpt lat="43.37076" lon="6.14646">
        <ele>409.495448</ele>
        <time>2025-04-25T08:57:15.000Z</time>
      </trkpt>
      <trkpt lat="43.37076" lon="6.14643">
        <ele>409.33914</ele>
        <time>2025-04-25T08:57:16.000Z</time>
      </trkpt>
      <trkpt lat="43.37076" lon="6.14643">
        <ele>409.33914</ele>
        <time>2025-04-25T08:57:16.000Z</time>
      </trkpt>
      <trkpt lat="43.37075" lon="6.1464">
        <ele>409.209327</ele>
        <time>2025-04-25T08:57:17.000Z</time>
      </trkpt>
      <trkpt lat="43.37075" lon="6.1464">
        <ele>409.209327</ele>
        <time>2025-04-25T08:57:17.000Z</time>
      </trkpt>
      <trkpt lat="43.37075" lon="6.14637">
        <ele>409.064695</ele>
        <time>2025-04-25T08:57:18.000Z</time>
      </trkpt>
      <trkpt lat="43.37074" lon="6.14635">
        <ele>408.926787</ele>
        <time>2025-04-25T08:57:19.000Z</time>
      </trkpt>
      <trkpt lat="43.37074" lon="6.14635">
        <ele>408.926787</ele>
        <time>2025-04-25T08:57:19.000Z</time>
      </trkpt>
      <trkpt lat="43.37072" lon="6.14633">
        <ele>408.793034</ele>
        <time>2025-04-25T08:57:20.000Z</time>
      </trkpt>
      <trkpt lat="43.37072" lon="6.14633">
        <ele>408.793034</ele>
        <time>2025-04-25T08:57:20.000Z</time>
      </trkpt>
      <trkpt lat="43.37071" lon="6.14633">
        <ele>408.664524</ele>
        <time>2025-04-25T08:57:21.000Z</time>
      </trkpt>
      <trkpt lat="43.37071" lon="6.14633">
        <ele>408.664524</ele>
        <time>2025-04-25T08:57:21.000Z</time>
      </trkpt>
      <trkpt lat="43.37069" lon="6.1463">
        <ele>408.514088</ele>
        <time>2025-04-25T08:57:23.000Z</time>
      </trkpt>
      <trkpt lat="43.37069" lon="6.1463">
        <ele>408.514088</ele>
        <time>2025-04-25T08:57:23.000Z</time>
      </trkpt>
      <trkpt lat="43.37069" lon="6.14627">
        <ele>408.346172</ele>
        <time>2025-04-25T08:57:24.000Z</time>
      </trkpt>
      <trkpt lat="43.37069" lon="6.14627">
        <ele>408.346172</ele>
        <time>2025-04-25T08:57:24.000Z</time>
      </trkpt>
      <trkpt lat="43.37069" lon="6.14623">
        <ele>408.175211</ele>
        <time>2025-04-25T08:57:24.000Z</time>
      </trkpt>
      <trkpt lat="43.37069" lon="6.14623">
        <ele>408.175211</ele>
        <time>2025-04-25T08:57:24.000Z</time>
      </trkpt>
      <trkpt lat="43.37069" lon="6.14619">
        <ele>407.965172</ele>
        <time>2025-04-25T08:57:26.000Z</time>
      </trkpt>
      <trkpt lat="43.37069" lon="6.14619">
        <ele>407.965172</ele>
        <time>2025-04-25T08:57:26.000Z</time>
      </trkpt>
      <trkpt lat="43.37069" lon="6.14614">
        <ele>407.734711</ele>
        <time>2025-04-25T08:57:27.000Z</time>
      </trkpt>
      <trkpt lat="43.37069" lon="6.14614">
        <ele>407.734711</ele>
        <time>2025-04-25T08:57:27.000Z</time>
      </trkpt>
      <trkpt lat="43.3707" lon="6.1461">
        <ele>407.527848</ele>
        <time>2025-04-25T08:57:27.000Z</time>
      </trkpt>
      <trkpt lat="43.3707" lon="6.1461">
        <ele>407.527848</ele>
        <time>2025-04-25T08:57:27.000Z</time>
      </trkpt>
      <trkpt lat="43.37071" lon="6.14607">
        <ele>407.359347</ele>
        <time>2025-04-25T08:57:28.000Z</time>
      </trkpt>
      <trkpt lat="43.37071" lon="6.14607">
        <ele>407.359347</ele>
        <time>2025-04-25T08:57:28.000Z</time>
      </trkpt>
      <trkpt lat="43.37073" lon="6.14604">
        <ele>407.157389</ele>
        <time>2025-04-25T08:57:30.000Z</time>
      </trkpt>
      <trkpt lat="43.37074" lon="6.146">
        <ele>406.98478</ele>
        <time>2025-04-25T08:57:30.000Z</time>
      </trkpt>
      <trkpt lat="43.37074" lon="6.146">
        <ele>406.98478</ele>
        <time>2025-04-25T08:57:30.000Z</time>
      </trkpt>
      <trkpt lat="43.37074" lon="6.14596">
        <ele>406.758485</ele>
        <time>2025-04-25T08:57:32.000Z</time>
      </trkpt>
      <trkpt lat="43.37074" lon="6.14592">
        <ele>406.56126</ele>
        <time>2025-04-25T08:57:33.000Z</time>
      </trkpt>
      <trkpt lat="43.37074" lon="6.14592">
        <ele>406.56126</ele>
        <time>2025-04-25T08:57:33.000Z</time>
      </trkpt>
      <trkpt lat="43.37075" lon="6.14588">
        <ele>406.359195</ele>
        <time>2025-04-25T08:57:34.000Z</time>
      </trkpt>
      <trkpt lat="43.37075" lon="6.14588">
        <ele>406.359195</ele>
        <time>2025-04-25T08:57:35.000Z</time>
      </trkpt>
      <trkpt lat="43.37072" lon="6.14581">
        <ele>406.001963</ele>
        <time>2025-04-25T08:57:36.000Z</time>
      </trkpt>
      <trkpt lat="43.3707" lon="6.14582">
        <ele>405.866935</ele>
        <time>2025-04-25T08:57:37.000Z</time>
      </trkpt>
      <trkpt lat="43.3707" lon="6.14582">
        <ele>405.866935</ele>
        <time>2025-04-25T08:57:37.000Z</time>
      </trkpt>
      <trkpt lat="43.37068" lon="6.14582">
        <ele>405.711155</ele>
        <time>2025-04-25T08:57:37.000Z</time>
      </trkpt>
      <trkpt lat="43.37068" lon="6.14582">
        <ele>405.711155</ele>
        <time>2025-04-25T08:57:37.000Z</time>
      </trkpt>
      <trkpt lat="43.37065" lon="6.1458">
        <ele>405.518935</ele>
        <time>2025-04-25T08:57:39.000Z</time>
      </trkpt>
      <trkpt lat="43.37065" lon="6.1458">
        <ele>405.518935</ele>
        <time>2025-04-25T08:57:39.000Z</time>
      </trkpt>
      <trkpt lat="43.37062" lon="6.14578">
        <ele>405.268498</ele>
        <time>2025-04-25T08:57:40.000Z</time>
      </trkpt>
      <trkpt lat="43.37062" lon="6.14578">
        <ele>405.268498</ele>
        <time>2025-04-25T08:57:40.000Z</time>
      </trkpt>
      <trkpt lat="43.37059" lon="6.14575">
        <ele>404.995893</ele>
        <time>2025-04-25T08:57:41.000Z</time>
      </trkpt>
      <trkpt lat="43.37059" lon="6.14575">
        <ele>404.995893</ele>
        <time>2025-04-25T08:57:41.000Z</time>
      </trkpt>
      <trkpt lat="43.37056" lon="6.1457">
        <ele>404.715076</ele>
        <time>2025-04-25T08:57:42.000Z</time>
      </trkpt>
      <trkpt lat="43.37056" lon="6.1457">
        <ele>404.715076</ele>
        <time>2025-04-25T08:57:42.000Z</time>
      </trkpt>
      <trkpt lat="43.37056" lon="6.14566">
        <ele>404.513794</ele>
        <time>2025-04-25T08:57:43.000Z</time>
      </trkpt>
      <trkpt lat="43.37056" lon="6.14566">
        <ele>404.513794</ele>
        <time>2025-04-25T08:57:43.000Z</time>
      </trkpt>
      <trkpt lat="43.37056" lon="6.14562">
        <ele>404.346497</ele>
        <time>2025-04-25T08:57:44.000Z</time>
      </trkpt>
      <trkpt lat="43.37056" lon="6.14562">
        <ele>404.346497</ele>
        <time>2025-04-25T08:57:44.000Z</time>
      </trkpt>
      <trkpt lat="43.37058" lon="6.14559">
        <ele>404.148657</ele>
        <time>2025-04-25T08:57:45.000Z</time>
      </trkpt>
      <trkpt lat="43.37058" lon="6.14559">
        <ele>404.148657</ele>
        <time>2025-04-25T08:57:45.000Z</time>
      </trkpt>
      <trkpt lat="43.37059" lon="6.14555">
        <ele>403.945971</ele>
        <time>2025-04-25T08:57:45.000Z</time>
      </trkpt>
      <trkpt lat="43.37059" lon="6.14555">
        <ele>403.945971</ele>
        <time>2025-04-25T08:57:45.000Z</time>
      </trkpt>
      <trkpt lat="43.37061" lon="6.14552">
        <ele>403.716645</ele>
        <time>2025-04-25T08:57:47.000Z</time>
      </trkpt>
      <trkpt lat="43.37061" lon="6.14552">
        <ele>403.716645</ele>
        <time>2025-04-25T08:57:47.000Z</time>
      </trkpt>
      <trkpt lat="43.37062" lon="6.14547">
        <ele>403.466567</ele>
        <time>2025-04-25T08:57:48.000Z</time>
      </trkpt>
      <trkpt lat="43.37062" lon="6.14547">
        <ele>403.466567</ele>
        <time>2025-04-25T08:57:48.000Z</time>
      </trkpt>
      <trkpt lat="43.37063" lon="6.14542">
        <ele>403.232221</ele>
        <time>2025-04-25T08:57:49.000Z</time>
      </trkpt>
      <trkpt lat="43.37063" lon="6.14542">
        <ele>403.232221</ele>
        <time>2025-04-25T08:57:49.000Z</time>
      </trkpt>
      <trkpt lat="43.37063" lon="6.14537">
        <ele>403.010775</ele>
        <time>2025-04-25T08:57:49.000Z</time>
      </trkpt>
      <trkpt lat="43.37063" lon="6.14537">
        <ele>403.010775</ele>
        <time>2025-04-25T08:57:49.000Z</time>
      </trkpt>
      <trkpt lat="43.37064" lon="6.14533">
        <ele>402.789231</ele>
        <time>2025-04-25T08:57:51.000Z</time>
      </trkpt>
      <trkpt lat="43.37064" lon="6.14533">
        <ele>402.789231</ele>
        <time>2025-04-25T08:57:51.000Z</time>
      </trkpt>
      <trkpt lat="43.37065" lon="6.14528">
        <ele>402.554884</ele>
        <time>2025-04-25T08:57:52.000Z</time>
      </trkpt>
      <trkpt lat="43.37065" lon="6.14528">
        <ele>402.554884</ele>
        <time>2025-04-25T08:57:52.000Z</time>
      </trkpt>
      <trkpt lat="43.37065" lon="6.14523">
        <ele>402.294607</ele>
        <time>2025-04-25T08:57:52.000Z</time>
      </trkpt>
      <trkpt lat="43.37065" lon="6.14523">
        <ele>402.294607</ele>
        <time>2025-04-25T08:57:52.000Z</time>
      </trkpt>
      <trkpt lat="43.37066" lon="6.14517">
        <ele>402.01975</ele>
        <time>2025-04-25T08:57:54.000Z</time>
      </trkpt>
      <trkpt lat="43.37066" lon="6.14517">
        <ele>402.01975</ele>
        <time>2025-04-25T08:57:54.000Z</time>
      </trkpt>
      <trkpt lat="43.37066" lon="6.14512">
        <ele>401.774045</ele>
        <time>2025-04-25T08:57:54.000Z</time>
      </trkpt>
      <trkpt lat="43.37066" lon="6.14512">
        <ele>401.774045</ele>
        <time>2025-04-25T08:57:54.000Z</time>
      </trkpt>
      <trkpt lat="43.37067" lon="6.14508">
        <ele>401.54926</ele>
        <time>2025-04-25T08:57:56.000Z</time>
      </trkpt>
      <trkpt lat="43.37067" lon="6.14508">
        <ele>401.54926</ele>
        <time>2025-04-25T08:57:56.000Z</time>
      </trkpt>
      <trkpt lat="43.37065" lon="6.14503">
        <ele>401.28657</ele>
        <time>2025-04-25T08:57:57.000Z</time>
      </trkpt>
      <trkpt lat="43.37065" lon="6.14503">
        <ele>401.28657</ele>
        <time>2025-04-25T08:57:57.000Z</time>
      </trkpt>
      <trkpt lat="43.37063" lon="6.14498">
        <ele>400.992682</ele>
        <time>2025-04-25T08:57:58.000Z</time>
      </trkpt>
      <trkpt lat="43.37063" lon="6.14498">
        <ele>400.992682</ele>
        <time>2025-04-25T08:57:58.000Z</time>
      </trkpt>
      <trkpt lat="43.37061" lon="6.14491">
        <ele>400.638893</ele>
        <time>2025-04-25T08:57:59.000Z</time>
      </trkpt>
      <trkpt lat="43.37061" lon="6.14491">
        <ele>400.638893</ele>
        <time>2025-04-25T08:57:59.000Z</time>
      </trkpt>
      <trkpt lat="43.37059" lon="6.14484">
        <ele>400.273041</ele>
        <time>2025-04-25T08:58:00.000Z</time>
      </trkpt>
      <trkpt lat="43.37059" lon="6.14484">
        <ele>400.273041</ele>
        <time>2025-04-25T08:58:00.000Z</time>
      </trkpt>
      <trkpt lat="43.37058" lon="6.14477">
        <ele>399.923218</ele>
        <time>2025-04-25T08:58:01.000Z</time>
      </trkpt>
      <trkpt lat="43.37058" lon="6.14477">
        <ele>399.923218</ele>
        <time>2025-04-25T08:58:01.000Z</time>
      </trkpt>
      <trkpt lat="43.37058" lon="6.14471">
        <ele>399.624046</ele>
        <time>2025-04-25T08:58:02.000Z</time>
      </trkpt>
      <trkpt lat="43.37058" lon="6.14471">
        <ele>399.624046</ele>
        <time>2025-04-25T08:58:02.000Z</time>
      </trkpt>
      <trkpt lat="43.37058" lon="6.14465">
        <ele>399.330968</ele>
        <time>2025-04-25T08:58:03.000Z</time>
      </trkpt>
      <trkpt lat="43.37058" lon="6.14465">
        <ele>399.330968</ele>
        <time>2025-04-25T08:58:03.000Z</time>
      </trkpt>
      <trkpt lat="43.37058" lon="6.14459">
        <ele>399.018351</ele>
        <time>2025-04-25T08:58:04.000Z</time>
      </trkpt>
      <trkpt lat="43.37058" lon="6.14459">
        <ele>399.018351</ele>
        <time>2025-04-25T08:58:04.000Z</time>
      </trkpt>
      <trkpt lat="43.37058" lon="6.14452">
        <ele>398.709448</ele>
        <time>2025-04-25T08:58:05.000Z</time>
      </trkpt>
      <trkpt lat="43.37058" lon="6.14452">
        <ele>398.709448</ele>
        <time>2025-04-25T08:58:05.000Z</time>
      </trkpt>
      <trkpt lat="43.37058" lon="6.14445">
        <ele>398.336478</ele>
        <time>2025-04-25T08:58:06.000Z</time>
      </trkpt>
      <trkpt lat="43.37058" lon="6.14445">
        <ele>398.336478</ele>
        <time>2025-04-25T08:58:06.000Z</time>
      </trkpt>
      <trkpt lat="43.37058" lon="6.14438">
        <ele>398.028084</ele>
        <time>2025-04-25T08:58:07.000Z</time>
      </trkpt>
      <trkpt lat="43.37058" lon="6.14438">
        <ele>398.028084</ele>
        <time>2025-04-25T08:58:07.000Z</time>
      </trkpt>
      <trkpt lat="43.37058" lon="6.14432">
        <ele>397.760506</ele>
        <time>2025-04-25T08:58:08.000Z</time>
      </trkpt>
      <trkpt lat="43.37058" lon="6.14432">
        <ele>397.760506</ele>
        <time>2025-04-25T08:58:08.000Z</time>
      </trkpt>
      <trkpt lat="43.37058" lon="6.14426">
        <ele>397.470802</ele>
        <time>2025-04-25T08:58:08.000Z</time>
      </trkpt>
      <trkpt lat="43.37058" lon="6.14426">
        <ele>397.470802</ele>
        <time>2025-04-25T08:58:08.000Z</time>
      </trkpt>
      <trkpt lat="43.37059" lon="6.1442">
        <ele>397.195236</ele>
        <time>2025-04-25T08:58:10.000Z</time>
      </trkpt>
      <trkpt lat="43.37059" lon="6.1442">
        <ele>397.195236</ele>
        <time>2025-04-25T08:58:10.000Z</time>
      </trkpt>
      <trkpt lat="43.3706" lon="6.14414">
        <ele>396.890922</ele>
        <time>2025-04-25T08:58:11.000Z</time>
      </trkpt>
      <trkpt lat="43.3706" lon="6.14414">
        <ele>396.890922</ele>
        <time>2025-04-25T08:58:11.000Z</time>
      </trkpt>
      <trkpt lat="43.37063" lon="6.14408">
        <ele>396.560508</ele>
        <time>2025-04-25T08:58:11.000Z</time>
      </trkpt>
      <trkpt lat="43.37063" lon="6.14408">
        <ele>396.560508</ele>
        <time>2025-04-25T08:58:11.000Z</time>
      </trkpt>
      <trkpt lat="43.37066" lon="6.14404">
        <ele>396.295006</ele>
        <time>2025-04-25T08:58:13.000Z</time>
      </trkpt>
      <trkpt lat="43.37066" lon="6.14404">
        <ele>396.295006</ele>
        <time>2025-04-25T08:58:13.000Z</time>
      </trkpt>
      <trkpt lat="43.37069" lon="6.144">
        <ele>395.998426</ele>
        <time>2025-04-25T08:58:14.000Z</time>
      </trkpt>
      <trkpt lat="43.37069" lon="6.144">
        <ele>395.998426</ele>
        <time>2025-04-25T08:58:14.000Z</time>
      </trkpt>
      <trkpt lat="43.37074" lon="6.14397">
        <ele>395.692048</ele>
        <time>2025-04-25T08:58:14.000Z</time>
      </trkpt>
      <trkpt lat="43.37074" lon="6.14397">
        <ele>395.692048</ele>
        <time>2025-04-25T08:58:14.000Z</time>
      </trkpt>
      <trkpt lat="43.37078" lon="6.14395">
        <ele>395.410631</ele>
        <time>2025-04-25T08:58:16.000Z</time>
      </trkpt>
      <trkpt lat="43.37078" lon="6.14395">
        <ele>395.410631</ele>
        <time>2025-04-25T08:58:16.000Z</time>
      </trkpt>
      <trkpt lat="43.37083" lon="6.14394">
        <ele>395.083545</ele>
        <time>2025-04-25T08:58:17.000Z</time>
      </trkpt>
      <trkpt lat="43.37083" lon="6.14394">
        <ele>395.083545</ele>
        <time>2025-04-25T08:58:17.000Z</time>
      </trkpt>
      <trkpt lat="43.37087" lon="6.14391">
        <ele>394.804215</ele>
        <time>2025-04-25T08:58:18.000Z</time>
      </trkpt>
      <trkpt lat="43.37087" lon="6.14391">
        <ele>394.804215</ele>
        <time>2025-04-25T08:58:18.000Z</time>
      </trkpt>
      <trkpt lat="43.37088" lon="6.14388">
        <ele>394.647213</ele>
        <time>2025-04-25T08:58:19.000Z</time>
      </trkpt>
      <trkpt lat="43.37088" lon="6.14388">
        <ele>394.647213</ele>
        <time>2025-04-25T08:58:19.000Z</time>
      </trkpt>
      <trkpt lat="43.37087" lon="6.14385">
        <ele>394.482095</ele>
        <time>2025-04-25T08:58:20.000Z</time>
      </trkpt>
      <trkpt lat="43.37087" lon="6.14385">
        <ele>394.482095</ele>
        <time>2025-04-25T08:58:20.000Z</time>
      </trkpt>
      <trkpt lat="43.37086" lon="6.14379">
        <ele>394.213775</ele>
        <time>2025-04-25T08:58:21.000Z</time>
      </trkpt>
      <trkpt lat="43.37086" lon="6.14379">
        <ele>394.213775</ele>
        <time>2025-04-25T08:58:21.000Z</time>
      </trkpt>
      <trkpt lat="43.37085" lon="6.14373">
        <ele>393.920106</ele>
        <time>2025-04-25T08:58:21.000Z</time>
      </trkpt>
      <trkpt lat="43.37085" lon="6.14373">
        <ele>393.920106</ele>
        <time>2025-04-25T08:58:21.000Z</time>
      </trkpt>
      <trkpt lat="43.37084" lon="6.14367">
        <ele>393.648848</ele>
        <time>2025-04-25T08:58:23.000Z</time>
      </trkpt>
      <trkpt lat="43.37084" lon="6.14367">
        <ele>393.648848</ele>
        <time>2025-04-25T08:58:23.000Z</time>
      </trkpt>
      <trkpt lat="43.37083" lon="6.14362">
        <ele>393.383341</ele>
        <time>2025-04-25T08:58:24.000Z</time>
      </trkpt>
      <trkpt lat="43.37083" lon="6.14362">
        <ele>393.383341</ele>
        <time>2025-04-25T08:58:24.000Z</time>
      </trkpt>
      <trkpt lat="43.37082" lon="6.14357">
        <ele>393.154979</ele>
        <time>2025-04-25T08:58:25.000Z</time>
      </trkpt>
      <trkpt lat="43.37082" lon="6.14357">
        <ele>393.154979</ele>
        <time>2025-04-25T08:58:25.000Z</time>
      </trkpt>
      <trkpt lat="43.37082" lon="6.14354">
        <ele>393.0148</ele>
        <time>2025-04-25T08:58:26.000Z</time>
      </trkpt>
      <trkpt lat="43.37082" lon="6.14354">
        <ele>393.0148</ele>
        <time>2025-04-25T08:58:26.000Z</time>
      </trkpt>
      <trkpt lat="43.37082" lon="6.14352">
        <ele>392.912003</ele>
        <time>2025-04-25T08:58:26.000Z</time>
      </trkpt>
      <trkpt lat="43.37082" lon="6.14352">
        <ele>392.912003</ele>
        <time>2025-04-25T08:58:26.000Z</time>
      </trkpt>
      <trkpt lat="43.37082" lon="6.14352">
        <ele>392.912003</ele>
        <time>2025-04-25T08:58:28.000Z</time>
      </trkpt>
      <trkpt lat="43.37083" lon="6.14348">
        <ele>392.718412</ele>
        <time>2025-04-25T08:58:28.000Z</time>
      </trkpt>
      <trkpt lat="43.37083" lon="6.14348">
        <ele>392.718412</ele>
        <time>2025-04-25T08:58:28.000Z</time>
      </trkpt>
      <trkpt lat="43.37084" lon="6.14348">
        <ele>392.667713</ele>
        <time>2025-04-25T08:58:29.000Z</time>
      </trkpt>
      <trkpt lat="43.37085" lon="6.14347">
        <ele>392.570842</ele>
        <time>2025-04-25T08:58:31.000Z</time>
      </trkpt>
      <trkpt lat="43.37085" lon="6.14347">
        <ele>392.570842</ele>
        <time>2025-04-25T08:58:31.000Z</time>
      </trkpt>
      <trkpt lat="43.37087" lon="6.14347">
        <ele>392.442284</ele>
        <time>2025-04-25T08:58:32.000Z</time>
      </trkpt>
      <trkpt lat="43.37087" lon="6.14347">
        <ele>392.442284</ele>
        <time>2025-04-25T08:58:32.000Z</time>
      </trkpt>
      <trkpt lat="43.37089" lon="6.14348">
        <ele>392.319796</ele>
        <time>2025-04-25T08:58:33.000Z</time>
      </trkpt>
      <trkpt lat="43.37089" lon="6.14348">
        <ele>392.319796</ele>
        <time>2025-04-25T08:58:33.000Z</time>
      </trkpt>
      <trkpt lat="43.37091" lon="6.14349">
        <ele>392.190628</ele>
        <time>2025-04-25T08:58:34.000Z</time>
      </trkpt>
      <trkpt lat="43.37091" lon="6.14349">
        <ele>392.190628</ele>
        <time>2025-04-25T08:58:34.000Z</time>
      </trkpt>
      <trkpt lat="43.37093" lon="6.1435">
        <ele>392.058122</ele>
        <time>2025-04-25T08:58:35.000Z</time>
      </trkpt>
      <trkpt lat="43.37093" lon="6.1435">
        <ele>392.058122</ele>
        <time>2025-04-25T08:58:35.000Z</time>
      </trkpt>
      <trkpt lat="43.37095" lon="6.14351">
        <ele>391.900004</ele>
        <time>2025-04-25T08:58:36.000Z</time>
      </trkpt>
      <trkpt lat="43.37095" lon="6.14351">
        <ele>391.900004</ele>
        <time>2025-04-25T08:58:36.000Z</time>
      </trkpt>
      <trkpt lat="43.37098" lon="6.14352">
        <ele>391.720531</ele>
        <time>2025-04-25T08:58:37.000Z</time>
      </trkpt>
      <trkpt lat="43.37098" lon="6.14352">
        <ele>391.720531</ele>
        <time>2025-04-25T08:58:37.000Z</time>
      </trkpt>
      <trkpt lat="43.371" lon="6.14354">
        <ele>391.560696</ele>
        <time>2025-04-25T08:58:37.000Z</time>
      </trkpt>
      <trkpt lat="43.371" lon="6.14354">
        <ele>391.560696</ele>
        <time>2025-04-25T08:58:37.000Z</time>
      </trkpt>
      <trkpt lat="43.37103" lon="6.14355">
        <ele>391.402578</ele>
        <time>2025-04-25T08:58:38.000Z</time>
      </trkpt>
      <trkpt lat="43.37103" lon="6.14355">
        <ele>391.402578</ele>
        <time>2025-04-25T08:58:38.000Z</time>
      </trkpt>
      <trkpt lat="43.37105" lon="6.14356">
        <ele>391.218701</ele>
        <time>2025-04-25T08:58:40.000Z</time>
      </trkpt>
      <trkpt lat="43.37105" lon="6.14356">
        <ele>391.218701</ele>
        <time>2025-04-25T08:58:40.000Z</time>
      </trkpt>
      <trkpt lat="43.37108" lon="6.14358">
        <ele>391.00832</ele>
        <time>2025-04-25T08:58:40.000Z</time>
      </trkpt>
      <trkpt lat="43.37112" lon="6.1436">
        <ele>390.756942</ele>
        <time>2025-04-25T08:58:42.000Z</time>
      </trkpt>
      <trkpt lat="43.37112" lon="6.1436">
        <ele>390.756942</ele>
        <time>2025-04-25T08:58:42.000Z</time>
      </trkpt>
      <trkpt lat="43.37114" lon="6.14362">
        <ele>390.567699</ele>
        <time>2025-04-25T08:58:43.000Z</time>
      </trkpt>
      <trkpt lat="43.37114" lon="6.14362">
        <ele>390.567699</ele>
        <time>2025-04-25T08:58:43.000Z</time>
      </trkpt>
      <trkpt lat="43.37118" lon="6.14364">
        <ele>390.320349</ele>
        <time>2025-04-25T08:58:44.000Z</time>
      </trkpt>
      <trkpt lat="43.37121" lon="6.14366">
        <ele>390.116717</ele>
        <time>2025-04-25T08:58:45.000Z</time>
      </trkpt>
      <trkpt lat="43.37125" lon="6.14366">
        <ele>389.845735</ele>
        <time>2025-04-25T08:58:46.000Z</time>
      </trkpt>
      <trkpt lat="43.37125" lon="6.14366">
        <ele>389.845735</ele>
        <time>2025-04-25T08:58:46.000Z</time>
      </trkpt>
      <trkpt lat="43.37129" lon="6.14367">
        <ele>389.60076</ele>
        <time>2025-04-25T08:58:47.000Z</time>
      </trkpt>
      <trkpt lat="43.37133" lon="6.14367">
        <ele>389.305075</ele>
        <time>2025-04-25T08:58:48.000Z</time>
      </trkpt>
      <trkpt lat="43.37137" lon="6.14366">
        <ele>389.060635</ele>
        <time>2025-04-25T08:58:48.000Z</time>
      </trkpt>
      <trkpt lat="43.37137" lon="6.14366">
        <ele>389.060635</ele>
        <time>2025-04-25T08:58:48.000Z</time>
      </trkpt>
      <trkpt lat="43.37142" lon="6.14367">
        <ele>388.764803</ele>
        <time>2025-04-25T08:58:50.000Z</time>
      </trkpt>
      <trkpt lat="43.37145" lon="6.14367">
        <ele>388.546203</ele>
        <time>2025-04-25T08:58:51.000Z</time>
      </trkpt>
      <trkpt lat="43.37145" lon="6.14367">
        <ele>388.546203</ele>
        <time>2025-04-25T08:58:51.000Z</time>
      </trkpt>
      <trkpt lat="43.37149" lon="6.14367">
        <ele>388.29547</ele>
        <time>2025-04-25T08:58:52.000Z</time>
      </trkpt>
      <trkpt lat="43.37153" lon="6.14367">
        <ele>388.076472</ele>
        <time>2025-04-25T08:58:53.000Z</time>
      </trkpt>
      <trkpt lat="43.37156" lon="6.14367">
        <ele>387.883125</ele>
        <time>2025-04-25T08:58:54.000Z</time>
      </trkpt>
      <trkpt lat="43.37156" lon="6.14367">
        <ele>387.883125</ele>
        <time>2025-04-25T08:58:54.000Z</time>
      </trkpt>
      <trkpt lat="43.37159" lon="6.14368">
        <ele>387.655063</ele>
        <time>2025-04-25T08:58:55.000Z</time>
      </trkpt>
      <trkpt lat="43.37163" lon="6.14369">
        <ele>387.406373</ele>
        <time>2025-04-25T08:58:55.000Z</time>
      </trkpt>
      <trkpt lat="43.37166" lon="6.14368">
        <ele>387.182884</ele>
        <time>2025-04-25T08:58:56.000Z</time>
      </trkpt>
      <trkpt lat="43.37169" lon="6.14366">
        <ele>386.964736</ele>
        <time>2025-04-25T08:58:57.000Z</time>
      </trkpt>
      <trkpt lat="43.37171" lon="6.14363">
        <ele>386.891243</ele>
        <time>2025-04-25T08:58:58.000Z</time>
      </trkpt>
      <trkpt lat="43.37173" lon="6.1436">
        <ele>386.95016</ele>
        <time>2025-04-25T08:59:00.000Z</time>
      </trkpt>
      <trkpt lat="43.37173" lon="6.1436">
        <ele>386.95016</ele>
        <time>2025-04-25T08:59:00.000Z</time>
      </trkpt>
      <trkpt lat="43.37174" lon="6.14358">
        <ele>386.991302</ele>
        <time>2025-04-25T08:59:01.000Z</time>
      </trkpt>
      <trkpt lat="43.37175" lon="6.14355">
        <ele>387.045256</ele>
        <time>2025-04-25T08:59:02.000Z</time>
      </trkpt>
      <trkpt lat="43.37177" lon="6.14352">
        <ele>387.085179</ele>
        <time>2025-04-25T08:59:03.000Z</time>
      </trkpt>
      <trkpt lat="43.37177" lon="6.14351">
        <ele>387.109714</ele>
        <time>2025-04-25T08:59:04.000Z</time>
      </trkpt>
      <trkpt lat="43.37178" lon="6.14349">
        <ele>387.143813</ele>
        <time>2025-04-25T08:59:05.000Z</time>
      </trkpt>
      <trkpt lat="43.37178" lon="6.14349">
        <ele>387.143813</ele>
        <time>2025-04-25T08:59:05.000Z</time>
      </trkpt>
      <trkpt lat="43.37179" lon="6.14348">
        <ele>387.167424</ele>
        <time>2025-04-25T08:59:06.000Z</time>
      </trkpt>
      <trkpt lat="43.3718" lon="6.14346">
        <ele>387.198017</ele>
        <time>2025-04-25T08:59:07.000Z</time>
      </trkpt>
      <trkpt lat="43.37181" lon="6.14344">
        <ele>387.23501</ele>
        <time>2025-04-25T08:59:08.000Z</time>
      </trkpt>
      <trkpt lat="43.37183" lon="6.14344">
        <ele>387.267102</ele>
        <time>2025-04-25T08:59:09.000Z</time>
      </trkpt>
      <trkpt lat="43.37185" lon="6.14342">
        <ele>387.315677</ele>
        <time>2025-04-25T08:59:10.000Z</time>
      </trkpt>
      <trkpt lat="43.37188" lon="6.14342">
        <ele>387.384745</ele>
        <time>2025-04-25T08:59:11.000Z</time>
      </trkpt>
      <trkpt lat="43.37191" lon="6.14341">
        <ele>387.447412</ele>
        <time>2025-04-25T08:59:12.000Z</time>
      </trkpt>
      <trkpt lat="43.37191" lon="6.14341">
        <ele>387.447412</ele>
        <time>2025-04-25T08:59:12.000Z</time>
      </trkpt>
      <trkpt lat="43.37195" lon="6.14339">
        <ele>387.526686</ele>
        <time>2025-04-25T08:59:13.000Z</time>
      </trkpt>
      <trkpt lat="43.37199" lon="6.14337">
        <ele>387.604285</ele>
        <time>2025-04-25T08:59:14.000Z</time>
      </trkpt>
      <trkpt lat="43.37202" lon="6.14333">
        <ele>387.689756</ele>
        <time>2025-04-25T08:59:15.000Z</time>
      </trkpt>
      <trkpt lat="43.37206" lon="6.14329">
        <ele>387.778064</ele>
        <time>2025-04-25T08:59:15.000Z</time>
      </trkpt>
      <trkpt lat="43.37208" lon="6.14326">
        <ele>387.840301</ele>
        <time>2025-04-25T08:59:17.000Z</time>
      </trkpt>
      <trkpt lat="43.37208" lon="6.14326">
        <ele>387.840301</ele>
        <time>2025-04-25T08:59:17.000Z</time>
      </trkpt>
      <trkpt lat="43.37211" lon="6.14324">
        <ele>387.910269</ele>
        <time>2025-04-25T08:59:18.000Z</time>
      </trkpt>
      <trkpt lat="43.37214" lon="6.14322">
        <ele>387.968355</ele>
        <time>2025-04-25T08:59:19.000Z</time>
      </trkpt>
      <trkpt lat="43.37216" lon="6.14321">
        <ele>388.017425</ele>
        <time>2025-04-25T08:59:20.000Z</time>
      </trkpt>
      <trkpt lat="43.37219" lon="6.1432">
        <ele>388.074489</ele>
        <time>2025-04-25T08:59:21.000Z</time>
      </trkpt>
      <trkpt lat="43.37219" lon="6.1432">
        <ele>388.074489</ele>
        <time>2025-04-25T08:59:21.000Z</time>
      </trkpt>
      <trkpt lat="43.37221" lon="6.14319">
        <ele>388.127636</ele>
        <time>2025-04-25T08:59:21.000Z</time>
      </trkpt>
      <trkpt lat="43.37224" lon="6.14319">
        <ele>388.190084</ele>
        <time>2025-04-25T08:59:23.000Z</time>
      </trkpt>
      <trkpt lat="43.37228" lon="6.14318">
        <ele>388.258664</ele>
        <time>2025-04-25T08:59:24.000Z</time>
      </trkpt>
      <trkpt lat="43.37228" lon="6.14318">
        <ele>388.258664</ele>
        <time>2025-04-25T08:59:24.000Z</time>
      </trkpt>
      <trkpt lat="43.37231" lon="6.14317">
        <ele>388.328723</ele>
        <time>2025-04-25T08:59:24.000Z</time>
      </trkpt>
      <trkpt lat="43.37236" lon="6.14317">
        <ele>388.41849</ele>
        <time>2025-04-25T08:59:26.000Z</time>
      </trkpt>
      <trkpt lat="43.37238" lon="6.14318">
        <ele>388.466191</ele>
        <time>2025-04-25T08:59:27.000Z</time>
      </trkpt>
      <trkpt lat="43.37241" lon="6.1432">
        <ele>388.524836</ele>
        <time>2025-04-25T08:59:28.000Z</time>
      </trkpt>
      <trkpt lat="43.37241" lon="6.1432">
        <ele>388.524836</ele>
        <time>2025-04-25T08:59:28.000Z</time>
      </trkpt>
      <trkpt lat="43.37242" lon="6.14321">
        <ele>388.561828</ele>
        <time>2025-04-25T08:59:29.000Z</time>
      </trkpt>
      <trkpt lat="43.37244" lon="6.14324">
        <ele>388.605567</ele>
        <time>2025-04-25T08:59:30.000Z</time>
      </trkpt>
      <trkpt lat="43.37245" lon="6.14326">
        <ele>388.647806</ele>
        <time>2025-04-25T08:59:31.000Z</time>
      </trkpt>
      <trkpt lat="43.37245" lon="6.14326">
        <ele>388.647806</ele>
        <time>2025-04-25T08:59:31.000Z</time>
      </trkpt>
      <trkpt lat="43.37246" lon="6.14328">
        <ele>388.686525</ele>
        <time>2025-04-25T08:59:32.000Z</time>
      </trkpt>
      <trkpt lat="43.37247" lon="6.1433">
        <ele>388.717118</ele>
        <time>2025-04-25T08:59:33.000Z</time>
      </trkpt>
      <trkpt lat="43.37248" lon="6.14332">
        <ele>388.748957</ele>
        <time>2025-04-25T08:59:33.000Z</time>
      </trkpt>
      <trkpt lat="43.37248" lon="6.14332">
        <ele>388.748957</ele>
        <time>2025-04-25T08:59:33.000Z</time>
      </trkpt>
      <trkpt lat="43.37248" lon="6.14333">
        <ele>388.774804</ele>
        <time>2025-04-25T08:59:35.000Z</time>
      </trkpt>
      <trkpt lat="43.37249" lon="6.14336">
        <ele>388.809184</ele>
        <time>2025-04-25T08:59:36.000Z</time>
      </trkpt>
      <trkpt lat="43.37249" lon="6.14336">
        <ele>388.809184</ele>
        <time>2025-04-25T08:59:36.000Z</time>
      </trkpt>
      <trkpt lat="43.3725" lon="6.14338">
        <ele>388.845551</ele>
        <time>2025-04-25T08:59:37.000Z</time>
      </trkpt>
      <trkpt lat="43.37252" lon="6.1434">
        <ele>388.892772</ele>
        <time>2025-04-25T08:59:38.000Z</time>
      </trkpt>
      <trkpt lat="43.37253" lon="6.14342">
        <ele>388.931491</ele>
        <time>2025-04-25T08:59:39.000Z</time>
      </trkpt>
      <trkpt lat="43.37253" lon="6.14342">
        <ele>388.931491</ele>
        <time>2025-04-25T08:59:39.000Z</time>
      </trkpt>
      <trkpt lat="43.37254" lon="6.14346">
        <ele>388.989162</ele>
        <time>2025-04-25T08:59:40.000Z</time>
      </trkpt>
      <trkpt lat="43.37256" lon="6.14348">
        <ele>389.032604</ele>
        <time>2025-04-25T08:59:41.000Z</time>
      </trkpt>
      <trkpt lat="43.37256" lon="6.14348">
        <ele>389.032604</ele>
        <time>2025-04-25T08:59:41.000Z</time>
      </trkpt>
      <trkpt lat="43.37257" lon="6.14351">
        <ele>389.083932</ele>
        <time>2025-04-25T08:59:42.000Z</time>
      </trkpt>
      <trkpt lat="43.37258" lon="6.14354">
        <ele>389.131065</ele>
        <time>2025-04-25T08:59:43.000Z</time>
      </trkpt>
      <trkpt lat="43.37258" lon="6.14354">
        <ele>389.131065</ele>
        <time>2025-04-25T08:59:43.000Z</time>
      </trkpt>
      <trkpt lat="43.37259" lon="6.14357">
        <ele>389.172631</ele>
        <time>2025-04-25T08:59:44.000Z</time>
      </trkpt>
      <trkpt lat="43.37259" lon="6.1436">
        <ele>389.221933</ele>
        <time>2025-04-25T08:59:45.000Z</time>
      </trkpt>
      <trkpt lat="43.37259" lon="6.1436">
        <ele>389.221933</ele>
        <time>2025-04-25T08:59:45.000Z</time>
      </trkpt>
      <trkpt lat="43.37258" lon="6.14363">
        <ele>389.270445</ele>
        <time>2025-04-25T08:59:46.000Z</time>
      </trkpt>
      <trkpt lat="43.37258" lon="6.14366">
        <ele>389.310051</ele>
        <time>2025-04-25T08:59:47.000Z</time>
      </trkpt>
      <trkpt lat="43.37258" lon="6.14366">
        <ele>389.310051</ele>
        <time>2025-04-25T08:59:47.000Z</time>
      </trkpt>
      <trkpt lat="43.37259" lon="6.1437">
        <ele>389.366895</ele>
        <time>2025-04-25T08:59:48.000Z</time>
      </trkpt>
      <trkpt lat="43.37259" lon="6.1437">
        <ele>389.366895</ele>
        <time>2025-04-25T08:59:48.000Z</time>
      </trkpt>
      <trkpt lat="43.37259" lon="6.14373">
        <ele>389.415964</ele>
        <time>2025-04-25T08:59:49.000Z</time>
      </trkpt>
      <trkpt lat="43.37259" lon="6.14373">
        <ele>389.415964</ele>
        <time>2025-04-25T08:59:50.000Z</time>
      </trkpt>
      <trkpt lat="43.3726" lon="6.14377">
        <ele>389.47259</ele>
        <time>2025-04-25T08:59:51.000Z</time>
      </trkpt>
      <trkpt lat="43.3726" lon="6.14377">
        <ele>389.47259</ele>
        <time>2025-04-25T08:59:51.000Z</time>
      </trkpt>
      <trkpt lat="43.3726" lon="6.14377">
        <ele>389.483149</ele>
        <time>2025-04-25T08:59:53.000Z</time>
      </trkpt>
      <trkpt lat="43.3726" lon="6.14377">
        <ele>389.483149</ele>
        <time>2025-04-25T08:59:53.000Z</time>
      </trkpt>
      <trkpt lat="43.3726" lon="6.14377">
        <ele>389.4875</ele>
        <time>2025-04-25T08:59:54.000Z</time>
      </trkpt>
      <trkpt lat="43.3726" lon="6.14377">
        <ele>389.493657</ele>
        <time>2025-04-25T08:59:56.000Z</time>
      </trkpt>
      <trkpt lat="43.3726" lon="6.14377">
        <ele>389.493657</ele>
        <time>2025-04-25T08:59:56.000Z</time>
      </trkpt>
      <trkpt lat="43.37259" lon="6.14374">
        <ele>389.542934</ele>
        <time>2025-04-25T08:59:58.000Z</time>
      </trkpt>
      <trkpt lat="43.37259" lon="6.14373">
        <ele>389.568844</ele>
        <time>2025-04-25T08:59:59.000Z</time>
      </trkpt>
      <trkpt lat="43.37259" lon="6.14373">
        <ele>389.568844</ele>
        <time>2025-04-25T08:59:59.000Z</time>
      </trkpt>
      <trkpt lat="43.3726" lon="6.1437">
        <ele>389.603136</ele>
        <time>2025-04-25T08:59:59.000Z</time>
      </trkpt>
      <trkpt lat="43.3726" lon="6.14368">
        <ele>389.640837</ele>
        <time>2025-04-25T09:00:01.000Z</time>
      </trkpt>
      <trkpt lat="43.3726" lon="6.14365">
        <ele>389.682888</ele>
        <time>2025-04-25T09:00:01.000Z</time>
      </trkpt>
      <trkpt lat="43.37259" lon="6.14361">
        <ele>389.744445</ele>
        <time>2025-04-25T09:00:03.000Z</time>
      </trkpt>
      <trkpt lat="43.37258" lon="6.14356">
        <ele>389.810212</ele>
        <time>2025-04-25T09:00:04.000Z</time>
      </trkpt>
      <trkpt lat="43.37258" lon="6.14356">
        <ele>389.810212</ele>
        <time>2025-04-25T09:00:04.000Z</time>
      </trkpt>
      <trkpt lat="43.37257" lon="6.14351">
        <ele>389.887308</ele>
        <time>2025-04-25T09:00:05.000Z</time>
      </trkpt>
      <trkpt lat="43.37256" lon="6.14347">
        <ele>389.952043</ele>
        <time>2025-04-25T09:00:06.000Z</time>
      </trkpt>
      <trkpt lat="43.37254" lon="6.14343">
        <ele>390.018832</ele>
        <time>2025-04-25T09:00:07.000Z</time>
      </trkpt>
      <trkpt lat="43.37254" lon="6.14339">
        <ele>390.070073</ele>
        <time>2025-04-25T09:00:08.000Z</time>
      </trkpt>
      <trkpt lat="43.37253" lon="6.14335">
        <ele>390.132933</ele>
        <time>2025-04-25T09:00:09.000Z</time>
      </trkpt>
      <trkpt lat="43.37254" lon="6.14331">
        <ele>390.188908</ele>
        <time>2025-04-25T09:00:09.000Z</time>
      </trkpt>
      <trkpt lat="43.37255" lon="6.14328">
        <ele>390.242872</ele>
        <time>2025-04-25T09:00:11.000Z</time>
      </trkpt>
      <trkpt lat="43.37257" lon="6.14326">
        <ele>390.288768</ele>
        <time>2025-04-25T09:00:12.000Z</time>
      </trkpt>
      <trkpt lat="43.37259" lon="6.14323">
        <ele>390.338308</ele>
        <time>2025-04-25T09:00:13.000Z</time>
      </trkpt>
      <trkpt lat="43.3726" lon="6.14322">
        <ele>390.378637</ele>
        <time>2025-04-25T09:00:13.000Z</time>
      </trkpt>
      <trkpt lat="43.37262" lon="6.1432">
        <ele>390.423849</ele>
        <time>2025-04-25T09:00:14.000Z</time>
      </trkpt>
      <trkpt lat="43.37264" lon="6.14318">
        <ele>390.517714</ele>
        <time>2025-04-25T09:00:16.000Z</time>
      </trkpt>
      <trkpt lat="43.37267" lon="6.14316">
        <ele>390.640425</ele>
        <time>2025-04-25T09:00:16.000Z</time>
      </trkpt>
      <trkpt lat="43.37269" lon="6.14314">
        <ele>390.788668</ele>
        <time>2025-04-25T09:00:17.000Z</time>
      </trkpt>
      <trkpt lat="43.37272" lon="6.14312">
        <ele>390.917207</ele>
        <time>2025-04-25T09:00:19.000Z</time>
      </trkpt>
      <trkpt lat="43.37274" lon="6.14309">
        <ele>391.055682</ele>
        <time>2025-04-25T09:00:19.000Z</time>
      </trkpt>
      <trkpt lat="43.37274" lon="6.14309">
        <ele>391.055682</ele>
        <time>2025-04-25T09:00:19.000Z</time>
      </trkpt>
      <trkpt lat="43.37276" lon="6.14306">
        <ele>391.187216</ele>
        <time>2025-04-25T09:00:20.000Z</time>
      </trkpt>
      <trkpt lat="43.37278" lon="6.14304">
        <ele>391.332303</ele>
        <time>2025-04-25T09:00:21.000Z</time>
      </trkpt>
      <trkpt lat="43.37281" lon="6.143">
        <ele>391.507557</ele>
        <time>2025-04-25T09:00:23.000Z</time>
      </trkpt>
      <trkpt lat="43.37281" lon="6.143">
        <ele>391.507557</ele>
        <time>2025-04-25T09:00:23.000Z</time>
      </trkpt>
      <trkpt lat="43.37283" lon="6.14298">
        <ele>391.640196</ele>
        <time>2025-04-25T09:00:23.000Z</time>
      </trkpt>
      <trkpt lat="43.37286" lon="6.14295">
        <ele>391.808239</ele>
        <time>2025-04-25T09:00:24.000Z</time>
      </trkpt>
      <trkpt lat="43.37286" lon="6.14295">
        <ele>391.808239</ele>
        <time>2025-04-25T09:00:24.000Z</time>
      </trkpt>
      <trkpt lat="43.37289" lon="6.14294">
        <ele>391.948513</ele>
        <time>2025-04-25T09:00:26.000Z</time>
      </trkpt>
      <trkpt lat="43.37292" lon="6.14291">
        <ele>392.107526</ele>
        <time>2025-04-25T09:00:26.000Z</time>
      </trkpt>
      <trkpt lat="43.37292" lon="6.14291">
        <ele>392.107526</ele>
        <time>2025-04-25T09:00:26.000Z</time>
      </trkpt>
      <trkpt lat="43.37294" lon="6.1429">
        <ele>392.22777</ele>
        <time>2025-04-25T09:00:28.000Z</time>
      </trkpt>
      <trkpt lat="43.37297" lon="6.14289">
        <ele>392.360795</ele>
        <time>2025-04-25T09:00:29.000Z</time>
      </trkpt>
      <trkpt lat="43.37297" lon="6.14289">
        <ele>392.360795</ele>
        <time>2025-04-25T09:00:29.000Z</time>
      </trkpt>
      <trkpt lat="43.373" lon="6.14287">
        <ele>392.534158</ele>
        <time>2025-04-25T09:00:29.000Z</time>
      </trkpt>
      <trkpt lat="43.373" lon="6.14287">
        <ele>392.534158</ele>
        <time>2025-04-25T09:00:29.000Z</time>
      </trkpt>
      <trkpt lat="43.37302" lon="6.14285">
        <ele>392.659162</ele>
        <time>2025-04-25T09:00:31.000Z</time>
      </trkpt>
      <trkpt lat="43.37302" lon="6.14285">
        <ele>392.659162</ele>
        <time>2025-04-25T09:00:31.000Z</time>
      </trkpt>
      <trkpt lat="43.37305" lon="6.14283">
        <ele>392.80243</ele>
        <time>2025-04-25T09:00:32.000Z</time>
      </trkpt>
      <trkpt lat="43.37305" lon="6.14283">
        <ele>392.80243</ele>
        <time>2025-04-25T09:00:32.000Z</time>
      </trkpt>
      <trkpt lat="43.37307" lon="6.14282">
        <ele>392.921243</ele>
        <time>2025-04-25T09:00:33.000Z</time>
      </trkpt>
      <trkpt lat="43.37307" lon="6.14282">
        <ele>392.921243</ele>
        <time>2025-04-25T09:00:33.000Z</time>
      </trkpt>
      <trkpt lat="43.3731" lon="6.1428">
        <ele>393.060322</ele>
        <time>2025-04-25T09:00:34.000Z</time>
      </trkpt>
      <trkpt lat="43.3731" lon="6.1428">
        <ele>393.060322</ele>
        <time>2025-04-25T09:00:34.000Z</time>
      </trkpt>
      <trkpt lat="43.37312" lon="6.14278">
        <ele>393.194647</ele>
        <time>2025-04-25T09:00:34.000Z</time>
      </trkpt>
      <trkpt lat="43.37312" lon="6.14278">
        <ele>393.194647</ele>
        <time>2025-04-25T09:00:34.000Z</time>
      </trkpt>
      <trkpt lat="43.37315" lon="6.14275">
        <ele>393.344669</ele>
        <time>2025-04-25T09:00:36.000Z</time>
      </trkpt>
      <trkpt lat="43.37315" lon="6.14275">
        <ele>393.344669</ele>
        <time>2025-04-25T09:00:36.000Z</time>
      </trkpt>
      <trkpt lat="43.37317" lon="6.14273">
        <ele>393.459806</ele>
        <time>2025-04-25T09:00:37.000Z</time>
      </trkpt>
      <trkpt lat="43.37317" lon="6.14273">
        <ele>393.459806</ele>
        <time>2025-04-25T09:00:37.000Z</time>
      </trkpt>
      <trkpt lat="43.37318" lon="6.14271">
        <ele>393.554347</ele>
        <time>2025-04-25T09:00:38.000Z</time>
      </trkpt>
      <trkpt lat="43.37318" lon="6.14271">
        <ele>393.554347</ele>
        <time>2025-04-25T09:00:38.000Z</time>
      </trkpt>
      <trkpt lat="43.3732" lon="6.14268">
        <ele>393.683391</ele>
        <time>2025-04-25T09:00:39.000Z</time>
      </trkpt>
      <trkpt lat="43.3732" lon="6.14268">
        <ele>393.683391</ele>
        <time>2025-04-25T09:00:39.000Z</time>
      </trkpt>
      <trkpt lat="43.37322" lon="6.14266">
        <ele>393.785517</ele>
        <time>2025-04-25T09:00:40.000Z</time>
      </trkpt>
      <trkpt lat="43.37322" lon="6.14266">
        <ele>393.785517</ele>
        <time>2025-04-25T09:00:40.000Z</time>
      </trkpt>
      <trkpt lat="43.37323" lon="6.14265">
        <ele>393.892588</ele>
        <time>2025-04-25T09:00:41.000Z</time>
      </trkpt>
      <trkpt lat="43.37323" lon="6.14265">
        <ele>393.892588</ele>
        <time>2025-04-25T09:00:41.000Z</time>
      </trkpt>
      <trkpt lat="43.37325" lon="6.14263">
        <ele>393.978217</ele>
        <time>2025-04-25T09:00:42.000Z</time>
      </trkpt>
      <trkpt lat="43.37325" lon="6.14263">
        <ele>393.978217</ele>
        <time>2025-04-25T09:00:42.000Z</time>
      </trkpt>
      <trkpt lat="43.37327" lon="6.14261">
        <ele>394.091235</ele>
        <time>2025-04-25T09:00:43.000Z</time>
      </trkpt>
      <trkpt lat="43.37327" lon="6.14261">
        <ele>394.091235</ele>
        <time>2025-04-25T09:00:43.000Z</time>
      </trkpt>
      <trkpt lat="43.37328" lon="6.1426">
        <ele>394.1809</ele>
        <time>2025-04-25T09:00:43.000Z</time>
      </trkpt>
      <trkpt lat="43.37328" lon="6.1426">
        <ele>394.1809</ele>
        <time>2025-04-25T09:00:43.000Z</time>
      </trkpt>
      <trkpt lat="43.3733" lon="6.14258">
        <ele>394.270478</ele>
        <time>2025-04-25T09:00:45.000Z</time>
      </trkpt>
      <trkpt lat="43.3733" lon="6.14258">
        <ele>394.270478</ele>
        <time>2025-04-25T09:00:45.000Z</time>
      </trkpt>
      <trkpt lat="43.37331" lon="6.14257">
        <ele>394.360143</ele>
        <time>2025-04-25T09:00:45.000Z</time>
      </trkpt>
      <trkpt lat="43.37331" lon="6.14257">
        <ele>394.360143</ele>
        <time>2025-04-25T09:00:45.000Z</time>
      </trkpt>
      <trkpt lat="43.37333" lon="6.14255">
        <ele>394.460389</ele>
        <time>2025-04-25T09:00:47.000Z</time>
      </trkpt>
      <trkpt lat="43.37333" lon="6.14255">
        <ele>394.460389</ele>
        <time>2025-04-25T09:00:47.000Z</time>
      </trkpt>
      <trkpt lat="43.37336" lon="6.14254">
        <ele>394.580633</ele>
        <time>2025-04-25T09:00:48.000Z</time>
      </trkpt>
      <trkpt lat="43.37336" lon="6.14254">
        <ele>394.580633</ele>
        <time>2025-04-25T09:00:48.000Z</time>
      </trkpt>
      <trkpt lat="43.37338" lon="6.14252">
        <ele>394.687703</ele>
        <time>2025-04-25T09:00:49.000Z</time>
      </trkpt>
      <trkpt lat="43.37338" lon="6.14252">
        <ele>394.687703</ele>
        <time>2025-04-25T09:00:49.000Z</time>
      </trkpt>
      <trkpt lat="43.37338" lon="6.14252">
        <ele>394.687703</ele>
        <time>2025-04-25T09:00:50.000Z</time>
      </trkpt>
      <trkpt lat="43.37342" lon="6.14248">
        <ele>394.942962</ele>
        <time>2025-04-25T09:00:51.000Z</time>
      </trkpt>
      <trkpt lat="43.37342" lon="6.14248">
        <ele>394.942962</ele>
        <time>2025-04-25T09:00:51.000Z</time>
      </trkpt>
      <trkpt lat="43.37343" lon="6.14247">
        <ele>395.007204</ele>
        <time>2025-04-25T09:00:52.000Z</time>
      </trkpt>
      <trkpt lat="43.37343" lon="6.14247">
        <ele>395.007204</ele>
        <time>2025-04-25T09:00:52.000Z</time>
      </trkpt>
      <trkpt lat="43.37344" lon="6.14246">
        <ele>395.079359</ele>
        <time>2025-04-25T09:00:53.000Z</time>
      </trkpt>
      <trkpt lat="43.37344" lon="6.14246">
        <ele>395.079359</ele>
        <time>2025-04-25T09:00:53.000Z</time>
      </trkpt>
      <trkpt lat="43.37346" lon="6.14244">
        <ele>395.17804</ele>
        <time>2025-04-25T09:00:54.000Z</time>
      </trkpt>
      <trkpt lat="43.37346" lon="6.14244">
        <ele>395.17804</ele>
        <time>2025-04-25T09:00:54.000Z</time>
      </trkpt>
      <trkpt lat="43.37347" lon="6.14242">
        <ele>395.27914</ele>
        <time>2025-04-25T09:00:55.000Z</time>
      </trkpt>
      <trkpt lat="43.37347" lon="6.14242">
        <ele>395.27914</ele>
        <time>2025-04-25T09:00:55.000Z</time>
      </trkpt>
      <trkpt lat="43.37349" lon="6.14239">
        <ele>395.393124</ele>
        <time>2025-04-25T09:00:56.000Z</time>
      </trkpt>
      <trkpt lat="43.37349" lon="6.14239">
        <ele>395.393124</ele>
        <time>2025-04-25T09:00:56.000Z</time>
      </trkpt>
      <trkpt lat="43.37349" lon="6.14239">
        <ele>395.393124</ele>
        <time>2025-04-25T09:00:57.000Z</time>
      </trkpt>
      <trkpt lat="43.37352" lon="6.14233">
        <ele>395.657297</ele>
        <time>2025-04-25T09:00:58.000Z</time>
      </trkpt>
      <trkpt lat="43.37352" lon="6.14233">
        <ele>395.657297</ele>
        <time>2025-04-25T09:00:58.000Z</time>
      </trkpt>
      <trkpt lat="43.37354" lon="6.14231">
        <ele>395.760874</ele>
        <time>2025-04-25T09:00:59.000Z</time>
      </trkpt>
      <trkpt lat="43.37354" lon="6.14231">
        <ele>395.760874</ele>
        <time>2025-04-25T09:00:59.000Z</time>
      </trkpt>
      <trkpt lat="43.37355" lon="6.14228">
        <ele>395.872189</ele>
        <time>2025-04-25T09:01:00.000Z</time>
      </trkpt>
      <trkpt lat="43.37355" lon="6.14228">
        <ele>395.872189</ele>
        <time>2025-04-25T09:01:00.000Z</time>
      </trkpt>
      <trkpt lat="43.37357" lon="6.14226">
        <ele>395.988882</ele>
        <time>2025-04-25T09:01:01.000Z</time>
      </trkpt>
      <trkpt lat="43.37357" lon="6.14226">
        <ele>395.988882</ele>
        <time>2025-04-25T09:01:01.000Z</time>
      </trkpt>
      <trkpt lat="43.37358" lon="6.14222">
        <ele>396.111598</ele>
        <time>2025-04-25T09:01:02.000Z</time>
      </trkpt>
      <trkpt lat="43.37358" lon="6.14222">
        <ele>396.111598</ele>
        <time>2025-04-25T09:01:02.000Z</time>
      </trkpt>
      <trkpt lat="43.37359" lon="6.14219">
        <ele>396.235243</ele>
        <time>2025-04-25T09:01:03.000Z</time>
      </trkpt>
      <trkpt lat="43.37359" lon="6.14219">
        <ele>396.235243</ele>
        <time>2025-04-25T09:01:03.000Z</time>
      </trkpt>
      <trkpt lat="43.3736" lon="6.14216">
        <ele>396.347568</ele>
        <time>2025-04-25T09:01:04.000Z</time>
      </trkpt>
      <trkpt lat="43.37361" lon="6.14213">
        <ele>396.45686</ele>
        <time>2025-04-25T09:01:05.000Z</time>
      </trkpt>
      <trkpt lat="43.37361" lon="6.14213">
        <ele>396.45686</ele>
        <time>2025-04-25T09:01:05.000Z</time>
      </trkpt>
      <trkpt lat="43.37363" lon="6.1421">
        <ele>396.595943</ele>
        <time>2025-04-25T09:01:06.000Z</time>
      </trkpt>
      <trkpt lat="43.37364" lon="6.14207">
        <ele>396.712636</ele>
        <time>2025-04-25T09:01:07.000Z</time>
      </trkpt>
      <trkpt lat="43.37364" lon="6.14207">
        <ele>396.712636</ele>
        <time>2025-04-25T09:01:07.000Z</time>
      </trkpt>
      <trkpt lat="43.37365" lon="6.14205">
        <ele>396.81892</ele>
        <time>2025-04-25T09:01:08.000Z</time>
      </trkpt>
      <trkpt lat="43.37367" lon="6.14201">
        <ele>396.975698</ele>
        <time>2025-04-25T09:01:09.000Z</time>
      </trkpt>
      <trkpt lat="43.37369" lon="6.14197">
        <ele>397.122963</ele>
        <time>2025-04-25T09:01:09.000Z</time>
      </trkpt>
      <trkpt lat="43.37371" lon="6.14194">
        <ele>397.28327</ele>
        <time>2025-04-25T09:01:11.000Z</time>
      </trkpt>
      <trkpt lat="43.37374" lon="6.14192">
        <ele>397.410007</ele>
        <time>2025-04-25T09:01:12.000Z</time>
      </trkpt>
      <trkpt lat="43.37374" lon="6.14192">
        <ele>397.410007</ele>
        <time>2025-04-25T09:01:12.000Z</time>
      </trkpt>
      <trkpt lat="43.37378" lon="6.14191">
        <ele>397.600414</ele>
        <time>2025-04-25T09:01:13.000Z</time>
      </trkpt>
      <trkpt lat="43.37381" lon="6.14191">
        <ele>397.780223</ele>
        <time>2025-04-25T09:01:14.000Z</time>
      </trkpt>
      <trkpt lat="43.37385" lon="6.14191">
        <ele>397.95977</ele>
        <time>2025-04-25T09:01:15.000Z</time>
      </trkpt>
      <trkpt lat="43.37389" lon="6.14191">
        <ele>398.15821</ele>
        <time>2025-04-25T09:01:16.000Z</time>
      </trkpt>
      <trkpt lat="43.37389" lon="6.14191">
        <ele>398.15821</ele>
        <time>2025-04-25T09:01:16.000Z</time>
      </trkpt>
      <trkpt lat="43.37394" lon="6.1419">
        <ele>398.357095</ele>
        <time>2025-04-25T09:01:17.000Z</time>
      </trkpt>
      <trkpt lat="43.37397" lon="6.1419">
        <ele>398.519501</ele>
        <time>2025-04-25T09:01:18.000Z</time>
      </trkpt>
      <trkpt lat="43.37401" lon="6.14188">
        <ele>398.723652</ele>
        <time>2025-04-25T09:01:19.000Z</time>
      </trkpt>
      <trkpt lat="43.37405" lon="6.14187">
        <ele>398.887899</ele>
        <time>2025-04-25T09:01:20.000Z</time>
      </trkpt>
      <trkpt lat="43.37405" lon="6.14187">
        <ele>398.887899</ele>
        <time>2025-04-25T09:01:20.000Z</time>
      </trkpt>
      <trkpt lat="43.37408" lon="6.14186">
        <ele>398.781526</ele>
        <time>2025-04-25T09:01:21.000Z</time>
      </trkpt>
      <trkpt lat="43.37412" lon="6.14184">
        <ele>398.56078</ele>
        <time>2025-04-25T09:01:21.000Z</time>
      </trkpt>
      <trkpt lat="43.37412" lon="6.14184">
        <ele>398.56078</ele>
        <time>2025-04-25T09:01:21.000Z</time>
      </trkpt>
      <trkpt lat="43.37436" lon="6.14169">
        <ele>396.851189</ele>
        <time>2025-04-25T09:01:28.000Z</time>
      </trkpt>
      <trkpt lat="43.37446" lon="6.14163">
        <ele>396.139558</ele>
        <time>2025-04-25T09:01:30.000Z</time>
      </trkpt>
      <trkpt lat="43.3745" lon="6.14161">
        <ele>395.820227</ele>
        <time>2025-04-25T09:01:31.000Z</time>
      </trkpt>
      <trkpt lat="43.37455" lon="6.14158">
        <ele>395.467278</ele>
        <time>2025-04-25T09:01:32.000Z</time>
      </trkpt>
      <trkpt lat="43.37455" lon="6.14158">
        <ele>395.467278</ele>
        <time>2025-04-25T09:01:32.000Z</time>
      </trkpt>
      <trkpt lat="43.3746" lon="6.14156">
        <ele>395.134824</ele>
        <time>2025-04-25T09:01:33.000Z</time>
      </trkpt>
      <trkpt lat="43.3746" lon="6.14156">
        <ele>395.134824</ele>
        <time>2025-04-25T09:01:33.000Z</time>
      </trkpt>
      <trkpt lat="43.37464" lon="6.14154">
        <ele>394.870107</ele>
        <time>2025-04-25T09:01:34.000Z</time>
      </trkpt>
      <trkpt lat="43.37464" lon="6.14154">
        <ele>394.870107</ele>
        <time>2025-04-25T09:01:34.000Z</time>
      </trkpt>
      <trkpt lat="43.37469" lon="6.14152">
        <ele>394.531787</ele>
        <time>2025-04-25T09:01:35.000Z</time>
      </trkpt>
      <trkpt lat="43.37469" lon="6.14152">
        <ele>394.531787</ele>
        <time>2025-04-25T09:01:35.000Z</time>
      </trkpt>
      <trkpt lat="43.37473" lon="6.14148">
        <ele>394.194341</ele>
        <time>2025-04-25T09:01:36.000Z</time>
      </trkpt>
      <trkpt lat="43.37473" lon="6.14148">
        <ele>394.194341</ele>
        <time>2025-04-25T09:01:36.000Z</time>
      </trkpt>
      <trkpt lat="43.37477" lon="6.14144">
        <ele>393.890718</ele>
        <time>2025-04-25T09:01:36.000Z</time>
      </trkpt>
      <trkpt lat="43.37477" lon="6.14144">
        <ele>393.890718</ele>
        <time>2025-04-25T09:01:36.000Z</time>
      </trkpt>
      <trkpt lat="43.3748" lon="6.1414">
        <ele>393.588624</ele>
        <time>2025-04-25T09:01:37.000Z</time>
      </trkpt>
      <trkpt lat="43.3748" lon="6.1414">
        <ele>393.588624</ele>
        <time>2025-04-25T09:01:37.000Z</time>
      </trkpt>
      <trkpt lat="43.37484" lon="6.14135">
        <ele>393.257935</ele>
        <time>2025-04-25T09:01:38.000Z</time>
      </trkpt>
      <trkpt lat="43.37484" lon="6.14135">
        <ele>393.257935</ele>
        <time>2025-04-25T09:01:38.000Z</time>
      </trkpt>
      <trkpt lat="43.37488" lon="6.14129">
        <ele>392.880769</ele>
        <time>2025-04-25T09:01:39.000Z</time>
      </trkpt>
      <trkpt lat="43.37488" lon="6.14129">
        <ele>392.880769</ele>
        <time>2025-04-25T09:01:39.000Z</time>
      </trkpt>
      <trkpt lat="43.37492" lon="6.14125">
        <ele>392.554639</ele>
        <time>2025-04-25T09:01:40.000Z</time>
      </trkpt>
      <trkpt lat="43.37492" lon="6.14125">
        <ele>392.554639</ele>
        <time>2025-04-25T09:01:40.000Z</time>
      </trkpt>
      <trkpt lat="43.37493" lon="6.14122">
        <ele>392.401372</ele>
        <time>2025-04-25T09:01:41.000Z</time>
      </trkpt>
      <trkpt lat="43.37493" lon="6.14122">
        <ele>392.401372</ele>
        <time>2025-04-25T09:01:41.000Z</time>
      </trkpt>
      <trkpt lat="43.375" lon="6.14114">
        <ele>391.814783</ele>
        <time>2025-04-25T09:01:42.000Z</time>
      </trkpt>
      <trkpt lat="43.375" lon="6.14114">
        <ele>391.814783</ele>
        <time>2025-04-25T09:01:42.000Z</time>
      </trkpt>
      <trkpt lat="43.37503" lon="6.14109">
        <ele>391.472761</ele>
        <time>2025-04-25T09:01:43.000Z</time>
      </trkpt>
      <trkpt lat="43.37503" lon="6.14109">
        <ele>391.472761</ele>
        <time>2025-04-25T09:01:43.000Z</time>
      </trkpt>
      <trkpt lat="43.37507" lon="6.14103">
        <ele>391.116352</ele>
        <time>2025-04-25T09:01:44.000Z</time>
      </trkpt>
      <trkpt lat="43.37507" lon="6.14103">
        <ele>391.116352</ele>
        <time>2025-04-25T09:01:44.000Z</time>
      </trkpt>
      <trkpt lat="43.3751" lon="6.14096">
        <ele>390.736243</ele>
        <time>2025-04-25T09:01:45.000Z</time>
      </trkpt>
      <trkpt lat="43.3751" lon="6.14096">
        <ele>390.736243</ele>
        <time>2025-04-25T09:01:45.000Z</time>
      </trkpt>
      <trkpt lat="43.37511" lon="6.14088">
        <ele>390.377771</ele>
        <time>2025-04-25T09:01:46.000Z</time>
      </trkpt>
      <trkpt lat="43.37511" lon="6.14088">
        <ele>390.377771</ele>
        <time>2025-04-25T09:01:46.000Z</time>
      </trkpt>
      <trkpt lat="43.37511" lon="6.14081">
        <ele>390.015571</ele>
        <time>2025-04-25T09:01:47.000Z</time>
      </trkpt>
      <trkpt lat="43.37511" lon="6.14081">
        <ele>390.015571</ele>
        <time>2025-04-25T09:01:47.000Z</time>
      </trkpt>
      <trkpt lat="43.37512" lon="6.14075">
        <ele>389.768343</ele>
        <time>2025-04-25T09:01:48.000Z</time>
      </trkpt>
      <trkpt lat="43.37512" lon="6.14075">
        <ele>389.768343</ele>
        <time>2025-04-25T09:01:48.000Z</time>
      </trkpt>
      <trkpt lat="43.37513" lon="6.14066">
        <ele>389.298473</ele>
        <time>2025-04-25T09:01:49.000Z</time>
      </trkpt>
      <trkpt lat="43.37513" lon="6.14066">
        <ele>389.298473</ele>
        <time>2025-04-25T09:01:49.000Z</time>
      </trkpt>
      <trkpt lat="43.37515" lon="6.14059">
        <ele>388.989527</ele>
        <time>2025-04-25T09:01:50.000Z</time>
      </trkpt>
      <trkpt lat="43.37515" lon="6.14059">
        <ele>388.989527</ele>
        <time>2025-04-25T09:01:50.000Z</time>
      </trkpt>
      <trkpt lat="43.37516" lon="6.14053">
        <ele>388.685063</ele>
        <time>2025-04-25T09:01:51.000Z</time>
      </trkpt>
      <trkpt lat="43.37516" lon="6.14053">
        <ele>388.685063</ele>
        <time>2025-04-25T09:01:51.000Z</time>
      </trkpt>
      <trkpt lat="43.37518" lon="6.14046">
        <ele>388.326165</ele>
        <time>2025-04-25T09:01:52.000Z</time>
      </trkpt>
      <trkpt lat="43.37518" lon="6.14046">
        <ele>388.326165</ele>
        <time>2025-04-25T09:01:52.000Z</time>
      </trkpt>
      <trkpt lat="43.3752" lon="6.1404">
        <ele>388.016735</ele>
        <time>2025-04-25T09:01:53.000Z</time>
      </trkpt>
      <trkpt lat="43.3752" lon="6.1404">
        <ele>388.016735</ele>
        <time>2025-04-25T09:01:53.000Z</time>
      </trkpt>
      <trkpt lat="43.37523" lon="6.14035">
        <ele>387.699017</ele>
        <time>2025-04-25T09:01:54.000Z</time>
      </trkpt>
      <trkpt lat="43.37523" lon="6.14035">
        <ele>387.699017</ele>
        <time>2025-04-25T09:01:54.000Z</time>
      </trkpt>
      <trkpt lat="43.37525" lon="6.14029">
        <ele>387.399014</ele>
        <time>2025-04-25T09:01:55.000Z</time>
      </trkpt>
      <trkpt lat="43.37525" lon="6.14029">
        <ele>387.399014</ele>
        <time>2025-04-25T09:01:55.000Z</time>
      </trkpt>
      <trkpt lat="43.37528" lon="6.14024">
        <ele>387.099281</ele>
        <time>2025-04-25T09:01:56.000Z</time>
      </trkpt>
      <trkpt lat="43.37528" lon="6.14024">
        <ele>387.099281</ele>
        <time>2025-04-25T09:01:56.000Z</time>
      </trkpt>
      <trkpt lat="43.3753" lon="6.14018">
        <ele>386.795596</ele>
        <time>2025-04-25T09:01:58.000Z</time>
      </trkpt>
      <trkpt lat="43.3753" lon="6.14018">
        <ele>386.795596</ele>
        <time>2025-04-25T09:01:58.000Z</time>
      </trkpt>
      <trkpt lat="43.37532" lon="6.14011">
        <ele>386.477784</ele>
        <time>2025-04-25T09:01:58.000Z</time>
      </trkpt>
      <trkpt lat="43.37532" lon="6.14011">
        <ele>386.477784</ele>
        <time>2025-04-25T09:01:58.000Z</time>
      </trkpt>
      <trkpt lat="43.37533" lon="6.14005">
        <ele>386.193721</ele>
        <time>2025-04-25T09:01:59.000Z</time>
      </trkpt>
      <trkpt lat="43.37533" lon="6.14005">
        <ele>386.193721</ele>
        <time>2025-04-25T09:01:59.000Z</time>
      </trkpt>
      <trkpt lat="43.37534" lon="6.13999">
        <ele>385.91282</ele>
        <time>2025-04-25T09:02:00.000Z</time>
      </trkpt>
      <trkpt lat="43.37534" lon="6.13999">
        <ele>385.91282</ele>
        <time>2025-04-25T09:02:00.000Z</time>
      </trkpt>
      <trkpt lat="43.37535" lon="6.13993">
        <ele>385.652918</ele>
        <time>2025-04-25T09:02:01.000Z</time>
      </trkpt>
      <trkpt lat="43.37535" lon="6.13993">
        <ele>385.652918</ele>
        <time>2025-04-25T09:02:01.000Z</time>
      </trkpt>
      <trkpt lat="43.37536" lon="6.13986">
        <ele>385.353357</ele>
        <time>2025-04-25T09:02:02.000Z</time>
      </trkpt>
      <trkpt lat="43.37536" lon="6.13986">
        <ele>385.353357</ele>
        <time>2025-04-25T09:02:02.000Z</time>
      </trkpt>
      <trkpt lat="43.37536" lon="6.1398">
        <ele>385.0813</ele>
        <time>2025-04-25T09:02:03.000Z</time>
      </trkpt>
      <trkpt lat="43.37536" lon="6.1398">
        <ele>385.0813</ele>
        <time>2025-04-25T09:02:03.000Z</time>
      </trkpt>
      <trkpt lat="43.37538" lon="6.13973">
        <ele>384.752781</ele>
        <time>2025-04-25T09:02:04.000Z</time>
      </trkpt>
      <trkpt lat="43.37538" lon="6.13973">
        <ele>384.752781</ele>
        <time>2025-04-25T09:02:04.000Z</time>
      </trkpt>
      <trkpt lat="43.37539" lon="6.13967">
        <ele>384.455985</ele>
        <time>2025-04-25T09:02:05.000Z</time>
      </trkpt>
      <trkpt lat="43.37539" lon="6.13967">
        <ele>384.455985</ele>
        <time>2025-04-25T09:02:05.000Z</time>
      </trkpt>
      <trkpt lat="43.37541" lon="6.13962">
        <ele>384.199416</ele>
        <time>2025-04-25T09:02:07.000Z</time>
      </trkpt>
      <trkpt lat="43.37541" lon="6.13962">
        <ele>384.199416</ele>
        <time>2025-04-25T09:02:07.000Z</time>
      </trkpt>
      <trkpt lat="43.37544" lon="6.13956">
        <ele>383.907544</ele>
        <time>2025-04-25T09:02:08.000Z</time>
      </trkpt>
      <trkpt lat="43.37544" lon="6.13956">
        <ele>383.907544</ele>
        <time>2025-04-25T09:02:08.000Z</time>
      </trkpt>
      <trkpt lat="43.37545" lon="6.1395">
        <ele>383.606311</ele>
        <time>2025-04-25T09:02:08.000Z</time>
      </trkpt>
      <trkpt lat="43.37545" lon="6.1395">
        <ele>383.606311</ele>
        <time>2025-04-25T09:02:08.000Z</time>
      </trkpt>
      <trkpt lat="43.37547" lon="6.13944">
        <ele>383.318011</ele>
        <time>2025-04-25T09:02:10.000Z</time>
      </trkpt>
      <trkpt lat="43.37547" lon="6.13944">
        <ele>383.318011</ele>
        <time>2025-04-25T09:02:10.000Z</time>
      </trkpt>
      <trkpt lat="43.37549" lon="6.13938">
        <ele>383.016777</ele>
        <time>2025-04-25T09:02:11.000Z</time>
      </trkpt>
      <trkpt lat="43.37549" lon="6.13938">
        <ele>383.016777</ele>
        <time>2025-04-25T09:02:11.000Z</time>
      </trkpt>
      <trkpt lat="43.3755" lon="6.13931">
        <ele>382.701046</ele>
        <time>2025-04-25T09:02:11.000Z</time>
      </trkpt>
      <trkpt lat="43.3755" lon="6.13931">
        <ele>382.701046</ele>
        <time>2025-04-25T09:02:11.000Z</time>
      </trkpt>
      <trkpt lat="43.37552" lon="6.13927">
        <ele>382.48347</ele>
        <time>2025-04-25T09:02:13.000Z</time>
      </trkpt>
      <trkpt lat="43.37552" lon="6.13927">
        <ele>382.48347</ele>
        <time>2025-04-25T09:02:13.000Z</time>
      </trkpt>
      <trkpt lat="43.37553" lon="6.13921">
        <ele>382.19517</ele>
        <time>2025-04-25T09:02:14.000Z</time>
      </trkpt>
      <trkpt lat="43.37553" lon="6.13921">
        <ele>382.19517</ele>
        <time>2025-04-25T09:02:14.000Z</time>
      </trkpt>
      <trkpt lat="43.37555" lon="6.13915">
        <ele>381.929495</ele>
        <time>2025-04-25T09:02:15.000Z</time>
      </trkpt>
      <trkpt lat="43.37555" lon="6.13915">
        <ele>381.929495</ele>
        <time>2025-04-25T09:02:15.000Z</time>
      </trkpt>
      <trkpt lat="43.37556" lon="6.13911">
        <ele>381.725411</ele>
        <time>2025-04-25T09:02:16.000Z</time>
      </trkpt>
      <trkpt lat="43.37556" lon="6.13911">
        <ele>381.725411</ele>
        <time>2025-04-25T09:02:16.000Z</time>
      </trkpt>
      <trkpt lat="43.37557" lon="6.13905">
        <ele>381.466602</ele>
        <time>2025-04-25T09:02:17.000Z</time>
      </trkpt>
      <trkpt lat="43.37557" lon="6.13905">
        <ele>381.466602</ele>
        <time>2025-04-25T09:02:17.000Z</time>
      </trkpt>
      <trkpt lat="43.37559" lon="6.13899">
        <ele>381.177698</ele>
        <time>2025-04-25T09:02:18.000Z</time>
      </trkpt>
      <trkpt lat="43.37559" lon="6.13899">
        <ele>381.177698</ele>
        <time>2025-04-25T09:02:18.000Z</time>
      </trkpt>
      <trkpt lat="43.3756" lon="6.13895">
        <ele>380.967302</ele>
        <time>2025-04-25T09:02:19.000Z</time>
      </trkpt>
      <trkpt lat="43.3756" lon="6.13895">
        <ele>380.967302</ele>
        <time>2025-04-25T09:02:19.000Z</time>
      </trkpt>
      <trkpt lat="43.37562" lon="6.1389">
        <ele>380.708494</ele>
        <time>2025-04-25T09:02:20.000Z</time>
      </trkpt>
      <trkpt lat="43.37562" lon="6.1389">
        <ele>380.708494</ele>
        <time>2025-04-25T09:02:20.000Z</time>
      </trkpt>
      <trkpt lat="43.37562" lon="6.13885">
        <ele>380.487743</ele>
        <time>2025-04-25T09:02:21.000Z</time>
      </trkpt>
      <trkpt lat="43.37562" lon="6.13885">
        <ele>380.487743</ele>
        <time>2025-04-25T09:02:21.000Z</time>
      </trkpt>
      <trkpt lat="43.37563" lon="6.13879">
        <ele>380.233353</ele>
        <time>2025-04-25T09:02:22.000Z</time>
      </trkpt>
      <trkpt lat="43.37563" lon="6.13879">
        <ele>380.233353</ele>
        <time>2025-04-25T09:02:22.000Z</time>
      </trkpt>
      <trkpt lat="43.37563" lon="6.13874">
        <ele>380.012603</ele>
        <time>2025-04-25T09:02:23.000Z</time>
      </trkpt>
      <trkpt lat="43.37563" lon="6.13874">
        <ele>380.012603</ele>
        <time>2025-04-25T09:02:23.000Z</time>
      </trkpt>
      <trkpt lat="43.37563" lon="6.13869">
        <ele>379.802186</ele>
        <time>2025-04-25T09:02:23.000Z</time>
      </trkpt>
      <trkpt lat="43.37563" lon="6.13869">
        <ele>379.802186</ele>
        <time>2025-04-25T09:02:23.000Z</time>
      </trkpt>
      <trkpt lat="43.37563" lon="6.13865">
        <ele>379.614153</ele>
        <time>2025-04-25T09:02:25.000Z</time>
      </trkpt>
      <trkpt lat="43.37563" lon="6.13865">
        <ele>379.614153</ele>
        <time>2025-04-25T09:02:25.000Z</time>
      </trkpt>
      <trkpt lat="43.37564" lon="6.13861">
        <ele>379.420074</ele>
        <time>2025-04-25T09:02:26.000Z</time>
      </trkpt>
      <trkpt lat="43.37564" lon="6.13861">
        <ele>379.420074</ele>
        <time>2025-04-25T09:02:26.000Z</time>
      </trkpt>
      <trkpt lat="43.37564" lon="6.13856">
        <ele>379.178318</ele>
        <time>2025-04-25T09:02:27.000Z</time>
      </trkpt>
      <trkpt lat="43.37564" lon="6.13856">
        <ele>379.178318</ele>
        <time>2025-04-25T09:02:27.000Z</time>
      </trkpt>
      <trkpt lat="43.37564" lon="6.1385">
        <ele>378.921944</ele>
        <time>2025-04-25T09:02:28.000Z</time>
      </trkpt>
      <trkpt lat="43.37564" lon="6.1385">
        <ele>378.921944</ele>
        <time>2025-04-25T09:02:28.000Z</time>
      </trkpt>
      <trkpt lat="43.37565" lon="6.13844">
        <ele>378.675218</ele>
        <time>2025-04-25T09:02:29.000Z</time>
      </trkpt>
      <trkpt lat="43.37565" lon="6.13844">
        <ele>378.675218</ele>
        <time>2025-04-25T09:02:29.000Z</time>
      </trkpt>
      <trkpt lat="43.37566" lon="6.13838">
        <ele>378.403162</ele>
        <time>2025-04-25T09:02:30.000Z</time>
      </trkpt>
      <trkpt lat="43.37566" lon="6.13838">
        <ele>378.403162</ele>
        <time>2025-04-25T09:02:30.000Z</time>
      </trkpt>
      <trkpt lat="43.37567" lon="6.13832">
        <ele>378.089885</ele>
        <time>2025-04-25T09:02:31.000Z</time>
      </trkpt>
      <trkpt lat="43.37568" lon="6.13825">
        <ele>377.80456</ele>
        <time>2025-04-25T09:02:32.000Z</time>
      </trkpt>
      <trkpt lat="43.37568" lon="6.13825">
        <ele>377.80456</ele>
        <time>2025-04-25T09:02:32.000Z</time>
      </trkpt>
      <trkpt lat="43.37568" lon="6.13819">
        <ele>377.521438</ele>
        <time>2025-04-25T09:02:33.000Z</time>
      </trkpt>
      <trkpt lat="43.37568" lon="6.13819">
        <ele>377.521438</ele>
        <time>2025-04-25T09:02:33.000Z</time>
      </trkpt>
      <trkpt lat="43.37569" lon="6.13813">
        <ele>377.235117</ele>
        <time>2025-04-25T09:02:34.000Z</time>
      </trkpt>
      <trkpt lat="43.37569" lon="6.13813">
        <ele>377.235117</ele>
        <time>2025-04-25T09:02:34.000Z</time>
      </trkpt>
      <trkpt lat="43.37569" lon="6.13807">
        <ele>376.997839</ele>
        <time>2025-04-25T09:02:35.000Z</time>
      </trkpt>
      <trkpt lat="43.37569" lon="6.13807">
        <ele>376.997839</ele>
        <time>2025-04-25T09:02:35.000Z</time>
      </trkpt>
      <trkpt lat="43.37569" lon="6.13801">
        <ele>376.724744</ele>
        <time>2025-04-25T09:02:36.000Z</time>
      </trkpt>
      <trkpt lat="43.37568" lon="6.13796">
        <ele>376.469238</ele>
        <time>2025-04-25T09:02:37.000Z</time>
      </trkpt>
      <trkpt lat="43.37568" lon="6.13796">
        <ele>376.469238</ele>
        <time>2025-04-25T09:02:37.000Z</time>
      </trkpt>
      <trkpt lat="43.37567" lon="6.13791">
        <ele>376.240031</ele>
        <time>2025-04-25T09:02:38.000Z</time>
      </trkpt>
      <trkpt lat="43.37567" lon="6.13791">
        <ele>376.240031</ele>
        <time>2025-04-25T09:02:38.000Z</time>
      </trkpt>
      <trkpt lat="43.37567" lon="6.13785">
        <ele>376.043337</ele>
        <time>2025-04-25T09:02:39.000Z</time>
      </trkpt>
      <trkpt lat="43.37566" lon="6.1378">
        <ele>375.891474</ele>
        <time>2025-04-25T09:02:40.000Z</time>
      </trkpt>
      <trkpt lat="43.37566" lon="6.1378">
        <ele>375.891474</ele>
        <time>2025-04-25T09:02:40.000Z</time>
      </trkpt>
      <trkpt lat="43.37565" lon="6.13774">
        <ele>375.687174</ele>
        <time>2025-04-25T09:02:41.000Z</time>
      </trkpt>
      <trkpt lat="43.37565" lon="6.13774">
        <ele>375.687174</ele>
        <time>2025-04-25T09:02:41.000Z</time>
      </trkpt>
      <trkpt lat="43.37564" lon="6.13768">
        <ele>375.477214</ele>
        <time>2025-04-25T09:02:42.000Z</time>
      </trkpt>
      <trkpt lat="43.37563" lon="6.13761">
        <ele>375.272913</ele>
        <time>2025-04-25T09:02:43.000Z</time>
      </trkpt>
      <trkpt lat="43.37563" lon="6.13761">
        <ele>375.272913</ele>
        <time>2025-04-25T09:02:43.000Z</time>
      </trkpt>
      <trkpt lat="43.37563" lon="6.13755">
        <ele>375.06619</ele>
        <time>2025-04-25T09:02:44.000Z</time>
      </trkpt>
      <trkpt lat="43.37563" lon="6.13755">
        <ele>375.06619</ele>
        <time>2025-04-25T09:02:44.000Z</time>
      </trkpt>
      <trkpt lat="43.37562" lon="6.13748">
        <ele>374.843263</ele>
        <time>2025-04-25T09:02:45.000Z</time>
      </trkpt>
      <trkpt lat="43.37562" lon="6.13748">
        <ele>374.843263</ele>
        <time>2025-04-25T09:02:45.000Z</time>
      </trkpt>
      <trkpt lat="43.37561" lon="6.1374">
        <ele>374.611008</ele>
        <time>2025-04-25T09:02:46.000Z</time>
      </trkpt>
      <trkpt lat="43.3756" lon="6.13732">
        <ele>374.351771</ele>
        <time>2025-04-25T09:02:47.000Z</time>
      </trkpt>
      <trkpt lat="43.3756" lon="6.13732">
        <ele>374.351771</ele>
        <time>2025-04-25T09:02:47.000Z</time>
      </trkpt>
      <trkpt lat="43.37559" lon="6.13725">
        <ele>374.119517</ele>
        <time>2025-04-25T09:02:48.000Z</time>
      </trkpt>
      <trkpt lat="43.37559" lon="6.13725">
        <ele>374.119517</ele>
        <time>2025-04-25T09:02:48.000Z</time>
      </trkpt>
      <trkpt lat="43.37558" lon="6.13717">
        <ele>373.871762</ele>
        <time>2025-04-25T09:02:49.000Z</time>
      </trkpt>
      <trkpt lat="43.37558" lon="6.13717">
        <ele>373.871762</ele>
        <time>2025-04-25T09:02:49.000Z</time>
      </trkpt>
      <trkpt lat="43.37556" lon="6.1371">
        <ele>373.620969</ele>
        <time>2025-04-25T09:02:50.000Z</time>
      </trkpt>
      <trkpt lat="43.37556" lon="6.1371">
        <ele>373.620969</ele>
        <time>2025-04-25T09:02:50.000Z</time>
      </trkpt>
      <trkpt lat="43.37555" lon="6.137">
        <ele>373.318201</ele>
        <time>2025-04-25T09:02:51.000Z</time>
      </trkpt>
      <trkpt lat="43.37555" lon="6.137">
        <ele>373.318201</ele>
        <time>2025-04-25T09:02:51.000Z</time>
      </trkpt>
      <trkpt lat="43.37553" lon="6.13692">
        <ele>373.064296</ele>
        <time>2025-04-25T09:02:52.000Z</time>
      </trkpt>
      <trkpt lat="43.37553" lon="6.13692">
        <ele>373.064296</ele>
        <time>2025-04-25T09:02:52.000Z</time>
      </trkpt>
      <trkpt lat="43.37553" lon="6.13684">
        <ele>372.804009</ele>
        <time>2025-04-25T09:02:53.000Z</time>
      </trkpt>
      <trkpt lat="43.37553" lon="6.13684">
        <ele>372.804009</ele>
        <time>2025-04-25T09:02:53.000Z</time>
      </trkpt>
      <trkpt lat="43.37553" lon="6.13676">
        <ele>372.546035</ele>
        <time>2025-04-25T09:02:54.000Z</time>
      </trkpt>
      <trkpt lat="43.37553" lon="6.13676">
        <ele>372.546035</ele>
        <time>2025-04-25T09:02:54.000Z</time>
      </trkpt>
      <trkpt lat="43.37553" lon="6.13669">
        <ele>372.312587</ele>
        <time>2025-04-25T09:02:55.000Z</time>
      </trkpt>
      <trkpt lat="43.37553" lon="6.13669">
        <ele>372.312587</ele>
        <time>2025-04-25T09:02:55.000Z</time>
      </trkpt>
      <trkpt lat="43.37553" lon="6.13665">
        <ele>372.188676</ele>
        <time>2025-04-25T09:02:56.000Z</time>
      </trkpt>
      <trkpt lat="43.37553" lon="6.13665">
        <ele>372.188676</ele>
        <time>2025-04-25T09:02:56.000Z</time>
      </trkpt>
      <trkpt lat="43.37552" lon="6.13655">
        <ele>371.87575</ele>
        <time>2025-04-25T09:02:57.000Z</time>
      </trkpt>
      <trkpt lat="43.37552" lon="6.13655">
        <ele>371.87575</ele>
        <time>2025-04-25T09:02:57.000Z</time>
      </trkpt>
      <trkpt lat="43.37551" lon="6.13649">
        <ele>371.699288</ele>
        <time>2025-04-25T09:02:58.000Z</time>
      </trkpt>
      <trkpt lat="43.37551" lon="6.13649">
        <ele>371.699288</ele>
        <time>2025-04-25T09:02:58.000Z</time>
      </trkpt>
      <trkpt lat="43.3755" lon="6.13644">
        <ele>371.519826</ele>
        <time>2025-04-25T09:02:59.000Z</time>
      </trkpt>
      <trkpt lat="43.3755" lon="6.13644">
        <ele>371.519826</ele>
        <time>2025-04-25T09:02:59.000Z</time>
      </trkpt>
      <trkpt lat="43.37548" lon="6.13636">
        <ele>371.258791</ele>
        <time>2025-04-25T09:02:59.000Z</time>
      </trkpt>
      <trkpt lat="43.37548" lon="6.13636">
        <ele>371.258791</ele>
        <time>2025-04-25T09:02:59.000Z</time>
      </trkpt>
      <trkpt lat="43.37547" lon="6.13631">
        <ele>371.082786</ele>
        <time>2025-04-25T09:03:01.000Z</time>
      </trkpt>
      <trkpt lat="43.37547" lon="6.13631">
        <ele>371.082786</ele>
        <time>2025-04-25T09:03:01.000Z</time>
      </trkpt>
      <trkpt lat="43.37545" lon="6.13625">
        <ele>370.879769</ele>
        <time>2025-04-25T09:03:02.000Z</time>
      </trkpt>
      <trkpt lat="43.37545" lon="6.13625">
        <ele>370.879769</ele>
        <time>2025-04-25T09:03:02.000Z</time>
      </trkpt>
      <trkpt lat="43.37543" lon="6.13618">
        <ele>370.643812</ele>
        <time>2025-04-25T09:03:02.000Z</time>
      </trkpt>
      <trkpt lat="43.37543" lon="6.13618">
        <ele>370.643812</ele>
        <time>2025-04-25T09:03:02.000Z</time>
      </trkpt>
      <trkpt lat="43.37541" lon="6.13612">
        <ele>370.440795</ele>
        <time>2025-04-25T09:03:03.000Z</time>
      </trkpt>
      <trkpt lat="43.37541" lon="6.13612">
        <ele>370.440795</ele>
        <time>2025-04-25T09:03:03.000Z</time>
      </trkpt>
      <trkpt lat="43.37539" lon="6.13605">
        <ele>370.217466</ele>
        <time>2025-04-25T09:03:04.000Z</time>
      </trkpt>
      <trkpt lat="43.37539" lon="6.13605">
        <ele>370.217466</ele>
        <time>2025-04-25T09:03:04.000Z</time>
      </trkpt>
      <trkpt lat="43.37538" lon="6.13602">
        <ele>370.091702</ele>
        <time>2025-04-25T09:03:05.000Z</time>
      </trkpt>
      <trkpt lat="43.37538" lon="6.13602">
        <ele>370.091702</ele>
        <time>2025-04-25T09:03:05.000Z</time>
      </trkpt>
      <trkpt lat="43.37535" lon="6.13592">
        <ele>369.759043</ele>
        <time>2025-04-25T09:03:07.000Z</time>
      </trkpt>
      <trkpt lat="43.37535" lon="6.13592">
        <ele>369.759043</ele>
        <time>2025-04-25T09:03:07.000Z</time>
      </trkpt>
      <trkpt lat="43.37534" lon="6.13585">
        <ele>369.547489</ele>
        <time>2025-04-25T09:03:08.000Z</time>
      </trkpt>
      <trkpt lat="43.37534" lon="6.13585">
        <ele>369.547489</ele>
        <time>2025-04-25T09:03:08.000Z</time>
      </trkpt>
      <trkpt lat="43.37533" lon="6.13583">
        <ele>369.461554</ele>
        <time>2025-04-25T09:03:09.000Z</time>
      </trkpt>
      <trkpt lat="43.37533" lon="6.13583">
        <ele>369.461554</ele>
        <time>2025-04-25T09:03:09.000Z</time>
      </trkpt>
      <trkpt lat="43.37529" lon="6.1357">
        <ele>369.02948</ele>
        <time>2025-04-25T09:03:10.000Z</time>
      </trkpt>
      <trkpt lat="43.37529" lon="6.1357">
        <ele>369.02948</ele>
        <time>2025-04-25T09:03:10.000Z</time>
      </trkpt>
      <trkpt lat="43.37528" lon="6.13563">
        <ele>368.808924</ele>
        <time>2025-04-25T09:03:11.000Z</time>
      </trkpt>
      <trkpt lat="43.37528" lon="6.13563">
        <ele>368.808924</ele>
        <time>2025-04-25T09:03:11.000Z</time>
      </trkpt>
      <trkpt lat="43.37526" lon="6.13556">
        <ele>368.556975</ele>
        <time>2025-04-25T09:03:12.000Z</time>
      </trkpt>
      <trkpt lat="43.37526" lon="6.13556">
        <ele>368.556975</ele>
        <time>2025-04-25T09:03:12.000Z</time>
      </trkpt>
      <trkpt lat="43.37525" lon="6.13548">
        <ele>368.446396</ele>
        <time>2025-04-25T09:03:13.000Z</time>
      </trkpt>
      <trkpt lat="43.37525" lon="6.13548">
        <ele>368.446396</ele>
        <time>2025-04-25T09:03:13.000Z</time>
      </trkpt>
      <trkpt lat="43.37526" lon="6.13545">
        <ele>368.516663</ele>
        <time>2025-04-25T09:03:14.000Z</time>
      </trkpt>
      <trkpt lat="43.37526" lon="6.13545">
        <ele>368.516663</ele>
        <time>2025-04-25T09:03:14.000Z</time>
      </trkpt>
      <trkpt lat="43.37525" lon="6.13531">
        <ele>368.860013</ele>
        <time>2025-04-25T09:03:15.000Z</time>
      </trkpt>
      <trkpt lat="43.37525" lon="6.13531">
        <ele>368.860013</ele>
        <time>2025-04-25T09:03:15.000Z</time>
      </trkpt>
      <trkpt lat="43.37524" lon="6.13526">
        <ele>368.998574</ele>
        <time>2025-04-25T09:03:16.000Z</time>
      </trkpt>
      <trkpt lat="43.37524" lon="6.13526">
        <ele>368.998574</ele>
        <time>2025-04-25T09:03:16.000Z</time>
      </trkpt>
      <trkpt lat="43.37524" lon="6.13515">
        <ele>369.255026</ele>
        <time>2025-04-25T09:03:17.000Z</time>
      </trkpt>
      <trkpt lat="43.37524" lon="6.13515">
        <ele>369.255026</ele>
        <time>2025-04-25T09:03:17.000Z</time>
      </trkpt>
      <trkpt lat="43.37523" lon="6.13507">
        <ele>369.463226</ele>
        <time>2025-04-25T09:03:18.000Z</time>
      </trkpt>
      <trkpt lat="43.37523" lon="6.13507">
        <ele>369.463226</ele>
        <time>2025-04-25T09:03:18.000Z</time>
      </trkpt>
      <trkpt lat="43.37523" lon="6.13505">
        <ele>369.505088</ele>
        <time>2025-04-25T09:03:19.000Z</time>
      </trkpt>
      <trkpt lat="43.37523" lon="6.13505">
        <ele>369.505088</ele>
        <time>2025-04-25T09:03:19.000Z</time>
      </trkpt>
      <trkpt lat="43.37521" lon="6.13492">
        <ele>369.848925</ele>
        <time>2025-04-25T09:03:20.000Z</time>
      </trkpt>
      <trkpt lat="43.37521" lon="6.13492">
        <ele>369.848925</ele>
        <time>2025-04-25T09:03:20.000Z</time>
      </trkpt>
      <trkpt lat="43.3752" lon="6.13486">
        <ele>369.996715</ele>
        <time>2025-04-25T09:03:21.000Z</time>
      </trkpt>
      <trkpt lat="43.3752" lon="6.13486">
        <ele>369.996715</ele>
        <time>2025-04-25T09:03:21.000Z</time>
      </trkpt>
      <trkpt lat="43.3752" lon="6.1348">
        <ele>370.131785</ele>
        <time>2025-04-25T09:03:22.000Z</time>
      </trkpt>
      <trkpt lat="43.3752" lon="6.1348">
        <ele>370.131785</ele>
        <time>2025-04-25T09:03:22.000Z</time>
      </trkpt>
      <trkpt lat="43.37519" lon="6.13477">
        <ele>370.219029</ele>
        <time>2025-04-25T09:03:23.000Z</time>
      </trkpt>
      <trkpt lat="43.37519" lon="6.13477">
        <ele>370.219029</ele>
        <time>2025-04-25T09:03:23.000Z</time>
      </trkpt>
      <trkpt lat="43.37519" lon="6.13474">
        <ele>370.296558</ele>
        <time>2025-04-25T09:03:24.000Z</time>
      </trkpt>
      <trkpt lat="43.37519" lon="6.13474">
        <ele>370.296558</ele>
        <time>2025-04-25T09:03:24.000Z</time>
      </trkpt>
      <trkpt lat="43.37519" lon="6.13474">
        <ele>370.296558</ele>
        <time>2025-04-25T09:03:25.000Z</time>
      </trkpt>
      <trkpt lat="43.37519" lon="6.1347">
        <ele>370.398424</ele>
        <time>2025-04-25T09:03:26.000Z</time>
      </trkpt>
      <trkpt lat="43.37519" lon="6.1347">
        <ele>370.398424</ele>
        <time>2025-04-25T09:03:26.000Z</time>
      </trkpt>
      <trkpt lat="43.37519" lon="6.13469">
        <ele>370.420586</ele>
        <time>2025-04-25T09:03:27.000Z</time>
      </trkpt>
      <trkpt lat="43.37519" lon="6.13469">
        <ele>370.420586</ele>
        <time>2025-04-25T09:03:27.000Z</time>
      </trkpt>
      <trkpt lat="43.37519" lon="6.13469">
        <ele>370.420586</ele>
        <time>2025-04-25T09:03:28.000Z</time>
      </trkpt>
      <trkpt lat="43.37519" lon="6.13469">
        <ele>370.420586</ele>
        <time>2025-04-25T09:03:29.000Z</time>
      </trkpt>
      <trkpt lat="43.37519" lon="6.13469">
        <ele>370.420586</ele>
        <time>2025-04-25T09:03:42.000Z</time>
      </trkpt>
      <trkpt lat="43.3752" lon="6.13459">
        <ele>373.171752</ele>
        <time>2025-04-25T09:07:58.000Z</time>
      </trkpt>
      <trkpt lat="43.3752" lon="6.13456">
        <ele>372.945855</ele>
        <time>2025-04-25T09:07:58.000Z</time>
      </trkpt>
      <trkpt lat="43.3752" lon="6.13456">
        <ele>372.945855</ele>
        <time>2025-04-25T09:07:58.000Z</time>
      </trkpt>
      <trkpt lat="43.3752" lon="6.13453">
        <ele>372.750879</ele>
        <time>2025-04-25T09:08:00.000Z</time>
      </trkpt>
      <trkpt lat="43.3752" lon="6.13453">
        <ele>372.750879</ele>
        <time>2025-04-25T09:08:00.000Z</time>
      </trkpt>
      <trkpt lat="43.3752" lon="6.1345">
        <ele>372.513877</ele>
        <time>2025-04-25T09:08:01.000Z</time>
      </trkpt>
      <trkpt lat="43.3752" lon="6.1345">
        <ele>372.513877</ele>
        <time>2025-04-25T09:08:01.000Z</time>
      </trkpt>
      <trkpt lat="43.37519" lon="6.13447">
        <ele>372.295261</ele>
        <time>2025-04-25T09:08:02.000Z</time>
      </trkpt>
      <trkpt lat="43.37519" lon="6.13447">
        <ele>372.295261</ele>
        <time>2025-04-25T09:08:02.000Z</time>
      </trkpt>
      <trkpt lat="43.37519" lon="6.13445">
        <ele>372.117509</ele>
        <time>2025-04-25T09:08:03.000Z</time>
      </trkpt>
      <trkpt lat="43.37519" lon="6.13445">
        <ele>372.117509</ele>
        <time>2025-04-25T09:08:03.000Z</time>
      </trkpt>
      <trkpt lat="43.37519" lon="6.13442">
        <ele>371.880506</ele>
        <time>2025-04-25T09:08:04.000Z</time>
      </trkpt>
      <trkpt lat="43.37519" lon="6.13442">
        <ele>371.880506</ele>
        <time>2025-04-25T09:08:04.000Z</time>
      </trkpt>
      <trkpt lat="43.3752" lon="6.13438">
        <ele>371.6859</ele>
        <time>2025-04-25T09:08:05.000Z</time>
      </trkpt>
      <trkpt lat="43.3752" lon="6.13438">
        <ele>371.6859</ele>
        <time>2025-04-25T09:08:05.000Z</time>
      </trkpt>
      <trkpt lat="43.3752" lon="6.13435">
        <ele>371.536873</ele>
        <time>2025-04-25T09:08:06.000Z</time>
      </trkpt>
      <trkpt lat="43.3752" lon="6.13435">
        <ele>371.536873</ele>
        <time>2025-04-25T09:08:06.000Z</time>
      </trkpt>
      <trkpt lat="43.37521" lon="6.13432">
        <ele>371.402707</ele>
        <time>2025-04-25T09:08:07.000Z</time>
      </trkpt>
      <trkpt lat="43.37521" lon="6.13432">
        <ele>371.402707</ele>
        <time>2025-04-25T09:08:07.000Z</time>
      </trkpt>
      <trkpt lat="43.37522" lon="6.13429">
        <ele>371.216152</ele>
        <time>2025-04-25T09:08:08.000Z</time>
      </trkpt>
      <trkpt lat="43.37522" lon="6.13429">
        <ele>371.216152</ele>
        <time>2025-04-25T09:08:08.000Z</time>
      </trkpt>
      <trkpt lat="43.37524" lon="6.13425">
        <ele>371.024159</ele>
        <time>2025-04-25T09:08:09.000Z</time>
      </trkpt>
      <trkpt lat="43.37524" lon="6.13425">
        <ele>371.024159</ele>
        <time>2025-04-25T09:08:09.000Z</time>
      </trkpt>
      <trkpt lat="43.37525" lon="6.13421">
        <ele>370.850008</ele>
        <time>2025-04-25T09:08:10.000Z</time>
      </trkpt>
      <trkpt lat="43.37525" lon="6.13421">
        <ele>370.850008</ele>
        <time>2025-04-25T09:08:10.000Z</time>
      </trkpt>
      <trkpt lat="43.37526" lon="6.13419">
        <ele>370.711979</ele>
        <time>2025-04-25T09:08:11.000Z</time>
      </trkpt>
      <trkpt lat="43.37526" lon="6.13419">
        <ele>370.711979</ele>
        <time>2025-04-25T09:08:11.000Z</time>
      </trkpt>
      <trkpt lat="43.37527" lon="6.13416">
        <ele>370.590165</ele>
        <time>2025-04-25T09:08:12.000Z</time>
      </trkpt>
      <trkpt lat="43.37527" lon="6.13416">
        <ele>370.590165</ele>
        <time>2025-04-25T09:08:12.000Z</time>
      </trkpt>
      <trkpt lat="43.37528" lon="6.13414">
        <ele>370.459843</ele>
        <time>2025-04-25T09:08:12.000Z</time>
      </trkpt>
      <trkpt lat="43.37528" lon="6.13414">
        <ele>370.459843</ele>
        <time>2025-04-25T09:08:12.000Z</time>
      </trkpt>
      <trkpt lat="43.37529" lon="6.1341">
        <ele>370.313144</ele>
        <time>2025-04-25T09:08:14.000Z</time>
      </trkpt>
      <trkpt lat="43.37529" lon="6.1341">
        <ele>370.313144</ele>
        <time>2025-04-25T09:08:14.000Z</time>
      </trkpt>
      <trkpt lat="43.37529" lon="6.13407">
        <ele>370.149527</ele>
        <time>2025-04-25T09:08:15.000Z</time>
      </trkpt>
      <trkpt lat="43.37529" lon="6.13407">
        <ele>370.149527</ele>
        <time>2025-04-25T09:08:15.000Z</time>
      </trkpt>
      <trkpt lat="43.3753" lon="6.13403">
        <ele>369.969466</ele>
        <time>2025-04-25T09:08:16.000Z</time>
      </trkpt>
      <trkpt lat="43.3753" lon="6.13403">
        <ele>369.969466</ele>
        <time>2025-04-25T09:08:16.000Z</time>
      </trkpt>
      <trkpt lat="43.37531" lon="6.13398">
        <ele>369.746771</ele>
        <time>2025-04-25T09:08:17.000Z</time>
      </trkpt>
      <trkpt lat="43.37531" lon="6.13398">
        <ele>369.746771</ele>
        <time>2025-04-25T09:08:17.000Z</time>
      </trkpt>
      <trkpt lat="43.37531" lon="6.13393">
        <ele>369.496636</ele>
        <time>2025-04-25T09:08:18.000Z</time>
      </trkpt>
      <trkpt lat="43.37531" lon="6.13393">
        <ele>369.496636</ele>
        <time>2025-04-25T09:08:18.000Z</time>
      </trkpt>
      <trkpt lat="43.37532" lon="6.13387">
        <ele>369.267882</ele>
        <time>2025-04-25T09:08:19.000Z</time>
      </trkpt>
      <trkpt lat="43.37532" lon="6.13387">
        <ele>369.267882</ele>
        <time>2025-04-25T09:08:19.000Z</time>
      </trkpt>
      <trkpt lat="43.37533" lon="6.13383">
        <ele>369.051929</ele>
        <time>2025-04-25T09:08:20.000Z</time>
      </trkpt>
      <trkpt lat="43.37533" lon="6.13383">
        <ele>369.051929</ele>
        <time>2025-04-25T09:08:20.000Z</time>
      </trkpt>
      <trkpt lat="43.37534" lon="6.13379">
        <ele>368.839231</ele>
        <time>2025-04-25T09:08:21.000Z</time>
      </trkpt>
      <trkpt lat="43.37534" lon="6.13379">
        <ele>368.839231</ele>
        <time>2025-04-25T09:08:21.000Z</time>
      </trkpt>
      <trkpt lat="43.37536" lon="6.13375">
        <ele>368.633549</ele>
        <time>2025-04-25T09:08:22.000Z</time>
      </trkpt>
      <trkpt lat="43.37536" lon="6.13375">
        <ele>368.633549</ele>
        <time>2025-04-25T09:08:22.000Z</time>
      </trkpt>
      <trkpt lat="43.37539" lon="6.13371">
        <ele>368.390116</ele>
        <time>2025-04-25T09:08:23.000Z</time>
      </trkpt>
      <trkpt lat="43.37539" lon="6.13371">
        <ele>368.390116</ele>
        <time>2025-04-25T09:08:23.000Z</time>
      </trkpt>
      <trkpt lat="43.37541" lon="6.13368">
        <ele>368.210279</ele>
        <time>2025-04-25T09:08:23.000Z</time>
      </trkpt>
      <trkpt lat="43.37541" lon="6.13368">
        <ele>368.210279</ele>
        <time>2025-04-25T09:08:23.000Z</time>
      </trkpt>
      <trkpt lat="43.37544" lon="6.13366">
        <ele>367.992747</ele>
        <time>2025-04-25T09:08:25.000Z</time>
      </trkpt>
      <trkpt lat="43.37544" lon="6.13366">
        <ele>367.992747</ele>
        <time>2025-04-25T09:08:25.000Z</time>
      </trkpt>
      <trkpt lat="43.37547" lon="6.13364">
        <ele>367.806685</ele>
        <time>2025-04-25T09:08:26.000Z</time>
      </trkpt>
      <trkpt lat="43.37547" lon="6.13364">
        <ele>367.806685</ele>
        <time>2025-04-25T09:08:26.000Z</time>
      </trkpt>
      <trkpt lat="43.3755" lon="6.13362">
        <ele>367.606509</ele>
        <time>2025-04-25T09:08:27.000Z</time>
      </trkpt>
      <trkpt lat="43.37553" lon="6.13361">
        <ele>367.414831</ele>
        <time>2025-04-25T09:08:28.000Z</time>
      </trkpt>
      <trkpt lat="43.37553" lon="6.13361">
        <ele>367.414831</ele>
        <time>2025-04-25T09:08:28.000Z</time>
      </trkpt>
      <trkpt lat="43.37557" lon="6.1336">
        <ele>367.193532</ele>
        <time>2025-04-25T09:08:29.000Z</time>
      </trkpt>
      <trkpt lat="43.37557" lon="6.1336">
        <ele>367.193532</ele>
        <time>2025-04-25T09:08:29.000Z</time>
      </trkpt>
      <trkpt lat="43.37559" lon="6.13358">
        <ele>367.020559</ele>
        <time>2025-04-25T09:08:30.000Z</time>
      </trkpt>
      <trkpt lat="43.37562" lon="6.13356">
        <ele>366.806554</ele>
        <time>2025-04-25T09:08:30.000Z</time>
      </trkpt>
      <trkpt lat="43.37565" lon="6.13354">
        <ele>366.591366</ele>
        <time>2025-04-25T09:08:31.000Z</time>
      </trkpt>
      <trkpt lat="43.37565" lon="6.13354">
        <ele>366.591366</ele>
        <time>2025-04-25T09:08:31.000Z</time>
      </trkpt>
      <trkpt lat="43.37568" lon="6.13351">
        <ele>366.363849</ele>
        <time>2025-04-25T09:08:32.000Z</time>
      </trkpt>
      <trkpt lat="43.37575" lon="6.13342">
        <ele>365.789627</ele>
        <time>2025-04-25T09:08:34.000Z</time>
      </trkpt>
      <trkpt lat="43.37577" lon="6.13339">
        <ele>365.608797</ele>
        <time>2025-04-25T09:08:35.000Z</time>
      </trkpt>
      <trkpt lat="43.3758" lon="6.13334">
        <ele>365.338255</ele>
        <time>2025-04-25T09:08:36.000Z</time>
      </trkpt>
      <trkpt lat="43.37581" lon="6.1333">
        <ele>365.130732</ele>
        <time>2025-04-25T09:08:37.000Z</time>
      </trkpt>
      <trkpt lat="43.37584" lon="6.13325">
        <ele>364.870089</ele>
        <time>2025-04-25T09:08:38.000Z</time>
      </trkpt>
      <trkpt lat="43.37585" lon="6.1332">
        <ele>364.63026</ele>
        <time>2025-04-25T09:08:40.000Z</time>
      </trkpt>
      <trkpt lat="43.37587" lon="6.13315">
        <ele>364.36193</ele>
        <time>2025-04-25T09:08:41.000Z</time>
      </trkpt>
      <trkpt lat="43.37588" lon="6.13309">
        <ele>364.108535</ele>
        <time>2025-04-25T09:08:42.000Z</time>
      </trkpt>
      <trkpt lat="43.37588" lon="6.13303">
        <ele>363.848725</ele>
        <time>2025-04-25T09:08:43.000Z</time>
      </trkpt>
      <trkpt lat="43.37589" lon="6.13298">
        <ele>363.588915</ele>
        <time>2025-04-25T09:08:44.000Z</time>
      </trkpt>
      <trkpt lat="43.37589" lon="6.13291">
        <ele>363.308106</ele>
        <time>2025-04-25T09:08:45.000Z</time>
      </trkpt>
      <trkpt lat="43.3759" lon="6.13285">
        <ele>363.017658</ele>
        <time>2025-04-25T09:08:46.000Z</time>
      </trkpt>
      <trkpt lat="43.3759" lon="6.13278">
        <ele>362.709956</ele>
        <time>2025-04-25T09:08:47.000Z</time>
      </trkpt>
      <trkpt lat="43.3759" lon="6.13271">
        <ele>362.383492</ele>
        <time>2025-04-25T09:08:48.000Z</time>
      </trkpt>
      <trkpt lat="43.3759" lon="6.13265">
        <ele>362.114802</ele>
        <time>2025-04-25T09:08:49.000Z</time>
      </trkpt>
      <trkpt lat="43.3759" lon="6.13258">
        <ele>361.80264</ele>
        <time>2025-04-25T09:08:50.000Z</time>
      </trkpt>
      <trkpt lat="43.3759" lon="6.13252">
        <ele>361.526154</ele>
        <time>2025-04-25T09:08:51.000Z</time>
      </trkpt>
      <trkpt lat="43.3759" lon="6.13252">
        <ele>361.526154</ele>
        <time>2025-04-25T09:08:51.000Z</time>
      </trkpt>
      <trkpt lat="43.37591" lon="6.13246">
        <ele>361.284097</ele>
        <time>2025-04-25T09:08:51.000Z</time>
      </trkpt>
      <trkpt lat="43.37591" lon="6.13241">
        <ele>361.055345</ele>
        <time>2025-04-25T09:08:53.000Z</time>
      </trkpt>
      <trkpt lat="43.37592" lon="6.13237">
        <ele>360.854484</ele>
        <time>2025-04-25T09:08:54.000Z</time>
      </trkpt>
      <trkpt lat="43.37592" lon="6.13232">
        <ele>360.662511</ele>
        <time>2025-04-25T09:08:54.000Z</time>
      </trkpt>
      <trkpt lat="43.37592" lon="6.13232">
        <ele>360.662511</ele>
        <time>2025-04-25T09:08:54.000Z</time>
      </trkpt>
      <trkpt lat="43.37592" lon="6.13226">
        <ele>360.509913</ele>
        <time>2025-04-25T09:08:55.000Z</time>
      </trkpt>
      <trkpt lat="43.37592" lon="6.1322">
        <ele>360.343016</ele>
        <time>2025-04-25T09:08:56.000Z</time>
      </trkpt>
      <trkpt lat="43.37592" lon="6.1322">
        <ele>360.343016</ele>
        <time>2025-04-25T09:08:56.000Z</time>
      </trkpt>
      <trkpt lat="43.37592" lon="6.13213">
        <ele>360.165537</ele>
        <time>2025-04-25T09:08:58.000Z</time>
      </trkpt>
      <trkpt lat="43.37592" lon="6.13207">
        <ele>359.98024</ele>
        <time>2025-04-25T09:08:58.000Z</time>
      </trkpt>
      <trkpt lat="43.37592" lon="6.13207">
        <ele>359.98024</ele>
        <time>2025-04-25T09:08:58.000Z</time>
      </trkpt>
      <trkpt lat="43.37593" lon="6.13199">
        <ele>359.773522</ele>
        <time>2025-04-25T09:08:59.000Z</time>
      </trkpt>
      <trkpt lat="43.37594" lon="6.13193">
        <ele>359.604904</ele>
        <time>2025-04-25T09:09:01.000Z</time>
      </trkpt>
      <trkpt lat="43.37594" lon="6.13193">
        <ele>359.604904</ele>
        <time>2025-04-25T09:09:01.000Z</time>
      </trkpt>
      <trkpt lat="43.37595" lon="6.13188">
        <ele>359.449387</ele>
        <time>2025-04-25T09:09:01.000Z</time>
      </trkpt>
      <trkpt lat="43.37595" lon="6.13188">
        <ele>359.449387</ele>
        <time>2025-04-25T09:09:01.000Z</time>
      </trkpt>
      <trkpt lat="43.37595" lon="6.13182">
        <ele>359.307689</ele>
        <time>2025-04-25T09:09:03.000Z</time>
      </trkpt>
      <trkpt lat="43.37595" lon="6.13182">
        <ele>359.307689</ele>
        <time>2025-04-25T09:09:03.000Z</time>
      </trkpt>
      <trkpt lat="43.37595" lon="6.13177">
        <ele>359.168716</ele>
        <time>2025-04-25T09:09:04.000Z</time>
      </trkpt>
      <trkpt lat="43.37595" lon="6.13177">
        <ele>359.168716</ele>
        <time>2025-04-25T09:09:04.000Z</time>
      </trkpt>
      <trkpt lat="43.37596" lon="6.13172">
        <ele>359.027288</ele>
        <time>2025-04-25T09:09:04.000Z</time>
      </trkpt>
      <trkpt lat="43.37599" lon="6.13166">
        <ele>358.813159</ele>
        <time>2025-04-25T09:09:06.000Z</time>
      </trkpt>
      <trkpt lat="43.37599" lon="6.13166">
        <ele>358.813159</ele>
        <time>2025-04-25T09:09:06.000Z</time>
      </trkpt>
      <trkpt lat="43.37601" lon="6.13163">
        <ele>358.704731</ele>
        <time>2025-04-25T09:09:07.000Z</time>
      </trkpt>
      <trkpt lat="43.37601" lon="6.13163">
        <ele>358.704731</ele>
        <time>2025-04-25T09:09:07.000Z</time>
      </trkpt>
      <trkpt lat="43.37605" lon="6.13155">
        <ele>358.446739</ele>
        <time>2025-04-25T09:09:09.000Z</time>
      </trkpt>
      <trkpt lat="43.37605" lon="6.13155">
        <ele>358.446739</ele>
        <time>2025-04-25T09:09:09.000Z</time>
      </trkpt>
      <trkpt lat="43.37608" lon="6.13151">
        <ele>358.277793</ele>
        <time>2025-04-25T09:09:10.000Z</time>
      </trkpt>
      <trkpt lat="43.37611" lon="6.13146">
        <ele>358.116848</ele>
        <time>2025-04-25T09:09:11.000Z</time>
      </trkpt>
      <trkpt lat="43.37611" lon="6.13146">
        <ele>358.116848</ele>
        <time>2025-04-25T09:09:11.000Z</time>
      </trkpt>
      <trkpt lat="43.37614" lon="6.13141">
        <ele>357.939832</ele>
        <time>2025-04-25T09:09:12.000Z</time>
      </trkpt>
      <trkpt lat="43.37614" lon="6.13141">
        <ele>357.939832</ele>
        <time>2025-04-25T09:09:12.000Z</time>
      </trkpt>
      <trkpt lat="43.37616" lon="6.13137">
        <ele>357.789075</ele>
        <time>2025-04-25T09:09:13.000Z</time>
      </trkpt>
      <trkpt lat="43.37616" lon="6.13137">
        <ele>357.789075</ele>
        <time>2025-04-25T09:09:13.000Z</time>
      </trkpt>
      <trkpt lat="43.37619" lon="6.13133">
        <ele>357.640809</ele>
        <time>2025-04-25T09:09:14.000Z</time>
      </trkpt>
      <trkpt lat="43.37619" lon="6.13133">
        <ele>357.640809</ele>
        <time>2025-04-25T09:09:14.000Z</time>
      </trkpt>
      <trkpt lat="43.37621" lon="6.13129">
        <ele>357.497516</ele>
        <time>2025-04-25T09:09:15.000Z</time>
      </trkpt>
      <trkpt lat="43.37621" lon="6.13129">
        <ele>357.497516</ele>
        <time>2025-04-25T09:09:15.000Z</time>
      </trkpt>
      <trkpt lat="43.37624" lon="6.13125">
        <ele>357.352713</ele>
        <time>2025-04-25T09:09:17.000Z</time>
      </trkpt>
      <trkpt lat="43.37627" lon="6.1312">
        <ele>357.191599</ele>
        <time>2025-04-25T09:09:18.000Z</time>
      </trkpt>
      <trkpt lat="43.37627" lon="6.1312">
        <ele>357.191599</ele>
        <time>2025-04-25T09:09:18.000Z</time>
      </trkpt>
      <trkpt lat="43.3763" lon="6.13115">
        <ele>357.005024</ele>
        <time>2025-04-25T09:09:18.000Z</time>
      </trkpt>
      <trkpt lat="43.3763" lon="6.13115">
        <ele>357.005024</ele>
        <time>2025-04-25T09:09:18.000Z</time>
      </trkpt>
      <trkpt lat="43.37634" lon="6.13111">
        <ele>356.835528</ele>
        <time>2025-04-25T09:09:19.000Z</time>
      </trkpt>
      <trkpt lat="43.37634" lon="6.13111">
        <ele>356.835528</ele>
        <time>2025-04-25T09:09:19.000Z</time>
      </trkpt>
      <trkpt lat="43.3764" lon="6.13103">
        <ele>356.51038</ele>
        <time>2025-04-25T09:09:20.000Z</time>
      </trkpt>
      <trkpt lat="43.3764" lon="6.13103">
        <ele>356.51038</ele>
        <time>2025-04-25T09:09:20.000Z</time>
      </trkpt>
      <trkpt lat="43.37644" lon="6.13099">
        <ele>356.324181</ele>
        <time>2025-04-25T09:09:22.000Z</time>
      </trkpt>
      <trkpt lat="43.37644" lon="6.13099">
        <ele>356.324181</ele>
        <time>2025-04-25T09:09:22.000Z</time>
      </trkpt>
      <trkpt lat="43.37648" lon="6.13094">
        <ele>356.112356</ele>
        <time>2025-04-25T09:09:22.000Z</time>
      </trkpt>
      <trkpt lat="43.37648" lon="6.13094">
        <ele>356.112356</ele>
        <time>2025-04-25T09:09:22.000Z</time>
      </trkpt>
      <trkpt lat="43.37651" lon="6.13089">
        <ele>355.923782</ele>
        <time>2025-04-25T09:09:24.000Z</time>
      </trkpt>
      <trkpt lat="43.37651" lon="6.13089">
        <ele>355.923782</ele>
        <time>2025-04-25T09:09:24.000Z</time>
      </trkpt>
      <trkpt lat="43.37656" lon="6.13083">
        <ele>355.696795</ele>
        <time>2025-04-25T09:09:26.000Z</time>
      </trkpt>
      <trkpt lat="43.37663" lon="6.13073">
        <ele>355.310598</ele>
        <time>2025-04-25T09:09:27.000Z</time>
      </trkpt>
      <trkpt lat="43.37663" lon="6.13073">
        <ele>355.310598</ele>
        <time>2025-04-25T09:09:27.000Z</time>
      </trkpt>
      <trkpt lat="43.37666" lon="6.13068">
        <ele>355.140153</ele>
        <time>2025-04-25T09:09:28.000Z</time>
      </trkpt>
      <trkpt lat="43.37666" lon="6.13068">
        <ele>355.140153</ele>
        <time>2025-04-25T09:09:28.000Z</time>
      </trkpt>
      <trkpt lat="43.37669" lon="6.13063">
        <ele>354.958691</ele>
        <time>2025-04-25T09:09:29.000Z</time>
      </trkpt>
      <trkpt lat="43.37669" lon="6.13063">
        <ele>354.958691</ele>
        <time>2025-04-25T09:09:29.000Z</time>
      </trkpt>
      <trkpt lat="43.37673" lon="6.13059">
        <ele>354.794469</ele>
        <time>2025-04-25T09:09:30.000Z</time>
      </trkpt>
      <trkpt lat="43.37676" lon="6.13056">
        <ele>354.636989</ele>
        <time>2025-04-25T09:09:31.000Z</time>
      </trkpt>
      <trkpt lat="43.37676" lon="6.13056">
        <ele>354.636989</ele>
        <time>2025-04-25T09:09:31.000Z</time>
      </trkpt>
      <trkpt lat="43.37679" lon="6.13052">
        <ele>354.472767</ele>
        <time>2025-04-25T09:09:32.000Z</time>
      </trkpt>
      <trkpt lat="43.37679" lon="6.13052">
        <ele>354.472767</ele>
        <time>2025-04-25T09:09:32.000Z</time>
      </trkpt>
      <trkpt lat="43.37682" lon="6.13047">
        <ele>354.317928</ele>
        <time>2025-04-25T09:09:33.000Z</time>
      </trkpt>
      <trkpt lat="43.37682" lon="6.13047">
        <ele>354.317928</ele>
        <time>2025-04-25T09:09:33.000Z</time>
      </trkpt>
      <trkpt lat="43.37685" lon="6.13043">
        <ele>354.159144</ele>
        <time>2025-04-25T09:09:34.000Z</time>
      </trkpt>
      <trkpt lat="43.37685" lon="6.13043">
        <ele>354.159144</ele>
        <time>2025-04-25T09:09:34.000Z</time>
      </trkpt>
      <trkpt lat="43.37687" lon="6.13039">
        <ele>354.004306</ele>
        <time>2025-04-25T09:09:35.000Z</time>
      </trkpt>
      <trkpt lat="43.37687" lon="6.13039">
        <ele>354.004306</ele>
        <time>2025-04-25T09:09:35.000Z</time>
      </trkpt>
      <trkpt lat="43.3769" lon="6.13032">
        <ele>353.790994</ele>
        <time>2025-04-25T09:09:37.000Z</time>
      </trkpt>
      <trkpt lat="43.3769" lon="6.13032">
        <ele>353.790994</ele>
        <time>2025-04-25T09:09:37.000Z</time>
      </trkpt>
      <trkpt lat="43.37692" lon="6.13026">
        <ele>353.626003</ele>
        <time>2025-04-25T09:09:39.000Z</time>
      </trkpt>
      <trkpt lat="43.37692" lon="6.13026">
        <ele>353.626003</ele>
        <time>2025-04-25T09:09:39.000Z</time>
      </trkpt>
      <trkpt lat="43.37692" lon="6.13026">
        <ele>353.626003</ele>
        <time>2025-04-25T09:09:40.000Z</time>
      </trkpt>
      <trkpt lat="43.37692" lon="6.13026">
        <ele>353.626003</ele>
        <time>2025-04-25T09:09:41.000Z</time>
      </trkpt>
      <trkpt lat="43.37692" lon="6.13024">
        <ele>353.561638</ele>
        <time>2025-04-25T09:09:45.000Z</time>
      </trkpt>
      <trkpt lat="43.37692" lon="6.13024">
        <ele>353.561638</ele>
        <time>2025-04-25T09:09:45.000Z</time>
      </trkpt>
      <trkpt lat="43.37693" lon="6.13021">
        <ele>353.466969</ele>
        <time>2025-04-25T09:09:46.000Z</time>
      </trkpt>
      <trkpt lat="43.37693" lon="6.13021">
        <ele>353.466969</ele>
        <time>2025-04-25T09:09:46.000Z</time>
      </trkpt>
      <trkpt lat="43.37694" lon="6.13019">
        <ele>353.402604</ele>
        <time>2025-04-25T09:09:47.000Z</time>
      </trkpt>
      <trkpt lat="43.37694" lon="6.13019">
        <ele>353.402604</ele>
        <time>2025-04-25T09:09:47.000Z</time>
      </trkpt>
      <trkpt lat="43.37696" lon="6.13013">
        <ele>353.244201</ele>
        <time>2025-04-25T09:09:49.000Z</time>
      </trkpt>
      <trkpt lat="43.37696" lon="6.13013">
        <ele>353.244201</ele>
        <time>2025-04-25T09:09:49.000Z</time>
      </trkpt>
      <trkpt lat="43.37696" lon="6.13012">
        <ele>353.206097</ele>
        <time>2025-04-25T09:09:50.000Z</time>
      </trkpt>
      <trkpt lat="43.37696" lon="6.13012">
        <ele>353.206097</ele>
        <time>2025-04-25T09:09:50.000Z</time>
      </trkpt>
      <trkpt lat="43.37695" lon="6.1301">
        <ele>353.148675</ele>
        <time>2025-04-25T09:09:51.000Z</time>
      </trkpt>
      <trkpt lat="43.37695" lon="6.1301">
        <ele>353.148675</ele>
        <time>2025-04-25T09:09:51.000Z</time>
      </trkpt>
      <trkpt lat="43.37694" lon="6.13006">
        <ele>353.037351</ele>
        <time>2025-04-25T09:09:52.000Z</time>
      </trkpt>
      <trkpt lat="43.37694" lon="6.13006">
        <ele>353.037351</ele>
        <time>2025-04-25T09:09:52.000Z</time>
      </trkpt>
      <trkpt lat="43.37692" lon="6.13002">
        <ele>352.890979</ele>
        <time>2025-04-25T09:09:53.000Z</time>
      </trkpt>
      <trkpt lat="43.37689" lon="6.12997">
        <ele>352.736325</ele>
        <time>2025-04-25T09:09:54.000Z</time>
      </trkpt>
      <trkpt lat="43.37689" lon="6.12997">
        <ele>352.736325</ele>
        <time>2025-04-25T09:09:54.000Z</time>
      </trkpt>
      <trkpt lat="43.37687" lon="6.12993">
        <ele>352.595367</ele>
        <time>2025-04-25T09:09:54.000Z</time>
      </trkpt>
      <trkpt lat="43.37687" lon="6.12993">
        <ele>352.595367</ele>
        <time>2025-04-25T09:09:54.000Z</time>
      </trkpt>
      <trkpt lat="43.37684" lon="6.1299">
        <ele>352.462909</ele>
        <time>2025-04-25T09:09:56.000Z</time>
      </trkpt>
      <trkpt lat="43.37684" lon="6.1299">
        <ele>352.462909</ele>
        <time>2025-04-25T09:09:56.000Z</time>
      </trkpt>
      <trkpt lat="43.37682" lon="6.12987">
        <ele>352.361726</ele>
        <time>2025-04-25T09:09:57.000Z</time>
      </trkpt>
      <trkpt lat="43.37682" lon="6.12987">
        <ele>352.361726</ele>
        <time>2025-04-25T09:09:57.000Z</time>
      </trkpt>
      <trkpt lat="43.37681" lon="6.12985">
        <ele>352.286792</ele>
        <time>2025-04-25T09:09:58.000Z</time>
      </trkpt>
      <trkpt lat="43.37681" lon="6.12985">
        <ele>352.286792</ele>
        <time>2025-04-25T09:09:58.000Z</time>
      </trkpt>
      <trkpt lat="43.3768" lon="6.12982">
        <ele>352.20255</ele>
        <time>2025-04-25T09:09:59.000Z</time>
      </trkpt>
      <trkpt lat="43.3768" lon="6.12982">
        <ele>352.20255</ele>
        <time>2025-04-25T09:09:59.000Z</time>
      </trkpt>
      <trkpt lat="43.3768" lon="6.1298">
        <ele>352.124885</ele>
        <time>2025-04-25T09:10:00.000Z</time>
      </trkpt>
      <trkpt lat="43.37679" lon="6.12975">
        <ele>352.009597</ele>
        <time>2025-04-25T09:10:01.000Z</time>
      </trkpt>
      <trkpt lat="43.37679" lon="6.12975">
        <ele>352.009597</ele>
        <time>2025-04-25T09:10:01.000Z</time>
      </trkpt>
      <trkpt lat="43.37679" lon="6.12972">
        <ele>351.907788</ele>
        <time>2025-04-25T09:10:02.000Z</time>
      </trkpt>
      <trkpt lat="43.37679" lon="6.12972">
        <ele>351.907788</ele>
        <time>2025-04-25T09:10:02.000Z</time>
      </trkpt>
      <trkpt lat="43.37679" lon="6.12967">
        <ele>351.785312</ele>
        <time>2025-04-25T09:10:03.000Z</time>
      </trkpt>
      <trkpt lat="43.37679" lon="6.12963">
        <ele>351.675419</ele>
        <time>2025-04-25T09:10:04.000Z</time>
      </trkpt>
      <trkpt lat="43.37679" lon="6.12963">
        <ele>351.675419</ele>
        <time>2025-04-25T09:10:04.000Z</time>
      </trkpt>
      <trkpt lat="43.3768" lon="6.12959">
        <ele>351.557249</ele>
        <time>2025-04-25T09:10:05.000Z</time>
      </trkpt>
      <trkpt lat="43.3768" lon="6.12959">
        <ele>351.557249</ele>
        <time>2025-04-25T09:10:05.000Z</time>
      </trkpt>
      <trkpt lat="43.37681" lon="6.12955">
        <ele>351.435744</ele>
        <time>2025-04-25T09:10:06.000Z</time>
      </trkpt>
      <trkpt lat="43.37681" lon="6.12955">
        <ele>351.435744</ele>
        <time>2025-04-25T09:10:06.000Z</time>
      </trkpt>
      <trkpt lat="43.37683" lon="6.12949">
        <ele>351.267543</ele>
        <time>2025-04-25T09:10:07.000Z</time>
      </trkpt>
      <trkpt lat="43.37685" lon="6.12943">
        <ele>351.082924</ele>
        <time>2025-04-25T09:10:08.000Z</time>
      </trkpt>
      <trkpt lat="43.37685" lon="6.12943">
        <ele>351.082924</ele>
        <time>2025-04-25T09:10:08.000Z</time>
      </trkpt>
      <trkpt lat="43.37688" lon="6.12936">
        <ele>350.876322</ele>
        <time>2025-04-25T09:10:09.000Z</time>
      </trkpt>
      <trkpt lat="43.37689" lon="6.1293">
        <ele>350.701056</ele>
        <time>2025-04-25T09:10:10.000Z</time>
      </trkpt>
      <trkpt lat="43.37689" lon="6.1293">
        <ele>350.701056</ele>
        <time>2025-04-25T09:10:10.000Z</time>
      </trkpt>
      <trkpt lat="43.37691" lon="6.12924">
        <ele>350.525791</ele>
        <time>2025-04-25T09:10:11.000Z</time>
      </trkpt>
      <trkpt lat="43.37693" lon="6.12918">
        <ele>350.350157</ele>
        <time>2025-04-25T09:10:12.000Z</time>
      </trkpt>
      <trkpt lat="43.37693" lon="6.12918">
        <ele>350.350157</ele>
        <time>2025-04-25T09:10:12.000Z</time>
      </trkpt>
      <trkpt lat="43.37695" lon="6.12912">
        <ele>350.170504</ele>
        <time>2025-04-25T09:10:13.000Z</time>
      </trkpt>
      <trkpt lat="43.37696" lon="6.12906">
        <ele>350.002089</ele>
        <time>2025-04-25T09:10:14.000Z</time>
      </trkpt>
      <trkpt lat="43.37696" lon="6.12906">
        <ele>350.002089</ele>
        <time>2025-04-25T09:10:14.000Z</time>
      </trkpt>
      <trkpt lat="43.37697" lon="6.129">
        <ele>349.828391</ele>
        <time>2025-04-25T09:10:15.000Z</time>
      </trkpt>
      <trkpt lat="43.37698" lon="6.12894">
        <ele>349.656396</ele>
        <time>2025-04-25T09:10:16.000Z</time>
      </trkpt>
      <trkpt lat="43.37698" lon="6.12894">
        <ele>349.656396</ele>
        <time>2025-04-25T09:10:16.000Z</time>
      </trkpt>
      <trkpt lat="43.37699" lon="6.12888">
        <ele>349.480248</ele>
        <time>2025-04-25T09:10:17.000Z</time>
      </trkpt>
      <trkpt lat="43.377" lon="6.12882">
        <ele>349.324919</ele>
        <time>2025-04-25T09:10:18.000Z</time>
      </trkpt>
      <trkpt lat="43.377" lon="6.12882">
        <ele>349.324919</ele>
        <time>2025-04-25T09:10:18.000Z</time>
      </trkpt>
      <trkpt lat="43.37701" lon="6.12876">
        <ele>349.160791</ele>
        <time>2025-04-25T09:10:19.000Z</time>
      </trkpt>
      <trkpt lat="43.37701" lon="6.1287">
        <ele>349.00525</ele>
        <time>2025-04-25T09:10:20.000Z</time>
      </trkpt>
      <trkpt lat="43.37701" lon="6.1287">
        <ele>349.00525</ele>
        <time>2025-04-25T09:10:20.000Z</time>
      </trkpt>
      <trkpt lat="43.37702" lon="6.12865">
        <ele>348.844576</ele>
        <time>2025-04-25T09:10:21.000Z</time>
      </trkpt>
      <trkpt lat="43.37703" lon="6.1286">
        <ele>348.702575</ele>
        <time>2025-04-25T09:10:22.000Z</time>
      </trkpt>
      <trkpt lat="43.37703" lon="6.1286">
        <ele>348.702575</ele>
        <time>2025-04-25T09:10:22.000Z</time>
      </trkpt>
      <trkpt lat="43.37703" lon="6.12855">
        <ele>348.577379</ele>
        <time>2025-04-25T09:10:23.000Z</time>
      </trkpt>
      <trkpt lat="43.37703" lon="6.1285">
        <ele>348.448968</ele>
        <time>2025-04-25T09:10:24.000Z</time>
      </trkpt>
      <trkpt lat="43.37703" lon="6.1285">
        <ele>348.448968</ele>
        <time>2025-04-25T09:10:24.000Z</time>
      </trkpt>
      <trkpt lat="43.37704" lon="6.12845">
        <ele>348.301642</ele>
        <time>2025-04-25T09:10:25.000Z</time>
      </trkpt>
      <trkpt lat="43.37704" lon="6.1284">
        <ele>348.153911</ele>
        <time>2025-04-25T09:10:26.000Z</time>
      </trkpt>
      <trkpt lat="43.37704" lon="6.1284">
        <ele>348.153911</ele>
        <time>2025-04-25T09:10:26.000Z</time>
      </trkpt>
      <trkpt lat="43.37705" lon="6.12835">
        <ele>348.017005</ele>
        <time>2025-04-25T09:10:27.000Z</time>
      </trkpt>
      <trkpt lat="43.37705" lon="6.12828">
        <ele>347.847889</ele>
        <time>2025-04-25T09:10:28.000Z</time>
      </trkpt>
      <trkpt lat="43.37705" lon="6.12828">
        <ele>347.847889</ele>
        <time>2025-04-25T09:10:28.000Z</time>
      </trkpt>
      <trkpt lat="43.37705" lon="6.12821">
        <ele>347.65465</ele>
        <time>2025-04-25T09:10:29.000Z</time>
      </trkpt>
      <trkpt lat="43.37705" lon="6.12821">
        <ele>347.65465</ele>
        <time>2025-04-25T09:10:29.000Z</time>
      </trkpt>
      <trkpt lat="43.37705" lon="6.12814">
        <ele>347.463546</ele>
        <time>2025-04-25T09:10:30.000Z</time>
      </trkpt>
      <trkpt lat="43.37705" lon="6.12808">
        <ele>347.291428</ele>
        <time>2025-04-25T09:10:31.000Z</time>
      </trkpt>
      <trkpt lat="43.37705" lon="6.12808">
        <ele>347.291428</ele>
        <time>2025-04-25T09:10:31.000Z</time>
      </trkpt>
      <trkpt lat="43.37704" lon="6.12802">
        <ele>347.147039</ele>
        <time>2025-04-25T09:10:32.000Z</time>
      </trkpt>
      <trkpt lat="43.37703" lon="6.12795">
        <ele>347.013659</ele>
        <time>2025-04-25T09:10:33.000Z</time>
      </trkpt>
      <trkpt lat="43.37703" lon="6.12795">
        <ele>347.013659</ele>
        <time>2025-04-25T09:10:33.000Z</time>
      </trkpt>
      <trkpt lat="43.37703" lon="6.12789">
        <ele>346.874554</ele>
        <time>2025-04-25T09:10:34.000Z</time>
      </trkpt>
      <trkpt lat="43.37703" lon="6.12789">
        <ele>346.874554</ele>
        <time>2025-04-25T09:10:34.000Z</time>
      </trkpt>
      <trkpt lat="43.37702" lon="6.12782">
        <ele>346.732948</ele>
        <time>2025-04-25T09:10:35.000Z</time>
      </trkpt>
      <trkpt lat="43.37701" lon="6.12775">
        <ele>346.578981</ele>
        <time>2025-04-25T09:10:36.000Z</time>
      </trkpt>
      <trkpt lat="43.37701" lon="6.12775">
        <ele>346.578981</ele>
        <time>2025-04-25T09:10:36.000Z</time>
      </trkpt>
      <trkpt lat="43.37701" lon="6.12767">
        <ele>346.411913</ele>
        <time>2025-04-25T09:10:37.000Z</time>
      </trkpt>
      <trkpt lat="43.37701" lon="6.12767">
        <ele>346.411913</ele>
        <time>2025-04-25T09:10:37.000Z</time>
      </trkpt>
      <trkpt lat="43.377" lon="6.12759">
        <ele>346.252995</ele>
        <time>2025-04-25T09:10:38.000Z</time>
      </trkpt>
      <trkpt lat="43.377" lon="6.12759">
        <ele>346.252995</ele>
        <time>2025-04-25T09:10:38.000Z</time>
      </trkpt>
      <trkpt lat="43.377" lon="6.12749">
        <ele>346.045252</ele>
        <time>2025-04-25T09:10:39.000Z</time>
      </trkpt>
      <trkpt lat="43.377" lon="6.12741">
        <ele>345.870065</ele>
        <time>2025-04-25T09:10:40.000Z</time>
      </trkpt>
      <trkpt lat="43.377" lon="6.12741">
        <ele>345.870065</ele>
        <time>2025-04-25T09:10:40.000Z</time>
      </trkpt>
      <trkpt lat="43.377" lon="6.12733">
        <ele>345.709476</ele>
        <time>2025-04-25T09:10:41.000Z</time>
      </trkpt>
      <trkpt lat="43.377" lon="6.12733">
        <ele>345.709476</ele>
        <time>2025-04-25T09:10:41.000Z</time>
      </trkpt>
      <trkpt lat="43.377" lon="6.12725">
        <ele>345.548887</ele>
        <time>2025-04-25T09:10:42.000Z</time>
      </trkpt>
      <trkpt lat="43.377" lon="6.12725">
        <ele>345.548887</ele>
        <time>2025-04-25T09:10:42.000Z</time>
      </trkpt>
      <trkpt lat="43.377" lon="6.12718">
        <ele>345.387889</ele>
        <time>2025-04-25T09:10:43.000Z</time>
      </trkpt>
      <trkpt lat="43.377" lon="6.12718">
        <ele>345.387889</ele>
        <time>2025-04-25T09:10:43.000Z</time>
      </trkpt>
      <trkpt lat="43.377" lon="6.1271">
        <ele>345.22273</ele>
        <time>2025-04-25T09:10:44.000Z</time>
      </trkpt>
      <trkpt lat="43.37701" lon="6.12702">
        <ele>345.05341</ele>
        <time>2025-04-25T09:10:45.000Z</time>
      </trkpt>
      <trkpt lat="43.37701" lon="6.12702">
        <ele>345.05341</ele>
        <time>2025-04-25T09:10:45.000Z</time>
      </trkpt>
      <trkpt lat="43.37702" lon="6.12695">
        <ele>344.906085</ele>
        <time>2025-04-25T09:10:46.000Z</time>
      </trkpt>
      <trkpt lat="43.37702" lon="6.12695">
        <ele>344.906085</ele>
        <time>2025-04-25T09:10:46.000Z</time>
      </trkpt>
      <trkpt lat="43.37703" lon="6.12689">
        <ele>344.774758</ele>
        <time>2025-04-25T09:10:47.000Z</time>
      </trkpt>
      <trkpt lat="43.37703" lon="6.12689">
        <ele>344.774758</ele>
        <time>2025-04-25T09:10:47.000Z</time>
      </trkpt>
      <trkpt lat="43.37703" lon="6.12682">
        <ele>344.629459</ele>
        <time>2025-04-25T09:10:48.000Z</time>
      </trkpt>
      <trkpt lat="43.37703" lon="6.12682">
        <ele>344.629459</ele>
        <time>2025-04-25T09:10:48.000Z</time>
      </trkpt>
      <trkpt lat="43.37704" lon="6.12676">
        <ele>344.51833</ele>
        <time>2025-04-25T09:10:49.000Z</time>
      </trkpt>
      <trkpt lat="43.37704" lon="6.12676">
        <ele>344.51833</ele>
        <time>2025-04-25T09:10:49.000Z</time>
      </trkpt>
      <trkpt lat="43.37704" lon="6.12671">
        <ele>344.400976</ele>
        <time>2025-04-25T09:10:50.000Z</time>
      </trkpt>
      <trkpt lat="43.37705" lon="6.12664">
        <ele>344.248297</ele>
        <time>2025-04-25T09:10:51.000Z</time>
      </trkpt>
      <trkpt lat="43.37705" lon="6.12664">
        <ele>344.248297</ele>
        <time>2025-04-25T09:10:51.000Z</time>
      </trkpt>
      <trkpt lat="43.37705" lon="6.12657">
        <ele>344.107128</ele>
        <time>2025-04-25T09:10:52.000Z</time>
      </trkpt>
      <trkpt lat="43.37705" lon="6.12657">
        <ele>344.107128</ele>
        <time>2025-04-25T09:10:52.000Z</time>
      </trkpt>
      <trkpt lat="43.37706" lon="6.1265">
        <ele>343.963464</ele>
        <time>2025-04-25T09:10:53.000Z</time>
      </trkpt>
      <trkpt lat="43.37706" lon="6.1265">
        <ele>343.963464</ele>
        <time>2025-04-25T09:10:53.000Z</time>
      </trkpt>
      <trkpt lat="43.37706" lon="6.12647">
        <ele>343.898812</ele>
        <time>2025-04-25T09:10:54.000Z</time>
      </trkpt>
      <trkpt lat="43.37707" lon="6.12636">
        <ele>343.67137</ele>
        <time>2025-04-25T09:10:55.000Z</time>
      </trkpt>
      <trkpt lat="43.37707" lon="6.12636">
        <ele>343.67137</ele>
        <time>2025-04-25T09:10:55.000Z</time>
      </trkpt>
      <trkpt lat="43.37708" lon="6.12629">
        <ele>343.527009</ele>
        <time>2025-04-25T09:10:56.000Z</time>
      </trkpt>
      <trkpt lat="43.37708" lon="6.12629">
        <ele>343.527009</ele>
        <time>2025-04-25T09:10:56.000Z</time>
      </trkpt>
      <trkpt lat="43.37708" lon="6.12626">
        <ele>343.454015</ele>
        <time>2025-04-25T09:10:57.000Z</time>
      </trkpt>
      <trkpt lat="43.37708" lon="6.12626">
        <ele>343.454015</ele>
        <time>2025-04-25T09:10:57.000Z</time>
      </trkpt>
      <trkpt lat="43.37707" lon="6.12615">
        <ele>343.228481</ele>
        <time>2025-04-25T09:10:58.000Z</time>
      </trkpt>
      <trkpt lat="43.37707" lon="6.1261">
        <ele>343.134631</ele>
        <time>2025-04-25T09:10:59.000Z</time>
      </trkpt>
      <trkpt lat="43.37707" lon="6.1261">
        <ele>343.134631</ele>
        <time>2025-04-25T09:10:59.000Z</time>
      </trkpt>
      <trkpt lat="43.37707" lon="6.12602">
        <ele>342.957149</ele>
        <time>2025-04-25T09:11:00.000Z</time>
      </trkpt>
      <trkpt lat="43.37707" lon="6.12602">
        <ele>342.957149</ele>
        <time>2025-04-25T09:11:00.000Z</time>
      </trkpt>
      <trkpt lat="43.37707" lon="6.12597">
        <ele>342.854957</ele>
        <time>2025-04-25T09:11:01.000Z</time>
      </trkpt>
      <trkpt lat="43.37707" lon="6.1259">
        <ele>342.713138</ele>
        <time>2025-04-25T09:11:02.000Z</time>
      </trkpt>
      <trkpt lat="43.37707" lon="6.1259">
        <ele>342.713138</ele>
        <time>2025-04-25T09:11:02.000Z</time>
      </trkpt>
      <trkpt lat="43.37707" lon="6.12586">
        <ele>342.623047</ele>
        <time>2025-04-25T09:11:03.000Z</time>
      </trkpt>
      <trkpt lat="43.37707" lon="6.12586">
        <ele>342.623047</ele>
        <time>2025-04-25T09:11:03.000Z</time>
      </trkpt>
      <trkpt lat="43.37708" lon="6.12577">
        <ele>342.429807</ele>
        <time>2025-04-25T09:11:04.000Z</time>
      </trkpt>
      <trkpt lat="43.37708" lon="6.12577">
        <ele>342.429807</ele>
        <time>2025-04-25T09:11:04.000Z</time>
      </trkpt>
      <trkpt lat="43.37708" lon="6.12571">
        <ele>342.306224</ele>
        <time>2025-04-25T09:11:05.000Z</time>
      </trkpt>
      <trkpt lat="43.37709" lon="6.12565">
        <ele>342.183605</ele>
        <time>2025-04-25T09:11:06.000Z</time>
      </trkpt>
      <trkpt lat="43.37709" lon="6.12565">
        <ele>342.183605</ele>
        <time>2025-04-25T09:11:06.000Z</time>
      </trkpt>
      <trkpt lat="43.3771" lon="6.12558">
        <ele>342.036092</ele>
        <time>2025-04-25T09:11:07.000Z</time>
      </trkpt>
      <trkpt lat="43.3771" lon="6.12558">
        <ele>342.036092</ele>
        <time>2025-04-25T09:11:07.000Z</time>
      </trkpt>
      <trkpt lat="43.37711" lon="6.12551">
        <ele>341.868424</ele>
        <time>2025-04-25T09:11:08.000Z</time>
      </trkpt>
      <trkpt lat="43.37711" lon="6.12551">
        <ele>341.868424</ele>
        <time>2025-04-25T09:11:08.000Z</time>
      </trkpt>
      <trkpt lat="43.37713" lon="6.12543">
        <ele>341.677136</ele>
        <time>2025-04-25T09:11:09.000Z</time>
      </trkpt>
      <trkpt lat="43.37714" lon="6.12535">
        <ele>341.502772</ele>
        <time>2025-04-25T09:11:10.000Z</time>
      </trkpt>
      <trkpt lat="43.37714" lon="6.12535">
        <ele>341.502772</ele>
        <time>2025-04-25T09:11:10.000Z</time>
      </trkpt>
      <trkpt lat="43.37714" lon="6.12532">
        <ele>341.427805</ele>
        <time>2025-04-25T09:11:11.000Z</time>
      </trkpt>
      <trkpt lat="43.37714" lon="6.12532">
        <ele>341.427805</ele>
        <time>2025-04-25T09:11:11.000Z</time>
      </trkpt>
      <trkpt lat="43.37716" lon="6.12519">
        <ele>341.123381</ele>
        <time>2025-04-25T09:11:12.000Z</time>
      </trkpt>
      <trkpt lat="43.37718" lon="6.12511">
        <ele>340.926259</ele>
        <time>2025-04-25T09:11:13.000Z</time>
      </trkpt>
      <trkpt lat="43.37718" lon="6.12511">
        <ele>340.926259</ele>
        <time>2025-04-25T09:11:13.000Z</time>
      </trkpt>
      <trkpt lat="43.37719" lon="6.12503">
        <ele>340.742228</ele>
        <time>2025-04-25T09:11:14.000Z</time>
      </trkpt>
      <trkpt lat="43.37719" lon="6.12503">
        <ele>340.742228</ele>
        <time>2025-04-25T09:11:14.000Z</time>
      </trkpt>
      <trkpt lat="43.3772" lon="6.12495">
        <ele>340.55892</ele>
        <time>2025-04-25T09:11:15.000Z</time>
      </trkpt>
      <trkpt lat="43.37721" lon="6.12487">
        <ele>340.368298</ele>
        <time>2025-04-25T09:11:16.000Z</time>
      </trkpt>
      <trkpt lat="43.37721" lon="6.12487">
        <ele>340.368298</ele>
        <time>2025-04-25T09:11:16.000Z</time>
      </trkpt>
      <trkpt lat="43.37722" lon="6.12479">
        <ele>340.193934</ele>
        <time>2025-04-25T09:11:17.000Z</time>
      </trkpt>
      <trkpt lat="43.37722" lon="6.12479">
        <ele>340.193934</ele>
        <time>2025-04-25T09:11:17.000Z</time>
      </trkpt>
      <trkpt lat="43.37723" lon="6.12472">
        <ele>340.014469</ele>
        <time>2025-04-25T09:11:18.000Z</time>
      </trkpt>
      <trkpt lat="43.37723" lon="6.12472">
        <ele>340.014469</ele>
        <time>2025-04-25T09:11:18.000Z</time>
      </trkpt>
      <trkpt lat="43.37725" lon="6.12465">
        <ele>339.846318</ele>
        <time>2025-04-25T09:11:19.000Z</time>
      </trkpt>
      <trkpt lat="43.37727" lon="6.12457">
        <ele>339.658846</ele>
        <time>2025-04-25T09:11:20.000Z</time>
      </trkpt>
      <trkpt lat="43.37727" lon="6.12457">
        <ele>339.658846</ele>
        <time>2025-04-25T09:11:20.000Z</time>
      </trkpt>
      <trkpt lat="43.37728" lon="6.12449">
        <ele>339.486716</ele>
        <time>2025-04-25T09:11:21.000Z</time>
      </trkpt>
      <trkpt lat="43.37728" lon="6.12449">
        <ele>339.486716</ele>
        <time>2025-04-25T09:11:21.000Z</time>
      </trkpt>
      <trkpt lat="43.37729" lon="6.12442">
        <ele>339.310791</ele>
        <time>2025-04-25T09:11:22.000Z</time>
      </trkpt>
      <trkpt lat="43.37729" lon="6.12442">
        <ele>339.310791</ele>
        <time>2025-04-25T09:11:22.000Z</time>
      </trkpt>
      <trkpt lat="43.37729" lon="6.12433">
        <ele>339.109855</ele>
        <time>2025-04-25T09:11:23.000Z</time>
      </trkpt>
      <trkpt lat="43.37729" lon="6.12433">
        <ele>339.109855</ele>
        <time>2025-04-25T09:11:23.000Z</time>
      </trkpt>
      <trkpt lat="43.37729" lon="6.12424">
        <ele>338.906644</ele>
        <time>2025-04-25T09:11:24.000Z</time>
      </trkpt>
      <trkpt lat="43.37729" lon="6.12424">
        <ele>338.906644</ele>
        <time>2025-04-25T09:11:24.000Z</time>
      </trkpt>
      <trkpt lat="43.3773" lon="6.12414">
        <ele>338.685389</ele>
        <time>2025-04-25T09:11:25.000Z</time>
      </trkpt>
      <trkpt lat="43.3773" lon="6.12406">
        <ele>338.485543</ele>
        <time>2025-04-25T09:11:26.000Z</time>
      </trkpt>
      <trkpt lat="43.3773" lon="6.12406">
        <ele>338.485543</ele>
        <time>2025-04-25T09:11:26.000Z</time>
      </trkpt>
      <trkpt lat="43.37732" lon="6.12397">
        <ele>338.274777</ele>
        <time>2025-04-25T09:11:27.000Z</time>
      </trkpt>
      <trkpt lat="43.37732" lon="6.12397">
        <ele>338.274777</ele>
        <time>2025-04-25T09:11:27.000Z</time>
      </trkpt>
      <trkpt lat="43.37732" lon="6.12388">
        <ele>338.068503</ele>
        <time>2025-04-25T09:11:28.000Z</time>
      </trkpt>
      <trkpt lat="43.37732" lon="6.12388">
        <ele>338.068503</ele>
        <time>2025-04-25T09:11:28.000Z</time>
      </trkpt>
      <trkpt lat="43.37734" lon="6.1238">
        <ele>337.889039</ele>
        <time>2025-04-25T09:11:29.000Z</time>
      </trkpt>
      <trkpt lat="43.37734" lon="6.1238">
        <ele>337.889039</ele>
        <time>2025-04-25T09:11:29.000Z</time>
      </trkpt>
      <trkpt lat="43.37734" lon="6.1238">
        <ele>337.884481</ele>
        <time>2025-04-25T09:11:30.000Z</time>
      </trkpt>
      <trkpt lat="43.37738" lon="6.12363">
        <ele>337.492515</ele>
        <time>2025-04-25T09:11:31.000Z</time>
      </trkpt>
      <trkpt lat="43.37738" lon="6.12363">
        <ele>337.492515</ele>
        <time>2025-04-25T09:11:31.000Z</time>
      </trkpt>
      <trkpt lat="43.3774" lon="6.12356">
        <ele>337.302881</ele>
        <time>2025-04-25T09:11:32.000Z</time>
      </trkpt>
      <trkpt lat="43.3774" lon="6.12356">
        <ele>337.302881</ele>
        <time>2025-04-25T09:11:32.000Z</time>
      </trkpt>
      <trkpt lat="43.3774" lon="6.12348">
        <ele>337.127153</ele>
        <time>2025-04-25T09:11:34.000Z</time>
      </trkpt>
      <trkpt lat="43.3774" lon="6.12348">
        <ele>337.127153</ele>
        <time>2025-04-25T09:11:34.000Z</time>
      </trkpt>
      <trkpt lat="43.37738" lon="6.12342">
        <ele>336.976074</ele>
        <time>2025-04-25T09:11:35.000Z</time>
      </trkpt>
      <trkpt lat="43.37738" lon="6.12342">
        <ele>336.976074</ele>
        <time>2025-04-25T09:11:35.000Z</time>
      </trkpt>
      <trkpt lat="43.37735" lon="6.12335">
        <ele>336.792844</ele>
        <time>2025-04-25T09:11:36.000Z</time>
      </trkpt>
      <trkpt lat="43.37735" lon="6.12335">
        <ele>336.792844</ele>
        <time>2025-04-25T09:11:36.000Z</time>
      </trkpt>
      <trkpt lat="43.37732" lon="6.12329">
        <ele>336.634234</ele>
        <time>2025-04-25T09:11:36.000Z</time>
      </trkpt>
      <trkpt lat="43.37732" lon="6.12329">
        <ele>336.634234</ele>
        <time>2025-04-25T09:11:36.000Z</time>
      </trkpt>
      <trkpt lat="43.37729" lon="6.12323">
        <ele>336.464426</ele>
        <time>2025-04-25T09:11:38.000Z</time>
      </trkpt>
      <trkpt lat="43.37729" lon="6.12323">
        <ele>336.464426</ele>
        <time>2025-04-25T09:11:38.000Z</time>
      </trkpt>
      <trkpt lat="43.37727" lon="6.12317">
        <ele>336.279798</ele>
        <time>2025-04-25T09:11:38.000Z</time>
      </trkpt>
      <trkpt lat="43.37727" lon="6.12317">
        <ele>336.279798</ele>
        <time>2025-04-25T09:11:38.000Z</time>
      </trkpt>
      <trkpt lat="43.37726" lon="6.12312">
        <ele>336.145997</ele>
        <time>2025-04-25T09:11:40.000Z</time>
      </trkpt>
      <trkpt lat="43.37726" lon="6.12312">
        <ele>336.145997</ele>
        <time>2025-04-25T09:11:40.000Z</time>
      </trkpt>
      <trkpt lat="43.37728" lon="6.12306">
        <ele>335.973821</ele>
        <time>2025-04-25T09:11:41.000Z</time>
      </trkpt>
      <trkpt lat="43.37728" lon="6.12306">
        <ele>335.973821</ele>
        <time>2025-04-25T09:11:41.000Z</time>
      </trkpt>
      <trkpt lat="43.3773" lon="6.12301">
        <ele>335.815889</ele>
        <time>2025-04-25T09:11:41.000Z</time>
      </trkpt>
      <trkpt lat="43.3773" lon="6.12301">
        <ele>335.815889</ele>
        <time>2025-04-25T09:11:41.000Z</time>
      </trkpt>
      <trkpt lat="43.37732" lon="6.12295">
        <ele>335.646576</ele>
        <time>2025-04-25T09:11:42.000Z</time>
      </trkpt>
      <trkpt lat="43.37732" lon="6.12295">
        <ele>335.646576</ele>
        <time>2025-04-25T09:11:42.000Z</time>
      </trkpt>
      <trkpt lat="43.37734" lon="6.12291">
        <ele>335.484133</ele>
        <time>2025-04-25T09:11:43.000Z</time>
      </trkpt>
      <trkpt lat="43.37734" lon="6.12291">
        <ele>335.484133</ele>
        <time>2025-04-25T09:11:43.000Z</time>
      </trkpt>
      <trkpt lat="43.37737" lon="6.12285">
        <ele>335.308507</ele>
        <time>2025-04-25T09:11:45.000Z</time>
      </trkpt>
      <trkpt lat="43.37737" lon="6.12285">
        <ele>335.308507</ele>
        <time>2025-04-25T09:11:45.000Z</time>
      </trkpt>
      <trkpt lat="43.3774" lon="6.1228">
        <ele>335.108416</ele>
        <time>2025-04-25T09:11:46.000Z</time>
      </trkpt>
      <trkpt lat="43.3774" lon="6.1228">
        <ele>335.108416</ele>
        <time>2025-04-25T09:11:46.000Z</time>
      </trkpt>
      <trkpt lat="43.37742" lon="6.12278">
        <ele>335.025861</ele>
        <time>2025-04-25T09:11:47.000Z</time>
      </trkpt>
      <trkpt lat="43.37742" lon="6.12278">
        <ele>335.025861</ele>
        <time>2025-04-25T09:11:47.000Z</time>
      </trkpt>
      <trkpt lat="43.37748" lon="6.12267">
        <ele>334.656087</ele>
        <time>2025-04-25T09:11:48.000Z</time>
      </trkpt>
      <trkpt lat="43.37748" lon="6.12267">
        <ele>334.656087</ele>
        <time>2025-04-25T09:11:48.000Z</time>
      </trkpt>
      <trkpt lat="43.37752" lon="6.12261">
        <ele>334.443664</ele>
        <time>2025-04-25T09:11:49.000Z</time>
      </trkpt>
      <trkpt lat="43.37752" lon="6.12261">
        <ele>334.443664</ele>
        <time>2025-04-25T09:11:49.000Z</time>
      </trkpt>
      <trkpt lat="43.37756" lon="6.12256">
        <ele>334.23775</ele>
        <time>2025-04-25T09:11:49.000Z</time>
      </trkpt>
      <trkpt lat="43.37756" lon="6.12256">
        <ele>334.23775</ele>
        <time>2025-04-25T09:11:49.000Z</time>
      </trkpt>
      <trkpt lat="43.3776" lon="6.1225">
        <ele>334.015586</ele>
        <time>2025-04-25T09:11:51.000Z</time>
      </trkpt>
      <trkpt lat="43.3776" lon="6.1225">
        <ele>334.015586</ele>
        <time>2025-04-25T09:11:51.000Z</time>
      </trkpt>
      <trkpt lat="43.37763" lon="6.12245">
        <ele>333.831152</ele>
        <time>2025-04-25T09:11:52.000Z</time>
      </trkpt>
      <trkpt lat="43.37763" lon="6.12245">
        <ele>333.831152</ele>
        <time>2025-04-25T09:11:52.000Z</time>
      </trkpt>
      <trkpt lat="43.37767" lon="6.12238">
        <ele>333.608999</ele>
        <time>2025-04-25T09:11:53.000Z</time>
      </trkpt>
      <trkpt lat="43.37767" lon="6.12238">
        <ele>333.608999</ele>
        <time>2025-04-25T09:11:53.000Z</time>
      </trkpt>
      <trkpt lat="43.37771" lon="6.12231">
        <ele>333.343403</ele>
        <time>2025-04-25T09:11:54.000Z</time>
      </trkpt>
      <trkpt lat="43.37771" lon="6.12231">
        <ele>333.343403</ele>
        <time>2025-04-25T09:11:54.000Z</time>
      </trkpt>
      <trkpt lat="43.37775" lon="6.12218">
        <ele>332.973231</ele>
        <time>2025-04-25T09:11:56.000Z</time>
      </trkpt>
      <trkpt lat="43.37775" lon="6.12218">
        <ele>332.973231</ele>
        <time>2025-04-25T09:11:56.000Z</time>
      </trkpt>
      <trkpt lat="43.37777" lon="6.12214">
        <ele>332.849338</ele>
        <time>2025-04-25T09:11:57.000Z</time>
      </trkpt>
      <trkpt lat="43.37777" lon="6.12214">
        <ele>332.849338</ele>
        <time>2025-04-25T09:11:57.000Z</time>
      </trkpt>
      <trkpt lat="43.37778" lon="6.12208">
        <ele>332.677163</ele>
        <time>2025-04-25T09:11:58.000Z</time>
      </trkpt>
      <trkpt lat="43.37778" lon="6.12208">
        <ele>332.677163</ele>
        <time>2025-04-25T09:11:58.000Z</time>
      </trkpt>
      <trkpt lat="43.3778" lon="6.12201">
        <ele>332.468708</ele>
        <time>2025-04-25T09:11:59.000Z</time>
      </trkpt>
      <trkpt lat="43.37783" lon="6.12194">
        <ele>332.265</ele>
        <time>2025-04-25T09:12:00.000Z</time>
      </trkpt>
      <trkpt lat="43.37783" lon="6.12194">
        <ele>332.265</ele>
        <time>2025-04-25T09:12:00.000Z</time>
      </trkpt>
      <trkpt lat="43.37786" lon="6.12187">
        <ele>332.040249</ele>
        <time>2025-04-25T09:12:01.000Z</time>
      </trkpt>
      <trkpt lat="43.37786" lon="6.12187">
        <ele>332.040249</ele>
        <time>2025-04-25T09:12:01.000Z</time>
      </trkpt>
      <trkpt lat="43.37788" lon="6.12182">
        <ele>331.890957</ele>
        <time>2025-04-25T09:12:02.000Z</time>
      </trkpt>
      <trkpt lat="43.37788" lon="6.12182">
        <ele>331.890957</ele>
        <time>2025-04-25T09:12:02.000Z</time>
      </trkpt>
      <trkpt lat="43.37791" lon="6.12174">
        <ele>331.63532</ele>
        <time>2025-04-25T09:12:03.000Z</time>
      </trkpt>
      <trkpt lat="43.37791" lon="6.12174">
        <ele>331.63532</ele>
        <time>2025-04-25T09:12:03.000Z</time>
      </trkpt>
      <trkpt lat="43.37793" lon="6.12168">
        <ele>331.439194</ele>
        <time>2025-04-25T09:12:04.000Z</time>
      </trkpt>
      <trkpt lat="43.37793" lon="6.12168">
        <ele>331.439194</ele>
        <time>2025-04-25T09:12:04.000Z</time>
      </trkpt>
      <trkpt lat="43.37795" lon="6.1216">
        <ele>331.231341</ele>
        <time>2025-04-25T09:12:05.000Z</time>
      </trkpt>
      <trkpt lat="43.37795" lon="6.1216">
        <ele>331.231341</ele>
        <time>2025-04-25T09:12:05.000Z</time>
      </trkpt>
      <trkpt lat="43.37798" lon="6.12153">
        <ele>331.005862</ele>
        <time>2025-04-25T09:12:06.000Z</time>
      </trkpt>
      <trkpt lat="43.37798" lon="6.12153">
        <ele>331.005862</ele>
        <time>2025-04-25T09:12:06.000Z</time>
      </trkpt>
      <trkpt lat="43.378" lon="6.12145">
        <ele>330.792899</ele>
        <time>2025-04-25T09:12:07.000Z</time>
      </trkpt>
      <trkpt lat="43.378" lon="6.12145">
        <ele>330.792899</ele>
        <time>2025-04-25T09:12:07.000Z</time>
      </trkpt>
      <trkpt lat="43.37802" lon="6.12137">
        <ele>330.549324</ele>
        <time>2025-04-25T09:12:08.000Z</time>
      </trkpt>
      <trkpt lat="43.37802" lon="6.12137">
        <ele>330.549324</ele>
        <time>2025-04-25T09:12:08.000Z</time>
      </trkpt>
      <trkpt lat="43.37804" lon="6.12129">
        <ele>330.331237</ele>
        <time>2025-04-25T09:12:09.000Z</time>
      </trkpt>
      <trkpt lat="43.37804" lon="6.12129">
        <ele>330.331237</ele>
        <time>2025-04-25T09:12:09.000Z</time>
      </trkpt>
      <trkpt lat="43.37806" lon="6.12122">
        <ele>330.125932</ele>
        <time>2025-04-25T09:12:10.000Z</time>
      </trkpt>
      <trkpt lat="43.37806" lon="6.12122">
        <ele>330.125932</ele>
        <time>2025-04-25T09:12:10.000Z</time>
      </trkpt>
      <trkpt lat="43.37808" lon="6.12115">
        <ele>329.926814</ele>
        <time>2025-04-25T09:12:11.000Z</time>
      </trkpt>
      <trkpt lat="43.37808" lon="6.12115">
        <ele>329.926814</ele>
        <time>2025-04-25T09:12:11.000Z</time>
      </trkpt>
      <trkpt lat="43.37809" lon="6.12108">
        <ele>329.71678</ele>
        <time>2025-04-25T09:12:12.000Z</time>
      </trkpt>
      <trkpt lat="43.37809" lon="6.12108">
        <ele>329.71678</ele>
        <time>2025-04-25T09:12:12.000Z</time>
      </trkpt>
      <trkpt lat="43.37811" lon="6.12101">
        <ele>329.513687</ele>
        <time>2025-04-25T09:12:12.000Z</time>
      </trkpt>
      <trkpt lat="43.37811" lon="6.12101">
        <ele>329.513687</ele>
        <time>2025-04-25T09:12:12.000Z</time>
      </trkpt>
      <trkpt lat="43.37813" lon="6.12094">
        <ele>329.320425</ele>
        <time>2025-04-25T09:12:14.000Z</time>
      </trkpt>
      <trkpt lat="43.37813" lon="6.12094">
        <ele>329.320425</ele>
        <time>2025-04-25T09:12:14.000Z</time>
      </trkpt>
      <trkpt lat="43.37815" lon="6.12086">
        <ele>329.109917</ele>
        <time>2025-04-25T09:12:15.000Z</time>
      </trkpt>
      <trkpt lat="43.37815" lon="6.12086">
        <ele>329.109917</ele>
        <time>2025-04-25T09:12:15.000Z</time>
      </trkpt>
      <trkpt lat="43.37817" lon="6.12079">
        <ele>328.906824</ele>
        <time>2025-04-25T09:12:16.000Z</time>
      </trkpt>
      <trkpt lat="43.37817" lon="6.12079">
        <ele>328.906824</ele>
        <time>2025-04-25T09:12:16.000Z</time>
      </trkpt>
      <trkpt lat="43.37819" lon="6.12072">
        <ele>328.708126</ele>
        <time>2025-04-25T09:12:17.000Z</time>
      </trkpt>
      <trkpt lat="43.37819" lon="6.12072">
        <ele>328.708126</ele>
        <time>2025-04-25T09:12:17.000Z</time>
      </trkpt>
      <trkpt lat="43.3782" lon="6.12066">
        <ele>328.545637</ele>
        <time>2025-04-25T09:12:18.000Z</time>
      </trkpt>
      <trkpt lat="43.37822" lon="6.12059">
        <ele>328.352376</ele>
        <time>2025-04-25T09:12:19.000Z</time>
      </trkpt>
      <trkpt lat="43.37822" lon="6.12059">
        <ele>328.352376</ele>
        <time>2025-04-25T09:12:19.000Z</time>
      </trkpt>
      <trkpt lat="43.37824" lon="6.12052">
        <ele>328.173751</ele>
        <time>2025-04-25T09:12:19.000Z</time>
      </trkpt>
      <trkpt lat="43.37824" lon="6.12052">
        <ele>328.173751</ele>
        <time>2025-04-25T09:12:19.000Z</time>
      </trkpt>
      <trkpt lat="43.37825" lon="6.12046">
        <ele>327.998947</ele>
        <time>2025-04-25T09:12:21.000Z</time>
      </trkpt>
      <trkpt lat="43.37825" lon="6.12046">
        <ele>327.998947</ele>
        <time>2025-04-25T09:12:21.000Z</time>
      </trkpt>
      <trkpt lat="43.37826" lon="6.12039">
        <ele>327.809246</ele>
        <time>2025-04-25T09:12:22.000Z</time>
      </trkpt>
      <trkpt lat="43.37826" lon="6.12039">
        <ele>327.809246</ele>
        <time>2025-04-25T09:12:22.000Z</time>
      </trkpt>
      <trkpt lat="43.37827" lon="6.12032">
        <ele>327.626781</ele>
        <time>2025-04-25T09:12:22.000Z</time>
      </trkpt>
      <trkpt lat="43.37827" lon="6.12032">
        <ele>327.626781</ele>
        <time>2025-04-25T09:12:22.000Z</time>
      </trkpt>
      <trkpt lat="43.37829" lon="6.12024">
        <ele>327.411313</ele>
        <time>2025-04-25T09:12:24.000Z</time>
      </trkpt>
      <trkpt lat="43.37829" lon="6.12024">
        <ele>327.411313</ele>
        <time>2025-04-25T09:12:24.000Z</time>
      </trkpt>
      <trkpt lat="43.37832" lon="6.12016">
        <ele>327.178654</ele>
        <time>2025-04-25T09:12:25.000Z</time>
      </trkpt>
      <trkpt lat="43.37832" lon="6.12016">
        <ele>327.178654</ele>
        <time>2025-04-25T09:12:25.000Z</time>
      </trkpt>
      <trkpt lat="43.37834" lon="6.12008">
        <ele>326.938636</ele>
        <time>2025-04-25T09:12:25.000Z</time>
      </trkpt>
      <trkpt lat="43.37834" lon="6.12008">
        <ele>326.938636</ele>
        <time>2025-04-25T09:12:25.000Z</time>
      </trkpt>
      <trkpt lat="43.37836" lon="6.11998">
        <ele>326.681333</ele>
        <time>2025-04-25T09:12:27.000Z</time>
      </trkpt>
      <trkpt lat="43.37836" lon="6.11998">
        <ele>326.681333</ele>
        <time>2025-04-25T09:12:27.000Z</time>
      </trkpt>
      <trkpt lat="43.37837" lon="6.1199">
        <ele>326.465505</ele>
        <time>2025-04-25T09:12:28.000Z</time>
      </trkpt>
      <trkpt lat="43.37837" lon="6.1199">
        <ele>326.465505</ele>
        <time>2025-04-25T09:12:28.000Z</time>
      </trkpt>
      <trkpt lat="43.37839" lon="6.11982">
        <ele>326.252519</ele>
        <time>2025-04-25T09:12:29.000Z</time>
      </trkpt>
      <trkpt lat="43.37839" lon="6.11982">
        <ele>326.252519</ele>
        <time>2025-04-25T09:12:29.000Z</time>
      </trkpt>
      <trkpt lat="43.37842" lon="6.11975">
        <ele>326.035646</ele>
        <time>2025-04-25T09:12:30.000Z</time>
      </trkpt>
      <trkpt lat="43.37842" lon="6.11975">
        <ele>326.035646</ele>
        <time>2025-04-25T09:12:30.000Z</time>
      </trkpt>
      <trkpt lat="43.37844" lon="6.11968">
        <ele>325.830086</ele>
        <time>2025-04-25T09:12:30.000Z</time>
      </trkpt>
      <trkpt lat="43.37844" lon="6.11968">
        <ele>325.830086</ele>
        <time>2025-04-25T09:12:30.000Z</time>
      </trkpt>
      <trkpt lat="43.37845" lon="6.1196">
        <ele>325.613689</ele>
        <time>2025-04-25T09:12:32.000Z</time>
      </trkpt>
      <trkpt lat="43.37845" lon="6.1196">
        <ele>325.613689</ele>
        <time>2025-04-25T09:12:32.000Z</time>
      </trkpt>
      <trkpt lat="43.37845" lon="6.1195">
        <ele>325.372721</ele>
        <time>2025-04-25T09:12:33.000Z</time>
      </trkpt>
      <trkpt lat="43.37845" lon="6.1195">
        <ele>325.372721</ele>
        <time>2025-04-25T09:12:33.000Z</time>
      </trkpt>
      <trkpt lat="43.37845" lon="6.11947">
        <ele>325.27319</ele>
        <time>2025-04-25T09:12:33.000Z</time>
      </trkpt>
      <trkpt lat="43.37845" lon="6.11947">
        <ele>325.27319</ele>
        <time>2025-04-25T09:12:33.000Z</time>
      </trkpt>
      <trkpt lat="43.37844" lon="6.11932">
        <ele>324.879201</ele>
        <time>2025-04-25T09:12:35.000Z</time>
      </trkpt>
      <trkpt lat="43.37844" lon="6.11932">
        <ele>324.879201</ele>
        <time>2025-04-25T09:12:35.000Z</time>
      </trkpt>
      <trkpt lat="43.37843" lon="6.11922">
        <ele>324.613094</ele>
        <time>2025-04-25T09:12:36.000Z</time>
      </trkpt>
      <trkpt lat="43.37843" lon="6.11922">
        <ele>324.613094</ele>
        <time>2025-04-25T09:12:36.000Z</time>
      </trkpt>
      <trkpt lat="43.37842" lon="6.11912">
        <ele>324.36113</ele>
        <time>2025-04-25T09:12:37.000Z</time>
      </trkpt>
      <trkpt lat="43.37842" lon="6.11912">
        <ele>324.36113</ele>
        <time>2025-04-25T09:12:37.000Z</time>
      </trkpt>
      <trkpt lat="43.3784" lon="6.11901">
        <ele>324.067989</ele>
        <time>2025-04-25T09:12:38.000Z</time>
      </trkpt>
      <trkpt lat="43.3784" lon="6.11901">
        <ele>324.067989</ele>
        <time>2025-04-25T09:12:38.000Z</time>
      </trkpt>
      <trkpt lat="43.37838" lon="6.11892">
        <ele>323.814962</ele>
        <time>2025-04-25T09:12:38.000Z</time>
      </trkpt>
      <trkpt lat="43.37838" lon="6.11892">
        <ele>323.814962</ele>
        <time>2025-04-25T09:12:38.000Z</time>
      </trkpt>
      <trkpt lat="43.37836" lon="6.11881">
        <ele>323.520193</ele>
        <time>2025-04-25T09:12:40.000Z</time>
      </trkpt>
      <trkpt lat="43.37836" lon="6.11881">
        <ele>323.520193</ele>
        <time>2025-04-25T09:12:40.000Z</time>
      </trkpt>
      <trkpt lat="43.37835" lon="6.11874">
        <ele>323.320486</ele>
        <time>2025-04-25T09:12:41.000Z</time>
      </trkpt>
      <trkpt lat="43.37835" lon="6.11874">
        <ele>323.320486</ele>
        <time>2025-04-25T09:12:41.000Z</time>
      </trkpt>
      <trkpt lat="43.37833" lon="6.11867">
        <ele>323.12129</ele>
        <time>2025-04-25T09:12:41.000Z</time>
      </trkpt>
      <trkpt lat="43.37833" lon="6.11867">
        <ele>323.12129</ele>
        <time>2025-04-25T09:12:41.000Z</time>
      </trkpt>
      <trkpt lat="43.37831" lon="6.11859">
        <ele>322.866577</ele>
        <time>2025-04-25T09:12:43.000Z</time>
      </trkpt>
      <trkpt lat="43.37831" lon="6.11859">
        <ele>322.866577</ele>
        <time>2025-04-25T09:12:43.000Z</time>
      </trkpt>
      <trkpt lat="43.3783" lon="6.11849">
        <ele>322.586644</ele>
        <time>2025-04-25T09:12:43.000Z</time>
      </trkpt>
      <trkpt lat="43.3783" lon="6.11849">
        <ele>322.586644</ele>
        <time>2025-04-25T09:12:43.000Z</time>
      </trkpt>
      <trkpt lat="43.37831" lon="6.1184">
        <ele>322.324148</ele>
        <time>2025-04-25T09:12:45.000Z</time>
      </trkpt>
      <trkpt lat="43.37831" lon="6.1184">
        <ele>322.324148</ele>
        <time>2025-04-25T09:12:45.000Z</time>
      </trkpt>
      <trkpt lat="43.37833" lon="6.11833">
        <ele>322.099289</ele>
        <time>2025-04-25T09:12:46.000Z</time>
      </trkpt>
      <trkpt lat="43.37833" lon="6.11833">
        <ele>322.099289</ele>
        <time>2025-04-25T09:12:46.000Z</time>
      </trkpt>
      <trkpt lat="43.37836" lon="6.11826">
        <ele>321.854305</ele>
        <time>2025-04-25T09:12:47.000Z</time>
      </trkpt>
      <trkpt lat="43.37836" lon="6.11826">
        <ele>321.854305</ele>
        <time>2025-04-25T09:12:47.000Z</time>
      </trkpt>
      <trkpt lat="43.37839" lon="6.11819">
        <ele>321.626809</ele>
        <time>2025-04-25T09:12:48.000Z</time>
      </trkpt>
      <trkpt lat="43.37839" lon="6.11819">
        <ele>321.626809</ele>
        <time>2025-04-25T09:12:48.000Z</time>
      </trkpt>
      <trkpt lat="43.37841" lon="6.11813">
        <ele>321.441541</ele>
        <time>2025-04-25T09:12:48.000Z</time>
      </trkpt>
      <trkpt lat="43.37841" lon="6.11813">
        <ele>321.441541</ele>
        <time>2025-04-25T09:12:48.000Z</time>
      </trkpt>
      <trkpt lat="43.37843" lon="6.11808">
        <ele>321.271183</ele>
        <time>2025-04-25T09:12:50.000Z</time>
      </trkpt>
      <trkpt lat="43.37843" lon="6.11808">
        <ele>321.271183</ele>
        <time>2025-04-25T09:12:50.000Z</time>
      </trkpt>
      <trkpt lat="43.37845" lon="6.11802">
        <ele>321.084966</ele>
        <time>2025-04-25T09:12:51.000Z</time>
      </trkpt>
      <trkpt lat="43.37845" lon="6.11802">
        <ele>321.084966</ele>
        <time>2025-04-25T09:12:51.000Z</time>
      </trkpt>
      <trkpt lat="43.37847" lon="6.11796">
        <ele>320.885503</ele>
        <time>2025-04-25T09:12:51.000Z</time>
      </trkpt>
      <trkpt lat="43.37847" lon="6.11796">
        <ele>320.885503</ele>
        <time>2025-04-25T09:12:51.000Z</time>
      </trkpt>
      <trkpt lat="43.3785" lon="6.1179">
        <ele>320.673943</ele>
        <time>2025-04-25T09:12:53.000Z</time>
      </trkpt>
      <trkpt lat="43.3785" lon="6.1179">
        <ele>320.673943</ele>
        <time>2025-04-25T09:12:53.000Z</time>
      </trkpt>
      <trkpt lat="43.37853" lon="6.11782">
        <ele>320.411156</ele>
        <time>2025-04-25T09:12:54.000Z</time>
      </trkpt>
      <trkpt lat="43.37853" lon="6.11782">
        <ele>320.411156</ele>
        <time>2025-04-25T09:12:54.000Z</time>
      </trkpt>
      <trkpt lat="43.37856" lon="6.11775">
        <ele>320.160576</ele>
        <time>2025-04-25T09:12:55.000Z</time>
      </trkpt>
      <trkpt lat="43.37856" lon="6.11775">
        <ele>320.160576</ele>
        <time>2025-04-25T09:12:55.000Z</time>
      </trkpt>
      <trkpt lat="43.37859" lon="6.11766">
        <ele>319.889053</ele>
        <time>2025-04-25T09:12:56.000Z</time>
      </trkpt>
      <trkpt lat="43.37859" lon="6.11766">
        <ele>319.889053</ele>
        <time>2025-04-25T09:12:56.000Z</time>
      </trkpt>
      <trkpt lat="43.37861" lon="6.11757">
        <ele>319.601351</ele>
        <time>2025-04-25T09:12:56.000Z</time>
      </trkpt>
      <trkpt lat="43.37861" lon="6.11757">
        <ele>319.601351</ele>
        <time>2025-04-25T09:12:56.000Z</time>
      </trkpt>
      <trkpt lat="43.37864" lon="6.11748">
        <ele>319.326188</ele>
        <time>2025-04-25T09:12:58.000Z</time>
      </trkpt>
      <trkpt lat="43.37864" lon="6.11748">
        <ele>319.326188</ele>
        <time>2025-04-25T09:12:58.000Z</time>
      </trkpt>
      <trkpt lat="43.37865" lon="6.1174">
        <ele>319.069179</ele>
        <time>2025-04-25T09:12:59.000Z</time>
      </trkpt>
      <trkpt lat="43.37865" lon="6.1174">
        <ele>319.069179</ele>
        <time>2025-04-25T09:12:59.000Z</time>
      </trkpt>
      <trkpt lat="43.37866" lon="6.11731">
        <ele>318.813583</ele>
        <time>2025-04-25T09:13:00.000Z</time>
      </trkpt>
      <trkpt lat="43.37866" lon="6.11731">
        <ele>318.813583</ele>
        <time>2025-04-25T09:13:00.000Z</time>
      </trkpt>
      <trkpt lat="43.37867" lon="6.11723">
        <ele>318.559801</ele>
        <time>2025-04-25T09:13:01.000Z</time>
      </trkpt>
      <trkpt lat="43.37867" lon="6.11723">
        <ele>318.559801</ele>
        <time>2025-04-25T09:13:01.000Z</time>
      </trkpt>
      <trkpt lat="43.37868" lon="6.11713">
        <ele>318.28978</ele>
        <time>2025-04-25T09:13:02.000Z</time>
      </trkpt>
      <trkpt lat="43.37868" lon="6.11713">
        <ele>318.28978</ele>
        <time>2025-04-25T09:13:02.000Z</time>
      </trkpt>
      <trkpt lat="43.37869" lon="6.11705">
        <ele>318.044706</ele>
        <time>2025-04-25T09:13:02.000Z</time>
      </trkpt>
      <trkpt lat="43.37869" lon="6.11705">
        <ele>318.044706</ele>
        <time>2025-04-25T09:13:02.000Z</time>
      </trkpt>
      <trkpt lat="43.3787" lon="6.11697">
        <ele>317.797202</ele>
        <time>2025-04-25T09:13:03.000Z</time>
      </trkpt>
      <trkpt lat="43.3787" lon="6.11697">
        <ele>317.797202</ele>
        <time>2025-04-25T09:13:03.000Z</time>
      </trkpt>
      <trkpt lat="43.37872" lon="6.11689">
        <ele>317.566689</ele>
        <time>2025-04-25T09:13:05.000Z</time>
      </trkpt>
      <trkpt lat="43.37872" lon="6.11689">
        <ele>317.566689</ele>
        <time>2025-04-25T09:13:05.000Z</time>
      </trkpt>
      <trkpt lat="43.37874" lon="6.11681">
        <ele>317.317555</ele>
        <time>2025-04-25T09:13:06.000Z</time>
      </trkpt>
      <trkpt lat="43.37874" lon="6.11681">
        <ele>317.317555</ele>
        <time>2025-04-25T09:13:06.000Z</time>
      </trkpt>
      <trkpt lat="43.37876" lon="6.11673">
        <ele>317.065635</ele>
        <time>2025-04-25T09:13:07.000Z</time>
      </trkpt>
      <trkpt lat="43.37876" lon="6.11673">
        <ele>317.065635</ele>
        <time>2025-04-25T09:13:07.000Z</time>
      </trkpt>
      <trkpt lat="43.37878" lon="6.11664">
        <ele>316.791906</ele>
        <time>2025-04-25T09:13:08.000Z</time>
      </trkpt>
      <trkpt lat="43.37878" lon="6.11664">
        <ele>316.791906</ele>
        <time>2025-04-25T09:13:08.000Z</time>
      </trkpt>
      <trkpt lat="43.37881" lon="6.11655">
        <ele>316.496056</ele>
        <time>2025-04-25T09:13:09.000Z</time>
      </trkpt>
      <trkpt lat="43.37881" lon="6.11655">
        <ele>316.496056</ele>
        <time>2025-04-25T09:13:09.000Z</time>
      </trkpt>
      <trkpt lat="43.37883" lon="6.11646">
        <ele>316.227828</ele>
        <time>2025-04-25T09:13:10.000Z</time>
      </trkpt>
      <trkpt lat="43.37883" lon="6.11646">
        <ele>316.227828</ele>
        <time>2025-04-25T09:13:10.000Z</time>
      </trkpt>
      <trkpt lat="43.37885" lon="6.11638">
        <ele>315.964911</ele>
        <time>2025-04-25T09:13:11.000Z</time>
      </trkpt>
      <trkpt lat="43.37885" lon="6.11638">
        <ele>315.964911</ele>
        <time>2025-04-25T09:13:11.000Z</time>
      </trkpt>
      <trkpt lat="43.37887" lon="6.1163">
        <ele>315.731324</ele>
        <time>2025-04-25T09:13:12.000Z</time>
      </trkpt>
      <trkpt lat="43.37887" lon="6.1163">
        <ele>315.731324</ele>
        <time>2025-04-25T09:13:12.000Z</time>
      </trkpt>
      <trkpt lat="43.37889" lon="6.11622">
        <ele>315.486598</ele>
        <time>2025-04-25T09:13:13.000Z</time>
      </trkpt>
      <trkpt lat="43.37889" lon="6.11622">
        <ele>315.486598</ele>
        <time>2025-04-25T09:13:13.000Z</time>
      </trkpt>
      <trkpt lat="43.37891" lon="6.11615">
        <ele>315.266321</ele>
        <time>2025-04-25T09:13:14.000Z</time>
      </trkpt>
      <trkpt lat="43.37891" lon="6.11615">
        <ele>315.266321</ele>
        <time>2025-04-25T09:13:14.000Z</time>
      </trkpt>
      <trkpt lat="43.37892" lon="6.11607">
        <ele>315.009076</ele>
        <time>2025-04-25T09:13:15.000Z</time>
      </trkpt>
      <trkpt lat="43.37892" lon="6.11607">
        <ele>315.009076</ele>
        <time>2025-04-25T09:13:15.000Z</time>
      </trkpt>
      <trkpt lat="43.37894" lon="6.11598">
        <ele>314.753692</ele>
        <time>2025-04-25T09:13:16.000Z</time>
      </trkpt>
      <trkpt lat="43.37894" lon="6.11598">
        <ele>314.753692</ele>
        <time>2025-04-25T09:13:16.000Z</time>
      </trkpt>
      <trkpt lat="43.37896" lon="6.1159">
        <ele>314.503409</ele>
        <time>2025-04-25T09:13:17.000Z</time>
      </trkpt>
      <trkpt lat="43.37896" lon="6.1159">
        <ele>314.503409</ele>
        <time>2025-04-25T09:13:17.000Z</time>
      </trkpt>
      <trkpt lat="43.37898" lon="6.11583">
        <ele>314.258684</ele>
        <time>2025-04-25T09:13:18.000Z</time>
      </trkpt>
      <trkpt lat="43.37898" lon="6.11583">
        <ele>314.258684</ele>
        <time>2025-04-25T09:13:18.000Z</time>
      </trkpt>
      <trkpt lat="43.379" lon="6.11575">
        <ele>314.025097</ele>
        <time>2025-04-25T09:13:19.000Z</time>
      </trkpt>
      <trkpt lat="43.379" lon="6.11575">
        <ele>314.025097</ele>
        <time>2025-04-25T09:13:19.000Z</time>
      </trkpt>
      <trkpt lat="43.37901" lon="6.11568">
        <ele>313.821725</ele>
        <time>2025-04-25T09:13:20.000Z</time>
      </trkpt>
      <trkpt lat="43.37901" lon="6.11568">
        <ele>313.821725</ele>
        <time>2025-04-25T09:13:20.000Z</time>
      </trkpt>
      <trkpt lat="43.37903" lon="6.11562">
        <ele>313.629549</ele>
        <time>2025-04-25T09:13:21.000Z</time>
      </trkpt>
      <trkpt lat="43.37903" lon="6.11562">
        <ele>313.629549</ele>
        <time>2025-04-25T09:13:21.000Z</time>
      </trkpt>
      <trkpt lat="43.37904" lon="6.11556">
        <ele>313.427721</ele>
        <time>2025-04-25T09:13:21.000Z</time>
      </trkpt>
      <trkpt lat="43.37904" lon="6.11556">
        <ele>313.427721</ele>
        <time>2025-04-25T09:13:21.000Z</time>
      </trkpt>
      <trkpt lat="43.37906" lon="6.11549">
        <ele>313.231445</ele>
        <time>2025-04-25T09:13:22.000Z</time>
      </trkpt>
      <trkpt lat="43.37906" lon="6.11549">
        <ele>313.231445</ele>
        <time>2025-04-25T09:13:22.000Z</time>
      </trkpt>
      <trkpt lat="43.37907" lon="6.11541">
        <ele>312.979912</ele>
        <time>2025-04-25T09:13:23.000Z</time>
      </trkpt>
      <trkpt lat="43.37907" lon="6.11541">
        <ele>312.979912</ele>
        <time>2025-04-25T09:13:23.000Z</time>
      </trkpt>
      <trkpt lat="43.37909" lon="6.11533">
        <ele>312.750035</ele>
        <time>2025-04-25T09:13:24.000Z</time>
      </trkpt>
      <trkpt lat="43.37909" lon="6.11533">
        <ele>312.750035</ele>
        <time>2025-04-25T09:13:24.000Z</time>
      </trkpt>
      <trkpt lat="43.3791" lon="6.11526">
        <ele>312.522133</ele>
        <time>2025-04-25T09:13:25.000Z</time>
      </trkpt>
      <trkpt lat="43.3791" lon="6.11526">
        <ele>312.522133</ele>
        <time>2025-04-25T09:13:25.000Z</time>
      </trkpt>
      <trkpt lat="43.37911" lon="6.11519">
        <ele>312.314383</ele>
        <time>2025-04-25T09:13:26.000Z</time>
      </trkpt>
      <trkpt lat="43.37911" lon="6.11519">
        <ele>312.314383</ele>
        <time>2025-04-25T09:13:26.000Z</time>
      </trkpt>
      <trkpt lat="43.37912" lon="6.11512">
        <ele>312.10418</ele>
        <time>2025-04-25T09:13:27.000Z</time>
      </trkpt>
      <trkpt lat="43.37912" lon="6.11512">
        <ele>312.10418</ele>
        <time>2025-04-25T09:13:27.000Z</time>
      </trkpt>
      <trkpt lat="43.37914" lon="6.11505">
        <ele>311.892371</ele>
        <time>2025-04-25T09:13:29.000Z</time>
      </trkpt>
      <trkpt lat="43.37914" lon="6.11505">
        <ele>311.892371</ele>
        <time>2025-04-25T09:13:29.000Z</time>
      </trkpt>
      <trkpt lat="43.37915" lon="6.11498">
        <ele>311.687492</ele>
        <time>2025-04-25T09:13:30.000Z</time>
      </trkpt>
      <trkpt lat="43.37915" lon="6.11498">
        <ele>311.687492</ele>
        <time>2025-04-25T09:13:30.000Z</time>
      </trkpt>
      <trkpt lat="43.37917" lon="6.11491">
        <ele>311.457616</ele>
        <time>2025-04-25T09:13:31.000Z</time>
      </trkpt>
      <trkpt lat="43.37917" lon="6.11491">
        <ele>311.457616</ele>
        <time>2025-04-25T09:13:31.000Z</time>
      </trkpt>
      <trkpt lat="43.37917" lon="6.11484">
        <ele>311.243981</ele>
        <time>2025-04-25T09:13:31.000Z</time>
      </trkpt>
      <trkpt lat="43.37917" lon="6.11484">
        <ele>311.243981</ele>
        <time>2025-04-25T09:13:31.000Z</time>
      </trkpt>
      <trkpt lat="43.37918" lon="6.11476">
        <ele>311.012313</ele>
        <time>2025-04-25T09:13:32.000Z</time>
      </trkpt>
      <trkpt lat="43.37918" lon="6.11476">
        <ele>311.012313</ele>
        <time>2025-04-25T09:13:32.000Z</time>
      </trkpt>
      <trkpt lat="43.3792" lon="6.11469">
        <ele>310.784273</ele>
        <time>2025-04-25T09:13:33.000Z</time>
      </trkpt>
      <trkpt lat="43.3792" lon="6.11469">
        <ele>310.784273</ele>
        <time>2025-04-25T09:13:33.000Z</time>
      </trkpt>
      <trkpt lat="43.37922" lon="6.11463">
        <ele>310.584778</ele>
        <time>2025-04-25T09:13:35.000Z</time>
      </trkpt>
      <trkpt lat="43.37922" lon="6.11463">
        <ele>310.584778</ele>
        <time>2025-04-25T09:13:35.000Z</time>
      </trkpt>
      <trkpt lat="43.37925" lon="6.11457">
        <ele>310.382677</ele>
        <time>2025-04-25T09:13:36.000Z</time>
      </trkpt>
      <trkpt lat="43.37925" lon="6.11457">
        <ele>310.382677</ele>
        <time>2025-04-25T09:13:36.000Z</time>
      </trkpt>
      <trkpt lat="43.37927" lon="6.1145">
        <ele>310.164761</ele>
        <time>2025-04-25T09:13:37.000Z</time>
      </trkpt>
      <trkpt lat="43.37927" lon="6.1145">
        <ele>310.164761</ele>
        <time>2025-04-25T09:13:37.000Z</time>
      </trkpt>
      <trkpt lat="43.37929" lon="6.11443">
        <ele>309.955987</ele>
        <time>2025-04-25T09:13:38.000Z</time>
      </trkpt>
      <trkpt lat="43.37929" lon="6.11443">
        <ele>309.955987</ele>
        <time>2025-04-25T09:13:38.000Z</time>
      </trkpt>
      <trkpt lat="43.37931" lon="6.11436">
        <ele>309.736234</ele>
        <time>2025-04-25T09:13:39.000Z</time>
      </trkpt>
      <trkpt lat="43.37931" lon="6.11436">
        <ele>309.736234</ele>
        <time>2025-04-25T09:13:39.000Z</time>
      </trkpt>
      <trkpt lat="43.37933" lon="6.11428">
        <ele>309.48868</ele>
        <time>2025-04-25T09:13:39.000Z</time>
      </trkpt>
      <trkpt lat="43.37933" lon="6.11428">
        <ele>309.48868</ele>
        <time>2025-04-25T09:13:39.000Z</time>
      </trkpt>
      <trkpt lat="43.37935" lon="6.11421">
        <ele>309.268927</ele>
        <time>2025-04-25T09:13:40.000Z</time>
      </trkpt>
      <trkpt lat="43.37935" lon="6.11421">
        <ele>309.268927</ele>
        <time>2025-04-25T09:13:40.000Z</time>
      </trkpt>
      <trkpt lat="43.37938" lon="6.11416">
        <ele>309.059568</ele>
        <time>2025-04-25T09:13:41.000Z</time>
      </trkpt>
      <trkpt lat="43.37938" lon="6.11416">
        <ele>309.059568</ele>
        <time>2025-04-25T09:13:41.000Z</time>
      </trkpt>
      <trkpt lat="43.37942" lon="6.11411">
        <ele>308.854766</ele>
        <time>2025-04-25T09:13:43.000Z</time>
      </trkpt>
      <trkpt lat="43.37942" lon="6.11411">
        <ele>308.854766</ele>
        <time>2025-04-25T09:13:43.000Z</time>
      </trkpt>
      <trkpt lat="43.37945" lon="6.11407">
        <ele>308.692085</ele>
        <time>2025-04-25T09:13:44.000Z</time>
      </trkpt>
      <trkpt lat="43.37945" lon="6.11407">
        <ele>308.692085</ele>
        <time>2025-04-25T09:13:44.000Z</time>
      </trkpt>
      <trkpt lat="43.37949" lon="6.11403">
        <ele>308.568334</ele>
        <time>2025-04-25T09:13:45.000Z</time>
      </trkpt>
      <trkpt lat="43.37949" lon="6.11403">
        <ele>308.568334</ele>
        <time>2025-04-25T09:13:45.000Z</time>
      </trkpt>
      <trkpt lat="43.37953" lon="6.11398">
        <ele>308.437341</ele>
        <time>2025-04-25T09:13:46.000Z</time>
      </trkpt>
      <trkpt lat="43.37953" lon="6.11398">
        <ele>308.437341</ele>
        <time>2025-04-25T09:13:46.000Z</time>
      </trkpt>
      <trkpt lat="43.37957" lon="6.11393">
        <ele>308.295228</ele>
        <time>2025-04-25T09:13:47.000Z</time>
      </trkpt>
      <trkpt lat="43.37957" lon="6.11393">
        <ele>308.295228</ele>
        <time>2025-04-25T09:13:47.000Z</time>
      </trkpt>
      <trkpt lat="43.37961" lon="6.11388">
        <ele>308.166708</ele>
        <time>2025-04-25T09:13:47.000Z</time>
      </trkpt>
      <trkpt lat="43.37961" lon="6.11388">
        <ele>308.166708</ele>
        <time>2025-04-25T09:13:47.000Z</time>
      </trkpt>
      <trkpt lat="43.37965" lon="6.11383">
        <ele>308.025811</ele>
        <time>2025-04-25T09:13:49.000Z</time>
      </trkpt>
      <trkpt lat="43.37965" lon="6.11383">
        <ele>308.025811</ele>
        <time>2025-04-25T09:13:49.000Z</time>
      </trkpt>
      <trkpt lat="43.37969" lon="6.11377">
        <ele>307.876138</ele>
        <time>2025-04-25T09:13:49.000Z</time>
      </trkpt>
      <trkpt lat="43.37969" lon="6.11377">
        <ele>307.876138</ele>
        <time>2025-04-25T09:13:49.000Z</time>
      </trkpt>
      <trkpt lat="43.37973" lon="6.11371">
        <ele>307.732026</ele>
        <time>2025-04-25T09:13:50.000Z</time>
      </trkpt>
      <trkpt lat="43.37973" lon="6.11371">
        <ele>307.732026</ele>
        <time>2025-04-25T09:13:50.000Z</time>
      </trkpt>
      <trkpt lat="43.37977" lon="6.11366">
        <ele>307.598506</ele>
        <time>2025-04-25T09:13:52.000Z</time>
      </trkpt>
      <trkpt lat="43.37977" lon="6.11366">
        <ele>307.598506</ele>
        <time>2025-04-25T09:13:52.000Z</time>
      </trkpt>
      <trkpt lat="43.37981" lon="6.11362">
        <ele>307.470484</ele>
        <time>2025-04-25T09:13:52.000Z</time>
      </trkpt>
      <trkpt lat="43.37981" lon="6.11362">
        <ele>307.470484</ele>
        <time>2025-04-25T09:13:52.000Z</time>
      </trkpt>
      <trkpt lat="43.37984" lon="6.11356">
        <ele>307.335684</ele>
        <time>2025-04-25T09:13:54.000Z</time>
      </trkpt>
      <trkpt lat="43.37984" lon="6.11356">
        <ele>307.335684</ele>
        <time>2025-04-25T09:13:54.000Z</time>
      </trkpt>
      <trkpt lat="43.37988" lon="6.11348">
        <ele>307.167048</ele>
        <time>2025-04-25T09:13:54.000Z</time>
      </trkpt>
      <trkpt lat="43.37988" lon="6.11348">
        <ele>307.167048</ele>
        <time>2025-04-25T09:13:54.000Z</time>
      </trkpt>
      <trkpt lat="43.37996" lon="6.11333">
        <ele>306.832783</ele>
        <time>2025-04-25T09:13:57.000Z</time>
      </trkpt>
      <trkpt lat="43.37996" lon="6.11333">
        <ele>306.832783</ele>
        <time>2025-04-25T09:13:57.000Z</time>
      </trkpt>
      <trkpt lat="43.37999" lon="6.11326">
        <ele>306.678963</ele>
        <time>2025-04-25T09:13:58.000Z</time>
      </trkpt>
      <trkpt lat="43.37999" lon="6.11326">
        <ele>306.678963</ele>
        <time>2025-04-25T09:13:58.000Z</time>
      </trkpt>
      <trkpt lat="43.38002" lon="6.1132">
        <ele>306.538204</ele>
        <time>2025-04-25T09:13:59.000Z</time>
      </trkpt>
      <trkpt lat="43.38006" lon="6.11312">
        <ele>306.354818</ele>
        <time>2025-04-25T09:14:00.000Z</time>
      </trkpt>
      <trkpt lat="43.38006" lon="6.11312">
        <ele>306.354818</ele>
        <time>2025-04-25T09:14:00.000Z</time>
      </trkpt>
      <trkpt lat="43.38009" lon="6.11305">
        <ele>306.215737</ele>
        <time>2025-04-25T09:14:01.000Z</time>
      </trkpt>
      <trkpt lat="43.38009" lon="6.11305">
        <ele>306.215737</ele>
        <time>2025-04-25T09:14:01.000Z</time>
      </trkpt>
      <trkpt lat="43.38013" lon="6.11298">
        <ele>306.057237</ele>
        <time>2025-04-25T09:14:02.000Z</time>
      </trkpt>
      <trkpt lat="43.38016" lon="6.11291">
        <ele>305.901804</ele>
        <time>2025-04-25T09:14:03.000Z</time>
      </trkpt>
      <trkpt lat="43.38016" lon="6.11291">
        <ele>305.901804</ele>
        <time>2025-04-25T09:14:03.000Z</time>
      </trkpt>
      <trkpt lat="43.3802" lon="6.11284">
        <ele>305.746482</ele>
        <time>2025-04-25T09:14:03.000Z</time>
      </trkpt>
      <trkpt lat="43.3802" lon="6.11284">
        <ele>305.746482</ele>
        <time>2025-04-25T09:14:03.000Z</time>
      </trkpt>
      <trkpt lat="43.38023" lon="6.11277">
        <ele>305.594088</ele>
        <time>2025-04-25T09:14:05.000Z</time>
      </trkpt>
      <trkpt lat="43.38026" lon="6.1127">
        <ele>305.443204</ele>
        <time>2025-04-25T09:14:06.000Z</time>
      </trkpt>
      <trkpt lat="43.38026" lon="6.1127">
        <ele>305.443204</ele>
        <time>2025-04-25T09:14:06.000Z</time>
      </trkpt>
      <trkpt lat="43.3803" lon="6.11263">
        <ele>305.291791</ele>
        <time>2025-04-25T09:14:07.000Z</time>
      </trkpt>
      <trkpt lat="43.38033" lon="6.11257">
        <ele>305.143905</ele>
        <time>2025-04-25T09:14:08.000Z</time>
      </trkpt>
      <trkpt lat="43.38033" lon="6.11257">
        <ele>305.143905</ele>
        <time>2025-04-25T09:14:08.000Z</time>
      </trkpt>
      <trkpt lat="43.38036" lon="6.1125">
        <ele>305.001782</ele>
        <time>2025-04-25T09:14:09.000Z</time>
      </trkpt>
      <trkpt lat="43.38039" lon="6.11244">
        <ele>304.869342</ele>
        <time>2025-04-25T09:14:10.000Z</time>
      </trkpt>
      <trkpt lat="43.38039" lon="6.11244">
        <ele>304.869342</ele>
        <time>2025-04-25T09:14:10.000Z</time>
      </trkpt>
      <trkpt lat="43.38041" lon="6.11238">
        <ele>304.74343</ele>
        <time>2025-04-25T09:14:10.000Z</time>
      </trkpt>
      <trkpt lat="43.38044" lon="6.11232">
        <ele>304.605859</ele>
        <time>2025-04-25T09:14:12.000Z</time>
      </trkpt>
      <trkpt lat="43.38044" lon="6.11232">
        <ele>304.605859</ele>
        <time>2025-04-25T09:14:12.000Z</time>
      </trkpt>
      <trkpt lat="43.38047" lon="6.11226">
        <ele>304.481286</ele>
        <time>2025-04-25T09:14:13.000Z</time>
      </trkpt>
      <trkpt lat="43.3805" lon="6.1122">
        <ele>304.346712</ele>
        <time>2025-04-25T09:14:13.000Z</time>
      </trkpt>
      <trkpt lat="43.38054" lon="6.11215">
        <ele>304.214718</ele>
        <time>2025-04-25T09:14:15.000Z</time>
      </trkpt>
      <trkpt lat="43.38054" lon="6.11215">
        <ele>304.214718</ele>
        <time>2025-04-25T09:14:15.000Z</time>
      </trkpt>
      <trkpt lat="43.38058" lon="6.11209">
        <ele>304.101452</ele>
        <time>2025-04-25T09:14:16.000Z</time>
      </trkpt>
      <trkpt lat="43.38063" lon="6.11204">
        <ele>303.995693</ele>
        <time>2025-04-25T09:14:17.000Z</time>
      </trkpt>
      <trkpt lat="43.38068" lon="6.11198">
        <ele>303.880822</ele>
        <time>2025-04-25T09:14:18.000Z</time>
      </trkpt>
      <trkpt lat="43.38068" lon="6.11198">
        <ele>303.880822</ele>
        <time>2025-04-25T09:14:18.000Z</time>
      </trkpt>
      <trkpt lat="43.38073" lon="6.11193">
        <ele>303.759766</ele>
        <time>2025-04-25T09:14:19.000Z</time>
      </trkpt>
      <trkpt lat="43.38078" lon="6.11187">
        <ele>303.647585</ele>
        <time>2025-04-25T09:14:20.000Z</time>
      </trkpt>
      <trkpt lat="43.38081" lon="6.11181">
        <ele>303.548534</ele>
        <time>2025-04-25T09:14:21.000Z</time>
      </trkpt>
      <trkpt lat="43.38081" lon="6.11181">
        <ele>303.548534</ele>
        <time>2025-04-25T09:14:21.000Z</time>
      </trkpt>
      <trkpt lat="43.38086" lon="6.11176">
        <ele>303.439034</ele>
        <time>2025-04-25T09:14:22.000Z</time>
      </trkpt>
      <trkpt lat="43.38091" lon="6.11169">
        <ele>303.315888</ele>
        <time>2025-04-25T09:14:23.000Z</time>
      </trkpt>
      <trkpt lat="43.38095" lon="6.11164">
        <ele>303.215604</ele>
        <time>2025-04-25T09:14:24.000Z</time>
      </trkpt>
      <trkpt lat="43.38095" lon="6.11164">
        <ele>303.215604</ele>
        <time>2025-04-25T09:14:24.000Z</time>
      </trkpt>
      <trkpt lat="43.381" lon="6.11159">
        <ele>303.108194</ele>
        <time>2025-04-25T09:14:25.000Z</time>
      </trkpt>
      <trkpt lat="43.381" lon="6.11159">
        <ele>303.108194</ele>
        <time>2025-04-25T09:14:25.000Z</time>
      </trkpt>
      <trkpt lat="43.38105" lon="6.11152">
        <ele>302.983654</ele>
        <time>2025-04-25T09:14:26.000Z</time>
      </trkpt>
      <trkpt lat="43.38111" lon="6.11146">
        <ele>302.852765</ele>
        <time>2025-04-25T09:14:27.000Z</time>
      </trkpt>
      <trkpt lat="43.38111" lon="6.11146">
        <ele>302.852765</ele>
        <time>2025-04-25T09:14:27.000Z</time>
      </trkpt>
      <trkpt lat="43.38118" lon="6.11138">
        <ele>302.687301</ele>
        <time>2025-04-25T09:14:28.000Z</time>
      </trkpt>
      <trkpt lat="43.38125" lon="6.11131">
        <ele>302.534483</ele>
        <time>2025-04-25T09:14:29.000Z</time>
      </trkpt>
      <trkpt lat="43.38125" lon="6.11131">
        <ele>302.534483</ele>
        <time>2025-04-25T09:14:29.000Z</time>
      </trkpt>
      <trkpt lat="43.38131" lon="6.11124">
        <ele>302.390603</ele>
        <time>2025-04-25T09:14:30.000Z</time>
      </trkpt>
      <trkpt lat="43.38131" lon="6.11124">
        <ele>302.390603</ele>
        <time>2025-04-25T09:14:30.000Z</time>
      </trkpt>
      <trkpt lat="43.38137" lon="6.11116">
        <ele>302.2362</ele>
        <time>2025-04-25T09:14:31.000Z</time>
      </trkpt>
      <trkpt lat="43.38142" lon="6.11109">
        <ele>302.101851</ele>
        <time>2025-04-25T09:14:32.000Z</time>
      </trkpt>
      <trkpt lat="43.38142" lon="6.11109">
        <ele>302.101851</ele>
        <time>2025-04-25T09:14:32.000Z</time>
      </trkpt>
      <trkpt lat="43.38147" lon="6.111">
        <ele>301.959571</ele>
        <time>2025-04-25T09:14:33.000Z</time>
      </trkpt>
      <trkpt lat="43.38147" lon="6.111">
        <ele>301.959571</ele>
        <time>2025-04-25T09:14:33.000Z</time>
      </trkpt>
      <trkpt lat="43.38152" lon="6.11091">
        <ele>301.81203</ele>
        <time>2025-04-25T09:14:34.000Z</time>
      </trkpt>
      <trkpt lat="43.38152" lon="6.11091">
        <ele>301.81203</ele>
        <time>2025-04-25T09:14:34.000Z</time>
      </trkpt>
      <trkpt lat="43.38156" lon="6.11082">
        <ele>301.673961</ele>
        <time>2025-04-25T09:14:35.000Z</time>
      </trkpt>
      <trkpt lat="43.38156" lon="6.11082">
        <ele>301.673961</ele>
        <time>2025-04-25T09:14:35.000Z</time>
      </trkpt>
      <trkpt lat="43.38159" lon="6.11072">
        <ele>301.542019</ele>
        <time>2025-04-25T09:14:36.000Z</time>
      </trkpt>
      <trkpt lat="43.38162" lon="6.11063">
        <ele>301.405656</ele>
        <time>2025-04-25T09:14:37.000Z</time>
      </trkpt>
      <trkpt lat="43.38162" lon="6.11063">
        <ele>301.405656</ele>
        <time>2025-04-25T09:14:37.000Z</time>
      </trkpt>
      <trkpt lat="43.38165" lon="6.11053">
        <ele>301.269916</ele>
        <time>2025-04-25T09:14:38.000Z</time>
      </trkpt>
      <trkpt lat="43.38165" lon="6.11053">
        <ele>301.269916</ele>
        <time>2025-04-25T09:14:38.000Z</time>
      </trkpt>
      <trkpt lat="43.38167" lon="6.11043">
        <ele>301.138397</ele>
        <time>2025-04-25T09:14:39.000Z</time>
      </trkpt>
      <trkpt lat="43.38167" lon="6.11043">
        <ele>301.138397</ele>
        <time>2025-04-25T09:14:39.000Z</time>
      </trkpt>
      <trkpt lat="43.38168" lon="6.11034">
        <ele>301.016989</ele>
        <time>2025-04-25T09:14:40.000Z</time>
      </trkpt>
      <trkpt lat="43.38168" lon="6.11034">
        <ele>301.016989</ele>
        <time>2025-04-25T09:14:40.000Z</time>
      </trkpt>
      <trkpt lat="43.3817" lon="6.11024">
        <ele>300.802172</ele>
        <time>2025-04-25T09:14:41.000Z</time>
      </trkpt>
      <trkpt lat="43.3817" lon="6.11024">
        <ele>300.802172</ele>
        <time>2025-04-25T09:14:41.000Z</time>
      </trkpt>
      <trkpt lat="43.38172" lon="6.11014">
        <ele>300.55955</ele>
        <time>2025-04-25T09:14:42.000Z</time>
      </trkpt>
      <trkpt lat="43.38172" lon="6.11014">
        <ele>300.55955</ele>
        <time>2025-04-25T09:14:42.000Z</time>
      </trkpt>
      <trkpt lat="43.38173" lon="6.11004">
        <ele>300.310639</ele>
        <time>2025-04-25T09:14:43.000Z</time>
      </trkpt>
      <trkpt lat="43.38173" lon="6.11004">
        <ele>300.310639</ele>
        <time>2025-04-25T09:14:43.000Z</time>
      </trkpt>
      <trkpt lat="43.38175" lon="6.10995">
        <ele>300.086293</ele>
        <time>2025-04-25T09:14:44.000Z</time>
      </trkpt>
      <trkpt lat="43.38175" lon="6.10995">
        <ele>300.086293</ele>
        <time>2025-04-25T09:14:44.000Z</time>
      </trkpt>
      <trkpt lat="43.38178" lon="6.10985">
        <ele>299.844529</ele>
        <time>2025-04-25T09:14:45.000Z</time>
      </trkpt>
      <trkpt lat="43.3818" lon="6.10976">
        <ele>299.613998</ele>
        <time>2025-04-25T09:14:46.000Z</time>
      </trkpt>
      <trkpt lat="43.3818" lon="6.10976">
        <ele>299.613998</ele>
        <time>2025-04-25T09:14:46.000Z</time>
      </trkpt>
      <trkpt lat="43.38182" lon="6.10966">
        <ele>299.366792</ele>
        <time>2025-04-25T09:14:47.000Z</time>
      </trkpt>
      <trkpt lat="43.38182" lon="6.10966">
        <ele>299.366792</ele>
        <time>2025-04-25T09:14:47.000Z</time>
      </trkpt>
      <trkpt lat="43.38184" lon="6.10957">
        <ele>299.142446</ele>
        <time>2025-04-25T09:14:48.000Z</time>
      </trkpt>
      <trkpt lat="43.38184" lon="6.10957">
        <ele>299.142446</ele>
        <time>2025-04-25T09:14:48.000Z</time>
      </trkpt>
      <trkpt lat="43.38185" lon="6.10947">
        <ele>298.900502</ele>
        <time>2025-04-25T09:14:49.000Z</time>
      </trkpt>
      <trkpt lat="43.38185" lon="6.10947">
        <ele>298.900502</ele>
        <time>2025-04-25T09:14:49.000Z</time>
      </trkpt>
      <trkpt lat="43.38187" lon="6.10937">
        <ele>298.667032</ele>
        <time>2025-04-25T09:14:50.000Z</time>
      </trkpt>
      <trkpt lat="43.38187" lon="6.10937">
        <ele>298.667032</ele>
        <time>2025-04-25T09:14:50.000Z</time>
      </trkpt>
      <trkpt lat="43.38188" lon="6.10929">
        <ele>298.459533</ele>
        <time>2025-04-25T09:14:51.000Z</time>
      </trkpt>
      <trkpt lat="43.38188" lon="6.10929">
        <ele>298.459533</ele>
        <time>2025-04-25T09:14:51.000Z</time>
      </trkpt>
      <trkpt lat="43.3819" lon="6.1092">
        <ele>298.242011</ele>
        <time>2025-04-25T09:14:52.000Z</time>
      </trkpt>
      <trkpt lat="43.3819" lon="6.1092">
        <ele>298.242011</ele>
        <time>2025-04-25T09:14:52.000Z</time>
      </trkpt>
      <trkpt lat="43.38192" lon="6.10911">
        <ele>298.031293</ele>
        <time>2025-04-25T09:14:53.000Z</time>
      </trkpt>
      <trkpt lat="43.38192" lon="6.10911">
        <ele>298.031293</ele>
        <time>2025-04-25T09:14:53.000Z</time>
      </trkpt>
      <trkpt lat="43.38193" lon="6.10903">
        <ele>297.838011</ele>
        <time>2025-04-25T09:14:54.000Z</time>
      </trkpt>
      <trkpt lat="43.38193" lon="6.10903">
        <ele>297.838011</ele>
        <time>2025-04-25T09:14:54.000Z</time>
      </trkpt>
      <trkpt lat="43.38194" lon="6.10896">
        <ele>297.668652</ele>
        <time>2025-04-25T09:14:55.000Z</time>
      </trkpt>
      <trkpt lat="43.38194" lon="6.10896">
        <ele>297.668652</ele>
        <time>2025-04-25T09:14:55.000Z</time>
      </trkpt>
      <trkpt lat="43.38197" lon="6.10892">
        <ele>297.532422</ele>
        <time>2025-04-25T09:14:56.000Z</time>
      </trkpt>
      <trkpt lat="43.38197" lon="6.10892">
        <ele>297.532422</ele>
        <time>2025-04-25T09:14:56.000Z</time>
      </trkpt>
      <trkpt lat="43.38199" lon="6.1089">
        <ele>297.440507</ele>
        <time>2025-04-25T09:14:57.000Z</time>
      </trkpt>
      <trkpt lat="43.38199" lon="6.1089">
        <ele>297.440507</ele>
        <time>2025-04-25T09:14:57.000Z</time>
      </trkpt>
      <trkpt lat="43.38203" lon="6.10889">
        <ele>297.312281</ele>
        <time>2025-04-25T09:14:58.000Z</time>
      </trkpt>
      <trkpt lat="43.38203" lon="6.10889">
        <ele>297.312281</ele>
        <time>2025-04-25T09:14:58.000Z</time>
      </trkpt>
      <trkpt lat="43.38208" lon="6.1089">
        <ele>297.151671</ele>
        <time>2025-04-25T09:14:59.000Z</time>
      </trkpt>
      <trkpt lat="43.38208" lon="6.1089">
        <ele>297.151671</ele>
        <time>2025-04-25T09:14:59.000Z</time>
      </trkpt>
      <trkpt lat="43.38213" lon="6.10892">
        <ele>296.983757</ele>
        <time>2025-04-25T09:15:00.000Z</time>
      </trkpt>
      <trkpt lat="43.38213" lon="6.10892">
        <ele>296.983757</ele>
        <time>2025-04-25T09:15:00.000Z</time>
      </trkpt>
      <trkpt lat="43.38219" lon="6.10894">
        <ele>296.779852</ele>
        <time>2025-04-25T09:15:01.000Z</time>
      </trkpt>
      <trkpt lat="43.38219" lon="6.10894">
        <ele>296.779852</ele>
        <time>2025-04-25T09:15:01.000Z</time>
      </trkpt>
      <trkpt lat="43.38226" lon="6.10896">
        <ele>296.561042</ele>
        <time>2025-04-25T09:15:02.000Z</time>
      </trkpt>
      <trkpt lat="43.38226" lon="6.10896">
        <ele>296.561042</ele>
        <time>2025-04-25T09:15:02.000Z</time>
      </trkpt>
      <trkpt lat="43.38232" lon="6.10898">
        <ele>296.334339</ele>
        <time>2025-04-25T09:15:03.000Z</time>
      </trkpt>
      <trkpt lat="43.38232" lon="6.10898">
        <ele>296.334339</ele>
        <time>2025-04-25T09:15:03.000Z</time>
      </trkpt>
      <trkpt lat="43.38239" lon="6.109">
        <ele>296.117191</ele>
        <time>2025-04-25T09:15:04.000Z</time>
      </trkpt>
      <trkpt lat="43.38239" lon="6.109">
        <ele>296.117191</ele>
        <time>2025-04-25T09:15:04.000Z</time>
      </trkpt>
      <trkpt lat="43.38245" lon="6.10902">
        <ele>295.914736</ele>
        <time>2025-04-25T09:15:05.000Z</time>
      </trkpt>
      <trkpt lat="43.38245" lon="6.10902">
        <ele>295.914736</ele>
        <time>2025-04-25T09:15:05.000Z</time>
      </trkpt>
      <trkpt lat="43.38252" lon="6.10903">
        <ele>295.700241</ele>
        <time>2025-04-25T09:15:05.000Z</time>
      </trkpt>
      <trkpt lat="43.38252" lon="6.10903">
        <ele>295.700241</ele>
        <time>2025-04-25T09:15:05.000Z</time>
      </trkpt>
      <trkpt lat="43.38257" lon="6.10904">
        <ele>295.511471</ele>
        <time>2025-04-25T09:15:07.000Z</time>
      </trkpt>
      <trkpt lat="43.38257" lon="6.10904">
        <ele>295.511471</ele>
        <time>2025-04-25T09:15:07.000Z</time>
      </trkpt>
      <trkpt lat="43.38264" lon="6.10906">
        <ele>295.296976</ele>
        <time>2025-04-25T09:15:07.000Z</time>
      </trkpt>
      <trkpt lat="43.38264" lon="6.10906">
        <ele>295.296976</ele>
        <time>2025-04-25T09:15:07.000Z</time>
      </trkpt>
      <trkpt lat="43.3827" lon="6.10907">
        <ele>295.106962</ele>
        <time>2025-04-25T09:15:09.000Z</time>
      </trkpt>
      <trkpt lat="43.3827" lon="6.10907">
        <ele>295.106962</ele>
        <time>2025-04-25T09:15:09.000Z</time>
      </trkpt>
      <trkpt lat="43.38275" lon="6.10908">
        <ele>295.027111</ele>
        <time>2025-04-25T09:15:09.000Z</time>
      </trkpt>
      <trkpt lat="43.38275" lon="6.10908">
        <ele>295.027111</ele>
        <time>2025-04-25T09:15:09.000Z</time>
      </trkpt>
      <trkpt lat="43.38282" lon="6.1091">
        <ele>294.929354</ele>
        <time>2025-04-25T09:15:11.000Z</time>
      </trkpt>
      <trkpt lat="43.38282" lon="6.1091">
        <ele>294.929354</ele>
        <time>2025-04-25T09:15:11.000Z</time>
      </trkpt>
      <trkpt lat="43.38288" lon="6.10911">
        <ele>294.837443</ele>
        <time>2025-04-25T09:15:12.000Z</time>
      </trkpt>
      <trkpt lat="43.38288" lon="6.10911">
        <ele>294.837443</ele>
        <time>2025-04-25T09:15:12.000Z</time>
      </trkpt>
      <trkpt lat="43.38294" lon="6.10913">
        <ele>294.745128</ele>
        <time>2025-04-25T09:15:13.000Z</time>
      </trkpt>
      <trkpt lat="43.38299" lon="6.10915">
        <ele>294.662963</ele>
        <time>2025-04-25T09:15:14.000Z</time>
      </trkpt>
      <trkpt lat="43.38299" lon="6.10915">
        <ele>294.662963</ele>
        <time>2025-04-25T09:15:14.000Z</time>
      </trkpt>
      <trkpt lat="43.38305" lon="6.10917">
        <ele>294.569952</ele>
        <time>2025-04-25T09:15:15.000Z</time>
      </trkpt>
      <trkpt lat="43.38305" lon="6.10917">
        <ele>294.569952</ele>
        <time>2025-04-25T09:15:15.000Z</time>
      </trkpt>
      <trkpt lat="43.38311" lon="6.10918">
        <ele>294.489471</ele>
        <time>2025-04-25T09:15:16.000Z</time>
      </trkpt>
      <trkpt lat="43.38316" lon="6.1092">
        <ele>294.407059</ele>
        <time>2025-04-25T09:15:16.000Z</time>
      </trkpt>
      <trkpt lat="43.38316" lon="6.1092">
        <ele>294.407059</ele>
        <time>2025-04-25T09:15:16.000Z</time>
      </trkpt>
      <trkpt lat="43.38321" lon="6.10922">
        <ele>294.337241</ele>
        <time>2025-04-25T09:15:18.000Z</time>
      </trkpt>
      <trkpt lat="43.38321" lon="6.10922">
        <ele>294.337241</ele>
        <time>2025-04-25T09:15:18.000Z</time>
      </trkpt>
      <trkpt lat="43.38326" lon="6.10924">
        <ele>294.254569</ele>
        <time>2025-04-25T09:15:19.000Z</time>
      </trkpt>
      <trkpt lat="43.38331" lon="6.10925">
        <ele>294.174312</ele>
        <time>2025-04-25T09:15:20.000Z</time>
      </trkpt>
      <trkpt lat="43.38331" lon="6.10925">
        <ele>294.174312</ele>
        <time>2025-04-25T09:15:20.000Z</time>
      </trkpt>
      <trkpt lat="43.38336" lon="6.10927">
        <ele>294.098407</ele>
        <time>2025-04-25T09:15:21.000Z</time>
      </trkpt>
      <trkpt lat="43.3834" lon="6.10928">
        <ele>294.046838</ele>
        <time>2025-04-25T09:15:22.000Z</time>
      </trkpt>
      <trkpt lat="43.3834" lon="6.10928">
        <ele>294.046838</ele>
        <time>2025-04-25T09:15:22.000Z</time>
      </trkpt>
      <trkpt lat="43.38344" lon="6.10929">
        <ele>293.983213</ele>
        <time>2025-04-25T09:15:23.000Z</time>
      </trkpt>
      <trkpt lat="43.38349" lon="6.1093">
        <ele>293.907739</ele>
        <time>2025-04-25T09:15:24.000Z</time>
      </trkpt>
      <trkpt lat="43.38349" lon="6.1093">
        <ele>293.907739</ele>
        <time>2025-04-25T09:15:24.000Z</time>
      </trkpt>
      <trkpt lat="43.38353" lon="6.10932">
        <ele>293.844114</ele>
        <time>2025-04-25T09:15:25.000Z</time>
      </trkpt>
      <trkpt lat="43.38358" lon="6.10933">
        <ele>293.764263</ele>
        <time>2025-04-25T09:15:26.000Z</time>
      </trkpt>
      <trkpt lat="43.38365" lon="6.10935">
        <ele>293.666321</ele>
        <time>2025-04-25T09:15:27.000Z</time>
      </trkpt>
      <trkpt lat="43.38365" lon="6.10935">
        <ele>293.666321</ele>
        <time>2025-04-25T09:15:27.000Z</time>
      </trkpt>
      <trkpt lat="43.38372" lon="6.10936">
        <ele>293.562535</ele>
        <time>2025-04-25T09:15:28.000Z</time>
      </trkpt>
      <trkpt lat="43.38379" lon="6.10938">
        <ele>293.453587</ele>
        <time>2025-04-25T09:15:29.000Z</time>
      </trkpt>
      <trkpt lat="43.38385" lon="6.1094">
        <ele>293.367079</ele>
        <time>2025-04-25T09:15:30.000Z</time>
      </trkpt>
      <trkpt lat="43.38391" lon="6.10942">
        <ele>293.268942</ele>
        <time>2025-04-25T09:15:31.000Z</time>
      </trkpt>
      <trkpt lat="43.38391" lon="6.10942">
        <ele>293.268942</ele>
        <time>2025-04-25T09:15:31.000Z</time>
      </trkpt>
      <trkpt lat="43.38396" lon="6.10943">
        <ele>293.193468</ele>
        <time>2025-04-25T09:15:32.000Z</time>
      </trkpt>
      <trkpt lat="43.38401" lon="6.10944">
        <ele>293.113617</ele>
        <time>2025-04-25T09:15:33.000Z</time>
      </trkpt>
      <trkpt lat="43.38407" lon="6.10945">
        <ele>293.027919</ele>
        <time>2025-04-25T09:15:34.000Z</time>
      </trkpt>
      <trkpt lat="43.38412" lon="6.10946">
        <ele>292.952977</ele>
        <time>2025-04-25T09:15:35.000Z</time>
      </trkpt>
      <trkpt lat="43.38417" lon="6.10948">
        <ele>292.87272</ele>
        <time>2025-04-25T09:15:36.000Z</time>
      </trkpt>
      <trkpt lat="43.38423" lon="6.10949">
        <ele>292.785186</ele>
        <time>2025-04-25T09:15:37.000Z</time>
      </trkpt>
      <trkpt lat="43.38429" lon="6.10951">
        <ele>292.705335</ele>
        <time>2025-04-25T09:15:38.000Z</time>
      </trkpt>
      <trkpt lat="43.38429" lon="6.10951">
        <ele>292.705335</ele>
        <time>2025-04-25T09:15:38.000Z</time>
      </trkpt>
      <trkpt lat="43.38433" lon="6.10952">
        <ele>292.635681</ele>
        <time>2025-04-25T09:15:39.000Z</time>
      </trkpt>
      <trkpt lat="43.38439" lon="6.10953">
        <ele>292.549983</ele>
        <time>2025-04-25T09:15:40.000Z</time>
      </trkpt>
      <trkpt lat="43.38443" lon="6.10954">
        <ele>292.480908</ele>
        <time>2025-04-25T09:15:41.000Z</time>
      </trkpt>
      <trkpt lat="43.38449" lon="6.10956">
        <ele>292.49545</ele>
        <time>2025-04-25T09:15:42.000Z</time>
      </trkpt>
      <trkpt lat="43.38454" lon="6.10956">
        <ele>292.561062</ele>
        <time>2025-04-25T09:15:43.000Z</time>
      </trkpt>
      <trkpt lat="43.38459" lon="6.10957">
        <ele>292.625705</ele>
        <time>2025-04-25T09:15:44.000Z</time>
      </trkpt>
      <trkpt lat="43.38464" lon="6.10957">
        <ele>292.691379</ele>
        <time>2025-04-25T09:15:45.000Z</time>
      </trkpt>
      <trkpt lat="43.38464" lon="6.10957">
        <ele>292.691379</ele>
        <time>2025-04-25T09:15:45.000Z</time>
      </trkpt>
      <trkpt lat="43.38469" lon="6.10958">
        <ele>292.751911</ele>
        <time>2025-04-25T09:15:46.000Z</time>
      </trkpt>
      <trkpt lat="43.38474" lon="6.10958">
        <ele>292.821578</ele>
        <time>2025-04-25T09:15:47.000Z</time>
      </trkpt>
      <trkpt lat="43.38479" lon="6.10959">
        <ele>292.885946</ele>
        <time>2025-04-25T09:15:48.000Z</time>
      </trkpt>
      <trkpt lat="43.38484" lon="6.10959">
        <ele>292.956848</ele>
        <time>2025-04-25T09:15:49.000Z</time>
      </trkpt>
      <trkpt lat="43.38489" lon="6.1096">
        <ele>293.017716</ele>
        <time>2025-04-25T09:15:50.000Z</time>
      </trkpt>
      <trkpt lat="43.38493" lon="6.10961">
        <ele>293.07314</ele>
        <time>2025-04-25T09:15:51.000Z</time>
      </trkpt>
      <trkpt lat="43.38498" lon="6.10962">
        <ele>293.133015</ele>
        <time>2025-04-25T09:15:52.000Z</time>
      </trkpt>
      <trkpt lat="43.38502" lon="6.10963">
        <ele>293.189411</ele>
        <time>2025-04-25T09:15:53.000Z</time>
      </trkpt>
      <trkpt lat="43.38506" lon="6.10965">
        <ele>293.241565</ele>
        <time>2025-04-25T09:15:54.000Z</time>
      </trkpt>
      <trkpt lat="43.38509" lon="6.10965">
        <ele>293.292079</ele>
        <time>2025-04-25T09:15:55.000Z</time>
      </trkpt>
      <trkpt lat="43.38509" lon="6.10965">
        <ele>293.292079</ele>
        <time>2025-04-25T09:15:55.000Z</time>
      </trkpt>
      <trkpt lat="43.38514" lon="6.10966">
        <ele>293.347625</ele>
        <time>2025-04-25T09:15:56.000Z</time>
      </trkpt>
      <trkpt lat="43.38516" lon="6.10967">
        <ele>293.382332</ele>
        <time>2025-04-25T09:15:57.000Z</time>
      </trkpt>
      <trkpt lat="43.3852" lon="6.10968">
        <ele>293.435134</ele>
        <time>2025-04-25T09:15:58.000Z</time>
      </trkpt>
      <trkpt lat="43.38523" lon="6.1097">
        <ele>293.476062</ele>
        <time>2025-04-25T09:15:59.000Z</time>
      </trkpt>
      <trkpt lat="43.38523" lon="6.1097">
        <ele>293.476062</ele>
        <time>2025-04-25T09:15:59.000Z</time>
      </trkpt>
      <trkpt lat="43.38527" lon="6.10972">
        <ele>293.534285</ele>
        <time>2025-04-25T09:16:00.000Z</time>
      </trkpt>
      <trkpt lat="43.38531" lon="6.10973">
        <ele>293.582009</ele>
        <time>2025-04-25T09:16:01.000Z</time>
      </trkpt>
      <trkpt lat="43.38536" lon="6.10976">
        <ele>293.651075</ele>
        <time>2025-04-25T09:16:02.000Z</time>
      </trkpt>
      <trkpt lat="43.38536" lon="6.10976">
        <ele>293.651075</ele>
        <time>2025-04-25T09:16:02.000Z</time>
      </trkpt>
      <trkpt lat="43.3854" lon="6.10978">
        <ele>293.704041</ele>
        <time>2025-04-25T09:16:03.000Z</time>
      </trkpt>
      <trkpt lat="43.38544" lon="6.1098">
        <ele>293.763618</ele>
        <time>2025-04-25T09:16:04.000Z</time>
      </trkpt>
      <trkpt lat="43.38548" lon="6.10982">
        <ele>293.818394</ele>
        <time>2025-04-25T09:16:05.000Z</time>
      </trkpt>
      <trkpt lat="43.38548" lon="6.10982">
        <ele>293.818394</ele>
        <time>2025-04-25T09:16:05.000Z</time>
      </trkpt>
      <trkpt lat="43.38551" lon="6.10984">
        <ele>293.87204</ele>
        <time>2025-04-25T09:16:06.000Z</time>
      </trkpt>
      <trkpt lat="43.38555" lon="6.10986">
        <ele>293.9241</ele>
        <time>2025-04-25T09:16:07.000Z</time>
      </trkpt>
      <trkpt lat="43.38559" lon="6.10987">
        <ele>293.979646</ele>
        <time>2025-04-25T09:16:08.000Z</time>
      </trkpt>
      <trkpt lat="43.38559" lon="6.10987">
        <ele>293.979646</ele>
        <time>2025-04-25T09:16:08.000Z</time>
      </trkpt>
      <trkpt lat="43.38564" lon="6.10987">
        <ele>294.034799</ele>
        <time>2025-04-25T09:16:09.000Z</time>
      </trkpt>
      <trkpt lat="43.38568" lon="6.10987">
        <ele>294.089829</ele>
        <time>2025-04-25T09:16:10.000Z</time>
      </trkpt>
      <trkpt lat="43.38572" lon="6.10987">
        <ele>294.140956</ele>
        <time>2025-04-25T09:16:11.000Z</time>
      </trkpt>
      <trkpt lat="43.38572" lon="6.10987">
        <ele>294.140956</ele>
        <time>2025-04-25T09:16:11.000Z</time>
      </trkpt>
      <trkpt lat="43.38576" lon="6.10987">
        <ele>294.194803</ele>
        <time>2025-04-25T09:16:12.000Z</time>
      </trkpt>
      <trkpt lat="43.3858" lon="6.10986">
        <ele>294.249899</ele>
        <time>2025-04-25T09:16:13.000Z</time>
      </trkpt>
      <trkpt lat="43.3858" lon="6.10986">
        <ele>294.249899</ele>
        <time>2025-04-25T09:16:13.000Z</time>
      </trkpt>
      <trkpt lat="43.38583" lon="6.10986">
        <ele>294.295789</ele>
        <time>2025-04-25T09:16:14.000Z</time>
      </trkpt>
      <trkpt lat="43.38586" lon="6.10986">
        <ele>294.335137</ele>
        <time>2025-04-25T09:16:15.000Z</time>
      </trkpt>
      <trkpt lat="43.38586" lon="6.10986">
        <ele>294.335137</ele>
        <time>2025-04-25T09:16:15.000Z</time>
      </trkpt>
      <trkpt lat="43.3859" lon="6.10986">
        <ele>294.384955</ele>
        <time>2025-04-25T09:16:16.000Z</time>
      </trkpt>
      <trkpt lat="43.38594" lon="6.10985">
        <ele>294.436082</ele>
        <time>2025-04-25T09:16:17.000Z</time>
      </trkpt>
      <trkpt lat="43.38594" lon="6.10985">
        <ele>294.436082</ele>
        <time>2025-04-25T09:16:17.000Z</time>
      </trkpt>
      <trkpt lat="43.38598" lon="6.10985">
        <ele>294.489827</ele>
        <time>2025-04-25T09:16:18.000Z</time>
      </trkpt>
      <trkpt lat="43.38602" lon="6.10985">
        <ele>294.540918</ele>
        <time>2025-04-25T09:16:19.000Z</time>
      </trkpt>
      <trkpt lat="43.38602" lon="6.10985">
        <ele>294.540918</ele>
        <time>2025-04-25T09:16:19.000Z</time>
      </trkpt>
      <trkpt lat="43.38606" lon="6.10986">
        <ele>294.591027</ele>
        <time>2025-04-25T09:16:20.000Z</time>
      </trkpt>
      <trkpt lat="43.38606" lon="6.10986">
        <ele>294.591027</ele>
        <time>2025-04-25T09:16:20.000Z</time>
      </trkpt>
      <trkpt lat="43.38609" lon="6.10987">
        <ele>294.637519</ele>
        <time>2025-04-25T09:16:21.000Z</time>
      </trkpt>
      <trkpt lat="43.38614" lon="6.1099">
        <ele>294.697097</ele>
        <time>2025-04-25T09:16:21.000Z</time>
      </trkpt>
      <trkpt lat="43.38614" lon="6.1099">
        <ele>294.697097</ele>
        <time>2025-04-25T09:16:21.000Z</time>
      </trkpt>
      <trkpt lat="43.38617" lon="6.10992">
        <ele>294.747157</ele>
        <time>2025-04-25T09:16:23.000Z</time>
      </trkpt>
      <trkpt lat="43.3862" lon="6.10995">
        <ele>294.795736</ele>
        <time>2025-04-25T09:16:24.000Z</time>
      </trkpt>
      <trkpt lat="43.3862" lon="6.10995">
        <ele>294.795736</ele>
        <time>2025-04-25T09:16:24.000Z</time>
      </trkpt>
      <trkpt lat="43.38623" lon="6.10998">
        <ele>294.825453</ele>
        <time>2025-04-25T09:16:25.000Z</time>
      </trkpt>
      <trkpt lat="43.38623" lon="6.10998">
        <ele>294.825453</ele>
        <time>2025-04-25T09:16:25.000Z</time>
      </trkpt>
      <trkpt lat="43.38627" lon="6.11001">
        <ele>294.852285</ele>
        <time>2025-04-25T09:16:26.000Z</time>
      </trkpt>
      <trkpt lat="43.3863" lon="6.11003">
        <ele>294.874923</ele>
        <time>2025-04-25T09:16:27.000Z</time>
      </trkpt>
      <trkpt lat="43.3863" lon="6.11003">
        <ele>294.874923</ele>
        <time>2025-04-25T09:16:27.000Z</time>
      </trkpt>
      <trkpt lat="43.38633" lon="6.11004">
        <ele>294.895365</ele>
        <time>2025-04-25T09:16:28.000Z</time>
      </trkpt>
      <trkpt lat="43.38635" lon="6.11004">
        <ele>294.908196</ele>
        <time>2025-04-25T09:16:29.000Z</time>
      </trkpt>
      <trkpt lat="43.38635" lon="6.11004">
        <ele>294.908196</ele>
        <time>2025-04-25T09:16:29.000Z</time>
      </trkpt>
      <trkpt lat="43.38638" lon="6.11001">
        <ele>294.929902</ele>
        <time>2025-04-25T09:16:30.000Z</time>
      </trkpt>
      <trkpt lat="43.38641" lon="6.10999">
        <ele>294.951571</ele>
        <time>2025-04-25T09:16:31.000Z</time>
      </trkpt>
      <trkpt lat="43.38644" lon="6.10998">
        <ele>294.969235</ele>
        <time>2025-04-25T09:16:31.000Z</time>
      </trkpt>
      <trkpt lat="43.38644" lon="6.10998">
        <ele>294.969235</ele>
        <time>2025-04-25T09:16:31.000Z</time>
      </trkpt>
      <trkpt lat="43.38648" lon="6.10997">
        <ele>294.994485</ele>
        <time>2025-04-25T09:16:32.000Z</time>
      </trkpt>
      <trkpt lat="43.38651" lon="6.10997">
        <ele>295.016215</ele>
        <time>2025-04-25T09:16:33.000Z</time>
      </trkpt>
      <trkpt lat="43.38654" lon="6.10997">
        <ele>295.037944</ele>
        <time>2025-04-25T09:16:35.000Z</time>
      </trkpt>
      <trkpt lat="43.38657" lon="6.10996">
        <ele>295.056904</ele>
        <time>2025-04-25T09:16:36.000Z</time>
      </trkpt>
      <trkpt lat="43.38657" lon="6.10996">
        <ele>295.056904</ele>
        <time>2025-04-25T09:16:36.000Z</time>
      </trkpt>
      <trkpt lat="43.38659" lon="6.10992">
        <ele>295.0788</ele>
        <time>2025-04-25T09:16:37.000Z</time>
      </trkpt>
      <trkpt lat="43.3866" lon="6.10988">
        <ele>295.099954</ele>
        <time>2025-04-25T09:16:37.000Z</time>
      </trkpt>
      <trkpt lat="43.38661" lon="6.10982">
        <ele>295.125982</ele>
        <time>2025-04-25T09:16:39.000Z</time>
      </trkpt>
      <trkpt lat="43.38662" lon="6.10976">
        <ele>295.153377</ele>
        <time>2025-04-25T09:16:40.000Z</time>
      </trkpt>
      <trkpt lat="43.38663" lon="6.1097">
        <ele>295.181576</ele>
        <time>2025-04-25T09:16:41.000Z</time>
      </trkpt>
      <trkpt lat="43.38663" lon="6.1097">
        <ele>295.181576</ele>
        <time>2025-04-25T09:16:41.000Z</time>
      </trkpt>
      <trkpt lat="43.38664" lon="6.10965">
        <ele>295.209559</ele>
        <time>2025-04-25T09:16:42.000Z</time>
      </trkpt>
      <trkpt lat="43.38665" lon="6.10958">
        <ele>295.239592</ele>
        <time>2025-04-25T09:16:43.000Z</time>
      </trkpt>
      <trkpt lat="43.38666" lon="6.10952">
        <ele>295.271878</ele>
        <time>2025-04-25T09:16:44.000Z</time>
      </trkpt>
      <trkpt lat="43.38668" lon="6.10945">
        <ele>295.303967</ele>
        <time>2025-04-25T09:16:45.000Z</time>
      </trkpt>
      <trkpt lat="43.38669" lon="6.10938">
        <ele>295.338108</ele>
        <time>2025-04-25T09:16:46.000Z</time>
      </trkpt>
      <trkpt lat="43.3867" lon="6.10931">
        <ele>295.3687</ele>
        <time>2025-04-25T09:16:47.000Z</time>
      </trkpt>
      <trkpt lat="43.38671" lon="6.10924">
        <ele>295.402841</ele>
        <time>2025-04-25T09:16:48.000Z</time>
      </trkpt>
      <trkpt lat="43.38672" lon="6.10918">
        <ele>295.435126</ele>
        <time>2025-04-25T09:16:49.000Z</time>
      </trkpt>
      <trkpt lat="43.38674" lon="6.10911">
        <ele>295.468068</ele>
        <time>2025-04-25T09:16:50.000Z</time>
      </trkpt>
      <trkpt lat="43.38676" lon="6.10905">
        <ele>295.499719</ele>
        <time>2025-04-25T09:16:51.000Z</time>
      </trkpt>
      <trkpt lat="43.38678" lon="6.10898">
        <ele>295.534945</ele>
        <time>2025-04-25T09:16:52.000Z</time>
      </trkpt>
      <trkpt lat="43.38681" lon="6.10891">
        <ele>295.568911</ele>
        <time>2025-04-25T09:16:52.000Z</time>
      </trkpt>
      <trkpt lat="43.38683" lon="6.10885">
        <ele>295.599281</ele>
        <time>2025-04-25T09:16:54.000Z</time>
      </trkpt>
      <trkpt lat="43.38685" lon="6.1088">
        <ele>295.625876</ele>
        <time>2025-04-25T09:16:55.000Z</time>
      </trkpt>
      <trkpt lat="43.38686" lon="6.10875">
        <ele>295.651453</ele>
        <time>2025-04-25T09:16:56.000Z</time>
      </trkpt>
      <trkpt lat="43.38687" lon="6.10869">
        <ele>295.678545</ele>
        <time>2025-04-25T09:16:57.000Z</time>
      </trkpt>
      <trkpt lat="43.38688" lon="6.10863">
        <ele>295.705912</ele>
        <time>2025-04-25T09:16:58.000Z</time>
      </trkpt>
      <trkpt lat="43.38689" lon="6.10858">
        <ele>295.731489</ele>
        <time>2025-04-25T09:16:59.000Z</time>
      </trkpt>
      <trkpt lat="43.38689" lon="6.10853">
        <ele>295.755292</ele>
        <time>2025-04-25T09:17:00.000Z</time>
      </trkpt>
      <trkpt lat="43.3869" lon="6.10847">
        <ele>295.781775</ele>
        <time>2025-04-25T09:17:01.000Z</time>
      </trkpt>
      <trkpt lat="43.38691" lon="6.10842">
        <ele>295.809142</ele>
        <time>2025-04-25T09:17:01.000Z</time>
      </trkpt>
      <trkpt lat="43.38692" lon="6.10837">
        <ele>295.833353</ele>
        <time>2025-04-25T09:17:03.000Z</time>
      </trkpt>
      <trkpt lat="43.38694" lon="6.10831">
        <ele>295.863723</ele>
        <time>2025-04-25T09:17:03.000Z</time>
      </trkpt>
      <trkpt lat="43.38697" lon="6.10825">
        <ele>295.893379</ele>
        <time>2025-04-25T09:17:05.000Z</time>
      </trkpt>
      <trkpt lat="43.387" lon="6.1082">
        <ele>295.92492</ele>
        <time>2025-04-25T09:17:06.000Z</time>
      </trkpt>
      <trkpt lat="43.38703" lon="6.10815">
        <ele>295.952718</ele>
        <time>2025-04-25T09:17:07.000Z</time>
      </trkpt>
      <trkpt lat="43.38706" lon="6.10812">
        <ele>295.942753</ele>
        <time>2025-04-25T09:17:08.000Z</time>
      </trkpt>
      <trkpt lat="43.38709" lon="6.10808">
        <ele>295.931459</ele>
        <time>2025-04-25T09:17:09.000Z</time>
      </trkpt>
      <trkpt lat="43.38714" lon="6.10805">
        <ele>295.919094</ele>
        <time>2025-04-25T09:17:10.000Z</time>
      </trkpt>
      <trkpt lat="43.38718" lon="6.10803">
        <ele>295.906495</ele>
        <time>2025-04-25T09:17:11.000Z</time>
      </trkpt>
      <trkpt lat="43.38722" lon="6.10799">
        <ele>295.89491</ele>
        <time>2025-04-25T09:17:12.000Z</time>
      </trkpt>
      <trkpt lat="43.38722" lon="6.10799">
        <ele>295.89491</ele>
        <time>2025-04-25T09:17:12.000Z</time>
      </trkpt>
      <trkpt lat="43.38726" lon="6.10795">
        <ele>295.881648</ele>
        <time>2025-04-25T09:17:13.000Z</time>
      </trkpt>
      <trkpt lat="43.3873" lon="6.1079">
        <ele>295.868998</ele>
        <time>2025-04-25T09:17:13.000Z</time>
      </trkpt>
      <trkpt lat="43.38732" lon="6.10785">
        <ele>295.858447</ele>
        <time>2025-04-25T09:17:15.000Z</time>
      </trkpt>
      <trkpt lat="43.38734" lon="6.10779">
        <ele>295.846565</ele>
        <time>2025-04-25T09:17:16.000Z</time>
      </trkpt>
      <trkpt lat="43.38734" lon="6.10779">
        <ele>295.846565</ele>
        <time>2025-04-25T09:17:16.000Z</time>
      </trkpt>
      <trkpt lat="43.38738" lon="6.10769">
        <ele>295.825935</ele>
        <time>2025-04-25T09:17:17.000Z</time>
      </trkpt>
      <trkpt lat="43.3874" lon="6.10769">
        <ele>295.820996</ele>
        <time>2025-04-25T09:17:19.000Z</time>
      </trkpt>
      <trkpt lat="43.38743" lon="6.10768">
        <ele>295.813028</ele>
        <time>2025-04-25T09:17:20.000Z</time>
      </trkpt>
      <trkpt lat="43.38746" lon="6.10766">
        <ele>295.803427</ele>
        <time>2025-04-25T09:17:21.000Z</time>
      </trkpt>
      <trkpt lat="43.38746" lon="6.10766">
        <ele>295.803427</ele>
        <time>2025-04-25T09:17:21.000Z</time>
      </trkpt>
      <trkpt lat="43.38749" lon="6.10764">
        <ele>295.794981</ele>
        <time>2025-04-25T09:17:21.000Z</time>
      </trkpt>
      <trkpt lat="43.38752" lon="6.10763">
        <ele>295.787898</ele>
        <time>2025-04-25T09:17:23.000Z</time>
      </trkpt>
      <trkpt lat="43.38752" lon="6.10763">
        <ele>295.787898</ele>
        <time>2025-04-25T09:17:23.000Z</time>
      </trkpt>
      <trkpt lat="43.38755" lon="6.10762">
        <ele>295.780859</ele>
        <time>2025-04-25T09:17:24.000Z</time>
      </trkpt>
      <trkpt lat="43.38758" lon="6.10761">
        <ele>295.772051</ele>
        <time>2025-04-25T09:17:25.000Z</time>
      </trkpt>
      <trkpt lat="43.38758" lon="6.10761">
        <ele>295.772051</ele>
        <time>2025-04-25T09:17:25.000Z</time>
      </trkpt>
      <trkpt lat="43.38761" lon="6.1076">
        <ele>295.765091</ele>
        <time>2025-04-25T09:17:26.000Z</time>
      </trkpt>
      <trkpt lat="43.38761" lon="6.1076">
        <ele>295.765091</ele>
        <time>2025-04-25T09:17:26.000Z</time>
      </trkpt>
      <trkpt lat="43.38763" lon="6.10759">
        <ele>295.75963</ele>
        <time>2025-04-25T09:17:27.000Z</time>
      </trkpt>
      <trkpt lat="43.38765" lon="6.10755">
        <ele>295.752022</ele>
        <time>2025-04-25T09:17:28.000Z</time>
      </trkpt>
      <trkpt lat="43.38765" lon="6.10755">
        <ele>295.752022</ele>
        <time>2025-04-25T09:17:28.000Z</time>
      </trkpt>
      <trkpt lat="43.38766" lon="6.10751">
        <ele>295.743735</ele>
        <time>2025-04-25T09:17:28.000Z</time>
      </trkpt>
      <trkpt lat="43.38766" lon="6.10751">
        <ele>295.743735</ele>
        <time>2025-04-25T09:17:28.000Z</time>
      </trkpt>
      <trkpt lat="43.38768" lon="6.10747">
        <ele>295.733672</ele>
        <time>2025-04-25T09:17:30.000Z</time>
      </trkpt>
      <trkpt lat="43.3877" lon="6.10742">
        <ele>295.724052</ele>
        <time>2025-04-25T09:17:31.000Z</time>
      </trkpt>
      <trkpt lat="43.3877" lon="6.10742">
        <ele>295.724052</ele>
        <time>2025-04-25T09:17:31.000Z</time>
      </trkpt>
      <trkpt lat="43.3877" lon="6.10736">
        <ele>295.713545</ele>
        <time>2025-04-25T09:17:32.000Z</time>
      </trkpt>
      <trkpt lat="43.38771" lon="6.10732">
        <ele>295.704836</ele>
        <time>2025-04-25T09:17:33.000Z</time>
      </trkpt>
      <trkpt lat="43.38772" lon="6.10727">
        <ele>295.696003</ele>
        <time>2025-04-25T09:17:34.000Z</time>
      </trkpt>
      <trkpt lat="43.38773" lon="6.10722">
        <ele>295.686937</ele>
        <time>2025-04-25T09:17:34.000Z</time>
      </trkpt>
      <trkpt lat="43.38773" lon="6.10717">
        <ele>295.677562</ele>
        <time>2025-04-25T09:17:36.000Z</time>
      </trkpt>
      <trkpt lat="43.38773" lon="6.10717">
        <ele>295.677562</ele>
        <time>2025-04-25T09:17:36.000Z</time>
      </trkpt>
      <trkpt lat="43.38775" lon="6.10712">
        <ele>295.667517</ele>
        <time>2025-04-25T09:17:37.000Z</time>
      </trkpt>
      <trkpt lat="43.38776" lon="6.10707">
        <ele>295.658075</ele>
        <time>2025-04-25T09:17:37.000Z</time>
      </trkpt>
      <trkpt lat="43.38776" lon="6.10702">
        <ele>295.648649</ele>
        <time>2025-04-25T09:17:39.000Z</time>
      </trkpt>
      <trkpt lat="43.38776" lon="6.10702">
        <ele>295.648649</ele>
        <time>2025-04-25T09:17:39.000Z</time>
      </trkpt>
      <trkpt lat="43.38777" lon="6.10697">
        <ele>295.64012</ele>
        <time>2025-04-25T09:17:40.000Z</time>
      </trkpt>
      <trkpt lat="43.38778" lon="6.10693">
        <ele>295.630678</ele>
        <time>2025-04-25T09:17:41.000Z</time>
      </trkpt>
      <trkpt lat="43.38779" lon="6.10687">
        <ele>295.62053</ele>
        <time>2025-04-25T09:17:42.000Z</time>
      </trkpt>
      <trkpt lat="43.38781" lon="6.10681">
        <ele>295.608209</ele>
        <time>2025-04-25T09:17:43.000Z</time>
      </trkpt>
      <trkpt lat="43.38783" lon="6.10675">
        <ele>295.596352</ele>
        <time>2025-04-25T09:17:43.000Z</time>
      </trkpt>
      <trkpt lat="43.38783" lon="6.10675">
        <ele>295.596352</ele>
        <time>2025-04-25T09:17:43.000Z</time>
      </trkpt>
      <trkpt lat="43.38784" lon="6.10669">
        <ele>295.584844</ele>
        <time>2025-04-25T09:17:45.000Z</time>
      </trkpt>
      <trkpt lat="43.38786" lon="6.10663">
        <ele>295.57351</ele>
        <time>2025-04-25T09:17:46.000Z</time>
      </trkpt>
      <trkpt lat="43.38788" lon="6.10658">
        <ele>295.561797</ele>
        <time>2025-04-25T09:17:47.000Z</time>
      </trkpt>
      <trkpt lat="43.38789" lon="6.10652">
        <ele>295.55089</ele>
        <time>2025-04-25T09:17:48.000Z</time>
      </trkpt>
      <trkpt lat="43.38789" lon="6.10652">
        <ele>295.55089</ele>
        <time>2025-04-25T09:17:48.000Z</time>
      </trkpt>
      <trkpt lat="43.38791" lon="6.10647">
        <ele>295.540074</ele>
        <time>2025-04-25T09:17:49.000Z</time>
      </trkpt>
      <trkpt lat="43.38792" lon="6.10642">
        <ele>295.531187</ele>
        <time>2025-04-25T09:17:49.000Z</time>
      </trkpt>
      <trkpt lat="43.38792" lon="6.10638">
        <ele>295.523969</ele>
        <time>2025-04-25T09:17:51.000Z</time>
      </trkpt>
      <trkpt lat="43.38793" lon="6.10635">
        <ele>295.517214</ele>
        <time>2025-04-25T09:17:51.000Z</time>
      </trkpt>
      <trkpt lat="43.38794" lon="6.10631">
        <ele>295.510175</ele>
        <time>2025-04-25T09:17:53.000Z</time>
      </trkpt>
      <trkpt lat="43.38794" lon="6.10631">
        <ele>295.510175</ele>
        <time>2025-04-25T09:17:53.000Z</time>
      </trkpt>
      <trkpt lat="43.38795" lon="6.10626">
        <ele>295.501108</ele>
        <time>2025-04-25T09:17:54.000Z</time>
      </trkpt>
      <trkpt lat="43.38796" lon="6.1062">
        <ele>295.61354</ele>
        <time>2025-04-25T09:17:55.000Z</time>
      </trkpt>
      <trkpt lat="43.38796" lon="6.1062">
        <ele>295.61354</ele>
        <time>2025-04-25T09:17:55.000Z</time>
      </trkpt>
      <trkpt lat="43.38797" lon="6.10614">
        <ele>295.775298</ele>
        <time>2025-04-25T09:17:56.000Z</time>
      </trkpt>
      <trkpt lat="43.38799" lon="6.10609">
        <ele>295.938996</ele>
        <time>2025-04-25T09:17:57.000Z</time>
      </trkpt>
      <trkpt lat="43.388" lon="6.10603">
        <ele>296.109154</ele>
        <time>2025-04-25T09:17:57.000Z</time>
      </trkpt>
      <trkpt lat="43.388" lon="6.10603">
        <ele>296.109154</ele>
        <time>2025-04-25T09:17:57.000Z</time>
      </trkpt>
      <trkpt lat="43.38802" lon="6.10597">
        <ele>296.278667</ele>
        <time>2025-04-25T09:17:59.000Z</time>
      </trkpt>
      <trkpt lat="43.38802" lon="6.10597">
        <ele>296.278667</ele>
        <time>2025-04-25T09:17:59.000Z</time>
      </trkpt>
      <trkpt lat="43.38803" lon="6.10592">
        <ele>296.427212</ele>
        <time>2025-04-25T09:17:59.000Z</time>
      </trkpt>
      <trkpt lat="43.38805" lon="6.10587">
        <ele>296.59091</ele>
        <time>2025-04-25T09:18:01.000Z</time>
      </trkpt>
      <trkpt lat="43.38805" lon="6.10587">
        <ele>296.59091</ele>
        <time>2025-04-25T09:18:01.000Z</time>
      </trkpt>
      <trkpt lat="43.38806" lon="6.10581">
        <ele>296.758953</ele>
        <time>2025-04-25T09:18:01.000Z</time>
      </trkpt>
      <trkpt lat="43.38806" lon="6.10581">
        <ele>296.758953</ele>
        <time>2025-04-25T09:18:01.000Z</time>
      </trkpt>
      <trkpt lat="43.38807" lon="6.10575">
        <ele>296.920711</ele>
        <time>2025-04-25T09:18:03.000Z</time>
      </trkpt>
      <trkpt lat="43.38807" lon="6.10575">
        <ele>296.920711</ele>
        <time>2025-04-25T09:18:03.000Z</time>
      </trkpt>
      <trkpt lat="43.38808" lon="6.1057">
        <ele>297.058458</ele>
        <time>2025-04-25T09:18:04.000Z</time>
      </trkpt>
      <trkpt lat="43.38808" lon="6.10565">
        <ele>297.196427</ele>
        <time>2025-04-25T09:18:05.000Z</time>
      </trkpt>
      <trkpt lat="43.38808" lon="6.10565">
        <ele>297.196427</ele>
        <time>2025-04-25T09:18:05.000Z</time>
      </trkpt>
      <trkpt lat="43.38808" lon="6.10561">
        <ele>297.306721</ele>
        <time>2025-04-25T09:18:06.000Z</time>
      </trkpt>
      <trkpt lat="43.38808" lon="6.10561">
        <ele>297.306721</ele>
        <time>2025-04-25T09:18:06.000Z</time>
      </trkpt>
      <trkpt lat="43.38809" lon="6.10558">
        <ele>297.404742</ele>
        <time>2025-04-25T09:18:07.000Z</time>
      </trkpt>
      <trkpt lat="43.38809" lon="6.10558">
        <ele>297.404742</ele>
        <time>2025-04-25T09:18:07.000Z</time>
      </trkpt>
      <trkpt lat="43.3881" lon="6.10555">
        <ele>297.501079</ele>
        <time>2025-04-25T09:18:08.000Z</time>
      </trkpt>
      <trkpt lat="43.38812" lon="6.1055">
        <ele>297.626113</ele>
        <time>2025-04-25T09:18:08.000Z</time>
      </trkpt>
      <trkpt lat="43.38812" lon="6.1055">
        <ele>297.626113</ele>
        <time>2025-04-25T09:18:08.000Z</time>
      </trkpt>
      <trkpt lat="43.38813" lon="6.10546">
        <ele>297.761545</ele>
        <time>2025-04-25T09:18:10.000Z</time>
      </trkpt>
      <trkpt lat="43.38813" lon="6.10546">
        <ele>297.761545</ele>
        <time>2025-04-25T09:18:10.000Z</time>
      </trkpt>
      <trkpt lat="43.38813" lon="6.10541">
        <ele>297.899292</ele>
        <time>2025-04-25T09:18:10.000Z</time>
      </trkpt>
      <trkpt lat="43.38814" lon="6.10536">
        <ele>298.026357</ele>
        <time>2025-04-25T09:18:12.000Z</time>
      </trkpt>
      <trkpt lat="43.38814" lon="6.10536">
        <ele>298.026357</ele>
        <time>2025-04-25T09:18:12.000Z</time>
      </trkpt>
      <trkpt lat="43.38815" lon="6.10532">
        <ele>298.14484</ele>
        <time>2025-04-25T09:18:13.000Z</time>
      </trkpt>
      <trkpt lat="43.38815" lon="6.10532">
        <ele>298.14484</ele>
        <time>2025-04-25T09:18:13.000Z</time>
      </trkpt>
      <trkpt lat="43.38815" lon="6.10527">
        <ele>298.29331</ele>
        <time>2025-04-25T09:18:13.000Z</time>
      </trkpt>
      <trkpt lat="43.38815" lon="6.10527">
        <ele>298.29331</ele>
        <time>2025-04-25T09:18:13.000Z</time>
      </trkpt>
      <trkpt lat="43.38817" lon="6.10521">
        <ele>298.449313</ele>
        <time>2025-04-25T09:18:15.000Z</time>
      </trkpt>
      <trkpt lat="43.38817" lon="6.10521">
        <ele>298.449313</ele>
        <time>2025-04-25T09:18:15.000Z</time>
      </trkpt>
      <trkpt lat="43.38818" lon="6.10516">
        <ele>298.604196</ele>
        <time>2025-04-25T09:18:15.000Z</time>
      </trkpt>
      <trkpt lat="43.3882" lon="6.10511">
        <ele>298.757646</ele>
        <time>2025-04-25T09:18:17.000Z</time>
      </trkpt>
      <trkpt lat="43.3882" lon="6.10511">
        <ele>298.757646</ele>
        <time>2025-04-25T09:18:17.000Z</time>
      </trkpt>
      <trkpt lat="43.38822" lon="6.10506">
        <ele>298.917284</ele>
        <time>2025-04-25T09:18:17.000Z</time>
      </trkpt>
      <trkpt lat="43.38822" lon="6.10506">
        <ele>298.917284</ele>
        <time>2025-04-25T09:18:17.000Z</time>
      </trkpt>
      <trkpt lat="43.38823" lon="6.105">
        <ele>299.080982</ele>
        <time>2025-04-25T09:18:18.000Z</time>
      </trkpt>
      <trkpt lat="43.38823" lon="6.105">
        <ele>299.080982</ele>
        <time>2025-04-25T09:18:18.000Z</time>
      </trkpt>
      <trkpt lat="43.38825" lon="6.1049">
        <ele>299.36373</ele>
        <time>2025-04-25T09:18:20.000Z</time>
      </trkpt>
      <trkpt lat="43.38825" lon="6.1049">
        <ele>299.36373</ele>
        <time>2025-04-25T09:18:20.000Z</time>
      </trkpt>
      <trkpt lat="43.38826" lon="6.10485">
        <ele>299.51861</ele>
        <time>2025-04-25T09:18:21.000Z</time>
      </trkpt>
      <trkpt lat="43.38826" lon="6.10485">
        <ele>299.51861</ele>
        <time>2025-04-25T09:18:21.000Z</time>
      </trkpt>
      <trkpt lat="43.38827" lon="6.1048">
        <ele>299.652889</ele>
        <time>2025-04-25T09:18:23.000Z</time>
      </trkpt>
      <trkpt lat="43.38827" lon="6.1048">
        <ele>299.652889</ele>
        <time>2025-04-25T09:18:23.000Z</time>
      </trkpt>
      <trkpt lat="43.38827" lon="6.10469">
        <ele>299.941277</ele>
        <time>2025-04-25T09:18:24.000Z</time>
      </trkpt>
      <trkpt lat="43.38827" lon="6.10469">
        <ele>299.941277</ele>
        <time>2025-04-25T09:18:24.000Z</time>
      </trkpt>
      <trkpt lat="43.38827" lon="6.10459">
        <ele>300.226926</ele>
        <time>2025-04-25T09:18:26.000Z</time>
      </trkpt>
      <trkpt lat="43.38827" lon="6.10459">
        <ele>300.226926</ele>
        <time>2025-04-25T09:18:26.000Z</time>
      </trkpt>
      <trkpt lat="43.38826" lon="6.10454">
        <ele>300.375469</ele>
        <time>2025-04-25T09:18:28.000Z</time>
      </trkpt>
      <trkpt lat="43.38826" lon="6.10454">
        <ele>300.375469</ele>
        <time>2025-04-25T09:18:28.000Z</time>
      </trkpt>
      <trkpt lat="43.38826" lon="6.10448">
        <ele>300.529805</ele>
        <time>2025-04-25T09:18:29.000Z</time>
      </trkpt>
      <trkpt lat="43.38826" lon="6.10448">
        <ele>300.529805</ele>
        <time>2025-04-25T09:18:29.000Z</time>
      </trkpt>
      <trkpt lat="43.38826" lon="6.10442">
        <ele>300.686871</ele>
        <time>2025-04-25T09:18:30.000Z</time>
      </trkpt>
      <trkpt lat="43.38826" lon="6.10442">
        <ele>300.686871</ele>
        <time>2025-04-25T09:18:30.000Z</time>
      </trkpt>
      <trkpt lat="43.38827" lon="6.10437">
        <ele>300.840021</ele>
        <time>2025-04-25T09:18:30.000Z</time>
      </trkpt>
      <trkpt lat="43.38827" lon="6.10437">
        <ele>300.840021</ele>
        <time>2025-04-25T09:18:30.000Z</time>
      </trkpt>
      <trkpt lat="43.38828" lon="6.10431">
        <ele>301.002788</ele>
        <time>2025-04-25T09:18:31.000Z</time>
      </trkpt>
      <trkpt lat="43.38828" lon="6.10431">
        <ele>301.002788</ele>
        <time>2025-04-25T09:18:31.000Z</time>
      </trkpt>
      <trkpt lat="43.38829" lon="6.10427">
        <ele>301.124411</ele>
        <time>2025-04-25T09:18:33.000Z</time>
      </trkpt>
      <trkpt lat="43.38829" lon="6.10427">
        <ele>301.124411</ele>
        <time>2025-04-25T09:18:33.000Z</time>
      </trkpt>
      <trkpt lat="43.38829" lon="6.10422">
        <ele>301.256551</ele>
        <time>2025-04-25T09:18:33.000Z</time>
      </trkpt>
      <trkpt lat="43.38829" lon="6.10422">
        <ele>301.256551</ele>
        <time>2025-04-25T09:18:33.000Z</time>
      </trkpt>
      <trkpt lat="43.38829" lon="6.10417">
        <ele>301.394519</ele>
        <time>2025-04-25T09:18:34.000Z</time>
      </trkpt>
      <trkpt lat="43.38829" lon="6.10417">
        <ele>301.394519</ele>
        <time>2025-04-25T09:18:34.000Z</time>
      </trkpt>
      <trkpt lat="43.3883" lon="6.10406">
        <ele>301.686818</ele>
        <time>2025-04-25T09:18:36.000Z</time>
      </trkpt>
      <trkpt lat="43.3883" lon="6.10406">
        <ele>301.686818</ele>
        <time>2025-04-25T09:18:36.000Z</time>
      </trkpt>
      <trkpt lat="43.38831" lon="6.10401">
        <ele>301.841154</ele>
        <time>2025-04-25T09:18:37.000Z</time>
      </trkpt>
      <trkpt lat="43.38831" lon="6.10401">
        <ele>301.841154</ele>
        <time>2025-04-25T09:18:37.000Z</time>
      </trkpt>
      <trkpt lat="43.38831" lon="6.1039">
        <ele>302.137591</ele>
        <time>2025-04-25T09:18:39.000Z</time>
      </trkpt>
      <trkpt lat="43.38831" lon="6.1039">
        <ele>302.137591</ele>
        <time>2025-04-25T09:18:39.000Z</time>
      </trkpt>
      <trkpt lat="43.38831" lon="6.10385">
        <ele>302.274731</ele>
        <time>2025-04-25T09:18:40.000Z</time>
      </trkpt>
      <trkpt lat="43.38831" lon="6.10385">
        <ele>302.274731</ele>
        <time>2025-04-25T09:18:40.000Z</time>
      </trkpt>
      <trkpt lat="43.38831" lon="6.10374">
        <ele>302.51691</ele>
        <time>2025-04-25T09:18:42.000Z</time>
      </trkpt>
      <trkpt lat="43.38831" lon="6.10374">
        <ele>302.51691</ele>
        <time>2025-04-25T09:18:42.000Z</time>
      </trkpt>
      <trkpt lat="43.38831" lon="6.1037">
        <ele>302.62827</ele>
        <time>2025-04-25T09:18:43.000Z</time>
      </trkpt>
      <trkpt lat="43.38831" lon="6.1037">
        <ele>302.62827</ele>
        <time>2025-04-25T09:18:43.000Z</time>
      </trkpt>
      <trkpt lat="43.3883" lon="6.10365">
        <ele>302.742244</ele>
        <time>2025-04-25T09:18:44.000Z</time>
      </trkpt>
      <trkpt lat="43.3883" lon="6.10365">
        <ele>302.742244</ele>
        <time>2025-04-25T09:18:44.000Z</time>
      </trkpt>
      <trkpt lat="43.3883" lon="6.10359">
        <ele>302.886119</ele>
        <time>2025-04-25T09:18:45.000Z</time>
      </trkpt>
      <trkpt lat="43.3883" lon="6.10359">
        <ele>302.886119</ele>
        <time>2025-04-25T09:18:45.000Z</time>
      </trkpt>
      <trkpt lat="43.38829" lon="6.10353">
        <ele>303.016184</ele>
        <time>2025-04-25T09:18:46.000Z</time>
      </trkpt>
      <trkpt lat="43.38829" lon="6.10353">
        <ele>303.016184</ele>
        <time>2025-04-25T09:18:46.000Z</time>
      </trkpt>
      <trkpt lat="43.38829" lon="6.10343">
        <ele>303.242708</ele>
        <time>2025-04-25T09:18:48.000Z</time>
      </trkpt>
      <trkpt lat="43.38829" lon="6.10343">
        <ele>303.242708</ele>
        <time>2025-04-25T09:18:48.000Z</time>
      </trkpt>
      <trkpt lat="43.38829" lon="6.10338">
        <ele>303.351347</ele>
        <time>2025-04-25T09:18:49.000Z</time>
      </trkpt>
      <trkpt lat="43.38829" lon="6.10338">
        <ele>303.351347</ele>
        <time>2025-04-25T09:18:49.000Z</time>
      </trkpt>
      <trkpt lat="43.38829" lon="6.10329">
        <ele>303.580535</ele>
        <time>2025-04-25T09:18:51.000Z</time>
      </trkpt>
      <trkpt lat="43.38829" lon="6.10329">
        <ele>303.580535</ele>
        <time>2025-04-25T09:18:51.000Z</time>
      </trkpt>
      <trkpt lat="43.38829" lon="6.10319">
        <ele>303.795713</ele>
        <time>2025-04-25T09:18:53.000Z</time>
      </trkpt>
      <trkpt lat="43.38829" lon="6.10319">
        <ele>303.795713</ele>
        <time>2025-04-25T09:18:53.000Z</time>
      </trkpt>
      <trkpt lat="43.38829" lon="6.1031">
        <ele>304.019925</ele>
        <time>2025-04-25T09:18:55.000Z</time>
      </trkpt>
      <trkpt lat="43.38829" lon="6.1031">
        <ele>304.019925</ele>
        <time>2025-04-25T09:18:55.000Z</time>
      </trkpt>
      <trkpt lat="43.38829" lon="6.103">
        <ele>304.230484</ele>
        <time>2025-04-25T09:18:57.000Z</time>
      </trkpt>
      <trkpt lat="43.38829" lon="6.103">
        <ele>304.230484</ele>
        <time>2025-04-25T09:18:57.000Z</time>
      </trkpt>
      <trkpt lat="43.38829" lon="6.10296">
        <ele>304.343746</ele>
        <time>2025-04-25T09:18:58.000Z</time>
      </trkpt>
      <trkpt lat="43.38829" lon="6.10291">
        <ele>304.438516</ele>
        <time>2025-04-25T09:18:59.000Z</time>
      </trkpt>
      <trkpt lat="43.38829" lon="6.10291">
        <ele>304.438516</ele>
        <time>2025-04-25T09:18:59.000Z</time>
      </trkpt>
      <trkpt lat="43.38829" lon="6.10283">
        <ele>304.635222</ele>
        <time>2025-04-25T09:19:00.000Z</time>
      </trkpt>
      <trkpt lat="43.38829" lon="6.10283">
        <ele>304.635222</ele>
        <time>2025-04-25T09:19:00.000Z</time>
      </trkpt>
      <trkpt lat="43.38827" lon="6.10278">
        <ele>304.765748</ele>
        <time>2025-04-25T09:19:02.000Z</time>
      </trkpt>
      <trkpt lat="43.38827" lon="6.10278">
        <ele>304.765748</ele>
        <time>2025-04-25T09:19:02.000Z</time>
      </trkpt>
      <trkpt lat="43.38826" lon="6.10274">
        <ele>304.867742</ele>
        <time>2025-04-25T09:19:02.000Z</time>
      </trkpt>
      <trkpt lat="43.38823" lon="6.10266">
        <ele>305.077938</ele>
        <time>2025-04-25T09:19:05.000Z</time>
      </trkpt>
      <trkpt lat="43.38823" lon="6.10266">
        <ele>305.077938</ele>
        <time>2025-04-25T09:19:05.000Z</time>
      </trkpt>
      <trkpt lat="43.38822" lon="6.10261">
        <ele>305.195636</ele>
        <time>2025-04-25T09:19:06.000Z</time>
      </trkpt>
      <trkpt lat="43.38822" lon="6.10261">
        <ele>305.195636</ele>
        <time>2025-04-25T09:19:06.000Z</time>
      </trkpt>
      <trkpt lat="43.38821" lon="6.10255">
        <ele>305.323952</ele>
        <time>2025-04-25T09:19:07.000Z</time>
      </trkpt>
      <trkpt lat="43.3882" lon="6.1025">
        <ele>305.449137</ele>
        <time>2025-04-25T09:19:09.000Z</time>
      </trkpt>
      <trkpt lat="43.3882" lon="6.1025">
        <ele>305.449137</ele>
        <time>2025-04-25T09:19:09.000Z</time>
      </trkpt>
      <trkpt lat="43.38819" lon="6.10241">
        <ele>305.66519</ele>
        <time>2025-04-25T09:19:09.000Z</time>
      </trkpt>
      <trkpt lat="43.38819" lon="6.10241">
        <ele>305.66519</ele>
        <time>2025-04-25T09:19:09.000Z</time>
      </trkpt>
      <trkpt lat="43.38817" lon="6.10235">
        <ele>305.803145</ele>
        <time>2025-04-25T09:19:12.000Z</time>
      </trkpt>
      <trkpt lat="43.38817" lon="6.10235">
        <ele>305.803145</ele>
        <time>2025-04-25T09:19:12.000Z</time>
      </trkpt>
      <trkpt lat="43.38816" lon="6.10226">
        <ele>306.014099</ele>
        <time>2025-04-25T09:19:12.000Z</time>
      </trkpt>
      <trkpt lat="43.38816" lon="6.10226">
        <ele>306.014099</ele>
        <time>2025-04-25T09:19:12.000Z</time>
      </trkpt>
      <trkpt lat="43.38816" lon="6.10222">
        <ele>306.114303</ele>
        <time>2025-04-25T09:19:14.000Z</time>
      </trkpt>
      <trkpt lat="43.38816" lon="6.10222">
        <ele>306.114303</ele>
        <time>2025-04-25T09:19:14.000Z</time>
      </trkpt>
      <trkpt lat="43.38816" lon="6.10217">
        <ele>306.230574</ele>
        <time>2025-04-25T09:19:15.000Z</time>
      </trkpt>
      <trkpt lat="43.38816" lon="6.10217">
        <ele>306.230574</ele>
        <time>2025-04-25T09:19:15.000Z</time>
      </trkpt>
      <trkpt lat="43.38817" lon="6.10212">
        <ele>306.339956</ele>
        <time>2025-04-25T09:19:16.000Z</time>
      </trkpt>
      <trkpt lat="43.38817" lon="6.10208">
        <ele>306.441661</ele>
        <time>2025-04-25T09:19:17.000Z</time>
      </trkpt>
      <trkpt lat="43.38817" lon="6.10208">
        <ele>306.441661</ele>
        <time>2025-04-25T09:19:17.000Z</time>
      </trkpt>
      <trkpt lat="43.38817" lon="6.10203">
        <ele>306.548033</ele>
        <time>2025-04-25T09:19:18.000Z</time>
      </trkpt>
      <trkpt lat="43.38818" lon="6.10199">
        <ele>306.643929</ele>
        <time>2025-04-25T09:19:19.000Z</time>
      </trkpt>
      <trkpt lat="43.38823" lon="6.10192">
        <ele>306.877592</ele>
        <time>2025-04-25T09:19:21.000Z</time>
      </trkpt>
      <trkpt lat="43.38824" lon="6.1019">
        <ele>306.94499</ele>
        <time>2025-04-25T09:19:22.000Z</time>
      </trkpt>
      <trkpt lat="43.38825" lon="6.10187">
        <ele>307.000502</ele>
        <time>2025-04-25T09:19:22.000Z</time>
      </trkpt>
      <trkpt lat="43.38826" lon="6.10186">
        <ele>307.051259</ele>
        <time>2025-04-25T09:19:24.000Z</time>
      </trkpt>
      <trkpt lat="43.38826" lon="6.10183">
        <ele>307.106065</ele>
        <time>2025-04-25T09:19:25.000Z</time>
      </trkpt>
      <trkpt lat="43.38827" lon="6.1018">
        <ele>307.1811</ele>
        <time>2025-04-25T09:19:26.000Z</time>
      </trkpt>
      <trkpt lat="43.38828" lon="6.10177">
        <ele>307.263706</ele>
        <time>2025-04-25T09:19:27.000Z</time>
      </trkpt>
      <trkpt lat="43.38828" lon="6.10177">
        <ele>307.263706</ele>
        <time>2025-04-25T09:19:27.000Z</time>
      </trkpt>
      <trkpt lat="43.38828" lon="6.10174">
        <ele>307.336483</ele>
        <time>2025-04-25T09:19:28.000Z</time>
      </trkpt>
      <trkpt lat="43.38828" lon="6.10167">
        <ele>307.500274</ele>
        <time>2025-04-25T09:19:29.000Z</time>
      </trkpt>
      <trkpt lat="43.38828" lon="6.10165">
        <ele>307.544191</ele>
        <time>2025-04-25T09:19:31.000Z</time>
      </trkpt>
      <trkpt lat="43.38827" lon="6.10162">
        <ele>307.603362</ele>
        <time>2025-04-25T09:19:32.000Z</time>
      </trkpt>
      <trkpt lat="43.38827" lon="6.1016">
        <ele>307.66346</ele>
        <time>2025-04-25T09:19:33.000Z</time>
      </trkpt>
      <trkpt lat="43.38827" lon="6.10156">
        <ele>307.743073</ele>
        <time>2025-04-25T09:19:34.000Z</time>
      </trkpt>
      <trkpt lat="43.38826" lon="6.1015">
        <ele>307.886701</ele>
        <time>2025-04-25T09:19:35.000Z</time>
      </trkpt>
      <trkpt lat="43.38826" lon="6.10145">
        <ele>308.006897</ele>
        <time>2025-04-25T09:19:36.000Z</time>
      </trkpt>
      <trkpt lat="43.38827" lon="6.1014">
        <ele>308.178087</ele>
        <time>2025-04-25T09:19:37.000Z</time>
      </trkpt>
      <trkpt lat="43.38829" lon="6.10135">
        <ele>308.377186</ele>
        <time>2025-04-25T09:19:38.000Z</time>
      </trkpt>
      <trkpt lat="43.38832" lon="6.10126">
        <ele>308.741347</ele>
        <time>2025-04-25T09:19:40.000Z</time>
      </trkpt>
      <trkpt lat="43.38832" lon="6.10126">
        <ele>308.741347</ele>
        <time>2025-04-25T09:19:40.000Z</time>
      </trkpt>
      <trkpt lat="43.38833" lon="6.10121">
        <ele>308.945235</ele>
        <time>2025-04-25T09:19:41.000Z</time>
      </trkpt>
      <trkpt lat="43.38835" lon="6.10117">
        <ele>309.131086</ele>
        <time>2025-04-25T09:19:42.000Z</time>
      </trkpt>
      <trkpt lat="43.38835" lon="6.10117">
        <ele>309.131086</ele>
        <time>2025-04-25T09:19:42.000Z</time>
      </trkpt>
      <trkpt lat="43.38836" lon="6.10111">
        <ele>309.334973</ele>
        <time>2025-04-25T09:19:43.000Z</time>
      </trkpt>
      <trkpt lat="43.38837" lon="6.10107">
        <ele>309.504546</ele>
        <time>2025-04-25T09:19:44.000Z</time>
      </trkpt>
      <trkpt lat="43.38839" lon="6.10102">
        <ele>309.703375</ele>
        <time>2025-04-25T09:19:45.000Z</time>
      </trkpt>
      <trkpt lat="43.38839" lon="6.10102">
        <ele>309.703375</ele>
        <time>2025-04-25T09:19:45.000Z</time>
      </trkpt>
      <trkpt lat="43.38839" lon="6.10097">
        <ele>309.874649</ele>
        <time>2025-04-25T09:19:45.000Z</time>
      </trkpt>
      <trkpt lat="43.38841" lon="6.10092">
        <ele>310.059638</ele>
        <time>2025-04-25T09:19:46.000Z</time>
      </trkpt>
      <trkpt lat="43.38841" lon="6.10092">
        <ele>310.059638</ele>
        <time>2025-04-25T09:19:46.000Z</time>
      </trkpt>
      <trkpt lat="43.38841" lon="6.10087">
        <ele>310.241626</ele>
        <time>2025-04-25T09:19:48.000Z</time>
      </trkpt>
      <trkpt lat="43.38842" lon="6.10082">
        <ele>310.436985</ele>
        <time>2025-04-25T09:19:49.000Z</time>
      </trkpt>
      <trkpt lat="43.38844" lon="6.10078">
        <ele>310.610809</ele>
        <time>2025-04-25T09:19:50.000Z</time>
      </trkpt>
      <trkpt lat="43.38844" lon="6.10078">
        <ele>310.610809</ele>
        <time>2025-04-25T09:19:50.000Z</time>
      </trkpt>
      <trkpt lat="43.38845" lon="6.10074">
        <ele>310.785496</ele>
        <time>2025-04-25T09:19:51.000Z</time>
      </trkpt>
      <trkpt lat="43.38847" lon="6.10069">
        <ele>310.95932</ele>
        <time>2025-04-25T09:19:52.000Z</time>
      </trkpt>
      <trkpt lat="43.38848" lon="6.10065">
        <ele>311.139742</ele>
        <time>2025-04-25T09:19:53.000Z</time>
      </trkpt>
      <trkpt lat="43.38848" lon="6.10065">
        <ele>311.139742</ele>
        <time>2025-04-25T09:19:53.000Z</time>
      </trkpt>
      <trkpt lat="43.3885" lon="6.10061">
        <ele>311.307837</ele>
        <time>2025-04-25T09:19:53.000Z</time>
      </trkpt>
      <trkpt lat="43.38852" lon="6.10057">
        <ele>311.484954</ele>
        <time>2025-04-25T09:19:55.000Z</time>
      </trkpt>
      <trkpt lat="43.38852" lon="6.10052">
        <ele>311.650245</ele>
        <time>2025-04-25T09:19:55.000Z</time>
      </trkpt>
      <trkpt lat="43.38852" lon="6.10052">
        <ele>311.650245</ele>
        <time>2025-04-25T09:19:55.000Z</time>
      </trkpt>
      <trkpt lat="43.38854" lon="6.10047">
        <ele>311.835233</ele>
        <time>2025-04-25T09:19:56.000Z</time>
      </trkpt>
      <trkpt lat="43.38855" lon="6.10043">
        <ele>312.015656</ele>
        <time>2025-04-25T09:19:57.000Z</time>
      </trkpt>
      <trkpt lat="43.38855" lon="6.10043">
        <ele>312.015656</ele>
        <time>2025-04-25T09:19:57.000Z</time>
      </trkpt>
      <trkpt lat="43.38857" lon="6.10038">
        <ele>312.192772</ele>
        <time>2025-04-25T09:19:59.000Z</time>
      </trkpt>
      <trkpt lat="43.38858" lon="6.10034">
        <ele>312.364041</ele>
        <time>2025-04-25T09:19:59.000Z</time>
      </trkpt>
      <trkpt lat="43.38858" lon="6.10034">
        <ele>312.364041</ele>
        <time>2025-04-25T09:19:59.000Z</time>
      </trkpt>
      <trkpt lat="43.38859" lon="6.10029">
        <ele>312.557913</ele>
        <time>2025-04-25T09:20:01.000Z</time>
      </trkpt>
      <trkpt lat="43.38859" lon="6.10029">
        <ele>312.557913</ele>
        <time>2025-04-25T09:20:01.000Z</time>
      </trkpt>
      <trkpt lat="43.3886" lon="6.10025">
        <ele>312.710371</ele>
        <time>2025-04-25T09:20:02.000Z</time>
      </trkpt>
      <trkpt lat="43.3886" lon="6.10025">
        <ele>312.710371</ele>
        <time>2025-04-25T09:20:02.000Z</time>
      </trkpt>
      <trkpt lat="43.38861" lon="6.10021">
        <ele>312.868601</ele>
        <time>2025-04-25T09:20:03.000Z</time>
      </trkpt>
      <trkpt lat="43.38862" lon="6.10016">
        <ele>313.053589</ele>
        <time>2025-04-25T09:20:04.000Z</time>
      </trkpt>
      <trkpt lat="43.38862" lon="6.10016">
        <ele>313.053589</ele>
        <time>2025-04-25T09:20:04.000Z</time>
      </trkpt>
      <trkpt lat="43.38863" lon="6.10012">
        <ele>313.209449</ele>
        <time>2025-04-25T09:20:05.000Z</time>
      </trkpt>
      <trkpt lat="43.38863" lon="6.10012">
        <ele>313.209449</ele>
        <time>2025-04-25T09:20:05.000Z</time>
      </trkpt>
      <trkpt lat="43.38864" lon="6.10008">
        <ele>313.375579</ele>
        <time>2025-04-25T09:20:06.000Z</time>
      </trkpt>
      <trkpt lat="43.38864" lon="6.10008">
        <ele>313.375579</ele>
        <time>2025-04-25T09:20:06.000Z</time>
      </trkpt>
      <trkpt lat="43.38865" lon="6.10003">
        <ele>313.551496</ele>
        <time>2025-04-25T09:20:07.000Z</time>
      </trkpt>
      <trkpt lat="43.38865" lon="6.10003">
        <ele>313.551496</ele>
        <time>2025-04-25T09:20:07.000Z</time>
      </trkpt>
      <trkpt lat="43.38866" lon="6.09999">
        <ele>313.713255</ele>
        <time>2025-04-25T09:20:08.000Z</time>
      </trkpt>
      <trkpt lat="43.38866" lon="6.09999">
        <ele>313.713255</ele>
        <time>2025-04-25T09:20:08.000Z</time>
      </trkpt>
      <trkpt lat="43.38866" lon="6.09993">
        <ele>313.941912</ele>
        <time>2025-04-25T09:20:08.000Z</time>
      </trkpt>
      <trkpt lat="43.38866" lon="6.09993">
        <ele>313.941912</ele>
        <time>2025-04-25T09:20:08.000Z</time>
      </trkpt>
      <trkpt lat="43.38867" lon="6.09988">
        <ele>314.110745</ele>
        <time>2025-04-25T09:20:10.000Z</time>
      </trkpt>
      <trkpt lat="43.38867" lon="6.09988">
        <ele>314.110745</ele>
        <time>2025-04-25T09:20:10.000Z</time>
      </trkpt>
      <trkpt lat="43.38867" lon="6.09983">
        <ele>314.303892</ele>
        <time>2025-04-25T09:20:11.000Z</time>
      </trkpt>
      <trkpt lat="43.38867" lon="6.09983">
        <ele>314.303892</ele>
        <time>2025-04-25T09:20:11.000Z</time>
      </trkpt>
      <trkpt lat="43.38867" lon="6.09979">
        <ele>314.431443</ele>
        <time>2025-04-25T09:20:12.000Z</time>
      </trkpt>
      <trkpt lat="43.38867" lon="6.09979">
        <ele>314.431443</ele>
        <time>2025-04-25T09:20:12.000Z</time>
      </trkpt>
      <trkpt lat="43.38867" lon="6.09976">
        <ele>314.564162</ele>
        <time>2025-04-25T09:20:13.000Z</time>
      </trkpt>
      <trkpt lat="43.38867" lon="6.09976">
        <ele>314.564162</ele>
        <time>2025-04-25T09:20:13.000Z</time>
      </trkpt>
      <trkpt lat="43.38868" lon="6.09971">
        <ele>314.718531</ele>
        <time>2025-04-25T09:20:14.000Z</time>
      </trkpt>
      <trkpt lat="43.38868" lon="6.09971">
        <ele>314.718531</ele>
        <time>2025-04-25T09:20:14.000Z</time>
      </trkpt>
      <trkpt lat="43.38868" lon="6.09967">
        <ele>314.862067</ele>
        <time>2025-04-25T09:20:15.000Z</time>
      </trkpt>
      <trkpt lat="43.38868" lon="6.09967">
        <ele>314.862067</ele>
        <time>2025-04-25T09:20:15.000Z</time>
      </trkpt>
      <trkpt lat="43.38868" lon="6.09964">
        <ele>314.993261</ele>
        <time>2025-04-25T09:20:16.000Z</time>
      </trkpt>
      <trkpt lat="43.38868" lon="6.09964">
        <ele>314.993261</ele>
        <time>2025-04-25T09:20:16.000Z</time>
      </trkpt>
      <trkpt lat="43.38868" lon="6.0996">
        <ele>315.147059</ele>
        <time>2025-04-25T09:20:17.000Z</time>
      </trkpt>
      <trkpt lat="43.38868" lon="6.0996">
        <ele>315.147059</ele>
        <time>2025-04-25T09:20:17.000Z</time>
      </trkpt>
      <trkpt lat="43.38869" lon="6.09956">
        <ele>315.280769</ele>
        <time>2025-04-25T09:20:18.000Z</time>
      </trkpt>
      <trkpt lat="43.38869" lon="6.09956">
        <ele>315.280769</ele>
        <time>2025-04-25T09:20:18.000Z</time>
      </trkpt>
      <trkpt lat="43.3887" lon="6.09952">
        <ele>315.442528</ele>
        <time>2025-04-25T09:20:19.000Z</time>
      </trkpt>
      <trkpt lat="43.3887" lon="6.09952">
        <ele>315.442528</ele>
        <time>2025-04-25T09:20:19.000Z</time>
      </trkpt>
      <trkpt lat="43.38871" lon="6.09948">
        <ele>315.588926</ele>
        <time>2025-04-25T09:20:20.000Z</time>
      </trkpt>
      <trkpt lat="43.38871" lon="6.09948">
        <ele>315.588926</ele>
        <time>2025-04-25T09:20:20.000Z</time>
      </trkpt>
      <trkpt lat="43.38871" lon="6.09943">
        <ele>315.752919</ele>
        <time>2025-04-25T09:20:21.000Z</time>
      </trkpt>
      <trkpt lat="43.38871" lon="6.09943">
        <ele>315.752919</ele>
        <time>2025-04-25T09:20:21.000Z</time>
      </trkpt>
      <trkpt lat="43.38871" lon="6.0994">
        <ele>315.882037</ele>
        <time>2025-04-25T09:20:22.000Z</time>
      </trkpt>
      <trkpt lat="43.38871" lon="6.0994">
        <ele>315.882037</ele>
        <time>2025-04-25T09:20:22.000Z</time>
      </trkpt>
      <trkpt lat="43.38872" lon="6.09936">
        <ele>316.022717</ele>
        <time>2025-04-25T09:20:23.000Z</time>
      </trkpt>
      <trkpt lat="43.38872" lon="6.09936">
        <ele>316.022717</ele>
        <time>2025-04-25T09:20:23.000Z</time>
      </trkpt>
      <trkpt lat="43.38873" lon="6.09932">
        <ele>316.192289</ele>
        <time>2025-04-25T09:20:24.000Z</time>
      </trkpt>
      <trkpt lat="43.38873" lon="6.09932">
        <ele>316.192289</ele>
        <time>2025-04-25T09:20:24.000Z</time>
      </trkpt>
      <trkpt lat="43.38874" lon="6.09928">
        <ele>316.330035</ele>
        <time>2025-04-25T09:20:24.000Z</time>
      </trkpt>
      <trkpt lat="43.38874" lon="6.09928">
        <ele>316.330035</ele>
        <time>2025-04-25T09:20:24.000Z</time>
      </trkpt>
      <trkpt lat="43.38875" lon="6.09925">
        <ele>316.459041</ele>
        <time>2025-04-25T09:20:26.000Z</time>
      </trkpt>
      <trkpt lat="43.38875" lon="6.09925">
        <ele>316.459041</ele>
        <time>2025-04-25T09:20:26.000Z</time>
      </trkpt>
      <trkpt lat="43.38877" lon="6.0992">
        <ele>316.659544</ele>
        <time>2025-04-25T09:20:27.000Z</time>
      </trkpt>
      <trkpt lat="43.38877" lon="6.0992">
        <ele>316.659544</ele>
        <time>2025-04-25T09:20:27.000Z</time>
      </trkpt>
      <trkpt lat="43.38878" lon="6.09916">
        <ele>316.807225</ele>
        <time>2025-04-25T09:20:28.000Z</time>
      </trkpt>
      <trkpt lat="43.38878" lon="6.09916">
        <ele>316.807225</ele>
        <time>2025-04-25T09:20:28.000Z</time>
      </trkpt>
      <trkpt lat="43.38879" lon="6.09912">
        <ele>316.980247</ele>
        <time>2025-04-25T09:20:29.000Z</time>
      </trkpt>
      <trkpt lat="43.38879" lon="6.09912">
        <ele>316.980247</ele>
        <time>2025-04-25T09:20:29.000Z</time>
      </trkpt>
      <trkpt lat="43.38879" lon="6.09908">
        <ele>317.235822</ele>
        <time>2025-04-25T09:20:30.000Z</time>
      </trkpt>
      <trkpt lat="43.38879" lon="6.09908">
        <ele>317.235822</ele>
        <time>2025-04-25T09:20:30.000Z</time>
      </trkpt>
      <trkpt lat="43.38881" lon="6.09903">
        <ele>317.563598</ele>
        <time>2025-04-25T09:20:31.000Z</time>
      </trkpt>
      <trkpt lat="43.38881" lon="6.09903">
        <ele>317.563598</ele>
        <time>2025-04-25T09:20:31.000Z</time>
      </trkpt>
      <trkpt lat="43.38882" lon="6.09898">
        <ele>317.94201</ele>
        <time>2025-04-25T09:20:32.000Z</time>
      </trkpt>
      <trkpt lat="43.38882" lon="6.09898">
        <ele>317.94201</ele>
        <time>2025-04-25T09:20:32.000Z</time>
      </trkpt>
      <trkpt lat="43.38883" lon="6.09894">
        <ele>318.249879</ele>
        <time>2025-04-25T09:20:33.000Z</time>
      </trkpt>
      <trkpt lat="43.38883" lon="6.09894">
        <ele>318.249879</ele>
        <time>2025-04-25T09:20:33.000Z</time>
      </trkpt>
      <trkpt lat="43.38884" lon="6.0989">
        <ele>318.600799</ele>
        <time>2025-04-25T09:20:34.000Z</time>
      </trkpt>
      <trkpt lat="43.38884" lon="6.0989">
        <ele>318.600799</ele>
        <time>2025-04-25T09:20:34.000Z</time>
      </trkpt>
      <trkpt lat="43.38885" lon="6.09885">
        <ele>318.897477</ele>
        <time>2025-04-25T09:20:35.000Z</time>
      </trkpt>
      <trkpt lat="43.38885" lon="6.09885">
        <ele>318.897477</ele>
        <time>2025-04-25T09:20:35.000Z</time>
      </trkpt>
      <trkpt lat="43.38886" lon="6.09881">
        <ele>319.25125</ele>
        <time>2025-04-25T09:20:36.000Z</time>
      </trkpt>
      <trkpt lat="43.38886" lon="6.09881">
        <ele>319.25125</ele>
        <time>2025-04-25T09:20:36.000Z</time>
      </trkpt>
      <trkpt lat="43.38886" lon="6.09877">
        <ele>319.521725</ele>
        <time>2025-04-25T09:20:37.000Z</time>
      </trkpt>
      <trkpt lat="43.38886" lon="6.09877">
        <ele>319.521725</ele>
        <time>2025-04-25T09:20:37.000Z</time>
      </trkpt>
      <trkpt lat="43.38887" lon="6.09873">
        <ele>319.836211</ele>
        <time>2025-04-25T09:20:38.000Z</time>
      </trkpt>
      <trkpt lat="43.38887" lon="6.09873">
        <ele>319.836211</ele>
        <time>2025-04-25T09:20:38.000Z</time>
      </trkpt>
      <trkpt lat="43.38888" lon="6.09868">
        <ele>320.148575</ele>
        <time>2025-04-25T09:20:38.000Z</time>
      </trkpt>
      <trkpt lat="43.38888" lon="6.09868">
        <ele>320.148575</ele>
        <time>2025-04-25T09:20:38.000Z</time>
      </trkpt>
      <trkpt lat="43.38889" lon="6.09864">
        <ele>320.465862</ele>
        <time>2025-04-25T09:20:40.000Z</time>
      </trkpt>
      <trkpt lat="43.38889" lon="6.09864">
        <ele>320.465862</ele>
        <time>2025-04-25T09:20:40.000Z</time>
      </trkpt>
      <trkpt lat="43.3889" lon="6.0986">
        <ele>320.783766</ele>
        <time>2025-04-25T09:20:41.000Z</time>
      </trkpt>
      <trkpt lat="43.3889" lon="6.0986">
        <ele>320.783766</ele>
        <time>2025-04-25T09:20:41.000Z</time>
      </trkpt>
      <trkpt lat="43.3889" lon="6.09856">
        <ele>321.033345</ele>
        <time>2025-04-25T09:20:42.000Z</time>
      </trkpt>
      <trkpt lat="43.3889" lon="6.09856">
        <ele>321.033345</ele>
        <time>2025-04-25T09:20:42.000Z</time>
      </trkpt>
      <trkpt lat="43.3889" lon="6.09853">
        <ele>321.265806</ele>
        <time>2025-04-25T09:20:43.000Z</time>
      </trkpt>
      <trkpt lat="43.3889" lon="6.09853">
        <ele>321.265806</ele>
        <time>2025-04-25T09:20:43.000Z</time>
      </trkpt>
      <trkpt lat="43.38891" lon="6.0985">
        <ele>321.487593</ele>
        <time>2025-04-25T09:20:44.000Z</time>
      </trkpt>
      <trkpt lat="43.38891" lon="6.0985">
        <ele>321.487593</ele>
        <time>2025-04-25T09:20:44.000Z</time>
      </trkpt>
      <trkpt lat="43.38891" lon="6.09846">
        <ele>321.721865</ele>
        <time>2025-04-25T09:20:45.000Z</time>
      </trkpt>
      <trkpt lat="43.38891" lon="6.09846">
        <ele>321.721865</ele>
        <time>2025-04-25T09:20:45.000Z</time>
      </trkpt>
      <trkpt lat="43.38891" lon="6.09843">
        <ele>321.975458</ele>
        <time>2025-04-25T09:20:46.000Z</time>
      </trkpt>
      <trkpt lat="43.38891" lon="6.09843">
        <ele>321.975458</ele>
        <time>2025-04-25T09:20:46.000Z</time>
      </trkpt>
      <trkpt lat="43.38891" lon="6.09838">
        <ele>322.301806</ele>
        <time>2025-04-25T09:20:47.000Z</time>
      </trkpt>
      <trkpt lat="43.38891" lon="6.09838">
        <ele>322.301806</ele>
        <time>2025-04-25T09:20:47.000Z</time>
      </trkpt>
      <trkpt lat="43.38891" lon="6.09834">
        <ele>322.614168</ele>
        <time>2025-04-25T09:20:48.000Z</time>
      </trkpt>
      <trkpt lat="43.38891" lon="6.09834">
        <ele>322.614168</ele>
        <time>2025-04-25T09:20:48.000Z</time>
      </trkpt>
      <trkpt lat="43.38891" lon="6.09829">
        <ele>322.946523</ele>
        <time>2025-04-25T09:20:49.000Z</time>
      </trkpt>
      <trkpt lat="43.38891" lon="6.09829">
        <ele>322.946523</ele>
        <time>2025-04-25T09:20:49.000Z</time>
      </trkpt>
      <trkpt lat="43.38891" lon="6.09825">
        <ele>323.236798</ele>
        <time>2025-04-25T09:20:50.000Z</time>
      </trkpt>
      <trkpt lat="43.38891" lon="6.09825">
        <ele>323.236798</ele>
        <time>2025-04-25T09:20:50.000Z</time>
      </trkpt>
      <trkpt lat="43.38891" lon="6.09821">
        <ele>323.504479</ele>
        <time>2025-04-25T09:20:51.000Z</time>
      </trkpt>
      <trkpt lat="43.38891" lon="6.09821">
        <ele>323.504479</ele>
        <time>2025-04-25T09:20:51.000Z</time>
      </trkpt>
      <trkpt lat="43.38891" lon="6.09818">
        <ele>323.743984</ele>
        <time>2025-04-25T09:20:52.000Z</time>
      </trkpt>
      <trkpt lat="43.38891" lon="6.09818">
        <ele>323.743984</ele>
        <time>2025-04-25T09:20:52.000Z</time>
      </trkpt>
      <trkpt lat="43.38891" lon="6.09814">
        <ele>324.00749</ele>
        <time>2025-04-25T09:20:53.000Z</time>
      </trkpt>
      <trkpt lat="43.38891" lon="6.09814">
        <ele>324.00749</ele>
        <time>2025-04-25T09:20:53.000Z</time>
      </trkpt>
      <trkpt lat="43.38892" lon="6.09812">
        <ele>324.199914</ele>
        <time>2025-04-25T09:20:54.000Z</time>
      </trkpt>
      <trkpt lat="43.38892" lon="6.09812">
        <ele>324.199914</ele>
        <time>2025-04-25T09:20:54.000Z</time>
      </trkpt>
      <trkpt lat="43.38893" lon="6.09809">
        <ele>324.415171</ele>
        <time>2025-04-25T09:20:55.000Z</time>
      </trkpt>
      <trkpt lat="43.38893" lon="6.09809">
        <ele>324.415171</ele>
        <time>2025-04-25T09:20:55.000Z</time>
      </trkpt>
      <trkpt lat="43.38894" lon="6.09806">
        <ele>324.594791</ele>
        <time>2025-04-25T09:20:56.000Z</time>
      </trkpt>
      <trkpt lat="43.38894" lon="6.09806">
        <ele>324.594791</ele>
        <time>2025-04-25T09:20:56.000Z</time>
      </trkpt>
      <trkpt lat="43.38895" lon="6.09803">
        <ele>324.831495</ele>
        <time>2025-04-25T09:20:56.000Z</time>
      </trkpt>
      <trkpt lat="43.38895" lon="6.09803">
        <ele>324.831495</ele>
        <time>2025-04-25T09:20:56.000Z</time>
      </trkpt>
      <trkpt lat="43.38896" lon="6.09801">
        <ele>325.060479</ele>
        <time>2025-04-25T09:20:58.000Z</time>
      </trkpt>
      <trkpt lat="43.38896" lon="6.09801">
        <ele>325.060479</ele>
        <time>2025-04-25T09:20:58.000Z</time>
      </trkpt>
      <trkpt lat="43.38898" lon="6.09796">
        <ele>325.408979</ele>
        <time>2025-04-25T09:20:59.000Z</time>
      </trkpt>
      <trkpt lat="43.38898" lon="6.09796">
        <ele>325.408979</ele>
        <time>2025-04-25T09:20:59.000Z</time>
      </trkpt>
      <trkpt lat="43.38899" lon="6.09793">
        <ele>325.697115</ele>
        <time>2025-04-25T09:21:00.000Z</time>
      </trkpt>
      <trkpt lat="43.38899" lon="6.09793">
        <ele>325.697115</ele>
        <time>2025-04-25T09:21:00.000Z</time>
      </trkpt>
      <trkpt lat="43.389" lon="6.09789">
        <ele>325.976113</ele>
        <time>2025-04-25T09:21:01.000Z</time>
      </trkpt>
      <trkpt lat="43.389" lon="6.09789">
        <ele>325.976113</ele>
        <time>2025-04-25T09:21:01.000Z</time>
      </trkpt>
      <trkpt lat="43.389" lon="6.09786">
        <ele>326.218735</ele>
        <time>2025-04-25T09:21:02.000Z</time>
      </trkpt>
      <trkpt lat="43.389" lon="6.09786">
        <ele>326.218735</ele>
        <time>2025-04-25T09:21:02.000Z</time>
      </trkpt>
      <trkpt lat="43.38901" lon="6.09783">
        <ele>326.433993</ele>
        <time>2025-04-25T09:21:02.000Z</time>
      </trkpt>
      <trkpt lat="43.38901" lon="6.09783">
        <ele>326.433993</ele>
        <time>2025-04-25T09:21:02.000Z</time>
      </trkpt>
      <trkpt lat="43.38902" lon="6.09779">
        <ele>326.699177</ele>
        <time>2025-04-25T09:21:04.000Z</time>
      </trkpt>
      <trkpt lat="43.38902" lon="6.09779">
        <ele>326.699177</ele>
        <time>2025-04-25T09:21:04.000Z</time>
      </trkpt>
      <trkpt lat="43.38903" lon="6.09776">
        <ele>326.94423</ele>
        <time>2025-04-25T09:21:04.000Z</time>
      </trkpt>
      <trkpt lat="43.38903" lon="6.09776">
        <ele>326.94423</ele>
        <time>2025-04-25T09:21:04.000Z</time>
      </trkpt>
      <trkpt lat="43.38903" lon="6.09773">
        <ele>327.171514</ele>
        <time>2025-04-25T09:21:06.000Z</time>
      </trkpt>
      <trkpt lat="43.38903" lon="6.09773">
        <ele>327.171514</ele>
        <time>2025-04-25T09:21:06.000Z</time>
      </trkpt>
      <trkpt lat="43.38903" lon="6.0977">
        <ele>327.351838</ele>
        <time>2025-04-25T09:21:07.000Z</time>
      </trkpt>
      <trkpt lat="43.38903" lon="6.0977">
        <ele>327.351838</ele>
        <time>2025-04-25T09:21:07.000Z</time>
      </trkpt>
      <trkpt lat="43.38904" lon="6.09767">
        <ele>327.603583</ele>
        <time>2025-04-25T09:21:08.000Z</time>
      </trkpt>
      <trkpt lat="43.38904" lon="6.09767">
        <ele>327.603583</ele>
        <time>2025-04-25T09:21:08.000Z</time>
      </trkpt>
      <trkpt lat="43.38905" lon="6.09763">
        <ele>327.832309</ele>
        <time>2025-04-25T09:21:09.000Z</time>
      </trkpt>
      <trkpt lat="43.38905" lon="6.09763">
        <ele>327.832309</ele>
        <time>2025-04-25T09:21:09.000Z</time>
      </trkpt>
      <trkpt lat="43.38905" lon="6.09761">
        <ele>328.047566</ele>
        <time>2025-04-25T09:21:09.000Z</time>
      </trkpt>
      <trkpt lat="43.38905" lon="6.09761">
        <ele>328.047566</ele>
        <time>2025-04-25T09:21:09.000Z</time>
      </trkpt>
      <trkpt lat="43.38905" lon="6.09758">
        <ele>328.258894</ele>
        <time>2025-04-25T09:21:11.000Z</time>
      </trkpt>
      <trkpt lat="43.38905" lon="6.09758">
        <ele>328.258894</ele>
        <time>2025-04-25T09:21:11.000Z</time>
      </trkpt>
      <trkpt lat="43.38906" lon="6.09755">
        <ele>328.432344</ele>
        <time>2025-04-25T09:21:12.000Z</time>
      </trkpt>
      <trkpt lat="43.38906" lon="6.09755">
        <ele>328.432344</ele>
        <time>2025-04-25T09:21:12.000Z</time>
      </trkpt>
      <trkpt lat="43.38906" lon="6.09752">
        <ele>328.640274</ele>
        <time>2025-04-25T09:21:12.000Z</time>
      </trkpt>
      <trkpt lat="43.38906" lon="6.09752">
        <ele>328.640274</ele>
        <time>2025-04-25T09:21:12.000Z</time>
      </trkpt>
      <trkpt lat="43.38907" lon="6.0975">
        <ele>328.834381</ele>
        <time>2025-04-25T09:21:13.000Z</time>
      </trkpt>
      <trkpt lat="43.38907" lon="6.0975">
        <ele>328.834381</ele>
        <time>2025-04-25T09:21:13.000Z</time>
      </trkpt>
      <trkpt lat="43.38907" lon="6.09746">
        <ele>329.102062</ele>
        <time>2025-04-25T09:21:14.000Z</time>
      </trkpt>
      <trkpt lat="43.38907" lon="6.09746">
        <ele>329.102062</ele>
        <time>2025-04-25T09:21:14.000Z</time>
      </trkpt>
      <trkpt lat="43.38907" lon="6.09742">
        <ele>329.34861</ele>
        <time>2025-04-25T09:21:16.000Z</time>
      </trkpt>
      <trkpt lat="43.38907" lon="6.09742">
        <ele>329.34861</ele>
        <time>2025-04-25T09:21:16.000Z</time>
      </trkpt>
      <trkpt lat="43.38907" lon="6.0974">
        <ele>329.496539</ele>
        <time>2025-04-25T09:21:17.000Z</time>
      </trkpt>
      <trkpt lat="43.38907" lon="6.0974">
        <ele>329.496539</ele>
        <time>2025-04-25T09:21:17.000Z</time>
      </trkpt>
      <trkpt lat="43.38906" lon="6.09738">
        <ele>329.683748</ele>
        <time>2025-04-25T09:21:17.000Z</time>
      </trkpt>
      <trkpt lat="43.38906" lon="6.09738">
        <ele>329.683748</ele>
        <time>2025-04-25T09:21:17.000Z</time>
      </trkpt>
      <trkpt lat="43.38906" lon="6.09735">
        <ele>329.873943</ele>
        <time>2025-04-25T09:21:19.000Z</time>
      </trkpt>
      <trkpt lat="43.38906" lon="6.09735">
        <ele>329.873943</ele>
        <time>2025-04-25T09:21:19.000Z</time>
      </trkpt>
      <trkpt lat="43.38906" lon="6.09732">
        <ele>330.081873</ele>
        <time>2025-04-25T09:21:20.000Z</time>
      </trkpt>
      <trkpt lat="43.38906" lon="6.09732">
        <ele>330.081873</ele>
        <time>2025-04-25T09:21:20.000Z</time>
      </trkpt>
      <trkpt lat="43.38906" lon="6.09729">
        <ele>330.272067</ele>
        <time>2025-04-25T09:21:21.000Z</time>
      </trkpt>
      <trkpt lat="43.38905" lon="6.09724">
        <ele>330.626406</ele>
        <time>2025-04-25T09:21:22.000Z</time>
      </trkpt>
      <trkpt lat="43.38905" lon="6.09724">
        <ele>330.626406</ele>
        <time>2025-04-25T09:21:22.000Z</time>
      </trkpt>
      <trkpt lat="43.38905" lon="6.09719">
        <ele>330.993859</ele>
        <time>2025-04-25T09:21:22.000Z</time>
      </trkpt>
      <trkpt lat="43.38905" lon="6.09719">
        <ele>330.993859</ele>
        <time>2025-04-25T09:21:22.000Z</time>
      </trkpt>
      <trkpt lat="43.38905" lon="6.09715">
        <ele>331.263115</ele>
        <time>2025-04-25T09:21:24.000Z</time>
      </trkpt>
      <trkpt lat="43.38905" lon="6.09715">
        <ele>331.263115</ele>
        <time>2025-04-25T09:21:24.000Z</time>
      </trkpt>
      <trkpt lat="43.38905" lon="6.09712">
        <ele>331.474442</ele>
        <time>2025-04-25T09:21:25.000Z</time>
      </trkpt>
      <trkpt lat="43.38905" lon="6.09712">
        <ele>331.474442</ele>
        <time>2025-04-25T09:21:25.000Z</time>
      </trkpt>
      <trkpt lat="43.38905" lon="6.09709">
        <ele>331.715705</ele>
        <time>2025-04-25T09:21:26.000Z</time>
      </trkpt>
      <trkpt lat="43.38905" lon="6.09709">
        <ele>331.715705</ele>
        <time>2025-04-25T09:21:26.000Z</time>
      </trkpt>
      <trkpt lat="43.38905" lon="6.09705">
        <ele>331.969298</ele>
        <time>2025-04-25T09:21:27.000Z</time>
      </trkpt>
      <trkpt lat="43.38905" lon="6.09705">
        <ele>331.969298</ele>
        <time>2025-04-25T09:21:27.000Z</time>
      </trkpt>
      <trkpt lat="43.38905" lon="6.09702">
        <ele>332.204969</ele>
        <time>2025-04-25T09:21:27.000Z</time>
      </trkpt>
      <trkpt lat="43.38905" lon="6.09699">
        <ele>332.388119</ele>
        <time>2025-04-25T09:21:29.000Z</time>
      </trkpt>
      <trkpt lat="43.38905" lon="6.09699">
        <ele>332.388119</ele>
        <time>2025-04-25T09:21:29.000Z</time>
      </trkpt>
      <trkpt lat="43.38904" lon="6.09697">
        <ele>332.547869</ele>
        <time>2025-04-25T09:21:30.000Z</time>
      </trkpt>
      <trkpt lat="43.38904" lon="6.09697">
        <ele>332.547869</ele>
        <time>2025-04-25T09:21:30.000Z</time>
      </trkpt>
      <trkpt lat="43.38903" lon="6.09693">
        <ele>332.846913</ele>
        <time>2025-04-25T09:21:31.000Z</time>
      </trkpt>
      <trkpt lat="43.38903" lon="6.09693">
        <ele>332.846913</ele>
        <time>2025-04-25T09:21:31.000Z</time>
      </trkpt>
      <trkpt lat="43.38902" lon="6.09688">
        <ele>333.214911</ele>
        <time>2025-04-25T09:21:32.000Z</time>
      </trkpt>
      <trkpt lat="43.38902" lon="6.09683">
        <ele>333.582441</ele>
        <time>2025-04-25T09:21:32.000Z</time>
      </trkpt>
      <trkpt lat="43.38902" lon="6.09683">
        <ele>333.582441</ele>
        <time>2025-04-25T09:21:32.000Z</time>
      </trkpt>
      <trkpt lat="43.38901" lon="6.09678">
        <ele>333.922781</ele>
        <time>2025-04-25T09:21:34.000Z</time>
      </trkpt>
      <trkpt lat="43.38901" lon="6.09678">
        <ele>333.922781</ele>
        <time>2025-04-25T09:21:34.000Z</time>
      </trkpt>
      <trkpt lat="43.389" lon="6.09673">
        <ele>334.260742</ele>
        <time>2025-04-25T09:21:35.000Z</time>
      </trkpt>
      <trkpt lat="43.389" lon="6.09669">
        <ele>334.489207</ele>
        <time>2025-04-25T09:21:36.000Z</time>
      </trkpt>
      <trkpt lat="43.389" lon="6.09669">
        <ele>334.489207</ele>
        <time>2025-04-25T09:21:36.000Z</time>
      </trkpt>
      <trkpt lat="43.389" lon="6.09665">
        <ele>334.573332</ele>
        <time>2025-04-25T09:21:36.000Z</time>
      </trkpt>
      <trkpt lat="43.389" lon="6.09665">
        <ele>334.573332</ele>
        <time>2025-04-25T09:21:36.000Z</time>
      </trkpt>
      <trkpt lat="43.389" lon="6.09662">
        <ele>334.634932</ele>
        <time>2025-04-25T09:21:38.000Z</time>
      </trkpt>
      <trkpt lat="43.389" lon="6.09662">
        <ele>334.634932</ele>
        <time>2025-04-25T09:21:38.000Z</time>
      </trkpt>
      <trkpt lat="43.38899" lon="6.09657">
        <ele>334.719056</ele>
        <time>2025-04-25T09:21:39.000Z</time>
      </trkpt>
      <trkpt lat="43.38899" lon="6.09657">
        <ele>334.719056</ele>
        <time>2025-04-25T09:21:39.000Z</time>
      </trkpt>
      <trkpt lat="43.38899" lon="6.09653">
        <ele>334.795268</ele>
        <time>2025-04-25T09:21:40.000Z</time>
      </trkpt>
      <trkpt lat="43.38899" lon="6.09653">
        <ele>334.795268</ele>
        <time>2025-04-25T09:21:40.000Z</time>
      </trkpt>
      <trkpt lat="43.38898" lon="6.0965">
        <ele>334.862484</ele>
        <time>2025-04-25T09:21:41.000Z</time>
      </trkpt>
      <trkpt lat="43.38899" lon="6.09646">
        <ele>334.927827</ele>
        <time>2025-04-25T09:21:42.000Z</time>
      </trkpt>
      <trkpt lat="43.38899" lon="6.09646">
        <ele>334.927827</ele>
        <time>2025-04-25T09:21:42.000Z</time>
      </trkpt>
      <trkpt lat="43.38899" lon="6.09643">
        <ele>334.990921</ele>
        <time>2025-04-25T09:21:43.000Z</time>
      </trkpt>
      <trkpt lat="43.38899" lon="6.09643">
        <ele>334.990921</ele>
        <time>2025-04-25T09:21:43.000Z</time>
      </trkpt>
      <trkpt lat="43.38899" lon="6.09639">
        <ele>335.059218</ele>
        <time>2025-04-25T09:21:44.000Z</time>
      </trkpt>
      <trkpt lat="43.38899" lon="6.09639">
        <ele>335.059218</ele>
        <time>2025-04-25T09:21:44.000Z</time>
      </trkpt>
      <trkpt lat="43.38899" lon="6.09636">
        <ele>335.118029</ele>
        <time>2025-04-25T09:21:45.000Z</time>
      </trkpt>
      <trkpt lat="43.38899" lon="6.09633">
        <ele>335.174943</ele>
        <time>2025-04-25T09:21:46.000Z</time>
      </trkpt>
      <trkpt lat="43.38899" lon="6.09633">
        <ele>335.174943</ele>
        <time>2025-04-25T09:21:46.000Z</time>
      </trkpt>
      <trkpt lat="43.38899" lon="6.09631">
        <ele>335.228637</ele>
        <time>2025-04-25T09:21:47.000Z</time>
      </trkpt>
      <trkpt lat="43.38899" lon="6.09631">
        <ele>335.228637</ele>
        <time>2025-04-25T09:21:47.000Z</time>
      </trkpt>
      <trkpt lat="43.38897" lon="6.09628">
        <ele>335.28636</ele>
        <time>2025-04-25T09:21:48.000Z</time>
      </trkpt>
      <trkpt lat="43.38895" lon="6.09626">
        <ele>335.359038</ele>
        <time>2025-04-25T09:21:49.000Z</time>
      </trkpt>
      <trkpt lat="43.38895" lon="6.09626">
        <ele>335.359038</ele>
        <time>2025-04-25T09:21:49.000Z</time>
      </trkpt>
      <trkpt lat="43.38893" lon="6.09623">
        <ele>335.439206</ele>
        <time>2025-04-25T09:21:50.000Z</time>
      </trkpt>
      <trkpt lat="43.38893" lon="6.09623">
        <ele>335.439206</ele>
        <time>2025-04-25T09:21:50.000Z</time>
      </trkpt>
      <trkpt lat="43.38891" lon="6.0962">
        <ele>335.513282</ele>
        <time>2025-04-25T09:21:51.000Z</time>
      </trkpt>
      <trkpt lat="43.38888" lon="6.09616">
        <ele>335.615094</ele>
        <time>2025-04-25T09:21:52.000Z</time>
      </trkpt>
      <trkpt lat="43.38886" lon="6.09612">
        <ele>335.716386</ele>
        <time>2025-04-25T09:21:53.000Z</time>
      </trkpt>
      <trkpt lat="43.38884" lon="6.09608">
        <ele>335.80178</ele>
        <time>2025-04-25T09:21:54.000Z</time>
      </trkpt>
      <trkpt lat="43.38884" lon="6.09608">
        <ele>335.80178</ele>
        <time>2025-04-25T09:21:54.000Z</time>
      </trkpt>
      <trkpt lat="43.38883" lon="6.09603">
        <ele>335.895122</ele>
        <time>2025-04-25T09:21:55.000Z</time>
      </trkpt>
      <trkpt lat="43.38882" lon="6.09599">
        <ele>335.973177</ele>
        <time>2025-04-25T09:21:56.000Z</time>
      </trkpt>
      <trkpt lat="43.38881" lon="6.09595">
        <ele>336.064115</ele>
        <time>2025-04-25T09:21:57.000Z</time>
      </trkpt>
      <trkpt lat="43.38881" lon="6.09595">
        <ele>336.064115</ele>
        <time>2025-04-25T09:21:57.000Z</time>
      </trkpt>
      <trkpt lat="43.3888" lon="6.0959">
        <ele>336.147714</ele>
        <time>2025-04-25T09:21:58.000Z</time>
      </trkpt>
      <trkpt lat="43.38879" lon="6.09586">
        <ele>336.239293</ele>
        <time>2025-04-25T09:21:59.000Z</time>
      </trkpt>
      <trkpt lat="43.38879" lon="6.09581">
        <ele>336.33272</ele>
        <time>2025-04-25T09:22:00.000Z</time>
      </trkpt>
      <trkpt lat="43.38879" lon="6.09581">
        <ele>336.33272</ele>
        <time>2025-04-25T09:22:00.000Z</time>
      </trkpt>
      <trkpt lat="43.38879" lon="6.09576">
        <ele>336.421886</ele>
        <time>2025-04-25T09:22:01.000Z</time>
      </trkpt>
      <trkpt lat="43.38878" lon="6.09572">
        <ele>336.511662</ele>
        <time>2025-04-25T09:22:02.000Z</time>
      </trkpt>
      <trkpt lat="43.38878" lon="6.09572">
        <ele>336.511662</ele>
        <time>2025-04-25T09:22:02.000Z</time>
      </trkpt>
      <trkpt lat="43.38878" lon="6.09567">
        <ele>336.593614</ele>
        <time>2025-04-25T09:22:03.000Z</time>
      </trkpt>
      <trkpt lat="43.38878" lon="6.09563">
        <ele>336.681505</ele>
        <time>2025-04-25T09:22:04.000Z</time>
      </trkpt>
      <trkpt lat="43.38878" lon="6.09563">
        <ele>336.681505</ele>
        <time>2025-04-25T09:22:04.000Z</time>
      </trkpt>
      <trkpt lat="43.38877" lon="6.09558">
        <ele>336.769397</ele>
        <time>2025-04-25T09:22:05.000Z</time>
      </trkpt>
      <trkpt lat="43.38877" lon="6.09553">
        <ele>336.857288</ele>
        <time>2025-04-25T09:22:06.000Z</time>
      </trkpt>
      <trkpt lat="43.38877" lon="6.09553">
        <ele>336.857288</ele>
        <time>2025-04-25T09:22:06.000Z</time>
      </trkpt>
      <trkpt lat="43.38877" lon="6.09549">
        <ele>336.948351</ele>
        <time>2025-04-25T09:22:07.000Z</time>
      </trkpt>
      <trkpt lat="43.38877" lon="6.09549">
        <ele>336.948351</ele>
        <time>2025-04-25T09:22:07.000Z</time>
      </trkpt>
      <trkpt lat="43.38876" lon="6.09544">
        <ele>337.038126</ele>
        <time>2025-04-25T09:22:08.000Z</time>
      </trkpt>
      <trkpt lat="43.38876" lon="6.0954">
        <ele>337.120079</ele>
        <time>2025-04-25T09:22:09.000Z</time>
      </trkpt>
      <trkpt lat="43.38876" lon="6.0954">
        <ele>337.120079</ele>
        <time>2025-04-25T09:22:09.000Z</time>
      </trkpt>
      <trkpt lat="43.38876" lon="6.09535">
        <ele>337.211142</ele>
        <time>2025-04-25T09:22:10.000Z</time>
      </trkpt>
      <trkpt lat="43.38876" lon="6.0953">
        <ele>337.304687</ele>
        <time>2025-04-25T09:22:11.000Z</time>
      </trkpt>
      <trkpt lat="43.38876" lon="6.0953">
        <ele>337.304687</ele>
        <time>2025-04-25T09:22:11.000Z</time>
      </trkpt>
      <trkpt lat="43.38876" lon="6.09526">
        <ele>337.386264</ele>
        <time>2025-04-25T09:22:12.000Z</time>
      </trkpt>
      <trkpt lat="43.38876" lon="6.09521">
        <ele>337.47543</ele>
        <time>2025-04-25T09:22:13.000Z</time>
      </trkpt>
      <trkpt lat="43.38876" lon="6.09521">
        <ele>337.47543</ele>
        <time>2025-04-25T09:22:13.000Z</time>
      </trkpt>
      <trkpt lat="43.38876" lon="6.09516">
        <ele>337.56709</ele>
        <time>2025-04-25T09:22:14.000Z</time>
      </trkpt>
      <trkpt lat="43.38876" lon="6.09512">
        <ele>337.650565</ele>
        <time>2025-04-25T09:22:15.000Z</time>
      </trkpt>
      <trkpt lat="43.38876" lon="6.09512">
        <ele>337.650565</ele>
        <time>2025-04-25T09:22:15.000Z</time>
      </trkpt>
      <trkpt lat="43.38876" lon="6.09508">
        <ele>337.727166</ele>
        <time>2025-04-25T09:22:16.000Z</time>
      </trkpt>
      <trkpt lat="43.38875" lon="6.09505">
        <ele>337.77573</ele>
        <time>2025-04-25T09:22:17.000Z</time>
      </trkpt>
      <trkpt lat="43.38875" lon="6.09502">
        <ele>337.837331</ele>
        <time>2025-04-25T09:22:18.000Z</time>
      </trkpt>
      <trkpt lat="43.38875" lon="6.09502">
        <ele>337.837331</ele>
        <time>2025-04-25T09:22:18.000Z</time>
      </trkpt>
      <trkpt lat="43.38875" lon="6.09499">
        <ele>337.899936</ele>
        <time>2025-04-25T09:22:19.000Z</time>
      </trkpt>
      <trkpt lat="43.38875" lon="6.09495">
        <ele>337.962542</ele>
        <time>2025-04-25T09:22:20.000Z</time>
      </trkpt>
      <trkpt lat="43.38874" lon="6.09493">
        <ele>338.016679</ele>
        <time>2025-04-25T09:22:21.000Z</time>
      </trkpt>
      <trkpt lat="43.38874" lon="6.09493">
        <ele>338.016679</ele>
        <time>2025-04-25T09:22:21.000Z</time>
      </trkpt>
      <trkpt lat="43.38875" lon="6.0949">
        <ele>338.079089</ele>
        <time>2025-04-25T09:22:22.000Z</time>
      </trkpt>
      <trkpt lat="43.38877" lon="6.09486">
        <ele>338.160458</ele>
        <time>2025-04-25T09:22:23.000Z</time>
      </trkpt>
      <trkpt lat="43.38879" lon="6.09483">
        <ele>338.234302</ele>
        <time>2025-04-25T09:22:24.000Z</time>
      </trkpt>
      <trkpt lat="43.38879" lon="6.09483">
        <ele>338.234302</ele>
        <time>2025-04-25T09:22:24.000Z</time>
      </trkpt>
      <trkpt lat="43.3888" lon="6.09479">
        <ele>338.319267</ele>
        <time>2025-04-25T09:22:25.000Z</time>
      </trkpt>
      <trkpt lat="43.38881" lon="6.09475">
        <ele>338.402866</ele>
        <time>2025-04-25T09:22:26.000Z</time>
      </trkpt>
      <trkpt lat="43.38881" lon="6.09475">
        <ele>338.402866</ele>
        <time>2025-04-25T09:22:26.000Z</time>
      </trkpt>
      <trkpt lat="43.38882" lon="6.0947">
        <ele>338.492025</ele>
        <time>2025-04-25T09:22:27.000Z</time>
      </trkpt>
      <trkpt lat="43.38883" lon="6.09465">
        <ele>338.596594</ele>
        <time>2025-04-25T09:22:28.000Z</time>
      </trkpt>
      <trkpt lat="43.38883" lon="6.09465">
        <ele>338.596594</ele>
        <time>2025-04-25T09:22:28.000Z</time>
      </trkpt>
      <trkpt lat="43.38884" lon="6.09461">
        <ele>338.671316</ele>
        <time>2025-04-25T09:22:29.000Z</time>
      </trkpt>
      <trkpt lat="43.38884" lon="6.09457">
        <ele>338.754791</ele>
        <time>2025-04-25T09:22:30.000Z</time>
      </trkpt>
      <trkpt lat="43.38884" lon="6.09457">
        <ele>338.754791</ele>
        <time>2025-04-25T09:22:30.000Z</time>
      </trkpt>
      <trkpt lat="43.38884" lon="6.09453">
        <ele>338.819294</ele>
        <time>2025-04-25T09:22:31.000Z</time>
      </trkpt>
      <trkpt lat="43.38883" lon="6.0945">
        <ele>338.888901</ele>
        <time>2025-04-25T09:22:32.000Z</time>
      </trkpt>
      <trkpt lat="43.38883" lon="6.0945">
        <ele>338.888901</ele>
        <time>2025-04-25T09:22:32.000Z</time>
      </trkpt>
      <trkpt lat="43.38882" lon="6.09446">
        <ele>338.954119</ele>
        <time>2025-04-25T09:22:33.000Z</time>
      </trkpt>
      <trkpt lat="43.38882" lon="6.09444">
        <ele>339.006396</ele>
        <time>2025-04-25T09:22:34.000Z</time>
      </trkpt>
      <trkpt lat="43.38881" lon="6.0944">
        <ele>339.077362</ele>
        <time>2025-04-25T09:22:35.000Z</time>
      </trkpt>
      <trkpt lat="43.38881" lon="6.0944">
        <ele>339.077362</ele>
        <time>2025-04-25T09:22:35.000Z</time>
      </trkpt>
      <trkpt lat="43.38881" lon="6.09437">
        <ele>339.143763</ele>
        <time>2025-04-25T09:22:36.000Z</time>
      </trkpt>
      <trkpt lat="43.38881" lon="6.09434">
        <ele>339.100683</ele>
        <time>2025-04-25T09:22:36.000Z</time>
      </trkpt>
      <trkpt lat="43.38881" lon="6.09434">
        <ele>339.100683</ele>
        <time>2025-04-25T09:22:36.000Z</time>
      </trkpt>
      <trkpt lat="43.38882" lon="6.09431">
        <ele>339.021671</ele>
        <time>2025-04-25T09:22:37.000Z</time>
      </trkpt>
      <trkpt lat="43.38883" lon="6.09429">
        <ele>338.966468</ele>
        <time>2025-04-25T09:22:39.000Z</time>
      </trkpt>
      <trkpt lat="43.38883" lon="6.09428">
        <ele>338.936898</ele>
        <time>2025-04-25T09:22:40.000Z</time>
      </trkpt>
      <trkpt lat="43.38885" lon="6.09426">
        <ele>338.856843</ele>
        <time>2025-04-25T09:22:42.000Z</time>
      </trkpt>
      <trkpt lat="43.38886" lon="6.09425">
        <ele>338.814658</ele>
        <time>2025-04-25T09:22:43.000Z</time>
      </trkpt>
      <trkpt lat="43.38888" lon="6.09422">
        <ele>338.711763</ele>
        <time>2025-04-25T09:22:46.000Z</time>
      </trkpt>
      <trkpt lat="43.38888" lon="6.09422">
        <ele>338.711763</ele>
        <time>2025-04-25T09:22:46.000Z</time>
      </trkpt>
      <trkpt lat="43.38889" lon="6.09422">
        <ele>338.682366</ele>
        <time>2025-04-25T09:22:48.000Z</time>
      </trkpt>
      <trkpt lat="43.38889" lon="6.09421">
        <ele>338.672004</ele>
        <time>2025-04-25T09:22:49.000Z</time>
      </trkpt>
      <trkpt lat="43.38889" lon="6.09421">
        <ele>338.672004</ele>
        <time>2025-04-25T09:22:49.000Z</time>
      </trkpt>
      <trkpt lat="43.38889" lon="6.0942">
        <ele>338.640918</ele>
        <time>2025-04-25T09:22:50.000Z</time>
      </trkpt>
      <trkpt lat="43.38889" lon="6.09418">
        <ele>338.59429</ele>
        <time>2025-04-25T09:22:51.000Z</time>
      </trkpt>
      <trkpt lat="43.38889" lon="6.09418">
        <ele>338.59429</ele>
        <time>2025-04-25T09:22:51.000Z</time>
      </trkpt>
      <trkpt lat="43.3889" lon="6.09417">
        <ele>338.522232</ele>
        <time>2025-04-25T09:22:52.000Z</time>
      </trkpt>
      <trkpt lat="43.3889" lon="6.09417">
        <ele>338.522232</ele>
        <time>2025-04-25T09:22:52.000Z</time>
      </trkpt>
      <trkpt lat="43.38892" lon="6.09414">
        <ele>338.43212</ele>
        <time>2025-04-25T09:22:53.000Z</time>
      </trkpt>
      <trkpt lat="43.38892" lon="6.09414">
        <ele>338.43212</ele>
        <time>2025-04-25T09:22:53.000Z</time>
      </trkpt>
      <trkpt lat="43.38894" lon="6.09411">
        <ele>338.332882</ele>
        <time>2025-04-25T09:22:54.000Z</time>
      </trkpt>
      <trkpt lat="43.38894" lon="6.09411">
        <ele>338.332882</ele>
        <time>2025-04-25T09:22:54.000Z</time>
      </trkpt>
      <trkpt lat="43.38896" lon="6.09409">
        <ele>338.231532</ele>
        <time>2025-04-25T09:22:55.000Z</time>
      </trkpt>
      <trkpt lat="43.38896" lon="6.09409">
        <ele>338.231532</ele>
        <time>2025-04-25T09:22:55.000Z</time>
      </trkpt>
      <trkpt lat="43.38899" lon="6.09406">
        <ele>338.111015</ele>
        <time>2025-04-25T09:22:56.000Z</time>
      </trkpt>
      <trkpt lat="43.38899" lon="6.09406">
        <ele>338.111015</ele>
        <time>2025-04-25T09:22:56.000Z</time>
      </trkpt>
      <trkpt lat="43.38901" lon="6.09403">
        <ele>337.988383</ele>
        <time>2025-04-25T09:22:57.000Z</time>
      </trkpt>
      <trkpt lat="43.38901" lon="6.09403">
        <ele>337.988383</ele>
        <time>2025-04-25T09:22:57.000Z</time>
      </trkpt>
      <trkpt lat="43.38904" lon="6.09399">
        <ele>337.835113</ele>
        <time>2025-04-25T09:22:58.000Z</time>
      </trkpt>
      <trkpt lat="43.38904" lon="6.09399">
        <ele>337.835113</ele>
        <time>2025-04-25T09:22:58.000Z</time>
      </trkpt>
      <trkpt lat="43.38907" lon="6.09395">
        <ele>337.710941</ele>
        <time>2025-04-25T09:22:59.000Z</time>
      </trkpt>
      <trkpt lat="43.38907" lon="6.09395">
        <ele>337.710941</ele>
        <time>2025-04-25T09:22:59.000Z</time>
      </trkpt>
      <trkpt lat="43.38909" lon="6.09391">
        <ele>337.576925</ele>
        <time>2025-04-25T09:23:00.000Z</time>
      </trkpt>
      <trkpt lat="43.38909" lon="6.09391">
        <ele>337.576925</ele>
        <time>2025-04-25T09:23:00.000Z</time>
      </trkpt>
      <trkpt lat="43.38912" lon="6.09388">
        <ele>337.431577</ele>
        <time>2025-04-25T09:23:01.000Z</time>
      </trkpt>
      <trkpt lat="43.38912" lon="6.09388">
        <ele>337.431577</ele>
        <time>2025-04-25T09:23:01.000Z</time>
      </trkpt>
      <trkpt lat="43.38915" lon="6.09384">
        <ele>337.281851</ele>
        <time>2025-04-25T09:23:02.000Z</time>
      </trkpt>
      <trkpt lat="43.38915" lon="6.09384">
        <ele>337.281851</ele>
        <time>2025-04-25T09:23:02.000Z</time>
      </trkpt>
      <trkpt lat="43.38919" lon="6.0938">
        <ele>337.127333</ele>
        <time>2025-04-25T09:23:03.000Z</time>
      </trkpt>
      <trkpt lat="43.38919" lon="6.0938">
        <ele>337.127333</ele>
        <time>2025-04-25T09:23:03.000Z</time>
      </trkpt>
      <trkpt lat="43.38922" lon="6.09377">
        <ele>336.990424</ele>
        <time>2025-04-25T09:23:04.000Z</time>
      </trkpt>
      <trkpt lat="43.38922" lon="6.09377">
        <ele>336.990424</ele>
        <time>2025-04-25T09:23:04.000Z</time>
      </trkpt>
      <trkpt lat="43.38925" lon="6.09373">
        <ele>336.847485</ele>
        <time>2025-04-25T09:23:05.000Z</time>
      </trkpt>
      <trkpt lat="43.38925" lon="6.09373">
        <ele>336.847485</ele>
        <time>2025-04-25T09:23:05.000Z</time>
      </trkpt>
      <trkpt lat="43.38928" lon="6.0937">
        <ele>336.705594</ele>
        <time>2025-04-25T09:23:06.000Z</time>
      </trkpt>
      <trkpt lat="43.38928" lon="6.0937">
        <ele>336.705594</ele>
        <time>2025-04-25T09:23:06.000Z</time>
      </trkpt>
      <trkpt lat="43.38931" lon="6.09366">
        <ele>336.578571</ele>
        <time>2025-04-25T09:23:07.000Z</time>
      </trkpt>
      <trkpt lat="43.38931" lon="6.09366">
        <ele>336.578571</ele>
        <time>2025-04-25T09:23:07.000Z</time>
      </trkpt>
      <trkpt lat="43.38933" lon="6.09363">
        <ele>336.465605</ele>
        <time>2025-04-25T09:23:08.000Z</time>
      </trkpt>
      <trkpt lat="43.38933" lon="6.09363">
        <ele>336.465605</ele>
        <time>2025-04-25T09:23:08.000Z</time>
      </trkpt>
      <trkpt lat="43.38936" lon="6.09361">
        <ele>336.345088</ele>
        <time>2025-04-25T09:23:09.000Z</time>
      </trkpt>
      <trkpt lat="43.38936" lon="6.09361">
        <ele>336.345088</ele>
        <time>2025-04-25T09:23:09.000Z</time>
      </trkpt>
      <trkpt lat="43.38938" lon="6.09358">
        <ele>336.222457</ele>
        <time>2025-04-25T09:23:10.000Z</time>
      </trkpt>
      <trkpt lat="43.38938" lon="6.09358">
        <ele>336.222457</ele>
        <time>2025-04-25T09:23:10.000Z</time>
      </trkpt>
      <trkpt lat="43.3894" lon="6.09354">
        <ele>336.107693</ele>
        <time>2025-04-25T09:23:11.000Z</time>
      </trkpt>
      <trkpt lat="43.3894" lon="6.09354">
        <ele>336.107693</ele>
        <time>2025-04-25T09:23:11.000Z</time>
      </trkpt>
      <trkpt lat="43.38943" lon="6.09352">
        <ele>335.996493</ele>
        <time>2025-04-25T09:23:12.000Z</time>
      </trkpt>
      <trkpt lat="43.38943" lon="6.09352">
        <ele>335.996493</ele>
        <time>2025-04-25T09:23:12.000Z</time>
      </trkpt>
      <trkpt lat="43.38945" lon="6.09348">
        <ele>335.862478</ele>
        <time>2025-04-25T09:23:13.000Z</time>
      </trkpt>
      <trkpt lat="43.38945" lon="6.09348">
        <ele>335.862478</ele>
        <time>2025-04-25T09:23:13.000Z</time>
      </trkpt>
      <trkpt lat="43.38948" lon="6.09344">
        <ele>335.711759</ele>
        <time>2025-04-25T09:23:14.000Z</time>
      </trkpt>
      <trkpt lat="43.38948" lon="6.09344">
        <ele>335.711759</ele>
        <time>2025-04-25T09:23:14.000Z</time>
      </trkpt>
      <trkpt lat="43.38951" lon="6.09339">
        <ele>335.56059</ele>
        <time>2025-04-25T09:23:15.000Z</time>
      </trkpt>
      <trkpt lat="43.38954" lon="6.09334">
        <ele>335.38636</ele>
        <time>2025-04-25T09:23:16.000Z</time>
      </trkpt>
      <trkpt lat="43.38954" lon="6.09334">
        <ele>335.38636</ele>
        <time>2025-04-25T09:23:16.000Z</time>
      </trkpt>
      <trkpt lat="43.38958" lon="6.09328">
        <ele>335.174269</ele>
        <time>2025-04-25T09:23:17.000Z</time>
      </trkpt>
      <trkpt lat="43.38958" lon="6.09328">
        <ele>335.174269</ele>
        <time>2025-04-25T09:23:17.000Z</time>
      </trkpt>
      <trkpt lat="43.38962" lon="6.09321">
        <ele>334.935101</ele>
        <time>2025-04-25T09:23:18.000Z</time>
      </trkpt>
      <trkpt lat="43.38962" lon="6.09321">
        <ele>334.935101</ele>
        <time>2025-04-25T09:23:18.000Z</time>
      </trkpt>
      <trkpt lat="43.38966" lon="6.09314">
        <ele>334.716974</ele>
        <time>2025-04-25T09:23:19.000Z</time>
      </trkpt>
      <trkpt lat="43.38966" lon="6.09314">
        <ele>334.716974</ele>
        <time>2025-04-25T09:23:19.000Z</time>
      </trkpt>
      <trkpt lat="43.38969" lon="6.09308">
        <ele>334.517506</ele>
        <time>2025-04-25T09:23:20.000Z</time>
      </trkpt>
      <trkpt lat="43.38969" lon="6.09308">
        <ele>334.517506</ele>
        <time>2025-04-25T09:23:20.000Z</time>
      </trkpt>
      <trkpt lat="43.38974" lon="6.09299">
        <ele>334.232204</ele>
        <time>2025-04-25T09:23:21.000Z</time>
      </trkpt>
      <trkpt lat="43.38974" lon="6.09299">
        <ele>334.232204</ele>
        <time>2025-04-25T09:23:21.000Z</time>
      </trkpt>
      <trkpt lat="43.38978" lon="6.09292">
        <ele>334.014078</ele>
        <time>2025-04-25T09:23:22.000Z</time>
      </trkpt>
      <trkpt lat="43.38978" lon="6.09292">
        <ele>334.014078</ele>
        <time>2025-04-25T09:23:22.000Z</time>
      </trkpt>
      <trkpt lat="43.38982" lon="6.09284">
        <ele>333.760515</ele>
        <time>2025-04-25T09:23:23.000Z</time>
      </trkpt>
      <trkpt lat="43.38985" lon="6.09277">
        <ele>333.524899</ele>
        <time>2025-04-25T09:23:24.000Z</time>
      </trkpt>
      <trkpt lat="43.38985" lon="6.09277">
        <ele>333.524899</ele>
        <time>2025-04-25T09:23:24.000Z</time>
      </trkpt>
      <trkpt lat="43.38989" lon="6.09269">
        <ele>333.296871</ele>
        <time>2025-04-25T09:23:25.000Z</time>
      </trkpt>
      <trkpt lat="43.38989" lon="6.09269">
        <ele>333.296871</ele>
        <time>2025-04-25T09:23:25.000Z</time>
      </trkpt>
      <trkpt lat="43.38992" lon="6.09262">
        <ele>333.077367</ele>
        <time>2025-04-25T09:23:26.000Z</time>
      </trkpt>
      <trkpt lat="43.38992" lon="6.09262">
        <ele>333.077367</ele>
        <time>2025-04-25T09:23:26.000Z</time>
      </trkpt>
      <trkpt lat="43.38994" lon="6.09255">
        <ele>332.887757</ele>
        <time>2025-04-25T09:23:27.000Z</time>
      </trkpt>
      <trkpt lat="43.38994" lon="6.09255">
        <ele>332.887757</ele>
        <time>2025-04-25T09:23:27.000Z</time>
      </trkpt>
      <trkpt lat="43.38996" lon="6.09249">
        <ele>332.718982</ele>
        <time>2025-04-25T09:23:28.000Z</time>
      </trkpt>
      <trkpt lat="43.38996" lon="6.09249">
        <ele>332.718982</ele>
        <time>2025-04-25T09:23:28.000Z</time>
      </trkpt>
      <trkpt lat="43.38997" lon="6.09243">
        <ele>332.608214</ele>
        <time>2025-04-25T09:23:29.000Z</time>
      </trkpt>
      <trkpt lat="43.38997" lon="6.09243">
        <ele>332.608214</ele>
        <time>2025-04-25T09:23:29.000Z</time>
      </trkpt>
      <trkpt lat="43.38999" lon="6.09237">
        <ele>332.489577</ele>
        <time>2025-04-25T09:23:30.000Z</time>
      </trkpt>
      <trkpt lat="43.38999" lon="6.09237">
        <ele>332.489577</ele>
        <time>2025-04-25T09:23:30.000Z</time>
      </trkpt>
      <trkpt lat="43.39" lon="6.09231">
        <ele>332.372707</ele>
        <time>2025-04-25T09:23:31.000Z</time>
      </trkpt>
      <trkpt lat="43.39" lon="6.09231">
        <ele>332.372707</ele>
        <time>2025-04-25T09:23:31.000Z</time>
      </trkpt>
      <trkpt lat="43.39002" lon="6.09224">
        <ele>332.238235</ele>
        <time>2025-04-25T09:23:32.000Z</time>
      </trkpt>
      <trkpt lat="43.39002" lon="6.09224">
        <ele>332.238235</ele>
        <time>2025-04-25T09:23:32.000Z</time>
      </trkpt>
      <trkpt lat="43.39004" lon="6.09218">
        <ele>332.105502</ele>
        <time>2025-04-25T09:23:33.000Z</time>
      </trkpt>
      <trkpt lat="43.39005" lon="6.09212">
        <ele>332.002461</ele>
        <time>2025-04-25T09:23:34.000Z</time>
      </trkpt>
      <trkpt lat="43.39005" lon="6.09212">
        <ele>332.002461</ele>
        <time>2025-04-25T09:23:34.000Z</time>
      </trkpt>
      <trkpt lat="43.39007" lon="6.09202">
        <ele>331.809203</ele>
        <time>2025-04-25T09:23:35.000Z</time>
      </trkpt>
      <trkpt lat="43.39008" lon="6.09195">
        <ele>331.66916</ele>
        <time>2025-04-25T09:23:36.000Z</time>
      </trkpt>
      <trkpt lat="43.39008" lon="6.09195">
        <ele>331.66916</ele>
        <time>2025-04-25T09:23:36.000Z</time>
      </trkpt>
      <trkpt lat="43.3901" lon="6.09188">
        <ele>331.534687</ele>
        <time>2025-04-25T09:23:37.000Z</time>
      </trkpt>
      <trkpt lat="43.3901" lon="6.09188">
        <ele>331.534687</ele>
        <time>2025-04-25T09:23:37.000Z</time>
      </trkpt>
      <trkpt lat="43.39011" lon="6.09182">
        <ele>331.405391</ele>
        <time>2025-04-25T09:23:38.000Z</time>
      </trkpt>
      <trkpt lat="43.39011" lon="6.09182">
        <ele>331.405391</ele>
        <time>2025-04-25T09:23:38.000Z</time>
      </trkpt>
      <trkpt lat="43.39013" lon="6.09174">
        <ele>331.262169</ele>
        <time>2025-04-25T09:23:39.000Z</time>
      </trkpt>
      <trkpt lat="43.39013" lon="6.09174">
        <ele>331.262169</ele>
        <time>2025-04-25T09:23:39.000Z</time>
      </trkpt>
      <trkpt lat="43.39015" lon="6.09167">
        <ele>331.113403</ele>
        <time>2025-04-25T09:23:40.000Z</time>
      </trkpt>
      <trkpt lat="43.39017" lon="6.09161">
        <ele>330.994767</ele>
        <time>2025-04-25T09:23:41.000Z</time>
      </trkpt>
      <trkpt lat="43.39017" lon="6.09161">
        <ele>330.994767</ele>
        <time>2025-04-25T09:23:41.000Z</time>
      </trkpt>
      <trkpt lat="43.39018" lon="6.09155">
        <ele>330.874361</ele>
        <time>2025-04-25T09:23:42.000Z</time>
      </trkpt>
      <trkpt lat="43.39018" lon="6.09155">
        <ele>330.874361</ele>
        <time>2025-04-25T09:23:42.000Z</time>
      </trkpt>
      <trkpt lat="43.3902" lon="6.09148">
        <ele>330.728493</ele>
        <time>2025-04-25T09:23:43.000Z</time>
      </trkpt>
      <trkpt lat="43.3902" lon="6.09148">
        <ele>330.728493</ele>
        <time>2025-04-25T09:23:43.000Z</time>
      </trkpt>
      <trkpt lat="43.39021" lon="6.09142">
        <ele>330.612795</ele>
        <time>2025-04-25T09:23:44.000Z</time>
      </trkpt>
      <trkpt lat="43.39021" lon="6.09142">
        <ele>330.612795</ele>
        <time>2025-04-25T09:23:44.000Z</time>
      </trkpt>
      <trkpt lat="43.39022" lon="6.09136">
        <ele>330.502527</ele>
        <time>2025-04-25T09:23:45.000Z</time>
      </trkpt>
      <trkpt lat="43.39024" lon="6.09131">
        <ele>330.398665</ele>
        <time>2025-04-25T09:23:46.000Z</time>
      </trkpt>
      <trkpt lat="43.39024" lon="6.09131">
        <ele>330.398665</ele>
        <time>2025-04-25T09:23:46.000Z</time>
      </trkpt>
      <trkpt lat="43.39025" lon="6.09126">
        <ele>330.300988</ele>
        <time>2025-04-25T09:23:47.000Z</time>
      </trkpt>
      <trkpt lat="43.39025" lon="6.09126">
        <ele>330.300988</ele>
        <time>2025-04-25T09:23:47.000Z</time>
      </trkpt>
      <trkpt lat="43.39027" lon="6.09119">
        <ele>330.164131</ele>
        <time>2025-04-25T09:23:47.000Z</time>
      </trkpt>
      <trkpt lat="43.3903" lon="6.09113">
        <ele>330.023893</ele>
        <time>2025-04-25T09:23:49.000Z</time>
      </trkpt>
      <trkpt lat="43.3903" lon="6.09113">
        <ele>330.023893</ele>
        <time>2025-04-25T09:23:49.000Z</time>
      </trkpt>
      <trkpt lat="43.39031" lon="6.09107">
        <ele>329.905257</ele>
        <time>2025-04-25T09:23:50.000Z</time>
      </trkpt>
      <trkpt lat="43.39034" lon="6.091">
        <ele>329.771762</ele>
        <time>2025-04-25T09:23:51.000Z</time>
      </trkpt>
      <trkpt lat="43.39034" lon="6.091">
        <ele>329.771762</ele>
        <time>2025-04-25T09:23:51.000Z</time>
      </trkpt>
      <trkpt lat="43.39036" lon="6.09094">
        <ele>329.643271</ele>
        <time>2025-04-25T09:23:52.000Z</time>
      </trkpt>
      <trkpt lat="43.39038" lon="6.09088">
        <ele>329.518088</ele>
        <time>2025-04-25T09:23:53.000Z</time>
      </trkpt>
      <trkpt lat="43.3904" lon="6.09082">
        <ele>329.400837</ele>
        <time>2025-04-25T09:23:54.000Z</time>
      </trkpt>
      <trkpt lat="43.3904" lon="6.09082">
        <ele>329.400837</ele>
        <time>2025-04-25T09:23:54.000Z</time>
      </trkpt>
      <trkpt lat="43.39042" lon="6.09077">
        <ele>329.285731</ele>
        <time>2025-04-25T09:23:55.000Z</time>
      </trkpt>
      <trkpt lat="43.39044" lon="6.09071">
        <ele>329.163829</ele>
        <time>2025-04-25T09:23:56.000Z</time>
      </trkpt>
      <trkpt lat="43.39044" lon="6.09071">
        <ele>329.163829</ele>
        <time>2025-04-25T09:23:56.000Z</time>
      </trkpt>
      <trkpt lat="43.39046" lon="6.09066">
        <ele>329.050011</ele>
        <time>2025-04-25T09:23:57.000Z</time>
      </trkpt>
      <trkpt lat="43.39049" lon="6.0906">
        <ele>328.928992</ele>
        <time>2025-04-25T09:23:57.000Z</time>
      </trkpt>
      <trkpt lat="43.39051" lon="6.09055">
        <ele>328.805453</ele>
        <time>2025-04-25T09:23:59.000Z</time>
      </trkpt>
      <trkpt lat="43.39051" lon="6.09055">
        <ele>328.805453</ele>
        <time>2025-04-25T09:23:59.000Z</time>
      </trkpt>
      <trkpt lat="43.39054" lon="6.09049">
        <ele>328.676441</ele>
        <time>2025-04-25T09:24:00.000Z</time>
      </trkpt>
      <trkpt lat="43.39056" lon="6.09043">
        <ele>328.549225</ele>
        <time>2025-04-25T09:24:00.000Z</time>
      </trkpt>
      <trkpt lat="43.39056" lon="6.09043">
        <ele>328.549225</ele>
        <time>2025-04-25T09:24:00.000Z</time>
      </trkpt>
      <trkpt lat="43.39059" lon="6.09037">
        <ele>328.406829</ele>
        <time>2025-04-25T09:24:02.000Z</time>
      </trkpt>
      <trkpt lat="43.39062" lon="6.09031">
        <ele>328.284928</ele>
        <time>2025-04-25T09:24:03.000Z</time>
      </trkpt>
      <trkpt lat="43.39062" lon="6.09031">
        <ele>328.284928</ele>
        <time>2025-04-25T09:24:03.000Z</time>
      </trkpt>
      <trkpt lat="43.39064" lon="6.09025">
        <ele>328.151385</ele>
        <time>2025-04-25T09:24:04.000Z</time>
      </trkpt>
      <trkpt lat="43.39067" lon="6.09019">
        <ele>328.054646</ele>
        <time>2025-04-25T09:24:05.000Z</time>
      </trkpt>
      <trkpt lat="43.39067" lon="6.09019">
        <ele>328.054646</ele>
        <time>2025-04-25T09:24:05.000Z</time>
      </trkpt>
      <trkpt lat="43.39069" lon="6.09014">
        <ele>327.964165</ele>
        <time>2025-04-25T09:24:06.000Z</time>
      </trkpt>
      <trkpt lat="43.39072" lon="6.09008">
        <ele>327.876994</ele>
        <time>2025-04-25T09:24:07.000Z</time>
      </trkpt>
      <trkpt lat="43.39072" lon="6.09008">
        <ele>327.876994</ele>
        <time>2025-04-25T09:24:07.000Z</time>
      </trkpt>
      <trkpt lat="43.39075" lon="6.09003">
        <ele>327.783097</ele>
        <time>2025-04-25T09:24:08.000Z</time>
      </trkpt>
      <trkpt lat="43.39077" lon="6.08997">
        <ele>327.696369</ele>
        <time>2025-04-25T09:24:09.000Z</time>
      </trkpt>
      <trkpt lat="43.39077" lon="6.08997">
        <ele>327.696369</ele>
        <time>2025-04-25T09:24:09.000Z</time>
      </trkpt>
      <trkpt lat="43.39079" lon="6.0899">
        <ele>327.590737</ele>
        <time>2025-04-25T09:24:10.000Z</time>
      </trkpt>
      <trkpt lat="43.39081" lon="6.08984">
        <ele>327.499011</ele>
        <time>2025-04-25T09:24:11.000Z</time>
      </trkpt>
      <trkpt lat="43.39081" lon="6.08984">
        <ele>327.499011</ele>
        <time>2025-04-25T09:24:11.000Z</time>
      </trkpt>
      <trkpt lat="43.39083" lon="6.08978">
        <ele>327.417224</ele>
        <time>2025-04-25T09:24:12.000Z</time>
      </trkpt>
      <trkpt lat="43.39083" lon="6.08978">
        <ele>327.417224</ele>
        <time>2025-04-25T09:24:12.000Z</time>
      </trkpt>
      <trkpt lat="43.39085" lon="6.08972">
        <ele>327.322979</ele>
        <time>2025-04-25T09:24:13.000Z</time>
      </trkpt>
      <trkpt lat="43.39087" lon="6.08966">
        <ele>327.224426</ele>
        <time>2025-04-25T09:24:14.000Z</time>
      </trkpt>
      <trkpt lat="43.39087" lon="6.08966">
        <ele>327.224426</ele>
        <time>2025-04-25T09:24:14.000Z</time>
      </trkpt>
      <trkpt lat="43.3909" lon="6.08958">
        <ele>327.112198</ele>
        <time>2025-04-25T09:24:15.000Z</time>
      </trkpt>
      <trkpt lat="43.39092" lon="6.0895">
        <ele>327.001227</ele>
        <time>2025-04-25T09:24:16.000Z</time>
      </trkpt>
      <trkpt lat="43.39092" lon="6.0895">
        <ele>327.001227</ele>
        <time>2025-04-25T09:24:16.000Z</time>
      </trkpt>
      <trkpt lat="43.39094" lon="6.08944">
        <ele>326.900641</ele>
        <time>2025-04-25T09:24:17.000Z</time>
      </trkpt>
      <trkpt lat="43.39096" lon="6.08936">
        <ele>326.7975</ele>
        <time>2025-04-25T09:24:18.000Z</time>
      </trkpt>
      <trkpt lat="43.39097" lon="6.08929">
        <ele>326.691459</ele>
        <time>2025-04-25T09:24:19.000Z</time>
      </trkpt>
      <trkpt lat="43.39097" lon="6.08929">
        <ele>326.691459</ele>
        <time>2025-04-25T09:24:19.000Z</time>
      </trkpt>
      <trkpt lat="43.39099" lon="6.08922">
        <ele>326.592146</ele>
        <time>2025-04-25T09:24:20.000Z</time>
      </trkpt>
      <trkpt lat="43.39101" lon="6.08916">
        <ele>326.499178</ele>
        <time>2025-04-25T09:24:21.000Z</time>
      </trkpt>
      <trkpt lat="43.39101" lon="6.08916">
        <ele>326.499178</ele>
        <time>2025-04-25T09:24:21.000Z</time>
      </trkpt>
      <trkpt lat="43.39102" lon="6.0891">
        <ele>326.410772</ele>
        <time>2025-04-25T09:24:22.000Z</time>
      </trkpt>
      <trkpt lat="43.39104" lon="6.08902">
        <ele>326.306045</ele>
        <time>2025-04-25T09:24:23.000Z</time>
      </trkpt>
      <trkpt lat="43.39104" lon="6.08902">
        <ele>326.306045</ele>
        <time>2025-04-25T09:24:23.000Z</time>
      </trkpt>
      <trkpt lat="43.39105" lon="6.08895">
        <ele>326.208416</ele>
        <time>2025-04-25T09:24:24.000Z</time>
      </trkpt>
      <trkpt lat="43.39106" lon="6.08888">
        <ele>326.109047</ele>
        <time>2025-04-25T09:24:25.000Z</time>
      </trkpt>
      <trkpt lat="43.39107" lon="6.08882">
        <ele>326.019396</ele>
        <time>2025-04-25T09:24:26.000Z</time>
      </trkpt>
      <trkpt lat="43.39107" lon="6.08882">
        <ele>326.019396</ele>
        <time>2025-04-25T09:24:26.000Z</time>
      </trkpt>
      <trkpt lat="43.39109" lon="6.08876">
        <ele>325.936098</ele>
        <time>2025-04-25T09:24:27.000Z</time>
      </trkpt>
      <trkpt lat="43.3911" lon="6.0887">
        <ele>325.844429</ele>
        <time>2025-04-25T09:24:28.000Z</time>
      </trkpt>
      <trkpt lat="43.3911" lon="6.0887">
        <ele>325.844429</ele>
        <time>2025-04-25T09:24:28.000Z</time>
      </trkpt>
      <trkpt lat="43.39111" lon="6.08863">
        <ele>325.757429</ele>
        <time>2025-04-25T09:24:29.000Z</time>
      </trkpt>
      <trkpt lat="43.39113" lon="6.08857">
        <ele>325.67391</ele>
        <time>2025-04-25T09:24:30.000Z</time>
      </trkpt>
      <trkpt lat="43.39114" lon="6.08851">
        <ele>325.577036</ele>
        <time>2025-04-25T09:24:31.000Z</time>
      </trkpt>
      <trkpt lat="43.39114" lon="6.08851">
        <ele>325.577036</ele>
        <time>2025-04-25T09:24:31.000Z</time>
      </trkpt>
      <trkpt lat="43.39116" lon="6.08845">
        <ele>325.48925</ele>
        <time>2025-04-25T09:24:32.000Z</time>
      </trkpt>
      <trkpt lat="43.39117" lon="6.08838">
        <ele>325.398877</ele>
        <time>2025-04-25T09:24:33.000Z</time>
      </trkpt>
      <trkpt lat="43.39117" lon="6.08838">
        <ele>325.398877</ele>
        <time>2025-04-25T09:24:33.000Z</time>
      </trkpt>
      <trkpt lat="43.39119" lon="6.08832">
        <ele>325.307902</ele>
        <time>2025-04-25T09:24:34.000Z</time>
      </trkpt>
      <trkpt lat="43.39119" lon="6.08832">
        <ele>325.307902</ele>
        <time>2025-04-25T09:24:34.000Z</time>
      </trkpt>
      <trkpt lat="43.3912" lon="6.08825">
        <ele>325.212333</ele>
        <time>2025-04-25T09:24:35.000Z</time>
      </trkpt>
      <trkpt lat="43.39122" lon="6.08818">
        <ele>325.107609</ele>
        <time>2025-04-25T09:24:36.000Z</time>
      </trkpt>
      <trkpt lat="43.39122" lon="6.08818">
        <ele>325.107609</ele>
        <time>2025-04-25T09:24:36.000Z</time>
      </trkpt>
      <trkpt lat="43.39124" lon="6.08812">
        <ele>325.014641</ele>
        <time>2025-04-25T09:24:37.000Z</time>
      </trkpt>
      <trkpt lat="43.39125" lon="6.08805">
        <ele>324.916463</ele>
        <time>2025-04-25T09:24:38.000Z</time>
      </trkpt>
      <trkpt lat="43.39125" lon="6.08805">
        <ele>324.916463</ele>
        <time>2025-04-25T09:24:38.000Z</time>
      </trkpt>
      <trkpt lat="43.39127" lon="6.08798">
        <ele>324.818421</ele>
        <time>2025-04-25T09:24:39.000Z</time>
      </trkpt>
      <trkpt lat="43.39129" lon="6.08792">
        <ele>324.739496</ele>
        <time>2025-04-25T09:24:40.000Z</time>
      </trkpt>
      <trkpt lat="43.39129" lon="6.08792">
        <ele>324.739496</ele>
        <time>2025-04-25T09:24:40.000Z</time>
      </trkpt>
      <trkpt lat="43.39131" lon="6.08787">
        <ele>324.707653</ele>
        <time>2025-04-25T09:24:41.000Z</time>
      </trkpt>
      <trkpt lat="43.39132" lon="6.0878">
        <ele>324.672911</ele>
        <time>2025-04-25T09:24:42.000Z</time>
      </trkpt>
      <trkpt lat="43.39132" lon="6.0878">
        <ele>324.672911</ele>
        <time>2025-04-25T09:24:42.000Z</time>
      </trkpt>
      <trkpt lat="43.39134" lon="6.08774">
        <ele>324.638162</ele>
        <time>2025-04-25T09:24:43.000Z</time>
      </trkpt>
      <trkpt lat="43.39134" lon="6.08774">
        <ele>324.638162</ele>
        <time>2025-04-25T09:24:43.000Z</time>
      </trkpt>
      <trkpt lat="43.39136" lon="6.08767">
        <ele>324.602934</ele>
        <time>2025-04-25T09:24:44.000Z</time>
      </trkpt>
      <trkpt lat="43.39137" lon="6.08761">
        <ele>324.568455</ele>
        <time>2025-04-25T09:24:45.000Z</time>
      </trkpt>
      <trkpt lat="43.39139" lon="6.08754">
        <ele>324.534198</ele>
        <time>2025-04-25T09:24:46.000Z</time>
      </trkpt>
      <trkpt lat="43.39139" lon="6.08754">
        <ele>324.534198</ele>
        <time>2025-04-25T09:24:46.000Z</time>
      </trkpt>
      <trkpt lat="43.39141" lon="6.08742">
        <ele>324.470483</ele>
        <time>2025-04-25T09:24:48.000Z</time>
      </trkpt>
      <trkpt lat="43.39141" lon="6.08742">
        <ele>324.470483</ele>
        <time>2025-04-25T09:24:48.000Z</time>
      </trkpt>
      <trkpt lat="43.39142" lon="6.08739">
        <ele>324.451057</ele>
        <time>2025-04-25T09:24:49.000Z</time>
      </trkpt>
      <trkpt lat="43.39143" lon="6.08733">
        <ele>324.421803</ele>
        <time>2025-04-25T09:24:50.000Z</time>
      </trkpt>
      <trkpt lat="43.39143" lon="6.08733">
        <ele>324.421803</ele>
        <time>2025-04-25T09:24:50.000Z</time>
      </trkpt>
      <trkpt lat="43.39145" lon="6.08727">
        <ele>324.390774</ele>
        <time>2025-04-25T09:24:51.000Z</time>
      </trkpt>
      <trkpt lat="43.39146" lon="6.08721">
        <ele>324.355126</ele>
        <time>2025-04-25T09:24:52.000Z</time>
      </trkpt>
      <trkpt lat="43.39147" lon="6.08714">
        <ele>324.322613</ele>
        <time>2025-04-25T09:24:53.000Z</time>
      </trkpt>
      <trkpt lat="43.39148" lon="6.08708">
        <ele>324.286966</ele>
        <time>2025-04-25T09:24:54.000Z</time>
      </trkpt>
      <trkpt lat="43.39149" lon="6.08701">
        <ele>324.253958</ele>
        <time>2025-04-25T09:24:55.000Z</time>
      </trkpt>
      <trkpt lat="43.39149" lon="6.08701">
        <ele>324.253958</ele>
        <time>2025-04-25T09:24:55.000Z</time>
      </trkpt>
      <trkpt lat="43.3915" lon="6.08696">
        <ele>324.2258</ele>
        <time>2025-04-25T09:24:56.000Z</time>
      </trkpt>
      <trkpt lat="43.3915" lon="6.0869">
        <ele>324.197135</ele>
        <time>2025-04-25T09:24:57.000Z</time>
      </trkpt>
      <trkpt lat="43.3915" lon="6.08684">
        <ele>324.167513</ele>
        <time>2025-04-25T09:24:58.000Z</time>
      </trkpt>
      <trkpt lat="43.39151" lon="6.08678">
        <ele>324.134827</ele>
        <time>2025-04-25T09:24:59.000Z</time>
      </trkpt>
      <trkpt lat="43.39151" lon="6.08678">
        <ele>324.134827</ele>
        <time>2025-04-25T09:24:59.000Z</time>
      </trkpt>
      <trkpt lat="43.39153" lon="6.08672">
        <ele>324.102504</ele>
        <time>2025-04-25T09:25:00.000Z</time>
      </trkpt>
      <trkpt lat="43.39154" lon="6.08666">
        <ele>324.069698</ele>
        <time>2025-04-25T09:25:01.000Z</time>
      </trkpt>
      <trkpt lat="43.39155" lon="6.08659">
        <ele>324.0336</ele>
        <time>2025-04-25T09:25:02.000Z</time>
      </trkpt>
      <trkpt lat="43.39156" lon="6.08653">
        <ele>324.003063</ele>
        <time>2025-04-25T09:25:03.000Z</time>
      </trkpt>
      <trkpt lat="43.39158" lon="6.08646">
        <ele>323.96692</ele>
        <time>2025-04-25T09:25:04.000Z</time>
      </trkpt>
      <trkpt lat="43.39159" lon="6.0864">
        <ele>323.932178</ele>
        <time>2025-04-25T09:25:05.000Z</time>
      </trkpt>
      <trkpt lat="43.39159" lon="6.0864">
        <ele>323.932178</ele>
        <time>2025-04-25T09:25:05.000Z</time>
      </trkpt>
      <trkpt lat="43.39161" lon="6.08633">
        <ele>323.893042</ele>
        <time>2025-04-25T09:25:06.000Z</time>
      </trkpt>
      <trkpt lat="43.39164" lon="6.08626">
        <ele>323.853907</ele>
        <time>2025-04-25T09:25:07.000Z</time>
      </trkpt>
      <trkpt lat="43.39166" lon="6.08619">
        <ele>323.816793</ele>
        <time>2025-04-25T09:25:08.000Z</time>
      </trkpt>
      <trkpt lat="43.39167" lon="6.08612">
        <ele>323.780591</ele>
        <time>2025-04-25T09:25:09.000Z</time>
      </trkpt>
      <trkpt lat="43.39168" lon="6.08605">
        <ele>323.742464</ele>
        <time>2025-04-25T09:25:10.000Z</time>
      </trkpt>
      <trkpt lat="43.39169" lon="6.08598">
        <ele>323.708989</ele>
        <time>2025-04-25T09:25:11.000Z</time>
      </trkpt>
      <trkpt lat="43.3917" lon="6.08591">
        <ele>323.671358</ele>
        <time>2025-04-25T09:25:12.000Z</time>
      </trkpt>
      <trkpt lat="43.3917" lon="6.08591">
        <ele>323.671358</ele>
        <time>2025-04-25T09:25:12.000Z</time>
      </trkpt>
      <trkpt lat="43.39171" lon="6.08585">
        <ele>323.63738</ele>
        <time>2025-04-25T09:25:13.000Z</time>
      </trkpt>
      <trkpt lat="43.39172" lon="6.08578">
        <ele>323.601732</ele>
        <time>2025-04-25T09:25:14.000Z</time>
      </trkpt>
      <trkpt lat="43.39173" lon="6.08571">
        <ele>323.56823</ele>
        <time>2025-04-25T09:25:15.000Z</time>
      </trkpt>
      <trkpt lat="43.39175" lon="6.08564">
        <ele>323.529686</ele>
        <time>2025-04-25T09:25:16.000Z</time>
      </trkpt>
      <trkpt lat="43.39177" lon="6.08558">
        <ele>323.49377</ele>
        <time>2025-04-25T09:25:17.000Z</time>
      </trkpt>
      <trkpt lat="43.39179" lon="6.08553">
        <ele>323.38632</ele>
        <time>2025-04-25T09:25:18.000Z</time>
      </trkpt>
      <trkpt lat="43.39179" lon="6.08553">
        <ele>323.38632</ele>
        <time>2025-04-25T09:25:18.000Z</time>
      </trkpt>
      <trkpt lat="43.39181" lon="6.08547">
        <ele>323.197524</ele>
        <time>2025-04-25T09:25:19.000Z</time>
      </trkpt>
      <trkpt lat="43.39183" lon="6.08541">
        <ele>322.993512</ele>
        <time>2025-04-25T09:25:20.000Z</time>
      </trkpt>
      <trkpt lat="43.39186" lon="6.08534">
        <ele>322.786936</ele>
        <time>2025-04-25T09:25:21.000Z</time>
      </trkpt>
      <trkpt lat="43.39186" lon="6.08534">
        <ele>322.786936</ele>
        <time>2025-04-25T09:25:21.000Z</time>
      </trkpt>
      <trkpt lat="43.39188" lon="6.08528">
        <ele>322.599924</ele>
        <time>2025-04-25T09:25:22.000Z</time>
      </trkpt>
      <trkpt lat="43.39189" lon="6.08523">
        <ele>322.449466</ele>
        <time>2025-04-25T09:25:23.000Z</time>
      </trkpt>
      <trkpt lat="43.3919" lon="6.08518">
        <ele>322.297458</ele>
        <time>2025-04-25T09:25:24.000Z</time>
      </trkpt>
      <trkpt lat="43.3919" lon="6.08518">
        <ele>322.297458</ele>
        <time>2025-04-25T09:25:24.000Z</time>
      </trkpt>
      <trkpt lat="43.39191" lon="6.08513">
        <ele>322.138838</ele>
        <time>2025-04-25T09:25:25.000Z</time>
      </trkpt>
      <trkpt lat="43.39192" lon="6.0851">
        <ele>322.035099</ele>
        <time>2025-04-25T09:25:26.000Z</time>
      </trkpt>
      <trkpt lat="43.39194" lon="6.08507">
        <ele>321.946794</ele>
        <time>2025-04-25T09:25:27.000Z</time>
      </trkpt>
      <trkpt lat="43.39194" lon="6.08507">
        <ele>321.946794</ele>
        <time>2025-04-25T09:25:27.000Z</time>
      </trkpt>
      <trkpt lat="43.39195" lon="6.08506">
        <ele>321.884934</ele>
        <time>2025-04-25T09:25:28.000Z</time>
      </trkpt>
      <trkpt lat="43.39196" lon="6.08504">
        <ele>321.813264</ele>
        <time>2025-04-25T09:25:29.000Z</time>
      </trkpt>
      <trkpt lat="43.39197" lon="6.085">
        <ele>321.711148</ele>
        <time>2025-04-25T09:25:30.000Z</time>
      </trkpt>
      <trkpt lat="43.39197" lon="6.08497">
        <ele>321.609912</ele>
        <time>2025-04-25T09:25:32.000Z</time>
      </trkpt>
      <trkpt lat="43.39197" lon="6.08497">
        <ele>321.609912</ele>
        <time>2025-04-25T09:25:32.000Z</time>
      </trkpt>
      <trkpt lat="43.39198" lon="6.08493">
        <ele>321.483637</ele>
        <time>2025-04-25T09:25:33.000Z</time>
      </trkpt>
      <trkpt lat="43.39198" lon="6.08489">
        <ele>321.380773</ele>
        <time>2025-04-25T09:25:34.000Z</time>
      </trkpt>
      <trkpt lat="43.39198" lon="6.08484">
        <ele>321.237042</ele>
        <time>2025-04-25T09:25:35.000Z</time>
      </trkpt>
      <trkpt lat="43.39198" lon="6.08479">
        <ele>321.101829</ele>
        <time>2025-04-25T09:25:36.000Z</time>
      </trkpt>
      <trkpt lat="43.39199" lon="6.08475">
        <ele>320.969457</ele>
        <time>2025-04-25T09:25:37.000Z</time>
      </trkpt>
      <trkpt lat="43.392" lon="6.0847">
        <ele>320.822919</ele>
        <time>2025-04-25T09:25:38.000Z</time>
      </trkpt>
      <trkpt lat="43.39201" lon="6.08464">
        <ele>320.642347</ele>
        <time>2025-04-25T09:25:39.000Z</time>
      </trkpt>
      <trkpt lat="43.39201" lon="6.08464">
        <ele>320.642347</ele>
        <time>2025-04-25T09:25:39.000Z</time>
      </trkpt>
      <trkpt lat="43.39203" lon="6.08458">
        <ele>320.459988</ele>
        <time>2025-04-25T09:25:40.000Z</time>
      </trkpt>
      <trkpt lat="43.39204" lon="6.08451">
        <ele>320.255351</ele>
        <time>2025-04-25T09:25:41.000Z</time>
      </trkpt>
      <trkpt lat="43.39204" lon="6.08444">
        <ele>320.075425</ele>
        <time>2025-04-25T09:25:42.000Z</time>
      </trkpt>
      <trkpt lat="43.39204" lon="6.08444">
        <ele>320.075425</ele>
        <time>2025-04-25T09:25:42.000Z</time>
      </trkpt>
      <trkpt lat="43.39204" lon="6.08438">
        <ele>319.883984</ele>
        <time>2025-04-25T09:25:43.000Z</time>
      </trkpt>
      <trkpt lat="43.39205" lon="6.0843">
        <ele>319.673039</ele>
        <time>2025-04-25T09:25:44.000Z</time>
      </trkpt>
      <trkpt lat="43.39205" lon="6.0843">
        <ele>319.673039</ele>
        <time>2025-04-25T09:25:44.000Z</time>
      </trkpt>
      <trkpt lat="43.39206" lon="6.08424">
        <ele>319.473984</ele>
        <time>2025-04-25T09:25:45.000Z</time>
      </trkpt>
      <trkpt lat="43.39206" lon="6.08424">
        <ele>319.473984</ele>
        <time>2025-04-25T09:25:45.000Z</time>
      </trkpt>
      <trkpt lat="43.39208" lon="6.08417">
        <ele>319.276442</ele>
        <time>2025-04-25T09:25:46.000Z</time>
      </trkpt>
      <trkpt lat="43.39208" lon="6.08417">
        <ele>319.276442</ele>
        <time>2025-04-25T09:25:46.000Z</time>
      </trkpt>
      <trkpt lat="43.3921" lon="6.08412">
        <ele>319.107578</ele>
        <time>2025-04-25T09:25:47.000Z</time>
      </trkpt>
      <trkpt lat="43.3921" lon="6.08412">
        <ele>319.107578</ele>
        <time>2025-04-25T09:25:47.000Z</time>
      </trkpt>
      <trkpt lat="43.39212" lon="6.08407">
        <ele>318.948032</ele>
        <time>2025-04-25T09:25:48.000Z</time>
      </trkpt>
      <trkpt lat="43.39212" lon="6.08407">
        <ele>318.948032</ele>
        <time>2025-04-25T09:25:48.000Z</time>
      </trkpt>
      <trkpt lat="43.39213" lon="6.08402">
        <ele>318.804532</ele>
        <time>2025-04-25T09:25:49.000Z</time>
      </trkpt>
      <trkpt lat="43.39213" lon="6.08402">
        <ele>318.804532</ele>
        <time>2025-04-25T09:25:49.000Z</time>
      </trkpt>
      <trkpt lat="43.39214" lon="6.08397">
        <ele>318.646594</ele>
        <time>2025-04-25T09:25:50.000Z</time>
      </trkpt>
      <trkpt lat="43.39214" lon="6.08397">
        <ele>318.646594</ele>
        <time>2025-04-25T09:25:50.000Z</time>
      </trkpt>
      <trkpt lat="43.39214" lon="6.08392">
        <ele>318.497545</ele>
        <time>2025-04-25T09:25:51.000Z</time>
      </trkpt>
      <trkpt lat="43.39214" lon="6.08392">
        <ele>318.497545</ele>
        <time>2025-04-25T09:25:51.000Z</time>
      </trkpt>
      <trkpt lat="43.39214" lon="6.08387">
        <ele>318.371822</ele>
        <time>2025-04-25T09:25:52.000Z</time>
      </trkpt>
      <trkpt lat="43.39214" lon="6.08387">
        <ele>318.371822</ele>
        <time>2025-04-25T09:25:52.000Z</time>
      </trkpt>
      <trkpt lat="43.39214" lon="6.08383">
        <ele>318.253621</ele>
        <time>2025-04-25T09:25:53.000Z</time>
      </trkpt>
      <trkpt lat="43.39214" lon="6.08383">
        <ele>318.253621</ele>
        <time>2025-04-25T09:25:53.000Z</time>
      </trkpt>
      <trkpt lat="43.39216" lon="6.08379">
        <ele>318.132607</ele>
        <time>2025-04-25T09:25:54.000Z</time>
      </trkpt>
      <trkpt lat="43.39216" lon="6.08379">
        <ele>318.132607</ele>
        <time>2025-04-25T09:25:54.000Z</time>
      </trkpt>
      <trkpt lat="43.39217" lon="6.08374">
        <ele>317.973911</ele>
        <time>2025-04-25T09:25:55.000Z</time>
      </trkpt>
      <trkpt lat="43.39217" lon="6.08374">
        <ele>317.973911</ele>
        <time>2025-04-25T09:25:55.000Z</time>
      </trkpt>
      <trkpt lat="43.39218" lon="6.08369">
        <ele>317.805916</ele>
        <time>2025-04-25T09:25:56.000Z</time>
      </trkpt>
      <trkpt lat="43.39218" lon="6.08369">
        <ele>317.805916</ele>
        <time>2025-04-25T09:25:56.000Z</time>
      </trkpt>
      <trkpt lat="43.39219" lon="6.08362">
        <ele>317.623176</ele>
        <time>2025-04-25T09:25:57.000Z</time>
      </trkpt>
      <trkpt lat="43.39219" lon="6.08362">
        <ele>317.623176</ele>
        <time>2025-04-25T09:25:57.000Z</time>
      </trkpt>
      <trkpt lat="43.3922" lon="6.08356">
        <ele>317.43917</ele>
        <time>2025-04-25T09:25:58.000Z</time>
      </trkpt>
      <trkpt lat="43.3922" lon="6.08356">
        <ele>317.43917</ele>
        <time>2025-04-25T09:25:58.000Z</time>
      </trkpt>
      <trkpt lat="43.39222" lon="6.08351">
        <ele>317.272347</ele>
        <time>2025-04-25T09:25:59.000Z</time>
      </trkpt>
      <trkpt lat="43.39222" lon="6.08351">
        <ele>317.272347</ele>
        <time>2025-04-25T09:25:59.000Z</time>
      </trkpt>
      <trkpt lat="43.39222" lon="6.08345">
        <ele>317.109987</ele>
        <time>2025-04-25T09:26:00.000Z</time>
      </trkpt>
      <trkpt lat="43.39222" lon="6.08345">
        <ele>317.109987</ele>
        <time>2025-04-25T09:26:00.000Z</time>
      </trkpt>
      <trkpt lat="43.39224" lon="6.08339">
        <ele>316.945903</ele>
        <time>2025-04-25T09:26:01.000Z</time>
      </trkpt>
      <trkpt lat="43.39224" lon="6.08339">
        <ele>316.945903</ele>
        <time>2025-04-25T09:26:01.000Z</time>
      </trkpt>
      <trkpt lat="43.39224" lon="6.08335">
        <ele>316.803214</ele>
        <time>2025-04-25T09:26:02.000Z</time>
      </trkpt>
      <trkpt lat="43.39224" lon="6.08335">
        <ele>316.803214</ele>
        <time>2025-04-25T09:26:02.000Z</time>
      </trkpt>
      <trkpt lat="43.39225" lon="6.0833">
        <ele>316.679152</ele>
        <time>2025-04-25T09:26:03.000Z</time>
      </trkpt>
      <trkpt lat="43.39225" lon="6.0833">
        <ele>316.679152</ele>
        <time>2025-04-25T09:26:03.000Z</time>
      </trkpt>
      <trkpt lat="43.39226" lon="6.08327">
        <ele>316.573713</ele>
        <time>2025-04-25T09:26:04.000Z</time>
      </trkpt>
      <trkpt lat="43.39226" lon="6.08327">
        <ele>316.573713</ele>
        <time>2025-04-25T09:26:04.000Z</time>
      </trkpt>
      <trkpt lat="43.39227" lon="6.08324">
        <ele>316.483682</ele>
        <time>2025-04-25T09:26:05.000Z</time>
      </trkpt>
      <trkpt lat="43.39227" lon="6.08324">
        <ele>316.483682</ele>
        <time>2025-04-25T09:26:05.000Z</time>
      </trkpt>
      <trkpt lat="43.39228" lon="6.08322">
        <ele>316.382346</ele>
        <time>2025-04-25T09:26:06.000Z</time>
      </trkpt>
      <trkpt lat="43.39228" lon="6.08322">
        <ele>316.382346</ele>
        <time>2025-04-25T09:26:06.000Z</time>
      </trkpt>
      <trkpt lat="43.3923" lon="6.08319">
        <ele>316.182603</ele>
        <time>2025-04-25T09:26:06.000Z</time>
      </trkpt>
      <trkpt lat="43.3923" lon="6.08319">
        <ele>316.182603</ele>
        <time>2025-04-25T09:26:06.000Z</time>
      </trkpt>
      <trkpt lat="43.39232" lon="6.08316">
        <ele>315.934999</ele>
        <time>2025-04-25T09:26:08.000Z</time>
      </trkpt>
      <trkpt lat="43.39232" lon="6.08316">
        <ele>315.934999</ele>
        <time>2025-04-25T09:26:08.000Z</time>
      </trkpt>
      <trkpt lat="43.39233" lon="6.08313">
        <ele>315.647431</ele>
        <time>2025-04-25T09:26:09.000Z</time>
      </trkpt>
      <trkpt lat="43.39233" lon="6.08313">
        <ele>315.647431</ele>
        <time>2025-04-25T09:26:09.000Z</time>
      </trkpt>
      <trkpt lat="43.39235" lon="6.08309">
        <ele>315.400968</ele>
        <time>2025-04-25T09:26:10.000Z</time>
      </trkpt>
      <trkpt lat="43.39235" lon="6.08309">
        <ele>315.400968</ele>
        <time>2025-04-25T09:26:10.000Z</time>
      </trkpt>
      <trkpt lat="43.39236" lon="6.08305">
        <ele>315.127239</ele>
        <time>2025-04-25T09:26:11.000Z</time>
      </trkpt>
      <trkpt lat="43.39236" lon="6.08305">
        <ele>315.127239</ele>
        <time>2025-04-25T09:26:11.000Z</time>
      </trkpt>
      <trkpt lat="43.39238" lon="6.08301">
        <ele>314.790865</ele>
        <time>2025-04-25T09:26:12.000Z</time>
      </trkpt>
      <trkpt lat="43.39238" lon="6.08301">
        <ele>314.790865</ele>
        <time>2025-04-25T09:26:12.000Z</time>
      </trkpt>
      <trkpt lat="43.3924" lon="6.08297">
        <ele>314.465602</ele>
        <time>2025-04-25T09:26:13.000Z</time>
      </trkpt>
      <trkpt lat="43.3924" lon="6.08297">
        <ele>314.465602</ele>
        <time>2025-04-25T09:26:13.000Z</time>
      </trkpt>
      <trkpt lat="43.39241" lon="6.08292">
        <ele>314.112329</ele>
        <time>2025-04-25T09:26:14.000Z</time>
      </trkpt>
      <trkpt lat="43.39241" lon="6.08292">
        <ele>314.112329</ele>
        <time>2025-04-25T09:26:14.000Z</time>
      </trkpt>
      <trkpt lat="43.39244" lon="6.08287">
        <ele>313.746099</ele>
        <time>2025-04-25T09:26:15.000Z</time>
      </trkpt>
      <trkpt lat="43.39244" lon="6.08287">
        <ele>313.746099</ele>
        <time>2025-04-25T09:26:15.000Z</time>
      </trkpt>
      <trkpt lat="43.39246" lon="6.08283">
        <ele>313.409725</ele>
        <time>2025-04-25T09:26:16.000Z</time>
      </trkpt>
      <trkpt lat="43.39246" lon="6.08283">
        <ele>313.409725</ele>
        <time>2025-04-25T09:26:16.000Z</time>
      </trkpt>
      <trkpt lat="43.39248" lon="6.08279">
        <ele>313.116903</ele>
        <time>2025-04-25T09:26:17.000Z</time>
      </trkpt>
      <trkpt lat="43.39248" lon="6.08279">
        <ele>313.116903</ele>
        <time>2025-04-25T09:26:17.000Z</time>
      </trkpt>
      <trkpt lat="43.3925" lon="6.08276">
        <ele>312.826002</ele>
        <time>2025-04-25T09:26:17.000Z</time>
      </trkpt>
      <trkpt lat="43.3925" lon="6.08276">
        <ele>312.826002</ele>
        <time>2025-04-25T09:26:17.000Z</time>
      </trkpt>
      <trkpt lat="43.39253" lon="6.08272">
        <ele>312.465225</ele>
        <time>2025-04-25T09:26:19.000Z</time>
      </trkpt>
      <trkpt lat="43.39253" lon="6.08272">
        <ele>312.465225</ele>
        <time>2025-04-25T09:26:19.000Z</time>
      </trkpt>
      <trkpt lat="43.39255" lon="6.08269">
        <ele>312.185169</ele>
        <time>2025-04-25T09:26:20.000Z</time>
      </trkpt>
      <trkpt lat="43.39255" lon="6.08269">
        <ele>312.185169</ele>
        <time>2025-04-25T09:26:20.000Z</time>
      </trkpt>
      <trkpt lat="43.39258" lon="6.08266">
        <ele>311.859656</ele>
        <time>2025-04-25T09:26:21.000Z</time>
      </trkpt>
      <trkpt lat="43.39258" lon="6.08266">
        <ele>311.859656</ele>
        <time>2025-04-25T09:26:21.000Z</time>
      </trkpt>
      <trkpt lat="43.3926" lon="6.08263">
        <ele>311.590768</ele>
        <time>2025-04-25T09:26:22.000Z</time>
      </trkpt>
      <trkpt lat="43.3926" lon="6.08263">
        <ele>311.590768</ele>
        <time>2025-04-25T09:26:22.000Z</time>
      </trkpt>
      <trkpt lat="43.39262" lon="6.0826">
        <ele>311.29054</ele>
        <time>2025-04-25T09:26:23.000Z</time>
      </trkpt>
      <trkpt lat="43.39262" lon="6.0826">
        <ele>311.29054</ele>
        <time>2025-04-25T09:26:23.000Z</time>
      </trkpt>
      <trkpt lat="43.39264" lon="6.08256">
        <ele>311.011043</ele>
        <time>2025-04-25T09:26:24.000Z</time>
      </trkpt>
      <trkpt lat="43.39264" lon="6.08256">
        <ele>311.011043</ele>
        <time>2025-04-25T09:26:24.000Z</time>
      </trkpt>
      <trkpt lat="43.39265" lon="6.08252">
        <ele>310.743254</ele>
        <time>2025-04-25T09:26:25.000Z</time>
      </trkpt>
      <trkpt lat="43.39265" lon="6.08252">
        <ele>310.743254</ele>
        <time>2025-04-25T09:26:25.000Z</time>
      </trkpt>
      <trkpt lat="43.39266" lon="6.08249">
        <ele>310.554363</ele>
        <time>2025-04-25T09:26:25.000Z</time>
      </trkpt>
      <trkpt lat="43.39266" lon="6.08249">
        <ele>310.554363</ele>
        <time>2025-04-25T09:26:25.000Z</time>
      </trkpt>
      <trkpt lat="43.39267" lon="6.08247">
        <ele>310.401513</ele>
        <time>2025-04-25T09:26:27.000Z</time>
      </trkpt>
      <trkpt lat="43.39267" lon="6.08247">
        <ele>310.401513</ele>
        <time>2025-04-25T09:26:27.000Z</time>
      </trkpt>
      <trkpt lat="43.39267" lon="6.08244">
        <ele>310.204382</ele>
        <time>2025-04-25T09:26:27.000Z</time>
      </trkpt>
      <trkpt lat="43.39267" lon="6.08244">
        <ele>310.204382</ele>
        <time>2025-04-25T09:26:27.000Z</time>
      </trkpt>
      <trkpt lat="43.39268" lon="6.08241">
        <ele>309.963523</ele>
        <time>2025-04-25T09:26:29.000Z</time>
      </trkpt>
      <trkpt lat="43.39268" lon="6.08241">
        <ele>309.963523</ele>
        <time>2025-04-25T09:26:29.000Z</time>
      </trkpt>
      <trkpt lat="43.39269" lon="6.08237">
        <ele>309.720213</ele>
        <time>2025-04-25T09:26:30.000Z</time>
      </trkpt>
      <trkpt lat="43.39269" lon="6.08237">
        <ele>309.720213</ele>
        <time>2025-04-25T09:26:30.000Z</time>
      </trkpt>
      <trkpt lat="43.3927" lon="6.08232">
        <ele>309.376379</ele>
        <time>2025-04-25T09:26:30.000Z</time>
      </trkpt>
      <trkpt lat="43.3927" lon="6.08232">
        <ele>309.376379</ele>
        <time>2025-04-25T09:26:30.000Z</time>
      </trkpt>
      <trkpt lat="43.3927" lon="6.08227">
        <ele>309.07696</ele>
        <time>2025-04-25T09:26:32.000Z</time>
      </trkpt>
      <trkpt lat="43.3927" lon="6.08227">
        <ele>309.07696</ele>
        <time>2025-04-25T09:26:32.000Z</time>
      </trkpt>
      <trkpt lat="43.39272" lon="6.08223">
        <ele>308.782327</ele>
        <time>2025-04-25T09:26:33.000Z</time>
      </trkpt>
      <trkpt lat="43.39272" lon="6.08223">
        <ele>308.782327</ele>
        <time>2025-04-25T09:26:33.000Z</time>
      </trkpt>
      <trkpt lat="43.39273" lon="6.08218">
        <ele>308.466445</ele>
        <time>2025-04-25T09:26:34.000Z</time>
      </trkpt>
      <trkpt lat="43.39273" lon="6.08218">
        <ele>308.466445</ele>
        <time>2025-04-25T09:26:34.000Z</time>
      </trkpt>
      <trkpt lat="43.39274" lon="6.08213">
        <ele>308.122611</ele>
        <time>2025-04-25T09:26:35.000Z</time>
      </trkpt>
      <trkpt lat="43.39274" lon="6.08213">
        <ele>308.122611</ele>
        <time>2025-04-25T09:26:35.000Z</time>
      </trkpt>
      <trkpt lat="43.39275" lon="6.08209">
        <ele>307.810622</ele>
        <time>2025-04-25T09:26:36.000Z</time>
      </trkpt>
      <trkpt lat="43.39275" lon="6.08209">
        <ele>307.810622</ele>
        <time>2025-04-25T09:26:36.000Z</time>
      </trkpt>
      <trkpt lat="43.39275" lon="6.08204">
        <ele>307.479724</ele>
        <time>2025-04-25T09:26:37.000Z</time>
      </trkpt>
      <trkpt lat="43.39275" lon="6.08204">
        <ele>307.479724</ele>
        <time>2025-04-25T09:26:37.000Z</time>
      </trkpt>
      <trkpt lat="43.39276" lon="6.082">
        <ele>307.251328</ele>
        <time>2025-04-25T09:26:38.000Z</time>
      </trkpt>
      <trkpt lat="43.39276" lon="6.082">
        <ele>307.251328</ele>
        <time>2025-04-25T09:26:38.000Z</time>
      </trkpt>
      <trkpt lat="43.39277" lon="6.08197">
        <ele>307.014191</ele>
        <time>2025-04-25T09:26:39.000Z</time>
      </trkpt>
      <trkpt lat="43.39277" lon="6.08197">
        <ele>307.014191</ele>
        <time>2025-04-25T09:26:39.000Z</time>
      </trkpt>
      <trkpt lat="43.39278" lon="6.08194">
        <ele>306.802762</ele>
        <time>2025-04-25T09:26:40.000Z</time>
      </trkpt>
      <trkpt lat="43.39278" lon="6.08194">
        <ele>306.802762</ele>
        <time>2025-04-25T09:26:40.000Z</time>
      </trkpt>
      <trkpt lat="43.39278" lon="6.08191">
        <ele>306.643619</ele>
        <time>2025-04-25T09:26:41.000Z</time>
      </trkpt>
      <trkpt lat="43.39278" lon="6.08191">
        <ele>306.643619</ele>
        <time>2025-04-25T09:26:41.000Z</time>
      </trkpt>
      <trkpt lat="43.3928" lon="6.08188">
        <ele>306.381746</ele>
        <time>2025-04-25T09:26:42.000Z</time>
      </trkpt>
      <trkpt lat="43.3928" lon="6.08188">
        <ele>306.381746</ele>
        <time>2025-04-25T09:26:42.000Z</time>
      </trkpt>
      <trkpt lat="43.3928" lon="6.08184">
        <ele>306.159561</ele>
        <time>2025-04-25T09:26:43.000Z</time>
      </trkpt>
      <trkpt lat="43.3928" lon="6.08184">
        <ele>306.159561</ele>
        <time>2025-04-25T09:26:43.000Z</time>
      </trkpt>
      <trkpt lat="43.39281" lon="6.08182">
        <ele>305.968783</ele>
        <time>2025-04-25T09:26:44.000Z</time>
      </trkpt>
      <trkpt lat="43.39281" lon="6.08182">
        <ele>305.968783</ele>
        <time>2025-04-25T09:26:44.000Z</time>
      </trkpt>
      <trkpt lat="43.39281" lon="6.08179">
        <ele>305.803335</ele>
        <time>2025-04-25T09:26:45.000Z</time>
      </trkpt>
      <trkpt lat="43.39281" lon="6.08179">
        <ele>305.803335</ele>
        <time>2025-04-25T09:26:45.000Z</time>
      </trkpt>
      <trkpt lat="43.39282" lon="6.08176">
        <ele>305.605834</ele>
        <time>2025-04-25T09:26:46.000Z</time>
      </trkpt>
      <trkpt lat="43.39282" lon="6.08176">
        <ele>305.605834</ele>
        <time>2025-04-25T09:26:46.000Z</time>
      </trkpt>
      <trkpt lat="43.39283" lon="6.08173">
        <ele>305.373098</ele>
        <time>2025-04-25T09:26:47.000Z</time>
      </trkpt>
      <trkpt lat="43.39283" lon="6.08173">
        <ele>305.373098</ele>
        <time>2025-04-25T09:26:47.000Z</time>
      </trkpt>
      <trkpt lat="43.39284" lon="6.0817">
        <ele>305.148259</ele>
        <time>2025-04-25T09:26:48.000Z</time>
      </trkpt>
      <trkpt lat="43.39284" lon="6.0817">
        <ele>305.148259</ele>
        <time>2025-04-25T09:26:48.000Z</time>
      </trkpt>
      <trkpt lat="43.39285" lon="6.08166">
        <ele>304.888621</ele>
        <time>2025-04-25T09:26:49.000Z</time>
      </trkpt>
      <trkpt lat="43.39285" lon="6.08166">
        <ele>304.888621</ele>
        <time>2025-04-25T09:26:49.000Z</time>
      </trkpt>
      <trkpt lat="43.39286" lon="6.08162">
        <ele>304.603429</ele>
        <time>2025-04-25T09:26:50.000Z</time>
      </trkpt>
      <trkpt lat="43.39286" lon="6.08162">
        <ele>304.603429</ele>
        <time>2025-04-25T09:26:50.000Z</time>
      </trkpt>
      <trkpt lat="43.39287" lon="6.08158">
        <ele>304.317754</ele>
        <time>2025-04-25T09:26:51.000Z</time>
      </trkpt>
      <trkpt lat="43.39287" lon="6.08158">
        <ele>304.317754</ele>
        <time>2025-04-25T09:26:51.000Z</time>
      </trkpt>
      <trkpt lat="43.39288" lon="6.08153">
        <ele>304.03116</ele>
        <time>2025-04-25T09:26:52.000Z</time>
      </trkpt>
      <trkpt lat="43.39288" lon="6.08153">
        <ele>304.03116</ele>
        <time>2025-04-25T09:26:52.000Z</time>
      </trkpt>
      <trkpt lat="43.39288" lon="6.08149">
        <ele>303.751968</ele>
        <time>2025-04-25T09:26:53.000Z</time>
      </trkpt>
      <trkpt lat="43.39288" lon="6.08149">
        <ele>303.751968</ele>
        <time>2025-04-25T09:26:53.000Z</time>
      </trkpt>
      <trkpt lat="43.39288" lon="6.08146">
        <ele>303.525758</ele>
        <time>2025-04-25T09:26:54.000Z</time>
      </trkpt>
      <trkpt lat="43.39288" lon="6.08146">
        <ele>303.525758</ele>
        <time>2025-04-25T09:26:54.000Z</time>
      </trkpt>
      <trkpt lat="43.39288" lon="6.08141">
        <ele>303.20065</ele>
        <time>2025-04-25T09:26:55.000Z</time>
      </trkpt>
      <trkpt lat="43.39288" lon="6.08141">
        <ele>303.20065</ele>
        <time>2025-04-25T09:26:55.000Z</time>
      </trkpt>
      <trkpt lat="43.39289" lon="6.08137">
        <ele>302.94609</ele>
        <time>2025-04-25T09:26:56.000Z</time>
      </trkpt>
      <trkpt lat="43.39289" lon="6.08137">
        <ele>302.94609</ele>
        <time>2025-04-25T09:26:56.000Z</time>
      </trkpt>
      <trkpt lat="43.3929" lon="6.08132">
        <ele>302.636284</ele>
        <time>2025-04-25T09:26:57.000Z</time>
      </trkpt>
      <trkpt lat="43.3929" lon="6.08132">
        <ele>302.636284</ele>
        <time>2025-04-25T09:26:57.000Z</time>
      </trkpt>
      <trkpt lat="43.39291" lon="6.08129">
        <ele>302.401663</ele>
        <time>2025-04-25T09:26:58.000Z</time>
      </trkpt>
      <trkpt lat="43.39291" lon="6.08129">
        <ele>302.401663</ele>
        <time>2025-04-25T09:26:58.000Z</time>
      </trkpt>
      <trkpt lat="43.39293" lon="6.08125">
        <ele>302.108843</ele>
        <time>2025-04-25T09:26:59.000Z</time>
      </trkpt>
      <trkpt lat="43.39293" lon="6.08125">
        <ele>302.108843</ele>
        <time>2025-04-25T09:26:59.000Z</time>
      </trkpt>
      <trkpt lat="43.39294" lon="6.08122">
        <ele>301.852442</ele>
        <time>2025-04-25T09:27:00.000Z</time>
      </trkpt>
      <trkpt lat="43.39294" lon="6.08122">
        <ele>301.852442</ele>
        <time>2025-04-25T09:27:00.000Z</time>
      </trkpt>
      <trkpt lat="43.39296" lon="6.08119">
        <ele>301.61173</ele>
        <time>2025-04-25T09:27:01.000Z</time>
      </trkpt>
      <trkpt lat="43.39296" lon="6.08119">
        <ele>301.61173</ele>
        <time>2025-04-25T09:27:01.000Z</time>
      </trkpt>
      <trkpt lat="43.39297" lon="6.08116">
        <ele>301.411989</ele>
        <time>2025-04-25T09:27:02.000Z</time>
      </trkpt>
      <trkpt lat="43.39297" lon="6.08116">
        <ele>301.411989</ele>
        <time>2025-04-25T09:27:02.000Z</time>
      </trkpt>
      <trkpt lat="43.39299" lon="6.08114">
        <ele>301.16907</ele>
        <time>2025-04-25T09:27:03.000Z</time>
      </trkpt>
      <trkpt lat="43.393" lon="6.08111">
        <ele>300.98607</ele>
        <time>2025-04-25T09:27:04.000Z</time>
      </trkpt>
      <trkpt lat="43.393" lon="6.08111">
        <ele>300.98607</ele>
        <time>2025-04-25T09:27:04.000Z</time>
      </trkpt>
      <trkpt lat="43.39302" lon="6.08109">
        <ele>300.766409</ele>
        <time>2025-04-25T09:27:05.000Z</time>
      </trkpt>
      <trkpt lat="43.39302" lon="6.08109">
        <ele>300.766409</ele>
        <time>2025-04-25T09:27:05.000Z</time>
      </trkpt>
      <trkpt lat="43.39303" lon="6.08106">
        <ele>300.571961</ele>
        <time>2025-04-25T09:27:06.000Z</time>
      </trkpt>
      <trkpt lat="43.39303" lon="6.08106">
        <ele>300.571961</ele>
        <time>2025-04-25T09:27:06.000Z</time>
      </trkpt>
      <trkpt lat="43.39304" lon="6.08103">
        <ele>300.389603</ele>
        <time>2025-04-25T09:27:07.000Z</time>
      </trkpt>
      <trkpt lat="43.39305" lon="6.08099">
        <ele>300.258064</ele>
        <time>2025-04-25T09:27:08.000Z</time>
      </trkpt>
      <trkpt lat="43.39305" lon="6.08099">
        <ele>300.258064</ele>
        <time>2025-04-25T09:27:08.000Z</time>
      </trkpt>
      <trkpt lat="43.39308" lon="6.08094">
        <ele>300.096194</ele>
        <time>2025-04-25T09:27:08.000Z</time>
      </trkpt>
      <trkpt lat="43.39308" lon="6.08094">
        <ele>300.096194</ele>
        <time>2025-04-25T09:27:08.000Z</time>
      </trkpt>
      <trkpt lat="43.3931" lon="6.0809">
        <ele>299.964219</ele>
        <time>2025-04-25T09:27:10.000Z</time>
      </trkpt>
      <trkpt lat="43.3931" lon="6.0809">
        <ele>299.964219</ele>
        <time>2025-04-25T09:27:10.000Z</time>
      </trkpt>
      <trkpt lat="43.39312" lon="6.08087">
        <ele>299.827361</ele>
        <time>2025-04-25T09:27:10.000Z</time>
      </trkpt>
      <trkpt lat="43.39312" lon="6.08087">
        <ele>299.827361</ele>
        <time>2025-04-25T09:27:10.000Z</time>
      </trkpt>
      <trkpt lat="43.39314" lon="6.08084">
        <ele>299.704785</ele>
        <time>2025-04-25T09:27:12.000Z</time>
      </trkpt>
      <trkpt lat="43.39316" lon="6.08081">
        <ele>299.592931</ele>
        <time>2025-04-25T09:27:13.000Z</time>
      </trkpt>
      <trkpt lat="43.39316" lon="6.08081">
        <ele>299.592931</ele>
        <time>2025-04-25T09:27:13.000Z</time>
      </trkpt>
      <trkpt lat="43.39319" lon="6.08077">
        <ele>299.456073</ele>
        <time>2025-04-25T09:27:14.000Z</time>
      </trkpt>
      <trkpt lat="43.39319" lon="6.08077">
        <ele>299.456073</ele>
        <time>2025-04-25T09:27:14.000Z</time>
      </trkpt>
      <trkpt lat="43.39321" lon="6.08073">
        <ele>299.31539</ele>
        <time>2025-04-25T09:27:15.000Z</time>
      </trkpt>
      <trkpt lat="43.39321" lon="6.08073">
        <ele>299.31539</ele>
        <time>2025-04-25T09:27:15.000Z</time>
      </trkpt>
      <trkpt lat="43.39323" lon="6.0807">
        <ele>299.182753</ele>
        <time>2025-04-25T09:27:16.000Z</time>
      </trkpt>
      <trkpt lat="43.39325" lon="6.08066">
        <ele>299.046073</ele>
        <time>2025-04-25T09:27:17.000Z</time>
      </trkpt>
      <trkpt lat="43.39325" lon="6.08066">
        <ele>299.046073</ele>
        <time>2025-04-25T09:27:17.000Z</time>
      </trkpt>
      <trkpt lat="43.39327" lon="6.08062">
        <ele>298.921014</ele>
        <time>2025-04-25T09:27:18.000Z</time>
      </trkpt>
      <trkpt lat="43.39327" lon="6.08062">
        <ele>298.921014</ele>
        <time>2025-04-25T09:27:18.000Z</time>
      </trkpt>
      <trkpt lat="43.39329" lon="6.08059">
        <ele>298.795865</ele>
        <time>2025-04-25T09:27:19.000Z</time>
      </trkpt>
      <trkpt lat="43.39331" lon="6.08056">
        <ele>298.691182</ele>
        <time>2025-04-25T09:27:20.000Z</time>
      </trkpt>
      <trkpt lat="43.39331" lon="6.08056">
        <ele>298.691182</ele>
        <time>2025-04-25T09:27:20.000Z</time>
      </trkpt>
      <trkpt lat="43.39333" lon="6.08051">
        <ele>298.543363</ele>
        <time>2025-04-25T09:27:21.000Z</time>
      </trkpt>
      <trkpt lat="43.39333" lon="6.08051">
        <ele>298.543363</ele>
        <time>2025-04-25T09:27:21.000Z</time>
      </trkpt>
      <trkpt lat="43.39335" lon="6.08048">
        <ele>298.422807</ele>
        <time>2025-04-25T09:27:21.000Z</time>
      </trkpt>
      <trkpt lat="43.39337" lon="6.08045">
        <ele>298.310953</ele>
        <time>2025-04-25T09:27:23.000Z</time>
      </trkpt>
      <trkpt lat="43.39337" lon="6.08045">
        <ele>298.310953</ele>
        <time>2025-04-25T09:27:23.000Z</time>
      </trkpt>
      <trkpt lat="43.39338" lon="6.08043">
        <ele>298.224088</ele>
        <time>2025-04-25T09:27:23.000Z</time>
      </trkpt>
      <trkpt lat="43.39338" lon="6.08043">
        <ele>298.224088</ele>
        <time>2025-04-25T09:27:23.000Z</time>
      </trkpt>
      <trkpt lat="43.3934" lon="6.0804">
        <ele>298.126209</ele>
        <time>2025-04-25T09:27:24.000Z</time>
      </trkpt>
      <trkpt lat="43.3934" lon="6.0804">
        <ele>298.126209</ele>
        <time>2025-04-25T09:27:24.000Z</time>
      </trkpt>
      <trkpt lat="43.39343" lon="6.08038">
        <ele>298.019444</ele>
        <time>2025-04-25T09:27:26.000Z</time>
      </trkpt>
      <trkpt lat="43.39343" lon="6.08038">
        <ele>298.019444</ele>
        <time>2025-04-25T09:27:26.000Z</time>
      </trkpt>
      <trkpt lat="43.39344" lon="6.08037">
        <ele>297.946036</ele>
        <time>2025-04-25T09:27:26.000Z</time>
      </trkpt>
      <trkpt lat="43.39344" lon="6.08037">
        <ele>297.946036</ele>
        <time>2025-04-25T09:27:26.000Z</time>
      </trkpt>
      <trkpt lat="43.39346" lon="6.08035">
        <ele>297.863961</ele>
        <time>2025-04-25T09:27:28.000Z</time>
      </trkpt>
      <trkpt lat="43.39346" lon="6.08035">
        <ele>297.863961</ele>
        <time>2025-04-25T09:27:28.000Z</time>
      </trkpt>
      <trkpt lat="43.39348" lon="6.08033">
        <ele>297.760319</ele>
        <time>2025-04-25T09:27:29.000Z</time>
      </trkpt>
      <trkpt lat="43.39348" lon="6.08033">
        <ele>297.760319</ele>
        <time>2025-04-25T09:27:29.000Z</time>
      </trkpt>
      <trkpt lat="43.3935" lon="6.08029">
        <ele>297.639763</ele>
        <time>2025-04-25T09:27:30.000Z</time>
      </trkpt>
      <trkpt lat="43.3935" lon="6.08029">
        <ele>297.639763</ele>
        <time>2025-04-25T09:27:30.000Z</time>
      </trkpt>
      <trkpt lat="43.39352" lon="6.08025">
        <ele>297.50329</ele>
        <time>2025-04-25T09:27:31.000Z</time>
      </trkpt>
      <trkpt lat="43.39352" lon="6.08025">
        <ele>297.50329</ele>
        <time>2025-04-25T09:27:31.000Z</time>
      </trkpt>
      <trkpt lat="43.39353" lon="6.08022">
        <ele>297.379264</ele>
        <time>2025-04-25T09:27:31.000Z</time>
      </trkpt>
      <trkpt lat="43.39355" lon="6.08018">
        <ele>297.252747</ele>
        <time>2025-04-25T09:27:33.000Z</time>
      </trkpt>
      <trkpt lat="43.39355" lon="6.08018">
        <ele>297.252747</ele>
        <time>2025-04-25T09:27:33.000Z</time>
      </trkpt>
      <trkpt lat="43.39356" lon="6.08014">
        <ele>297.153248</ele>
        <time>2025-04-25T09:27:34.000Z</time>
      </trkpt>
      <trkpt lat="43.39356" lon="6.08014">
        <ele>297.153248</ele>
        <time>2025-04-25T09:27:34.000Z</time>
      </trkpt>
      <trkpt lat="43.39357" lon="6.08011">
        <ele>297.029806</ele>
        <time>2025-04-25T09:27:34.000Z</time>
      </trkpt>
      <trkpt lat="43.39357" lon="6.08011">
        <ele>297.029806</ele>
        <time>2025-04-25T09:27:34.000Z</time>
      </trkpt>
      <trkpt lat="43.39359" lon="6.08006">
        <ele>296.900785</ele>
        <time>2025-04-25T09:27:36.000Z</time>
      </trkpt>
      <trkpt lat="43.3936" lon="6.08002">
        <ele>296.766719</ele>
        <time>2025-04-25T09:27:37.000Z</time>
      </trkpt>
      <trkpt lat="43.3936" lon="6.08002">
        <ele>296.766719</ele>
        <time>2025-04-25T09:27:37.000Z</time>
      </trkpt>
      <trkpt lat="43.39362" lon="6.07997">
        <ele>296.610613</ele>
        <time>2025-04-25T09:27:38.000Z</time>
      </trkpt>
      <trkpt lat="43.39364" lon="6.07992">
        <ele>296.451896</ele>
        <time>2025-04-25T09:27:38.000Z</time>
      </trkpt>
      <trkpt lat="43.39364" lon="6.07992">
        <ele>296.451896</ele>
        <time>2025-04-25T09:27:38.000Z</time>
      </trkpt>
      <trkpt lat="43.39365" lon="6.07986">
        <ele>296.280727</ele>
        <time>2025-04-25T09:27:40.000Z</time>
      </trkpt>
      <trkpt lat="43.39367" lon="6.07982">
        <ele>296.139012</ele>
        <time>2025-04-25T09:27:41.000Z</time>
      </trkpt>
      <trkpt lat="43.39369" lon="6.07978">
        <ele>295.993428</ele>
        <time>2025-04-25T09:27:41.000Z</time>
      </trkpt>
      <trkpt lat="43.39372" lon="6.07975">
        <ele>295.857417</ele>
        <time>2025-04-25T09:27:43.000Z</time>
      </trkpt>
      <trkpt lat="43.39375" lon="6.07973">
        <ele>295.717493</ele>
        <time>2025-04-25T09:27:44.000Z</time>
      </trkpt>
      <trkpt lat="43.39379" lon="6.07972">
        <ele>295.566688</ele>
        <time>2025-04-25T09:27:45.000Z</time>
      </trkpt>
      <trkpt lat="43.39379" lon="6.07972">
        <ele>295.566688</ele>
        <time>2025-04-25T09:27:45.000Z</time>
      </trkpt>
      <trkpt lat="43.39383" lon="6.07971">
        <ele>295.418391</ele>
        <time>2025-04-25T09:27:46.000Z</time>
      </trkpt>
      <trkpt lat="43.39386" lon="6.0797">
        <ele>295.297662</ele>
        <time>2025-04-25T09:27:47.000Z</time>
      </trkpt>
      <trkpt lat="43.3939" lon="6.0797">
        <ele>295.134598</ele>
        <time>2025-04-25T09:27:48.000Z</time>
      </trkpt>
      <trkpt lat="43.3939" lon="6.0797">
        <ele>295.134598</ele>
        <time>2025-04-25T09:27:48.000Z</time>
      </trkpt>
      <trkpt lat="43.39394" lon="6.07969">
        <ele>294.985903</ele>
        <time>2025-04-25T09:27:49.000Z</time>
      </trkpt>
      <trkpt lat="43.39398" lon="6.07968">
        <ele>294.819981</ele>
        <time>2025-04-25T09:27:50.000Z</time>
      </trkpt>
      <trkpt lat="43.39398" lon="6.07968">
        <ele>294.819981</ele>
        <time>2025-04-25T09:27:50.000Z</time>
      </trkpt>
      <trkpt lat="43.39404" lon="6.07966">
        <ele>294.608134</ele>
        <time>2025-04-25T09:27:51.000Z</time>
      </trkpt>
      <trkpt lat="43.39404" lon="6.07966">
        <ele>294.608134</ele>
        <time>2025-04-25T09:27:51.000Z</time>
      </trkpt>
      <trkpt lat="43.39409" lon="6.07965">
        <ele>294.41019</ele>
        <time>2025-04-25T09:27:52.000Z</time>
      </trkpt>
      <trkpt lat="43.39415" lon="6.07962">
        <ele>294.166273</ele>
        <time>2025-04-25T09:27:53.000Z</time>
      </trkpt>
      <trkpt lat="43.39415" lon="6.07962">
        <ele>294.166273</ele>
        <time>2025-04-25T09:27:53.000Z</time>
      </trkpt>
      <trkpt lat="43.39419" lon="6.07959">
        <ele>293.969375</ele>
        <time>2025-04-25T09:27:54.000Z</time>
      </trkpt>
      <trkpt lat="43.39422" lon="6.07956">
        <ele>293.82082</ele>
        <time>2025-04-25T09:27:55.000Z</time>
      </trkpt>
      <trkpt lat="43.39425" lon="6.07951">
        <ele>293.663877</ele>
        <time>2025-04-25T09:27:56.000Z</time>
      </trkpt>
      <trkpt lat="43.39425" lon="6.07951">
        <ele>293.663877</ele>
        <time>2025-04-25T09:27:56.000Z</time>
      </trkpt>
      <trkpt lat="43.39426" lon="6.07947">
        <ele>293.527199</ele>
        <time>2025-04-25T09:27:57.000Z</time>
      </trkpt>
      <trkpt lat="43.39429" lon="6.07942">
        <ele>293.306936</ele>
        <time>2025-04-25T09:27:58.000Z</time>
      </trkpt>
      <trkpt lat="43.39431" lon="6.07938">
        <ele>293.109813</ele>
        <time>2025-04-25T09:27:59.000Z</time>
      </trkpt>
      <trkpt lat="43.39433" lon="6.07934">
        <ele>292.894936</ele>
        <time>2025-04-25T09:28:00.000Z</time>
      </trkpt>
      <trkpt lat="43.39433" lon="6.07934">
        <ele>292.894936</ele>
        <time>2025-04-25T09:28:00.000Z</time>
      </trkpt>
      <trkpt lat="43.39434" lon="6.0793">
        <ele>292.69585</ele>
        <time>2025-04-25T09:28:01.000Z</time>
      </trkpt>
      <trkpt lat="43.39436" lon="6.07925">
        <ele>292.464868</ele>
        <time>2025-04-25T09:28:02.000Z</time>
      </trkpt>
      <trkpt lat="43.39437" lon="6.07919">
        <ele>292.221331</ele>
        <time>2025-04-25T09:28:03.000Z</time>
      </trkpt>
      <trkpt lat="43.39438" lon="6.07914">
        <ele>292.010491</ele>
        <time>2025-04-25T09:28:03.000Z</time>
      </trkpt>
      <trkpt lat="43.39438" lon="6.07909">
        <ele>291.813185</ele>
        <time>2025-04-25T09:28:05.000Z</time>
      </trkpt>
      <trkpt lat="43.39441" lon="6.07902">
        <ele>291.471429</ele>
        <time>2025-04-25T09:28:07.000Z</time>
      </trkpt>
      <trkpt lat="43.39441" lon="6.07901">
        <ele>291.406092</ele>
        <time>2025-04-25T09:28:08.000Z</time>
      </trkpt>
      <trkpt lat="43.39443" lon="6.079">
        <ele>291.314582</ele>
        <time>2025-04-25T09:28:09.000Z</time>
      </trkpt>
      <trkpt lat="43.39443" lon="6.079">
        <ele>291.314582</ele>
        <time>2025-04-25T09:28:09.000Z</time>
      </trkpt>
      <trkpt lat="43.39446" lon="6.07899">
        <ele>291.155014</ele>
        <time>2025-04-25T09:28:10.000Z</time>
      </trkpt>
      <trkpt lat="43.39448" lon="6.07898">
        <ele>290.993471</ele>
        <time>2025-04-25T09:28:10.000Z</time>
      </trkpt>
      <trkpt lat="43.39448" lon="6.07898">
        <ele>290.993471</ele>
        <time>2025-04-25T09:28:10.000Z</time>
      </trkpt>
      <trkpt lat="43.39451" lon="6.07897">
        <ele>290.807584</ele>
        <time>2025-04-25T09:28:12.000Z</time>
      </trkpt>
      <trkpt lat="43.39451" lon="6.07897">
        <ele>290.807584</ele>
        <time>2025-04-25T09:28:12.000Z</time>
      </trkpt>
      <trkpt lat="43.39455" lon="6.07896">
        <ele>290.604979</ele>
        <time>2025-04-25T09:28:12.000Z</time>
      </trkpt>
      <trkpt lat="43.39455" lon="6.07896">
        <ele>290.604979</ele>
        <time>2025-04-25T09:28:12.000Z</time>
      </trkpt>
      <trkpt lat="43.39459" lon="6.07898">
        <ele>290.379728</ele>
        <time>2025-04-25T09:28:13.000Z</time>
      </trkpt>
      <trkpt lat="43.39459" lon="6.07898">
        <ele>290.379728</ele>
        <time>2025-04-25T09:28:13.000Z</time>
      </trkpt>
      <trkpt lat="43.39463" lon="6.079">
        <ele>290.099354</ele>
        <time>2025-04-25T09:28:14.000Z</time>
      </trkpt>
      <trkpt lat="43.39463" lon="6.079">
        <ele>290.099354</ele>
        <time>2025-04-25T09:28:14.000Z</time>
      </trkpt>
      <trkpt lat="43.39468" lon="6.07903">
        <ele>289.801563</ele>
        <time>2025-04-25T09:28:15.000Z</time>
      </trkpt>
      <trkpt lat="43.39468" lon="6.07903">
        <ele>289.801563</ele>
        <time>2025-04-25T09:28:15.000Z</time>
      </trkpt>
      <trkpt lat="43.39473" lon="6.07907">
        <ele>289.479347</ele>
        <time>2025-04-25T09:28:16.000Z</time>
      </trkpt>
      <trkpt lat="43.39473" lon="6.07907">
        <ele>289.479347</ele>
        <time>2025-04-25T09:28:16.000Z</time>
      </trkpt>
      <trkpt lat="43.39478" lon="6.07909">
        <ele>289.131067</ele>
        <time>2025-04-25T09:28:17.000Z</time>
      </trkpt>
      <trkpt lat="43.39478" lon="6.07909">
        <ele>289.131067</ele>
        <time>2025-04-25T09:28:17.000Z</time>
      </trkpt>
      <trkpt lat="43.39483" lon="6.07913">
        <ele>288.833276</ele>
        <time>2025-04-25T09:28:18.000Z</time>
      </trkpt>
      <trkpt lat="43.39483" lon="6.07913">
        <ele>288.833276</ele>
        <time>2025-04-25T09:28:18.000Z</time>
      </trkpt>
      <trkpt lat="43.39486" lon="6.07917">
        <ele>288.569313</ele>
        <time>2025-04-25T09:28:19.000Z</time>
      </trkpt>
      <trkpt lat="43.39486" lon="6.07917">
        <ele>288.569313</ele>
        <time>2025-04-25T09:28:19.000Z</time>
      </trkpt>
      <trkpt lat="43.39488" lon="6.07921">
        <ele>288.38375</ele>
        <time>2025-04-25T09:28:20.000Z</time>
      </trkpt>
      <trkpt lat="43.39488" lon="6.07921">
        <ele>288.38375</ele>
        <time>2025-04-25T09:28:20.000Z</time>
      </trkpt>
      <trkpt lat="43.39488" lon="6.07925">
        <ele>288.219107</ele>
        <time>2025-04-25T09:28:22.000Z</time>
      </trkpt>
      <trkpt lat="43.39488" lon="6.07925">
        <ele>288.219107</ele>
        <time>2025-04-25T09:28:22.000Z</time>
      </trkpt>
      <trkpt lat="43.39487" lon="6.07929">
        <ele>288.050458</ele>
        <time>2025-04-25T09:28:23.000Z</time>
      </trkpt>
      <trkpt lat="43.39487" lon="6.07929">
        <ele>288.050458</ele>
        <time>2025-04-25T09:28:23.000Z</time>
      </trkpt>
      <trkpt lat="43.39486" lon="6.07933">
        <ele>287.864115</ele>
        <time>2025-04-25T09:28:24.000Z</time>
      </trkpt>
      <trkpt lat="43.39486" lon="6.07933">
        <ele>287.864115</ele>
        <time>2025-04-25T09:28:24.000Z</time>
      </trkpt>
      <trkpt lat="43.39486" lon="6.07938">
        <ele>287.665545</ele>
        <time>2025-04-25T09:28:25.000Z</time>
      </trkpt>
      <trkpt lat="43.39486" lon="6.07938">
        <ele>287.665545</ele>
        <time>2025-04-25T09:28:25.000Z</time>
      </trkpt>
      <trkpt lat="43.39485" lon="6.07942">
        <ele>287.492817</ele>
        <time>2025-04-25T09:28:26.000Z</time>
      </trkpt>
      <trkpt lat="43.39485" lon="6.07942">
        <ele>287.492817</ele>
        <time>2025-04-25T09:28:26.000Z</time>
      </trkpt>
      <trkpt lat="43.39485" lon="6.07945">
        <ele>287.35008</ele>
        <time>2025-04-25T09:28:27.000Z</time>
      </trkpt>
      <trkpt lat="43.39485" lon="6.07945">
        <ele>287.35008</ele>
        <time>2025-04-25T09:28:27.000Z</time>
      </trkpt>
      <trkpt lat="43.39486" lon="6.07948">
        <ele>287.190212</ele>
        <time>2025-04-25T09:28:28.000Z</time>
      </trkpt>
      <trkpt lat="43.39486" lon="6.07948">
        <ele>287.190212</ele>
        <time>2025-04-25T09:28:28.000Z</time>
      </trkpt>
      <trkpt lat="43.39488" lon="6.07951">
        <ele>287.060466</ele>
        <time>2025-04-25T09:28:29.000Z</time>
      </trkpt>
      <trkpt lat="43.39488" lon="6.07951">
        <ele>287.060466</ele>
        <time>2025-04-25T09:28:29.000Z</time>
      </trkpt>
      <trkpt lat="43.3949" lon="6.07953">
        <ele>286.922264</ele>
        <time>2025-04-25T09:28:30.000Z</time>
      </trkpt>
      <trkpt lat="43.3949" lon="6.07953">
        <ele>286.922264</ele>
        <time>2025-04-25T09:28:30.000Z</time>
      </trkpt>
      <trkpt lat="43.39492" lon="6.07954">
        <ele>286.759579</ele>
        <time>2025-04-25T09:28:30.000Z</time>
      </trkpt>
      <trkpt lat="43.39494" lon="6.07953">
        <ele>286.648529</ele>
        <time>2025-04-25T09:28:32.000Z</time>
      </trkpt>
      <trkpt lat="43.39494" lon="6.07953">
        <ele>286.648529</ele>
        <time>2025-04-25T09:28:32.000Z</time>
      </trkpt>
      <trkpt lat="43.39497" lon="6.07953">
        <ele>286.491635</ele>
        <time>2025-04-25T09:28:33.000Z</time>
      </trkpt>
      <trkpt lat="43.39497" lon="6.07953">
        <ele>286.491635</ele>
        <time>2025-04-25T09:28:33.000Z</time>
      </trkpt>
      <trkpt lat="43.39499" lon="6.07953">
        <ele>286.404062</ele>
        <time>2025-04-25T09:28:34.000Z</time>
      </trkpt>
      <trkpt lat="43.39499" lon="6.07953">
        <ele>286.404062</ele>
        <time>2025-04-25T09:28:34.000Z</time>
      </trkpt>
      <trkpt lat="43.39501" lon="6.07952">
        <ele>286.270583</ele>
        <time>2025-04-25T09:28:35.000Z</time>
      </trkpt>
      <trkpt lat="43.39504" lon="6.07952">
        <ele>286.091038</ele>
        <time>2025-04-25T09:28:36.000Z</time>
      </trkpt>
      <trkpt lat="43.39504" lon="6.07952">
        <ele>286.091038</ele>
        <time>2025-04-25T09:28:36.000Z</time>
      </trkpt>
      <trkpt lat="43.39507" lon="6.07952">
        <ele>285.893885</ele>
        <time>2025-04-25T09:28:37.000Z</time>
      </trkpt>
      <trkpt lat="43.39507" lon="6.07952">
        <ele>285.893885</ele>
        <time>2025-04-25T09:28:37.000Z</time>
      </trkpt>
      <trkpt lat="43.39511" lon="6.07951">
        <ele>285.696331</ele>
        <time>2025-04-25T09:28:38.000Z</time>
      </trkpt>
      <trkpt lat="43.39511" lon="6.07951">
        <ele>285.696331</ele>
        <time>2025-04-25T09:28:38.000Z</time>
      </trkpt>
      <trkpt lat="43.39515" lon="6.0795">
        <ele>285.474828</ele>
        <time>2025-04-25T09:28:39.000Z</time>
      </trkpt>
      <trkpt lat="43.39515" lon="6.0795">
        <ele>285.474828</ele>
        <time>2025-04-25T09:28:39.000Z</time>
      </trkpt>
      <trkpt lat="43.39519" lon="6.07949">
        <ele>285.201703</ele>
        <time>2025-04-25T09:28:40.000Z</time>
      </trkpt>
      <trkpt lat="43.39519" lon="6.07949">
        <ele>285.201703</ele>
        <time>2025-04-25T09:28:40.000Z</time>
      </trkpt>
      <trkpt lat="43.39525" lon="6.07947">
        <ele>284.875117</ele>
        <time>2025-04-25T09:28:41.000Z</time>
      </trkpt>
      <trkpt lat="43.39525" lon="6.07947">
        <ele>284.875117</ele>
        <time>2025-04-25T09:28:41.000Z</time>
      </trkpt>
      <trkpt lat="43.39531" lon="6.07944">
        <ele>284.504908</ele>
        <time>2025-04-25T09:28:42.000Z</time>
      </trkpt>
      <trkpt lat="43.39531" lon="6.07944">
        <ele>284.504908</ele>
        <time>2025-04-25T09:28:42.000Z</time>
      </trkpt>
      <trkpt lat="43.39538" lon="6.07941">
        <ele>284.046936</ele>
        <time>2025-04-25T09:28:43.000Z</time>
      </trkpt>
      <trkpt lat="43.39538" lon="6.07941">
        <ele>284.046936</ele>
        <time>2025-04-25T09:28:43.000Z</time>
      </trkpt>
      <trkpt lat="43.39545" lon="6.07938">
        <ele>283.658116</ele>
        <time>2025-04-25T09:28:44.000Z</time>
      </trkpt>
      <trkpt lat="43.39545" lon="6.07938">
        <ele>283.658116</ele>
        <time>2025-04-25T09:28:44.000Z</time>
      </trkpt>
      <trkpt lat="43.39552" lon="6.07936">
        <ele>283.252531</ele>
        <time>2025-04-25T09:28:45.000Z</time>
      </trkpt>
      <trkpt lat="43.39552" lon="6.07936">
        <ele>283.252531</ele>
        <time>2025-04-25T09:28:45.000Z</time>
      </trkpt>
      <trkpt lat="43.39558" lon="6.07934">
        <ele>282.812455</ele>
        <time>2025-04-25T09:28:46.000Z</time>
      </trkpt>
      <trkpt lat="43.39558" lon="6.07934">
        <ele>282.812455</ele>
        <time>2025-04-25T09:28:46.000Z</time>
      </trkpt>
      <trkpt lat="43.39564" lon="6.07932">
        <ele>282.374945</ele>
        <time>2025-04-25T09:28:47.000Z</time>
      </trkpt>
      <trkpt lat="43.39564" lon="6.07932">
        <ele>282.374945</ele>
        <time>2025-04-25T09:28:47.000Z</time>
      </trkpt>
      <trkpt lat="43.3957" lon="6.0793">
        <ele>281.921937</ele>
        <time>2025-04-25T09:28:48.000Z</time>
      </trkpt>
      <trkpt lat="43.3957" lon="6.0793">
        <ele>281.921937</ele>
        <time>2025-04-25T09:28:48.000Z</time>
      </trkpt>
      <trkpt lat="43.39576" lon="6.07929">
        <ele>281.473136</ele>
        <time>2025-04-25T09:28:49.000Z</time>
      </trkpt>
      <trkpt lat="43.39576" lon="6.07929">
        <ele>281.473136</ele>
        <time>2025-04-25T09:28:49.000Z</time>
      </trkpt>
      <trkpt lat="43.39581" lon="6.07927">
        <ele>281.106943</ele>
        <time>2025-04-25T09:28:50.000Z</time>
      </trkpt>
      <trkpt lat="43.39581" lon="6.07927">
        <ele>281.106943</ele>
        <time>2025-04-25T09:28:50.000Z</time>
      </trkpt>
      <trkpt lat="43.39586" lon="6.07926">
        <ele>280.759483</ele>
        <time>2025-04-25T09:28:51.000Z</time>
      </trkpt>
      <trkpt lat="43.39586" lon="6.07926">
        <ele>280.759483</ele>
        <time>2025-04-25T09:28:51.000Z</time>
      </trkpt>
      <trkpt lat="43.3959" lon="6.07924">
        <ele>280.415803</ele>
        <time>2025-04-25T09:28:52.000Z</time>
      </trkpt>
      <trkpt lat="43.3959" lon="6.07924">
        <ele>280.415803</ele>
        <time>2025-04-25T09:28:52.000Z</time>
      </trkpt>
      <trkpt lat="43.39593" lon="6.07923">
        <ele>280.179126</ele>
        <time>2025-04-25T09:28:53.000Z</time>
      </trkpt>
      <trkpt lat="43.39593" lon="6.07923">
        <ele>280.179126</ele>
        <time>2025-04-25T09:28:53.000Z</time>
      </trkpt>
      <trkpt lat="43.39597" lon="6.0792">
        <ele>279.871868</ele>
        <time>2025-04-25T09:28:54.000Z</time>
      </trkpt>
      <trkpt lat="43.39597" lon="6.0792">
        <ele>279.871868</ele>
        <time>2025-04-25T09:28:54.000Z</time>
      </trkpt>
      <trkpt lat="43.39601" lon="6.07918">
        <ele>279.56439</ele>
        <time>2025-04-25T09:28:55.000Z</time>
      </trkpt>
      <trkpt lat="43.39601" lon="6.07918">
        <ele>279.56439</ele>
        <time>2025-04-25T09:28:55.000Z</time>
      </trkpt>
      <trkpt lat="43.39606" lon="6.07915">
        <ele>279.184969</ele>
        <time>2025-04-25T09:28:56.000Z</time>
      </trkpt>
      <trkpt lat="43.39606" lon="6.07915">
        <ele>279.184969</ele>
        <time>2025-04-25T09:28:56.000Z</time>
      </trkpt>
      <trkpt lat="43.3961" lon="6.07913">
        <ele>278.846799</ele>
        <time>2025-04-25T09:28:57.000Z</time>
      </trkpt>
      <trkpt lat="43.3961" lon="6.07913">
        <ele>278.846799</ele>
        <time>2025-04-25T09:28:57.000Z</time>
      </trkpt>
      <trkpt lat="43.39615" lon="6.0791">
        <ele>278.460499</ele>
        <time>2025-04-25T09:28:58.000Z</time>
      </trkpt>
      <trkpt lat="43.39615" lon="6.0791">
        <ele>278.460499</ele>
        <time>2025-04-25T09:28:58.000Z</time>
      </trkpt>
      <trkpt lat="43.39619" lon="6.07909">
        <ele>278.118637</ele>
        <time>2025-04-25T09:28:59.000Z</time>
      </trkpt>
      <trkpt lat="43.39619" lon="6.07909">
        <ele>278.118637</ele>
        <time>2025-04-25T09:28:59.000Z</time>
      </trkpt>
      <trkpt lat="43.39625" lon="6.07907">
        <ele>277.715679</ele>
        <time>2025-04-25T09:29:00.000Z</time>
      </trkpt>
      <trkpt lat="43.39625" lon="6.07907">
        <ele>277.715679</ele>
        <time>2025-04-25T09:29:00.000Z</time>
      </trkpt>
      <trkpt lat="43.39631" lon="6.07905">
        <ele>277.289056</ele>
        <time>2025-04-25T09:29:01.000Z</time>
      </trkpt>
      <trkpt lat="43.39631" lon="6.07905">
        <ele>277.289056</ele>
        <time>2025-04-25T09:29:01.000Z</time>
      </trkpt>
      <trkpt lat="43.39636" lon="6.07904">
        <ele>276.916831</ele>
        <time>2025-04-25T09:29:02.000Z</time>
      </trkpt>
      <trkpt lat="43.39636" lon="6.07904">
        <ele>276.916831</ele>
        <time>2025-04-25T09:29:02.000Z</time>
      </trkpt>
      <trkpt lat="43.3964" lon="6.07901">
        <ele>276.535601</ele>
        <time>2025-04-25T09:29:03.000Z</time>
      </trkpt>
      <trkpt lat="43.3964" lon="6.07901">
        <ele>276.535601</ele>
        <time>2025-04-25T09:29:03.000Z</time>
      </trkpt>
      <trkpt lat="43.39644" lon="6.07898">
        <ele>276.218621</ele>
        <time>2025-04-25T09:29:04.000Z</time>
      </trkpt>
      <trkpt lat="43.39644" lon="6.07898">
        <ele>276.218621</ele>
        <time>2025-04-25T09:29:04.000Z</time>
      </trkpt>
      <trkpt lat="43.39648" lon="6.07896">
        <ele>275.890788</ele>
        <time>2025-04-25T09:29:05.000Z</time>
      </trkpt>
      <trkpt lat="43.39648" lon="6.07896">
        <ele>275.890788</ele>
        <time>2025-04-25T09:29:05.000Z</time>
      </trkpt>
      <trkpt lat="43.39653" lon="6.07895">
        <ele>275.577863</ele>
        <time>2025-04-25T09:29:06.000Z</time>
      </trkpt>
      <trkpt lat="43.39653" lon="6.07895">
        <ele>275.577863</ele>
        <time>2025-04-25T09:29:06.000Z</time>
      </trkpt>
      <trkpt lat="43.39656" lon="6.07894">
        <ele>275.297427</ele>
        <time>2025-04-25T09:29:07.000Z</time>
      </trkpt>
      <trkpt lat="43.39656" lon="6.07894">
        <ele>275.297427</ele>
        <time>2025-04-25T09:29:07.000Z</time>
      </trkpt>
      <trkpt lat="43.39661" lon="6.07894">
        <ele>274.961479</ele>
        <time>2025-04-25T09:29:08.000Z</time>
      </trkpt>
      <trkpt lat="43.39661" lon="6.07894">
        <ele>274.961479</ele>
        <time>2025-04-25T09:29:08.000Z</time>
      </trkpt>
      <trkpt lat="43.39665" lon="6.07894">
        <ele>274.706098</ele>
        <time>2025-04-25T09:29:09.000Z</time>
      </trkpt>
      <trkpt lat="43.39665" lon="6.07894">
        <ele>274.706098</ele>
        <time>2025-04-25T09:29:09.000Z</time>
      </trkpt>
      <trkpt lat="43.39669" lon="6.07893">
        <ele>274.346134</ele>
        <time>2025-04-25T09:29:10.000Z</time>
      </trkpt>
      <trkpt lat="43.39669" lon="6.07893">
        <ele>274.346134</ele>
        <time>2025-04-25T09:29:10.000Z</time>
      </trkpt>
      <trkpt lat="43.39674" lon="6.07893">
        <ele>273.981382</ele>
        <time>2025-04-25T09:29:11.000Z</time>
      </trkpt>
      <trkpt lat="43.39674" lon="6.07893">
        <ele>273.981382</ele>
        <time>2025-04-25T09:29:11.000Z</time>
      </trkpt>
      <trkpt lat="43.39679" lon="6.07893">
        <ele>273.674991</ele>
        <time>2025-04-25T09:29:12.000Z</time>
      </trkpt>
      <trkpt lat="43.39679" lon="6.07893">
        <ele>273.674991</ele>
        <time>2025-04-25T09:29:12.000Z</time>
      </trkpt>
      <trkpt lat="43.39683" lon="6.07894">
        <ele>273.336045</ele>
        <time>2025-04-25T09:29:13.000Z</time>
      </trkpt>
      <trkpt lat="43.39683" lon="6.07894">
        <ele>273.336045</ele>
        <time>2025-04-25T09:29:13.000Z</time>
      </trkpt>
      <trkpt lat="43.39687" lon="6.07896">
        <ele>273.01006</ele>
        <time>2025-04-25T09:29:14.000Z</time>
      </trkpt>
      <trkpt lat="43.39687" lon="6.07896">
        <ele>273.01006</ele>
        <time>2025-04-25T09:29:14.000Z</time>
      </trkpt>
      <trkpt lat="43.39692" lon="6.079">
        <ele>272.624913</ele>
        <time>2025-04-25T09:29:15.000Z</time>
      </trkpt>
      <trkpt lat="43.39692" lon="6.079">
        <ele>272.624913</ele>
        <time>2025-04-25T09:29:15.000Z</time>
      </trkpt>
      <trkpt lat="43.39698" lon="6.07906">
        <ele>272.098176</ele>
        <time>2025-04-25T09:29:16.000Z</time>
      </trkpt>
      <trkpt lat="43.39698" lon="6.07906">
        <ele>272.098176</ele>
        <time>2025-04-25T09:29:16.000Z</time>
      </trkpt>
      <trkpt lat="43.39704" lon="6.07914">
        <ele>271.472531</ele>
        <time>2025-04-25T09:29:17.000Z</time>
      </trkpt>
      <trkpt lat="43.39704" lon="6.07914">
        <ele>271.472531</ele>
        <time>2025-04-25T09:29:17.000Z</time>
      </trkpt>
      <trkpt lat="43.39711" lon="6.07924">
        <ele>270.72603</ele>
        <time>2025-04-25T09:29:18.000Z</time>
      </trkpt>
      <trkpt lat="43.39711" lon="6.07924">
        <ele>270.72603</ele>
        <time>2025-04-25T09:29:18.000Z</time>
      </trkpt>
      <trkpt lat="43.39716" lon="6.07931">
        <ele>270.237425</ele>
        <time>2025-04-25T09:29:19.000Z</time>
      </trkpt>
      <trkpt lat="43.39716" lon="6.07931">
        <ele>270.237425</ele>
        <time>2025-04-25T09:29:19.000Z</time>
      </trkpt>
      <trkpt lat="43.39724" lon="6.0794">
        <ele>269.706937</ele>
        <time>2025-04-25T09:29:20.000Z</time>
      </trkpt>
      <trkpt lat="43.39724" lon="6.0794">
        <ele>269.706937</ele>
        <time>2025-04-25T09:29:20.000Z</time>
      </trkpt>
      <trkpt lat="43.39729" lon="6.07945">
        <ele>269.465164</ele>
        <time>2025-04-25T09:29:21.000Z</time>
      </trkpt>
      <trkpt lat="43.39729" lon="6.07945">
        <ele>269.465164</ele>
        <time>2025-04-25T09:29:21.000Z</time>
      </trkpt>
      <trkpt lat="43.39735" lon="6.0795">
        <ele>269.21424</ele>
        <time>2025-04-25T09:29:22.000Z</time>
      </trkpt>
      <trkpt lat="43.39735" lon="6.0795">
        <ele>269.21424</ele>
        <time>2025-04-25T09:29:22.000Z</time>
      </trkpt>
      <trkpt lat="43.39741" lon="6.07956">
        <ele>268.940388</ele>
        <time>2025-04-25T09:29:23.000Z</time>
      </trkpt>
      <trkpt lat="43.39741" lon="6.07956">
        <ele>268.940388</ele>
        <time>2025-04-25T09:29:23.000Z</time>
      </trkpt>
      <trkpt lat="43.39747" lon="6.07959">
        <ele>268.700081</ele>
        <time>2025-04-25T09:29:24.000Z</time>
      </trkpt>
      <trkpt lat="43.39747" lon="6.07959">
        <ele>268.700081</ele>
        <time>2025-04-25T09:29:24.000Z</time>
      </trkpt>
      <trkpt lat="43.39753" lon="6.07962">
        <ele>268.472908</ele>
        <time>2025-04-25T09:29:25.000Z</time>
      </trkpt>
      <trkpt lat="43.39753" lon="6.07962">
        <ele>268.472908</ele>
        <time>2025-04-25T09:29:25.000Z</time>
      </trkpt>
      <trkpt lat="43.3976" lon="6.07965">
        <ele>268.20673</ele>
        <time>2025-04-25T09:29:26.000Z</time>
      </trkpt>
      <trkpt lat="43.3976" lon="6.07965">
        <ele>268.20673</ele>
        <time>2025-04-25T09:29:26.000Z</time>
      </trkpt>
      <trkpt lat="43.39767" lon="6.07969">
        <ele>267.920579</ele>
        <time>2025-04-25T09:29:27.000Z</time>
      </trkpt>
      <trkpt lat="43.39767" lon="6.07969">
        <ele>267.920579</ele>
        <time>2025-04-25T09:29:27.000Z</time>
      </trkpt>
      <trkpt lat="43.39776" lon="6.07973">
        <ele>267.573428</ele>
        <time>2025-04-25T09:29:28.000Z</time>
      </trkpt>
      <trkpt lat="43.39776" lon="6.07973">
        <ele>267.573428</ele>
        <time>2025-04-25T09:29:28.000Z</time>
      </trkpt>
      <trkpt lat="43.39786" lon="6.07977">
        <ele>267.206442</ele>
        <time>2025-04-25T09:29:29.000Z</time>
      </trkpt>
      <trkpt lat="43.39786" lon="6.07977">
        <ele>267.206442</ele>
        <time>2025-04-25T09:29:29.000Z</time>
      </trkpt>
      <trkpt lat="43.39796" lon="6.07982">
        <ele>266.821605</ele>
        <time>2025-04-25T09:29:30.000Z</time>
      </trkpt>
      <trkpt lat="43.39796" lon="6.07982">
        <ele>266.821605</ele>
        <time>2025-04-25T09:29:30.000Z</time>
      </trkpt>
      <trkpt lat="43.39803" lon="6.07984">
        <ele>266.548002</ele>
        <time>2025-04-25T09:29:31.000Z</time>
      </trkpt>
      <trkpt lat="43.39803" lon="6.07984">
        <ele>266.548002</ele>
        <time>2025-04-25T09:29:31.000Z</time>
      </trkpt>
      <trkpt lat="43.39811" lon="6.07988">
        <ele>266.238573</ele>
        <time>2025-04-25T09:29:32.000Z</time>
      </trkpt>
      <trkpt lat="43.39811" lon="6.07988">
        <ele>266.238573</ele>
        <time>2025-04-25T09:29:32.000Z</time>
      </trkpt>
      <trkpt lat="43.39817" lon="6.07991">
        <ele>265.98456</ele>
        <time>2025-04-25T09:29:33.000Z</time>
      </trkpt>
      <trkpt lat="43.39817" lon="6.07991">
        <ele>265.98456</ele>
        <time>2025-04-25T09:29:33.000Z</time>
      </trkpt>
      <trkpt lat="43.39825" lon="6.07995">
        <ele>265.699342</ele>
        <time>2025-04-25T09:29:34.000Z</time>
      </trkpt>
      <trkpt lat="43.39825" lon="6.07995">
        <ele>265.699342</ele>
        <time>2025-04-25T09:29:34.000Z</time>
      </trkpt>
      <trkpt lat="43.39831" lon="6.07999">
        <ele>265.450447</ele>
        <time>2025-04-25T09:29:35.000Z</time>
      </trkpt>
      <trkpt lat="43.39831" lon="6.07999">
        <ele>265.450447</ele>
        <time>2025-04-25T09:29:35.000Z</time>
      </trkpt>
      <trkpt lat="43.39836" lon="6.08005">
        <ele>265.202187</ele>
        <time>2025-04-25T09:29:36.000Z</time>
      </trkpt>
      <trkpt lat="43.39836" lon="6.08005">
        <ele>265.202187</ele>
        <time>2025-04-25T09:29:36.000Z</time>
      </trkpt>
      <trkpt lat="43.39842" lon="6.0801">
        <ele>264.959015</ele>
        <time>2025-04-25T09:29:37.000Z</time>
      </trkpt>
      <trkpt lat="43.39842" lon="6.0801">
        <ele>264.959015</ele>
        <time>2025-04-25T09:29:37.000Z</time>
      </trkpt>
      <trkpt lat="43.39846" lon="6.08015">
        <ele>264.736947</ele>
        <time>2025-04-25T09:29:38.000Z</time>
      </trkpt>
      <trkpt lat="43.39846" lon="6.08015">
        <ele>264.736947</ele>
        <time>2025-04-25T09:29:38.000Z</time>
      </trkpt>
      <trkpt lat="43.39851" lon="6.08019">
        <ele>264.526234</ele>
        <time>2025-04-25T09:29:39.000Z</time>
      </trkpt>
      <trkpt lat="43.39851" lon="6.08019">
        <ele>264.526234</ele>
        <time>2025-04-25T09:29:39.000Z</time>
      </trkpt>
      <trkpt lat="43.39856" lon="6.08023">
        <ele>264.329532</ele>
        <time>2025-04-25T09:29:40.000Z</time>
      </trkpt>
      <trkpt lat="43.39856" lon="6.08023">
        <ele>264.329532</ele>
        <time>2025-04-25T09:29:40.000Z</time>
      </trkpt>
      <trkpt lat="43.39861" lon="6.08026">
        <ele>264.114003</ele>
        <time>2025-04-25T09:29:41.000Z</time>
      </trkpt>
      <trkpt lat="43.39861" lon="6.08026">
        <ele>264.114003</ele>
        <time>2025-04-25T09:29:41.000Z</time>
      </trkpt>
      <trkpt lat="43.39866" lon="6.08029">
        <ele>263.931681</ele>
        <time>2025-04-25T09:29:42.000Z</time>
      </trkpt>
      <trkpt lat="43.39871" lon="6.08031">
        <ele>263.72947</ele>
        <time>2025-04-25T09:29:43.000Z</time>
      </trkpt>
      <trkpt lat="43.39871" lon="6.08031">
        <ele>263.72947</ele>
        <time>2025-04-25T09:29:43.000Z</time>
      </trkpt>
      <trkpt lat="43.39877" lon="6.08031">
        <ele>263.531414</ele>
        <time>2025-04-25T09:29:44.000Z</time>
      </trkpt>
      <trkpt lat="43.39882" lon="6.0803">
        <ele>263.343651</ele>
        <time>2025-04-25T09:29:45.000Z</time>
      </trkpt>
      <trkpt lat="43.39887" lon="6.08029">
        <ele>263.282139</ele>
        <time>2025-04-25T09:29:46.000Z</time>
      </trkpt>
      <trkpt lat="43.39891" lon="6.08027">
        <ele>263.219261</ele>
        <time>2025-04-25T09:29:47.000Z</time>
      </trkpt>
      <trkpt lat="43.39895" lon="6.08024">
        <ele>263.161196</ele>
        <time>2025-04-25T09:29:48.000Z</time>
      </trkpt>
      <trkpt lat="43.399" lon="6.08019">
        <ele>263.080608</ele>
        <time>2025-04-25T09:29:49.000Z</time>
      </trkpt>
      <trkpt lat="43.39905" lon="6.08015">
        <ele>263.009838</ele>
        <time>2025-04-25T09:29:50.000Z</time>
      </trkpt>
      <trkpt lat="43.39909" lon="6.08012">
        <ele>262.952454</ele>
        <time>2025-04-25T09:29:51.000Z</time>
      </trkpt>
      <trkpt lat="43.39913" lon="6.08009">
        <ele>262.890471</ele>
        <time>2025-04-25T09:29:52.000Z</time>
      </trkpt>
      <trkpt lat="43.39917" lon="6.08006">
        <ele>262.825151</ele>
        <time>2025-04-25T09:29:53.000Z</time>
      </trkpt>
      <trkpt lat="43.39923" lon="6.08001">
        <ele>262.734494</ele>
        <time>2025-04-25T09:29:54.000Z</time>
      </trkpt>
      <trkpt lat="43.39923" lon="6.08001">
        <ele>262.734494</ele>
        <time>2025-04-25T09:29:54.000Z</time>
      </trkpt>
      <trkpt lat="43.39928" lon="6.07997">
        <ele>262.656215</ele>
        <time>2025-04-25T09:29:55.000Z</time>
      </trkpt>
      <trkpt lat="43.39933" lon="6.07994">
        <ele>262.584382</ele>
        <time>2025-04-25T09:29:56.000Z</time>
      </trkpt>
      <trkpt lat="43.39933" lon="6.07994">
        <ele>262.584382</ele>
        <time>2025-04-25T09:29:56.000Z</time>
      </trkpt>
      <trkpt lat="43.39938" lon="6.07991">
        <ele>262.512934</ele>
        <time>2025-04-25T09:29:57.000Z</time>
      </trkpt>
      <trkpt lat="43.39943" lon="6.07988">
        <ele>262.445692</ele>
        <time>2025-04-25T09:29:58.000Z</time>
      </trkpt>
      <trkpt lat="43.39948" lon="6.07986">
        <ele>262.381253</ele>
        <time>2025-04-25T09:29:59.000Z</time>
      </trkpt>
      <trkpt lat="43.39948" lon="6.07986">
        <ele>262.381253</ele>
        <time>2025-04-25T09:29:59.000Z</time>
      </trkpt>
      <trkpt lat="43.39952" lon="6.07983">
        <ele>262.316115</ele>
        <time>2025-04-25T09:30:00.000Z</time>
      </trkpt>
      <trkpt lat="43.39955" lon="6.07981">
        <ele>262.272857</ele>
        <time>2025-04-25T09:30:01.000Z</time>
      </trkpt>
      <trkpt lat="43.39958" lon="6.07979">
        <ele>262.23356</ele>
        <time>2025-04-25T09:30:02.000Z</time>
      </trkpt>
      <trkpt lat="43.39961" lon="6.07976">
        <ele>262.18166</ele>
        <time>2025-04-25T09:30:03.000Z</time>
      </trkpt>
      <trkpt lat="43.39961" lon="6.07976">
        <ele>262.18166</ele>
        <time>2025-04-25T09:30:03.000Z</time>
      </trkpt>
      <trkpt lat="43.39965" lon="6.07973">
        <ele>262.123266</ele>
        <time>2025-04-25T09:30:04.000Z</time>
      </trkpt>
      <trkpt lat="43.39968" lon="6.07969">
        <ele>262.064677</ele>
        <time>2025-04-25T09:30:05.000Z</time>
      </trkpt>
      <trkpt lat="43.39971" lon="6.07964">
        <ele>262.006903</ele>
        <time>2025-04-25T09:30:06.000Z</time>
      </trkpt>
      <trkpt lat="43.39971" lon="6.07964">
        <ele>262.006903</ele>
        <time>2025-04-25T09:30:06.000Z</time>
      </trkpt>
      <trkpt lat="43.39973" lon="6.07957">
        <ele>261.932918</ele>
        <time>2025-04-25T09:30:07.000Z</time>
      </trkpt>
      <trkpt lat="43.39976" lon="6.07949">
        <ele>261.84639</ele>
        <time>2025-04-25T09:30:08.000Z</time>
      </trkpt>
      <trkpt lat="43.39976" lon="6.07949">
        <ele>261.84639</ele>
        <time>2025-04-25T09:30:08.000Z</time>
      </trkpt>
      <trkpt lat="43.3998" lon="6.0794">
        <ele>261.755878</ele>
        <time>2025-04-25T09:30:09.000Z</time>
      </trkpt>
      <trkpt lat="43.39982" lon="6.07932">
        <ele>261.667227</ele>
        <time>2025-04-25T09:30:10.000Z</time>
      </trkpt>
      <trkpt lat="43.39982" lon="6.07932">
        <ele>261.667227</ele>
        <time>2025-04-25T09:30:10.000Z</time>
      </trkpt>
      <trkpt lat="43.39985" lon="6.07923">
        <ele>261.580009</ele>
        <time>2025-04-25T09:30:11.000Z</time>
      </trkpt>
      <trkpt lat="43.39985" lon="6.07923">
        <ele>261.580009</ele>
        <time>2025-04-25T09:30:11.000Z</time>
      </trkpt>
      <trkpt lat="43.39986" lon="6.07915">
        <ele>261.499906</ele>
        <time>2025-04-25T09:30:12.000Z</time>
      </trkpt>
      <trkpt lat="43.39988" lon="6.07908">
        <ele>261.425872</ele>
        <time>2025-04-25T09:30:13.000Z</time>
      </trkpt>
      <trkpt lat="43.39988" lon="6.07908">
        <ele>261.425872</ele>
        <time>2025-04-25T09:30:13.000Z</time>
      </trkpt>
      <trkpt lat="43.3999" lon="6.07899">
        <ele>261.343225</ele>
        <time>2025-04-25T09:30:14.000Z</time>
      </trkpt>
      <trkpt lat="43.3999" lon="6.07899">
        <ele>261.343225</ele>
        <time>2025-04-25T09:30:14.000Z</time>
      </trkpt>
      <trkpt lat="43.39991" lon="6.07891">
        <ele>261.262748</ele>
        <time>2025-04-25T09:30:15.000Z</time>
      </trkpt>
      <trkpt lat="43.39991" lon="6.07891">
        <ele>261.262748</ele>
        <time>2025-04-25T09:30:15.000Z</time>
      </trkpt>
      <trkpt lat="43.39994" lon="6.07881">
        <ele>261.158535</ele>
        <time>2025-04-25T09:30:16.000Z</time>
      </trkpt>
      <trkpt lat="43.39994" lon="6.07881">
        <ele>261.158535</ele>
        <time>2025-04-25T09:30:16.000Z</time>
      </trkpt>
      <trkpt lat="43.39996" lon="6.07873">
        <ele>261.074257</ele>
        <time>2025-04-25T09:30:16.000Z</time>
      </trkpt>
      <trkpt lat="43.39999" lon="6.07864">
        <ele>260.969353</ele>
        <time>2025-04-25T09:30:17.000Z</time>
      </trkpt>
      <trkpt lat="43.39999" lon="6.07864">
        <ele>260.969353</ele>
        <time>2025-04-25T09:30:17.000Z</time>
      </trkpt>
      <trkpt lat="43.40001" lon="6.07855">
        <ele>260.808592</ele>
        <time>2025-04-25T09:30:19.000Z</time>
      </trkpt>
      <trkpt lat="43.40001" lon="6.07855">
        <ele>260.808592</ele>
        <time>2025-04-25T09:30:19.000Z</time>
      </trkpt>
      <trkpt lat="43.40002" lon="6.07846">
        <ele>260.658818</ele>
        <time>2025-04-25T09:30:20.000Z</time>
      </trkpt>
      <trkpt lat="43.40002" lon="6.07846">
        <ele>260.658818</ele>
        <time>2025-04-25T09:30:20.000Z</time>
      </trkpt>
      <trkpt lat="43.40005" lon="6.07838">
        <ele>260.495049</ele>
        <time>2025-04-25T09:30:21.000Z</time>
      </trkpt>
      <trkpt lat="43.40005" lon="6.07838">
        <ele>260.495049</ele>
        <time>2025-04-25T09:30:21.000Z</time>
      </trkpt>
      <trkpt lat="43.40008" lon="6.07829">
        <ele>260.328502</ele>
        <time>2025-04-25T09:30:21.000Z</time>
      </trkpt>
      <trkpt lat="43.40008" lon="6.07829">
        <ele>260.328502</ele>
        <time>2025-04-25T09:30:21.000Z</time>
      </trkpt>
      <trkpt lat="43.4001" lon="6.0782">
        <ele>260.163768</ele>
        <time>2025-04-25T09:30:23.000Z</time>
      </trkpt>
      <trkpt lat="43.4001" lon="6.0782">
        <ele>260.163768</ele>
        <time>2025-04-25T09:30:23.000Z</time>
      </trkpt>
      <trkpt lat="43.40013" lon="6.07812">
        <ele>260.013108</ele>
        <time>2025-04-25T09:30:24.000Z</time>
      </trkpt>
      <trkpt lat="43.40015" lon="6.07804">
        <ele>259.862447</ele>
        <time>2025-04-25T09:30:25.000Z</time>
      </trkpt>
      <trkpt lat="43.40015" lon="6.07804">
        <ele>259.862447</ele>
        <time>2025-04-25T09:30:25.000Z</time>
      </trkpt>
      <trkpt lat="43.40018" lon="6.07796">
        <ele>259.704796</ele>
        <time>2025-04-25T09:30:26.000Z</time>
      </trkpt>
      <trkpt lat="43.40018" lon="6.07796">
        <ele>259.704796</ele>
        <time>2025-04-25T09:30:26.000Z</time>
      </trkpt>
      <trkpt lat="43.40021" lon="6.07788">
        <ele>259.53774</ele>
        <time>2025-04-25T09:30:27.000Z</time>
      </trkpt>
      <trkpt lat="43.40021" lon="6.07788">
        <ele>259.53774</ele>
        <time>2025-04-25T09:30:27.000Z</time>
      </trkpt>
      <trkpt lat="43.40024" lon="6.0778">
        <ele>259.382051</ele>
        <time>2025-04-25T09:30:28.000Z</time>
      </trkpt>
      <trkpt lat="43.40027" lon="6.07771">
        <ele>259.210793</ele>
        <time>2025-04-25T09:30:29.000Z</time>
      </trkpt>
      <trkpt lat="43.40027" lon="6.07771">
        <ele>259.210793</ele>
        <time>2025-04-25T09:30:29.000Z</time>
      </trkpt>
      <trkpt lat="43.4003" lon="6.07763">
        <ele>259.045314</ele>
        <time>2025-04-25T09:30:30.000Z</time>
      </trkpt>
      <trkpt lat="43.40033" lon="6.07754">
        <ele>258.883445</ele>
        <time>2025-04-25T09:30:31.000Z</time>
      </trkpt>
      <trkpt lat="43.40033" lon="6.07754">
        <ele>258.883445</ele>
        <time>2025-04-25T09:30:31.000Z</time>
      </trkpt>
      <trkpt lat="43.40036" lon="6.07746">
        <ele>258.725795</ele>
        <time>2025-04-25T09:30:32.000Z</time>
      </trkpt>
      <trkpt lat="43.40036" lon="6.07746">
        <ele>258.725795</ele>
        <time>2025-04-25T09:30:32.000Z</time>
      </trkpt>
      <trkpt lat="43.40039" lon="6.07739">
        <ele>258.576076</ele>
        <time>2025-04-25T09:30:33.000Z</time>
      </trkpt>
      <trkpt lat="43.40042" lon="6.07731">
        <ele>258.424233</ele>
        <time>2025-04-25T09:30:34.000Z</time>
      </trkpt>
      <trkpt lat="43.40042" lon="6.07731">
        <ele>258.424233</ele>
        <time>2025-04-25T09:30:34.000Z</time>
      </trkpt>
      <trkpt lat="43.40046" lon="6.07725">
        <ele>258.269274</ele>
        <time>2025-04-25T09:30:35.000Z</time>
      </trkpt>
      <trkpt lat="43.4005" lon="6.07718">
        <ele>258.127234</ele>
        <time>2025-04-25T09:30:36.000Z</time>
      </trkpt>
      <trkpt lat="43.4005" lon="6.07718">
        <ele>258.127234</ele>
        <time>2025-04-25T09:30:36.000Z</time>
      </trkpt>
      <trkpt lat="43.40054" lon="6.07712">
        <ele>257.98385</ele>
        <time>2025-04-25T09:30:37.000Z</time>
      </trkpt>
      <trkpt lat="43.40058" lon="6.07706">
        <ele>257.840454</ele>
        <time>2025-04-25T09:30:38.000Z</time>
      </trkpt>
      <trkpt lat="43.40058" lon="6.07706">
        <ele>257.840454</ele>
        <time>2025-04-25T09:30:38.000Z</time>
      </trkpt>
      <trkpt lat="43.40063" lon="6.077">
        <ele>257.68771</ele>
        <time>2025-04-25T09:30:39.000Z</time>
      </trkpt>
      <trkpt lat="43.40063" lon="6.077">
        <ele>257.68771</ele>
        <time>2025-04-25T09:30:39.000Z</time>
      </trkpt>
      <trkpt lat="43.40068" lon="6.07694">
        <ele>257.520739</ele>
        <time>2025-04-25T09:30:40.000Z</time>
      </trkpt>
      <trkpt lat="43.40072" lon="6.07687">
        <ele>257.360963</ele>
        <time>2025-04-25T09:30:41.000Z</time>
      </trkpt>
      <trkpt lat="43.40072" lon="6.07687">
        <ele>257.360963</ele>
        <time>2025-04-25T09:30:41.000Z</time>
      </trkpt>
      <trkpt lat="43.40076" lon="6.0768">
        <ele>257.20788</ele>
        <time>2025-04-25T09:30:42.000Z</time>
      </trkpt>
      <trkpt lat="43.4008" lon="6.07672">
        <ele>257.033114</ele>
        <time>2025-04-25T09:30:43.000Z</time>
      </trkpt>
      <trkpt lat="43.4008" lon="6.07672">
        <ele>257.033114</ele>
        <time>2025-04-25T09:30:43.000Z</time>
      </trkpt>
      <trkpt lat="43.40084" lon="6.07663">
        <ele>256.855356</ele>
        <time>2025-04-25T09:30:44.000Z</time>
      </trkpt>
      <trkpt lat="43.40084" lon="6.07663">
        <ele>256.855356</ele>
        <time>2025-04-25T09:30:44.000Z</time>
      </trkpt>
      <trkpt lat="43.40087" lon="6.07655">
        <ele>256.688503</ele>
        <time>2025-04-25T09:30:45.000Z</time>
      </trkpt>
      <trkpt lat="43.40087" lon="6.07655">
        <ele>256.688503</ele>
        <time>2025-04-25T09:30:45.000Z</time>
      </trkpt>
      <trkpt lat="43.40089" lon="6.07645">
        <ele>256.373486</ele>
        <time>2025-04-25T09:30:46.000Z</time>
      </trkpt>
      <trkpt lat="43.40089" lon="6.07645">
        <ele>256.373486</ele>
        <time>2025-04-25T09:30:46.000Z</time>
      </trkpt>
      <trkpt lat="43.40092" lon="6.07633">
        <ele>255.911569</ele>
        <time>2025-04-25T09:30:47.000Z</time>
      </trkpt>
      <trkpt lat="43.40092" lon="6.07633">
        <ele>255.911569</ele>
        <time>2025-04-25T09:30:47.000Z</time>
      </trkpt>
      <trkpt lat="43.40094" lon="6.07607">
        <ele>254.998637</ele>
        <time>2025-04-25T09:30:49.000Z</time>
      </trkpt>
      <trkpt lat="43.40094" lon="6.07607">
        <ele>254.998637</ele>
        <time>2025-04-25T09:30:49.000Z</time>
      </trkpt>
      <trkpt lat="43.40095" lon="6.07599">
        <ele>254.722679</ele>
        <time>2025-04-25T09:30:50.000Z</time>
      </trkpt>
      <trkpt lat="43.40095" lon="6.07599">
        <ele>254.722679</ele>
        <time>2025-04-25T09:30:50.000Z</time>
      </trkpt>
      <trkpt lat="43.40097" lon="6.07591">
        <ele>254.40545</ele>
        <time>2025-04-25T09:30:51.000Z</time>
      </trkpt>
      <trkpt lat="43.40097" lon="6.07591">
        <ele>254.40545</ele>
        <time>2025-04-25T09:30:51.000Z</time>
      </trkpt>
      <trkpt lat="43.40099" lon="6.07582">
        <ele>254.08865</ele>
        <time>2025-04-25T09:30:52.000Z</time>
      </trkpt>
      <trkpt lat="43.40099" lon="6.07582">
        <ele>254.08865</ele>
        <time>2025-04-25T09:30:52.000Z</time>
      </trkpt>
      <trkpt lat="43.40102" lon="6.07575">
        <ele>253.770657</ele>
        <time>2025-04-25T09:30:53.000Z</time>
      </trkpt>
      <trkpt lat="43.40102" lon="6.07575">
        <ele>253.770657</ele>
        <time>2025-04-25T09:30:53.000Z</time>
      </trkpt>
      <trkpt lat="43.40107" lon="6.07566">
        <ele>253.413697</ele>
        <time>2025-04-25T09:30:54.000Z</time>
      </trkpt>
      <trkpt lat="43.40107" lon="6.07566">
        <ele>253.413697</ele>
        <time>2025-04-25T09:30:54.000Z</time>
      </trkpt>
      <trkpt lat="43.40112" lon="6.07559">
        <ele>253.055106</ele>
        <time>2025-04-25T09:30:55.000Z</time>
      </trkpt>
      <trkpt lat="43.40112" lon="6.07559">
        <ele>253.055106</ele>
        <time>2025-04-25T09:30:55.000Z</time>
      </trkpt>
      <trkpt lat="43.40117" lon="6.07551">
        <ele>252.685357</ele>
        <time>2025-04-25T09:30:56.000Z</time>
      </trkpt>
      <trkpt lat="43.40117" lon="6.07551">
        <ele>252.685357</ele>
        <time>2025-04-25T09:30:56.000Z</time>
      </trkpt>
      <trkpt lat="43.40121" lon="6.07544">
        <ele>252.375725</ele>
        <time>2025-04-25T09:30:57.000Z</time>
      </trkpt>
      <trkpt lat="43.40121" lon="6.07544">
        <ele>252.375725</ele>
        <time>2025-04-25T09:30:57.000Z</time>
      </trkpt>
      <trkpt lat="43.40124" lon="6.07536">
        <ele>252.057733</ele>
        <time>2025-04-25T09:30:58.000Z</time>
      </trkpt>
      <trkpt lat="43.40124" lon="6.07536">
        <ele>252.057733</ele>
        <time>2025-04-25T09:30:58.000Z</time>
      </trkpt>
      <trkpt lat="43.40128" lon="6.07529">
        <ele>251.737192</ele>
        <time>2025-04-25T09:30:59.000Z</time>
      </trkpt>
      <trkpt lat="43.40128" lon="6.07529">
        <ele>251.737192</ele>
        <time>2025-04-25T09:30:59.000Z</time>
      </trkpt>
      <trkpt lat="43.40131" lon="6.07521">
        <ele>251.41618</ele>
        <time>2025-04-25T09:31:00.000Z</time>
      </trkpt>
      <trkpt lat="43.40131" lon="6.07521">
        <ele>251.41618</ele>
        <time>2025-04-25T09:31:00.000Z</time>
      </trkpt>
      <trkpt lat="43.40134" lon="6.07513">
        <ele>251.079913</ele>
        <time>2025-04-25T09:31:01.000Z</time>
      </trkpt>
      <trkpt lat="43.40134" lon="6.07513">
        <ele>251.079913</ele>
        <time>2025-04-25T09:31:01.000Z</time>
      </trkpt>
      <trkpt lat="43.40138" lon="6.07504">
        <ele>250.728955</ele>
        <time>2025-04-25T09:31:02.000Z</time>
      </trkpt>
      <trkpt lat="43.40138" lon="6.07504">
        <ele>250.728955</ele>
        <time>2025-04-25T09:31:02.000Z</time>
      </trkpt>
      <trkpt lat="43.40141" lon="6.07495">
        <ele>250.373991</ele>
        <time>2025-04-25T09:31:03.000Z</time>
      </trkpt>
      <trkpt lat="43.40141" lon="6.07495">
        <ele>250.373991</ele>
        <time>2025-04-25T09:31:03.000Z</time>
      </trkpt>
      <trkpt lat="43.40143" lon="6.07485">
        <ele>250.01727</ele>
        <time>2025-04-25T09:31:04.000Z</time>
      </trkpt>
      <trkpt lat="43.40143" lon="6.07485">
        <ele>250.01727</ele>
        <time>2025-04-25T09:31:04.000Z</time>
      </trkpt>
      <trkpt lat="43.40146" lon="6.07475">
        <ele>249.626858</ele>
        <time>2025-04-25T09:31:05.000Z</time>
      </trkpt>
      <trkpt lat="43.40146" lon="6.07475">
        <ele>249.626858</ele>
        <time>2025-04-25T09:31:05.000Z</time>
      </trkpt>
      <trkpt lat="43.40147" lon="6.07465">
        <ele>249.266503</ele>
        <time>2025-04-25T09:31:06.000Z</time>
      </trkpt>
      <trkpt lat="43.40147" lon="6.07465">
        <ele>249.266503</ele>
        <time>2025-04-25T09:31:06.000Z</time>
      </trkpt>
      <trkpt lat="43.40149" lon="6.07455">
        <ele>248.913058</ele>
        <time>2025-04-25T09:31:07.000Z</time>
      </trkpt>
      <trkpt lat="43.40149" lon="6.07455">
        <ele>248.913058</ele>
        <time>2025-04-25T09:31:07.000Z</time>
      </trkpt>
      <trkpt lat="43.40149" lon="6.07445">
        <ele>248.552564</ele>
        <time>2025-04-25T09:31:08.000Z</time>
      </trkpt>
      <trkpt lat="43.40149" lon="6.07445">
        <ele>248.552564</ele>
        <time>2025-04-25T09:31:08.000Z</time>
      </trkpt>
      <trkpt lat="43.40148" lon="6.07435">
        <ele>248.222599</ele>
        <time>2025-04-25T09:31:09.000Z</time>
      </trkpt>
      <trkpt lat="43.40148" lon="6.07435">
        <ele>248.222599</ele>
        <time>2025-04-25T09:31:09.000Z</time>
      </trkpt>
      <trkpt lat="43.40147" lon="6.07426">
        <ele>247.899189</ele>
        <time>2025-04-25T09:31:10.000Z</time>
      </trkpt>
      <trkpt lat="43.40147" lon="6.07426">
        <ele>247.899189</ele>
        <time>2025-04-25T09:31:10.000Z</time>
      </trkpt>
      <trkpt lat="43.40145" lon="6.07417">
        <ele>247.655978</ele>
        <time>2025-04-25T09:31:11.000Z</time>
      </trkpt>
      <trkpt lat="43.40145" lon="6.07417">
        <ele>247.655978</ele>
        <time>2025-04-25T09:31:11.000Z</time>
      </trkpt>
      <trkpt lat="43.40144" lon="6.07408">
        <ele>247.415359</ele>
        <time>2025-04-25T09:31:11.000Z</time>
      </trkpt>
      <trkpt lat="43.40144" lon="6.07408">
        <ele>247.415359</ele>
        <time>2025-04-25T09:31:11.000Z</time>
      </trkpt>
      <trkpt lat="43.40142" lon="6.074">
        <ele>247.182508</ele>
        <time>2025-04-25T09:31:12.000Z</time>
      </trkpt>
      <trkpt lat="43.40142" lon="6.074">
        <ele>247.182508</ele>
        <time>2025-04-25T09:31:12.000Z</time>
      </trkpt>
      <trkpt lat="43.4014" lon="6.07383">
        <ele>246.731951</ele>
        <time>2025-04-25T09:31:14.000Z</time>
      </trkpt>
      <trkpt lat="43.4014" lon="6.07383">
        <ele>246.731951</ele>
        <time>2025-04-25T09:31:14.000Z</time>
      </trkpt>
      <trkpt lat="43.40141" lon="6.07375">
        <ele>246.513173</ele>
        <time>2025-04-25T09:31:15.000Z</time>
      </trkpt>
      <trkpt lat="43.40141" lon="6.07375">
        <ele>246.513173</ele>
        <time>2025-04-25T09:31:15.000Z</time>
      </trkpt>
      <trkpt lat="43.40141" lon="6.07367">
        <ele>246.294395</ele>
        <time>2025-04-25T09:31:16.000Z</time>
      </trkpt>
      <trkpt lat="43.40141" lon="6.07367">
        <ele>246.294395</ele>
        <time>2025-04-25T09:31:16.000Z</time>
      </trkpt>
      <trkpt lat="43.40142" lon="6.07348">
        <ele>245.801048</ele>
        <time>2025-04-25T09:31:18.000Z</time>
      </trkpt>
      <trkpt lat="43.40142" lon="6.07348">
        <ele>245.801048</ele>
        <time>2025-04-25T09:31:18.000Z</time>
      </trkpt>
      <trkpt lat="43.40142" lon="6.07339">
        <ele>245.550389</ele>
        <time>2025-04-25T09:31:19.000Z</time>
      </trkpt>
      <trkpt lat="43.40142" lon="6.07339">
        <ele>245.550389</ele>
        <time>2025-04-25T09:31:19.000Z</time>
      </trkpt>
      <trkpt lat="43.40143" lon="6.0733">
        <ele>245.312084</ele>
        <time>2025-04-25T09:31:21.000Z</time>
      </trkpt>
      <trkpt lat="43.40143" lon="6.0733">
        <ele>245.312084</ele>
        <time>2025-04-25T09:31:21.000Z</time>
      </trkpt>
      <trkpt lat="43.40144" lon="6.07321">
        <ele>245.068073</ele>
        <time>2025-04-25T09:31:21.000Z</time>
      </trkpt>
      <trkpt lat="43.40144" lon="6.07321">
        <ele>245.068073</ele>
        <time>2025-04-25T09:31:21.000Z</time>
      </trkpt>
      <trkpt lat="43.40144" lon="6.07312">
        <ele>244.81918</ele>
        <time>2025-04-25T09:31:22.000Z</time>
      </trkpt>
      <trkpt lat="43.40144" lon="6.07312">
        <ele>244.81918</ele>
        <time>2025-04-25T09:31:22.000Z</time>
      </trkpt>
      <trkpt lat="43.40145" lon="6.07293">
        <ele>244.315204</ele>
        <time>2025-04-25T09:31:24.000Z</time>
      </trkpt>
      <trkpt lat="43.40145" lon="6.07293">
        <ele>244.315204</ele>
        <time>2025-04-25T09:31:24.000Z</time>
      </trkpt>
      <trkpt lat="43.40146" lon="6.07284">
        <ele>244.080487</ele>
        <time>2025-04-25T09:31:25.000Z</time>
      </trkpt>
      <trkpt lat="43.40146" lon="6.07284">
        <ele>244.080487</ele>
        <time>2025-04-25T09:31:25.000Z</time>
      </trkpt>
      <trkpt lat="43.40146" lon="6.07275">
        <ele>243.835581</ele>
        <time>2025-04-25T09:31:26.000Z</time>
      </trkpt>
      <trkpt lat="43.40146" lon="6.07275">
        <ele>243.835581</ele>
        <time>2025-04-25T09:31:26.000Z</time>
      </trkpt>
      <trkpt lat="43.40145" lon="6.07258">
        <ele>243.382799</ele>
        <time>2025-04-25T09:31:28.000Z</time>
      </trkpt>
      <trkpt lat="43.40145" lon="6.07258">
        <ele>243.382799</ele>
        <time>2025-04-25T09:31:28.000Z</time>
      </trkpt>
      <trkpt lat="43.40145" lon="6.0725">
        <ele>243.174644</ele>
        <time>2025-04-25T09:31:29.000Z</time>
      </trkpt>
      <trkpt lat="43.40145" lon="6.0725">
        <ele>243.174644</ele>
        <time>2025-04-25T09:31:29.000Z</time>
      </trkpt>
      <trkpt lat="43.40146" lon="6.07242">
        <ele>242.970209</ele>
        <time>2025-04-25T09:31:30.000Z</time>
      </trkpt>
      <trkpt lat="43.40152" lon="6.07228">
        <ele>242.52665</ele>
        <time>2025-04-25T09:31:32.000Z</time>
      </trkpt>
      <trkpt lat="43.40152" lon="6.07228">
        <ele>242.52665</ele>
        <time>2025-04-25T09:31:32.000Z</time>
      </trkpt>
      <trkpt lat="43.40156" lon="6.07222">
        <ele>242.296274</ele>
        <time>2025-04-25T09:31:33.000Z</time>
      </trkpt>
      <trkpt lat="43.40161" lon="6.07217">
        <ele>242.083155</ele>
        <time>2025-04-25T09:31:34.000Z</time>
      </trkpt>
      <trkpt lat="43.40161" lon="6.07217">
        <ele>242.083155</ele>
        <time>2025-04-25T09:31:34.000Z</time>
      </trkpt>
      <trkpt lat="43.40166" lon="6.07212">
        <ele>241.844681</ele>
        <time>2025-04-25T09:31:35.000Z</time>
      </trkpt>
      <trkpt lat="43.40166" lon="6.07212">
        <ele>241.844681</ele>
        <time>2025-04-25T09:31:35.000Z</time>
      </trkpt>
      <trkpt lat="43.40171" lon="6.07207">
        <ele>241.610753</ele>
        <time>2025-04-25T09:31:36.000Z</time>
      </trkpt>
      <trkpt lat="43.40171" lon="6.07207">
        <ele>241.610753</ele>
        <time>2025-04-25T09:31:36.000Z</time>
      </trkpt>
      <trkpt lat="43.40178" lon="6.07202">
        <ele>241.355908</ele>
        <time>2025-04-25T09:31:37.000Z</time>
      </trkpt>
      <trkpt lat="43.40178" lon="6.07202">
        <ele>241.355908</ele>
        <time>2025-04-25T09:31:37.000Z</time>
      </trkpt>
      <trkpt lat="43.40185" lon="6.07197">
        <ele>240.957763</ele>
        <time>2025-04-25T09:31:38.000Z</time>
      </trkpt>
      <trkpt lat="43.40185" lon="6.07197">
        <ele>240.957763</ele>
        <time>2025-04-25T09:31:38.000Z</time>
      </trkpt>
      <trkpt lat="43.40201" lon="6.07188">
        <ele>240.060799</ele>
        <time>2025-04-25T09:31:40.000Z</time>
      </trkpt>
      <trkpt lat="43.40201" lon="6.07188">
        <ele>240.060799</ele>
        <time>2025-04-25T09:31:40.000Z</time>
      </trkpt>
      <trkpt lat="43.40209" lon="6.07184">
        <ele>239.635017</ele>
        <time>2025-04-25T09:31:41.000Z</time>
      </trkpt>
      <trkpt lat="43.40209" lon="6.07184">
        <ele>239.635017</ele>
        <time>2025-04-25T09:31:41.000Z</time>
      </trkpt>
      <trkpt lat="43.40219" lon="6.07179">
        <ele>239.110809</ele>
        <time>2025-04-25T09:31:42.000Z</time>
      </trkpt>
      <trkpt lat="43.40219" lon="6.07179">
        <ele>239.110809</ele>
        <time>2025-04-25T09:31:42.000Z</time>
      </trkpt>
      <trkpt lat="43.40228" lon="6.07175">
        <ele>238.630966</ele>
        <time>2025-04-25T09:31:43.000Z</time>
      </trkpt>
      <trkpt lat="43.40228" lon="6.07175">
        <ele>238.630966</ele>
        <time>2025-04-25T09:31:43.000Z</time>
      </trkpt>
      <trkpt lat="43.40237" lon="6.07173">
        <ele>238.197367</ele>
        <time>2025-04-25T09:31:44.000Z</time>
      </trkpt>
      <trkpt lat="43.40237" lon="6.07173">
        <ele>238.197367</ele>
        <time>2025-04-25T09:31:44.000Z</time>
      </trkpt>
      <trkpt lat="43.40243" lon="6.07171">
        <ele>237.887691</ele>
        <time>2025-04-25T09:31:45.000Z</time>
      </trkpt>
      <trkpt lat="43.40243" lon="6.07171">
        <ele>237.887691</ele>
        <time>2025-04-25T09:31:45.000Z</time>
      </trkpt>
      <trkpt lat="43.40249" lon="6.07171">
        <ele>237.580275</ele>
        <time>2025-04-25T09:31:46.000Z</time>
      </trkpt>
      <trkpt lat="43.40249" lon="6.07171">
        <ele>237.580275</ele>
        <time>2025-04-25T09:31:46.000Z</time>
      </trkpt>
      <trkpt lat="43.40255" lon="6.0717">
        <ele>237.292831</ele>
        <time>2025-04-25T09:31:47.000Z</time>
      </trkpt>
      <trkpt lat="43.40255" lon="6.0717">
        <ele>237.292831</ele>
        <time>2025-04-25T09:31:47.000Z</time>
      </trkpt>
      <trkpt lat="43.4026" lon="6.07168">
        <ele>237.022748</ele>
        <time>2025-04-25T09:31:48.000Z</time>
      </trkpt>
      <trkpt lat="43.4027" lon="6.07173">
        <ele>223.5</ele>
        <time>2025-04-25T09:31:48.000Z</time>
        <extensions>
          <visugpx:TrkExtension xmlns:visugpx="https://www.visugpx.com/editgpx/">
            <visugpx:node>1</visugpx:node>
            </visugpx:TrkExtension>
        </extensions>
      </trkpt>
      <trkpt lat="43.40291" lon="6.07193">
        <ele>223</ele>
        <extensions>
          <visugpx:TrkExtension xmlns:visugpx="https://www.visugpx.com/editgpx/">
            <visugpx:node>2</visugpx:node>
            </visugpx:TrkExtension>
        </extensions>
      </trkpt>
      <trkpt lat="43.40309" lon="6.07209">
        <ele>222.8</ele>
        <extensions>
          <visugpx:TrkExtension xmlns:visugpx="https://www.visugpx.com/editgpx/">
            <visugpx:node>3</visugpx:node>
            </visugpx:TrkExtension>
        </extensions>
      </trkpt>
      <trkpt lat="43.40315" lon="6.07213">
        <ele>222.8</ele>
      </trkpt>
      <trkpt lat="43.40352" lon="6.0723">
        <ele>221.4</ele>
        <extensions>
          <visugpx:TrkExtension xmlns:visugpx="https://www.visugpx.com/editgpx/">
            <visugpx:node>4</visugpx:node>
            </visugpx:TrkExtension>
        </extensions>
      </trkpt>
      <trkpt lat="43.40354" lon="6.07231">
        <ele>221.3</ele>
      </trkpt>
      <trkpt lat="43.40359" lon="6.0724">
        <ele>221.1</ele>
      </trkpt>
      <trkpt lat="43.40362" lon="6.07255">
        <ele>221.2</ele>
        <extensions>
          <visugpx:TrkExtension xmlns:visugpx="https://www.visugpx.com/editgpx/">
            <visugpx:node>5</visugpx:node>
            </visugpx:TrkExtension>
        </extensions>
      </trkpt>
      <trkpt lat="43.4036" lon="6.07271">
        <ele>221.8</ele>
        <extensions>
          <visugpx:TrkExtension xmlns:visugpx="https://www.visugpx.com/editgpx/">
            <visugpx:node>6</visugpx:node>
            </visugpx:TrkExtension>
        </extensions>
      </trkpt>
      <trkpt lat="43.40347" lon="6.07269">
        <ele>222.3</ele>
        <extensions>
          <visugpx:TrkExtension xmlns:visugpx="https://www.visugpx.com/editgpx/">
            <visugpx:node>7</visugpx:node>
            </visugpx:TrkExtension>
        </extensions>
      </trkpt>
      <trkpt lat="43.40345" lon="6.07269">
        <ele>222.4</ele>
        <extensions>
          <visugpx:TrkExtension xmlns:visugpx="https://www.visugpx.com/editgpx/">
            <visugpx:node>9</visugpx:node>
            </visugpx:TrkExtension>
        </extensions>
      </trkpt>
    </trkseg>
  </trk>
</gpx>